<?xml version='1.0' encoding='UTF-8'?><gpx version="1.1" creator="JPX - https://github.com/jenetics/jpx" xmlns="http://www.topografix.com/GPX/1/1"><trk><trkseg><trkpt lat="43.465402282513026" lon="5.963594635815138"><ele>297.0</ele><time>2026-04-22T09:18:42.001Z</time></trkpt><trkpt lat="43.46554595000755" lon="5.963531984524628"><ele>300.0</ele><time>2026-04-22T09:18:43.001Z</time></trkpt><trkpt lat="43.465698105331036" lon="5.9634969551641985"><ele>303.0</ele><time>2026-04-22T09:18:44.001Z</time></trkpt><trkpt lat="43.4658489054746" lon="5.9634549677012805"><ele>303.0</ele><time>2026-04-22T09:18:45.001Z</time></trkpt><trkpt lat="43.46599844587597" lon="5.9633727375943995"><ele>303.0</ele><time>2026-04-22T09:18:46.001Z</time></trkpt><trkpt lat="43.466143033931345" lon="5.9632786883775974"><ele>303.0</ele><time>2026-04-22T09:18:47.001Z</time></trkpt><trkpt lat="43.46626347191654" lon="5.963179389986216"><ele>302.0</ele><time>2026-04-22T09:18:48.001Z</time></trkpt><trkpt lat="43.46637023258865" lon="5.963089010075104"><ele>301.0</ele><time>2026-04-22T09:18:49.001Z</time></trkpt><trkpt lat="43.46647315163057" lon="5.963036999202088"><ele>300.0</ele><time>2026-04-22T09:18:50.001Z</time></trkpt><trkpt lat="43.46654552031822" lon="5.962990841925612"><ele>299.0</ele><time>2026-04-22T09:18:51.001Z</time></trkpt><trkpt lat="43.46661545090079" lon="5.962947657790401"><ele>298.0</ele><time>2026-04-22T09:18:52.001Z</time></trkpt><trkpt lat="43.46669095440386" lon="5.96289264371061"><ele>298.0</ele><time>2026-04-22T09:18:53.001Z</time></trkpt><trkpt lat="43.46675984357645" lon="5.9627842133031415"><ele>298.0</ele><time>2026-04-22T09:18:54.001Z</time></trkpt><trkpt lat="43.46683056647307" lon="5.962657130316526"><ele>298.0</ele><time>2026-04-22T09:18:55.001Z</time></trkpt><trkpt lat="43.46689592270397" lon="5.96249977657887"><ele>298.0</ele><time>2026-04-22T09:18:56.001Z</time></trkpt><trkpt lat="43.46695303682584" lon="5.962359982676316"><ele>297.4</ele><time>2026-04-22T09:18:57.001Z</time></trkpt><trkpt lat="43.46700772964713" lon="5.962235416793515"><ele>296.8</ele><time>2026-04-22T09:18:58.001Z</time></trkpt><trkpt lat="43.46705926056853" lon="5.962109820913393"><ele>296.2</ele><time>2026-04-22T09:18:59.001Z</time></trkpt><trkpt lat="43.46710504946135" lon="5.961975367211087"><ele>295.6</ele><time>2026-04-22T09:19:00.001Z</time></trkpt><trkpt lat="43.4671517898721" lon="5.961839036510724"><ele>295.0</ele><time>2026-04-22T09:19:01.001Z</time></trkpt><trkpt lat="43.46720900185704" lon="5.9617190638094995"><ele>294.6</ele><time>2026-04-22T09:19:02.001Z</time></trkpt><trkpt lat="43.467273372455175" lon="5.9616159142431275"><ele>294.2</ele><time>2026-04-22T09:19:03.001Z</time></trkpt><trkpt lat="43.46735138862783" lon="5.961518907539561"><ele>293.8</ele><time>2026-04-22T09:19:04.001Z</time></trkpt><trkpt lat="43.46744130429843" lon="5.961419355520541"><ele>293.4</ele><time>2026-04-22T09:19:05.001Z</time></trkpt><trkpt lat="43.46753971443224" lon="5.961340494157738"><ele>293.0</ele><time>2026-04-22T09:19:05.999Z</time></trkpt><trkpt lat="43.46764337418422" lon="5.961273665687395"><ele>293.0</ele><time>2026-04-22T09:19:06.999Z</time></trkpt><trkpt lat="43.467749907011324" lon="5.9612159948658165"><ele>293.0</ele><time>2026-04-22T09:19:07.999Z</time></trkpt><trkpt lat="43.467850941391944" lon="5.961158526261632"><ele>293.0</ele><time>2026-04-22T09:19:08.999Z</time></trkpt><trkpt lat="43.467947726337485" lon="5.9611012746486685"><ele>293.0</ele><time>2026-04-22T09:19:09.999Z</time></trkpt><trkpt lat="43.46803078686356" lon="5.961047535083315"><ele>293.0</ele><time>2026-04-22T09:19:10.999Z</time></trkpt><trkpt lat="43.46810575268794" lon="5.960991113024492"><ele>293.5</ele><time>2026-04-22T09:19:11.999Z</time></trkpt><trkpt lat="43.4681700500809" lon="5.960931473648567"><ele>294.0</ele><time>2026-04-22T09:19:12.999Z</time></trkpt><trkpt lat="43.4682347326628" lon="5.960865545712358"><ele>294.5</ele><time>2026-04-22T09:19:13.999Z</time></trkpt><trkpt lat="43.468298479042204" lon="5.960782537747124"><ele>295.0</ele><time>2026-04-22T09:19:14.999Z</time></trkpt><trkpt lat="43.46836614008746" lon="5.960686122173314"><ele>295.5</ele><time>2026-04-22T09:19:15.999Z</time></trkpt><trkpt lat="43.468436215362246" lon="5.960586379763533"><ele>296.0</ele><time>2026-04-22T09:19:17Z</time></trkpt><trkpt lat="43.46850573512997" lon="5.960478602224982"><ele>296.0</ele><time>2026-04-22T09:19:18Z</time></trkpt><trkpt lat="43.46857904015152" lon="5.96038507135208"><ele>296.0</ele><time>2026-04-22T09:19:19Z</time></trkpt><trkpt lat="43.46865866254427" lon="5.9602850675911565"><ele>296.0</ele><time>2026-04-22T09:19:20Z</time></trkpt><trkpt lat="43.468748132896586" lon="5.9601981268822986"><ele>296.0</ele><time>2026-04-22T09:19:21Z</time></trkpt><trkpt lat="43.46884712691718" lon="5.9601169810394685"><ele>296.0</ele><time>2026-04-22T09:19:22Z</time></trkpt><trkpt lat="43.46895110686314" lon="5.960059126153329"><ele>295.1666666666667</ele><time>2026-04-22T09:19:23Z</time></trkpt><trkpt lat="43.469052054811726" lon="5.960021048838381"><ele>294.33333333333337</ele><time>2026-04-22T09:19:24Z</time></trkpt><trkpt lat="43.46914504179949" lon="5.96000051796184"><ele>293.5</ele><time>2026-04-22T09:19:25Z</time></trkpt><trkpt lat="43.469233606593605" lon="5.959987964502424"><ele>292.6666666666667</ele><time>2026-04-22T09:19:26Z</time></trkpt><trkpt lat="43.46931609832314" lon="5.95997060658128"><ele>291.8333333333333</ele><time>2026-04-22T09:19:27Z</time></trkpt><trkpt lat="43.469388433477064" lon="5.959932190462199"><ele>291.0</ele><time>2026-04-22T09:19:28Z</time></trkpt><trkpt lat="43.46945253135096" lon="5.959889733498086"><ele>291.0</ele><time>2026-04-22T09:19:29Z</time></trkpt><trkpt lat="43.46950918542934" lon="5.959836886059555"><ele>291.0</ele><time>2026-04-22T09:19:30Z</time></trkpt><trkpt lat="43.46956424457764" lon="5.959790830660812"><ele>291.0</ele><time>2026-04-22T09:19:31Z</time></trkpt><trkpt lat="43.46966833592312" lon="5.959741023436953"><ele>291.0</ele><time>2026-04-22T09:19:33Z</time></trkpt><trkpt lat="43.46973195567492" lon="5.959752227233881"><ele>291.0</ele><time>2026-04-22T09:19:34Z</time></trkpt><trkpt lat="43.469803216209996" lon="5.9597636746052896"><ele>291.0</ele><time>2026-04-22T09:19:35Z</time></trkpt><trkpt lat="43.469879303143586" lon="5.959751612680084"><ele>290.0</ele><time>2026-04-22T09:19:36Z</time></trkpt><trkpt lat="43.46995464140605" lon="5.95969323813927"><ele>289.0</ele><time>2026-04-22T09:19:37Z</time></trkpt><trkpt lat="43.469996846961344" lon="5.959604016958083"><ele>288.0</ele><time>2026-04-22T09:19:38Z</time></trkpt><trkpt lat="43.4700098259582" lon="5.959512945942068"><ele>287.0</ele><time>2026-04-22T09:19:39Z</time></trkpt><trkpt lat="43.470009497831576" lon="5.959416342543326"><ele>286.0</ele><time>2026-04-22T09:19:40Z</time></trkpt><trkpt lat="43.46996563202631" lon="5.9593272394725645"><ele>285.0</ele><time>2026-04-22T09:19:41Z</time></trkpt><trkpt lat="43.470019214216634" lon="5.959211321195722"><ele>285.0</ele><time>2026-04-22T09:19:42Z</time></trkpt><trkpt lat="43.470048399223664" lon="5.9591067895136405"><ele>285.0</ele><time>2026-04-22T09:19:43Z</time></trkpt><trkpt lat="43.47007802739685" lon="5.959007787405026"><ele>285.0</ele><time>2026-04-22T09:19:44Z</time></trkpt><trkpt lat="43.47011511619733" lon="5.958840467633211"><ele>285.0</ele><time>2026-04-22T09:19:46Z</time></trkpt><trkpt lat="43.470139278605515" lon="5.958638523319284"><ele>285.0</ele><time>2026-04-22T09:19:49Z</time></trkpt><trkpt lat="43.4701440051896" lon="5.958504219103642"><ele>285.0</ele><time>2026-04-22T09:19:51Z</time></trkpt><trkpt lat="43.47015263368029" lon="5.958391688753096"><ele>285.0</ele><time>2026-04-22T09:19:52Z</time></trkpt><trkpt lat="43.4701726834379" lon="5.958270525282186"><ele>285.0</ele><time>2026-04-22T09:19:53Z</time></trkpt><trkpt lat="43.47018829219837" lon="5.9581350151562225"><ele>285.0</ele><time>2026-04-22T09:19:54Z</time></trkpt><trkpt lat="43.47020576793856" lon="5.957998511052465"><ele>285.0</ele><time>2026-04-22T09:19:55Z</time></trkpt><trkpt lat="43.47022733095116" lon="5.957859088736364"><ele>285.2</ele><time>2026-04-22T09:19:56Z</time></trkpt><trkpt lat="43.47026071253971" lon="5.957743816818066"><ele>285.4</ele><time>2026-04-22T09:19:57Z</time></trkpt><trkpt lat="43.47030228427534" lon="5.9576316898056465"><ele>285.6</ele><time>2026-04-22T09:19:58Z</time></trkpt><trkpt lat="43.4703684208646" lon="5.957514543175661"><ele>285.8</ele><time>2026-04-22T09:19:59Z</time></trkpt><trkpt lat="43.47045812097163" lon="5.9574104543027175"><ele>286.0</ele><time>2026-04-22T09:20:00Z</time></trkpt><trkpt lat="43.470560871360895" lon="5.9573024863304"><ele>284.8</ele><time>2026-04-22T09:20:01Z</time></trkpt><trkpt lat="43.47064677462532" lon="5.957189302978196"><ele>283.6</ele><time>2026-04-22T09:20:02Z</time></trkpt><trkpt lat="43.47072307682037" lon="5.957096012969976"><ele>282.4</ele><time>2026-04-22T09:20:03Z</time></trkpt><trkpt lat="43.470789029037306" lon="5.95700444986824"><ele>281.2</ele><time>2026-04-22T09:20:04Z</time></trkpt><trkpt lat="43.47085088026823" lon="5.9569215278767915"><ele>280.0</ele><time>2026-04-22T09:20:05Z</time></trkpt><trkpt lat="43.47089881725731" lon="5.956843309520028"><ele>280.0</ele><time>2026-04-22T09:20:06Z</time></trkpt><trkpt lat="43.470946472036346" lon="5.956766812415714"><ele>280.0</ele><time>2026-04-22T09:20:07Z</time></trkpt><trkpt lat="43.470995891204836" lon="5.956662049697824"><ele>280.0</ele><time>2026-04-22T09:20:08Z</time></trkpt><trkpt lat="43.471050758594295" lon="5.956541582818745"><ele>280.0</ele><time>2026-04-22T09:20:09Z</time></trkpt><trkpt lat="43.471113842795674" lon="5.95640376454915"><ele>280.0</ele><time>2026-04-22T09:20:10Z</time></trkpt><trkpt lat="43.471184012135204" lon="5.956245928771612"><ele>281.0</ele><time>2026-04-22T09:20:11Z</time></trkpt><trkpt lat="43.47125487877773" lon="5.956093616669962"><ele>282.0</ele><time>2026-04-22T09:20:12Z</time></trkpt><trkpt lat="43.4713217597632" lon="5.955931828018148"><ele>283.0</ele><time>2026-04-22T09:20:13Z</time></trkpt><trkpt lat="43.47138494638694" lon="5.95576613541672"><ele>284.0</ele><time>2026-04-22T09:20:14.001Z</time></trkpt><trkpt lat="43.47144675243033" lon="5.955585548433606"><ele>282.8</ele><time>2026-04-22T09:20:15.001Z</time></trkpt><trkpt lat="43.47150470977694" lon="5.955426822493653"><ele>281.59999999999997</ele><time>2026-04-22T09:20:16.001Z</time></trkpt><trkpt lat="43.47154846799153" lon="5.9552698275026295"><ele>280.4</ele><time>2026-04-22T09:20:17.001Z</time></trkpt><trkpt lat="43.47159093409239" lon="5.955140119677177"><ele>279.2</ele><time>2026-04-22T09:20:18.001Z</time></trkpt><trkpt lat="43.471623146958386" lon="5.955045525775204"><ele>278.0</ele><time>2026-04-22T09:20:19.001Z</time></trkpt><trkpt lat="43.47164439595565" lon="5.95496038015498"><ele>278.0</ele><time>2026-04-22T09:20:20.001Z</time></trkpt><trkpt lat="43.47168287614482" lon="5.954869565154275"><ele>278.0</ele><time>2026-04-22T09:20:21.001Z</time></trkpt><trkpt lat="43.471728307222975" lon="5.954765935545893"><ele>278.0</ele><time>2026-04-22T09:20:22.001Z</time></trkpt><trkpt lat="43.47177030588024" lon="5.954635165401854"><ele>278.0</ele><time>2026-04-22T09:20:23.001Z</time></trkpt><trkpt lat="43.471816288539706" lon="5.954507643108544"><ele>278.0</ele><time>2026-04-22T09:20:24.001Z</time></trkpt><trkpt lat="43.471845791952774" lon="5.954369924042046"><ele>278.0</ele><time>2026-04-22T09:20:25.001Z</time></trkpt><trkpt lat="43.471897670901164" lon="5.954233408455846"><ele>278.0</ele><time>2026-04-22T09:20:26.001Z</time></trkpt><trkpt lat="43.471941490689204" lon="5.954112429867471"><ele>278.0</ele><time>2026-04-22T09:20:27.001Z</time></trkpt><trkpt lat="43.47199207478624" lon="5.954026691742702"><ele>278.0</ele><time>2026-04-22T09:20:28.001Z</time></trkpt><trkpt lat="43.47204209800959" lon="5.953929811664148"><ele>278.0</ele><time>2026-04-22T09:20:29.001Z</time></trkpt><trkpt lat="43.472090501268454" lon="5.953818252206403"><ele>278.0</ele><time>2026-04-22T09:20:30.001Z</time></trkpt><trkpt lat="43.47213343343862" lon="5.953724242810343"><ele>278.0</ele><time>2026-04-22T09:20:31.001Z</time></trkpt><trkpt lat="43.47220984030281" lon="5.953594716433248"><ele>278.0</ele><time>2026-04-22T09:20:33.001Z</time></trkpt><trkpt lat="43.47225729614594" lon="5.95352544981399"><ele>278.0</ele><time>2026-04-22T09:20:34.001Z</time></trkpt><trkpt lat="43.47231246785725" lon="5.953443086277451"><ele>278.0</ele><time>2026-04-22T09:20:36.001Z</time></trkpt><trkpt lat="43.472338440750214" lon="5.953241333036976"><ele>278.0</ele><time>2026-04-22T09:20:38.001Z</time></trkpt><trkpt lat="43.47233844140786" lon="5.95307679927681"><ele>278.0</ele><time>2026-04-22T09:20:40.001Z</time></trkpt><trkpt lat="43.472267021585346" lon="5.952936189286043"><ele>278.0</ele><time>2026-04-22T09:20:42.001Z</time></trkpt><trkpt lat="43.472206744409824" lon="5.9528776694370595"><ele>278.0</ele><time>2026-04-22T09:20:43.001Z</time></trkpt><trkpt lat="43.47214846822948" lon="5.9528051699109925"><ele>278.0</ele><time>2026-04-22T09:20:44.001Z</time></trkpt><trkpt lat="43.4720770408737" lon="5.952749977046719"><ele>278.57142857142856</ele><time>2026-04-22T09:20:46.001Z</time></trkpt><trkpt lat="43.47200827243359" lon="5.952710618647539"><ele>279.14285714285717</ele><time>2026-04-22T09:20:48.001Z</time></trkpt><trkpt lat="43.47195084293044" lon="5.9526572952640455"><ele>279.7142857142857</ele><time>2026-04-22T09:20:50.001Z</time></trkpt><trkpt lat="43.47190077877219" lon="5.952600120166188"><ele>280.2857142857143</ele><time>2026-04-22T09:20:52.001Z</time></trkpt><trkpt lat="43.471898705669425" lon="5.952470420346616"><ele>280.85714285714283</ele><time>2026-04-22T09:20:54.001Z</time></trkpt><trkpt lat="43.471899114981824" lon="5.952373479080962"><ele>281.42857142857144</ele><time>2026-04-22T09:20:55.001Z</time></trkpt><trkpt lat="43.47192056883981" lon="5.952277087076166"><ele>282.0</ele><time>2026-04-22T09:20:56.001Z</time></trkpt><trkpt lat="43.47194242787762" lon="5.95214761097764"><ele>279.5</ele><time>2026-04-22T09:20:57.001Z</time></trkpt><trkpt lat="43.47196423976607" lon="5.952024380054997"><ele>277.0</ele><time>2026-04-22T09:20:58.001Z</time></trkpt><trkpt lat="43.47199895189746" lon="5.951908393515713"><ele>274.5</ele><time>2026-04-22T09:20:59.001Z</time></trkpt><trkpt lat="43.47204726960987" lon="5.951852626846923"><ele>272.0</ele><time>2026-04-22T09:21:00.001Z</time></trkpt><trkpt lat="43.47207498562761" lon="5.951751313435303"><ele>269.5</ele><time>2026-04-22T09:21:01.001Z</time></trkpt><trkpt lat="43.4721106443126" lon="5.9516412362241855"><ele>267.0</ele><time>2026-04-22T09:21:02.001Z</time></trkpt><trkpt lat="43.47209294401788" lon="5.951490152980452"><ele>266.5</ele><time>2026-04-22T09:21:04.001Z</time></trkpt><trkpt lat="43.47211051896223" lon="5.95140284901538"><ele>266.0</ele><time>2026-04-22T09:21:05.001Z</time></trkpt><trkpt lat="43.47213664836091" lon="5.951307460293874"><ele>265.5</ele><time>2026-04-22T09:21:06.001Z</time></trkpt><trkpt lat="43.47215981368563" lon="5.951197665380923"><ele>265.0</ele><time>2026-04-22T09:21:07.001Z</time></trkpt><trkpt lat="43.47218115108932" lon="5.951096924086604"><ele>264.5</ele><time>2026-04-22T09:21:08.001Z</time></trkpt><trkpt lat="43.472238139807104" lon="5.950936142374715"><ele>264.0</ele><time>2026-04-22T09:21:10.001Z</time></trkpt><trkpt lat="43.47232235373411" lon="5.950824006462346"><ele>264.0</ele><time>2026-04-22T09:21:12Z</time></trkpt><trkpt lat="43.472418906563234" lon="5.950684045596447"><ele>264.0</ele><time>2026-04-22T09:21:14Z</time></trkpt><trkpt lat="43.47249294233187" lon="5.950596630716442"><ele>264.0</ele><time>2026-04-22T09:21:15Z</time></trkpt><trkpt lat="43.472574286549644" lon="5.950497670966085"><ele>264.0</ele><time>2026-04-22T09:21:16Z</time></trkpt><trkpt lat="43.47266483354692" lon="5.950414486284137"><ele>264.0</ele><time>2026-04-22T09:21:17Z</time></trkpt><trkpt lat="43.47276175010089" lon="5.950326195695889"><ele>264.0</ele><time>2026-04-22T09:21:18Z</time></trkpt><trkpt lat="43.472869926729494" lon="5.950231532781575"><ele>264.0</ele><time>2026-04-22T09:21:19Z</time></trkpt><trkpt lat="43.4729841944458" lon="5.9501323751634"><ele>264.0</ele><time>2026-04-22T09:21:20Z</time></trkpt><trkpt lat="43.4731003793372" lon="5.950027610070982"><ele>264.0</ele><time>2026-04-22T09:21:21Z</time></trkpt><trkpt lat="43.47321865364681" lon="5.949930589326756"><ele>264.0</ele><time>2026-04-22T09:21:22Z</time></trkpt><trkpt lat="43.47335783963591" lon="5.949823716001399"><ele>264.0</ele><time>2026-04-22T09:21:23Z</time></trkpt><trkpt lat="43.47349693263023" lon="5.949726255968995"><ele>264.0</ele><time>2026-04-22T09:21:24Z</time></trkpt><trkpt lat="43.473667897024775" lon="5.9496019363923764"><ele>264.0</ele><time>2026-04-22T09:21:25Z</time></trkpt><trkpt lat="43.47382716878655" lon="5.949477629200168"><ele>264.0</ele><time>2026-04-22T09:21:26Z</time></trkpt><trkpt lat="43.474008660473984" lon="5.949334440531828"><ele>264.0</ele><time>2026-04-22T09:21:27Z</time></trkpt><trkpt lat="43.474191663501344" lon="5.949159580455965"><ele>264.0</ele><time>2026-04-22T09:21:28Z</time></trkpt><trkpt lat="43.4743714480051" lon="5.948997056629192"><ele>264.0</ele><time>2026-04-22T09:21:29Z</time></trkpt><trkpt lat="43.47454979607755" lon="5.948853690800734"><ele>262.0</ele><time>2026-04-22T09:21:30Z</time></trkpt><trkpt lat="43.47472672052355" lon="5.948720048120431"><ele>260.0</ele><time>2026-04-22T09:21:31Z</time></trkpt><trkpt lat="43.4749101525057" lon="5.948562938625885"><ele>258.0</ele><time>2026-04-22T09:21:32Z</time></trkpt><trkpt lat="43.475096189780466" lon="5.948422127513976"><ele>258.3333333333333</ele><time>2026-04-22T09:21:33Z</time></trkpt><trkpt lat="43.47528265179771" lon="5.948275027453671"><ele>258.66666666666663</ele><time>2026-04-22T09:21:34Z</time></trkpt><trkpt lat="43.47545750993832" lon="5.948129164613331"><ele>259.0</ele><time>2026-04-22T09:21:35Z</time></trkpt><trkpt lat="43.475628415716876" lon="5.947983374626601"><ele>259.0</ele><time>2026-04-22T09:21:36Z</time></trkpt><trkpt lat="43.47579953350413" lon="5.947839339117607"><ele>259.0</ele><time>2026-04-22T09:21:37Z</time></trkpt><trkpt lat="43.47596370871072" lon="5.947704069017553"><ele>259.0</ele><time>2026-04-22T09:21:38Z</time></trkpt><trkpt lat="43.47611840423775" lon="5.947615466141572"><ele>258.0</ele><time>2026-04-22T09:21:39Z</time></trkpt><trkpt lat="43.47630133466168" lon="5.947563226792156"><ele>257.0</ele><time>2026-04-22T09:21:40Z</time></trkpt><trkpt lat="43.47649982550004" lon="5.947539839027366"><ele>256.0</ele><time>2026-04-22T09:21:41Z</time></trkpt><trkpt lat="43.476690766905044" lon="5.947512971844992"><ele>256.0</ele><time>2026-04-22T09:21:42Z</time></trkpt><trkpt lat="43.47685939271736" lon="5.947495404080822"><ele>256.0</ele><time>2026-04-22T09:21:43Z</time></trkpt><trkpt lat="43.47698204687796" lon="5.947641109526068"><ele>256.0</ele><time>2026-04-22T09:21:44Z</time></trkpt><trkpt lat="43.47709192914839" lon="5.947778739659264"><ele>260.3333333333333</ele><time>2026-04-22T09:21:45Z</time></trkpt><trkpt lat="43.47719124931166" lon="5.947932766956037"><ele>264.6666666666667</ele><time>2026-04-22T09:21:46Z</time></trkpt><trkpt lat="43.47730310183544" lon="5.948087795140679"><ele>269.0</ele><time>2026-04-22T09:21:47Z</time></trkpt><trkpt lat="43.47742111588605" lon="5.948254355197156"><ele>265.6666666666667</ele><time>2026-04-22T09:21:48Z</time></trkpt><trkpt lat="43.47751873243539" lon="5.948441217813204"><ele>262.3333333333333</ele><time>2026-04-22T09:21:49Z</time></trkpt><trkpt lat="43.47757363440781" lon="5.948644736138233"><ele>259.0</ele><time>2026-04-22T09:21:50Z</time></trkpt><trkpt lat="43.47759568129104" lon="5.94884979160141"><ele>259.0</ele><time>2026-04-22T09:21:51Z</time></trkpt><trkpt lat="43.47758242837129" lon="5.949057875591192"><ele>259.0</ele><time>2026-04-22T09:21:52Z</time></trkpt><trkpt lat="43.47758863402559" lon="5.949254428022238"><ele>259.0</ele><time>2026-04-22T09:21:53Z</time></trkpt><trkpt lat="43.477637844228525" lon="5.9494129312102135"><ele>259.0</ele><time>2026-04-22T09:21:54Z</time></trkpt><trkpt lat="43.47771396377417" lon="5.949525491608607"><ele>259.0</ele><time>2026-04-22T09:21:55Z</time></trkpt><trkpt lat="43.47776261736692" lon="5.949581797547112"><ele>259.0</ele><time>2026-04-22T09:21:56Z</time></trkpt><trkpt lat="43.47794463330663" lon="5.9495473666659455"><ele>259.0</ele><time>2026-04-22T09:21:58Z</time></trkpt><trkpt lat="43.47808425661305" lon="5.949437024935643"><ele>259.0</ele><time>2026-04-22T09:21:59Z</time></trkpt><trkpt lat="43.478235714947616" lon="5.949199266185798"><ele>259.0</ele><time>2026-04-22T09:22:00Z</time></trkpt><trkpt lat="43.47835165185083" lon="5.949022048881221"><ele>259.0</ele><time>2026-04-22T09:22:01Z</time></trkpt><trkpt lat="43.4784642088541" lon="5.948856310560718"><ele>259.0</ele><time>2026-04-22T09:22:02Z</time></trkpt><trkpt lat="43.478571937178046" lon="5.948650326022835"><ele>259.0</ele><time>2026-04-22T09:22:03Z</time></trkpt><trkpt lat="43.478687574941596" lon="5.948452885461575"><ele>259.0</ele><time>2026-04-22T09:22:04Z</time></trkpt><trkpt lat="43.4788119025427" lon="5.948250007510143"><ele>259.0</ele><time>2026-04-22T09:22:05Z</time></trkpt><trkpt lat="43.47893426962342" lon="5.948070652134721"><ele>258.66666666666663</ele><time>2026-04-22T09:22:06Z</time></trkpt><trkpt lat="43.47905629752311" lon="5.947936614898013"><ele>258.3333333333333</ele><time>2026-04-22T09:22:07Z</time></trkpt><trkpt lat="43.479200246580454" lon="5.947855404853102"><ele>258.0</ele><time>2026-04-22T09:22:08Z</time></trkpt><trkpt lat="43.479352487462045" lon="5.947819729897342"><ele>258.0</ele><time>2026-04-22T09:22:09Z</time></trkpt><trkpt lat="43.4795462818989" lon="5.9478441683124945"><ele>258.0</ele><time>2026-04-22T09:22:10Z</time></trkpt><trkpt lat="43.47973555220572" lon="5.947867170533369"><ele>258.0</ele><time>2026-04-22T09:22:11.001Z</time></trkpt><trkpt lat="43.47993196441963" lon="5.947893862800839"><ele>257.3333333333333</ele><time>2026-04-22T09:22:12.001Z</time></trkpt><trkpt lat="43.48014069847902" lon="5.947897599655396"><ele>256.66666666666663</ele><time>2026-04-22T09:22:13.001Z</time></trkpt><trkpt lat="43.4803505077537" lon="5.947893464681302"><ele>256.0</ele><time>2026-04-22T09:22:14.001Z</time></trkpt><trkpt lat="43.48053958233937" lon="5.947859904112553"><ele>257.66666666666663</ele><time>2026-04-22T09:22:15.001Z</time></trkpt><trkpt lat="43.480716523903084" lon="5.947829918824962"><ele>259.3333333333333</ele><time>2026-04-22T09:22:16.001Z</time></trkpt><trkpt lat="43.48088453278408" lon="5.94785929307064"><ele>261.0</ele><time>2026-04-22T09:22:17.001Z</time></trkpt><trkpt lat="43.481034068626556" lon="5.9479382849663756"><ele>261.0</ele><time>2026-04-22T09:22:18.001Z</time></trkpt><trkpt lat="43.48116887902338" lon="5.948078352518247"><ele>261.0</ele><time>2026-04-22T09:22:19.001Z</time></trkpt><trkpt lat="43.4812895944443" lon="5.948239462625804"><ele>261.0</ele><time>2026-04-22T09:22:20.001Z</time></trkpt><trkpt lat="43.4814018271377" lon="5.948408637378519"><ele>261.6666666666667</ele><time>2026-04-22T09:22:21.001Z</time></trkpt><trkpt lat="43.481477991793426" lon="5.948590796799961"><ele>262.33333333333337</ele><time>2026-04-22T09:22:22.001Z</time></trkpt><trkpt lat="43.48153040292878" lon="5.948779709282027"><ele>263.0</ele><time>2026-04-22T09:22:23.001Z</time></trkpt><trkpt lat="43.481614627083616" lon="5.948964992330578"><ele>263.0</ele><time>2026-04-22T09:22:24.001Z</time></trkpt><trkpt lat="43.48175254910181" lon="5.9491074954866905"><ele>263.0</ele><time>2026-04-22T09:22:25.001Z</time></trkpt><trkpt lat="43.481894962385276" lon="5.949238503119451"><ele>263.0</ele><time>2026-04-22T09:22:26.001Z</time></trkpt><trkpt lat="43.48206003560172" lon="5.949332905309878"><ele>260.33333333333337</ele><time>2026-04-22T09:22:27.001Z</time></trkpt><trkpt lat="43.48223704008511" lon="5.949390027688771"><ele>257.6666666666667</ele><time>2026-04-22T09:22:28.001Z</time></trkpt><trkpt lat="43.482426220221804" lon="5.949387982679883"><ele>255.0</ele><time>2026-04-22T09:22:29.001Z</time></trkpt><trkpt lat="43.48261233303682" lon="5.949351292508731"><ele>255.0</ele><time>2026-04-22T09:22:30.001Z</time></trkpt><trkpt lat="43.48279409790031" lon="5.9492992274167635"><ele>255.0</ele><time>2026-04-22T09:22:31.001Z</time></trkpt><trkpt lat="43.48298327818074" lon="5.949249034407473"><ele>255.0</ele><time>2026-04-22T09:22:32.001Z</time></trkpt><trkpt lat="43.48317881658977" lon="5.949190974161122"><ele>258.0</ele><time>2026-04-22T09:22:33.001Z</time></trkpt><trkpt lat="43.48336397153009" lon="5.949120675545411"><ele>261.0</ele><time>2026-04-22T09:22:34.001Z</time></trkpt><trkpt lat="43.48353579847431" lon="5.949037660653938"><ele>264.0</ele><time>2026-04-22T09:22:35.001Z</time></trkpt><trkpt lat="43.483678184483864" lon="5.948976220065375"><ele>262.3333333333333</ele><time>2026-04-22T09:22:36.001Z</time></trkpt><trkpt lat="43.483808789763636" lon="5.948894423328459"><ele>260.66666666666663</ele><time>2026-04-22T09:22:37.001Z</time></trkpt><trkpt lat="43.48392245237185" lon="5.948774917535581"><ele>259.0</ele><time>2026-04-22T09:22:38.001Z</time></trkpt><trkpt lat="43.48403215649452" lon="5.948592485514209"><ele>259.0</ele><time>2026-04-22T09:22:39.001Z</time></trkpt><trkpt lat="43.484176924180105" lon="5.9484748945828265"><ele>259.0</ele><time>2026-04-22T09:22:40.001Z</time></trkpt><trkpt lat="43.48433598123782" lon="5.948380949823813"><ele>259.0</ele><time>2026-04-22T09:22:41.001Z</time></trkpt><trkpt lat="43.484512804673805" lon="5.9483185770778615"><ele>260.66666666666663</ele><time>2026-04-22T09:22:42.001Z</time></trkpt><trkpt lat="43.4847160466397" lon="5.948268359642022"><ele>262.3333333333333</ele><time>2026-04-22T09:22:43.001Z</time></trkpt><trkpt lat="43.48492808490749" lon="5.948253280308228"><ele>264.0</ele><time>2026-04-22T09:22:44.001Z</time></trkpt><trkpt lat="43.48512848061308" lon="5.9482229077184625"><ele>264.0</ele><time>2026-04-22T09:22:45.001Z</time></trkpt><trkpt lat="43.485318261990635" lon="5.948224894470304"><ele>264.0</ele><time>2026-04-22T09:22:46.001Z</time></trkpt><trkpt lat="43.485501793644616" lon="5.948232840618834"><ele>264.0</ele><time>2026-04-22T09:22:47.001Z</time></trkpt><trkpt lat="43.485670311060865" lon="5.948286128799443"><ele>261.6666666666667</ele><time>2026-04-22T09:22:48.001Z</time></trkpt><trkpt lat="43.48583032104192" lon="5.94832595172614"><ele>259.33333333333337</ele><time>2026-04-22T09:22:49.001Z</time></trkpt><trkpt lat="43.48598983736873" lon="5.9483327963315045"><ele>257.0</ele><time>2026-04-22T09:22:50.001Z</time></trkpt><trkpt lat="43.48614987043608" lon="5.948346533420406"><ele>257.0</ele><time>2026-04-22T09:22:51.001Z</time></trkpt><trkpt lat="43.486311356766834" lon="5.94836805361586"><ele>257.0</ele><time>2026-04-22T09:22:52.001Z</time></trkpt><trkpt lat="43.486451473936484" lon="5.948395964809912"><ele>257.0</ele><time>2026-04-22T09:22:53.001Z</time></trkpt><trkpt lat="43.486591270320005" lon="5.948444967845135"><ele>257.0</ele><time>2026-04-22T09:22:54.001Z</time></trkpt><trkpt lat="43.48670416804607" lon="5.948579854328534"><ele>257.0</ele><time>2026-04-22T09:22:55.001Z</time></trkpt><trkpt lat="43.4868353874495" lon="5.948704719513664"><ele>257.0</ele><time>2026-04-22T09:22:56.001Z</time></trkpt><trkpt lat="43.486977242449" lon="5.9488433969804655"><ele>257.0</ele><time>2026-04-22T09:22:57.001Z</time></trkpt><trkpt lat="43.48710590789311" lon="5.948959769756308"><ele>256.25</ele><time>2026-04-22T09:22:58.001Z</time></trkpt><trkpt lat="43.48722853170926" lon="5.9490704356635655"><ele>255.5</ele><time>2026-04-22T09:22:59.001Z</time></trkpt><trkpt lat="43.48735100469393" lon="5.94917192691484"><ele>254.75</ele><time>2026-04-22T09:23:00.001Z</time></trkpt><trkpt lat="43.487473073920405" lon="5.949255371751136"><ele>254.0</ele><time>2026-04-22T09:23:01.001Z</time></trkpt><trkpt lat="43.48760324928213" lon="5.949329477929444"><ele>254.0</ele><time>2026-04-22T09:23:02.001Z</time></trkpt><trkpt lat="43.487737712209885" lon="5.949388815511884"><ele>254.0</ele><time>2026-04-22T09:23:03.001Z</time></trkpt><trkpt lat="43.48788760661815" lon="5.949437576578609"><ele>254.0</ele><time>2026-04-22T09:23:04.001Z</time></trkpt><trkpt lat="43.48803842731317" lon="5.94947702186636"><ele>254.0</ele><time>2026-04-22T09:23:05.001Z</time></trkpt><trkpt lat="43.4881900531111" lon="5.949510552555076"><ele>254.33333333333334</ele><time>2026-04-22T09:23:06.001Z</time></trkpt><trkpt lat="43.488339746070764" lon="5.949520537532257"><ele>254.66666666666669</ele><time>2026-04-22T09:23:07.001Z</time></trkpt><trkpt lat="43.48849613525997" lon="5.949509927518946"><ele>255.0</ele><time>2026-04-22T09:23:08.001Z</time></trkpt><trkpt lat="43.48867893833695" lon="5.949450606340096"><ele>254.66666666666669</ele><time>2026-04-22T09:23:09.001Z</time></trkpt><trkpt lat="43.48884528462643" lon="5.949414481047614"><ele>254.33333333333334</ele><time>2026-04-22T09:23:10.001Z</time></trkpt><trkpt lat="43.489004708831565" lon="5.949377287105863"><ele>254.0</ele><time>2026-04-22T09:23:11.001Z</time></trkpt><trkpt lat="43.48916214233527" lon="5.949325349414244"><ele>254.0</ele><time>2026-04-22T09:23:12.001Z</time></trkpt><trkpt lat="43.489313202122666" lon="5.949261304934025"><ele>254.0</ele><time>2026-04-22T09:23:13.001Z</time></trkpt><trkpt lat="43.489461338095865" lon="5.949200129572065"><ele>254.0</ele><time>2026-04-22T09:23:14.001Z</time></trkpt><trkpt lat="43.48961499615093" lon="5.94913695048129"><ele>255.33333333333334</ele><time>2026-04-22T09:23:15.001Z</time></trkpt><trkpt lat="43.489760954937104" lon="5.949035347022314"><ele>256.6666666666667</ele><time>2026-04-22T09:23:16.001Z</time></trkpt><trkpt lat="43.48990928519725" lon="5.948905360078073"><ele>258.0</ele><time>2026-04-22T09:23:17.001Z</time></trkpt><trkpt lat="43.49005304658764" lon="5.948786014144261"><ele>258.0</ele><time>2026-04-22T09:23:18Z</time></trkpt><trkpt lat="43.49020050234547" lon="5.94868346287801"><ele>258.0</ele><time>2026-04-22T09:23:19Z</time></trkpt><trkpt lat="43.49036281817925" lon="5.948559002111121"><ele>258.0</ele><time>2026-04-22T09:23:20Z</time></trkpt><trkpt lat="43.49051587367006" lon="5.94849932426597"><ele>258.6666666666667</ele><time>2026-04-22T09:23:21Z</time></trkpt><trkpt lat="43.490671205007615" lon="5.948412776085015"><ele>259.33333333333337</ele><time>2026-04-22T09:23:22Z</time></trkpt><trkpt lat="43.49083155101823" lon="5.948332834491767"><ele>260.0</ele><time>2026-04-22T09:23:23Z</time></trkpt><trkpt lat="43.49098497934633" lon="5.948240443065372"><ele>260.0</ele><time>2026-04-22T09:23:24Z</time></trkpt><trkpt lat="43.49112896623418" lon="5.948130552082"><ele>260.0</ele><time>2026-04-22T09:23:25Z</time></trkpt><trkpt lat="43.491272314104464" lon="5.948031564012033"><ele>260.0</ele><time>2026-04-22T09:23:26Z</time></trkpt><trkpt lat="43.4914136222577" lon="5.947947999084424"><ele>258.6666666666667</ele><time>2026-04-22T09:23:27Z</time></trkpt><trkpt lat="43.49155623031587" lon="5.947881431237834"><ele>257.3333333333333</ele><time>2026-04-22T09:23:28Z</time></trkpt><trkpt lat="43.49170942587319" lon="5.947822543300069"><ele>256.0</ele><time>2026-04-22T09:23:29Z</time></trkpt><trkpt lat="43.49187422415547" lon="5.947778214985065"><ele>256.0</ele><time>2026-04-22T09:23:30Z</time></trkpt><trkpt lat="43.49204221873498" lon="5.947745764781821"><ele>256.0</ele><time>2026-04-22T09:23:31Z</time></trkpt><trkpt lat="43.49220340845871" lon="5.947708897810382"><ele>256.0</ele><time>2026-04-22T09:23:32Z</time></trkpt><trkpt lat="43.49235992226314" lon="5.947678148578207"><ele>255.66666666666666</ele><time>2026-04-22T09:23:33Z</time></trkpt><trkpt lat="43.492517466813716" lon="5.947631264714768"><ele>255.33333333333331</ele><time>2026-04-22T09:23:34Z</time></trkpt><trkpt lat="43.49267171600544" lon="5.947608850699408"><ele>255.0</ele><time>2026-04-22T09:23:35Z</time></trkpt><trkpt lat="43.49283092338807" lon="5.947598858667366"><ele>257.0</ele><time>2026-04-22T09:23:36Z</time></trkpt><trkpt lat="43.492986015885776" lon="5.947629710895562"><ele>259.0</ele><time>2026-04-22T09:23:37Z</time></trkpt><trkpt lat="43.49313690341337" lon="5.947611980360053"><ele>261.0</ele><time>2026-04-22T09:23:38Z</time></trkpt><trkpt lat="43.49329219998925" lon="5.947593180488581"><ele>261.0</ele><time>2026-04-22T09:23:39Z</time></trkpt><trkpt lat="43.49344151920219" lon="5.947568555847224"><ele>261.0</ele><time>2026-04-22T09:23:40Z</time></trkpt><trkpt lat="43.49360825288201" lon="5.947588739625367"><ele>261.0</ele><time>2026-04-22T09:23:41Z</time></trkpt><trkpt lat="43.49377450243171" lon="5.947624769241145"><ele>262.5</ele><time>2026-04-22T09:23:42Z</time></trkpt><trkpt lat="43.49392022900125" lon="5.947659007671658"><ele>264.0</ele><time>2026-04-22T09:23:43Z</time></trkpt><trkpt lat="43.49405276359116" lon="5.947686121971063"><ele>265.5</ele><time>2026-04-22T09:23:44Z</time></trkpt><trkpt lat="43.49418090453765" lon="5.947686134586839"><ele>267.0</ele><time>2026-04-22T09:23:45Z</time></trkpt><trkpt lat="43.49429736799091" lon="5.947721150152684"><ele>267.0</ele><time>2026-04-22T09:23:46Z</time></trkpt><trkpt lat="43.494403485806785" lon="5.947728849639845"><ele>267.0</ele><time>2026-04-22T09:23:47Z</time></trkpt><trkpt lat="43.494502706859116" lon="5.9477218283690885"><ele>267.0</ele><time>2026-04-22T09:23:48Z</time></trkpt><trkpt lat="43.49459928662878" lon="5.947652002027306"><ele>267.0</ele><time>2026-04-22T09:23:49Z</time></trkpt><trkpt lat="43.49469686515822" lon="5.9475313385847475"><ele>267.0</ele><time>2026-04-22T09:23:50Z</time></trkpt><trkpt lat="43.49479300975199" lon="5.94738173035403"><ele>267.75</ele><time>2026-04-22T09:23:51Z</time></trkpt><trkpt lat="43.49488542334546" lon="5.947210577519495"><ele>268.5</ele><time>2026-04-22T09:23:52Z</time></trkpt><trkpt lat="43.49496443155767" lon="5.947032378074119"><ele>269.25</ele><time>2026-04-22T09:23:53Z</time></trkpt><trkpt lat="43.4950339984623" lon="5.9468686195395275"><ele>270.0</ele><time>2026-04-22T09:23:54Z</time></trkpt><trkpt lat="43.495106920049324" lon="5.94670502050765"><ele>270.5</ele><time>2026-04-22T09:23:55Z</time></trkpt><trkpt lat="43.49518322091711" lon="5.946532664569559"><ele>271.0</ele><time>2026-04-22T09:23:56Z</time></trkpt><trkpt lat="43.495263709220325" lon="5.946364439950417"><ele>271.5</ele><time>2026-04-22T09:23:57Z</time></trkpt><trkpt lat="43.495344372560176" lon="5.946198165616905"><ele>272.0</ele><time>2026-04-22T09:23:58Z</time></trkpt><trkpt lat="43.495420353804526" lon="5.946041585270937"><ele>272.0</ele><time>2026-04-22T09:23:59Z</time></trkpt><trkpt lat="43.49549077765433" lon="5.945891512956023"><ele>272.0</ele><time>2026-04-22T09:24:00Z</time></trkpt><trkpt lat="43.495546572050905" lon="5.945734533146325"><ele>272.0</ele><time>2026-04-22T09:24:01Z</time></trkpt><trkpt lat="43.49557406897732" lon="5.9455558092290195"><ele>272.0</ele><time>2026-04-22T09:24:02Z</time></trkpt><trkpt lat="43.495563436055434" lon="5.945369513840853"><ele>273.0</ele><time>2026-04-22T09:24:03Z</time></trkpt><trkpt lat="43.495512083293384" lon="5.945183274244795"><ele>274.0</ele><time>2026-04-22T09:24:04Z</time></trkpt><trkpt lat="43.49544726105396" lon="5.945010481155955"><ele>275.0</ele><time>2026-04-22T09:24:05Z</time></trkpt><trkpt lat="43.4953894089852" lon="5.944830193308086"><ele>276.0</ele><time>2026-04-22T09:24:06Z</time></trkpt><trkpt lat="43.495349547278956" lon="5.94464375438265"><ele>276.0</ele><time>2026-04-22T09:24:07.001Z</time></trkpt><trkpt lat="43.49531874251665" lon="5.944439737903673"><ele>276.0</ele><time>2026-04-22T09:24:08.001Z</time></trkpt><trkpt lat="43.495314555403986" lon="5.944223673315989"><ele>276.0</ele><time>2026-04-22T09:24:09.001Z</time></trkpt><trkpt lat="43.49534087166867" lon="5.944008073541551"><ele>275.6666666666667</ele><time>2026-04-22T09:24:10.001Z</time></trkpt><trkpt lat="43.4953624094053" lon="5.943758715606282"><ele>275.33333333333337</ele><time>2026-04-22T09:24:11.001Z</time></trkpt><trkpt lat="43.49538412092256" lon="5.943523658204962"><ele>275.0</ele><time>2026-04-22T09:24:12.001Z</time></trkpt><trkpt lat="43.4954023414565" lon="5.943298533219235"><ele>274.6666666666667</ele><time>2026-04-22T09:24:13.001Z</time></trkpt><trkpt lat="43.49540705692995" lon="5.943066905556792"><ele>274.3333333333333</ele><time>2026-04-22T09:24:14.001Z</time></trkpt><trkpt lat="43.495425031885006" lon="5.942838154965003"><ele>274.0</ele><time>2026-04-22T09:24:15.001Z</time></trkpt><trkpt lat="43.495432190306346" lon="5.942614692971526"><ele>278.66666666666663</ele><time>2026-04-22T09:24:16.001Z</time></trkpt><trkpt lat="43.49544405535044" lon="5.9424062725105165"><ele>283.3333333333333</ele><time>2026-04-22T09:24:17.001Z</time></trkpt><trkpt lat="43.495453052289854" lon="5.942194959788741"><ele>288.0</ele><time>2026-04-22T09:24:18.001Z</time></trkpt><trkpt lat="43.49546612251677" lon="5.941990914373961"><ele>288.0</ele><time>2026-04-22T09:24:19.001Z</time></trkpt><trkpt lat="43.49547847954498" lon="5.9417717101536365"><ele>288.0</ele><time>2026-04-22T09:24:20.001Z</time></trkpt><trkpt lat="43.495486945958326" lon="5.941571528179692"><ele>288.0</ele><time>2026-04-22T09:24:21.001Z</time></trkpt><trkpt lat="43.49552409506276" lon="5.94138382826487"><ele>288.0</ele><time>2026-04-22T09:24:22.001Z</time></trkpt><trkpt lat="43.495589755859655" lon="5.941230488422789"><ele>286.6666666666667</ele><time>2026-04-22T09:24:23.001Z</time></trkpt><trkpt lat="43.49567399971064" lon="5.941083520146094"><ele>285.33333333333337</ele><time>2026-04-22T09:24:24.001Z</time></trkpt><trkpt lat="43.49579496042368" lon="5.940964666914204"><ele>284.0</ele><time>2026-04-22T09:24:25.001Z</time></trkpt><trkpt lat="43.495937678236395" lon="5.940819891081319"><ele>287.0</ele><time>2026-04-22T09:24:26.001Z</time></trkpt><trkpt lat="43.49608064820513" lon="5.940704640892007"><ele>290.0</ele><time>2026-04-22T09:24:27.001Z</time></trkpt><trkpt lat="43.49621290958204" lon="5.940569640810184"><ele>293.0</ele><time>2026-04-22T09:24:28.001Z</time></trkpt><trkpt lat="43.496338811725224" lon="5.9404385032807525"><ele>293.0</ele><time>2026-04-22T09:24:29.001Z</time></trkpt><trkpt lat="43.496448381855856" lon="5.9402991810785"><ele>293.0</ele><time>2026-04-22T09:24:30.001Z</time></trkpt><trkpt lat="43.49656125893105" lon="5.940174561343914"><ele>293.0</ele><time>2026-04-22T09:24:31.001Z</time></trkpt><trkpt lat="43.496685643694285" lon="5.9400767084287915"><ele>293.0</ele><time>2026-04-22T09:24:32.001Z</time></trkpt><trkpt lat="43.49681615858982" lon="5.940021241606784"><ele>290.75</ele><time>2026-04-22T09:24:33.001Z</time></trkpt><trkpt lat="43.49694618617478" lon="5.939956535398535"><ele>288.5</ele><time>2026-04-22T09:24:34.001Z</time></trkpt><trkpt lat="43.497069287093964" lon="5.93986969823302"><ele>286.25</ele><time>2026-04-22T09:24:35.001Z</time></trkpt><trkpt lat="43.49717027186217" lon="5.939730684447516"><ele>284.0</ele><time>2026-04-22T09:24:36.001Z</time></trkpt><trkpt lat="43.49724094665309" lon="5.939551274505159"><ele>284.0</ele><time>2026-04-22T09:24:37.001Z</time></trkpt><trkpt lat="43.49727707578712" lon="5.939353236473641"><ele>284.0</ele><time>2026-04-22T09:24:38.001Z</time></trkpt><trkpt lat="43.49731598417126" lon="5.939163498214377"><ele>284.0</ele><time>2026-04-22T09:24:39.001Z</time></trkpt><trkpt lat="43.49735674707762" lon="5.938989961720155"><ele>284.0</ele><time>2026-04-22T09:24:40.001Z</time></trkpt><trkpt lat="43.49739071706251" lon="5.938797985132261"><ele>283.0</ele><time>2026-04-22T09:24:41.001Z</time></trkpt><trkpt lat="43.49743002886139" lon="5.938588555401239"><ele>282.0</ele><time>2026-04-22T09:24:42.001Z</time></trkpt><trkpt lat="43.49746720937956" lon="5.938358297587181"><ele>281.0</ele><time>2026-04-22T09:24:43.001Z</time></trkpt><trkpt lat="43.49750562641275" lon="5.938139832807352"><ele>281.0</ele><time>2026-04-22T09:24:44.001Z</time></trkpt><trkpt lat="43.49753444607673" lon="5.9379198720737785"><ele>281.0</ele><time>2026-04-22T09:24:45.001Z</time></trkpt><trkpt lat="43.49755870735604" lon="5.937693370111494"><ele>281.0</ele><time>2026-04-22T09:24:46.001Z</time></trkpt><trkpt lat="43.49758187824496" lon="5.937477229543072"><ele>280.6666666666667</ele><time>2026-04-22T09:24:47.001Z</time></trkpt><trkpt lat="43.49759445757201" lon="5.93726739828012"><ele>280.3333333333333</ele><time>2026-04-22T09:24:48.001Z</time></trkpt><trkpt lat="43.497666156635006" lon="5.937094620219615"><ele>280.0</ele><time>2026-04-22T09:24:49.001Z</time></trkpt><trkpt lat="43.49775923036809" lon="5.9369198665668135"><ele>280.0</ele><time>2026-04-22T09:24:50.001Z</time></trkpt><trkpt lat="43.49788150306248" lon="5.936763299286075"><ele>280.0</ele><time>2026-04-22T09:24:51.001Z</time></trkpt><trkpt lat="43.49801575087146" lon="5.936627198269262"><ele>280.0</ele><time>2026-04-22T09:24:52.001Z</time></trkpt><trkpt lat="43.49817021127797" lon="5.936506988376729"><ele>281.66666666666663</ele><time>2026-04-22T09:24:53.001Z</time></trkpt><trkpt lat="43.49833472568096" lon="5.936425336298789"><ele>283.3333333333333</ele><time>2026-04-22T09:24:54.001Z</time></trkpt><trkpt lat="43.49851158943333" lon="5.936359371739651"><ele>285.0</ele><time>2026-04-22T09:24:55.001Z</time></trkpt><trkpt lat="43.4986902317736" lon="5.9362957609269085"><ele>288.6666666666667</ele><time>2026-04-22T09:24:56.001Z</time></trkpt><trkpt lat="43.49885720970631" lon="5.936212851205445"><ele>292.33333333333337</ele><time>2026-04-22T09:24:57.001Z</time></trkpt><trkpt lat="43.49900806268083" lon="5.936156021774867"><ele>296.0</ele><time>2026-04-22T09:24:58.001Z</time></trkpt><trkpt lat="43.499147797201324" lon="5.936082803504848"><ele>296.0</ele><time>2026-04-22T09:24:59.001Z</time></trkpt><trkpt lat="43.499261780327316" lon="5.935976297441497"><ele>296.0</ele><time>2026-04-22T09:25:00.001Z</time></trkpt><trkpt lat="43.49934996396703" lon="5.935799266032475"><ele>296.0</ele><time>2026-04-22T09:25:01.001Z</time></trkpt><trkpt lat="43.499416492143894" lon="5.935611698844991"><ele>296.0</ele><time>2026-04-22T09:25:02.001Z</time></trkpt><trkpt lat="43.4994824069091" lon="5.935422425765169"><ele>296.33333333333337</ele><time>2026-04-22T09:25:03.001Z</time></trkpt><trkpt lat="43.499541787361395" lon="5.935229705571588"><ele>296.6666666666667</ele><time>2026-04-22T09:25:04.001Z</time></trkpt><trkpt lat="43.49959517914224" lon="5.935033428174737"><ele>297.0</ele><time>2026-04-22T09:25:05.001Z</time></trkpt><trkpt lat="43.49965009969003" lon="5.934835195470338"><ele>297.0</ele><time>2026-04-22T09:25:06.001Z</time></trkpt><trkpt lat="43.49970380428312" lon="5.934635565633621"><ele>297.0</ele><time>2026-04-22T09:25:07.001Z</time></trkpt><trkpt lat="43.49977140350007" lon="5.934432466749114"><ele>297.0</ele><time>2026-04-22T09:25:08.001Z</time></trkpt><trkpt lat="43.49983811376094" lon="5.934208372349889"><ele>294.6666666666667</ele><time>2026-04-22T09:25:09.001Z</time></trkpt><trkpt lat="43.499892091517694" lon="5.933975978034966"><ele>292.33333333333337</ele><time>2026-04-22T09:25:10.001Z</time></trkpt><trkpt lat="43.499931856573674" lon="5.933727835250625"><ele>290.0</ele><time>2026-04-22T09:25:11.001Z</time></trkpt><trkpt lat="43.499957160721024" lon="5.933480668293323"><ele>290.6666666666667</ele><time>2026-04-22T09:25:12.001Z</time></trkpt><trkpt lat="43.49998136442739" lon="5.933243075133952"><ele>291.3333333333333</ele><time>2026-04-22T09:25:13.001Z</time></trkpt><trkpt lat="43.499984736338426" lon="5.933025894968733"><ele>292.0</ele><time>2026-04-22T09:25:14.001Z</time></trkpt><trkpt lat="43.49999547266417" lon="5.932811660081704"><ele>292.0</ele><time>2026-04-22T09:25:15.001Z</time></trkpt><trkpt lat="43.49998449273388" lon="5.93257429694769"><ele>292.0</ele><time>2026-04-22T09:25:16.001Z</time></trkpt><trkpt lat="43.499989161650035" lon="5.932365698172759"><ele>292.0</ele><time>2026-04-22T09:25:17.001Z</time></trkpt><trkpt lat="43.499971004859006" lon="5.932157659905757"><ele>292.25</ele><time>2026-04-22T09:25:18.001Z</time></trkpt><trkpt lat="43.499969365283015" lon="5.931953646816637"><ele>292.5</ele><time>2026-04-22T09:25:19.001Z</time></trkpt><trkpt lat="43.499967912377684" lon="5.931740662676047"><ele>292.75</ele><time>2026-04-22T09:25:20.001Z</time></trkpt><trkpt lat="43.49997918005711" lon="5.93154298446392"><ele>293.0</ele><time>2026-04-22T09:25:21.001Z</time></trkpt><trkpt lat="43.500001799390546" lon="5.93136564612589"><ele>292.5</ele><time>2026-04-22T09:25:22.002Z</time></trkpt><trkpt lat="43.500075637630786" lon="5.931226957832728"><ele>292.0</ele><time>2026-04-22T09:25:23.002Z</time></trkpt><trkpt lat="43.50017439254491" lon="5.931119457487708"><ele>291.5</ele><time>2026-04-22T09:25:24Z</time></trkpt><trkpt lat="43.50028659572279" lon="5.931013556520907"><ele>291.0</ele><time>2026-04-22T09:25:25Z</time></trkpt><trkpt lat="43.50041694992066" lon="5.930977388864592"><ele>291.0</ele><time>2026-04-22T09:25:26Z</time></trkpt><trkpt lat="43.50055542735898" lon="5.93097978307601"><ele>291.0</ele><time>2026-04-22T09:25:27Z</time></trkpt><trkpt lat="43.500711045517725" lon="5.93101673467615"><ele>291.0</ele><time>2026-04-22T09:25:28Z</time></trkpt><trkpt lat="43.50088271532274" lon="5.93102089339963"><ele>291.0</ele><time>2026-04-22T09:25:29Z</time></trkpt><trkpt lat="43.50105070118434" lon="5.930960022620893"><ele>291.0</ele><time>2026-04-22T09:25:30Z</time></trkpt><trkpt lat="43.5012057520835" lon="5.93089868784032"><ele>291.0</ele><time>2026-04-22T09:25:31Z</time></trkpt><trkpt lat="43.501367011051194" lon="5.930833186731652"><ele>294.5</ele><time>2026-04-22T09:25:32Z</time></trkpt><trkpt lat="43.50150931926298" lon="5.9307842310075705"><ele>298.0</ele><time>2026-04-22T09:25:33Z</time></trkpt><trkpt lat="43.50165058691984" lon="5.930767763208889"><ele>301.5</ele><time>2026-04-22T09:25:34Z</time></trkpt><trkpt lat="43.501769237425805" lon="5.930774695190688"><ele>305.0</ele><time>2026-04-22T09:25:35Z</time></trkpt><trkpt lat="43.501896366636835" lon="5.930825724706843"><ele>303.25</ele><time>2026-04-22T09:25:36Z</time></trkpt><trkpt lat="43.50201218041581" lon="5.930936505283357"><ele>301.5</ele><time>2026-04-22T09:25:37Z</time></trkpt><trkpt lat="43.50212891110998" lon="5.931061036317598"><ele>299.75</ele><time>2026-04-22T09:25:38Z</time></trkpt><trkpt lat="43.502255003867745" lon="5.931157866177807"><ele>298.0</ele><time>2026-04-22T09:25:39Z</time></trkpt><trkpt lat="43.502403012199004" lon="5.931160421783551"><ele>298.0</ele><time>2026-04-22T09:25:40Z</time></trkpt><trkpt lat="43.50253973027244" lon="5.931093859704565"><ele>298.0</ele><time>2026-04-22T09:25:41Z</time></trkpt><trkpt lat="43.5026539176535" lon="5.930965576288003"><ele>298.0</ele><time>2026-04-22T09:25:42Z</time></trkpt><trkpt lat="43.50276586489159" lon="5.93086394545537"><ele>298.0</ele><time>2026-04-22T09:25:43Z</time></trkpt><trkpt lat="43.50287615766145" lon="5.930781828382865"><ele>301.25</ele><time>2026-04-22T09:25:44Z</time></trkpt><trkpt lat="43.50299845723283" lon="5.9307029916892295"><ele>304.5</ele><time>2026-04-22T09:25:45Z</time></trkpt><trkpt lat="43.50312333190393" lon="5.930624422723167"><ele>307.75</ele><time>2026-04-22T09:25:46Z</time></trkpt><trkpt lat="43.503229791735144" lon="5.930522932130613"><ele>311.0</ele><time>2026-04-22T09:25:47Z</time></trkpt><trkpt lat="43.50333054167737" lon="5.930415810334347"><ele>311.0</ele><time>2026-04-22T09:25:48Z</time></trkpt><trkpt lat="43.50341534180968" lon="5.930288654265562"><ele>311.0</ele><time>2026-04-22T09:25:49Z</time></trkpt><trkpt lat="43.503493678494266" lon="5.930135746600283"><ele>311.0</ele><time>2026-04-22T09:25:50Z</time></trkpt><trkpt lat="43.50360086381233" lon="5.930033887680836"><ele>311.0</ele><time>2026-04-22T09:25:51Z</time></trkpt><trkpt lat="43.50369254951363" lon="5.929934171357179"><ele>311.8</ele><time>2026-04-22T09:25:52Z</time></trkpt><trkpt lat="43.50378552413777" lon="5.929850995194676"><ele>312.6</ele><time>2026-04-22T09:25:53Z</time></trkpt><trkpt lat="43.5038887041927" lon="5.929836285022248"><ele>313.4</ele><time>2026-04-22T09:25:54Z</time></trkpt><trkpt lat="43.50398945476388" lon="5.929860495068164"><ele>314.2</ele><time>2026-04-22T09:25:55Z</time></trkpt><trkpt lat="43.5040695413137" lon="5.929953467032152"><ele>315.0</ele><time>2026-04-22T09:25:56Z</time></trkpt><trkpt lat="43.504142377199855" lon="5.930069159620728"><ele>315.0</ele><time>2026-04-22T09:25:57Z</time></trkpt><trkpt lat="43.504238082170495" lon="5.930204687726966"><ele>315.0</ele><time>2026-04-22T09:25:58Z</time></trkpt><trkpt lat="43.504333398197524" lon="5.9303311781865435"><ele>315.0</ele><time>2026-04-22T09:25:59Z</time></trkpt><trkpt lat="43.50443361759626" lon="5.930418635521103"><ele>315.0</ele><time>2026-04-22T09:26:00Z</time></trkpt><trkpt lat="43.504535059879814" lon="5.930498661528737"><ele>317.25</ele><time>2026-04-22T09:26:01Z</time></trkpt><trkpt lat="43.504651356187146" lon="5.930543436920605"><ele>319.5</ele><time>2026-04-22T09:26:02Z</time></trkpt><trkpt lat="43.5047817149747" lon="5.930551848749076"><ele>321.75</ele><time>2026-04-22T09:26:03Z</time></trkpt><trkpt lat="43.504912040780454" lon="5.930579344744082"><ele>324.0</ele><time>2026-04-22T09:26:04Z</time></trkpt><trkpt lat="43.50501401783639" lon="5.930652510502144"><ele>324.0</ele><time>2026-04-22T09:26:05Z</time></trkpt><trkpt lat="43.5051241898095" lon="5.930683914449796"><ele>324.0</ele><time>2026-04-22T09:26:06Z</time></trkpt><trkpt lat="43.50522409815592" lon="5.930720007149578"><ele>324.0</ele><time>2026-04-22T09:26:07Z</time></trkpt><trkpt lat="43.50531724868822" lon="5.930674378585006"><ele>324.0</ele><time>2026-04-22T09:26:08Z</time></trkpt><trkpt lat="43.505406731705634" lon="5.930588945799776"><ele>324.0</ele><time>2026-04-22T09:26:09.001Z</time></trkpt><trkpt lat="43.50548154848792" lon="5.93048496581477"><ele>324.79999999999995</ele><time>2026-04-22T09:26:10.001Z</time></trkpt><trkpt lat="43.50555261412348" lon="5.930376687265491"><ele>325.59999999999997</ele><time>2026-04-22T09:26:11.001Z</time></trkpt><trkpt lat="43.505629077325345" lon="5.930306692952769"><ele>326.4</ele><time>2026-04-22T09:26:12.001Z</time></trkpt><trkpt lat="43.5056950230555" lon="5.930224469058888"><ele>327.2</ele><time>2026-04-22T09:26:13.001Z</time></trkpt><trkpt lat="43.50579316812173" lon="5.930185641703666"><ele>328.0</ele><time>2026-04-22T09:26:14.001Z</time></trkpt><trkpt lat="43.50589224040015" lon="5.93020727748914"><ele>328.0</ele><time>2026-04-22T09:26:15.001Z</time></trkpt><trkpt lat="43.505972554659934" lon="5.930288882868886"><ele>328.0</ele><time>2026-04-22T09:26:16.001Z</time></trkpt><trkpt lat="43.506034661175356" lon="5.930420001241171"><ele>328.0</ele><time>2026-04-22T09:26:17.001Z</time></trkpt><trkpt lat="43.50613670114587" lon="5.930533662625895"><ele>328.0</ele><time>2026-04-22T09:26:18.001Z</time></trkpt><trkpt lat="43.50623553573283" lon="5.930674323828174"><ele>328.25</ele><time>2026-04-22T09:26:19.001Z</time></trkpt><trkpt lat="43.50634554900618" lon="5.9308076679184"><ele>328.5</ele><time>2026-04-22T09:26:20.001Z</time></trkpt><trkpt lat="43.506447681029975" lon="5.9309350904089815"><ele>328.75</ele><time>2026-04-22T09:26:21.001Z</time></trkpt><trkpt lat="43.5065554087017" lon="5.931066893309395"><ele>329.0</ele><time>2026-04-22T09:26:22.001Z</time></trkpt><trkpt lat="43.50664824258067" lon="5.931211960331142"><ele>329.0</ele><time>2026-04-22T09:26:23.001Z</time></trkpt><trkpt lat="43.506769531427494" lon="5.931313345594225"><ele>329.0</ele><time>2026-04-22T09:26:24.001Z</time></trkpt><trkpt lat="43.5069028149587" lon="5.931365358173004"><ele>329.0</ele><time>2026-04-22T09:26:25.001Z</time></trkpt><trkpt lat="43.50705653941341" lon="5.931381147211992"><ele>329.0</ele><time>2026-04-22T09:26:26.001Z</time></trkpt><trkpt lat="43.50720227085438" lon="5.931362488702509"><ele>327.5</ele><time>2026-04-22T09:26:27.001Z</time></trkpt><trkpt lat="43.507334518788376" lon="5.93131708713928"><ele>326.0</ele><time>2026-04-22T09:26:28.001Z</time></trkpt><trkpt lat="43.507459445967655" lon="5.931219823939511"><ele>324.5</ele><time>2026-04-22T09:26:29.001Z</time></trkpt><trkpt lat="43.507570951116236" lon="5.931088849001069"><ele>323.0</ele><time>2026-04-22T09:26:30.001Z</time></trkpt><trkpt lat="43.50766933730036" lon="5.930934682048606"><ele>320.33333333333337</ele><time>2026-04-22T09:26:31.001Z</time></trkpt><trkpt lat="43.50775564277482" lon="5.930765655874868"><ele>317.6666666666667</ele><time>2026-04-22T09:26:32.001Z</time></trkpt><trkpt lat="43.50785130235087" lon="5.930599479709666"><ele>315.0</ele><time>2026-04-22T09:26:33.001Z</time></trkpt><trkpt lat="43.50793925821993" lon="5.930429841269842"><ele>315.0</ele><time>2026-04-22T09:26:34.001Z</time></trkpt><trkpt lat="43.50802243583906" lon="5.930247146422846"><ele>315.0</ele><time>2026-04-22T09:26:35.001Z</time></trkpt><trkpt lat="43.508112764839915" lon="5.930072148893664"><ele>315.0</ele><time>2026-04-22T09:26:36.001Z</time></trkpt><trkpt lat="43.50820449193253" lon="5.929896441194799"><ele>313.3333333333333</ele><time>2026-04-22T09:26:37.001Z</time></trkpt><trkpt lat="43.50829700272491" lon="5.929721377594924"><ele>311.66666666666663</ele><time>2026-04-22T09:26:38.001Z</time></trkpt><trkpt lat="43.508391585196286" lon="5.929544326742698"><ele>310.0</ele><time>2026-04-22T09:26:39.001Z</time></trkpt><trkpt lat="43.508486731871585" lon="5.929359917554651"><ele>309.3333333333333</ele><time>2026-04-22T09:26:40.001Z</time></trkpt><trkpt lat="43.50858050996217" lon="5.9291704050549585"><ele>308.6666666666667</ele><time>2026-04-22T09:26:41.001Z</time></trkpt><trkpt lat="43.50868078111583" lon="5.928976535101337"><ele>308.0</ele><time>2026-04-22T09:26:42.001Z</time></trkpt><trkpt lat="43.50878275978309" lon="5.928783832204284"><ele>308.0</ele><time>2026-04-22T09:26:43.001Z</time></trkpt><trkpt lat="43.508888325562395" lon="5.928591536777449"><ele>308.0</ele><time>2026-04-22T09:26:44.001Z</time></trkpt><trkpt lat="43.50899221960485" lon="5.9283969310368985"><ele>308.0</ele><time>2026-04-22T09:26:45.001Z</time></trkpt><trkpt lat="43.509094701183884" lon="5.928196524667847"><ele>307.6666666666667</ele><time>2026-04-22T09:26:46.001Z</time></trkpt><trkpt lat="43.509199283480605" lon="5.927989718940436"><ele>307.3333333333333</ele><time>2026-04-22T09:26:47.001Z</time></trkpt><trkpt lat="43.509303979903144" lon="5.927785297459311"><ele>307.0</ele><time>2026-04-22T09:26:48.001Z</time></trkpt><trkpt lat="43.50940731011756" lon="5.927590620102495"><ele>306.3333333333333</ele><time>2026-04-22T09:26:49.001Z</time></trkpt><trkpt lat="43.50951232703386" lon="5.927391126140878"><ele>305.6666666666667</ele><time>2026-04-22T09:26:50.001Z</time></trkpt><trkpt lat="43.50961805478373" lon="5.927185203870407"><ele>305.0</ele><time>2026-04-22T09:26:51.001Z</time></trkpt><trkpt lat="43.50972200556698" lon="5.926980556965237"><ele>303.6666666666667</ele><time>2026-04-22T09:26:52.001Z</time></trkpt><trkpt lat="43.509826751721235" lon="5.9267774597819765"><ele>302.3333333333333</ele><time>2026-04-22T09:26:53.001Z</time></trkpt><trkpt lat="43.50993604564737" lon="5.926571171578309"><ele>301.0</ele><time>2026-04-22T09:26:54.001Z</time></trkpt><trkpt lat="43.51004188999098" lon="5.926365047250738"><ele>300.66666666666663</ele><time>2026-04-22T09:26:55.001Z</time></trkpt><trkpt lat="43.510146899108314" lon="5.926162062839509"><ele>300.3333333333333</ele><time>2026-04-22T09:26:56.001Z</time></trkpt><trkpt lat="43.51025519987457" lon="5.925959253919127"><ele>300.0</ele><time>2026-04-22T09:26:57.001Z</time></trkpt><trkpt lat="43.51035947279803" lon="5.9257511660234155"><ele>298.6666666666667</ele><time>2026-04-22T09:26:58.001Z</time></trkpt><trkpt lat="43.51046193871749" lon="5.925553294854054"><ele>297.33333333333337</ele><time>2026-04-22T09:26:59.001Z</time></trkpt><trkpt lat="43.5105641327112" lon="5.925354640487833"><ele>296.0</ele><time>2026-04-22T09:27:00.001Z</time></trkpt><trkpt lat="43.51066362352504" lon="5.925156922953352"><ele>295.6666666666667</ele><time>2026-04-22T09:27:01.001Z</time></trkpt><trkpt lat="43.510764553363316" lon="5.924961917065588"><ele>295.3333333333333</ele><time>2026-04-22T09:27:02.001Z</time></trkpt><trkpt lat="43.51086815478115" lon="5.92476768513998"><ele>295.0</ele><time>2026-04-22T09:27:03.001Z</time></trkpt><trkpt lat="43.51096882946584" lon="5.92457888219553"><ele>295.0</ele><time>2026-04-22T09:27:04.001Z</time></trkpt><trkpt lat="43.51106799831511" lon="5.924389901636206"><ele>295.0</ele><time>2026-04-22T09:27:05.001Z</time></trkpt><trkpt lat="43.5111638582666" lon="5.924210848823563"><ele>295.0</ele><time>2026-04-22T09:27:06.001Z</time></trkpt><trkpt lat="43.511251537467054" lon="5.924033703148121"><ele>296.0</ele><time>2026-04-22T09:27:07.001Z</time></trkpt><trkpt lat="43.511332271528225" lon="5.923877511088875"><ele>297.0</ele><time>2026-04-22T09:27:08.001Z</time></trkpt><trkpt lat="43.5114117349226" lon="5.92372977045701"><ele>298.0</ele><time>2026-04-22T09:27:09.001Z</time></trkpt><trkpt lat="43.51148579815379" lon="5.923588261362662"><ele>299.0</ele><time>2026-04-22T09:27:10.001Z</time></trkpt><trkpt lat="43.51155270942564" lon="5.923459236100707"><ele>298.83333333333337</ele><time>2026-04-22T09:27:11.001Z</time></trkpt><trkpt lat="43.511615815530575" lon="5.923341713434238"><ele>298.6666666666667</ele><time>2026-04-22T09:27:12.001Z</time></trkpt><trkpt lat="43.511675375291084" lon="5.923224168544431"><ele>298.5</ele><time>2026-04-22T09:27:13.001Z</time></trkpt><trkpt lat="43.51172882182433" lon="5.923132901359302"><ele>298.3333333333333</ele><time>2026-04-22T09:27:14.001Z</time></trkpt><trkpt lat="43.5117799855319" lon="5.923076546638654"><ele>298.16666666666663</ele><time>2026-04-22T09:27:15.001Z</time></trkpt><trkpt lat="43.5118353884401" lon="5.922995582336201"><ele>298.0</ele><time>2026-04-22T09:27:17.001Z</time></trkpt><trkpt lat="43.511993162899266" lon="5.923140841127939"><ele>298.0</ele><time>2026-04-22T09:27:19.001Z</time></trkpt><trkpt lat="43.5120553466198" lon="5.923232455098164"><ele>298.0</ele><time>2026-04-22T09:27:20.001Z</time></trkpt><trkpt lat="43.5121465775452" lon="5.923348433350103"><ele>298.0</ele><time>2026-04-22T09:27:21.001Z</time></trkpt><trkpt lat="43.512251394751885" lon="5.923463303830073"><ele>298.0</ele><time>2026-04-22T09:27:22.001Z</time></trkpt><trkpt lat="43.51237035569285" lon="5.923586908677199"><ele>298.66666666666663</ele><time>2026-04-22T09:27:23.001Z</time></trkpt><trkpt lat="43.51248708727367" lon="5.923714894539779"><ele>299.3333333333333</ele><time>2026-04-22T09:27:24.001Z</time></trkpt><trkpt lat="43.51260297457149" lon="5.923852243117264"><ele>300.0</ele><time>2026-04-22T09:27:25.001Z</time></trkpt><trkpt lat="43.51272831099884" lon="5.9239914988397455"><ele>300.0</ele><time>2026-04-22T09:27:26.001Z</time></trkpt><trkpt lat="43.51285959222592" lon="5.924139216402698"><ele>300.0</ele><time>2026-04-22T09:27:27.001Z</time></trkpt><trkpt lat="43.51299882959497" lon="5.924294779591668"><ele>300.0</ele><time>2026-04-22T09:27:28.002Z</time></trkpt><trkpt lat="43.51314121461264" lon="5.9244586202836595"><ele>300.0</ele><time>2026-04-22T09:27:29.002Z</time></trkpt><trkpt lat="43.51328365044206" lon="5.9246231501171405"><ele>300.0</ele><time>2026-04-22T09:27:30Z</time></trkpt><trkpt lat="43.513428781627056" lon="5.924798161191505"><ele>300.0</ele><time>2026-04-22T09:27:31Z</time></trkpt><trkpt lat="43.51357294851298" lon="5.924967656842813"><ele>299.3333333333333</ele><time>2026-04-22T09:27:32Z</time></trkpt><trkpt lat="43.513713501712395" lon="5.925130494293131"><ele>298.66666666666663</ele><time>2026-04-22T09:27:33Z</time></trkpt><trkpt lat="43.51385713227484" lon="5.925294566590835"><ele>298.0</ele><time>2026-04-22T09:27:34Z</time></trkpt><trkpt lat="43.514005772641596" lon="5.925461983462153"><ele>298.0</ele><time>2026-04-22T09:27:35Z</time></trkpt><trkpt lat="43.51415402586332" lon="5.925631784943689"><ele>298.0</ele><time>2026-04-22T09:27:36Z</time></trkpt><trkpt lat="43.51430661140254" lon="5.925807662974186"><ele>298.0</ele><time>2026-04-22T09:27:37Z</time></trkpt><trkpt lat="43.51445318088316" lon="5.925976194881766"><ele>298.0</ele><time>2026-04-22T09:27:38Z</time></trkpt><trkpt lat="43.514596787635284" lon="5.9261339771073045"><ele>298.0</ele><time>2026-04-22T09:27:39Z</time></trkpt><trkpt lat="43.51473897490934" lon="5.9262970190452515"><ele>298.0</ele><time>2026-04-22T09:27:40Z</time></trkpt><trkpt lat="43.51487794161633" lon="5.926466544068016"><ele>298.0</ele><time>2026-04-22T09:27:41Z</time></trkpt><trkpt lat="43.51501959521823" lon="5.926633556071229"><ele>298.0</ele><time>2026-04-22T09:27:42Z</time></trkpt><trkpt lat="43.51515951151688" lon="5.926797122428797"><ele>298.0</ele><time>2026-04-22T09:27:43Z</time></trkpt><trkpt lat="43.51530038635713" lon="5.926958673400464"><ele>297.66666666666663</ele><time>2026-04-22T09:27:44Z</time></trkpt><trkpt lat="43.515441816805144" lon="5.9271204946532094"><ele>297.3333333333333</ele><time>2026-04-22T09:27:45Z</time></trkpt><trkpt lat="43.51558229330689" lon="5.927279819577841"><ele>297.0</ele><time>2026-04-22T09:27:46Z</time></trkpt><trkpt lat="43.515716060221756" lon="5.927432752994256"><ele>295.6666666666667</ele><time>2026-04-22T09:27:47Z</time></trkpt><trkpt lat="43.51584671916608" lon="5.927582421095549"><ele>294.33333333333337</ele><time>2026-04-22T09:27:48Z</time></trkpt><trkpt lat="43.51597529938054" lon="5.9277326922974805"><ele>293.0</ele><time>2026-04-22T09:27:49Z</time></trkpt><trkpt lat="43.516105362332986" lon="5.927884816503283"><ele>293.0</ele><time>2026-04-22T09:27:50Z</time></trkpt><trkpt lat="43.51623477983286" lon="5.928030762583246"><ele>293.0</ele><time>2026-04-22T09:27:51Z</time></trkpt><trkpt lat="43.51636157010754" lon="5.928172608226434"><ele>293.0</ele><time>2026-04-22T09:27:52Z</time></trkpt><trkpt lat="43.516482865853504" lon="5.928311355293489"><ele>292.6666666666667</ele><time>2026-04-22T09:27:53Z</time></trkpt><trkpt lat="43.51660413537394" lon="5.928449734688315"><ele>292.3333333333333</ele><time>2026-04-22T09:27:54Z</time></trkpt><trkpt lat="43.51672306130963" lon="5.92859233118771"><ele>292.0</ele><time>2026-04-22T09:27:55Z</time></trkpt><trkpt lat="43.51685148459318" lon="5.928738649637083"><ele>292.0</ele><time>2026-04-22T09:27:56Z</time></trkpt><trkpt lat="43.51699031141756" lon="5.928890841875273"><ele>292.0</ele><time>2026-04-22T09:27:57Z</time></trkpt><trkpt lat="43.51712363535428" lon="5.929047020828278"><ele>292.0</ele><time>2026-04-22T09:27:58Z</time></trkpt><trkpt lat="43.517253484746924" lon="5.929199369269012"><ele>291.66666666666663</ele><time>2026-04-22T09:27:59Z</time></trkpt><trkpt lat="43.51737745758039" lon="5.929347120667412"><ele>291.3333333333333</ele><time>2026-04-22T09:28:00Z</time></trkpt><trkpt lat="43.517498448960694" lon="5.92948649842211"><ele>291.0</ele><time>2026-04-22T09:28:01Z</time></trkpt><trkpt lat="43.51761642206405" lon="5.929620768357713"><ele>291.0</ele><time>2026-04-22T09:28:02Z</time></trkpt><trkpt lat="43.5177334047076" lon="5.929755472350368"><ele>291.0</ele><time>2026-04-22T09:28:03Z</time></trkpt><trkpt lat="43.51784855252855" lon="5.929888981354576"><ele>291.0</ele><time>2026-04-22T09:28:04Z</time></trkpt><trkpt lat="43.51795996424532" lon="5.93002076513054"><ele>290.6666666666667</ele><time>2026-04-22T09:28:05Z</time></trkpt><trkpt lat="43.51807273580931" lon="5.9301509271035835"><ele>290.33333333333337</ele><time>2026-04-22T09:28:06Z</time></trkpt><trkpt lat="43.51819607981915" lon="5.930290102130106"><ele>290.0</ele><time>2026-04-22T09:28:07Z</time></trkpt><trkpt lat="43.518322235833715" lon="5.930429577074736"><ele>290.0</ele><time>2026-04-22T09:28:08Z</time></trkpt><trkpt lat="43.518437860108506" lon="5.930563778887306"><ele>290.0</ele><time>2026-04-22T09:28:09Z</time></trkpt><trkpt lat="43.51854805961424" lon="5.930694621179738"><ele>290.0</ele><time>2026-04-22T09:28:10Z</time></trkpt><trkpt lat="43.51865774519321" lon="5.9308107376809"><ele>290.0</ele><time>2026-04-22T09:28:11Z</time></trkpt><trkpt lat="43.51876782823843" lon="5.930938539421975"><ele>289.33333333333337</ele><time>2026-04-22T09:28:12Z</time></trkpt><trkpt lat="43.51889618659931" lon="5.931087124198533"><ele>288.6666666666667</ele><time>2026-04-22T09:28:13Z</time></trkpt><trkpt lat="43.519036079123175" lon="5.931263325119259"><ele>288.0</ele><time>2026-04-22T09:28:14Z</time></trkpt><trkpt lat="43.51918672347726" lon="5.931452635163667"><ele>288.0</ele><time>2026-04-22T09:28:15Z</time></trkpt><trkpt lat="43.51933716201821" lon="5.931624274827879"><ele>288.0</ele><time>2026-04-22T09:28:16Z</time></trkpt><trkpt lat="43.519491933500724" lon="5.9317940491822805"><ele>288.0</ele><time>2026-04-22T09:28:17Z</time></trkpt><trkpt lat="43.51964642412694" lon="5.9319717446602045"><ele>287.3333333333333</ele><time>2026-04-22T09:28:18Z</time></trkpt><trkpt lat="43.51980611867499" lon="5.93215576355899"><ele>286.66666666666663</ele><time>2026-04-22T09:28:19.001Z</time></trkpt><trkpt lat="43.51996442853696" lon="5.932336731651087"><ele>286.0</ele><time>2026-04-22T09:28:20.001Z</time></trkpt><trkpt lat="43.520121307763866" lon="5.932512943584149"><ele>285.66666666666663</ele><time>2026-04-22T09:28:21.001Z</time></trkpt><trkpt lat="43.520275376990654" lon="5.932682451566569"><ele>285.3333333333333</ele><time>2026-04-22T09:28:22.001Z</time></trkpt><trkpt lat="43.52042166480649" lon="5.932845489307849"><ele>285.0</ele><time>2026-04-22T09:28:23.001Z</time></trkpt><trkpt lat="43.520558252452695" lon="5.9330130531949115"><ele>284.3333333333333</ele><time>2026-04-22T09:28:24.001Z</time></trkpt><trkpt lat="43.52067961656224" lon="5.933193940536931"><ele>283.66666666666663</ele><time>2026-04-22T09:28:25.001Z</time></trkpt><trkpt lat="43.52078284055644" lon="5.933401464837852"><ele>283.0</ele><time>2026-04-22T09:28:26.001Z</time></trkpt><trkpt lat="43.52085412206405" lon="5.933637799318778"><ele>282.66666666666663</ele><time>2026-04-22T09:28:27.001Z</time></trkpt><trkpt lat="43.52091368754477" lon="5.933881579253734"><ele>282.3333333333333</ele><time>2026-04-22T09:28:28.001Z</time></trkpt><trkpt lat="43.52096973886911" lon="5.934135857487722"><ele>282.0</ele><time>2026-04-22T09:28:29.001Z</time></trkpt><trkpt lat="43.52099517402167" lon="5.93440839077429"><ele>281.0</ele><time>2026-04-22T09:28:30.001Z</time></trkpt><trkpt lat="43.52101581839405" lon="5.934684894584685"><ele>280.0</ele><time>2026-04-22T09:28:31.001Z</time></trkpt><trkpt lat="43.52104030714589" lon="5.9349651923801625"><ele>279.0</ele><time>2026-04-22T09:28:32.001Z</time></trkpt><trkpt lat="43.52106913922907" lon="5.9352450456442245"><ele>279.0</ele><time>2026-04-22T09:28:33.001Z</time></trkpt><trkpt lat="43.52110099320313" lon="5.935525723173794"><ele>279.0</ele><time>2026-04-22T09:28:34.001Z</time></trkpt><trkpt lat="43.521144336313995" lon="5.935808403612862"><ele>279.0</ele><time>2026-04-22T09:28:35.001Z</time></trkpt><trkpt lat="43.5212069709912" lon="5.936090429824658"><ele>279.6666666666667</ele><time>2026-04-22T09:28:36.001Z</time></trkpt><trkpt lat="43.52129960968277" lon="5.936365627852919"><ele>280.33333333333337</ele><time>2026-04-22T09:28:37.001Z</time></trkpt><trkpt lat="43.521421231809946" lon="5.936626176564975"><ele>281.0</ele><time>2026-04-22T09:28:38.001Z</time></trkpt><trkpt lat="43.52156449539227" lon="5.936868640268988"><ele>281.0</ele><time>2026-04-22T09:28:39.001Z</time></trkpt><trkpt lat="43.521721048154674" lon="5.937079965147126"><ele>281.0</ele><time>2026-04-22T09:28:40.001Z</time></trkpt><trkpt lat="43.52188235782581" lon="5.937252494847096"><ele>281.0</ele><time>2026-04-22T09:28:41.001Z</time></trkpt><trkpt lat="43.52203716980757" lon="5.937409643926505"><ele>278.6666666666667</ele><time>2026-04-22T09:28:42.001Z</time></trkpt><trkpt lat="43.52218204147496" lon="5.937564017463148"><ele>276.3333333333333</ele><time>2026-04-22T09:28:43.001Z</time></trkpt><trkpt lat="43.52231765314828" lon="5.937722125214616"><ele>274.0</ele><time>2026-04-22T09:28:44.001Z</time></trkpt><trkpt lat="43.522451656716086" lon="5.937876796425255"><ele>274.0</ele><time>2026-04-22T09:28:45.001Z</time></trkpt><trkpt lat="43.522586155848025" lon="5.9380174727904045"><ele>274.0</ele><time>2026-04-22T09:28:46.001Z</time></trkpt><trkpt lat="43.52271223090508" lon="5.938160774166869"><ele>274.0</ele><time>2026-04-22T09:28:47.001Z</time></trkpt><trkpt lat="43.52283148530167" lon="5.938312508401359"><ele>272.3333333333333</ele><time>2026-04-22T09:28:48.001Z</time></trkpt><trkpt lat="43.522965192372936" lon="5.938434196498933"><ele>270.6666666666667</ele><time>2026-04-22T09:28:49.001Z</time></trkpt><trkpt lat="43.5230888184537" lon="5.9385748033991765"><ele>269.0</ele><time>2026-04-22T09:28:50.001Z</time></trkpt><trkpt lat="43.52320473766874" lon="5.9387086683558445"><ele>269.0</ele><time>2026-04-22T09:28:51.001Z</time></trkpt><trkpt lat="43.523313112380535" lon="5.938828348298783"><ele>269.0</ele><time>2026-04-22T09:28:52.001Z</time></trkpt><trkpt lat="43.52340970433395" lon="5.93893696093872"><ele>269.0</ele><time>2026-04-22T09:28:53.001Z</time></trkpt><trkpt lat="43.52349893923024" lon="5.939031234095404"><ele>269.0</ele><time>2026-04-22T09:28:54.001Z</time></trkpt><trkpt lat="43.52358208720197" lon="5.939122457394959"><ele>269.0</ele><time>2026-04-22T09:28:55.001Z</time></trkpt><trkpt lat="43.523660147430505" lon="5.939209877649241"><ele>269.0</ele><time>2026-04-22T09:28:56.001Z</time></trkpt><trkpt lat="43.523736754045835" lon="5.939294024930746"><ele>269.0</ele><time>2026-04-22T09:28:57.001Z</time></trkpt><trkpt lat="43.52381034062529" lon="5.9393722103026905"><ele>269.0</ele><time>2026-04-22T09:28:58.001Z</time></trkpt><trkpt lat="43.52388126939805" lon="5.939445752700232"><ele>269.0</ele><time>2026-04-22T09:28:59.001Z</time></trkpt><trkpt lat="43.52394167448294" lon="5.939538773118406"><ele>268.2</ele><time>2026-04-22T09:29:00.001Z</time></trkpt><trkpt lat="43.52401410612526" lon="5.939593067788225"><ele>267.4</ele><time>2026-04-22T09:29:01.001Z</time></trkpt><trkpt lat="43.52410346095041" lon="5.93969541570795"><ele>266.6</ele><time>2026-04-22T09:29:02.001Z</time></trkpt><trkpt lat="43.52417017278618" lon="5.93977582644995"><ele>265.8</ele><time>2026-04-22T09:29:03.001Z</time></trkpt><trkpt lat="43.52423747438885" lon="5.939854971249853"><ele>265.0</ele><time>2026-04-22T09:29:04.001Z</time></trkpt><trkpt lat="43.52430410212528" lon="5.939929247668923"><ele>265.0</ele><time>2026-04-22T09:29:05.001Z</time></trkpt><trkpt lat="43.52436009013405" lon="5.939981263485023"><ele>265.0</ele><time>2026-04-22T09:29:06.001Z</time></trkpt><trkpt lat="43.52441416787266" lon="5.9400463549969755"><ele>265.0</ele><time>2026-04-22T09:29:07.001Z</time></trkpt><trkpt lat="43.52445579813062" lon="5.940135419456919"><ele>265.0</ele><time>2026-04-22T09:29:08.001Z</time></trkpt><trkpt lat="43.524498082113894" lon="5.9402342711799845"><ele>265.0</ele><time>2026-04-22T09:29:09.001Z</time></trkpt><trkpt lat="43.524565354112966" lon="5.940311961192824"><ele>265.0</ele><time>2026-04-22T09:29:10.001Z</time></trkpt><trkpt lat="43.524646895930466" lon="5.940373386626105"><ele>264.6</ele><time>2026-04-22T09:29:11.001Z</time></trkpt><trkpt lat="43.524739822834384" lon="5.940436395571249"><ele>264.2</ele><time>2026-04-22T09:29:12.001Z</time></trkpt><trkpt lat="43.52481770180333" lon="5.94050749110875"><ele>263.8</ele><time>2026-04-22T09:29:13.001Z</time></trkpt><trkpt lat="43.524888900106326" lon="5.940588320325842"><ele>263.4</ele><time>2026-04-22T09:29:14.001Z</time></trkpt><trkpt lat="43.52496586857316" lon="5.940667857316342"><ele>263.0</ele><time>2026-04-22T09:29:15.001Z</time></trkpt><trkpt lat="43.52504477511473" lon="5.940761934308942"><ele>263.0</ele><time>2026-04-22T09:29:16.001Z</time></trkpt><trkpt lat="43.52511722196142" lon="5.940864229736348"><ele>263.0</ele><time>2026-04-22T09:29:17.001Z</time></trkpt><trkpt lat="43.52520207383906" lon="5.9409582481442"><ele>263.0</ele><time>2026-04-22T09:29:18.001Z</time></trkpt><trkpt lat="43.525282459442785" lon="5.941047317834209"><ele>263.0</ele><time>2026-04-22T09:29:19.001Z</time></trkpt><trkpt lat="43.5253553472356" lon="5.941127031637896"><ele>263.0</ele><time>2026-04-22T09:29:20.001Z</time></trkpt><trkpt lat="43.52543598566243" lon="5.941188495225127"><ele>263.33333333333337</ele><time>2026-04-22T09:29:21.001Z</time></trkpt><trkpt lat="43.525511196145786" lon="5.941270189582769"><ele>263.6666666666667</ele><time>2026-04-22T09:29:22.001Z</time></trkpt><trkpt lat="43.52557668180846" lon="5.941353290254577"><ele>264.0</ele><time>2026-04-22T09:29:23.001Z</time></trkpt><trkpt lat="43.52564613525151" lon="5.941425238720475"><ele>264.3333333333333</ele><time>2026-04-22T09:29:24.001Z</time></trkpt><trkpt lat="43.52571190745416" lon="5.9414869000205925"><ele>264.66666666666663</ele><time>2026-04-22T09:29:25.001Z</time></trkpt><trkpt lat="43.52577548024899" lon="5.941561281815229"><ele>265.0</ele><time>2026-04-22T09:29:26.001Z</time></trkpt><trkpt lat="43.52583787380589" lon="5.941637402963527"><ele>265.0</ele><time>2026-04-22T09:29:27.001Z</time></trkpt><trkpt lat="43.52589947806006" lon="5.941720906307398"><ele>265.0</ele><time>2026-04-22T09:29:28.001Z</time></trkpt><trkpt lat="43.52595293117679" lon="5.94180405501415"><ele>265.0</ele><time>2026-04-22T09:29:29.001Z</time></trkpt><trkpt lat="43.52599831204221" lon="5.94188978633207"><ele>265.0</ele><time>2026-04-22T09:29:30.001Z</time></trkpt><trkpt lat="43.52604053323268" lon="5.941977560949878"><ele>265.0</ele><time>2026-04-22T09:29:31.001Z</time></trkpt><trkpt lat="43.526113749586195" lon="5.942126294655986"><ele>265.0</ele><time>2026-04-22T09:29:33.001Z</time></trkpt><trkpt lat="43.52618145702352" lon="5.9422635379073245"><ele>265.0</ele><time>2026-04-22T09:29:35.001Z</time></trkpt><trkpt lat="43.52621675987663" lon="5.942374510280583"><ele>265.0</ele><time>2026-04-22T09:29:37Z</time></trkpt><trkpt lat="43.526275082861375" lon="5.942500704673633"><ele>265.0</ele><time>2026-04-22T09:29:39Z</time></trkpt><trkpt lat="43.5263133588846" lon="5.942584446026355"><ele>265.0</ele><time>2026-04-22T09:29:40Z</time></trkpt><trkpt lat="43.52635328250794" lon="5.942663293722963"><ele>265.0</ele><time>2026-04-22T09:29:41Z</time></trkpt><trkpt lat="43.526397710680456" lon="5.942739824855044"><ele>265.0</ele><time>2026-04-22T09:29:42Z</time></trkpt><trkpt lat="43.526445303804444" lon="5.942847219543203"><ele>265.0</ele><time>2026-04-22T09:29:43Z</time></trkpt><trkpt lat="43.52650078827031" lon="5.9429674442794935"><ele>265.0</ele><time>2026-04-22T09:29:44Z</time></trkpt><trkpt lat="43.52655230915929" lon="5.943102107209429"><ele>265.0</ele><time>2026-04-22T09:29:45Z</time></trkpt><trkpt lat="43.52662095042561" lon="5.943243935158376"><ele>265.0</ele><time>2026-04-22T09:29:46Z</time></trkpt><trkpt lat="43.52668257441949" lon="5.943378295331506"><ele>265.0</ele><time>2026-04-22T09:29:47Z</time></trkpt><trkpt lat="43.52672826510165" lon="5.943489873919382"><ele>265.0</ele><time>2026-04-22T09:29:48Z</time></trkpt><trkpt lat="43.52676961556008" lon="5.94359643669792"><ele>265.0</ele><time>2026-04-22T09:29:49Z</time></trkpt><trkpt lat="43.52680950366378" lon="5.943685236385821"><ele>265.0</ele><time>2026-04-22T09:29:50Z</time></trkpt><trkpt lat="43.526881707713486" lon="5.943817796115143"><ele>264.6</ele><time>2026-04-22T09:29:52Z</time></trkpt><trkpt lat="43.52693875803369" lon="5.943925296184695"><ele>264.2</ele><time>2026-04-22T09:29:54Z</time></trkpt><trkpt lat="43.52697492905926" lon="5.944012875689443"><ele>263.8</ele><time>2026-04-22T09:29:56Z</time></trkpt><trkpt lat="43.527015403021956" lon="5.944120481329385"><ele>263.4</ele><time>2026-04-22T09:29:58Z</time></trkpt><trkpt lat="43.52708357514561" lon="5.944280997165924"><ele>263.0</ele><time>2026-04-22T09:30:00Z</time></trkpt><trkpt lat="43.52711963570193" lon="5.944375895307314"><ele>263.6666666666667</ele><time>2026-04-22T09:30:01Z</time></trkpt><trkpt lat="43.527170331225854" lon="5.944474223573733"><ele>264.33333333333337</ele><time>2026-04-22T09:30:02Z</time></trkpt><trkpt lat="43.52721357684924" lon="5.944581893867036"><ele>265.0</ele><time>2026-04-22T09:30:03Z</time></trkpt><trkpt lat="43.527248316170734" lon="5.944673394688126"><ele>265.6666666666667</ele><time>2026-04-22T09:30:04Z</time></trkpt><trkpt lat="43.52728287823452" lon="5.944756281723101"><ele>266.3333333333333</ele><time>2026-04-22T09:30:05Z</time></trkpt><trkpt lat="43.52732589686773" lon="5.944833381317081"><ele>267.0</ele><time>2026-04-22T09:30:06Z</time></trkpt><trkpt lat="43.52735064057645" lon="5.944928306963595"><ele>267.0</ele><time>2026-04-22T09:30:07Z</time></trkpt><trkpt lat="43.52739729744046" lon="5.944996173839699"><ele>267.0</ele><time>2026-04-22T09:30:08Z</time></trkpt><trkpt lat="43.52743903091119" lon="5.9450663204727565"><ele>267.0</ele><time>2026-04-22T09:30:09Z</time></trkpt><trkpt lat="43.52748234184352" lon="5.945153887202783"><ele>267.0</ele><time>2026-04-22T09:30:10Z</time></trkpt><trkpt lat="43.527516816167456" lon="5.9452616414120625"><ele>267.0</ele><time>2026-04-22T09:30:11Z</time></trkpt><trkpt lat="43.52757384366852" lon="5.9453556338324205"><ele>267.0</ele><time>2026-04-22T09:30:12Z</time></trkpt><trkpt lat="43.52761263419548" lon="5.945475084354557"><ele>267.0</ele><time>2026-04-22T09:30:13Z</time></trkpt><trkpt lat="43.52766811643541" lon="5.945574019392772"><ele>267.0</ele><time>2026-04-22T09:30:14Z</time></trkpt><trkpt lat="43.5277076541592" lon="5.945668529414563"><ele>267.0</ele><time>2026-04-22T09:30:15Z</time></trkpt><trkpt lat="43.527744325250694" lon="5.945741657351441"><ele>267.0</ele><time>2026-04-22T09:30:16Z</time></trkpt><trkpt lat="43.52779093547867" lon="5.945862158915969"><ele>267.0</ele><time>2026-04-22T09:30:18Z</time></trkpt><trkpt lat="43.52783254383499" lon="5.94599870885795"><ele>267.0</ele><time>2026-04-22T09:30:20Z</time></trkpt><trkpt lat="43.52794786254048" lon="5.946001630760209"><ele>266.4</ele><time>2026-04-22T09:30:21Z</time></trkpt><trkpt lat="43.528029152050415" lon="5.946027753427022"><ele>265.79999999999995</ele><time>2026-04-22T09:30:22Z</time></trkpt><trkpt lat="43.528112546368874" lon="5.946032576430182"><ele>265.2</ele><time>2026-04-22T09:30:23Z</time></trkpt><trkpt lat="43.52821382795354" lon="5.946046091612464"><ele>264.59999999999997</ele><time>2026-04-22T09:30:24.001Z</time></trkpt><trkpt lat="43.52833216315818" lon="5.946093095378227"><ele>264.0</ele><time>2026-04-22T09:30:25.001Z</time></trkpt><trkpt lat="43.528449790461366" lon="5.946121650837942"><ele>264.0</ele><time>2026-04-22T09:30:26.001Z</time></trkpt><trkpt lat="43.52857667068225" lon="5.946131799275824"><ele>264.0</ele><time>2026-04-22T09:30:27.001Z</time></trkpt><trkpt lat="43.528700688408" lon="5.946163709544282"><ele>264.0</ele><time>2026-04-22T09:30:28.001Z</time></trkpt><trkpt lat="43.52882140372832" lon="5.946186094475452"><ele>264.0</ele><time>2026-04-22T09:30:29.001Z</time></trkpt><trkpt lat="43.52893080649294" lon="5.946232756798771"><ele>263.5</ele><time>2026-04-22T09:30:30.001Z</time></trkpt><trkpt lat="43.529042529039835" lon="5.946258248392969"><ele>263.0</ele><time>2026-04-22T09:30:31.001Z</time></trkpt><trkpt lat="43.529173974913505" lon="5.946266451137418"><ele>262.5</ele><time>2026-04-22T09:30:32.001Z</time></trkpt><trkpt lat="43.52933386384" lon="5.946300654801004"><ele>262.0</ele><time>2026-04-22T09:30:33.001Z</time></trkpt><trkpt lat="43.529501856113164" lon="5.94636207719165"><ele>263.3333333333333</ele><time>2026-04-22T09:30:34.001Z</time></trkpt><trkpt lat="43.52966229323217" lon="5.946399987126954"><ele>264.6666666666667</ele><time>2026-04-22T09:30:35.001Z</time></trkpt><trkpt lat="43.52981420152867" lon="5.946435881775564"><ele>266.0</ele><time>2026-04-22T09:30:36.001Z</time></trkpt><trkpt lat="43.52995411654654" lon="5.946466147408349"><ele>266.0</ele><time>2026-04-22T09:30:37.001Z</time></trkpt><trkpt lat="43.53008372949902" lon="5.946493500977419"><ele>266.0</ele><time>2026-04-22T09:30:38.001Z</time></trkpt><trkpt lat="43.53020383096914" lon="5.946518847209302"><ele>266.0</ele><time>2026-04-22T09:30:39.001Z</time></trkpt><trkpt lat="43.530311916008685" lon="5.946541657496645"><ele>266.0</ele><time>2026-04-22T09:30:40.001Z</time></trkpt><trkpt lat="43.53040632993" lon="5.946562123415787"><ele>266.5</ele><time>2026-04-22T09:30:41.001Z</time></trkpt><trkpt lat="43.530498862741375" lon="5.946582471734428"><ele>267.0</ele><time>2026-04-22T09:30:42.001Z</time></trkpt><trkpt lat="43.530574769984284" lon="5.9465991640369555"><ele>267.5</ele><time>2026-04-22T09:30:43.001Z</time></trkpt><trkpt lat="43.53064340795623" lon="5.9466142577992915"><ele>268.0</ele><time>2026-04-22T09:30:44.001Z</time></trkpt><trkpt lat="43.530772328905165" lon="5.946633395506471"><ele>268.5</ele><time>2026-04-22T09:30:46.001Z</time></trkpt><trkpt lat="43.53084646049673" lon="5.946652354704737"><ele>269.0</ele><time>2026-04-22T09:30:47.001Z</time></trkpt><trkpt lat="43.53094550955326" lon="5.946673886971029"><ele>269.0</ele><time>2026-04-22T09:30:48.001Z</time></trkpt><trkpt lat="43.531046363832196" lon="5.946685274887228"><ele>269.0</ele><time>2026-04-22T09:30:49.001Z</time></trkpt><trkpt lat="43.53115046531045" lon="5.946702469340562"><ele>269.0</ele><time>2026-04-22T09:30:50.001Z</time></trkpt><trkpt lat="43.53124466828162" lon="5.946741257799335"><ele>269.0</ele><time>2026-04-22T09:30:51.001Z</time></trkpt><trkpt lat="43.53134786217174" lon="5.946765042770487"><ele>269.0</ele><time>2026-04-22T09:30:52.001Z</time></trkpt><trkpt lat="43.531449903620846" lon="5.94678790793482"><ele>271.75</ele><time>2026-04-22T09:30:53.001Z</time></trkpt><trkpt lat="43.53156078807124" lon="5.946804288272026"><ele>274.5</ele><time>2026-04-22T09:30:54.001Z</time></trkpt><trkpt lat="43.53168843111203" lon="5.9468164241213"><ele>277.25</ele><time>2026-04-22T09:30:55.001Z</time></trkpt><trkpt lat="43.53181920807027" lon="5.946810413717423"><ele>280.0</ele><time>2026-04-22T09:30:56.001Z</time></trkpt><trkpt lat="43.531958553192695" lon="5.9467691596136945"><ele>278.3333333333333</ele><time>2026-04-22T09:30:57.001Z</time></trkpt><trkpt lat="43.53209614881965" lon="5.946710223448279"><ele>276.6666666666667</ele><time>2026-04-22T09:30:58.001Z</time></trkpt><trkpt lat="43.53223443346522" lon="5.946635214163456"><ele>275.0</ele><time>2026-04-22T09:30:59.001Z</time></trkpt><trkpt lat="43.532379106157" lon="5.946536586925543"><ele>275.0</ele><time>2026-04-22T09:31:00.001Z</time></trkpt><trkpt lat="43.532525939508886" lon="5.94643389557046"><ele>275.0</ele><time>2026-04-22T09:31:01.001Z</time></trkpt><trkpt lat="43.5326775696241" lon="5.946337718180402"><ele>275.0</ele><time>2026-04-22T09:31:02.001Z</time></trkpt><trkpt lat="43.532824358480276" lon="5.946239260346089"><ele>275.6666666666667</ele><time>2026-04-22T09:31:03.001Z</time></trkpt><trkpt lat="43.532976927968456" lon="5.946146095117944"><ele>276.3333333333333</ele><time>2026-04-22T09:31:04.001Z</time></trkpt><trkpt lat="43.53313728425731" lon="5.946039600764958"><ele>277.0</ele><time>2026-04-22T09:31:05.001Z</time></trkpt><trkpt lat="43.53330754059905" lon="5.945925299168194"><ele>277.3333333333333</ele><time>2026-04-22T09:31:06.001Z</time></trkpt><trkpt lat="43.533478903105205" lon="5.945789610071929"><ele>277.6666666666667</ele><time>2026-04-22T09:31:07.001Z</time></trkpt><trkpt lat="43.5336663616136" lon="5.945636965102975"><ele>278.0</ele><time>2026-04-22T09:31:08.001Z</time></trkpt><trkpt lat="43.53384082896669" lon="5.945486866997993"><ele>278.0</ele><time>2026-04-22T09:31:09.001Z</time></trkpt><trkpt lat="43.53400775464506" lon="5.945335988353242"><ele>278.0</ele><time>2026-04-22T09:31:10.001Z</time></trkpt><trkpt lat="43.5341771327688" lon="5.945190565967247"><ele>278.0</ele><time>2026-04-22T09:31:11.001Z</time></trkpt><trkpt lat="43.53434738395807" lon="5.945048339980456"><ele>278.0</ele><time>2026-04-22T09:31:12.001Z</time></trkpt><trkpt lat="43.53451798253791" lon="5.944896717421437"><ele>278.0</ele><time>2026-04-22T09:31:13.001Z</time></trkpt><trkpt lat="43.53468827514907" lon="5.944750426925631"><ele>278.0</ele><time>2026-04-22T09:31:14.001Z</time></trkpt><trkpt lat="43.53485208847114" lon="5.944610002894063"><ele>278.0</ele><time>2026-04-22T09:31:15.001Z</time></trkpt><trkpt lat="43.535015811071986" lon="5.944477521128442"><ele>278.0</ele><time>2026-04-22T09:31:16.001Z</time></trkpt><trkpt lat="43.53517207500519" lon="5.944343165800946"><ele>278.0</ele><time>2026-04-22T09:31:17.001Z</time></trkpt><trkpt lat="43.53531552295539" lon="5.9442191025749445"><ele>279.33333333333337</ele><time>2026-04-22T09:31:18.001Z</time></trkpt><trkpt lat="43.53545967093704" lon="5.944106329680948"><ele>280.6666666666667</ele><time>2026-04-22T09:31:19.001Z</time></trkpt><trkpt lat="43.535615009724445" lon="5.944018086987757"><ele>282.0</ele><time>2026-04-22T09:31:20.001Z</time></trkpt><trkpt lat="43.535794370813214" lon="5.943963085531066"><ele>282.0</ele><time>2026-04-22T09:31:21.001Z</time></trkpt><trkpt lat="43.5359760271648" lon="5.943927331766181"><ele>282.0</ele><time>2026-04-22T09:31:22.001Z</time></trkpt><trkpt lat="43.53614860889676" lon="5.943902874131287"><ele>282.0</ele><time>2026-04-22T09:31:23.001Z</time></trkpt><trkpt lat="43.53631816580235" lon="5.943884784994812"><ele>283.6666666666667</ele><time>2026-04-22T09:31:24.001Z</time></trkpt><trkpt lat="43.53648560371515" lon="5.943869666442701"><ele>285.33333333333337</ele><time>2026-04-22T09:31:25.001Z</time></trkpt><trkpt lat="43.53665487247392" lon="5.943848642781139"><ele>287.0</ele><time>2026-04-22T09:31:26.001Z</time></trkpt><trkpt lat="43.53682901063759" lon="5.943810652874957"><ele>287.0</ele><time>2026-04-22T09:31:27.001Z</time></trkpt><trkpt lat="43.53699744044523" lon="5.9437666134089016"><ele>287.0</ele><time>2026-04-22T09:31:28.001Z</time></trkpt><trkpt lat="43.53715655343267" lon="5.943718072401327"><ele>287.0</ele><time>2026-04-22T09:31:29.001Z</time></trkpt><trkpt lat="43.53734173153871" lon="5.943693840040809"><ele>289.6666666666667</ele><time>2026-04-22T09:31:30.001Z</time></trkpt><trkpt lat="43.537514262837384" lon="5.943653974364512"><ele>292.3333333333333</ele><time>2026-04-22T09:31:31.001Z</time></trkpt><trkpt lat="43.537703175758494" lon="5.943597533574418"><ele>295.0</ele><time>2026-04-22T09:31:32.001Z</time></trkpt><trkpt lat="43.53788818244996" lon="5.943562012474796"><ele>296.66666666666663</ele><time>2026-04-22T09:31:33.001Z</time></trkpt><trkpt lat="43.5380609474537" lon="5.94351533609179"><ele>298.3333333333333</ele><time>2026-04-22T09:31:34.001Z</time></trkpt><trkpt lat="43.538241211949924" lon="5.943471661648889"><ele>300.0</ele><time>2026-04-22T09:31:35.001Z</time></trkpt><trkpt lat="43.53843119875879" lon="5.94342156816016"><ele>300.6666666666667</ele><time>2026-04-22T09:31:36.001Z</time></trkpt><trkpt lat="43.53862384485151" lon="5.943373064228447"><ele>301.33333333333337</ele><time>2026-04-22T09:31:37.001Z</time></trkpt><trkpt lat="43.53883158571098" lon="5.943317209292511"><ele>302.0</ele><time>2026-04-22T09:31:38.001Z</time></trkpt><trkpt lat="43.53903249128168" lon="5.943271386183562"><ele>302.0</ele><time>2026-04-22T09:31:39.001Z</time></trkpt><trkpt lat="43.53923081124951" lon="5.943219620148082"><ele>302.0</ele><time>2026-04-22T09:31:40.001Z</time></trkpt><trkpt lat="43.53942902523241" lon="5.943167729947034"><ele>302.0</ele><time>2026-04-22T09:31:41.001Z</time></trkpt><trkpt lat="43.53962027148539" lon="5.943111063995333"><ele>304.0</ele><time>2026-04-22T09:31:42Z</time></trkpt><trkpt lat="43.53982075589902" lon="5.9430697874307725"><ele>306.0</ele><time>2026-04-22T09:31:43Z</time></trkpt><trkpt lat="43.540024516036326" lon="5.94303007894078"><ele>308.0</ele><time>2026-04-22T09:31:44Z</time></trkpt><trkpt lat="43.54022939993877" lon="5.942985558603939"><ele>310.6666666666667</ele><time>2026-04-22T09:31:45Z</time></trkpt><trkpt lat="43.540428346844195" lon="5.942933286209597"><ele>313.3333333333333</ele><time>2026-04-22T09:31:46Z</time></trkpt><trkpt lat="43.54063855136338" lon="5.942886699862572"><ele>316.0</ele><time>2026-04-22T09:31:47Z</time></trkpt><trkpt lat="43.540847389697866" lon="5.942832748674925"><ele>316.0</ele><time>2026-04-22T09:31:48Z</time></trkpt><trkpt lat="43.54105992912077" lon="5.942765603610969"><ele>316.0</ele><time>2026-04-22T09:31:49Z</time></trkpt><trkpt lat="43.54127717057942" lon="5.942714463628565"><ele>316.0</ele><time>2026-04-22T09:31:50Z</time></trkpt><trkpt lat="43.54149501380771" lon="5.942663296948302"><ele>314.66666666666663</ele><time>2026-04-22T09:31:51Z</time></trkpt><trkpt lat="43.541705231736174" lon="5.942613851881339"><ele>313.3333333333333</ele><time>2026-04-22T09:31:52Z</time></trkpt><trkpt lat="43.541912728827526" lon="5.942558653029856"><ele>312.0</ele><time>2026-04-22T09:31:53Z</time></trkpt><trkpt lat="43.54212105315599" lon="5.942513090042481"><ele>312.0</ele><time>2026-04-22T09:31:54Z</time></trkpt><trkpt lat="43.54233073364863" lon="5.942458573589142"><ele>312.0</ele><time>2026-04-22T09:31:55Z</time></trkpt><trkpt lat="43.542550260081704" lon="5.94240775483686"><ele>312.0</ele><time>2026-04-22T09:31:56Z</time></trkpt><trkpt lat="43.542763901762925" lon="5.942360621272744"><ele>311.3333333333333</ele><time>2026-04-22T09:31:57Z</time></trkpt><trkpt lat="43.542968501803514" lon="5.9422951424175565"><ele>310.66666666666663</ele><time>2026-04-22T09:31:58Z</time></trkpt><trkpt lat="43.54315942590671" lon="5.942243065454499"><ele>310.0</ele><time>2026-04-22T09:31:59Z</time></trkpt><trkpt lat="43.54334002234087" lon="5.942204324096132"><ele>310.0</ele><time>2026-04-22T09:32:00Z</time></trkpt><trkpt lat="43.5435126346185" lon="5.942183581214301"><ele>310.0</ele><time>2026-04-22T09:32:01Z</time></trkpt><trkpt lat="43.543675154637626" lon="5.942253437170451"><ele>310.0</ele><time>2026-04-22T09:32:02Z</time></trkpt><trkpt lat="43.543820696750046" lon="5.942363858773843"><ele>310.3333333333333</ele><time>2026-04-22T09:32:03Z</time></trkpt><trkpt lat="43.543969411876915" lon="5.942496653707715"><ele>310.6666666666667</ele><time>2026-04-22T09:32:04Z</time></trkpt><trkpt lat="43.54412404476308" lon="5.942638688076672"><ele>311.0</ele><time>2026-04-22T09:32:05Z</time></trkpt><trkpt lat="43.54429176368918" lon="5.942779487024745"><ele>311.0</ele><time>2026-04-22T09:32:06Z</time></trkpt><trkpt lat="43.544464057262694" lon="5.94293366206135"><ele>311.0</ele><time>2026-04-22T09:32:07Z</time></trkpt><trkpt lat="43.54464538335732" lon="5.94308531325352"><ele>311.0</ele><time>2026-04-22T09:32:08Z</time></trkpt><trkpt lat="43.54483619884314" lon="5.943245780779206"><ele>309.5</ele><time>2026-04-22T09:32:09Z</time></trkpt><trkpt lat="43.54502821846075" lon="5.943409634926597"><ele>308.0</ele><time>2026-04-22T09:32:10Z</time></trkpt><trkpt lat="43.54522076355033" lon="5.943581007379167"><ele>308.0</ele><time>2026-04-22T09:32:11Z</time></trkpt><trkpt lat="43.545417199860175" lon="5.94375600366836"><ele>308.0</ele><time>2026-04-22T09:32:12Z</time></trkpt><trkpt lat="43.54561637395873" lon="5.943927292139531"><ele>308.0</ele><time>2026-04-22T09:32:13Z</time></trkpt><trkpt lat="43.54580775950349" lon="5.944090356025756"><ele>308.0</ele><time>2026-04-22T09:32:14Z</time></trkpt><trkpt lat="43.54599639596715" lon="5.9442457998476375"><ele>308.0</ele><time>2026-04-22T09:32:15Z</time></trkpt><trkpt lat="43.546175886333664" lon="5.944400866971936"><ele>306.6666666666667</ele><time>2026-04-22T09:32:16Z</time></trkpt><trkpt lat="43.54634920092787" lon="5.944551783380568"><ele>305.3333333333333</ele><time>2026-04-22T09:32:17Z</time></trkpt><trkpt lat="43.54652017417165" lon="5.944706820400813"><ele>304.0</ele><time>2026-04-22T09:32:18Z</time></trkpt><trkpt lat="43.54668874657842" lon="5.944855278068585"><ele>304.0</ele><time>2026-04-22T09:32:19Z</time></trkpt><trkpt lat="43.54686072277905" lon="5.945007289282513"><ele>304.0</ele><time>2026-04-22T09:32:20Z</time></trkpt><trkpt lat="43.54703267713388" lon="5.945157824593906"><ele>304.0</ele><time>2026-04-22T09:32:21Z</time></trkpt><trkpt lat="43.54720119858484" lon="5.945308171365218"><ele>303.66666666666663</ele><time>2026-04-22T09:32:22Z</time></trkpt><trkpt lat="43.547364249589144" lon="5.945452520709469"><ele>303.3333333333333</ele><time>2026-04-22T09:32:23Z</time></trkpt><trkpt lat="43.54751973150897" lon="5.94559684218114"><ele>303.0</ele><time>2026-04-22T09:32:24Z</time></trkpt><trkpt lat="43.54766783314555" lon="5.945730234394031"><ele>303.0</ele><time>2026-04-22T09:32:25Z</time></trkpt><trkpt lat="43.54781897851711" lon="5.945856881656327"><ele>303.0</ele><time>2026-04-22T09:32:26Z</time></trkpt><trkpt lat="43.54796765464982" lon="5.9459499063742935"><ele>303.0</ele><time>2026-04-22T09:32:27Z</time></trkpt><trkpt lat="43.54813564566325" lon="5.945992239511543"><ele>301.3333333333333</ele><time>2026-04-22T09:32:28Z</time></trkpt><trkpt lat="43.54833378654517" lon="5.945975741809725"><ele>299.66666666666663</ele><time>2026-04-22T09:32:29Z</time></trkpt><trkpt lat="43.54853589427497" lon="5.945945070242467"><ele>298.0</ele><time>2026-04-22T09:32:30Z</time></trkpt><trkpt lat="43.548726026088566" lon="5.945931147373605"><ele>297.3333333333333</ele><time>2026-04-22T09:32:31Z</time></trkpt><trkpt lat="43.54890641392799" lon="5.945923445118022"><ele>296.6666666666667</ele><time>2026-04-22T09:32:32Z</time></trkpt><trkpt lat="43.54908220734893" lon="5.9459083995954485"><ele>296.0</ele><time>2026-04-22T09:32:33.001Z</time></trkpt><trkpt lat="43.54923021783585" lon="5.945899834177761"><ele>296.0</ele><time>2026-04-22T09:32:34.001Z</time></trkpt><trkpt lat="43.54937265202339" lon="5.94588166539269"><ele>296.0</ele><time>2026-04-22T09:32:35.001Z</time></trkpt><trkpt lat="43.54950222973564" lon="5.945862179845736"><ele>296.0</ele><time>2026-04-22T09:32:36.001Z</time></trkpt><trkpt lat="43.54957561804319" lon="5.945885606789795"><ele>296.0</ele><time>2026-04-22T09:32:37.001Z</time></trkpt><trkpt lat="43.549668822046044" lon="5.945969172443463"><ele>297.0</ele><time>2026-04-22T09:32:38.001Z</time></trkpt><trkpt lat="43.549711025567625" lon="5.946135100306024"><ele>298.0</ele><time>2026-04-22T09:32:39.001Z</time></trkpt><trkpt lat="43.549719149560644" lon="5.946306106040251"><ele>299.0</ele><time>2026-04-22T09:32:40.001Z</time></trkpt><trkpt lat="43.549733201116176" lon="5.946483474799379"><ele>300.0</ele><time>2026-04-22T09:32:41.001Z</time></trkpt><trkpt lat="43.549762170736976" lon="5.9466783228179105"><ele>301.6666666666667</ele><time>2026-04-22T09:32:42.001Z</time></trkpt><trkpt lat="43.54980242598452" lon="5.94687488244712"><ele>303.33333333333337</ele><time>2026-04-22T09:32:43.001Z</time></trkpt><trkpt lat="43.549841516618784" lon="5.947079410714123"><ele>305.0</ele><time>2026-04-22T09:32:44.001Z</time></trkpt><trkpt lat="43.54988098521159" lon="5.94728150669595"><ele>305.0</ele><time>2026-04-22T09:32:45.001Z</time></trkpt><trkpt lat="43.549921415414566" lon="5.9474843565503805"><ele>305.0</ele><time>2026-04-22T09:32:46.001Z</time></trkpt><trkpt lat="43.5499571809666" lon="5.947686343651336"><ele>305.0</ele><time>2026-04-22T09:32:47.001Z</time></trkpt><trkpt lat="43.54999854804046" lon="5.947883364823265"><ele>305.0</ele><time>2026-04-22T09:32:48.001Z</time></trkpt><trkpt lat="43.55005472945431" lon="5.94807580050299"><ele>305.0</ele><time>2026-04-22T09:32:49.001Z</time></trkpt><trkpt lat="43.550146949626445" lon="5.948272270088033"><ele>305.0</ele><time>2026-04-22T09:32:50.001Z</time></trkpt><trkpt lat="43.550280057864256" lon="5.948440716814095"><ele>305.6666666666667</ele><time>2026-04-22T09:32:51.001Z</time></trkpt><trkpt lat="43.55042975334722" lon="5.9485947978672185"><ele>306.3333333333333</ele><time>2026-04-22T09:32:52.001Z</time></trkpt><trkpt lat="43.55059400976864" lon="5.948722159578548"><ele>307.0</ele><time>2026-04-22T09:32:53.001Z</time></trkpt><trkpt lat="43.55074886503347" lon="5.948845296084399"><ele>307.0</ele><time>2026-04-22T09:32:54.001Z</time></trkpt><trkpt lat="43.550903528444145" lon="5.9489462399889605"><ele>307.0</ele><time>2026-04-22T09:32:55.001Z</time></trkpt><trkpt lat="43.5510556604789" lon="5.949025955291227"><ele>307.0</ele><time>2026-04-22T09:32:56.001Z</time></trkpt><trkpt lat="43.55122313062776" lon="5.949101392795448"><ele>306.0</ele><time>2026-04-22T09:32:57.001Z</time></trkpt><trkpt lat="43.55141115965386" lon="5.949178890870477"><ele>305.0</ele><time>2026-04-22T09:32:58.001Z</time></trkpt><trkpt lat="43.55161545852159" lon="5.949268172697132"><ele>304.0</ele><time>2026-04-22T09:32:59.001Z</time></trkpt><trkpt lat="43.55184930915213" lon="5.949360183678962"><ele>301.5</ele><time>2026-04-22T09:33:00.001Z</time></trkpt><trkpt lat="43.55208199972191" lon="5.949466651152418"><ele>299.0</ele><time>2026-04-22T09:33:01.001Z</time></trkpt><trkpt lat="43.552325268043965" lon="5.949585048297233"><ele>299.0</ele><time>2026-04-22T09:33:02.001Z</time></trkpt><trkpt lat="43.552571897138264" lon="5.9497110426855055"><ele>299.0</ele><time>2026-04-22T09:33:03.001Z</time></trkpt><trkpt lat="43.552829593791955" lon="5.949837126031781"><ele>299.0</ele><time>2026-04-22T09:33:04.001Z</time></trkpt><trkpt lat="43.55309313597001" lon="5.949962823603818"><ele>299.0</ele><time>2026-04-22T09:33:05.001Z</time></trkpt><trkpt lat="43.553361051669484" lon="5.950092860373751"><ele>299.0</ele><time>2026-04-22T09:33:06.001Z</time></trkpt><trkpt lat="43.55363171532694" lon="5.950225904809441"><ele>299.0</ele><time>2026-04-22T09:33:07.001Z</time></trkpt><trkpt lat="43.553910443559445" lon="5.950357430359676"><ele>300.5</ele><time>2026-04-22T09:33:08.001Z</time></trkpt><trkpt lat="43.554178866714295" lon="5.950483988858219"><ele>302.0</ele><time>2026-04-22T09:33:09.001Z</time></trkpt><trkpt lat="43.554427371924014" lon="5.950607337981079"><ele>302.6666666666667</ele><time>2026-04-22T09:33:10.001Z</time></trkpt><trkpt lat="43.55465361331908" lon="5.950717048519332"><ele>303.3333333333333</ele><time>2026-04-22T09:33:11.001Z</time></trkpt><trkpt lat="43.5548501084734" lon="5.950808596618108"><ele>304.0</ele><time>2026-04-22T09:33:12.001Z</time></trkpt><trkpt lat="43.55501238933088" lon="5.950884847400343"><ele>304.0</ele><time>2026-04-22T09:33:13.001Z</time></trkpt><trkpt lat="43.55516123788969" lon="5.95095648304619"><ele>304.0</ele><time>2026-04-22T09:33:14.001Z</time></trkpt><trkpt lat="43.55529016061457" lon="5.951019735176599"><ele>304.0</ele><time>2026-04-22T09:33:15.001Z</time></trkpt><trkpt lat="43.55540795140152" lon="5.951087289793833"><ele>304.0</ele><time>2026-04-22T09:33:16.001Z</time></trkpt><trkpt lat="43.555510145356806" lon="5.951186877388865"><ele>304.5</ele><time>2026-04-22T09:33:17.001Z</time></trkpt><trkpt lat="43.555595179557855" lon="5.951343083055606"><ele>305.0</ele><time>2026-04-22T09:33:18.001Z</time></trkpt><trkpt lat="43.55563230656175" lon="5.9515327486668435"><ele>305.5</ele><time>2026-04-22T09:33:19.001Z</time></trkpt><trkpt lat="43.55566602989674" lon="5.951728737488178"><ele>306.0</ele><time>2026-04-22T09:33:20.001Z</time></trkpt><trkpt lat="43.55571239438572" lon="5.9519308747887045"><ele>306.5</ele><time>2026-04-22T09:33:21.001Z</time></trkpt><trkpt lat="43.55577517199127" lon="5.952104595833534"><ele>307.0</ele><time>2026-04-22T09:33:22.001Z</time></trkpt><trkpt lat="43.555826361569146" lon="5.952275395398942"><ele>307.5</ele><time>2026-04-22T09:33:23.001Z</time></trkpt><trkpt lat="43.555831781096344" lon="5.9524561812019785"><ele>308.0</ele><time>2026-04-22T09:33:24.001Z</time></trkpt><trkpt lat="43.55578734243358" lon="5.9526416662745145"><ele>309.6666666666667</ele><time>2026-04-22T09:33:25.001Z</time></trkpt><trkpt lat="43.55570047723398" lon="5.952808934668713"><ele>311.3333333333333</ele><time>2026-04-22T09:33:26.001Z</time></trkpt><trkpt lat="43.55558643831303" lon="5.952963476866881"><ele>313.0</ele><time>2026-04-22T09:33:27.001Z</time></trkpt><trkpt lat="43.555472623623984" lon="5.953135525335129"><ele>313.0</ele><time>2026-04-22T09:33:28.001Z</time></trkpt><trkpt lat="43.555396727231475" lon="5.953359467589619"><ele>313.0</ele><time>2026-04-22T09:33:29.001Z</time></trkpt><trkpt lat="43.55535622129677" lon="5.953603122685951"><ele>313.0</ele><time>2026-04-22T09:33:30.001Z</time></trkpt><trkpt lat="43.55535795834558" lon="5.953826349669379"><ele>312.66666666666663</ele><time>2026-04-22T09:33:31.001Z</time></trkpt><trkpt lat="43.55539382783383" lon="5.954020094006833"><ele>312.3333333333333</ele><time>2026-04-22T09:33:32.001Z</time></trkpt><trkpt lat="43.55548559926313" lon="5.954195047879807"><ele>312.0</ele><time>2026-04-22T09:33:33.001Z</time></trkpt><trkpt lat="43.55561471449954" lon="5.954342739778019"><ele>312.0</ele><time>2026-04-22T09:33:34.001Z</time></trkpt><trkpt lat="43.55575749277608" lon="5.954477439401231"><ele>312.0</ele><time>2026-04-22T09:33:35.001Z</time></trkpt><trkpt lat="43.55592034830151" lon="5.954575855956035"><ele>312.0</ele><time>2026-04-22T09:33:36.001Z</time></trkpt><trkpt lat="43.556110546013606" lon="5.954612726260038"><ele>314.3333333333333</ele><time>2026-04-22T09:33:37.001Z</time></trkpt><trkpt lat="43.55630565244069" lon="5.954616962457475"><ele>316.66666666666663</ele><time>2026-04-22T09:33:38.001Z</time></trkpt><trkpt lat="43.556508440321124" lon="5.9546303582965665"><ele>319.0</ele><time>2026-04-22T09:33:39.001Z</time></trkpt><trkpt lat="43.556738327242314" lon="5.954646452326366"><ele>319.0</ele><time>2026-04-22T09:33:40.001Z</time></trkpt><trkpt lat="43.556969929608385" lon="5.954671851425118"><ele>319.0</ele><time>2026-04-22T09:33:41.001Z</time></trkpt><trkpt lat="43.55722459078572" lon="5.954686893258416"><ele>322.0</ele><time>2026-04-22T09:33:42.001Z</time></trkpt><trkpt lat="43.55746123983768" lon="5.954798282037796"><ele>325.0</ele><time>2026-04-22T09:33:43.001Z</time></trkpt><trkpt lat="43.55765489442335" lon="5.95487127937581"><ele>325.0</ele><time>2026-04-22T09:33:44.001Z</time></trkpt><trkpt lat="43.557855124913736" lon="5.954975486792536"><ele>325.0</ele><time>2026-04-22T09:33:45.001Z</time></trkpt><trkpt lat="43.55804908898691" lon="5.955073682250503"><ele>325.0</ele><time>2026-04-22T09:33:46.001Z</time></trkpt><trkpt lat="43.55825281738065" lon="5.955169800353843"><ele>325.66666666666663</ele><time>2026-04-22T09:33:47.001Z</time></trkpt><trkpt lat="43.55845023092994" lon="5.955245672559569"><ele>326.3333333333333</ele><time>2026-04-22T09:33:48Z</time></trkpt><trkpt lat="43.5586508029499" lon="5.9552919000198825"><ele>327.0</ele><time>2026-04-22T09:33:49Z</time></trkpt><trkpt lat="43.55886013818937" lon="5.9553178112508505"><ele>327.5</ele><time>2026-04-22T09:33:50Z</time></trkpt><trkpt lat="43.55908383354041" lon="5.955330629652892"><ele>328.0</ele><time>2026-04-22T09:33:51Z</time></trkpt><trkpt lat="43.559328209000135" lon="5.955329459979848"><ele>330.3333333333333</ele><time>2026-04-22T09:33:52Z</time></trkpt><trkpt lat="43.55954355393519" lon="5.955351801319912"><ele>332.6666666666667</ele><time>2026-04-22T09:33:53Z</time></trkpt><trkpt lat="43.55975580627244" lon="5.955368971613066"><ele>335.0</ele><time>2026-04-22T09:33:54Z</time></trkpt><trkpt lat="43.55995133307244" lon="5.955402982639727"><ele>335.0</ele><time>2026-04-22T09:33:55Z</time></trkpt><trkpt lat="43.560144009693104" lon="5.955473845067523"><ele>335.0</ele><time>2026-04-22T09:33:56Z</time></trkpt><trkpt lat="43.56031816773537" lon="5.955609502481271"><ele>335.0</ele><time>2026-04-22T09:33:57Z</time></trkpt><trkpt lat="43.56049132300057" lon="5.9557571436244405"><ele>336.6666666666667</ele><time>2026-04-22T09:33:58Z</time></trkpt><trkpt lat="43.56066379727539" lon="5.955873859903496"><ele>338.3333333333333</ele><time>2026-04-22T09:33:59Z</time></trkpt><trkpt lat="43.56082259610982" lon="5.9559864227765145"><ele>340.0</ele><time>2026-04-22T09:34:00Z</time></trkpt><trkpt lat="43.56098555620054" lon="5.956082025661171"><ele>340.0</ele><time>2026-04-22T09:34:01Z</time></trkpt><trkpt lat="43.56115318445121" lon="5.956157301228942"><ele>340.0</ele><time>2026-04-22T09:34:02Z</time></trkpt><trkpt lat="43.561329302983445" lon="5.956213052384538"><ele>340.0</ele><time>2026-04-22T09:34:03Z</time></trkpt><trkpt lat="43.56152426583964" lon="5.95627634921924"><ele>341.3333333333333</ele><time>2026-04-22T09:34:04Z</time></trkpt><trkpt lat="43.56171401369035" lon="5.956341647143864"><ele>342.6666666666667</ele><time>2026-04-22T09:34:05Z</time></trkpt><trkpt lat="43.56190089744926" lon="5.956399333498361"><ele>344.0</ele><time>2026-04-22T09:34:06Z</time></trkpt><trkpt lat="43.562081148848876" lon="5.956464933170443"><ele>344.33333333333337</ele><time>2026-04-22T09:34:07Z</time></trkpt><trkpt lat="43.56224784812769" lon="5.956588291252117"><ele>344.6666666666667</ele><time>2026-04-22T09:34:08Z</time></trkpt><trkpt lat="43.56240309786562" lon="5.956738141781573"><ele>345.0</ele><time>2026-04-22T09:34:09Z</time></trkpt><trkpt lat="43.56257303517455" lon="5.956907461111914"><ele>345.0</ele><time>2026-04-22T09:34:10Z</time></trkpt><trkpt lat="43.56272391617866" lon="5.957079870901808"><ele>345.0</ele><time>2026-04-22T09:34:11Z</time></trkpt><trkpt lat="43.56287844277195" lon="5.957217837454582"><ele>345.0</ele><time>2026-04-22T09:34:12Z</time></trkpt><trkpt lat="43.56306408856371" lon="5.9573252240888594"><ele>346.0</ele><time>2026-04-22T09:34:13Z</time></trkpt><trkpt lat="43.56327038590083" lon="5.957414003311137"><ele>347.0</ele><time>2026-04-22T09:34:14Z</time></trkpt><trkpt lat="43.56349533902537" lon="5.957480754390198"><ele>348.0</ele><time>2026-04-22T09:34:15Z</time></trkpt><trkpt lat="43.56369772226795" lon="5.9575879729202414"><ele>348.0</ele><time>2026-04-22T09:34:16Z</time></trkpt><trkpt lat="43.563899802528255" lon="5.957718048144386"><ele>348.0</ele><time>2026-04-22T09:34:17Z</time></trkpt><trkpt lat="43.564100881598065" lon="5.957847370706319"><ele>348.0</ele><time>2026-04-22T09:34:18Z</time></trkpt><trkpt lat="43.56430155896579" lon="5.958011275658608"><ele>352.5</ele><time>2026-04-22T09:34:19Z</time></trkpt><trkpt lat="43.564567013369484" lon="5.9581460176092245"><ele>357.0</ele><time>2026-04-22T09:34:20Z</time></trkpt><trkpt lat="43.56475034454998" lon="5.958218455709215"><ele>357.0</ele><time>2026-04-22T09:34:21Z</time></trkpt><trkpt lat="43.56489300812657" lon="5.958319284115801"><ele>357.0</ele><time>2026-04-22T09:34:22Z</time></trkpt><trkpt lat="43.56506317910765" lon="5.958405699900185"><ele>357.0</ele><time>2026-04-22T09:34:23Z</time></trkpt><trkpt lat="43.56521913009429" lon="5.9585168939225275"><ele>358.3333333333333</ele><time>2026-04-22T09:34:24Z</time></trkpt><trkpt lat="43.56543497568075" lon="5.958664079984349"><ele>359.66666666666663</ele><time>2026-04-22T09:34:25Z</time></trkpt><trkpt lat="43.56561835389764" lon="5.958786149417149"><ele>361.0</ele><time>2026-04-22T09:34:26Z</time></trkpt><trkpt lat="43.565797472415085" lon="5.9588959829818045"><ele>361.0</ele><time>2026-04-22T09:34:27Z</time></trkpt><trkpt lat="43.56597417594242" lon="5.959004921726016"><ele>361.0</ele><time>2026-04-22T09:34:28Z</time></trkpt><trkpt lat="43.566157204934825" lon="5.959083219810882"><ele>361.0</ele><time>2026-04-22T09:34:29Z</time></trkpt><trkpt lat="43.56634549772144" lon="5.959116299953109"><ele>362.66666666666663</ele><time>2026-04-22T09:34:30Z</time></trkpt><trkpt lat="43.566505024808166" lon="5.959086619883627"><ele>364.3333333333333</ele><time>2026-04-22T09:34:31Z</time></trkpt><trkpt lat="43.56674245595547" lon="5.958983082364162"><ele>366.0</ele><time>2026-04-22T09:34:32Z</time></trkpt><trkpt lat="43.56694373499577" lon="5.958918516497862"><ele>367.6666666666667</ele><time>2026-04-22T09:34:33Z</time></trkpt><trkpt lat="43.56712108384728" lon="5.95883927997744"><ele>369.33333333333337</ele><time>2026-04-22T09:34:34Z</time></trkpt><trkpt lat="43.56729559256025" lon="5.958790646320089"><ele>371.0</ele><time>2026-04-22T09:34:35Z</time></trkpt><trkpt lat="43.56746821491096" lon="5.958737654797539"><ele>371.0</ele><time>2026-04-22T09:34:36Z</time></trkpt><trkpt lat="43.56763981871789" lon="5.958705075951425"><ele>371.0</ele><time>2026-04-22T09:34:37Z</time></trkpt><trkpt lat="43.567816894758096" lon="5.958646815316045"><ele>371.0</ele><time>2026-04-22T09:34:38Z</time></trkpt><trkpt lat="43.56798461855196" lon="5.958563932201709"><ele>372.6666666666667</ele><time>2026-04-22T09:34:39Z</time></trkpt><trkpt lat="43.568134202363986" lon="5.958414426850514"><ele>374.3333333333333</ele><time>2026-04-22T09:34:40Z</time></trkpt><trkpt lat="43.568271369646105" lon="5.958228609456819"><ele>376.0</ele><time>2026-04-22T09:34:41Z</time></trkpt><trkpt lat="43.568392146321806" lon="5.958036796196105"><ele>376.0</ele><time>2026-04-22T09:34:42.001Z</time></trkpt><trkpt lat="43.568517490737264" lon="5.9578453601351065"><ele>376.0</ele><time>2026-04-22T09:34:43.001Z</time></trkpt><trkpt lat="43.56865034550753" lon="5.9576517568026235"><ele>376.0</ele><time>2026-04-22T09:34:44.001Z</time></trkpt><trkpt lat="43.56877279924739" lon="5.957473662445976"><ele>377.66666666666663</ele><time>2026-04-22T09:34:45.001Z</time></trkpt><trkpt lat="43.56889934106672" lon="5.95731182061355"><ele>379.3333333333333</ele><time>2026-04-22T09:34:46.001Z</time></trkpt><trkpt lat="43.569039667741286" lon="5.957198655259801"><ele>381.0</ele><time>2026-04-22T09:34:47.001Z</time></trkpt><trkpt lat="43.569191071229284" lon="5.957137006101044"><ele>381.0</ele><time>2026-04-22T09:34:48.001Z</time></trkpt><trkpt lat="43.56935829999494" lon="5.957118817573978"><ele>381.0</ele><time>2026-04-22T09:34:49.001Z</time></trkpt><trkpt lat="43.569532107478736" lon="5.957111211256852"><ele>381.0</ele><time>2026-04-22T09:34:50.001Z</time></trkpt><trkpt lat="43.569708672238946" lon="5.957098645373982"><ele>381.3333333333333</ele><time>2026-04-22T09:34:51.001Z</time></trkpt><trkpt lat="43.569889369100174" lon="5.957079736738212"><ele>381.66666666666663</ele><time>2026-04-22T09:34:52.001Z</time></trkpt><trkpt lat="43.57007429819178" lon="5.957057093533944"><ele>382.0</ele><time>2026-04-22T09:34:53.001Z</time></trkpt><trkpt lat="43.57026297251975" lon="5.957020321576187"><ele>380.3333333333333</ele><time>2026-04-22T09:34:54.001Z</time></trkpt><trkpt lat="43.57044789895387" lon="5.956958129639057"><ele>378.6666666666667</ele><time>2026-04-22T09:34:55.001Z</time></trkpt><trkpt lat="43.570628084502296" lon="5.95687084654455"><ele>377.0</ele><time>2026-04-22T09:34:56.001Z</time></trkpt><trkpt lat="43.57079403128967" lon="5.956786627634693"><ele>377.0</ele><time>2026-04-22T09:34:57.001Z</time></trkpt><trkpt lat="43.570950359667656" lon="5.95671037646522"><ele>377.0</ele><time>2026-04-22T09:34:58.001Z</time></trkpt><trkpt lat="43.571096138276964" lon="5.956616008893339"><ele>377.0</ele><time>2026-04-22T09:34:59.001Z</time></trkpt><trkpt lat="43.5712317658927" lon="5.956471241331102"><ele>375.6666666666667</ele><time>2026-04-22T09:35:00.001Z</time></trkpt><trkpt lat="43.57135646881527" lon="5.9562993759127565"><ele>374.3333333333333</ele><time>2026-04-22T09:35:01.001Z</time></trkpt><trkpt lat="43.57147013147387" lon="5.956132320128564"><ele>373.0</ele><time>2026-04-22T09:35:02.001Z</time></trkpt><trkpt lat="43.571594359146964" lon="5.955984004340239"><ele>372.0</ele><time>2026-04-22T09:35:03.001Z</time></trkpt><trkpt lat="43.57171643681268" lon="5.955852016109561"><ele>371.0</ele><time>2026-04-22T09:35:04.001Z</time></trkpt><trkpt lat="43.5718431813831" lon="5.955741289017051"><ele>370.0</ele><time>2026-04-22T09:35:05.001Z</time></trkpt><trkpt lat="43.57198864457509" lon="5.955648830849557"><ele>368.3333333333333</ele><time>2026-04-22T09:35:06.001Z</time></trkpt><trkpt lat="43.57213069931147" lon="5.9555665898218875"><ele>366.6666666666667</ele><time>2026-04-22T09:35:07.001Z</time></trkpt><trkpt lat="43.57228729711383" lon="5.955507187382292"><ele>365.0</ele><time>2026-04-22T09:35:08.001Z</time></trkpt><trkpt lat="43.57245356507779" lon="5.9554793106938675"><ele>365.0</ele><time>2026-04-22T09:35:09.001Z</time></trkpt><trkpt lat="43.572617423345626" lon="5.955473117674985"><ele>365.0</ele><time>2026-04-22T09:35:10.001Z</time></trkpt><trkpt lat="43.57278335097413" lon="5.955476170358013"><ele>365.0</ele><time>2026-04-22T09:35:11.001Z</time></trkpt><trkpt lat="43.57295639759995" lon="5.955508451765547"><ele>363.33333333333337</ele><time>2026-04-22T09:35:12.001Z</time></trkpt><trkpt lat="43.57312841486931" lon="5.955579930685903"><ele>361.6666666666667</ele><time>2026-04-22T09:35:13.001Z</time></trkpt><trkpt lat="43.57329347951193" lon="5.95567243581769"><ele>360.0</ele><time>2026-04-22T09:35:14.001Z</time></trkpt><trkpt lat="43.57345215676586" lon="5.955792719495746"><ele>359.6666666666667</ele><time>2026-04-22T09:35:15.001Z</time></trkpt><trkpt lat="43.57360499561722" lon="5.955931834185029"><ele>359.33333333333337</ele><time>2026-04-22T09:35:16.001Z</time></trkpt><trkpt lat="43.573751777169846" lon="5.956083837722329"><ele>359.0</ele><time>2026-04-22T09:35:17.001Z</time></trkpt><trkpt lat="43.57388231295534" lon="5.956281186499477"><ele>356.0</ele><time>2026-04-22T09:35:18.001Z</time></trkpt><trkpt lat="43.57405046009451" lon="5.956401569909517"><ele>353.0</ele><time>2026-04-22T09:35:19.001Z</time></trkpt><trkpt lat="43.57422406202133" lon="5.95651063266938"><ele>350.0</ele><time>2026-04-22T09:35:20.001Z</time></trkpt><trkpt lat="43.57441164952907" lon="5.956550864166106"><ele>347.6666666666667</ele><time>2026-04-22T09:35:21.001Z</time></trkpt><trkpt lat="43.57460708545534" lon="5.956526893015241"><ele>345.3333333333333</ele><time>2026-04-22T09:35:22.001Z</time></trkpt><trkpt lat="43.57478692349641" lon="5.95645375373634"><ele>343.0</ele><time>2026-04-22T09:35:23.001Z</time></trkpt><trkpt lat="43.5749628939905" lon="5.956326343471947"><ele>343.0</ele><time>2026-04-22T09:35:24.001Z</time></trkpt><trkpt lat="43.57511256682863" lon="5.956162400926169"><ele>343.0</ele><time>2026-04-22T09:35:25.001Z</time></trkpt><trkpt lat="43.57524418010692" lon="5.955973409209562"><ele>343.0</ele><time>2026-04-22T09:35:26.001Z</time></trkpt><trkpt lat="43.575371569228835" lon="5.955776854167832"><ele>344.0</ele><time>2026-04-22T09:35:27.001Z</time></trkpt><trkpt lat="43.575475515734624" lon="5.9556001825454565"><ele>345.0</ele><time>2026-04-22T09:35:28.001Z</time></trkpt><trkpt lat="43.57558926577742" lon="5.955353352361397"><ele>346.0</ele><time>2026-04-22T09:35:29.001Z</time></trkpt><trkpt lat="43.575703927822545" lon="5.955157590574356"><ele>347.0</ele><time>2026-04-22T09:35:30.001Z</time></trkpt><trkpt lat="43.57581701489982" lon="5.955006250781152"><ele>348.0</ele><time>2026-04-22T09:35:31.001Z</time></trkpt><trkpt lat="43.57593371455209" lon="5.954899368370632"><ele>349.0</ele><time>2026-04-22T09:35:32.001Z</time></trkpt><trkpt lat="43.576061497359085" lon="5.954879447124655"><ele>350.0</ele><time>2026-04-22T09:35:33.001Z</time></trkpt><trkpt lat="43.576195354624446" lon="5.954921908010317"><ele>351.0</ele><time>2026-04-22T09:35:34.001Z</time></trkpt><trkpt lat="43.57630571103687" lon="5.9549995225233445"><ele>352.0</ele><time>2026-04-22T09:35:35.001Z</time></trkpt><trkpt lat="43.576413661673506" lon="5.95510570275492"><ele>353.0</ele><time>2026-04-22T09:35:36.001Z</time></trkpt><trkpt lat="43.57646042646286" lon="5.9552845172559525"><ele>354.0</ele><time>2026-04-22T09:35:37.001Z</time></trkpt><trkpt lat="43.57647681934708" lon="5.955462854870464"><ele>355.0</ele><time>2026-04-22T09:35:38.001Z</time></trkpt><trkpt lat="43.576479807669436" lon="5.955650004538544"><ele>356.0</ele><time>2026-04-22T09:35:39.001Z</time></trkpt><trkpt lat="43.57640327951632" lon="5.955818126326544"><ele>357.0</ele><time>2026-04-22T09:35:40.001Z</time></trkpt><trkpt lat="43.57631156175992" lon="5.955969281532459"><ele>358.0</ele><time>2026-04-22T09:35:41.001Z</time></trkpt><trkpt lat="43.57622016234661" lon="5.956138076965434"><ele>354.75</ele><time>2026-04-22T09:35:42.001Z</time></trkpt><trkpt lat="43.57615285832497" lon="5.956312769542439"><ele>351.5</ele><time>2026-04-22T09:35:43.001Z</time></trkpt><trkpt lat="43.57609972160315" lon="5.956504696383712"><ele>348.25</ele><time>2026-04-22T09:35:44.001Z</time></trkpt><trkpt lat="43.576102428625966" lon="5.956704505694111"><ele>345.0</ele><time>2026-04-22T09:35:45.001Z</time></trkpt><trkpt lat="43.5761519888173" lon="5.956873370937111"><ele>346.0</ele><time>2026-04-22T09:35:46.001Z</time></trkpt><trkpt lat="43.57624395763032" lon="5.956999972746751"><ele>347.0</ele><time>2026-04-22T09:35:47.001Z</time></trkpt><trkpt lat="43.576351229261746" lon="5.957058485669357"><ele>348.0</ele><time>2026-04-22T09:35:48.001Z</time></trkpt><trkpt lat="43.57646790938936" lon="5.957084625888526"><ele>349.0</ele><time>2026-04-22T09:35:49.001Z</time></trkpt><trkpt lat="43.57661508728459" lon="5.95703209010831"><ele>349.0</ele><time>2026-04-22T09:35:50.001Z</time></trkpt><trkpt lat="43.57674652015834" lon="5.956956025927146"><ele>349.0</ele><time>2026-04-22T09:35:51.001Z</time></trkpt><trkpt lat="43.57688208330396" lon="5.9568819635321235"><ele>349.0</ele><time>2026-04-22T09:35:52.001Z</time></trkpt><trkpt lat="43.57701261966751" lon="5.956812796391384"><ele>349.0</ele><time>2026-04-22T09:35:53.001Z</time></trkpt><trkpt lat="43.57713075405872" lon="5.95674056554849"><ele>351.75</ele><time>2026-04-22T09:35:54Z</time></trkpt><trkpt lat="43.57724793571428" lon="5.956668776191497"><ele>354.5</ele><time>2026-04-22T09:35:55Z</time></trkpt><trkpt lat="43.57737702700111" lon="5.95659208651992"><ele>357.25</ele><time>2026-04-22T09:35:56Z</time></trkpt><trkpt lat="43.57750808088451" lon="5.956521696248105"><ele>360.0</ele><time>2026-04-22T09:35:57Z</time></trkpt><trkpt lat="43.57765129032484" lon="5.956461129846823"><ele>360.0</ele><time>2026-04-22T09:35:58Z</time></trkpt><trkpt lat="43.577796486442814" lon="5.956416616611162"><ele>360.0</ele><time>2026-04-22T09:35:59Z</time></trkpt><trkpt lat="43.57794305422852" lon="5.956409441198075"><ele>360.0</ele><time>2026-04-22T09:36:00Z</time></trkpt><trkpt lat="43.57810159732705" lon="5.956404272087353"><ele>360.0</ele><time>2026-04-22T09:36:01Z</time></trkpt><trkpt lat="43.57828306137791" lon="5.956400483095473"><ele>360.0</ele><time>2026-04-22T09:36:02Z</time></trkpt><trkpt lat="43.578452692675064" lon="5.956380939044157"><ele>360.0</ele><time>2026-04-22T09:36:03Z</time></trkpt><trkpt lat="43.57861766686551" lon="5.956399045873939"><ele>360.75</ele><time>2026-04-22T09:36:04Z</time></trkpt><trkpt lat="43.57875198769729" lon="5.956378227907153"><ele>361.5</ele><time>2026-04-22T09:36:05Z</time></trkpt><trkpt lat="43.57889319451368" lon="5.956377628495371"><ele>362.25</ele><time>2026-04-22T09:36:06Z</time></trkpt><trkpt lat="43.57902317003752" lon="5.956366745933505"><ele>363.0</ele><time>2026-04-22T09:36:07Z</time></trkpt><trkpt lat="43.579153163546415" lon="5.956332750974832"><ele>363.0</ele><time>2026-04-22T09:36:08Z</time></trkpt><trkpt lat="43.579275794098145" lon="5.95632602569118"><ele>363.0</ele><time>2026-04-22T09:36:09Z</time></trkpt><trkpt lat="43.57941949926186" lon="5.956268825968361"><ele>363.0</ele><time>2026-04-22T09:36:10Z</time></trkpt><trkpt lat="43.57957169961438" lon="5.956218125218765"><ele>363.0</ele><time>2026-04-22T09:36:11Z</time></trkpt><trkpt lat="43.579739638311395" lon="5.956156000431485"><ele>361.0</ele><time>2026-04-22T09:36:12Z</time></trkpt><trkpt lat="43.5799156690552" lon="5.956100108942955"><ele>359.0</ele><time>2026-04-22T09:36:13Z</time></trkpt><trkpt lat="43.58009153633706" lon="5.956046044500457"><ele>357.0</ele><time>2026-04-22T09:36:14Z</time></trkpt><trkpt lat="43.58025745746816" lon="5.9560076912742685"><ele>354.6666666666667</ele><time>2026-04-22T09:36:15Z</time></trkpt><trkpt lat="43.58042494355023" lon="5.955971073972006"><ele>352.33333333333337</ele><time>2026-04-22T09:36:16Z</time></trkpt><trkpt lat="43.580606385520184" lon="5.955947694926728"><ele>350.0</ele><time>2026-04-22T09:36:17Z</time></trkpt><trkpt lat="43.580777511464866" lon="5.955936566191565"><ele>350.0</ele><time>2026-04-22T09:36:18Z</time></trkpt><trkpt lat="43.58095382249872" lon="5.955937925832618"><ele>350.0</ele><time>2026-04-22T09:36:19Z</time></trkpt><trkpt lat="43.58112349136253" lon="5.955937366251548"><ele>350.0</ele><time>2026-04-22T09:36:20Z</time></trkpt><trkpt lat="43.58128990802037" lon="5.955935946650297"><ele>350.33333333333337</ele><time>2026-04-22T09:36:21Z</time></trkpt><trkpt lat="43.58146003831004" lon="5.955913622170685"><ele>350.6666666666667</ele><time>2026-04-22T09:36:22Z</time></trkpt><trkpt lat="43.58163637302056" lon="5.955898586647863"><ele>351.0</ele><time>2026-04-22T09:36:23Z</time></trkpt><trkpt lat="43.581810540104556" lon="5.955867168075859"><ele>351.0</ele><time>2026-04-22T09:36:24Z</time></trkpt><trkpt lat="43.58197605254446" lon="5.955827518559145"><ele>351.0</ele><time>2026-04-22T09:36:25Z</time></trkpt><trkpt lat="43.582146116418656" lon="5.955768920368037"><ele>351.0</ele><time>2026-04-22T09:36:26Z</time></trkpt><trkpt lat="43.582305909641306" lon="5.955735174740736"><ele>349.6666666666667</ele><time>2026-04-22T09:36:27Z</time></trkpt><trkpt lat="43.58248376054131" lon="5.955710328200413"><ele>348.33333333333337</ele><time>2026-04-22T09:36:28Z</time></trkpt><trkpt lat="43.58265880103443" lon="5.955733431505518"><ele>347.0</ele><time>2026-04-22T09:36:29Z</time></trkpt><trkpt lat="43.58283663805919" lon="5.955769609189631"><ele>345.6666666666667</ele><time>2026-04-22T09:36:30Z</time></trkpt><trkpt lat="43.58302730436033" lon="5.955838281009851"><ele>344.3333333333333</ele><time>2026-04-22T09:36:31Z</time></trkpt><trkpt lat="43.58322244640704" lon="5.955881505760004"><ele>343.0</ele><time>2026-04-22T09:36:32Z</time></trkpt><trkpt lat="43.58342082351881" lon="5.955916707908793"><ele>341.0</ele><time>2026-04-22T09:36:33Z</time></trkpt><trkpt lat="43.583622422150796" lon="5.955945410282532"><ele>339.0</ele><time>2026-04-22T09:36:34Z</time></trkpt><trkpt lat="43.58381288453" lon="5.955969889816237"><ele>337.0</ele><time>2026-04-22T09:36:35Z</time></trkpt><trkpt lat="43.584018238534" lon="5.956004006578201"><ele>336.66666666666663</ele><time>2026-04-22T09:36:36Z</time></trkpt><trkpt lat="43.58421932674908" lon="5.956015047938413"><ele>336.3333333333333</ele><time>2026-04-22T09:36:37Z</time></trkpt><trkpt lat="43.58441147714697" lon="5.955999103911996"><ele>336.0</ele><time>2026-04-22T09:36:38Z</time></trkpt><trkpt lat="43.584590893645085" lon="5.956008008477686"><ele>335.3333333333333</ele><time>2026-04-22T09:36:39Z</time></trkpt><trkpt lat="43.584762392479384" lon="5.9560150106335366"><ele>334.66666666666663</ele><time>2026-04-22T09:36:40Z</time></trkpt><trkpt lat="43.58494229566444" lon="5.956015119973116"><ele>334.0</ele><time>2026-04-22T09:36:41Z</time></trkpt><trkpt lat="43.58511808044252" lon="5.956014675658602"><ele>334.0</ele><time>2026-04-22T09:36:42Z</time></trkpt><trkpt lat="43.58530104323056" lon="5.956020076487048"><ele>334.0</ele><time>2026-04-22T09:36:43Z</time></trkpt><trkpt lat="43.58547828193854" lon="5.956042504646738"><ele>334.0</ele><time>2026-04-22T09:36:44Z</time></trkpt><trkpt lat="43.58565295166129" lon="5.956024096287071"><ele>333.66666666666663</ele><time>2026-04-22T09:36:45Z</time></trkpt><trkpt lat="43.585808819048665" lon="5.956029354052309"><ele>333.3333333333333</ele><time>2026-04-22T09:36:46Z</time></trkpt><trkpt lat="43.58596632300324" lon="5.956035152584712"><ele>333.0</ele><time>2026-04-22T09:36:47Z</time></trkpt><trkpt lat="43.58612527203849" lon="5.956043879946798"><ele>332.75</ele><time>2026-04-22T09:36:48Z</time></trkpt><trkpt lat="43.58627089524172" lon="5.956035951573595"><ele>332.5</ele><time>2026-04-22T09:36:49Z</time></trkpt><trkpt lat="43.58640718727924" lon="5.955994642876504"><ele>332.25</ele><time>2026-04-22T09:36:50Z</time></trkpt><trkpt lat="43.58650834917875" lon="5.955932313161866"><ele>332.0</ele><time>2026-04-22T09:36:51Z</time></trkpt><trkpt lat="43.58662997634618" lon="5.955769706468439"><ele>332.0</ele><time>2026-04-22T09:36:52Z</time></trkpt><trkpt lat="43.586713483087784" lon="5.955590076411467"><ele>332.0</ele><time>2026-04-22T09:36:53Z</time></trkpt><trkpt lat="43.586792476581834" lon="5.955422408179711"><ele>332.0</ele><time>2026-04-22T09:36:54Z</time></trkpt><trkpt lat="43.58686982677066" lon="5.955305243560744"><ele>332.0</ele><time>2026-04-22T09:36:55Z</time></trkpt><trkpt lat="43.586988102340115" lon="5.955274422007248"><ele>333.6</ele><time>2026-04-22T09:36:56Z</time></trkpt><trkpt lat="43.587083061550324" lon="5.955340196087131"><ele>335.20000000000005</ele><time>2026-04-22T09:36:57Z</time></trkpt><trkpt lat="43.587178883079204" lon="5.955381818532313"><ele>336.8</ele><time>2026-04-22T09:36:58Z</time></trkpt><trkpt lat="43.58726281141061" lon="5.955454580777365"><ele>338.4</ele><time>2026-04-22T09:36:59.001Z</time></trkpt><trkpt lat="43.5872977810916" lon="5.955539323303841"><ele>340.0</ele><time>2026-04-22T09:37:00.001Z</time></trkpt><trkpt lat="43.5873012453775" lon="5.95564782387784"><ele>340.0</ele><time>2026-04-22T09:37:01.001Z</time></trkpt><trkpt lat="43.587204846351256" lon="5.955747855344474"><ele>340.0</ele><time>2026-04-22T09:37:02.001Z</time></trkpt><trkpt lat="43.587154678237894" lon="5.955857181244046"><ele>340.0</ele><time>2026-04-22T09:37:03.001Z</time></trkpt><trkpt lat="43.58709741715447" lon="5.95600033493767"><ele>340.0</ele><time>2026-04-22T09:37:04.001Z</time></trkpt><trkpt lat="43.58705883826983" lon="5.956164369860569"><ele>339.5</ele><time>2026-04-22T09:37:05.001Z</time></trkpt><trkpt lat="43.587043465451636" lon="5.956353073612383"><ele>339.0</ele><time>2026-04-22T09:37:06.001Z</time></trkpt><trkpt lat="43.5870723876887" lon="5.956546073055607"><ele>338.5</ele><time>2026-04-22T09:37:07.001Z</time></trkpt><trkpt lat="43.58709004554991" lon="5.956718366945084"><ele>338.0</ele><time>2026-04-22T09:37:08.001Z</time></trkpt><trkpt lat="43.58715969281937" lon="5.956872377280843"><ele>335.25</ele><time>2026-04-22T09:37:09.001Z</time></trkpt><trkpt lat="43.587248811173495" lon="5.957015083219987"><ele>332.5</ele><time>2026-04-22T09:37:10.001Z</time></trkpt><trkpt lat="43.58731566890325" lon="5.9571785984615495"><ele>329.75</ele><time>2026-04-22T09:37:11.001Z</time></trkpt><trkpt lat="43.587385624358724" lon="5.957323912406128"><ele>327.0</ele><time>2026-04-22T09:37:12.001Z</time></trkpt><trkpt lat="43.587441265858864" lon="5.957475368098621"><ele>327.25</ele><time>2026-04-22T09:37:13.001Z</time></trkpt><trkpt lat="43.58744484478049" lon="5.957642330875273"><ele>327.5</ele><time>2026-04-22T09:37:14.001Z</time></trkpt><trkpt lat="43.58743090736122" lon="5.957845247180889"><ele>327.75</ele><time>2026-04-22T09:37:15.001Z</time></trkpt><trkpt lat="43.587423410220964" lon="5.9580479126360215"><ele>328.0</ele><time>2026-04-22T09:37:16.001Z</time></trkpt><trkpt lat="43.58740797831238" lon="5.958272633706167"><ele>327.0</ele><time>2026-04-22T09:37:17.001Z</time></trkpt><trkpt lat="43.587345684133986" lon="5.9584521713093626"><ele>326.0</ele><time>2026-04-22T09:37:18.001Z</time></trkpt><trkpt lat="43.58729081279391" lon="5.958638230761997"><ele>325.0</ele><time>2026-04-22T09:37:19.001Z</time></trkpt><trkpt lat="43.58726210257948" lon="5.958805986519486"><ele>324.0</ele><time>2026-04-22T09:37:20.001Z</time></trkpt><trkpt lat="43.587252774060566" lon="5.958962493270183"><ele>324.0</ele><time>2026-04-22T09:37:21.001Z</time></trkpt><trkpt lat="43.587278140513085" lon="5.959105053735846"><ele>324.0</ele><time>2026-04-22T09:37:22.001Z</time></trkpt><trkpt lat="43.587327580839926" lon="5.9592478323082965"><ele>324.0</ele><time>2026-04-22T09:37:23.001Z</time></trkpt><trkpt lat="43.58740523457247" lon="5.9593643171686175"><ele>324.0</ele><time>2026-04-22T09:37:24.001Z</time></trkpt><trkpt lat="43.58747996369811" lon="5.959438657309939"><ele>324.0</ele><time>2026-04-22T09:37:26.001Z</time></trkpt><trkpt lat="43.58754309184076" lon="5.959494567976712"><ele>322.0</ele><time>2026-04-22T09:37:28.001Z</time></trkpt><trkpt lat="43.58764612532699" lon="5.959585712682108"><ele>320.0</ele><time>2026-04-22T09:37:30.001Z</time></trkpt><trkpt lat="43.58770985229231" lon="5.959642684197443"><ele>318.0</ele><time>2026-04-22T09:37:31.001Z</time></trkpt><trkpt lat="43.58779487724265" lon="5.959706722291357"><ele>316.0</ele><time>2026-04-22T09:37:32.001Z</time></trkpt><trkpt lat="43.587890307022505" lon="5.959782388393206"><ele>314.0</ele><time>2026-04-22T09:37:33.001Z</time></trkpt><trkpt lat="43.587994307199665" lon="5.959866187889332"><ele>313.75</ele><time>2026-04-22T09:37:34.001Z</time></trkpt><trkpt lat="43.588099904921556" lon="5.959953986989994"><ele>313.5</ele><time>2026-04-22T09:37:35.001Z</time></trkpt><trkpt lat="43.58821296858226" lon="5.960042659632953"><ele>313.25</ele><time>2026-04-22T09:37:36.001Z</time></trkpt><trkpt lat="43.58833212905483" lon="5.9601131421416"><ele>313.0</ele><time>2026-04-22T09:37:37.001Z</time></trkpt><trkpt lat="43.588445960097204" lon="5.960161986336313"><ele>311.75</ele><time>2026-04-22T09:37:38.001Z</time></trkpt><trkpt lat="43.58857447783799" lon="5.960182214908886"><ele>310.5</ele><time>2026-04-22T09:37:39.001Z</time></trkpt><trkpt lat="43.58870502440638" lon="5.9601713435500825"><ele>309.25</ele><time>2026-04-22T09:37:40.001Z</time></trkpt><trkpt lat="43.58883891679338" lon="5.96011958735506"><ele>308.0</ele><time>2026-04-22T09:37:41.001Z</time></trkpt><trkpt lat="43.58896642658858" lon="5.960033021081493"><ele>308.0</ele><time>2026-04-22T09:37:42.001Z</time></trkpt><trkpt lat="43.58908928121584" lon="5.959934669717475"><ele>308.0</ele><time>2026-04-22T09:37:43.001Z</time></trkpt><trkpt lat="43.58920134613494" lon="5.959813587606908"><ele>308.0</ele><time>2026-04-22T09:37:44.001Z</time></trkpt><trkpt lat="43.589309585846244" lon="5.959671149991449"><ele>308.0</ele><time>2026-04-22T09:37:45.001Z</time></trkpt><trkpt lat="43.58941061643003" lon="5.959514457297063"><ele>307.6666666666667</ele><time>2026-04-22T09:37:46.001Z</time></trkpt><trkpt lat="43.589530507706996" lon="5.9593656108748725"><ele>307.3333333333333</ele><time>2026-04-22T09:37:47.001Z</time></trkpt><trkpt lat="43.589631210193154" lon="5.95919425888735"><ele>307.0</ele><time>2026-04-22T09:37:48.001Z</time></trkpt><trkpt lat="43.589748876264224" lon="5.95905026611931"><ele>307.0</ele><time>2026-04-22T09:37:49.001Z</time></trkpt><trkpt lat="43.589843450562654" lon="5.958919357924651"><ele>307.0</ele><time>2026-04-22T09:37:50.001Z</time></trkpt><trkpt lat="43.589942981044445" lon="5.958788628688798"><ele>307.0</ele><time>2026-04-22T09:37:51.001Z</time></trkpt><trkpt lat="43.59006349775352" lon="5.958662800526994"><ele>307.0</ele><time>2026-04-22T09:37:52.001Z</time></trkpt><trkpt lat="43.590184750780885" lon="5.958556255245692"><ele>308.66666666666663</ele><time>2026-04-22T09:37:53.001Z</time></trkpt><trkpt lat="43.590344944417474" lon="5.958505475539605"><ele>310.3333333333333</ele><time>2026-04-22T09:37:54.001Z</time></trkpt><trkpt lat="43.59049703237321" lon="5.958410381452716"><ele>312.0</ele><time>2026-04-22T09:37:55.001Z</time></trkpt><trkpt lat="43.590655174831824" lon="5.958328705679214"><ele>312.0</ele><time>2026-04-22T09:37:56.001Z</time></trkpt><trkpt lat="43.59080034801032" lon="5.958240992887672"><ele>312.0</ele><time>2026-04-22T09:37:57.001Z</time></trkpt><trkpt lat="43.59097700807707" lon="5.958123574188741"><ele>312.0</ele><time>2026-04-22T09:37:58.001Z</time></trkpt><trkpt lat="43.591150133375464" lon="5.958031811852319"><ele>309.0</ele><time>2026-04-22T09:37:59.001Z</time></trkpt><trkpt lat="43.59133137763492" lon="5.9579365054894655"><ele>306.0</ele><time>2026-04-22T09:38:00Z</time></trkpt><trkpt lat="43.59149824377796" lon="5.9578328212460745"><ele>303.0</ele><time>2026-04-22T09:38:01Z</time></trkpt><trkpt lat="43.59167894239772" lon="5.957727785340958"><ele>303.0</ele><time>2026-04-22T09:38:02Z</time></trkpt><trkpt lat="43.59186539900574" lon="5.957639856134402"><ele>303.0</ele><time>2026-04-22T09:38:03Z</time></trkpt><trkpt lat="43.59205495032849" lon="5.957556584298403"><ele>303.0</ele><time>2026-04-22T09:38:04Z</time></trkpt><trkpt lat="43.59224869475138" lon="5.95752148335785"><ele>305.3333333333333</ele><time>2026-04-22T09:38:05Z</time></trkpt><trkpt lat="43.592435526998095" lon="5.95746899227972"><ele>307.66666666666663</ele><time>2026-04-22T09:38:06Z</time></trkpt><trkpt lat="43.59262071278215" lon="5.957471744659529"><ele>310.0</ele><time>2026-04-22T09:38:07Z</time></trkpt><trkpt lat="43.592788241584856" lon="5.957445463085568"><ele>311.0</ele><time>2026-04-22T09:38:08Z</time></trkpt><trkpt lat="43.592951896929144" lon="5.957464844938365"><ele>312.0</ele><time>2026-04-22T09:38:09Z</time></trkpt><trkpt lat="43.593099323388" lon="5.957478859633003"><ele>313.0</ele><time>2026-04-22T09:38:10Z</time></trkpt><trkpt lat="43.59325220948778" lon="5.95751682140926"><ele>311.0</ele><time>2026-04-22T09:38:11Z</time></trkpt><trkpt lat="43.59341177877633" lon="5.9575775656508805"><ele>309.0</ele><time>2026-04-22T09:38:12Z</time></trkpt><trkpt lat="43.593562280799254" lon="5.957653906537341"><ele>307.0</ele><time>2026-04-22T09:38:13Z</time></trkpt><trkpt lat="43.593711802605334" lon="5.957755338713142"><ele>307.0</ele><time>2026-04-22T09:38:14Z</time></trkpt><trkpt lat="43.593845252334255" lon="5.957856118364076"><ele>307.0</ele><time>2026-04-22T09:38:15Z</time></trkpt><trkpt lat="43.59396093988299" lon="5.957957439236045"><ele>307.0</ele><time>2026-04-22T09:38:16Z</time></trkpt><trkpt lat="43.59407697058314" lon="5.958077958897814"><ele>307.0</ele><time>2026-04-22T09:38:17Z</time></trkpt><trkpt lat="43.594188927247565" lon="5.958217692530305"><ele>307.0</ele><time>2026-04-22T09:38:18Z</time></trkpt><trkpt lat="43.59430072782199" lon="5.958360982087434"><ele>307.0</ele><time>2026-04-22T09:38:19Z</time></trkpt><trkpt lat="43.59440489684051" lon="5.958500181875783"><ele>307.0</ele><time>2026-04-22T09:38:20Z</time></trkpt><trkpt lat="43.594505725287625" lon="5.9586401784504455"><ele>307.0</ele><time>2026-04-22T09:38:21Z</time></trkpt><trkpt lat="43.594600735184464" lon="5.958772839151118"><ele>307.6</ele><time>2026-04-22T09:38:22Z</time></trkpt><trkpt lat="43.59468574495856" lon="5.958900903377957"><ele>308.2</ele><time>2026-04-22T09:38:23Z</time></trkpt><trkpt lat="43.59478164637116" lon="5.958999881656669"><ele>308.8</ele><time>2026-04-22T09:38:24Z</time></trkpt><trkpt lat="43.59485404017422" lon="5.9590888454770665"><ele>309.4</ele><time>2026-04-22T09:38:25Z</time></trkpt><trkpt lat="43.59493874800409" lon="5.959144941441922"><ele>310.0</ele><time>2026-04-22T09:38:26Z</time></trkpt><trkpt lat="43.59504087886567" lon="5.959166259768548"><ele>310.0</ele><time>2026-04-22T09:38:27Z</time></trkpt><trkpt lat="43.59515061257892" lon="5.959140634569101"><ele>310.0</ele><time>2026-04-22T09:38:28Z</time></trkpt><trkpt lat="43.59526435031474" lon="5.95908202371995"><ele>310.0</ele><time>2026-04-22T09:38:29Z</time></trkpt><trkpt lat="43.59537158944852" lon="5.959024241700717"><ele>310.0</ele><time>2026-04-22T09:38:30Z</time></trkpt><trkpt lat="43.595489159115196" lon="5.958981144970978"><ele>311.75</ele><time>2026-04-22T09:38:31Z</time></trkpt><trkpt lat="43.59560207160595" lon="5.958987499112706"><ele>313.5</ele><time>2026-04-22T09:38:32Z</time></trkpt><trkpt lat="43.595716409277045" lon="5.9590173314127926"><ele>315.25</ele><time>2026-04-22T09:38:33Z</time></trkpt><trkpt lat="43.5958466741375" lon="5.959038557523855"><ele>317.0</ele><time>2026-04-22T09:38:34Z</time></trkpt><trkpt lat="43.59593495143138" lon="5.959021756676707"><ele>317.0</ele><time>2026-04-22T09:38:35Z</time></trkpt><trkpt lat="43.59602914275704" lon="5.958963741494964"><ele>317.0</ele><time>2026-04-22T09:38:36Z</time></trkpt><trkpt lat="43.59609530717795" lon="5.958840414553386"><ele>317.0</ele><time>2026-04-22T09:38:37Z</time></trkpt><trkpt lat="43.59612071596236" lon="5.958689682552009"><ele>317.0</ele><time>2026-04-22T09:38:38Z</time></trkpt><trkpt lat="43.596169052839166" lon="5.958522338880447"><ele>322.25</ele><time>2026-04-22T09:38:39Z</time></trkpt><trkpt lat="43.59619925980662" lon="5.9583794431815615"><ele>327.5</ele><time>2026-04-22T09:38:40Z</time></trkpt><trkpt lat="43.59625482546797" lon="5.95824139749698"><ele>332.75</ele><time>2026-04-22T09:38:41Z</time></trkpt><trkpt lat="43.59629356024475" lon="5.958071110564267"><ele>338.0</ele><time>2026-04-22T09:38:42Z</time></trkpt><trkpt lat="43.59633324251251" lon="5.957930393275481"><ele>338.0</ele><time>2026-04-22T09:38:43Z</time></trkpt><trkpt lat="43.5963716701732" lon="5.957795771276834"><ele>338.0</ele><time>2026-04-22T09:38:44Z</time></trkpt><trkpt lat="43.59642277272313" lon="5.957667019919404"><ele>338.0</ele><time>2026-04-22T09:38:45Z</time></trkpt><trkpt lat="43.596464140740125" lon="5.957537029188466"><ele>338.0</ele><time>2026-04-22T09:38:46Z</time></trkpt><trkpt lat="43.5965088842166" lon="5.957402122877944"><ele>338.0</ele><time>2026-04-22T09:38:47Z</time></trkpt><trkpt lat="43.59658621711324" lon="5.957265092623298"><ele>336.75</ele><time>2026-04-22T09:38:48Z</time></trkpt><trkpt lat="43.596676372854816" lon="5.957132861581091"><ele>335.5</ele><time>2026-04-22T09:38:49Z</time></trkpt><trkpt lat="43.59678569485823" lon="5.957022467977863"><ele>334.25</ele><time>2026-04-22T09:38:50Z</time></trkpt><trkpt lat="43.596907085175665" lon="5.9568746526489935"><ele>333.0</ele><time>2026-04-22T09:38:51Z</time></trkpt><trkpt lat="43.59701963536865" lon="5.956733465854022"><ele>334.5</ele><time>2026-04-22T09:38:52Z</time></trkpt><trkpt lat="43.59711745642849" lon="5.956596094144827"><ele>336.0</ele><time>2026-04-22T09:38:53Z</time></trkpt><trkpt lat="43.597199862388365" lon="5.956476575466645"><ele>337.5</ele><time>2026-04-22T09:38:54Z</time></trkpt><trkpt lat="43.597282383789505" lon="5.956368858868738"><ele>339.0</ele><time>2026-04-22T09:38:55Z</time></trkpt><trkpt lat="43.59737101325722" lon="5.956260995794229"><ele>339.0</ele><time>2026-04-22T09:38:56Z</time></trkpt><trkpt lat="43.597467634500944" lon="5.956137595279723"><ele>339.0</ele><time>2026-04-22T09:38:57Z</time></trkpt><trkpt lat="43.59756431760557" lon="5.956006883147681"><ele>339.0</ele><time>2026-04-22T09:38:58Z</time></trkpt><trkpt lat="43.59766377746339" lon="5.955866616644498"><ele>339.0</ele><time>2026-04-22T09:38:59Z</time></trkpt><trkpt lat="43.597760289800256" lon="5.95571909163118"><ele>338.5</ele><time>2026-04-22T09:39:00Z</time></trkpt><trkpt lat="43.59785411275813" lon="5.955564085037767"><ele>338.0</ele><time>2026-04-22T09:39:01Z</time></trkpt><trkpt lat="43.59793804990075" lon="5.955417026489343"><ele>337.5</ele><time>2026-04-22T09:39:02Z</time></trkpt><trkpt lat="43.59801438884641" lon="5.9552894973650075"><ele>337.0</ele><time>2026-04-22T09:39:03Z</time></trkpt><trkpt lat="43.59807612182" lon="5.955185453046369"><ele>337.0</ele><time>2026-04-22T09:39:04Z</time></trkpt><trkpt lat="43.59811863431178" lon="5.955104296326033"><ele>337.0</ele><time>2026-04-22T09:39:05Z</time></trkpt><trkpt lat="43.598177761420274" lon="5.954987410776577"><ele>337.0</ele><time>2026-04-22T09:39:07.001Z</time></trkpt><trkpt lat="43.598196622751246" lon="5.955119861225598"><ele>337.0</ele><time>2026-04-22T09:39:10.001Z</time></trkpt><trkpt lat="43.59816499927944" lon="5.955209152819083"><ele>337.0</ele><time>2026-04-22T09:39:11.001Z</time></trkpt><trkpt lat="43.598116904519344" lon="5.955330886248354"><ele>337.0</ele><time>2026-04-22T09:39:12.001Z</time></trkpt><trkpt lat="43.59805675556036" lon="5.955475791136057"><ele>337.0</ele><time>2026-04-22T09:39:13.001Z</time></trkpt><trkpt lat="43.598001227636175" lon="5.955655321564539"><ele>337.0</ele><time>2026-04-22T09:39:14.001Z</time></trkpt><trkpt lat="43.59793681183431" lon="5.955810785335984"><ele>337.0</ele><time>2026-04-22T09:39:15.001Z</time></trkpt><trkpt lat="43.597857130012926" lon="5.95597031037969"><ele>337.0</ele><time>2026-04-22T09:39:16.001Z</time></trkpt><trkpt lat="43.59778541487245" lon="5.956170878499887"><ele>337.5</ele><time>2026-04-22T09:39:17.001Z</time></trkpt><trkpt lat="43.59771181085341" lon="5.956338654510375"><ele>338.0</ele><time>2026-04-22T09:39:18.001Z</time></trkpt><trkpt lat="43.59764461440596" lon="5.956498850189178"><ele>338.5</ele><time>2026-04-22T09:39:19.001Z</time></trkpt><trkpt lat="43.59758881226251" lon="5.9566442150219"><ele>339.0</ele><time>2026-04-22T09:39:20.001Z</time></trkpt><trkpt lat="43.59752942115287" lon="5.956790927740744"><ele>341.25</ele><time>2026-04-22T09:39:21.001Z</time></trkpt><trkpt lat="43.597480367879335" lon="5.956948741708515"><ele>343.5</ele><time>2026-04-22T09:39:22.001Z</time></trkpt><trkpt lat="43.59746312710548" lon="5.957115443287666"><ele>345.75</ele><time>2026-04-22T09:39:23.001Z</time></trkpt><trkpt lat="43.59747009058632" lon="5.9572873567630795"><ele>348.0</ele><time>2026-04-22T09:39:24.001Z</time></trkpt><trkpt lat="43.59750931493647" lon="5.957443312326796"><ele>348.79999999999995</ele><time>2026-04-22T09:39:25.001Z</time></trkpt><trkpt lat="43.59758177870493" lon="5.95758018781874"><ele>349.6</ele><time>2026-04-22T09:39:26.001Z</time></trkpt><trkpt lat="43.59766312499341" lon="5.9576938482755155"><ele>350.4</ele><time>2026-04-22T09:39:27.001Z</time></trkpt><trkpt lat="43.59772920135059" lon="5.957781745880864"><ele>351.20000000000005</ele><time>2026-04-22T09:39:28.001Z</time></trkpt><trkpt lat="43.59777571794814" lon="5.957865753269886"><ele>352.0</ele><time>2026-04-22T09:39:29.001Z</time></trkpt><trkpt lat="43.59781630540727" lon="5.957939294476971"><ele>352.20000000000005</ele><time>2026-04-22T09:39:30.001Z</time></trkpt><trkpt lat="43.59786613387296" lon="5.95801695161572"><ele>352.4</ele><time>2026-04-22T09:39:32.001Z</time></trkpt><trkpt lat="43.59788520481457" lon="5.958100022014007"><ele>352.6</ele><time>2026-04-22T09:39:35.001Z</time></trkpt><trkpt lat="43.59787271163907" lon="5.958251544390973"><ele>352.79999999999995</ele><time>2026-04-22T09:39:37.001Z</time></trkpt><trkpt lat="43.597840673469115" lon="5.958363826289394"><ele>353.0</ele><time>2026-04-22T09:39:38.001Z</time></trkpt><trkpt lat="43.5978286106637" lon="5.958538552622021"><ele>353.1666666666667</ele><time>2026-04-22T09:39:40.001Z</time></trkpt><trkpt lat="43.5978122288303" lon="5.958652006373821"><ele>353.33333333333337</ele><time>2026-04-22T09:39:41.001Z</time></trkpt><trkpt lat="43.597798434190615" lon="5.958743971256316"><ele>353.5</ele><time>2026-04-22T09:39:42.001Z</time></trkpt><trkpt lat="43.597776128152056" lon="5.95887523619375"><ele>353.6666666666667</ele><time>2026-04-22T09:39:44.001Z</time></trkpt><trkpt lat="43.5977592787947" lon="5.958990968281202"><ele>353.8333333333333</ele><time>2026-04-22T09:39:46.001Z</time></trkpt><trkpt lat="43.59775434502778" lon="5.959090009119014"><ele>354.0</ele><time>2026-04-22T09:40:01.001Z</time></trkpt><trkpt lat="43.59771353675034" lon="5.959166773564528"><ele>354.1666666666667</ele><time>2026-04-22T09:40:02.001Z</time></trkpt><trkpt lat="43.597684526113" lon="5.959266554368813"><ele>354.3333333333333</ele><time>2026-04-22T09:40:03.001Z</time></trkpt><trkpt lat="43.59769767203382" lon="5.959424495850663"><ele>354.5</ele><time>2026-04-22T09:40:04.001Z</time></trkpt><trkpt lat="43.59770712977495" lon="5.959555566012283"><ele>354.66666666666663</ele><time>2026-04-22T09:40:05.001Z</time></trkpt><trkpt lat="43.59767085340511" lon="5.959643077761813"><ele>354.8333333333333</ele><time>2026-04-22T09:40:06Z</time></trkpt><trkpt lat="43.59763633099284" lon="5.959735627453699"><ele>355.0</ele><time>2026-04-22T09:40:07Z</time></trkpt><trkpt lat="43.597596699622436" lon="5.959829047884361"><ele>355.0</ele><time>2026-04-22T09:40:08Z</time></trkpt><trkpt lat="43.597551314412094" lon="5.959926925084663"><ele>355.0</ele><time>2026-04-22T09:40:09Z</time></trkpt><trkpt lat="43.59750584136361" lon="5.960023805667762"><ele>355.0</ele><time>2026-04-22T09:40:10Z</time></trkpt><trkpt lat="43.597462821574744" lon="5.960144890169963"><ele>355.0</ele><time>2026-04-22T09:40:11Z</time></trkpt><trkpt lat="43.597430070888414" lon="5.960232842836802"><ele>355.0</ele><time>2026-04-22T09:40:12Z</time></trkpt><trkpt lat="43.5974004328116" lon="5.960313298689087"><ele>355.0</ele><time>2026-04-22T09:40:13Z</time></trkpt><trkpt lat="43.59734357036632" lon="5.960531122801847"><ele>355.4</ele><time>2026-04-22T09:40:15Z</time></trkpt><trkpt lat="43.59732804149398" lon="5.960621194013312"><ele>355.8</ele><time>2026-04-22T09:40:16Z</time></trkpt><trkpt lat="43.59736565596316" lon="5.9607355356459655"><ele>356.20000000000005</ele><time>2026-04-22T09:40:17Z</time></trkpt><trkpt lat="43.59742487254666" lon="5.9609461864921345"><ele>356.6</ele><time>2026-04-22T09:40:19Z</time></trkpt><trkpt lat="43.59745182604762" lon="5.961060316005765"><ele>357.0</ele><time>2026-04-22T09:40:20Z</time></trkpt><trkpt lat="43.5974728085651" lon="5.961164854227028"><ele>357.0</ele><time>2026-04-22T09:40:21Z</time></trkpt><trkpt lat="43.59750716262665" lon="5.96133592342477"><ele>357.0</ele><time>2026-04-22T09:40:23Z</time></trkpt><trkpt lat="43.59744332775262" lon="5.961353643570799"><ele>357.0</ele><time>2026-04-22T09:40:24Z</time></trkpt><trkpt lat="43.597392747302656" lon="5.9614403876711615"><ele>357.0</ele><time>2026-04-22T09:40:25Z</time></trkpt><trkpt lat="43.59730128411429" lon="5.961567990399419"><ele>357.0</ele><time>2026-04-22T09:40:26Z</time></trkpt><trkpt lat="43.59721010205867" lon="5.9617105094921214"><ele>356.75</ele><time>2026-04-22T09:40:27Z</time></trkpt><trkpt lat="43.59715205185811" lon="5.961794803008495"><ele>356.5</ele><time>2026-04-22T09:40:28Z</time></trkpt><trkpt lat="43.59706743518197" lon="5.961909942524835"><ele>356.25</ele><time>2026-04-22T09:40:29Z</time></trkpt><trkpt lat="43.596988133570676" lon="5.9620414950601655"><ele>356.0</ele><time>2026-04-22T09:40:30Z</time></trkpt><trkpt lat="43.59689389936485" lon="5.962182813574944"><ele>356.0</ele><time>2026-04-22T09:40:31Z</time></trkpt><trkpt lat="43.596765705588865" lon="5.96229357810947"><ele>356.0</ele><time>2026-04-22T09:40:32Z</time></trkpt><trkpt lat="43.59666452384131" lon="5.962433663257491"><ele>356.0</ele><time>2026-04-22T09:40:33Z</time></trkpt><trkpt lat="43.596549759166656" lon="5.9625925539414695"><ele>360.33333333333337</ele><time>2026-04-22T09:40:34Z</time></trkpt><trkpt lat="43.59642153397731" lon="5.962770273315722"><ele>364.6666666666667</ele><time>2026-04-22T09:40:35Z</time></trkpt><trkpt lat="43.59629666533644" lon="5.96294494777454"><ele>369.0</ele><time>2026-04-22T09:40:36Z</time></trkpt><trkpt lat="43.5961876235914" lon="5.963129832442939"><ele>369.0</ele><time>2026-04-22T09:40:37Z</time></trkpt><trkpt lat="43.596045344497654" lon="5.963303193111158"><ele>369.0</ele><time>2026-04-22T09:40:38Z</time></trkpt><trkpt lat="43.59591683882174" lon="5.9634799727671375"><ele>369.0</ele><time>2026-04-22T09:40:39Z</time></trkpt><trkpt lat="43.59579454671931" lon="5.9636514096790965"><ele>369.0</ele><time>2026-04-22T09:40:40Z</time></trkpt><trkpt lat="43.595666928871196" lon="5.963830554021444"><ele>369.0</ele><time>2026-04-22T09:40:41Z</time></trkpt><trkpt lat="43.59554192289723" lon="5.963994819784295"><ele>369.0</ele><time>2026-04-22T09:40:42Z</time></trkpt><trkpt lat="43.59541975461275" lon="5.9641614103371055"><ele>368.6666666666667</ele><time>2026-04-22T09:40:43Z</time></trkpt><trkpt lat="43.5952917706583" lon="5.964328169800809"><ele>368.33333333333337</ele><time>2026-04-22T09:40:44Z</time></trkpt><trkpt lat="43.5951689863348" lon="5.964497754987292"><ele>368.0</ele><time>2026-04-22T09:40:45Z</time></trkpt><trkpt lat="43.595042414856344" lon="5.964656118377893"><ele>368.0</ele><time>2026-04-22T09:40:46Z</time></trkpt><trkpt lat="43.5949207454376" lon="5.964817187263452"><ele>368.0</ele><time>2026-04-22T09:40:47Z</time></trkpt><trkpt lat="43.59479810114677" lon="5.964984102070416"><ele>368.0</ele><time>2026-04-22T09:40:48Z</time></trkpt><trkpt lat="43.59468474853549" lon="5.965164736580456"><ele>368.0</ele><time>2026-04-22T09:40:49Z</time></trkpt><trkpt lat="43.59455935242144" lon="5.965335506192178"><ele>368.0</ele><time>2026-04-22T09:40:50Z</time></trkpt><trkpt lat="43.59442553523766" lon="5.965494269990276"><ele>368.0</ele><time>2026-04-22T09:40:51Z</time></trkpt><trkpt lat="43.594308122537576" lon="5.965683394614596"><ele>368.0</ele><time>2026-04-22T09:40:52Z</time></trkpt><trkpt lat="43.59418256819133" lon="5.965855567060519"><ele>368.0</ele><time>2026-04-22T09:40:53Z</time></trkpt><trkpt lat="43.59404684104467" lon="5.966009946029852"><ele>368.0</ele><time>2026-04-22T09:40:54Z</time></trkpt><trkpt lat="43.59392025471031" lon="5.966182338700972"><ele>367.0</ele><time>2026-04-22T09:40:55Z</time></trkpt><trkpt lat="43.59380426090369" lon="5.966340305791565"><ele>366.0</ele><time>2026-04-22T09:40:56Z</time></trkpt><trkpt lat="43.59368594638265" lon="5.966501352398657"><ele>365.0</ele><time>2026-04-22T09:40:57Z</time></trkpt><trkpt lat="43.59356731582936" lon="5.966661509269366"><ele>369.33333333333337</ele><time>2026-04-22T09:40:58Z</time></trkpt><trkpt lat="43.59344943623161" lon="5.966820652355794"><ele>373.6666666666667</ele><time>2026-04-22T09:40:59Z</time></trkpt><trkpt lat="43.593341294701226" lon="5.9669632102012535"><ele>378.0</ele><time>2026-04-22T09:41:00Z</time></trkpt><trkpt lat="43.59322923280485" lon="5.967098827712786"><ele>378.0</ele><time>2026-04-22T09:41:01Z</time></trkpt><trkpt lat="43.59314693025677" lon="5.967241622326736"><ele>378.0</ele><time>2026-04-22T09:41:02Z</time></trkpt><trkpt lat="43.59306392350377" lon="5.967391961083772"><ele>378.0</ele><time>2026-04-22T09:41:03Z</time></trkpt><trkpt lat="43.59299575190848" lon="5.9675831788847296"><ele>378.0</ele><time>2026-04-22T09:41:04Z</time></trkpt><trkpt lat="43.59294648727984" lon="5.967808409821828"><ele>381.33333333333337</ele><time>2026-04-22T09:41:05Z</time></trkpt><trkpt lat="43.59288328027223" lon="5.968021500457776"><ele>384.6666666666667</ele><time>2026-04-22T09:41:06Z</time></trkpt><trkpt lat="43.59282494159253" lon="5.968247447605226"><ele>388.0</ele><time>2026-04-22T09:41:07.001Z</time></trkpt><trkpt lat="43.59273275179713" lon="5.968439806926803"><ele>380.0</ele><time>2026-04-22T09:41:08.001Z</time></trkpt><trkpt lat="43.59265639784695" lon="5.96863124501155"><ele>372.0</ele><time>2026-04-22T09:41:09.001Z</time></trkpt><trkpt lat="43.59258088272301" lon="5.9688205014730285"><ele>364.0</ele><time>2026-04-22T09:41:10.001Z</time></trkpt><trkpt lat="43.5925055775732" lon="5.96900918671227"><ele>366.0</ele><time>2026-04-22T09:41:11.001Z</time></trkpt><trkpt lat="43.59244839582625" lon="5.969204121547038"><ele>368.0</ele><time>2026-04-22T09:41:12.001Z</time></trkpt><trkpt lat="43.592403159175596" lon="5.969365408677573"><ele>370.0</ele><time>2026-04-22T09:41:13.001Z</time></trkpt><trkpt lat="43.59238208559572" lon="5.969525292001336"><ele>372.0</ele><time>2026-04-22T09:41:14.001Z</time></trkpt><trkpt lat="43.59241316924539" lon="5.969712535324447"><ele>372.0</ele><time>2026-04-22T09:41:15.001Z</time></trkpt><trkpt lat="43.59245404071513" lon="5.969903929509359"><ele>372.0</ele><time>2026-04-22T09:41:16.001Z</time></trkpt><trkpt lat="43.59251835338878" lon="5.970110866517762"><ele>372.0</ele><time>2026-04-22T09:41:17.001Z</time></trkpt><trkpt lat="43.59257978046978" lon="5.970311354572566"><ele>371.6666666666667</ele><time>2026-04-22T09:41:18.001Z</time></trkpt><trkpt lat="43.59262738484868" lon="5.9705188618838285"><ele>371.33333333333337</ele><time>2026-04-22T09:41:19.001Z</time></trkpt><trkpt lat="43.59264802491331" lon="5.970743141791283"><ele>371.0</ele><time>2026-04-22T09:41:20.001Z</time></trkpt><trkpt lat="43.59266254572467" lon="5.9709467316258085"><ele>370.5</ele><time>2026-04-22T09:41:21.001Z</time></trkpt><trkpt lat="43.592662846217344" lon="5.971143329508166"><ele>370.0</ele><time>2026-04-22T09:41:22.001Z</time></trkpt><trkpt lat="43.592613116424744" lon="5.97131856483293"><ele>369.5</ele><time>2026-04-22T09:41:23.001Z</time></trkpt><trkpt lat="43.5925351581036" lon="5.971463276085219"><ele>369.0</ele><time>2026-04-22T09:41:24.001Z</time></trkpt><trkpt lat="43.592447845732984" lon="5.971610323773699"><ele>372.0</ele><time>2026-04-22T09:41:25.001Z</time></trkpt><trkpt lat="43.59236119566213" lon="5.971782158772806"><ele>375.0</ele><time>2026-04-22T09:41:26.001Z</time></trkpt><trkpt lat="43.59225892688093" lon="5.9719496079249"><ele>378.0</ele><time>2026-04-22T09:41:27.001Z</time></trkpt><trkpt lat="43.592162410700325" lon="5.972117412729378"><ele>378.0</ele><time>2026-04-22T09:41:28.001Z</time></trkpt><trkpt lat="43.59209332355172" lon="5.972292752986119"><ele>378.0</ele><time>2026-04-22T09:41:29.001Z</time></trkpt><trkpt lat="43.59200998491209" lon="5.9724585292018055"><ele>378.0</ele><time>2026-04-22T09:41:30.001Z</time></trkpt><trkpt lat="43.59194519165042" lon="5.9726323629137426"><ele>378.0</ele><time>2026-04-22T09:41:31.001Z</time></trkpt><trkpt lat="43.59191327015286" lon="5.9728173581657815"><ele>377.0</ele><time>2026-04-22T09:41:32.001Z</time></trkpt><trkpt lat="43.59189813588571" lon="5.973015170443991"><ele>376.0</ele><time>2026-04-22T09:41:33.001Z</time></trkpt><trkpt lat="43.5918919450301" lon="5.973223081624996"><ele>375.0</ele><time>2026-04-22T09:41:34.001Z</time></trkpt><trkpt lat="43.591878517659175" lon="5.973439256993159"><ele>375.0</ele><time>2026-04-22T09:41:35.001Z</time></trkpt><trkpt lat="43.59186638195522" lon="5.97366187079585"><ele>375.0</ele><time>2026-04-22T09:41:36.001Z</time></trkpt><trkpt lat="43.59184973013341" lon="5.973882833026814"><ele>375.0</ele><time>2026-04-22T09:41:37.001Z</time></trkpt><trkpt lat="43.59183954430666" lon="5.974085183655247"><ele>375.25</ele><time>2026-04-22T09:41:38.001Z</time></trkpt><trkpt lat="43.59183466726973" lon="5.97424851949761"><ele>375.5</ele><time>2026-04-22T09:41:39.001Z</time></trkpt><trkpt lat="43.591859345392756" lon="5.974408957930009"><ele>375.75</ele><time>2026-04-22T09:41:40.001Z</time></trkpt><trkpt lat="43.59191678724553" lon="5.974549587184199"><ele>376.0</ele><time>2026-04-22T09:41:41.001Z</time></trkpt><trkpt lat="43.591991964673596" lon="5.974681833211113"><ele>377.25</ele><time>2026-04-22T09:41:42.001Z</time></trkpt><trkpt lat="43.59205169884588" lon="5.974810903733678"><ele>378.5</ele><time>2026-04-22T09:41:43.001Z</time></trkpt><trkpt lat="43.59207149098428" lon="5.97496350038861"><ele>379.75</ele><time>2026-04-22T09:41:44.001Z</time></trkpt><trkpt lat="43.592010911877104" lon="5.975108763133175"><ele>381.0</ele><time>2026-04-22T09:41:45.001Z</time></trkpt><trkpt lat="43.59195060049778" lon="5.975237047217243"><ele>381.0</ele><time>2026-04-22T09:41:46.001Z</time></trkpt><trkpt lat="43.5918698234229" lon="5.975334509725055"><ele>381.0</ele><time>2026-04-22T09:41:47.001Z</time></trkpt><trkpt lat="43.59179394026271" lon="5.975465993185694"><ele>381.0</ele><time>2026-04-22T09:41:48.001Z</time></trkpt><trkpt lat="43.59172638905614" lon="5.975598209504846"><ele>381.0</ele><time>2026-04-22T09:41:49.001Z</time></trkpt><trkpt lat="43.5917150899561" lon="5.975763332395219"><ele>379.75</ele><time>2026-04-22T09:41:50.001Z</time></trkpt><trkpt lat="43.59177037957116" lon="5.975924238289278"><ele>378.5</ele><time>2026-04-22T09:41:51.001Z</time></trkpt><trkpt lat="43.59186441879418" lon="5.976055683262253"><ele>377.25</ele><time>2026-04-22T09:41:52.001Z</time></trkpt><trkpt lat="43.59195308470587" lon="5.976212186446717"><ele>376.0</ele><time>2026-04-22T09:41:53.001Z</time></trkpt><trkpt lat="43.59204917285918" lon="5.976380295273132"><ele>380.0</ele><time>2026-04-22T09:41:54.001Z</time></trkpt><trkpt lat="43.592153603072155" lon="5.976562998532102"><ele>384.0</ele><time>2026-04-22T09:41:55.001Z</time></trkpt><trkpt lat="43.59227243332041" lon="5.976738743915128"><ele>388.0</ele><time>2026-04-22T09:41:56.001Z</time></trkpt><trkpt lat="43.59235894103973" lon="5.976913120539917"><ele>388.0</ele><time>2026-04-22T09:41:57.001Z</time></trkpt><trkpt lat="43.592450723505095" lon="5.977050215050824"><ele>388.0</ele><time>2026-04-22T09:41:58.001Z</time></trkpt><trkpt lat="43.592557200801124" lon="5.977163310516616"><ele>388.0</ele><time>2026-04-22T09:41:59.001Z</time></trkpt><trkpt lat="43.59268595252558" lon="5.977245046434176"><ele>388.0</ele><time>2026-04-22T09:42:00.001Z</time></trkpt><trkpt lat="43.592834886113586" lon="5.9772857948831835"><ele>391.6666666666667</ele><time>2026-04-22T09:42:01.001Z</time></trkpt><trkpt lat="43.593013411088016" lon="5.977298846207575"><ele>395.33333333333337</ele><time>2026-04-22T09:42:02.001Z</time></trkpt><trkpt lat="43.59318144656491" lon="5.9773370470785325"><ele>399.0</ele><time>2026-04-22T09:42:03.001Z</time></trkpt><trkpt lat="43.59333101142757" lon="5.97742687315411"><ele>397.66666666666663</ele><time>2026-04-22T09:42:04.001Z</time></trkpt><trkpt lat="43.59346652339321" lon="5.977531745595957"><ele>396.3333333333333</ele><time>2026-04-22T09:42:05.001Z</time></trkpt><trkpt lat="43.59360316612427" lon="5.9776837913124545"><ele>395.0</ele><time>2026-04-22T09:42:06.001Z</time></trkpt><trkpt lat="43.5937102302128" lon="5.977814008227563"><ele>398.0</ele><time>2026-04-22T09:42:07.001Z</time></trkpt><trkpt lat="43.593817909439885" lon="5.97796964279275"><ele>401.0</ele><time>2026-04-22T09:42:08.001Z</time></trkpt><trkpt lat="43.59392504123136" lon="5.978139272372126"><ele>404.0</ele><time>2026-04-22T09:42:09.001Z</time></trkpt><trkpt lat="43.594033724031796" lon="5.978323601105202"><ele>401.66666666666663</ele><time>2026-04-22T09:42:10.001Z</time></trkpt><trkpt lat="43.594149123181005" lon="5.978522404282315"><ele>399.33333333333337</ele><time>2026-04-22T09:42:11.001Z</time></trkpt><trkpt lat="43.59424716952855" lon="5.978731939658755"><ele>397.0</ele><time>2026-04-22T09:42:12Z</time></trkpt><trkpt lat="43.59433085538779" lon="5.978961224860122"><ele>396.33333333333337</ele><time>2026-04-22T09:42:13Z</time></trkpt><trkpt lat="43.594402524324174" lon="5.97919614930328"><ele>395.66666666666663</ele><time>2026-04-22T09:42:14Z</time></trkpt><trkpt lat="43.59445991800545" lon="5.979432357358666"><ele>395.0</ele><time>2026-04-22T09:42:15Z</time></trkpt><trkpt lat="43.594520570002935" lon="5.979653767545735"><ele>395.3333333333333</ele><time>2026-04-22T09:42:16Z</time></trkpt><trkpt lat="43.59455978480097" lon="5.9798660915455795"><ele>395.66666666666663</ele><time>2026-04-22T09:42:17Z</time></trkpt><trkpt lat="43.59461816485355" lon="5.980068144380618"><ele>396.0</ele><time>2026-04-22T09:42:18Z</time></trkpt><trkpt lat="43.594708590205414" lon="5.98025993291701"><ele>396.0</ele><time>2026-04-22T09:42:19Z</time></trkpt><trkpt lat="43.59483347369303" lon="5.980435711459613"><ele>396.0</ele><time>2026-04-22T09:42:20Z</time></trkpt><trkpt lat="43.59496578111701" lon="5.980592104384542"><ele>396.0</ele><time>2026-04-22T09:42:21Z</time></trkpt><trkpt lat="43.59512138770684" lon="5.98072081371073"><ele>396.0</ele><time>2026-04-22T09:42:22Z</time></trkpt><trkpt lat="43.59528653884601" lon="5.980810766970803"><ele>396.0</ele><time>2026-04-22T09:42:23Z</time></trkpt><trkpt lat="43.595473163984416" lon="5.980856704719307"><ele>396.0</ele><time>2026-04-22T09:42:24Z</time></trkpt><trkpt lat="43.59565094105387" lon="5.980900944356931"><ele>397.0</ele><time>2026-04-22T09:42:25Z</time></trkpt><trkpt lat="43.59582247020154" lon="5.9809543080564795"><ele>398.0</ele><time>2026-04-22T09:42:26Z</time></trkpt><trkpt lat="43.59598155406293" lon="5.981017525335118"><ele>399.0</ele><time>2026-04-22T09:42:27Z</time></trkpt><trkpt lat="43.59612266601918" lon="5.98107601600364"><ele>400.75</ele><time>2026-04-22T09:42:28Z</time></trkpt><trkpt lat="43.59624077750936" lon="5.981170287417907"><ele>402.5</ele><time>2026-04-22T09:42:29Z</time></trkpt><trkpt lat="43.59635017496645" lon="5.981263534902998"><ele>404.25</ele><time>2026-04-22T09:42:30Z</time></trkpt><trkpt lat="43.5964383181752" lon="5.981386387399702"><ele>406.0</ele><time>2026-04-22T09:42:31Z</time></trkpt><trkpt lat="43.59651578001374" lon="5.981542702163458"><ele>405.25</ele><time>2026-04-22T09:42:32Z</time></trkpt><trkpt lat="43.596550484336156" lon="5.981724902596224"><ele>404.5</ele><time>2026-04-22T09:42:33Z</time></trkpt><trkpt lat="43.59659167945911" lon="5.981920680949622"><ele>403.75</ele><time>2026-04-22T09:42:34Z</time></trkpt><trkpt lat="43.596630775052226" lon="5.982123046352516"><ele>403.0</ele><time>2026-04-22T09:42:35Z</time></trkpt><trkpt lat="43.59666759202393" lon="5.9823441512445505"><ele>402.0</ele><time>2026-04-22T09:42:36Z</time></trkpt><trkpt lat="43.596718866453465" lon="5.982552897573459"><ele>401.0</ele><time>2026-04-22T09:42:37Z</time></trkpt><trkpt lat="43.59676427540935" lon="5.982770752667999"><ele>400.0</ele><time>2026-04-22T09:42:38Z</time></trkpt><trkpt lat="43.596806622107536" lon="5.983009130905695"><ele>400.0</ele><time>2026-04-22T09:42:39Z</time></trkpt><trkpt lat="43.596858720285546" lon="5.983265615789228"><ele>400.0</ele><time>2026-04-22T09:42:40Z</time></trkpt><trkpt lat="43.596907973853746" lon="5.983513476470331"><ele>400.0</ele><time>2026-04-22T09:42:41Z</time></trkpt><trkpt lat="43.59695474714045" lon="5.983746678274282"><ele>398.0</ele><time>2026-04-22T09:42:42Z</time></trkpt><trkpt lat="43.59700602207776" lon="5.983973275821009"><ele>396.0</ele><time>2026-04-22T09:42:43Z</time></trkpt><trkpt lat="43.59705527399218" lon="5.9841999363616845"><ele>394.0</ele><time>2026-04-22T09:42:44Z</time></trkpt><trkpt lat="43.597099818888566" lon="5.984428706461715"><ele>393.6666666666667</ele><time>2026-04-22T09:42:45Z</time></trkpt><trkpt lat="43.59714200297112" lon="5.984635708928572"><ele>393.33333333333337</ele><time>2026-04-22T09:42:46Z</time></trkpt><trkpt lat="43.59718620059987" lon="5.98485462687817"><ele>393.0</ele><time>2026-04-22T09:42:47Z</time></trkpt><trkpt lat="43.59722065671765" lon="5.98503850865301"><ele>392.5</ele><time>2026-04-22T09:42:48Z</time></trkpt><trkpt lat="43.59724675213581" lon="5.985213213593372"><ele>392.0</ele><time>2026-04-22T09:42:49Z</time></trkpt><trkpt lat="43.59725145558992" lon="5.9853824072969495"><ele>391.5</ele><time>2026-04-22T09:42:50Z</time></trkpt><trkpt lat="43.59721669937829" lon="5.985554118596468"><ele>391.0</ele><time>2026-04-22T09:42:51Z</time></trkpt><trkpt lat="43.59715487305306" lon="5.9857378493829385"><ele>389.6666666666667</ele><time>2026-04-22T09:42:52Z</time></trkpt><trkpt lat="43.597080210988935" lon="5.985904370567594"><ele>388.33333333333337</ele><time>2026-04-22T09:42:53Z</time></trkpt><trkpt lat="43.59698763970894" lon="5.986097232857345"><ele>387.0</ele><time>2026-04-22T09:42:54Z</time></trkpt><trkpt lat="43.59687166928168" lon="5.986271165126843"><ele>387.0</ele><time>2026-04-22T09:42:55Z</time></trkpt><trkpt lat="43.59675206670075" lon="5.986444881226647"><ele>387.0</ele><time>2026-04-22T09:42:56Z</time></trkpt><trkpt lat="43.59662987109763" lon="5.986639727616401"><ele>387.0</ele><time>2026-04-22T09:42:57Z</time></trkpt><trkpt lat="43.59650939248933" lon="5.986843553714463"><ele>387.0</ele><time>2026-04-22T09:42:58Z</time></trkpt><trkpt lat="43.59637155198594" lon="5.987034551764099"><ele>387.0</ele><time>2026-04-22T09:42:59Z</time></trkpt><trkpt lat="43.59623741654106" lon="5.987230319176783"><ele>387.0</ele><time>2026-04-22T09:43:00Z</time></trkpt><trkpt lat="43.596119322689866" lon="5.987428437906766"><ele>385.3333333333333</ele><time>2026-04-22T09:43:01Z</time></trkpt><trkpt lat="43.595996713401135" lon="5.987609231892521"><ele>383.66666666666663</ele><time>2026-04-22T09:43:02Z</time></trkpt><trkpt lat="43.59587780585061" lon="5.987789427364404"><ele>382.0</ele><time>2026-04-22T09:43:03Z</time></trkpt><trkpt lat="43.59576806061093" lon="5.987962056566358"><ele>382.0</ele><time>2026-04-22T09:43:04Z</time></trkpt><trkpt lat="43.59566963390443" lon="5.988121755415749"><ele>382.0</ele><time>2026-04-22T09:43:05Z</time></trkpt><trkpt lat="43.59557224488647" lon="5.98827038725656"><ele>382.0</ele><time>2026-04-22T09:43:06Z</time></trkpt><trkpt lat="43.59547868662862" lon="5.988407782202596"><ele>382.0</ele><time>2026-04-22T09:43:07Z</time></trkpt><trkpt lat="43.59541076701876" lon="5.988539106019556"><ele>381.5</ele><time>2026-04-22T09:43:08Z</time></trkpt><trkpt lat="43.5953539699772" lon="5.988677343813181"><ele>381.0</ele><time>2026-04-22T09:43:09Z</time></trkpt><trkpt lat="43.59534187435702" lon="5.988834434198555"><ele>380.5</ele><time>2026-04-22T09:43:10Z</time></trkpt><trkpt lat="43.59539321508769" lon="5.988983095489715"><ele>380.0</ele><time>2026-04-22T09:43:11Z</time></trkpt><trkpt lat="43.595484923122214" lon="5.9891005290337205"><ele>379.5</ele><time>2026-04-22T09:43:12Z</time></trkpt><trkpt lat="43.595591983136515" lon="5.989183849649791"><ele>379.0</ele><time>2026-04-22T09:43:13Z</time></trkpt><trkpt lat="43.59573026666959" lon="5.989274705059097"><ele>378.5</ele><time>2026-04-22T09:43:14Z</time></trkpt><trkpt lat="43.59585619244703" lon="5.989406002004885"><ele>378.0</ele><time>2026-04-22T09:43:15.001Z</time></trkpt><trkpt lat="43.59599253803629" lon="5.989520395618187"><ele>378.0</ele><time>2026-04-22T09:43:16.001Z</time></trkpt><trkpt lat="43.59612926261124" lon="5.98964106285233"><ele>378.0</ele><time>2026-04-22T09:43:17.001Z</time></trkpt><trkpt lat="43.596256601093586" lon="5.9897506439208374"><ele>378.0</ele><time>2026-04-22T09:43:18.001Z</time></trkpt><trkpt lat="43.596384424488264" lon="5.989863495189314"><ele>377.5</ele><time>2026-04-22T09:43:19.001Z</time></trkpt><trkpt lat="43.59649889485309" lon="5.989972354189873"><ele>377.0</ele><time>2026-04-22T09:43:20.001Z</time></trkpt><trkpt lat="43.596581326725605" lon="5.990115668408245"><ele>376.5</ele><time>2026-04-22T09:43:21.001Z</time></trkpt><trkpt lat="43.59663285215966" lon="5.990269161205733"><ele>376.0</ele><time>2026-04-22T09:43:22.001Z</time></trkpt><trkpt lat="43.596660966635135" lon="5.990459088677737"><ele>376.0</ele><time>2026-04-22T09:43:23.001Z</time></trkpt><trkpt lat="43.596675235938214" lon="5.99065785481547"><ele>376.0</ele><time>2026-04-22T09:43:24.001Z</time></trkpt><trkpt lat="43.59668001286023" lon="5.990868635729529"><ele>376.0</ele><time>2026-04-22T09:43:25.001Z</time></trkpt><trkpt lat="43.59668125866757" lon="5.991101400663185"><ele>374.3333333333333</ele><time>2026-04-22T09:43:26.001Z</time></trkpt><trkpt lat="43.59662999750449" lon="5.991328351704807"><ele>372.6666666666667</ele><time>2026-04-22T09:43:27.001Z</time></trkpt><trkpt lat="43.596593958352166" lon="5.9915803679545805"><ele>371.0</ele><time>2026-04-22T09:43:28.001Z</time></trkpt><trkpt lat="43.59653425276588" lon="5.991834795432416"><ele>370.33333333333337</ele><time>2026-04-22T09:43:29.001Z</time></trkpt><trkpt lat="43.59647355424566" lon="5.992091808770799"><ele>369.6666666666667</ele><time>2026-04-22T09:43:30.001Z</time></trkpt><trkpt lat="43.59641592571595" lon="5.9923496579989814"><ele>369.0</ele><time>2026-04-22T09:43:31.001Z</time></trkpt><trkpt lat="43.59635576514676" lon="5.9926070727445975"><ele>369.0</ele><time>2026-04-22T09:43:32.001Z</time></trkpt><trkpt lat="43.59630205485243" lon="5.9928661819578455"><ele>369.0</ele><time>2026-04-22T09:43:33.001Z</time></trkpt><trkpt lat="43.59624140127284" lon="5.993133531694611"><ele>369.0</ele><time>2026-04-22T09:43:34.001Z</time></trkpt><trkpt lat="43.596176415219574" lon="5.993407876746833"><ele>368.3333333333333</ele><time>2026-04-22T09:43:35.001Z</time></trkpt><trkpt lat="43.59611922954827" lon="5.993690027338336"><ele>367.66666666666663</ele><time>2026-04-22T09:43:36.001Z</time></trkpt><trkpt lat="43.59606018000493" lon="5.993972962031878"><ele>367.0</ele><time>2026-04-22T09:43:37.001Z</time></trkpt><trkpt lat="43.595998156391616" lon="5.994240164048495"><ele>367.0</ele><time>2026-04-22T09:43:38.001Z</time></trkpt><trkpt lat="43.59594194612654" lon="5.9944969581230305"><ele>367.0</ele><time>2026-04-22T09:43:39.001Z</time></trkpt><trkpt lat="43.59588718148468" lon="5.99473570227082"><ele>367.0</ele><time>2026-04-22T09:43:40.001Z</time></trkpt><trkpt lat="43.5958397950283" lon="5.994968893443637"><ele>367.0</ele><time>2026-04-22T09:43:41.001Z</time></trkpt><trkpt lat="43.595794552373555" lon="5.995200715972709"><ele>367.0</ele><time>2026-04-22T09:43:42.001Z</time></trkpt><trkpt lat="43.595734721751555" lon="5.995443424773302"><ele>367.0</ele><time>2026-04-22T09:43:43.001Z</time></trkpt><trkpt lat="43.59568116808095" lon="5.995680548670304"><ele>367.0</ele><time>2026-04-22T09:43:44.001Z</time></trkpt><trkpt lat="43.595615843423396" lon="5.995925962851182"><ele>367.0</ele><time>2026-04-22T09:43:45.001Z</time></trkpt><trkpt lat="43.59553629894958" lon="5.99615913011293"><ele>367.0</ele><time>2026-04-22T09:43:46.001Z</time></trkpt><trkpt lat="43.59545030936117" lon="5.996400756797123"><ele>367.0</ele><time>2026-04-22T09:43:47.001Z</time></trkpt><trkpt lat="43.5953507296249" lon="5.996639219725742"><ele>367.0</ele><time>2026-04-22T09:43:48.001Z</time></trkpt><trkpt lat="43.5952422364821" lon="5.996884813802943"><ele>367.0</ele><time>2026-04-22T09:43:49.001Z</time></trkpt><trkpt lat="43.595123928536765" lon="5.997150265508574"><ele>366.0</ele><time>2026-04-22T09:43:50.001Z</time></trkpt><trkpt lat="43.595004369085046" lon="5.997418316553582"><ele>365.0</ele><time>2026-04-22T09:43:51.001Z</time></trkpt><trkpt lat="43.594878465517645" lon="5.997684673963862"><ele>364.33333333333337</ele><time>2026-04-22T09:43:52.001Z</time></trkpt><trkpt lat="43.594756828782" lon="5.99794493415276"><ele>363.6666666666667</ele><time>2026-04-22T09:43:53.001Z</time></trkpt><trkpt lat="43.594638523545164" lon="5.998205801898641"><ele>363.0</ele><time>2026-04-22T09:43:54.001Z</time></trkpt><trkpt lat="43.594522468210286" lon="5.998459300626509"><ele>362.0</ele><time>2026-04-22T09:43:55.001Z</time></trkpt><trkpt lat="43.59441446804493" lon="5.998715345847375"><ele>361.0</ele><time>2026-04-22T09:43:56.001Z</time></trkpt><trkpt lat="43.59429867504016" lon="5.998960807784042"><ele>360.0</ele><time>2026-04-22T09:43:57.001Z</time></trkpt><trkpt lat="43.5941794237292" lon="5.999203103290502"><ele>360.0</ele><time>2026-04-22T09:43:58.001Z</time></trkpt><trkpt lat="43.594063435851986" lon="5.999433347901585"><ele>360.0</ele><time>2026-04-22T09:43:59.001Z</time></trkpt><trkpt lat="43.593957912834036" lon="5.999653845876215"><ele>360.0</ele><time>2026-04-22T09:44:00.001Z</time></trkpt><trkpt lat="43.593867580147176" lon="5.9998696801635925"><ele>360.0</ele><time>2026-04-22T09:44:01.001Z</time></trkpt><trkpt lat="43.59380311006409" lon="6.0000882267588205"><ele>360.0</ele><time>2026-04-22T09:44:02.001Z</time></trkpt><trkpt lat="43.59377222189423" lon="6.000317507359458"><ele>360.0</ele><time>2026-04-22T09:44:03.001Z</time></trkpt><trkpt lat="43.593767055105815" lon="6.000554311508429"><ele>360.0</ele><time>2026-04-22T09:44:04.001Z</time></trkpt><trkpt lat="43.59377375749267" lon="6.000808426963113"><ele>360.0</ele><time>2026-04-22T09:44:05.001Z</time></trkpt><trkpt lat="43.59379304097004" lon="6.001073438827817"><ele>360.0</ele><time>2026-04-22T09:44:06.001Z</time></trkpt><trkpt lat="43.593815576255246" lon="6.001347308360702"><ele>359.3333333333333</ele><time>2026-04-22T09:44:07.001Z</time></trkpt><trkpt lat="43.59385736666443" lon="6.001632539611506"><ele>358.66666666666663</ele><time>2026-04-22T09:44:08.001Z</time></trkpt><trkpt lat="43.59392759069865" lon="6.001914784215902"><ele>358.0</ele><time>2026-04-22T09:44:09.001Z</time></trkpt><trkpt lat="43.59401128162642" lon="6.002190369477833"><ele>357.66666666666663</ele><time>2026-04-22T09:44:10.001Z</time></trkpt><trkpt lat="43.59410723615993" lon="6.002450103081245"><ele>357.3333333333333</ele><time>2026-04-22T09:44:11.001Z</time></trkpt><trkpt lat="43.59419646765708" lon="6.002697374283805"><ele>357.0</ele><time>2026-04-22T09:44:12.001Z</time></trkpt><trkpt lat="43.59427208177586" lon="6.002941246230566"><ele>356.0</ele><time>2026-04-22T09:44:13.001Z</time></trkpt><trkpt lat="43.59433720599025" lon="6.00318978370874"><ele>355.0</ele><time>2026-04-22T09:44:14.001Z</time></trkpt><trkpt lat="43.59438734642634" lon="6.003454645851951"><ele>354.0</ele><time>2026-04-22T09:44:15.001Z</time></trkpt><trkpt lat="43.59442230291113" lon="6.003727559710944"><ele>353.6666666666667</ele><time>2026-04-22T09:44:16.001Z</time></trkpt><trkpt lat="43.59444220350608" lon="6.004004577947963"><ele>353.33333333333337</ele><time>2026-04-22T09:44:17.001Z</time></trkpt><trkpt lat="43.594446681296375" lon="6.004283984934239"><ele>353.0</ele><time>2026-04-22T09:44:18Z</time></trkpt><trkpt lat="43.594425621162564" lon="6.004568025213038"><ele>352.33333333333337</ele><time>2026-04-22T09:44:19Z</time></trkpt><trkpt lat="43.59437974918549" lon="6.004844399554031"><ele>351.6666666666667</ele><time>2026-04-22T09:44:20Z</time></trkpt><trkpt lat="43.59432518149796" lon="6.005120659459614"><ele>351.0</ele><time>2026-04-22T09:44:21Z</time></trkpt><trkpt lat="43.594273468199965" lon="6.00540482002969"><ele>350.6666666666667</ele><time>2026-04-22T09:44:22Z</time></trkpt><trkpt lat="43.59422170819993" lon="6.005693543038337"><ele>350.33333333333337</ele><time>2026-04-22T09:44:23Z</time></trkpt><trkpt lat="43.59417090382569" lon="6.0059871528115"><ele>350.0</ele><time>2026-04-22T09:44:24Z</time></trkpt><trkpt lat="43.5941146888054" lon="6.006280669442239"><ele>349.6666666666667</ele><time>2026-04-22T09:44:25Z</time></trkpt><trkpt lat="43.59406265950555" lon="6.006571665381278"><ele>349.3333333333333</ele><time>2026-04-22T09:44:26Z</time></trkpt><trkpt lat="43.594013394205376" lon="6.006870372997969"><ele>349.0</ele><time>2026-04-22T09:44:27Z</time></trkpt><trkpt lat="43.59395859739686" lon="6.007163773957511"><ele>349.0</ele><time>2026-04-22T09:44:28Z</time></trkpt><trkpt lat="43.59390588462242" lon="6.007473672451655"><ele>349.0</ele><time>2026-04-22T09:44:29Z</time></trkpt><trkpt lat="43.59384680452727" lon="6.007782069421316"><ele>348.66666666666663</ele><time>2026-04-22T09:44:30Z</time></trkpt><trkpt lat="43.593786367104734" lon="6.008074196816685"><ele>348.3333333333333</ele><time>2026-04-22T09:44:31Z</time></trkpt><trkpt lat="43.59373218258379" lon="6.0083678960885445"><ele>348.0</ele><time>2026-04-22T09:44:32Z</time></trkpt><trkpt lat="43.593677056658535" lon="6.008663643959916"><ele>348.3333333333333</ele><time>2026-04-22T09:44:33Z</time></trkpt><trkpt lat="43.59361950174442" lon="6.00895801845384"><ele>348.66666666666663</ele><time>2026-04-22T09:44:34Z</time></trkpt><trkpt lat="43.59356695505651" lon="6.009244257276535"><ele>349.0</ele><time>2026-04-22T09:44:35Z</time></trkpt><trkpt lat="43.59351970902618" lon="6.00950841209864"><ele>349.0</ele><time>2026-04-22T09:44:36Z</time></trkpt><trkpt lat="43.593479854822604" lon="6.009771643201124"><ele>349.0</ele><time>2026-04-22T09:44:37Z</time></trkpt><trkpt lat="43.5934260718357" lon="6.010030152699499"><ele>349.0</ele><time>2026-04-22T09:44:38Z</time></trkpt><trkpt lat="43.59337750449472" lon="6.010292275648301"><ele>350.5</ele><time>2026-04-22T09:44:39Z</time></trkpt><trkpt lat="43.59348779442507" lon="6.010606946741082"><ele>352.0</ele><time>2026-04-22T09:44:40Z</time></trkpt><trkpt lat="43.593515080643684" lon="6.01088917492883"><ele>353.3333333333333</ele><time>2026-04-22T09:44:41Z</time></trkpt><trkpt lat="43.59352702585103" lon="6.011160938503553"><ele>354.6666666666667</ele><time>2026-04-22T09:44:42Z</time></trkpt><trkpt lat="43.593523675507114" lon="6.0114307602788335"><ele>356.0</ele><time>2026-04-22T09:44:43Z</time></trkpt><trkpt lat="43.593516189952496" lon="6.011702720286212"><ele>357.33333333333337</ele><time>2026-04-22T09:44:44Z</time></trkpt><trkpt lat="43.59350853350745" lon="6.011978067315826"><ele>358.6666666666667</ele><time>2026-04-22T09:44:45Z</time></trkpt><trkpt lat="43.59350024269452" lon="6.012253707177596"><ele>360.0</ele><time>2026-04-22T09:44:46Z</time></trkpt><trkpt lat="43.59349369914473" lon="6.012517678893636"><ele>360.0</ele><time>2026-04-22T09:44:47Z</time></trkpt><trkpt lat="43.593487450254095" lon="6.012766841846444"><ele>360.0</ele><time>2026-04-22T09:44:48Z</time></trkpt><trkpt lat="43.59347659184362" lon="6.013016175059659"><ele>360.0</ele><time>2026-04-22T09:44:49Z</time></trkpt><trkpt lat="43.593469608907334" lon="6.013266843344122"><ele>360.5</ele><time>2026-04-22T09:44:50Z</time></trkpt><trkpt lat="43.59346258768996" lon="6.013479493483791"><ele>361.0</ele><time>2026-04-22T09:44:51Z</time></trkpt><trkpt lat="43.593454376613266" lon="6.013661142457796"><ele>361.5</ele><time>2026-04-22T09:44:52Z</time></trkpt><trkpt lat="43.59345152510386" lon="6.01379922939321"><ele>362.0</ele><time>2026-04-22T09:44:53Z</time></trkpt><trkpt lat="43.59344479316968" lon="6.01391686094112"><ele>362.0</ele><time>2026-04-22T09:44:54Z</time></trkpt><trkpt lat="43.59341963385912" lon="6.014015500800849"><ele>362.0</ele><time>2026-04-22T09:44:55Z</time></trkpt><trkpt lat="43.59338315138577" lon="6.014108758744476"><ele>362.0</ele><time>2026-04-22T09:44:56Z</time></trkpt><trkpt lat="43.593316104600866" lon="6.0141760247498794"><ele>362.0</ele><time>2026-04-22T09:44:57Z</time></trkpt><trkpt lat="43.59324896262989" lon="6.014239924247446"><ele>362.0</ele><time>2026-04-22T09:44:58Z</time></trkpt><trkpt lat="43.59322086788412" lon="6.014326270839704"><ele>362.0</ele><time>2026-04-22T09:44:59Z</time></trkpt><trkpt lat="43.59324836720108" lon="6.014411255405492"><ele>362.8</ele><time>2026-04-22T09:45:00Z</time></trkpt><trkpt lat="43.59330278181988" lon="6.014517558080191"><ele>363.6</ele><time>2026-04-22T09:45:01Z</time></trkpt><trkpt lat="43.59332592695447" lon="6.014629690029246"><ele>364.40000000000003</ele><time>2026-04-22T09:45:02Z</time></trkpt><trkpt lat="43.59332239138007" lon="6.014757814961715"><ele>365.20000000000005</ele><time>2026-04-22T09:45:03Z</time></trkpt><trkpt lat="43.59330703261405" lon="6.014893039292293"><ele>366.0</ele><time>2026-04-22T09:45:04Z</time></trkpt><trkpt lat="43.59331805762285" lon="6.015032516150929"><ele>367.0</ele><time>2026-04-22T09:45:05Z</time></trkpt><trkpt lat="43.593326138091875" lon="6.015168854259588"><ele>368.0</ele><time>2026-04-22T09:45:06Z</time></trkpt><trkpt lat="43.593328555325314" lon="6.0152953753397185"><ele>369.0</ele><time>2026-04-22T09:45:07Z</time></trkpt><trkpt lat="43.59334194176854" lon="6.015421506887115"><ele>370.0</ele><time>2026-04-22T09:45:08Z</time></trkpt><trkpt lat="43.59334134355417" lon="6.015554067776393"><ele>371.0</ele><time>2026-04-22T09:45:09Z</time></trkpt><trkpt lat="43.593308886539724" lon="6.015772407299312"><ele>371.6</ele><time>2026-04-22T09:45:11Z</time></trkpt><trkpt lat="43.593258563010416" lon="6.0159086478871"><ele>372.20000000000005</ele><time>2026-04-22T09:45:12Z</time></trkpt><trkpt lat="43.59324418159529" lon="6.016039280324651"><ele>372.79999999999995</ele><time>2026-04-22T09:45:13Z</time></trkpt><trkpt lat="43.5932374709376" lon="6.016164617503048"><ele>373.4</ele><time>2026-04-22T09:45:14Z</time></trkpt><trkpt lat="43.59328567413767" lon="6.0163353493415"><ele>374.0</ele><time>2026-04-22T09:45:15Z</time></trkpt><trkpt lat="43.5932786247374" lon="6.016431741451759"><ele>374.0</ele><time>2026-04-22T09:45:16Z</time></trkpt><trkpt lat="43.5932839410333" lon="6.016529363185414"><ele>374.0</ele><time>2026-04-22T09:45:17Z</time></trkpt><trkpt lat="43.593278330784635" lon="6.016671131686534"><ele>374.0</ele><time>2026-04-22T09:45:19Z</time></trkpt><trkpt lat="43.5932706192375" lon="6.016757807991469"><ele>374.0</ele><time>2026-04-22T09:46:06.001Z</time></trkpt><trkpt lat="43.5932691099213" lon="6.016954054912788"><ele>374.0</ele><time>2026-04-22T09:46:08.001Z</time></trkpt><trkpt lat="43.59326363373091" lon="6.017100469714526"><ele>374.0</ele><time>2026-04-22T09:46:09.001Z</time></trkpt><trkpt lat="43.593234310870464" lon="6.017241564285249"><ele>374.0</ele><time>2026-04-22T09:46:10.001Z</time></trkpt><trkpt lat="43.59321451954228" lon="6.017413203416891"><ele>374.0</ele><time>2026-04-22T09:46:11.001Z</time></trkpt><trkpt lat="43.59318855175807" lon="6.017570839842365"><ele>374.0</ele><time>2026-04-22T09:46:12.001Z</time></trkpt><trkpt lat="43.593158182710134" lon="6.017765847249976"><ele>374.0</ele><time>2026-04-22T09:46:13.001Z</time></trkpt><trkpt lat="43.5931276953353" lon="6.01799311296008"><ele>374.0</ele><time>2026-04-22T09:46:14.001Z</time></trkpt><trkpt lat="43.59317349997468" lon="6.017702118294324"><ele>374.0</ele><time>2026-04-22T09:46:15.001Z</time></trkpt><trkpt lat="43.593160653447626" lon="6.017854525821717"><ele>374.0</ele><time>2026-04-22T09:46:16.001Z</time></trkpt><trkpt lat="43.59312360902059" lon="6.018014155622571"><ele>374.0</ele><time>2026-04-22T09:46:17.001Z</time></trkpt><trkpt lat="43.59312016518015" lon="6.0181902189185745"><ele>374.0</ele><time>2026-04-22T09:46:18.001Z</time></trkpt><trkpt lat="43.59310043302156" lon="6.018326423716473"><ele>374.0</ele><time>2026-04-22T09:46:19.001Z</time></trkpt><trkpt lat="43.59309724995764" lon="6.018478157594655"><ele>373.5</ele><time>2026-04-22T09:46:20.001Z</time></trkpt><trkpt lat="43.593116786341966" lon="6.01863553616828"><ele>373.0</ele><time>2026-04-22T09:46:21.001Z</time></trkpt><trkpt lat="43.59312119207251" lon="6.018794843962784"><ele>372.5</ele><time>2026-04-22T09:46:22.001Z</time></trkpt><trkpt lat="43.59315300678473" lon="6.018964891992361"><ele>372.0</ele><time>2026-04-22T09:46:23.001Z</time></trkpt><trkpt lat="43.59320146716454" lon="6.019129375654309"><ele>371.6666666666667</ele><time>2026-04-22T09:46:24Z</time></trkpt><trkpt lat="43.59326534646834" lon="6.01930938557176"><ele>371.33333333333337</ele><time>2026-04-22T09:46:25Z</time></trkpt><trkpt lat="43.59332855566771" lon="6.019501717348246"><ele>371.0</ele><time>2026-04-22T09:46:26Z</time></trkpt><trkpt lat="43.59338782101235" lon="6.01970547952685"><ele>371.0</ele><time>2026-04-22T09:46:27Z</time></trkpt><trkpt lat="43.59344694259755" lon="6.0199068527935315"><ele>371.0</ele><time>2026-04-22T09:46:28Z</time></trkpt><trkpt lat="43.59350861554296" lon="6.020118974137431"><ele>371.0</ele><time>2026-04-22T09:46:29Z</time></trkpt><trkpt lat="43.59357982126193" lon="6.020341354671983"><ele>371.33333333333337</ele><time>2026-04-22T09:46:30Z</time></trkpt><trkpt lat="43.593640153182726" lon="6.020590244547785"><ele>371.6666666666667</ele><time>2026-04-22T09:46:31Z</time></trkpt><trkpt lat="43.593712424151626" lon="6.020839225589522"><ele>372.0</ele><time>2026-04-22T09:46:32Z</time></trkpt><trkpt lat="43.593783013006096" lon="6.021069894165053"><ele>373.6666666666667</ele><time>2026-04-22T09:46:33Z</time></trkpt><trkpt lat="43.59386935077012" lon="6.021329155225874"><ele>375.33333333333337</ele><time>2026-04-22T09:46:34Z</time></trkpt><trkpt lat="43.593935601827425" lon="6.021578979392026"><ele>377.0</ele><time>2026-04-22T09:46:35Z</time></trkpt><trkpt lat="43.59401420934686" lon="6.0218363204499585"><ele>377.6666666666667</ele><time>2026-04-22T09:46:36Z</time></trkpt><trkpt lat="43.59409259370166" lon="6.022094555765451"><ele>378.3333333333333</ele><time>2026-04-22T09:46:37Z</time></trkpt><trkpt lat="43.59417226554213" lon="6.022345623682393"><ele>379.0</ele><time>2026-04-22T09:46:38Z</time></trkpt><trkpt lat="43.59424912087888" lon="6.022599420798444"><ele>379.0</ele><time>2026-04-22T09:46:39Z</time></trkpt><trkpt lat="43.594321708136604" lon="6.022838039307751"><ele>379.0</ele><time>2026-04-22T09:46:40Z</time></trkpt><trkpt lat="43.59440167915498" lon="6.02308926511952"><ele>379.0</ele><time>2026-04-22T09:46:41Z</time></trkpt><trkpt lat="43.59447330926269" lon="6.023337605980124"><ele>380.3333333333333</ele><time>2026-04-22T09:46:42Z</time></trkpt><trkpt lat="43.59454753770909" lon="6.023582230756958"><ele>381.6666666666667</ele><time>2026-04-22T09:46:43Z</time></trkpt><trkpt lat="43.59463431028113" lon="6.023831624756351"><ele>383.0</ele><time>2026-04-22T09:46:44Z</time></trkpt><trkpt lat="43.59469742828819" lon="6.024067126936855"><ele>382.6666666666667</ele><time>2026-04-22T09:46:45Z</time></trkpt><trkpt lat="43.59477196040225" lon="6.024303077583828"><ele>382.3333333333333</ele><time>2026-04-22T09:46:46Z</time></trkpt><trkpt lat="43.594834374311674" lon="6.0245132060903925"><ele>382.0</ele><time>2026-04-22T09:46:47Z</time></trkpt><trkpt lat="43.59489209114582" lon="6.024708058693468"><ele>382.0</ele><time>2026-04-22T09:46:48Z</time></trkpt><trkpt lat="43.59495554586339" lon="6.024909492780389"><ele>382.0</ele><time>2026-04-22T09:46:49Z</time></trkpt><trkpt lat="43.595002885130526" lon="6.025117459643158"><ele>382.0</ele><time>2026-04-22T09:46:50Z</time></trkpt><trkpt lat="43.5950291400958" lon="6.025329647155064"><ele>382.66666666666663</ele><time>2026-04-22T09:46:51Z</time></trkpt><trkpt lat="43.59505019734652" lon="6.025547880535593"><ele>383.3333333333333</ele><time>2026-04-22T09:46:52Z</time></trkpt><trkpt lat="43.59504002732176" lon="6.025752011739895"><ele>384.0</ele><time>2026-04-22T09:46:53Z</time></trkpt><trkpt lat="43.5950197504868" lon="6.025966260778639"><ele>385.66666666666663</ele><time>2026-04-22T09:46:54Z</time></trkpt><trkpt lat="43.59500547598649" lon="6.026193427728807"><ele>387.3333333333333</ele><time>2026-04-22T09:46:55Z</time></trkpt><trkpt lat="43.59498805141969" lon="6.026401596791627"><ele>389.0</ele><time>2026-04-22T09:46:56Z</time></trkpt><trkpt lat="43.59494203992467" lon="6.026588116667475"><ele>390.0</ele><time>2026-04-22T09:46:57Z</time></trkpt><trkpt lat="43.5949337643251" lon="6.026832950634676"><ele>391.0</ele><time>2026-04-22T09:46:58Z</time></trkpt><trkpt lat="43.594930668082156" lon="6.027085444356004"><ele>392.0</ele><time>2026-04-22T09:46:59Z</time></trkpt><trkpt lat="43.59491756282362" lon="6.0273351376090964"><ele>392.0</ele><time>2026-04-22T09:47:00Z</time></trkpt><trkpt lat="43.59489350800051" lon="6.027576783067579"><ele>392.0</ele><time>2026-04-22T09:47:01Z</time></trkpt><trkpt lat="43.594878396510026" lon="6.027837665896396"><ele>392.0</ele><time>2026-04-22T09:47:02Z</time></trkpt><trkpt lat="43.594859506360095" lon="6.028101737801532"><ele>393.0</ele><time>2026-04-22T09:47:03Z</time></trkpt><trkpt lat="43.59483986411132" lon="6.028356944384454"><ele>394.0</ele><time>2026-04-22T09:47:04Z</time></trkpt><trkpt lat="43.59482401433918" lon="6.028621816323915"><ele>395.0</ele><time>2026-04-22T09:47:05Z</time></trkpt><trkpt lat="43.594813945859606" lon="6.028891307252207"><ele>395.66666666666663</ele><time>2026-04-22T09:47:06Z</time></trkpt><trkpt lat="43.59479768562443" lon="6.029151418340764"><ele>396.33333333333337</ele><time>2026-04-22T09:47:07Z</time></trkpt><trkpt lat="43.59478610130999" lon="6.029410926349005"><ele>397.0</ele><time>2026-04-22T09:47:08Z</time></trkpt><trkpt lat="43.59479531504727" lon="6.029670800824492"><ele>397.0</ele><time>2026-04-22T09:47:09Z</time></trkpt><trkpt lat="43.59483718586949" lon="6.029930294371692"><ele>397.0</ele><time>2026-04-22T09:47:10Z</time></trkpt><trkpt lat="43.594888531708925" lon="6.030155351007761"><ele>397.0</ele><time>2026-04-22T09:47:11Z</time></trkpt><trkpt lat="43.594912086343186" lon="6.03035909992587"><ele>397.33333333333337</ele><time>2026-04-22T09:47:12Z</time></trkpt><trkpt lat="43.59494232876009" lon="6.03058011191078"><ele>397.66666666666663</ele><time>2026-04-22T09:47:13Z</time></trkpt><trkpt lat="43.594976028813825" lon="6.030853914420679"><ele>398.0</ele><time>2026-04-22T09:47:14Z</time></trkpt><trkpt lat="43.595005853662045" lon="6.031087420618931"><ele>398.66666666666663</ele><time>2026-04-22T09:47:15Z</time></trkpt><trkpt lat="43.595038592424906" lon="6.031323265853635"><ele>399.33333333333337</ele><time>2026-04-22T09:47:16Z</time></trkpt><trkpt lat="43.595066439494055" lon="6.031572446132443"><ele>400.0</ele><time>2026-04-22T09:47:17Z</time></trkpt><trkpt lat="43.595107935989645" lon="6.031811045035855"><ele>400.6666666666667</ele><time>2026-04-22T09:47:18Z</time></trkpt><trkpt lat="43.595140521661136" lon="6.0320233399441365"><ele>401.33333333333337</ele><time>2026-04-22T09:47:19Z</time></trkpt><trkpt lat="43.59516481452072" lon="6.032237255503689"><ele>402.0</ele><time>2026-04-22T09:47:20Z</time></trkpt><trkpt lat="43.59519307133369" lon="6.03244113462659"><ele>404.25</ele><time>2026-04-22T09:47:21Z</time></trkpt><trkpt lat="43.595223258392885" lon="6.03262313575961"><ele>406.5</ele><time>2026-04-22T09:47:22Z</time></trkpt><trkpt lat="43.59525233086862" lon="6.032794818842982"><ele>408.75</ele><time>2026-04-22T09:47:23.001Z</time></trkpt><trkpt lat="43.595290851050656" lon="6.032982611034944"><ele>411.0</ele><time>2026-04-22T09:47:24.001Z</time></trkpt><trkpt lat="43.59535691597382" lon="6.0331838141451515"><ele>413.66666666666663</ele><time>2026-04-22T09:47:25.001Z</time></trkpt><trkpt lat="43.59544500225083" lon="6.033384223850343"><ele>416.3333333333333</ele><time>2026-04-22T09:47:26.001Z</time></trkpt><trkpt lat="43.5955466969616" lon="6.033584408130594"><ele>419.0</ele><time>2026-04-22T09:47:27.001Z</time></trkpt><trkpt lat="43.59565687495523" lon="6.033792568949316"><ele>419.0</ele><time>2026-04-22T09:47:28.001Z</time></trkpt><trkpt lat="43.59576949077613" lon="6.034018607586478"><ele>419.0</ele><time>2026-04-22T09:47:29.001Z</time></trkpt><trkpt lat="43.59588992664024" lon="6.034242932974317"><ele>419.0</ele><time>2026-04-22T09:47:30.001Z</time></trkpt><trkpt lat="43.59601886285024" lon="6.034468752040128"><ele>419.0</ele><time>2026-04-22T09:47:31.001Z</time></trkpt><trkpt lat="43.596147808340405" lon="6.03469009944275"><ele>419.0</ele><time>2026-04-22T09:47:32.001Z</time></trkpt><trkpt lat="43.59626335166944" lon="6.034903919077028"><ele>419.0</ele><time>2026-04-22T09:47:33.001Z</time></trkpt><trkpt lat="43.59635532222815" lon="6.035114146139701"><ele>420.66666666666663</ele><time>2026-04-22T09:47:34.001Z</time></trkpt><trkpt lat="43.59642388079086" lon="6.035321733879909"><ele>422.33333333333337</ele><time>2026-04-22T09:47:35.001Z</time></trkpt><trkpt lat="43.596463345027104" lon="6.035545059742676"><ele>424.0</ele><time>2026-04-22T09:47:36.001Z</time></trkpt><trkpt lat="43.59646955197797" lon="6.03578798307176"><ele>424.33333333333337</ele><time>2026-04-22T09:47:37.001Z</time></trkpt><trkpt lat="43.596441764547755" lon="6.036037234483106"><ele>424.66666666666663</ele><time>2026-04-22T09:47:38.001Z</time></trkpt><trkpt lat="43.59642919236728" lon="6.036295674023765"><ele>425.0</ele><time>2026-04-22T09:47:39.001Z</time></trkpt><trkpt lat="43.596395015160375" lon="6.036550213894893"><ele>426.3333333333333</ele><time>2026-04-22T09:47:40.001Z</time></trkpt><trkpt lat="43.59636862680708" lon="6.036803886566056"><ele>427.66666666666663</ele><time>2026-04-22T09:47:41.001Z</time></trkpt><trkpt lat="43.596355632855435" lon="6.037041829238532"><ele>429.0</ele><time>2026-04-22T09:47:42.001Z</time></trkpt><trkpt lat="43.59635864981876" lon="6.037269491986243"><ele>429.66666666666663</ele><time>2026-04-22T09:47:43.001Z</time></trkpt><trkpt lat="43.59640344035967" lon="6.037493692399704"><ele>430.3333333333333</ele><time>2026-04-22T09:47:44.001Z</time></trkpt><trkpt lat="43.59648694909604" lon="6.037702078772404"><ele>431.0</ele><time>2026-04-22T09:47:45.001Z</time></trkpt><trkpt lat="43.596595234627785" lon="6.037883203453914"><ele>431.0</ele><time>2026-04-22T09:47:46.001Z</time></trkpt><trkpt lat="43.596735606459575" lon="6.038014860534717"><ele>431.0</ele><time>2026-04-22T09:47:47.001Z</time></trkpt><trkpt lat="43.59690290816733" lon="6.038104738097442"><ele>431.0</ele><time>2026-04-22T09:47:48.001Z</time></trkpt><trkpt lat="43.5970858711663" lon="6.038182220278257"><ele>434.3333333333333</ele><time>2026-04-22T09:47:49.001Z</time></trkpt><trkpt lat="43.597273932136154" lon="6.038277866351717"><ele>437.66666666666663</ele><time>2026-04-22T09:47:50.001Z</time></trkpt><trkpt lat="43.59745526129389" lon="6.038416391238302"><ele>441.0</ele><time>2026-04-22T09:47:51.001Z</time></trkpt><trkpt lat="43.5976289196331" lon="6.038579648811345"><ele>441.0</ele><time>2026-04-22T09:47:52.001Z</time></trkpt><trkpt lat="43.59780393849742" lon="6.038749253986908"><ele>441.0</ele><time>2026-04-22T09:47:53.001Z</time></trkpt><trkpt lat="43.59797622585595" lon="6.0389116857138445"><ele>441.0</ele><time>2026-04-22T09:47:54.001Z</time></trkpt><trkpt lat="43.598137923802305" lon="6.039076634003232"><ele>443.0</ele><time>2026-04-22T09:47:55.001Z</time></trkpt><trkpt lat="43.598289184112836" lon="6.039260760662785"><ele>445.0</ele><time>2026-04-22T09:47:56.001Z</time></trkpt><trkpt lat="43.59843289755943" lon="6.039469899235121"><ele>447.0</ele><time>2026-04-22T09:47:57.001Z</time></trkpt><trkpt lat="43.59856546679841" lon="6.039689287753084"><ele>450.33333333333337</ele><time>2026-04-22T09:47:58.001Z</time></trkpt><trkpt lat="43.5986855585423" lon="6.039920987659325"><ele>453.6666666666667</ele><time>2026-04-22T09:47:59.001Z</time></trkpt><trkpt lat="43.59878763175374" lon="6.040164779289733"><ele>457.0</ele><time>2026-04-22T09:48:00.001Z</time></trkpt><trkpt lat="43.59887626674593" lon="6.040423747384374"><ele>457.0</ele><time>2026-04-22T09:48:01.001Z</time></trkpt><trkpt lat="43.59895298553578" lon="6.040672197801034"><ele>457.0</ele><time>2026-04-22T09:48:02.001Z</time></trkpt><trkpt lat="43.599050934452876" lon="6.040943642633541"><ele>457.0</ele><time>2026-04-22T09:48:03.001Z</time></trkpt><trkpt lat="43.59915541059441" lon="6.041195838711668"><ele>455.0</ele><time>2026-04-22T09:48:04.001Z</time></trkpt><trkpt lat="43.599243409390674" lon="6.041459690168273"><ele>453.0</ele><time>2026-04-22T09:48:05.001Z</time></trkpt><trkpt lat="43.5992954798976" lon="6.041717214564599"><ele>451.0</ele><time>2026-04-22T09:48:06.001Z</time></trkpt><trkpt lat="43.59928977340452" lon="6.041984039600055"><ele>450.33333333333337</ele><time>2026-04-22T09:48:07.001Z</time></trkpt><trkpt lat="43.59929953096654" lon="6.042248416265844"><ele>449.66666666666663</ele><time>2026-04-22T09:48:08.001Z</time></trkpt><trkpt lat="43.59933535581384" lon="6.042497704057792"><ele>449.0</ele><time>2026-04-22T09:48:09.001Z</time></trkpt><trkpt lat="43.59942076100558" lon="6.042754664734177"><ele>453.0</ele><time>2026-04-22T09:48:10.001Z</time></trkpt><trkpt lat="43.59953242755851" lon="6.043015699827769"><ele>457.0</ele><time>2026-04-22T09:48:11.001Z</time></trkpt><trkpt lat="43.59965267430153" lon="6.043280836529559"><ele>461.0</ele><time>2026-04-22T09:48:12.001Z</time></trkpt><trkpt lat="43.59978039290081" lon="6.043533005556751"><ele>461.0</ele><time>2026-04-22T09:48:13.001Z</time></trkpt><trkpt lat="43.599925633677174" lon="6.043777313266287"><ele>461.0</ele><time>2026-04-22T09:48:14.001Z</time></trkpt><trkpt lat="43.60008183567178" lon="6.044018805208735"><ele>459.5</ele><time>2026-04-22T09:48:15.001Z</time></trkpt><trkpt lat="43.60024580161283" lon="6.044269272471041"><ele>458.0</ele><time>2026-04-22T09:48:16.001Z</time></trkpt><trkpt lat="43.600406808911615" lon="6.044522381303232"><ele>460.5</ele><time>2026-04-22T09:48:17.001Z</time></trkpt><trkpt lat="43.60056658015216" lon="6.044767784177797"><ele>463.0</ele><time>2026-04-22T09:48:18.001Z</time></trkpt><trkpt lat="43.6007088326385" lon="6.045022900472792"><ele>463.0</ele><time>2026-04-22T09:48:19.001Z</time></trkpt><trkpt lat="43.60085599800907" lon="6.045262096348468"><ele>463.0</ele><time>2026-04-22T09:48:20.001Z</time></trkpt><trkpt lat="43.6009953507471" lon="6.045505825929095"><ele>463.0</ele><time>2026-04-22T09:48:21.001Z</time></trkpt><trkpt lat="43.60112199473065" lon="6.0457616249723305"><ele>463.0</ele><time>2026-04-22T09:48:22.001Z</time></trkpt><trkpt lat="43.60126150929391" lon="6.046011275052101"><ele>465.6666666666667</ele><time>2026-04-22T09:48:23.001Z</time></trkpt><trkpt lat="43.60137403515362" lon="6.046263703317623"><ele>468.33333333333337</ele><time>2026-04-22T09:48:24.001Z</time></trkpt><trkpt lat="43.601490846764115" lon="6.046513884625418"><ele>471.0</ele><time>2026-04-22T09:48:25.001Z</time></trkpt><trkpt lat="43.601613583915274" lon="6.046752831313364"><ele>471.0</ele><time>2026-04-22T09:48:26.001Z</time></trkpt><trkpt lat="43.60172027409805" lon="6.047012598131699"><ele>471.0</ele><time>2026-04-22T09:48:27.001Z</time></trkpt><trkpt lat="43.60185571247974" lon="6.047248340085462"><ele>471.0</ele><time>2026-04-22T09:48:28.001Z</time></trkpt><trkpt lat="43.60197103349954" lon="6.047494462942538"><ele>474.33333333333337</ele><time>2026-04-22T09:48:29.001Z</time></trkpt><trkpt lat="43.602090180560644" lon="6.047749193850632"><ele>477.6666666666667</ele><time>2026-04-22T09:48:30Z</time></trkpt><trkpt lat="43.60220146194815" lon="6.048014281426747"><ele>481.0</ele><time>2026-04-22T09:48:31Z</time></trkpt><trkpt lat="43.602310609555104" lon="6.048295841480668"><ele>481.0</ele><time>2026-04-22T09:48:32Z</time></trkpt><trkpt lat="43.602409420881905" lon="6.048603781147808"><ele>481.0</ele><time>2026-04-22T09:48:33Z</time></trkpt><trkpt lat="43.602521762138664" lon="6.048903049081436"><ele>478.5</ele><time>2026-04-22T09:48:34Z</time></trkpt><trkpt lat="43.60264396174913" lon="6.049190266872282"><ele>476.0</ele><time>2026-04-22T09:48:35Z</time></trkpt><trkpt lat="43.60275273255417" lon="6.049490100508584"><ele>481.5</ele><time>2026-04-22T09:48:36Z</time></trkpt><trkpt lat="43.602865748808746" lon="6.049796529960488"><ele>487.0</ele><time>2026-04-22T09:48:37Z</time></trkpt><trkpt lat="43.6029750617341" lon="6.05009462642106"><ele>487.0</ele><time>2026-04-22T09:48:38Z</time></trkpt><trkpt lat="43.6030832354578" lon="6.0503890686917465"><ele>487.0</ele><time>2026-04-22T09:48:39Z</time></trkpt><trkpt lat="43.60318846206373" lon="6.050671061145168"><ele>486.5</ele><time>2026-04-22T09:48:40Z</time></trkpt><trkpt lat="43.603297306623965" lon="6.050943531123932"><ele>486.0</ele><time>2026-04-22T09:48:41Z</time></trkpt><trkpt lat="43.60340220738024" lon="6.051220079596528"><ele>486.0</ele><time>2026-04-22T09:48:42Z</time></trkpt><trkpt lat="43.60349334198971" lon="6.051498659636949"><ele>486.0</ele><time>2026-04-22T09:48:43Z</time></trkpt><trkpt lat="43.603534814578374" lon="6.051775561926841"><ele>486.0</ele><time>2026-04-22T09:48:44Z</time></trkpt><trkpt lat="43.60355681745075" lon="6.0520468996878325"><ele>485.0</ele><time>2026-04-22T09:48:45Z</time></trkpt><trkpt lat="43.60356043702493" lon="6.052308011754541"><ele>484.0</ele><time>2026-04-22T09:48:46Z</time></trkpt><trkpt lat="43.60356172940799" lon="6.052584867685643"><ele>483.0</ele><time>2026-04-22T09:48:47Z</time></trkpt><trkpt lat="43.60352229726222" lon="6.052869136341917"><ele>485.0</ele><time>2026-04-22T09:48:48Z</time></trkpt><trkpt lat="43.60352371581752" lon="6.053138216629829"><ele>487.0</ele><time>2026-04-22T09:48:49Z</time></trkpt><trkpt lat="43.60342888540611" lon="6.053359822043058"><ele>489.0</ele><time>2026-04-22T09:48:50Z</time></trkpt><trkpt lat="43.603397193128885" lon="6.053548439240774"><ele>490.33333333333337</ele><time>2026-04-22T09:48:51Z</time></trkpt><trkpt lat="43.60332288092258" lon="6.0537448637437645"><ele>491.6666666666667</ele><time>2026-04-22T09:48:52Z</time></trkpt><trkpt lat="43.603209849729204" lon="6.053914547232186"><ele>493.0</ele><time>2026-04-22T09:48:53Z</time></trkpt><trkpt lat="43.603077133117964" lon="6.054051858611196"><ele>492.6666666666667</ele><time>2026-04-22T09:48:54Z</time></trkpt><trkpt lat="43.60288643043153" lon="6.054126431911612"><ele>492.33333333333337</ele><time>2026-04-22T09:48:55Z</time></trkpt><trkpt lat="43.602738429511554" lon="6.054255770225395"><ele>492.0</ele><time>2026-04-22T09:48:56Z</time></trkpt><trkpt lat="43.602608943790266" lon="6.054447239350295"><ele>492.0</ele><time>2026-04-22T09:48:57Z</time></trkpt><trkpt lat="43.602486211984605" lon="6.054681882034298"><ele>492.0</ele><time>2026-04-22T09:48:58Z</time></trkpt><trkpt lat="43.60237996105264" lon="6.054926927345843"><ele>492.0</ele><time>2026-04-22T09:48:59Z</time></trkpt><trkpt lat="43.60228489420388" lon="6.0551878607903"><ele>495.0</ele><time>2026-04-22T09:49:00Z</time></trkpt><trkpt lat="43.602244059967546" lon="6.055474982512709"><ele>498.0</ele><time>2026-04-22T09:49:01Z</time></trkpt><trkpt lat="43.60223235442904" lon="6.055734823190899"><ele>501.0</ele><time>2026-04-22T09:49:02Z</time></trkpt><trkpt lat="43.602240085324944" lon="6.055991632999628"><ele>502.66666666666663</ele><time>2026-04-22T09:49:03Z</time></trkpt><trkpt lat="43.602274511700514" lon="6.05625953997194"><ele>504.3333333333333</ele><time>2026-04-22T09:49:04Z</time></trkpt><trkpt lat="43.602332275514954" lon="6.056541580435377"><ele>506.0</ele><time>2026-04-22T09:49:05Z</time></trkpt><trkpt lat="43.602395247074" lon="6.056832846472949"><ele>506.5</ele><time>2026-04-22T09:49:06Z</time></trkpt><trkpt lat="43.60244297547187" lon="6.05712977805897"><ele>507.0</ele><time>2026-04-22T09:49:07Z</time></trkpt><trkpt lat="43.60249193180675" lon="6.057440338851437"><ele>509.0</ele><time>2026-04-22T09:49:08Z</time></trkpt><trkpt lat="43.60254300342476" lon="6.057763663471436"><ele>511.0</ele><time>2026-04-22T09:49:09Z</time></trkpt><trkpt lat="43.602594164338456" lon="6.05809417970644"><ele>512.0</ele><time>2026-04-22T09:49:10Z</time></trkpt><trkpt lat="43.60264825065868" lon="6.0584220091533165"><ele>513.0</ele><time>2026-04-22T09:49:11Z</time></trkpt><trkpt lat="43.60269674124755" lon="6.058723304563371"><ele>513.0</ele><time>2026-04-22T09:49:12Z</time></trkpt><trkpt lat="43.60274229885636" lon="6.059004529502253"><ele>513.0</ele><time>2026-04-22T09:49:13Z</time></trkpt><trkpt lat="43.60278317787979" lon="6.0592746808689055"><ele>513.0</ele><time>2026-04-22T09:49:14Z</time></trkpt><trkpt lat="43.60279163469285" lon="6.059535940904957"><ele>514.3333333333334</ele><time>2026-04-22T09:49:15Z</time></trkpt><trkpt lat="43.60278509076366" lon="6.059812804419619"><ele>515.6666666666667</ele><time>2026-04-22T09:49:16Z</time></trkpt><trkpt lat="43.602764173274025" lon="6.060096599609826"><ele>517.0</ele><time>2026-04-22T09:49:17Z</time></trkpt><trkpt lat="43.602730130559344" lon="6.060386181060369"><ele>518.3333333333334</ele><time>2026-04-22T09:49:18Z</time></trkpt><trkpt lat="43.60269803941358" lon="6.060678132657207"><ele>519.6666666666666</ele><time>2026-04-22T09:49:19Z</time></trkpt><trkpt lat="43.60267016339182" lon="6.060976379987353"><ele>521.0</ele><time>2026-04-22T09:49:20Z</time></trkpt><trkpt lat="43.60264674213156" lon="6.0612625662973265"><ele>522.0</ele><time>2026-04-22T09:49:21Z</time></trkpt><trkpt lat="43.602617874260766" lon="6.061572966156826"><ele>523.0</ele><time>2026-04-22T09:49:22Z</time></trkpt><trkpt lat="43.60261198877597" lon="6.061913954422694"><ele>524.0</ele><time>2026-04-22T09:49:23Z</time></trkpt><trkpt lat="43.60257346360115" lon="6.062175756774177"><ele>525.0</ele><time>2026-04-22T09:49:24Z</time></trkpt><trkpt lat="43.6025420379151" lon="6.062469010006801"><ele>526.0</ele><time>2026-04-22T09:49:25Z</time></trkpt><trkpt lat="43.60251553430354" lon="6.0627651077338545"><ele>527.0</ele><time>2026-04-22T09:49:26Z</time></trkpt><trkpt lat="43.60247989661869" lon="6.063051999830138"><ele>528.0</ele><time>2026-04-22T09:49:27Z</time></trkpt><trkpt lat="43.60243529931722" lon="6.0632533978054575"><ele>529.0</ele><time>2026-04-22T09:49:28Z</time></trkpt><trkpt lat="43.60238746824063" lon="6.063472729870924"><ele>530.0</ele><time>2026-04-22T09:49:29Z</time></trkpt><trkpt lat="43.60241734565377" lon="6.0638098644969665"><ele>531.0</ele><time>2026-04-22T09:49:30Z</time></trkpt><trkpt lat="43.60241068008824" lon="6.064050667182473"><ele>532.0</ele><time>2026-04-22T09:49:31Z</time></trkpt><trkpt lat="43.60239327256902" lon="6.064246419168652"><ele>532.0</ele><time>2026-04-22T09:49:32Z</time></trkpt><trkpt lat="43.60239641438431" lon="6.0644698874052985"><ele>532.0</ele><time>2026-04-22T09:49:33Z</time></trkpt><trkpt lat="43.60242778250757" lon="6.064690361140488"><ele>532.0</ele><time>2026-04-22T09:49:34Z</time></trkpt><trkpt lat="43.6024959792874" lon="6.064912668424925"><ele>532.3333333333334</ele><time>2026-04-22T09:49:35Z</time></trkpt><trkpt lat="43.60259560334645" lon="6.065118515688797"><ele>532.6666666666666</ele><time>2026-04-22T09:49:36Z</time></trkpt><trkpt lat="43.60271802098977" lon="6.065298929609909"><ele>533.0</ele><time>2026-04-22T09:49:37Z</time></trkpt><trkpt lat="43.60287674346013" lon="6.065444679883415"><ele>533.0</ele><time>2026-04-22T09:49:38Z</time></trkpt><trkpt lat="43.60305934270613" lon="6.065553562070721"><ele>533.0</ele><time>2026-04-22T09:49:39Z</time></trkpt><trkpt lat="43.603258492034875" lon="6.065612261991957"><ele>533.0</ele><time>2026-04-22T09:49:40Z</time></trkpt><trkpt lat="43.60339618589438" lon="6.065596496743291"><ele>533.0</ele><time>2026-04-22T09:49:41Z</time></trkpt><trkpt lat="43.603524952138315" lon="6.0656341568757"><ele>533.0</ele><time>2026-04-22T09:49:42Z</time></trkpt><trkpt lat="43.60362982024995" lon="6.065738130464866"><ele>533.0</ele><time>2026-04-22T09:49:43Z</time></trkpt><trkpt lat="43.603701391258895" lon="6.065884914001716"><ele>533.0</ele><time>2026-04-22T09:49:44Z</time></trkpt><trkpt lat="43.603736132759444" lon="6.066045404419986"><ele>532.5</ele><time>2026-04-22T09:49:45Z</time></trkpt><trkpt lat="43.60375512593594" lon="6.066192461548437"><ele>532.0</ele><time>2026-04-22T09:49:46Z</time></trkpt><trkpt lat="43.603761102978304" lon="6.066311917841637"><ele>531.5</ele><time>2026-04-22T09:49:47Z</time></trkpt><trkpt lat="43.60375551203174" lon="6.066412209802063"><ele>531.0</ele><time>2026-04-22T09:49:48Z</time></trkpt><trkpt lat="43.60374362370621" lon="6.06650538547724"><ele>530.5</ele><time>2026-04-22T09:49:49Z</time></trkpt><trkpt lat="43.60372706535179" lon="6.066597884287998"><ele>530.0</ele><time>2026-04-22T09:49:50Z</time></trkpt><trkpt lat="43.60371261532963" lon="6.066702371045018"><ele>530.0</ele><time>2026-04-22T09:49:51.001Z</time></trkpt><trkpt lat="43.603699682038766" lon="6.0668176118728745"><ele>530.0</ele><time>2026-04-22T09:49:52.001Z</time></trkpt><trkpt lat="43.60368775898541" lon="6.066948290013758"><ele>530.0</ele><time>2026-04-22T09:49:53.001Z</time></trkpt><trkpt lat="43.60369175835222" lon="6.067109000931763"><ele>530.0</ele><time>2026-04-22T09:49:54.001Z</time></trkpt><trkpt lat="43.60369104298927" lon="6.067293072004297"><ele>530.0</ele><time>2026-04-22T09:49:55.001Z</time></trkpt><trkpt lat="43.6037117753522" lon="6.0675010071441555"><ele>529.3333333333333</ele><time>2026-04-22T09:49:56.001Z</time></trkpt><trkpt lat="43.60374369434157" lon="6.067738440999273"><ele>528.6666666666666</ele><time>2026-04-22T09:49:57.001Z</time></trkpt><trkpt lat="43.60377323196651" lon="6.067979175099727"><ele>528.0</ele><time>2026-04-22T09:49:58.001Z</time></trkpt><trkpt lat="43.60380736093151" lon="6.068227947994895"><ele>526.0</ele><time>2026-04-22T09:49:59.001Z</time></trkpt><trkpt lat="43.60383258326617" lon="6.0684824348560635"><ele>524.0</ele><time>2026-04-22T09:50:00.001Z</time></trkpt><trkpt lat="43.60386413570672" lon="6.068715401480826"><ele>522.0</ele><time>2026-04-22T09:50:01.001Z</time></trkpt><trkpt lat="43.60390730049515" lon="6.068930836588582"><ele>519.75</ele><time>2026-04-22T09:50:02.001Z</time></trkpt><trkpt lat="43.60397082581171" lon="6.069120124703278"><ele>517.5</ele><time>2026-04-22T09:50:03.001Z</time></trkpt><trkpt lat="43.604063424253496" lon="6.069282491179351"><ele>515.25</ele><time>2026-04-22T09:50:04.001Z</time></trkpt><trkpt lat="43.60417514387555" lon="6.069391273868952"><ele>513.0</ele><time>2026-04-22T09:50:05.001Z</time></trkpt><trkpt lat="43.604309874024175" lon="6.069434896737409"><ele>513.0</ele><time>2026-04-22T09:50:06.001Z</time></trkpt><trkpt lat="43.60445263827144" lon="6.069434556708238"><ele>513.0</ele><time>2026-04-22T09:50:07.001Z</time></trkpt><trkpt lat="43.60460983352307" lon="6.069381922203537"><ele>513.0</ele><time>2026-04-22T09:50:08.001Z</time></trkpt><trkpt lat="43.604784174618196" lon="6.069265032312255"><ele>514.3333333333334</ele><time>2026-04-22T09:50:09.001Z</time></trkpt><trkpt lat="43.60495004787856" lon="6.069124839358787"><ele>515.6666666666667</ele><time>2026-04-22T09:50:10.001Z</time></trkpt><trkpt lat="43.60511043323566" lon="6.068949219266835"><ele>517.0</ele><time>2026-04-22T09:50:11.001Z</time></trkpt><trkpt lat="43.60527864787403" lon="6.068772701300302"><ele>513.0</ele><time>2026-04-22T09:50:12.001Z</time></trkpt><trkpt lat="43.60544572506993" lon="6.068640491531147"><ele>509.0</ele><time>2026-04-22T09:50:13.001Z</time></trkpt><trkpt lat="43.605617969735256" lon="6.068531471399718"><ele>505.0</ele><time>2026-04-22T09:50:14.001Z</time></trkpt><trkpt lat="43.605795792252934" lon="6.068464964722434"><ele>505.0</ele><time>2026-04-22T09:50:15.001Z</time></trkpt><trkpt lat="43.60596925857831" lon="6.068448039163809"><ele>505.0</ele><time>2026-04-22T09:50:16.001Z</time></trkpt><trkpt lat="43.60616344191561" lon="6.068475781671771"><ele>505.0</ele><time>2026-04-22T09:50:17.001Z</time></trkpt><trkpt lat="43.60635852707401" lon="6.068508870836512"><ele>502.0</ele><time>2026-04-22T09:50:18.001Z</time></trkpt><trkpt lat="43.60658243525138" lon="6.068524183375969"><ele>499.0</ele><time>2026-04-22T09:50:19.001Z</time></trkpt><trkpt lat="43.606806570941544" lon="6.068566592880224"><ele>498.0</ele><time>2026-04-22T09:50:20.001Z</time></trkpt><trkpt lat="43.60703284552834" lon="6.068602820571105"><ele>497.0</ele><time>2026-04-22T09:50:21.001Z</time></trkpt><trkpt lat="43.607265265036624" lon="6.068660941627372"><ele>497.0</ele><time>2026-04-22T09:50:22.001Z</time></trkpt><trkpt lat="43.60751596353567" lon="6.068701036513495"><ele>497.0</ele><time>2026-04-22T09:50:23.001Z</time></trkpt><trkpt lat="43.60776182373098" lon="6.068740357586078"><ele>497.0</ele><time>2026-04-22T09:50:24.001Z</time></trkpt><trkpt lat="43.608023206674204" lon="6.0687864053881775"><ele>497.0</ele><time>2026-04-22T09:50:25.001Z</time></trkpt><trkpt lat="43.60829990895773" lon="6.068833162797453"><ele>497.0</ele><time>2026-04-22T09:50:26.001Z</time></trkpt><trkpt lat="43.60860181696556" lon="6.068882067010889"><ele>497.0</ele><time>2026-04-22T09:50:27.001Z</time></trkpt><trkpt lat="43.60881773743788" lon="6.068916499982831"><ele>497.3333333333333</ele><time>2026-04-22T09:50:28.001Z</time></trkpt><trkpt lat="43.60899556060138" lon="6.068927889619053"><ele>497.66666666666663</ele><time>2026-04-22T09:50:29.001Z</time></trkpt><trkpt lat="43.60920248451577" lon="6.068958865416291"><ele>498.0</ele><time>2026-04-22T09:50:30.001Z</time></trkpt><trkpt lat="43.609402145849515" lon="6.068994557058315"><ele>496.5</ele><time>2026-04-22T09:50:31.001Z</time></trkpt><trkpt lat="43.609625492793334" lon="6.069025890752321"><ele>495.0</ele><time>2026-04-22T09:50:32.001Z</time></trkpt><trkpt lat="43.60985640646865" lon="6.069019988915644"><ele>495.0</ele><time>2026-04-22T09:50:33.001Z</time></trkpt><trkpt lat="43.610072835033435" lon="6.069024967337072"><ele>495.0</ele><time>2026-04-22T09:50:34.001Z</time></trkpt><trkpt lat="43.61027526125628" lon="6.0690283550916115"><ele>495.0</ele><time>2026-04-22T09:50:35.001Z</time></trkpt><trkpt lat="43.61048169618608" lon="6.069012882023827"><ele>493.5</ele><time>2026-04-22T09:50:36Z</time></trkpt><trkpt lat="43.61070139278325" lon="6.068966202720683"><ele>492.0</ele><time>2026-04-22T09:50:37Z</time></trkpt><trkpt lat="43.610926843111024" lon="6.068889493035443"><ele>492.0</ele><time>2026-04-22T09:50:38Z</time></trkpt><trkpt lat="43.61115358845868" lon="6.068816243175907"><ele>492.0</ele><time>2026-04-22T09:50:39Z</time></trkpt><trkpt lat="43.61136524112394" lon="6.068734107453256"><ele>491.0</ele><time>2026-04-22T09:50:40Z</time></trkpt><trkpt lat="43.611569728231466" lon="6.06864328771576"><ele>490.0</ele><time>2026-04-22T09:50:41Z</time></trkpt><trkpt lat="43.61176404992437" lon="6.068546408799829"><ele>489.0</ele><time>2026-04-22T09:50:42Z</time></trkpt><trkpt lat="43.61194720526503" lon="6.068458031781452"><ele>486.66666666666663</ele><time>2026-04-22T09:50:43Z</time></trkpt><trkpt lat="43.61214027699718" lon="6.068430555257029"><ele>484.3333333333333</ele><time>2026-04-22T09:50:44Z</time></trkpt><trkpt lat="43.61231255705452" lon="6.0684341272064435"><ele>482.0</ele><time>2026-04-22T09:50:45Z</time></trkpt><trkpt lat="43.61248760018411" lon="6.068499467881856"><ele>482.0</ele><time>2026-04-22T09:50:46Z</time></trkpt><trkpt lat="43.61264697319185" lon="6.068620774480515"><ele>482.0</ele><time>2026-04-22T09:50:47Z</time></trkpt><trkpt lat="43.612799814112094" lon="6.068725605560896"><ele>482.0</ele><time>2026-04-22T09:50:48Z</time></trkpt><trkpt lat="43.6129559016465" lon="6.068866352443749"><ele>482.66666666666663</ele><time>2026-04-22T09:50:49Z</time></trkpt><trkpt lat="43.61311106090424" lon="6.069028762761656"><ele>483.33333333333337</ele><time>2026-04-22T09:50:50Z</time></trkpt><trkpt lat="43.613282925842675" lon="6.069167351216647"><ele>484.0</ele><time>2026-04-22T09:50:51Z</time></trkpt><trkpt lat="43.613448792407866" lon="6.069296147629762"><ele>481.6666666666667</ele><time>2026-04-22T09:50:52Z</time></trkpt><trkpt lat="43.61358763025167" lon="6.0694120402017955"><ele>479.33333333333337</ele><time>2026-04-22T09:50:53Z</time></trkpt><trkpt lat="43.61371729957422" lon="6.069518610749925"><ele>477.0</ele><time>2026-04-22T09:50:54Z</time></trkpt><trkpt lat="43.613851193386935" lon="6.069598136632998"><ele>477.0</ele><time>2026-04-22T09:50:55Z</time></trkpt><trkpt lat="43.61400794510599" lon="6.069629133281897"><ele>477.0</ele><time>2026-04-22T09:50:56Z</time></trkpt><trkpt lat="43.614164482922135" lon="6.069581143932546"><ele>477.0</ele><time>2026-04-22T09:50:57Z</time></trkpt><trkpt lat="43.61433146223177" lon="6.069495121523086"><ele>474.33333333333337</ele><time>2026-04-22T09:50:58Z</time></trkpt><trkpt lat="43.61450040199389" lon="6.069391405390207"><ele>471.6666666666667</ele><time>2026-04-22T09:50:59Z</time></trkpt><trkpt lat="43.614642188448414" lon="6.069307695550622"><ele>469.0</ele><time>2026-04-22T09:51:00Z</time></trkpt><trkpt lat="43.61479650783551" lon="6.069247041680249"><ele>469.0</ele><time>2026-04-22T09:51:01Z</time></trkpt><trkpt lat="43.61495839360623" lon="6.069218608516427"><ele>469.0</ele><time>2026-04-22T09:51:02Z</time></trkpt><trkpt lat="43.61511491171527" lon="6.06925041769144"><ele>469.0</ele><time>2026-04-22T09:51:03Z</time></trkpt><trkpt lat="43.61529473857575" lon="6.069270121549914"><ele>469.6666666666667</ele><time>2026-04-22T09:51:04Z</time></trkpt><trkpt lat="43.615465994447824" lon="6.0692918292090585"><ele>470.33333333333337</ele><time>2026-04-22T09:51:05Z</time></trkpt><trkpt lat="43.61564084690922" lon="6.0693140655301"><ele>471.0</ele><time>2026-04-22T09:51:06Z</time></trkpt><trkpt lat="43.61582031334692" lon="6.069328251379562"><ele>471.0</ele><time>2026-04-22T09:51:07Z</time></trkpt><trkpt lat="43.61599765150796" lon="6.069343467231091"><ele>471.0</ele><time>2026-04-22T09:51:08Z</time></trkpt><trkpt lat="43.6161849996202" lon="6.069361886936159"><ele>471.0</ele><time>2026-04-22T09:51:09Z</time></trkpt><trkpt lat="43.61637879840851" lon="6.069387983747802"><ele>470.66666666666663</ele><time>2026-04-22T09:51:10Z</time></trkpt><trkpt lat="43.616560087751296" lon="6.069404467103994"><ele>470.3333333333333</ele><time>2026-04-22T09:51:11Z</time></trkpt><trkpt lat="43.616745250650915" lon="6.069420099660966"><ele>470.0</ele><time>2026-04-22T09:51:12Z</time></trkpt><trkpt lat="43.61693169504962" lon="6.0694430947695075"><ele>471.66666666666663</ele><time>2026-04-22T09:51:13Z</time></trkpt><trkpt lat="43.617112334422885" lon="6.069463887859214"><ele>473.33333333333337</ele><time>2026-04-22T09:51:14Z</time></trkpt><trkpt lat="43.61729484715974" lon="6.0694852087553"><ele>475.0</ele><time>2026-04-22T09:51:15Z</time></trkpt><trkpt lat="43.61747068521364" lon="6.069500885736952"><ele>475.0</ele><time>2026-04-22T09:51:16Z</time></trkpt><trkpt lat="43.617623214543855" lon="6.0695189481345615"><ele>475.0</ele><time>2026-04-22T09:51:17Z</time></trkpt><trkpt lat="43.617817848471226" lon="6.06954821664764"><ele>475.0</ele><time>2026-04-22T09:51:18Z</time></trkpt><trkpt lat="43.617999601769675" lon="6.069566467798624"><ele>473.6666666666667</ele><time>2026-04-22T09:51:19Z</time></trkpt><trkpt lat="43.61818118947842" lon="6.069580209517725"><ele>472.33333333333337</ele><time>2026-04-22T09:51:20Z</time></trkpt><trkpt lat="43.61837639342292" lon="6.0696028351534"><ele>471.0</ele><time>2026-04-22T09:51:21Z</time></trkpt><trkpt lat="43.618577615746545" lon="6.069610800848027"><ele>472.0</ele><time>2026-04-22T09:51:22Z</time></trkpt><trkpt lat="43.61877533780261" lon="6.069631394018078"><ele>473.0</ele><time>2026-04-22T09:51:23Z</time></trkpt><trkpt lat="43.618981603388015" lon="6.069655112585278"><ele>474.0</ele><time>2026-04-22T09:51:24Z</time></trkpt><trkpt lat="43.61918547413437" lon="6.069681898000404"><ele>474.0</ele><time>2026-04-22T09:51:25Z</time></trkpt><trkpt lat="43.61938757717199" lon="6.0697083463866965"><ele>474.0</ele><time>2026-04-22T09:51:26Z</time></trkpt><trkpt lat="43.619594445209195" lon="6.0697324776662"><ele>474.0</ele><time>2026-04-22T09:51:27Z</time></trkpt><trkpt lat="43.619799286490014" lon="6.069755287444075"><ele>474.0</ele><time>2026-04-22T09:51:28Z</time></trkpt><trkpt lat="43.62001763132067" lon="6.069779660285945"><ele>474.0</ele><time>2026-04-22T09:51:29Z</time></trkpt><trkpt lat="43.62023093229488" lon="6.0698020289179855"><ele>474.0</ele><time>2026-04-22T09:51:30Z</time></trkpt><trkpt lat="43.62044325192324" lon="6.069832282773067"><ele>474.0</ele><time>2026-04-22T09:51:31Z</time></trkpt><trkpt lat="43.62065720573911" lon="6.069850145081309"><ele>474.0</ele><time>2026-04-22T09:51:32Z</time></trkpt><trkpt lat="43.62087084903713" lon="6.069872698277224"><ele>474.0</ele><time>2026-04-22T09:51:33Z</time></trkpt><trkpt lat="43.6210690560563" lon="6.069903703983897"><ele>473.33333333333337</ele><time>2026-04-22T09:51:34Z</time></trkpt><trkpt lat="43.62129833044438" lon="6.069926330240919"><ele>472.6666666666667</ele><time>2026-04-22T09:51:35Z</time></trkpt><trkpt lat="43.621516945616406" lon="6.069952009220342"><ele>472.0</ele><time>2026-04-22T09:51:36Z</time></trkpt><trkpt lat="43.62173833023403" lon="6.0699808682601795"><ele>471.33333333333337</ele><time>2026-04-22T09:51:37Z</time></trkpt><trkpt lat="43.621953658348346" lon="6.070003961629293"><ele>470.66666666666663</ele><time>2026-04-22T09:51:38Z</time></trkpt><trkpt lat="43.622170124126534" lon="6.070022868966863"><ele>470.0</ele><time>2026-04-22T09:51:39Z</time></trkpt><trkpt lat="43.62237404990716" lon="6.070053492176192"><ele>469.66666666666663</ele><time>2026-04-22T09:51:40Z</time></trkpt><trkpt lat="43.622583634085785" lon="6.07008049083425"><ele>469.33333333333337</ele><time>2026-04-22T09:51:41Z</time></trkpt><trkpt lat="43.6227800102878" lon="6.070108256267329"><ele>469.0</ele><time>2026-04-22T09:51:42Z</time></trkpt><trkpt lat="43.622971830760775" lon="6.070138101564795"><ele>470.0</ele><time>2026-04-22T09:51:43Z</time></trkpt><trkpt lat="43.62316145565306" lon="6.070160374413325"><ele>471.0</ele><time>2026-04-22T09:51:44Z</time></trkpt><trkpt lat="43.62335445053696" lon="6.070182616003349"><ele>472.0</ele><time>2026-04-22T09:51:45Z</time></trkpt><trkpt lat="43.62354633361586" lon="6.070212595751329"><ele>472.33333333333337</ele><time>2026-04-22T09:51:46Z</time></trkpt><trkpt lat="43.62373110997752" lon="6.0702471631574015"><ele>472.66666666666663</ele><time>2026-04-22T09:51:47Z</time></trkpt><trkpt lat="43.623925576324396" lon="6.0702648439336135"><ele>473.0</ele><time>2026-04-22T09:51:48Z</time></trkpt><trkpt lat="43.62413260142505" lon="6.070256722353363"><ele>473.0</ele><time>2026-04-22T09:51:49Z</time></trkpt><trkpt lat="43.624334188595576" lon="6.070223833791232"><ele>473.0</ele><time>2026-04-22T09:51:50Z</time></trkpt><trkpt lat="43.62452606479892" lon="6.070159786476978"><ele>473.0</ele><time>2026-04-22T09:51:51Z</time></trkpt><trkpt lat="43.62471108480961" lon="6.070077037767392"><ele>472.66666666666663</ele><time>2026-04-22T09:51:52Z</time></trkpt><trkpt lat="43.62489147132193" lon="6.069969338255434"><ele>472.33333333333337</ele><time>2026-04-22T09:51:53.001Z</time></trkpt><trkpt lat="43.625057974474736" lon="6.069841098443735"><ele>472.0</ele><time>2026-04-22T09:51:54.001Z</time></trkpt><trkpt lat="43.62521884698488" lon="6.069708755169692"><ele>472.6666666666667</ele><time>2026-04-22T09:51:55.001Z</time></trkpt><trkpt lat="43.6253838317459" lon="6.0695788983147185"><ele>473.33333333333337</ele><time>2026-04-22T09:51:56.001Z</time></trkpt><trkpt lat="43.62555335060103" lon="6.069451756473849"><ele>474.0</ele><time>2026-04-22T09:51:57.001Z</time></trkpt><trkpt lat="43.62571890014106" lon="6.069334133550121"><ele>474.0</ele><time>2026-04-22T09:51:58.001Z</time></trkpt><trkpt lat="43.62588429203095" lon="6.069223541231277"><ele>474.0</ele><time>2026-04-22T09:51:59.001Z</time></trkpt><trkpt lat="43.626057482736236" lon="6.069113705746085"><ele>474.0</ele><time>2026-04-22T09:52:00.001Z</time></trkpt><trkpt lat="43.6262413205984" lon="6.068999348033793"><ele>474.0</ele><time>2026-04-22T09:52:01.001Z</time></trkpt><trkpt lat="43.626432529470684" lon="6.068885144876504"><ele>474.0</ele><time>2026-04-22T09:52:02.001Z</time></trkpt><trkpt lat="43.626627946661486" lon="6.068779203425227"><ele>474.0</ele><time>2026-04-22T09:52:03.001Z</time></trkpt><trkpt lat="43.62681735098778" lon="6.068666622122432"><ele>474.33333333333337</ele><time>2026-04-22T09:52:04.001Z</time></trkpt><trkpt lat="43.62701063805879" lon="6.068552629889303"><ele>474.6666666666667</ele><time>2026-04-22T09:52:05.001Z</time></trkpt><trkpt lat="43.62720958245181" lon="6.068447689359885"><ele>475.0</ele><time>2026-04-22T09:52:06.001Z</time></trkpt><trkpt lat="43.627403626496836" lon="6.068349929198967"><ele>475.6666666666667</ele><time>2026-04-22T09:52:07.001Z</time></trkpt><trkpt lat="43.627594675935335" lon="6.068250426594619"><ele>476.33333333333337</ele><time>2026-04-22T09:52:08.001Z</time></trkpt><trkpt lat="43.62778209567747" lon="6.06814653843155"><ele>477.0</ele><time>2026-04-22T09:52:09.001Z</time></trkpt><trkpt lat="43.62797196773676" lon="6.068029644151262"><ele>477.0</ele><time>2026-04-22T09:52:10.001Z</time></trkpt><trkpt lat="43.62815764869809" lon="6.067898965386927"><ele>477.0</ele><time>2026-04-22T09:52:11.001Z</time></trkpt><trkpt lat="43.62833976297137" lon="6.06774139451298"><ele>477.0</ele><time>2026-04-22T09:52:12.001Z</time></trkpt><trkpt lat="43.628526604724485" lon="6.067596840759169"><ele>477.33333333333337</ele><time>2026-04-22T09:52:13.001Z</time></trkpt><trkpt lat="43.62870501652449" lon="6.067454482736592"><ele>477.6666666666667</ele><time>2026-04-22T09:52:14.001Z</time></trkpt><trkpt lat="43.62885323630211" lon="6.067242357898747"><ele>478.0</ele><time>2026-04-22T09:52:15.001Z</time></trkpt><trkpt lat="43.629022992936925" lon="6.067078095447105"><ele>478.0</ele><time>2026-04-22T09:52:16.001Z</time></trkpt><trkpt lat="43.62919630642371" lon="6.066911346060866"><ele>478.0</ele><time>2026-04-22T09:52:17.001Z</time></trkpt><trkpt lat="43.629369176395635" lon="6.06674106104012"><ele>478.0</ele><time>2026-04-22T09:52:18.001Z</time></trkpt><trkpt lat="43.62954904957619" lon="6.066573742266476"><ele>478.33333333333337</ele><time>2026-04-22T09:52:19.001Z</time></trkpt><trkpt lat="43.62972951339493" lon="6.066418074398812"><ele>478.66666666666663</ele><time>2026-04-22T09:52:20.001Z</time></trkpt><trkpt lat="43.62992292569541" lon="6.066294906698829"><ele>479.0</ele><time>2026-04-22T09:52:21.001Z</time></trkpt><trkpt lat="43.630124523229796" lon="6.066201350522486"><ele>479.3333333333333</ele><time>2026-04-22T09:52:22.001Z</time></trkpt><trkpt lat="43.630329632735894" lon="6.066135563123095"><ele>479.66666666666663</ele><time>2026-04-22T09:52:23.001Z</time></trkpt><trkpt lat="43.6305365306739" lon="6.066077534044809"><ele>480.0</ele><time>2026-04-22T09:52:24.001Z</time></trkpt><trkpt lat="43.630740160616064" lon="6.066035964880463"><ele>480.0</ele><time>2026-04-22T09:52:25.001Z</time></trkpt><trkpt lat="43.6309334184149" lon="6.0659931758743655"><ele>480.0</ele><time>2026-04-22T09:52:26.001Z</time></trkpt><trkpt lat="43.631130571421096" lon="6.065926426043592"><ele>480.0</ele><time>2026-04-22T09:52:27.001Z</time></trkpt><trkpt lat="43.63132551128725" lon="6.065831872971117"><ele>481.66666666666663</ele><time>2026-04-22T09:52:28.001Z</time></trkpt><trkpt lat="43.63151860419399" lon="6.065716704253636"><ele>483.3333333333333</ele><time>2026-04-22T09:52:29.001Z</time></trkpt><trkpt lat="43.63170484072534" lon="6.0656079749422975"><ele>485.0</ele><time>2026-04-22T09:52:30.001Z</time></trkpt><trkpt lat="43.631896698648056" lon="6.0655073014414675"><ele>485.0</ele><time>2026-04-22T09:52:31.001Z</time></trkpt><trkpt lat="43.63208826718195" lon="6.065407061330164"><ele>485.0</ele><time>2026-04-22T09:52:32.001Z</time></trkpt><trkpt lat="43.63228137519764" lon="6.065305350436425"><ele>485.0</ele><time>2026-04-22T09:52:33.001Z</time></trkpt><trkpt lat="43.63247731838769" lon="6.065203331095049"><ele>485.0</ele><time>2026-04-22T09:52:34.001Z</time></trkpt><trkpt lat="43.6326781837134" lon="6.065086221134828"><ele>485.0</ele><time>2026-04-22T09:52:35.001Z</time></trkpt><trkpt lat="43.63286560546763" lon="6.064975383356057"><ele>485.0</ele><time>2026-04-22T09:52:36.001Z</time></trkpt><trkpt lat="43.6330482792769" lon="6.064884342279574"><ele>485.66666666666663</ele><time>2026-04-22T09:52:37.001Z</time></trkpt><trkpt lat="43.633239657236565" lon="6.064823105735408"><ele>486.33333333333337</ele><time>2026-04-22T09:52:38.001Z</time></trkpt><trkpt lat="43.63343454392777" lon="6.064790397730104"><ele>487.0</ele><time>2026-04-22T09:52:39.001Z</time></trkpt><trkpt lat="43.63363286874361" lon="6.06479712350569"><ele>486.6666666666667</ele><time>2026-04-22T09:52:40.001Z</time></trkpt><trkpt lat="43.633829245232974" lon="6.064841072640295"><ele>486.33333333333337</ele><time>2026-04-22T09:52:41.001Z</time></trkpt><trkpt lat="43.634022522997746" lon="6.064904584276531"><ele>486.0</ele><time>2026-04-22T09:52:42Z</time></trkpt><trkpt lat="43.63420916298012" lon="6.064970108699733"><ele>486.0</ele><time>2026-04-22T09:52:43Z</time></trkpt><trkpt lat="43.634390210134164" lon="6.065009821692494"><ele>486.0</ele><time>2026-04-22T09:52:44Z</time></trkpt><trkpt lat="43.634574387193645" lon="6.065013756820465"><ele>486.0</ele><time>2026-04-22T09:52:45Z</time></trkpt><trkpt lat="43.63476084179616" lon="6.0649927346472685"><ele>486.0</ele><time>2026-04-22T09:52:46Z</time></trkpt><trkpt lat="43.63494590406701" lon="6.064965474849855"><ele>486.0</ele><time>2026-04-22T09:52:47Z</time></trkpt><trkpt lat="43.63513229998164" lon="6.064949554210656"><ele>486.0</ele><time>2026-04-22T09:52:48Z</time></trkpt><trkpt lat="43.635324157212416" lon="6.064939987009059"><ele>487.0</ele><time>2026-04-22T09:52:49Z</time></trkpt><trkpt lat="43.6355126714152" lon="6.064928181119379"><ele>488.0</ele><time>2026-04-22T09:52:50Z</time></trkpt><trkpt lat="43.63569549577191" lon="6.064899036373451"><ele>489.0</ele><time>2026-04-22T09:52:51Z</time></trkpt><trkpt lat="43.63587987657614" lon="6.064827093028685"><ele>489.0</ele><time>2026-04-22T09:52:52Z</time></trkpt><trkpt lat="43.63607167282895" lon="6.064720216930975"><ele>489.0</ele><time>2026-04-22T09:52:53Z</time></trkpt><trkpt lat="43.63625865217265" lon="6.064598973397381"><ele>489.0</ele><time>2026-04-22T09:52:54Z</time></trkpt><trkpt lat="43.63643125034239" lon="6.06449450832669"><ele>489.66666666666663</ele><time>2026-04-22T09:52:55Z</time></trkpt><trkpt lat="43.63659445062003" lon="6.064407270484238"><ele>490.3333333333333</ele><time>2026-04-22T09:52:56Z</time></trkpt><trkpt lat="43.63675494992651" lon="6.0643177645296165"><ele>491.0</ele><time>2026-04-22T09:52:57Z</time></trkpt><trkpt lat="43.63691264754749" lon="6.064221339708308"><ele>491.3333333333333</ele><time>2026-04-22T09:52:58Z</time></trkpt><trkpt lat="43.637079898124426" lon="6.064121846136183"><ele>491.66666666666663</ele><time>2026-04-22T09:52:59Z</time></trkpt><trkpt lat="43.637249626996315" lon="6.0640259000134495"><ele>492.0</ele><time>2026-04-22T09:53:00Z</time></trkpt><trkpt lat="43.63741736133526" lon="6.063936394779435"><ele>492.0</ele><time>2026-04-22T09:53:01Z</time></trkpt><trkpt lat="43.63759007707073" lon="6.063861721659656"><ele>492.0</ele><time>2026-04-22T09:53:02Z</time></trkpt><trkpt lat="43.637770936955455" lon="6.063809321872429"><ele>492.0</ele><time>2026-04-22T09:53:03Z</time></trkpt><trkpt lat="43.637954698376625" lon="6.063786657510601"><ele>492.33333333333337</ele><time>2026-04-22T09:53:04Z</time></trkpt><trkpt lat="43.63814250579856" lon="6.063788264460597"><ele>492.6666666666667</ele><time>2026-04-22T09:53:05Z</time></trkpt><trkpt lat="43.63833209311995" lon="6.063792216237478"><ele>493.0</ele><time>2026-04-22T09:53:06Z</time></trkpt><trkpt lat="43.63852120254141" lon="6.063792137678378"><ele>492.6666666666667</ele><time>2026-04-22T09:53:07Z</time></trkpt><trkpt lat="43.63869475866622" lon="6.06380735767016"><ele>492.33333333333337</ele><time>2026-04-22T09:53:08Z</time></trkpt><trkpt lat="43.63886453469227" lon="6.063812044082931"><ele>492.0</ele><time>2026-04-22T09:53:09Z</time></trkpt><trkpt lat="43.63903006340277" lon="6.063820737769205"><ele>492.0</ele><time>2026-04-22T09:53:10Z</time></trkpt><trkpt lat="43.63920132515477" lon="6.063840975366079"><ele>492.0</ele><time>2026-04-22T09:53:11Z</time></trkpt><trkpt lat="43.63937848529066" lon="6.063859033899934"><ele>492.0</ele><time>2026-04-22T09:53:12Z</time></trkpt><trkpt lat="43.639554103943695" lon="6.063868379038231"><ele>491.33333333333337</ele><time>2026-04-22T09:53:13Z</time></trkpt><trkpt lat="43.639722271602444" lon="6.063871815130086"><ele>490.6666666666667</ele><time>2026-04-22T09:53:14Z</time></trkpt><trkpt lat="43.639885619171146" lon="6.063874351499544"><ele>490.0</ele><time>2026-04-22T09:53:15Z</time></trkpt><trkpt lat="43.64003968755266" lon="6.063906031457985"><ele>490.0</ele><time>2026-04-22T09:53:16Z</time></trkpt><trkpt lat="43.64019375453396" lon="6.063892880188907"><ele>490.0</ele><time>2026-04-22T09:53:17Z</time></trkpt><trkpt lat="43.640337885913205" lon="6.06390333351629"><ele>490.0</ele><time>2026-04-22T09:53:18Z</time></trkpt><trkpt lat="43.64048025867514" lon="6.063914139892671"><ele>490.0</ele><time>2026-04-22T09:53:19Z</time></trkpt><trkpt lat="43.64062358530938" lon="6.063923599606575"><ele>490.0</ele><time>2026-04-22T09:53:20Z</time></trkpt><trkpt lat="43.640754752330004" lon="6.063932261913406"><ele>490.0</ele><time>2026-04-22T09:53:21Z</time></trkpt><trkpt lat="43.640883082293556" lon="6.063950202571318"><ele>490.0</ele><time>2026-04-22T09:53:22Z</time></trkpt><trkpt lat="43.64100875974184" lon="6.063959129694702"><ele>490.0</ele><time>2026-04-22T09:53:23Z</time></trkpt><trkpt lat="43.64110894483761" lon="6.06395613222495"><ele>489.83333333333337</ele><time>2026-04-22T09:53:24Z</time></trkpt><trkpt lat="43.64120189114519" lon="6.063953154240415"><ele>489.6666666666667</ele><time>2026-04-22T09:53:25Z</time></trkpt><trkpt lat="43.64126500584646" lon="6.0639680071047115"><ele>489.5</ele><time>2026-04-22T09:53:26Z</time></trkpt><trkpt lat="43.641364972556076" lon="6.063943897125128"><ele>489.33333333333337</ele><time>2026-04-22T09:53:28Z</time></trkpt><trkpt lat="43.64146621866384" lon="6.063947703575133"><ele>489.1666666666667</ele><time>2026-04-22T09:53:30Z</time></trkpt><trkpt lat="43.641549641845856" lon="6.063941278458661"><ele>489.0</ele><time>2026-04-22T09:53:31Z</time></trkpt><trkpt lat="43.64164091171491" lon="6.063928752326779"><ele>489.0</ele><time>2026-04-22T09:53:32Z</time></trkpt><trkpt lat="43.64170836102926" lon="6.063911161900635"><ele>489.0</ele><time>2026-04-22T09:53:33Z</time></trkpt><trkpt lat="43.641801358199274" lon="6.063875471798045"><ele>489.0</ele><time>2026-04-22T09:53:34Z</time></trkpt><trkpt lat="43.641924071942256" lon="6.063821114644881"><ele>489.0</ele><time>2026-04-22T09:53:35Z</time></trkpt><trkpt lat="43.64205763376001" lon="6.06375321853892"><ele>489.0</ele><time>2026-04-22T09:53:36Z</time></trkpt><trkpt lat="43.642219761085954" lon="6.0636752037931405"><ele>489.33333333333337</ele><time>2026-04-22T09:53:37Z</time></trkpt><trkpt lat="43.64238922275061" lon="6.063572700788478"><ele>489.6666666666667</ele><time>2026-04-22T09:53:38Z</time></trkpt><trkpt lat="43.64255710921732" lon="6.063461953846479"><ele>490.0</ele><time>2026-04-22T09:53:39Z</time></trkpt><trkpt lat="43.64272906434004" lon="6.063359668257676"><ele>488.6666666666667</ele><time>2026-04-22T09:53:40Z</time></trkpt><trkpt lat="43.64289860042328" lon="6.063264342130959"><ele>487.33333333333337</ele><time>2026-04-22T09:53:41Z</time></trkpt><trkpt lat="43.64306256768663" lon="6.063191228788289"><ele>486.0</ele><time>2026-04-22T09:53:42Z</time></trkpt><trkpt lat="43.643216652122" lon="6.063130574496809"><ele>486.0</ele><time>2026-04-22T09:53:43Z</time></trkpt><trkpt lat="43.64335668170252" lon="6.063063260478068"><ele>486.0</ele><time>2026-04-22T09:53:44Z</time></trkpt><trkpt lat="43.64349177543133" lon="6.063003932172662"><ele>486.0</ele><time>2026-04-22T09:53:45Z</time></trkpt><trkpt lat="43.643618490450066" lon="6.062942283664553"><ele>486.0</ele><time>2026-04-22T09:53:46Z</time></trkpt><trkpt lat="43.643736045917166" lon="6.062886958995153"><ele>486.3333333333333</ele><time>2026-04-22T09:53:47Z</time></trkpt><trkpt lat="43.643825230605806" lon="6.062848986537494"><ele>486.66666666666663</ele><time>2026-04-22T09:53:48Z</time></trkpt><trkpt lat="43.64391479845549" lon="6.062887018220351"><ele>487.0</ele><time>2026-04-22T09:53:49Z</time></trkpt><trkpt lat="43.643986583245" lon="6.062910962904966"><ele>487.3333333333333</ele><time>2026-04-22T09:53:50Z</time></trkpt><trkpt lat="43.644039030320926" lon="6.062962158534315"><ele>487.66666666666663</ele><time>2026-04-22T09:53:51Z</time></trkpt><trkpt lat="43.644103155554234" lon="6.063035140853055"><ele>488.0</ele><time>2026-04-22T09:53:52Z</time></trkpt><trkpt lat="43.64410886715749" lon="6.063175082216323"><ele>487.5</ele><time>2026-04-22T09:53:53Z</time></trkpt><trkpt lat="43.64412684197817" lon="6.063315203620581"><ele>487.0</ele><time>2026-04-22T09:53:54Z</time></trkpt><trkpt lat="43.64419628264946" lon="6.063473970514282"><ele>486.5</ele><time>2026-04-22T09:53:55Z</time></trkpt><trkpt lat="43.64429911971602" lon="6.0635625929420005"><ele>486.0</ele><time>2026-04-22T09:53:56Z</time></trkpt><trkpt lat="43.644431646672224" lon="6.063609671126848"><ele>488.0</ele><time>2026-04-22T09:53:57Z</time></trkpt><trkpt lat="43.64457448361872" lon="6.063643939520323"><ele>490.0</ele><time>2026-04-22T09:53:58Z</time></trkpt><trkpt lat="43.6447187246528" lon="6.06370371566157"><ele>492.0</ele><time>2026-04-22T09:53:59Z</time></trkpt><trkpt lat="43.64487172679015" lon="6.063759249090772"><ele>492.0</ele><time>2026-04-22T09:54:00Z</time></trkpt><trkpt lat="43.64503054483027" lon="6.063816331279239"><ele>492.0</ele><time>2026-04-22T09:54:01Z</time></trkpt><trkpt lat="43.64519563329104" lon="6.063879763630456"><ele>492.0</ele><time>2026-04-22T09:54:02Z</time></trkpt><trkpt lat="43.645362515673526" lon="6.063960805501725"><ele>494.66666666666663</ele><time>2026-04-22T09:54:03Z</time></trkpt><trkpt lat="43.645523397753266" lon="6.06403465098405"><ele>497.3333333333333</ele><time>2026-04-22T09:54:04Z</time></trkpt><trkpt lat="43.645676282338435" lon="6.064107519581615"><ele>500.0</ele><time>2026-04-22T09:54:05.001Z</time></trkpt><trkpt lat="43.64582695680727" lon="6.0641806086041"><ele>496.25</ele><time>2026-04-22T09:54:06.001Z</time></trkpt><trkpt lat="43.64597195331711" lon="6.064252640632964"><ele>492.5</ele><time>2026-04-22T09:54:07.001Z</time></trkpt><trkpt lat="43.64610853389406" lon="6.064321727233878"><ele>488.75</ele><time>2026-04-22T09:54:08.001Z</time></trkpt><trkpt lat="43.64623438958081" lon="6.064428014936494"><ele>485.0</ele><time>2026-04-22T09:54:09.001Z</time></trkpt><trkpt lat="43.64634691118593" lon="6.0645546694482775"><ele>485.0</ele><time>2026-04-22T09:54:10.001Z</time></trkpt><trkpt lat="43.64645461129723" lon="6.064679541217242"><ele>485.0</ele><time>2026-04-22T09:54:11.001Z</time></trkpt><trkpt lat="43.64655264640011" lon="6.064792844110536"><ele>485.0</ele><time>2026-04-22T09:54:12.001Z</time></trkpt><trkpt lat="43.64664000509324" lon="6.064892959886871"><ele>485.0</ele><time>2026-04-22T09:54:13.001Z</time></trkpt><trkpt lat="43.646720923098805" lon="6.064991835478337"><ele>483.3333333333333</ele><time>2026-04-22T09:54:14.001Z</time></trkpt><trkpt lat="43.646779863876525" lon="6.065075079091825"><ele>481.66666666666663</ele><time>2026-04-22T09:54:15.001Z</time></trkpt><trkpt lat="43.64682074303621" lon="6.065166155757834"><ele>480.0</ele><time>2026-04-22T09:54:16.001Z</time></trkpt><trkpt lat="43.64682854577694" lon="6.0652764833863175"><ele>478.33333333333337</ele><time>2026-04-22T09:54:17.001Z</time></trkpt><trkpt lat="43.64680308247579" lon="6.065394179793174"><ele>476.6666666666667</ele><time>2026-04-22T09:54:18.001Z</time></trkpt><trkpt lat="43.646743442837696" lon="6.065503782203003"><ele>475.0</ele><time>2026-04-22T09:54:19.001Z</time></trkpt><trkpt lat="43.64668331242028" lon="6.065621794304289"><ele>475.0</ele><time>2026-04-22T09:54:20.001Z</time></trkpt><trkpt lat="43.64661800049672" lon="6.065757216469987"><ele>475.0</ele><time>2026-04-22T09:54:21.001Z</time></trkpt><trkpt lat="43.64655543633646" lon="6.0659125669763645"><ele>475.0</ele><time>2026-04-22T09:54:22.001Z</time></trkpt><trkpt lat="43.64649115226895" lon="6.066074730833843"><ele>475.0</ele><time>2026-04-22T09:54:23.001Z</time></trkpt><trkpt lat="43.64642281292629" lon="6.066241759352696"><ele>472.75</ele><time>2026-04-22T09:54:24.001Z</time></trkpt><trkpt lat="43.646345147948615" lon="6.066403445455349"><ele>470.5</ele><time>2026-04-22T09:54:25.001Z</time></trkpt><trkpt lat="43.64625731158722" lon="6.0665706267892805"><ele>468.25</ele><time>2026-04-22T09:54:26.001Z</time></trkpt><trkpt lat="43.64615675094431" lon="6.066725406865096"><ele>466.0</ele><time>2026-04-22T09:54:27.001Z</time></trkpt><trkpt lat="43.646056808216635" lon="6.0668607865726285"><ele>465.25</ele><time>2026-04-22T09:54:28.001Z</time></trkpt><trkpt lat="43.64596993075213" lon="6.0670009874899185"><ele>464.5</ele><time>2026-04-22T09:54:29.001Z</time></trkpt><trkpt lat="43.64589593530398" lon="6.06714766989847"><ele>463.75</ele><time>2026-04-22T09:54:30.001Z</time></trkpt><trkpt lat="43.64585548391916" lon="6.0673311293851"><ele>463.0</ele><time>2026-04-22T09:54:31.001Z</time></trkpt><trkpt lat="43.645851259957304" lon="6.067554376977746"><ele>462.0</ele><time>2026-04-22T09:54:32.001Z</time></trkpt><trkpt lat="43.64586312182574" lon="6.067814155624477"><ele>461.0</ele><time>2026-04-22T09:54:33.001Z</time></trkpt><trkpt lat="43.6458776333065" lon="6.068080231842323"><ele>460.0</ele><time>2026-04-22T09:54:34.001Z</time></trkpt><trkpt lat="43.645884607280436" lon="6.068341983935368"><ele>459.33333333333337</ele><time>2026-04-22T09:54:35.001Z</time></trkpt><trkpt lat="43.64589080216949" lon="6.068596287496371"><ele>458.66666666666663</ele><time>2026-04-22T09:54:36.001Z</time></trkpt><trkpt lat="43.64589475964108" lon="6.068848344835934"><ele>458.0</ele><time>2026-04-22T09:54:37.001Z</time></trkpt><trkpt lat="43.645893685056905" lon="6.069104224810025"><ele>457.3333333333333</ele><time>2026-04-22T09:54:38.001Z</time></trkpt><trkpt lat="43.645872472226884" lon="6.069361880675338"><ele>456.66666666666663</ele><time>2026-04-22T09:54:39.001Z</time></trkpt><trkpt lat="43.64584789322407" lon="6.069616526773638"><ele>456.0</ele><time>2026-04-22T09:54:40.001Z</time></trkpt><trkpt lat="43.64582056992582" lon="6.0698802634778115"><ele>455.66666666666663</ele><time>2026-04-22T09:54:41.001Z</time></trkpt><trkpt lat="43.645799587349146" lon="6.07014390837612"><ele>455.3333333333333</ele><time>2026-04-22T09:54:42.001Z</time></trkpt><trkpt lat="43.64577982334704" lon="6.070411091197909"><ele>455.0</ele><time>2026-04-22T09:54:43.001Z</time></trkpt><trkpt lat="43.64576208664638" lon="6.070675901990055"><ele>454.66666666666663</ele><time>2026-04-22T09:54:44.001Z</time></trkpt><trkpt lat="43.64574297859635" lon="6.070955724221761"><ele>454.33333333333337</ele><time>2026-04-22T09:54:45.001Z</time></trkpt><trkpt lat="43.64573875870115" lon="6.071256429809354"><ele>454.0</ele><time>2026-04-22T09:54:46.001Z</time></trkpt><trkpt lat="43.645759357117655" lon="6.0715750459045035"><ele>453.0</ele><time>2026-04-22T09:54:47.001Z</time></trkpt><trkpt lat="43.645788871573664" lon="6.0719067515927945"><ele>452.0</ele><time>2026-04-22T09:54:48Z</time></trkpt><trkpt lat="43.64581343338253" lon="6.0722558959553234"><ele>451.0</ele><time>2026-04-22T09:54:49Z</time></trkpt><trkpt lat="43.64583115925436" lon="6.072602378766481"><ele>450.0</ele><time>2026-04-22T09:54:50Z</time></trkpt><trkpt lat="43.64584921296873" lon="6.072971456834822"><ele>449.0</ele><time>2026-04-22T09:54:51Z</time></trkpt><trkpt lat="43.645863000932444" lon="6.073313613469023"><ele>448.0</ele><time>2026-04-22T09:54:52Z</time></trkpt><trkpt lat="43.645878753329576" lon="6.073645929866696"><ele>448.0</ele><time>2026-04-22T09:54:53Z</time></trkpt><trkpt lat="43.64588157164931" lon="6.073980793629308"><ele>448.0</ele><time>2026-04-22T09:54:54Z</time></trkpt><trkpt lat="43.64590386810705" lon="6.074283353634184"><ele>447.0</ele><time>2026-04-22T09:54:55Z</time></trkpt><trkpt lat="43.645912236665424" lon="6.074593255152519"><ele>446.0</ele><time>2026-04-22T09:54:56Z</time></trkpt><trkpt lat="43.645914424390796" lon="6.074903107798091"><ele>445.0</ele><time>2026-04-22T09:54:57Z</time></trkpt><trkpt lat="43.645909940128256" lon="6.0752104085238585"><ele>445.0</ele><time>2026-04-22T09:54:58Z</time></trkpt><trkpt lat="43.64590207078842" lon="6.07551804478684"><ele>445.0</ele><time>2026-04-22T09:54:59Z</time></trkpt><trkpt lat="43.64588945996967" lon="6.0758121738148"><ele>445.0</ele><time>2026-04-22T09:55:00Z</time></trkpt><trkpt lat="43.645863973796956" lon="6.076098689401363"><ele>445.33333333333337</ele><time>2026-04-22T09:55:01Z</time></trkpt><trkpt lat="43.64586784938691" lon="6.07638531588948"><ele>445.66666666666663</ele><time>2026-04-22T09:55:02Z</time></trkpt><trkpt lat="43.64585424749534" lon="6.076669840839807"><ele>446.0</ele><time>2026-04-22T09:55:03Z</time></trkpt><trkpt lat="43.64584627500003" lon="6.076949832135584"><ele>447.0</ele><time>2026-04-22T09:55:04Z</time></trkpt><trkpt lat="43.645842237928655" lon="6.077235990227339"><ele>448.0</ele><time>2026-04-22T09:55:05Z</time></trkpt><trkpt lat="43.645839777502246" lon="6.077517641598351"><ele>449.0</ele><time>2026-04-22T09:55:06Z</time></trkpt><trkpt lat="43.64583405120933" lon="6.0777997600707785"><ele>449.0</ele><time>2026-04-22T09:55:07Z</time></trkpt><trkpt lat="43.64583655052811" lon="6.078087340341324"><ele>449.0</ele><time>2026-04-22T09:55:08Z</time></trkpt><trkpt lat="43.64584642988337" lon="6.078374763249817"><ele>449.0</ele><time>2026-04-22T09:55:09Z</time></trkpt><trkpt lat="43.64586797146219" lon="6.078668015879496"><ele>448.5</ele><time>2026-04-22T09:55:10Z</time></trkpt><trkpt lat="43.64591606631553" lon="6.0789806242693825"><ele>448.0</ele><time>2026-04-22T09:55:11Z</time></trkpt><trkpt lat="43.64597615532837" lon="6.079290756974393"><ele>451.0</ele><time>2026-04-22T09:55:12Z</time></trkpt><trkpt lat="43.64603808572261" lon="6.07960576420272"><ele>454.0</ele><time>2026-04-22T09:55:13Z</time></trkpt><trkpt lat="43.64604764655593" lon="6.079918454689973"><ele>454.6666666666667</ele><time>2026-04-22T09:55:14Z</time></trkpt><trkpt lat="43.646064488465356" lon="6.080212186353831"><ele>455.33333333333337</ele><time>2026-04-22T09:55:15Z</time></trkpt><trkpt lat="43.64608980701098" lon="6.080474887542011"><ele>456.0</ele><time>2026-04-22T09:55:16Z</time></trkpt><trkpt lat="43.646102922221026" lon="6.080705162104195"><ele>456.0</ele><time>2026-04-22T09:55:17Z</time></trkpt><trkpt lat="43.64612848566603" lon="6.080896723944738"><ele>456.0</ele><time>2026-04-22T09:55:18Z</time></trkpt><trkpt lat="43.64616194466723" lon="6.081068540691818"><ele>456.0</ele><time>2026-04-22T09:55:19Z</time></trkpt><trkpt lat="43.646291124470764" lon="6.081206291701647"><ele>456.0</ele><time>2026-04-22T09:55:20Z</time></trkpt><trkpt lat="43.64642133303164" lon="6.081279012417598"><ele>456.0</ele><time>2026-04-22T09:55:21Z</time></trkpt><trkpt lat="43.64655498800025" lon="6.081316576830809"><ele>456.0</ele><time>2026-04-22T09:55:22Z</time></trkpt><trkpt lat="43.64668312559795" lon="6.081315955508335"><ele>456.0</ele><time>2026-04-22T09:55:23Z</time></trkpt><trkpt lat="43.646772144442856" lon="6.0813565607705735"><ele>456.0</ele><time>2026-04-22T09:55:24Z</time></trkpt><trkpt lat="43.64682366802607" lon="6.081452211857494"><ele>456.0</ele><time>2026-04-22T09:55:25Z</time></trkpt><trkpt lat="43.64682895130679" lon="6.081572016792031"><ele>458.20000000000005</ele><time>2026-04-22T09:55:26Z</time></trkpt><trkpt lat="43.64677253207933" lon="6.08166993866339"><ele>460.40000000000003</ele><time>2026-04-22T09:55:27Z</time></trkpt><trkpt lat="43.64667901763727" lon="6.081714948201742"><ele>462.6</ele><time>2026-04-22T09:55:28Z</time></trkpt><trkpt lat="43.64657523548858" lon="6.081731707285433"><ele>464.8</ele><time>2026-04-22T09:55:29Z</time></trkpt><trkpt lat="43.646447744087425" lon="6.081761822099517"><ele>467.0</ele><time>2026-04-22T09:55:30Z</time></trkpt><trkpt lat="43.64631892962767" lon="6.081825941727131"><ele>467.0</ele><time>2026-04-22T09:55:31Z</time></trkpt><trkpt lat="43.64618256869757" lon="6.081916142633083"><ele>467.0</ele><time>2026-04-22T09:55:32Z</time></trkpt><trkpt lat="43.6460365770475" lon="6.082007331859726"><ele>467.0</ele><time>2026-04-22T09:55:33Z</time></trkpt><trkpt lat="43.645875739203106" lon="6.082108008852898"><ele>465.3333333333333</ele><time>2026-04-22T09:55:34Z</time></trkpt><trkpt lat="43.64571708292468" lon="6.082222454031319"><ele>463.66666666666663</ele><time>2026-04-22T09:55:35Z</time></trkpt><trkpt lat="43.64557022982754" lon="6.082342864815215"><ele>462.0</ele><time>2026-04-22T09:55:36Z</time></trkpt><trkpt lat="43.64542612218115" lon="6.082480025823485"><ele>464.66666666666663</ele><time>2026-04-22T09:55:37Z</time></trkpt><trkpt lat="43.645284142152875" lon="6.082613216952857"><ele>467.3333333333333</ele><time>2026-04-22T09:55:38Z</time></trkpt><trkpt lat="43.64516566437272" lon="6.08271492423037"><ele>470.0</ele><time>2026-04-22T09:55:39Z</time></trkpt><trkpt lat="43.64505288444568" lon="6.082831234472144"><ele>470.0</ele><time>2026-04-22T09:55:40Z</time></trkpt><trkpt lat="43.64496146532335" lon="6.082954007632505"><ele>470.0</ele><time>2026-04-22T09:55:41Z</time></trkpt><trkpt lat="43.64491180148132" lon="6.0830885395610315"><ele>470.0</ele><time>2026-04-22T09:55:42Z</time></trkpt><trkpt lat="43.64489414619666" lon="6.083240524978481"><ele>470.0</ele><time>2026-04-22T09:55:43Z</time></trkpt><trkpt lat="43.6449022076979" lon="6.0833690837237"><ele>470.0</ele><time>2026-04-22T09:55:44Z</time></trkpt><trkpt lat="43.6449244744821" lon="6.083500496193584"><ele>471.0</ele><time>2026-04-22T09:55:45Z</time></trkpt><trkpt lat="43.644948688782286" lon="6.083642407387381"><ele>472.0</ele><time>2026-04-22T09:55:46Z</time></trkpt><trkpt lat="43.64496576345395" lon="6.083803458959958"><ele>473.0</ele><time>2026-04-22T09:55:47Z</time></trkpt><trkpt lat="43.644987784615196" lon="6.083966940037582"><ele>474.0</ele><time>2026-04-22T09:55:48Z</time></trkpt><trkpt lat="43.64503764623471" lon="6.084126782984616"><ele>475.25</ele><time>2026-04-22T09:55:49Z</time></trkpt><trkpt lat="43.6451155137763" lon="6.084240321461651"><ele>476.5</ele><time>2026-04-22T09:55:50Z</time></trkpt><trkpt lat="43.64520871757472" lon="6.084312798835913"><ele>477.75</ele><time>2026-04-22T09:55:51Z</time></trkpt><trkpt lat="43.64533874179585" lon="6.0843535715720884"><ele>479.0</ele><time>2026-04-22T09:55:52Z</time></trkpt><trkpt lat="43.64547815998621" lon="6.084398643973198"><ele>481.0</ele><time>2026-04-22T09:55:53Z</time></trkpt><trkpt lat="43.645613334665164" lon="6.084467321653836"><ele>483.0</ele><time>2026-04-22T09:55:54Z</time></trkpt><trkpt lat="43.645761111873966" lon="6.084522776952423"><ele>485.0</ele><time>2026-04-22T09:55:55Z</time></trkpt><trkpt lat="43.645921192199296" lon="6.0845966018549476"><ele>485.0</ele><time>2026-04-22T09:55:56Z</time></trkpt><trkpt lat="43.646086208235694" lon="6.084677369292885"><ele>485.0</ele><time>2026-04-22T09:55:57Z</time></trkpt><trkpt lat="43.64626076929644" lon="6.084761237271417"><ele>485.0</ele><time>2026-04-22T09:55:58Z</time></trkpt><trkpt lat="43.64644386705818" lon="6.084841130027768"><ele>485.66666666666663</ele><time>2026-04-22T09:55:59Z</time></trkpt><trkpt lat="43.64664063848747" lon="6.084926181705304"><ele>486.33333333333337</ele><time>2026-04-22T09:56:00.001Z</time></trkpt><trkpt lat="43.646839385214776" lon="6.0850080436377825"><ele>487.0</ele><time>2026-04-22T09:56:01.001Z</time></trkpt><trkpt lat="43.64703585312031" lon="6.085097847038315"><ele>488.33333333333337</ele><time>2026-04-22T09:56:02.001Z</time></trkpt><trkpt lat="43.64723605272384" lon="6.085185757787716"><ele>489.66666666666663</ele><time>2026-04-22T09:56:03.001Z</time></trkpt><trkpt lat="43.64744433377849" lon="6.085277875419381"><ele>491.0</ele><time>2026-04-22T09:56:04.001Z</time></trkpt><trkpt lat="43.64765250178131" lon="6.085364921039297"><ele>491.0</ele><time>2026-04-22T09:56:05.001Z</time></trkpt><trkpt lat="43.64784967358689" lon="6.085443298748717"><ele>491.0</ele><time>2026-04-22T09:56:06.001Z</time></trkpt><trkpt lat="43.64806958954658" lon="6.085546007500978"><ele>491.0</ele><time>2026-04-22T09:56:07.001Z</time></trkpt><trkpt lat="43.64828905094318" lon="6.085633564361574"><ele>491.0</ele><time>2026-04-22T09:56:08.001Z</time></trkpt><trkpt lat="43.64849897236042" lon="6.085707480092448"><ele>491.0</ele><time>2026-04-22T09:56:09.001Z</time></trkpt><trkpt lat="43.64868957979862" lon="6.085755401048387"><ele>491.0</ele><time>2026-04-22T09:56:10.001Z</time></trkpt><trkpt lat="43.64884294453387" lon="6.08576505361193"><ele>493.20000000000005</ele><time>2026-04-22T09:56:11.001Z</time></trkpt><trkpt lat="43.648975988193854" lon="6.0857665639260725"><ele>495.40000000000003</ele><time>2026-04-22T09:56:12.001Z</time></trkpt><trkpt lat="43.649093387225655" lon="6.085767444677283"><ele>497.6</ele><time>2026-04-22T09:56:13.001Z</time></trkpt><trkpt lat="43.64919377817683" lon="6.085794472774851"><ele>499.8</ele><time>2026-04-22T09:56:14.001Z</time></trkpt><trkpt lat="43.64925561558245" lon="6.085878167493969"><ele>502.0</ele><time>2026-04-22T09:56:15.001Z</time></trkpt><trkpt lat="43.649248098353155" lon="6.086033599164313"><ele>502.0</ele><time>2026-04-22T09:56:16.001Z</time></trkpt><trkpt lat="43.64907174421091" lon="6.086155741492966"><ele>502.0</ele><time>2026-04-22T09:56:18.001Z</time></trkpt><trkpt lat="43.64896195877677" lon="6.0862410507727605"><ele>502.0</ele><time>2026-04-22T09:56:19.001Z</time></trkpt><trkpt lat="43.64884705656422" lon="6.086353928010687"><ele>502.0</ele><time>2026-04-22T09:56:20.001Z</time></trkpt><trkpt lat="43.64873564613211" lon="6.086514319909667"><ele>502.0</ele><time>2026-04-22T09:56:21.001Z</time></trkpt><trkpt lat="43.64861547772614" lon="6.08669091846027"><ele>502.0</ele><time>2026-04-22T09:56:22.001Z</time></trkpt><trkpt lat="43.64847125618073" lon="6.086858280323527"><ele>503.0</ele><time>2026-04-22T09:56:23.001Z</time></trkpt><trkpt lat="43.64834602883915" lon="6.087038076361933"><ele>504.0</ele><time>2026-04-22T09:56:24.001Z</time></trkpt><trkpt lat="43.64821978500601" lon="6.087197942449348"><ele>505.0</ele><time>2026-04-22T09:56:25.001Z</time></trkpt><trkpt lat="43.648084815394704" lon="6.087331528080332"><ele>507.33333333333337</ele><time>2026-04-22T09:56:26.001Z</time></trkpt><trkpt lat="43.647944678661496" lon="6.087457722438099"><ele>509.66666666666663</ele><time>2026-04-22T09:56:27.001Z</time></trkpt><trkpt lat="43.6477795357478" lon="6.0875911833213"><ele>512.0</ele><time>2026-04-22T09:56:28.001Z</time></trkpt><trkpt lat="43.647632743972714" lon="6.087677375202836"><ele>512.0</ele><time>2026-04-22T09:56:29.001Z</time></trkpt><trkpt lat="43.64749264278454" lon="6.087775428368035"><ele>512.0</ele><time>2026-04-22T09:56:30.001Z</time></trkpt><trkpt lat="43.64736782643783" lon="6.087857222032367"><ele>512.0</ele><time>2026-04-22T09:56:31.001Z</time></trkpt><trkpt lat="43.647247170681105" lon="6.087956162713549"><ele>512.0</ele><time>2026-04-22T09:56:32.001Z</time></trkpt><trkpt lat="43.64714407761315" lon="6.088088603650699"><ele>512.0</ele><time>2026-04-22T09:56:33.001Z</time></trkpt><trkpt lat="43.647064116904815" lon="6.088254662998401"><ele>512.0</ele><time>2026-04-22T09:56:34.001Z</time></trkpt><trkpt lat="43.64702681093452" lon="6.088452959310971"><ele>512.0</ele><time>2026-04-22T09:56:35.001Z</time></trkpt><trkpt lat="43.6470453784698" lon="6.088674861033879"><ele>513.6666666666666</ele><time>2026-04-22T09:56:36.001Z</time></trkpt><trkpt lat="43.64710725625865" lon="6.088913685489072"><ele>515.3333333333334</ele><time>2026-04-22T09:56:37.001Z</time></trkpt><trkpt lat="43.64718877273997" lon="6.0891391587197"><ele>517.0</ele><time>2026-04-22T09:56:38.001Z</time></trkpt><trkpt lat="43.64727655529459" lon="6.089377102439202"><ele>518.3333333333334</ele><time>2026-04-22T09:56:39.001Z</time></trkpt><trkpt lat="43.6473710145747" lon="6.089645311458984"><ele>519.6666666666666</ele><time>2026-04-22T09:56:40.001Z</time></trkpt><trkpt lat="43.64745279770725" lon="6.089917029898287"><ele>521.0</ele><time>2026-04-22T09:56:41.001Z</time></trkpt><trkpt lat="43.647549038414375" lon="6.090204474057458"><ele>522.0</ele><time>2026-04-22T09:56:42.001Z</time></trkpt><trkpt lat="43.647649909632136" lon="6.0905085505543965"><ele>523.0</ele><time>2026-04-22T09:56:43.001Z</time></trkpt><trkpt lat="43.647754540597326" lon="6.090816216075062"><ele>524.0</ele><time>2026-04-22T09:56:44.001Z</time></trkpt><trkpt lat="43.647852191121515" lon="6.091120525142268"><ele>525.0</ele><time>2026-04-22T09:56:45.001Z</time></trkpt><trkpt lat="43.64794664020139" lon="6.091406282394213"><ele>525.5</ele><time>2026-04-22T09:56:46.001Z</time></trkpt><trkpt lat="43.64804792048639" lon="6.091692963014457"><ele>526.0</ele><time>2026-04-22T09:56:47.001Z</time></trkpt><trkpt lat="43.64814877927876" lon="6.091977390004878"><ele>526.0</ele><time>2026-04-22T09:56:48.001Z</time></trkpt><trkpt lat="43.64824686394232" lon="6.092266072566461"><ele>526.0</ele><time>2026-04-22T09:56:49.001Z</time></trkpt><trkpt lat="43.648345853568074" lon="6.092554444043093"><ele>525.0</ele><time>2026-04-22T09:56:50.001Z</time></trkpt><trkpt lat="43.648437805349936" lon="6.092842846863813"><ele>524.0</ele><time>2026-04-22T09:56:51.001Z</time></trkpt><trkpt lat="43.64852756478278" lon="6.093127868193319"><ele>524.0</ele><time>2026-04-22T09:56:52.001Z</time></trkpt><trkpt lat="43.64861917526062" lon="6.093419131414232"><ele>524.0</ele><time>2026-04-22T09:56:53.001Z</time></trkpt><trkpt lat="43.6487172268424" lon="6.09369815097733"><ele>524.0</ele><time>2026-04-22T09:56:54Z</time></trkpt><trkpt lat="43.648805736879375" lon="6.093972348332208"><ele>524.0</ele><time>2026-04-22T09:56:55Z</time></trkpt><trkpt lat="43.64889708237834" lon="6.094243833252261"><ele>524.0</ele><time>2026-04-22T09:56:56Z</time></trkpt><trkpt lat="43.64898613054539" lon="6.094513943926604"><ele>524.6666666666666</ele><time>2026-04-22T09:56:57Z</time></trkpt><trkpt lat="43.64907745218899" lon="6.094781797337935"><ele>525.3333333333334</ele><time>2026-04-22T09:56:58Z</time></trkpt><trkpt lat="43.649166429065126" lon="6.0950538991494225"><ele>526.0</ele><time>2026-04-22T09:56:59Z</time></trkpt><trkpt lat="43.6492621536988" lon="6.095335197908384"><ele>526.6666666666667</ele><time>2026-04-22T09:57:00Z</time></trkpt><trkpt lat="43.64936228019819" lon="6.0956070222275365"><ele>527.3333333333334</ele><time>2026-04-22T09:57:01Z</time></trkpt><trkpt lat="43.64944563903292" lon="6.095889825864996"><ele>528.0</ele><time>2026-04-22T09:57:02Z</time></trkpt><trkpt lat="43.64954714630062" lon="6.096169524072416"><ele>528.5</ele><time>2026-04-22T09:57:03Z</time></trkpt><trkpt lat="43.649642564692485" lon="6.0964547081535985"><ele>529.0</ele><time>2026-04-22T09:57:04Z</time></trkpt><trkpt lat="43.64974033916884" lon="6.096752793665843"><ele>529.6666666666667</ele><time>2026-04-22T09:57:05Z</time></trkpt><trkpt lat="43.649835001465746" lon="6.097034996500782"><ele>530.3333333333334</ele><time>2026-04-22T09:57:06Z</time></trkpt><trkpt lat="43.64993031796672" lon="6.097314578129277"><ele>531.0</ele><time>2026-04-22T09:57:07Z</time></trkpt><trkpt lat="43.65002040570813" lon="6.097588071913228"><ele>531.3333333333334</ele><time>2026-04-22T09:57:08Z</time></trkpt><trkpt lat="43.650114697019255" lon="6.097850994391186"><ele>531.6666666666667</ele><time>2026-04-22T09:57:09Z</time></trkpt><trkpt lat="43.65020800439842" lon="6.098115169032132"><ele>532.0</ele><time>2026-04-22T09:57:10Z</time></trkpt><trkpt lat="43.65028307653828" lon="6.098396990215772"><ele>531.3333333333334</ele><time>2026-04-22T09:57:11Z</time></trkpt><trkpt lat="43.65038367828255" lon="6.098658999827983"><ele>530.6666666666666</ele><time>2026-04-22T09:57:12Z</time></trkpt><trkpt lat="43.6504661032304" lon="6.098930685610577"><ele>530.0</ele><time>2026-04-22T09:57:13Z</time></trkpt><trkpt lat="43.65055193043783" lon="6.099208306031838"><ele>530.0</ele><time>2026-04-22T09:57:14Z</time></trkpt><trkpt lat="43.65064350610276" lon="6.099493750272283"><ele>530.0</ele><time>2026-04-22T09:57:15Z</time></trkpt><trkpt lat="43.650738558968634" lon="6.0997655766090855"><ele>530.0</ele><time>2026-04-22T09:57:16Z</time></trkpt><trkpt lat="43.650832351753266" lon="6.100053455250471"><ele>529.0</ele><time>2026-04-22T09:57:17Z</time></trkpt><trkpt lat="43.650929338773444" lon="6.100337253432195"><ele>528.0</ele><time>2026-04-22T09:57:18Z</time></trkpt><trkpt lat="43.65102438745449" lon="6.100619320490805"><ele>528.5</ele><time>2026-04-22T09:57:19Z</time></trkpt><trkpt lat="43.651115254729184" lon="6.100910235461944"><ele>529.0</ele><time>2026-04-22T09:57:20Z</time></trkpt><trkpt lat="43.65121335684309" lon="6.101198202356252"><ele>529.0</ele><time>2026-04-22T09:57:21Z</time></trkpt><trkpt lat="43.65130353435103" lon="6.101489449072796"><ele>529.0</ele><time>2026-04-22T09:57:22Z</time></trkpt><trkpt lat="43.651397435607954" lon="6.101775903282374"><ele>529.0</ele><time>2026-04-22T09:57:23Z</time></trkpt><trkpt lat="43.65148967460055" lon="6.102057598795442"><ele>529.0</ele><time>2026-04-22T09:57:24Z</time></trkpt><trkpt lat="43.651583735999985" lon="6.102334976590526"><ele>529.0</ele><time>2026-04-22T09:57:25Z</time></trkpt><trkpt lat="43.651668906174415" lon="6.102621364279665"><ele>529.0</ele><time>2026-04-22T09:57:26Z</time></trkpt><trkpt lat="43.65176244080537" lon="6.102891373441687"><ele>529.0</ele><time>2026-04-22T09:57:27Z</time></trkpt><trkpt lat="43.65185253971693" lon="6.103164224674734"><ele>529.0</ele><time>2026-04-22T09:57:28Z</time></trkpt><trkpt lat="43.65193856053043" lon="6.103445217391737"><ele>529.6666666666667</ele><time>2026-04-22T09:57:29Z</time></trkpt><trkpt lat="43.6520256013603" lon="6.10372110834144"><ele>530.3333333333334</ele><time>2026-04-22T09:57:30Z</time></trkpt><trkpt lat="43.65211525080185" lon="6.104000694606017"><ele>531.0</ele><time>2026-04-22T09:57:31Z</time></trkpt><trkpt lat="43.652212304488984" lon="6.104284394891049"><ele>531.0</ele><time>2026-04-22T09:57:32Z</time></trkpt><trkpt lat="43.652310745812805" lon="6.1045769032818615"><ele>531.0</ele><time>2026-04-22T09:57:33Z</time></trkpt><trkpt lat="43.652411652200435" lon="6.104871349701745"><ele>531.0</ele><time>2026-04-22T09:57:34Z</time></trkpt><trkpt lat="43.65250735485205" lon="6.105166241225445"><ele>531.0</ele><time>2026-04-22T09:57:35Z</time></trkpt><trkpt lat="43.65260279462951" lon="6.105456457428233"><ele>531.0</ele><time>2026-04-22T09:57:36Z</time></trkpt><trkpt lat="43.652697599970004" lon="6.105760058905871"><ele>531.0</ele><time>2026-04-22T09:57:37Z</time></trkpt><trkpt lat="43.65280033284284" lon="6.1060652076924775"><ele>532.0</ele><time>2026-04-22T09:57:38Z</time></trkpt><trkpt lat="43.652904867908724" lon="6.106375133877174"><ele>533.0</ele><time>2026-04-22T09:57:39Z</time></trkpt><trkpt lat="43.65300883658834" lon="6.1066861855733805"><ele>533.0</ele><time>2026-04-22T09:57:40Z</time></trkpt><trkpt lat="43.65310546101188" lon="6.106986358733907"><ele>533.0</ele><time>2026-04-22T09:57:41Z</time></trkpt><trkpt lat="43.653206909368485" lon="6.107296421890353"><ele>533.3333333333333</ele><time>2026-04-22T09:57:42Z</time></trkpt><trkpt lat="43.653300615348456" lon="6.10756982646879"><ele>533.6666666666666</ele><time>2026-04-22T09:57:43Z</time></trkpt><trkpt lat="43.65338778365076" lon="6.107844117725054"><ele>534.0</ele><time>2026-04-22T09:57:44Z</time></trkpt><trkpt lat="43.65347721931889" lon="6.108117510592951"><ele>534.6666666666666</ele><time>2026-04-22T09:57:45Z</time></trkpt><trkpt lat="43.653569172724026" lon="6.1083945202265975"><ele>535.3333333333333</ele><time>2026-04-22T09:57:46Z</time></trkpt><trkpt lat="43.6536504502526" lon="6.1086659035642885"><ele>536.0</ele><time>2026-04-22T09:57:47Z</time></trkpt><trkpt lat="43.65372767641101" lon="6.108944311207779"><ele>536.3333333333333</ele><time>2026-04-22T09:57:48Z</time></trkpt><trkpt lat="43.65378549670513" lon="6.1092384095948065"><ele>536.6666666666666</ele><time>2026-04-22T09:57:49Z</time></trkpt><trkpt lat="43.653832236401875" lon="6.109545315320276"><ele>537.0</ele><time>2026-04-22T09:57:50Z</time></trkpt><trkpt lat="43.65386146859311" lon="6.109875200472299"><ele>537.0</ele><time>2026-04-22T09:57:51Z</time></trkpt><trkpt lat="43.653890870686425" lon="6.110191739804043"><ele>537.0</ele><time>2026-04-22T09:57:52Z</time></trkpt><trkpt lat="43.65392809277124" lon="6.110517782183373"><ele>538.0</ele><time>2026-04-22T09:57:53Z</time></trkpt><trkpt lat="43.65396557116009" lon="6.1108539085665505"><ele>539.0</ele><time>2026-04-22T09:57:54Z</time></trkpt><trkpt lat="43.65399661944272" lon="6.1111878106754824"><ele>539.0</ele><time>2026-04-22T09:57:55Z</time></trkpt><trkpt lat="43.65404311957209" lon="6.111536444468942"><ele>539.0</ele><time>2026-04-22T09:57:56Z</time></trkpt><trkpt lat="43.65409310226807" lon="6.111871269560056"><ele>539.0</ele><time>2026-04-22T09:57:57Z</time></trkpt><trkpt lat="43.65415865957125" lon="6.112210484396202"><ele>539.0</ele><time>2026-04-22T09:57:58Z</time></trkpt><trkpt lat="43.65424944783434" lon="6.112540651840844"><ele>539.0</ele><time>2026-04-22T09:57:59Z</time></trkpt><trkpt lat="43.654363920315376" lon="6.112880137202916"><ele>539.0</ele><time>2026-04-22T09:58:00Z</time></trkpt><trkpt lat="43.654493987935005" lon="6.11322108726371"><ele>539.0</ele><time>2026-04-22T09:58:01Z</time></trkpt><trkpt lat="43.654615126085005" lon="6.113551146793626"><ele>539.0</ele><time>2026-04-22T09:58:02Z</time></trkpt><trkpt lat="43.65472095603657" lon="6.113858710805891"><ele>538.5</ele><time>2026-04-22T09:58:03Z</time></trkpt><trkpt lat="43.654829499531644" lon="6.114165408584327"><ele>538.0</ele><time>2026-04-22T09:58:04Z</time></trkpt><trkpt lat="43.654933590654124" lon="6.11446141702347"><ele>538.0</ele><time>2026-04-22T09:58:05Z</time></trkpt><trkpt lat="43.65504238811489" lon="6.114751164020804"><ele>538.0</ele><time>2026-04-22T09:58:06Z</time></trkpt><trkpt lat="43.65513501971083" lon="6.11503772834774"><ele>537.0</ele><time>2026-04-22T09:58:07Z</time></trkpt><trkpt lat="43.65522248537629" lon="6.115320969409614"><ele>536.0</ele><time>2026-04-22T09:58:08Z</time></trkpt><trkpt lat="43.65530492081403" lon="6.115616134800547"><ele>536.5</ele><time>2026-04-22T09:58:09Z</time></trkpt><trkpt lat="43.65537392192887" lon="6.115915866734529"><ele>537.0</ele><time>2026-04-22T09:58:10Z</time></trkpt><trkpt lat="43.655441703636214" lon="6.116217212969713"><ele>537.0</ele><time>2026-04-22T09:58:11Z</time></trkpt><trkpt lat="43.655505856599795" lon="6.116507489185588"><ele>537.0</ele><time>2026-04-22T09:58:12.001Z</time></trkpt><trkpt lat="43.655578637941254" lon="6.116791250967165"><ele>537.0</ele><time>2026-04-22T09:58:13.001Z</time></trkpt><trkpt lat="43.6556692410182" lon="6.117070781396532"><ele>536.0</ele><time>2026-04-22T09:58:14.001Z</time></trkpt><trkpt lat="43.65577324912005" lon="6.117356819838646"><ele>535.0</ele><time>2026-04-22T09:58:15.001Z</time></trkpt><trkpt lat="43.65587930417306" lon="6.1176378742245205"><ele>535.0</ele><time>2026-04-22T09:58:16.001Z</time></trkpt><trkpt lat="43.65597243217236" lon="6.117926643689145"><ele>535.0</ele><time>2026-04-22T09:58:17.001Z</time></trkpt><trkpt lat="43.6560778297472" lon="6.118232024211172"><ele>536.5</ele><time>2026-04-22T09:58:18.001Z</time></trkpt><trkpt lat="43.65618784966109" lon="6.118532791485315"><ele>538.0</ele><time>2026-04-22T09:58:19.001Z</time></trkpt><trkpt lat="43.656293659144254" lon="6.118834122755339"><ele>539.5</ele><time>2026-04-22T09:58:20.001Z</time></trkpt><trkpt lat="43.656398652795616" lon="6.1191240747818805"><ele>541.0</ele><time>2026-04-22T09:58:21.001Z</time></trkpt><trkpt lat="43.656502710725746" lon="6.11939737945663"><ele>541.0</ele><time>2026-04-22T09:58:22.001Z</time></trkpt><trkpt lat="43.65660161357998" lon="6.119669698926642"><ele>541.0</ele><time>2026-04-22T09:58:23.001Z</time></trkpt><trkpt lat="43.65669324839559" lon="6.119930120030937"><ele>541.0</ele><time>2026-04-22T09:58:24.001Z</time></trkpt><trkpt lat="43.656781250559" lon="6.120178753666401"><ele>541.6666666666667</ele><time>2026-04-22T09:58:25.001Z</time></trkpt><trkpt lat="43.65685387082931" lon="6.120396019013142"><ele>542.3333333333334</ele><time>2026-04-22T09:58:26.001Z</time></trkpt><trkpt lat="43.656925573001196" lon="6.120601401609866"><ele>543.0</ele><time>2026-04-22T09:58:27.001Z</time></trkpt><trkpt lat="43.6569935451327" lon="6.120784503779514"><ele>544.3333333333334</ele><time>2026-04-22T09:58:28.001Z</time></trkpt><trkpt lat="43.65705374937071" lon="6.120977545273336"><ele>545.6666666666667</ele><time>2026-04-22T09:58:29.001Z</time></trkpt><trkpt lat="43.65711926814883" lon="6.121176274022562"><ele>547.0</ele><time>2026-04-22T09:58:30.001Z</time></trkpt><trkpt lat="43.65718558437611" lon="6.121378508275905"><ele>547.25</ele><time>2026-04-22T09:58:31.001Z</time></trkpt><trkpt lat="43.65726069934985" lon="6.121572017503225"><ele>547.5</ele><time>2026-04-22T09:58:32.001Z</time></trkpt><trkpt lat="43.65732701613382" lon="6.121747584540821"><ele>547.75</ele><time>2026-04-22T09:58:33.001Z</time></trkpt><trkpt lat="43.657397293759544" lon="6.121912329910961"><ele>548.0</ele><time>2026-04-22T09:58:34.001Z</time></trkpt><trkpt lat="43.657469907697994" lon="6.122052168980746"><ele>548.0</ele><time>2026-04-22T09:58:35.001Z</time></trkpt><trkpt lat="43.657535758925334" lon="6.122184907625763"><ele>548.0</ele><time>2026-04-22T09:58:36.001Z</time></trkpt><trkpt lat="43.65759453097048" lon="6.122322900753037"><ele>548.0</ele><time>2026-04-22T09:58:37.001Z</time></trkpt><trkpt lat="43.65765410595371" lon="6.122464507374254"><ele>548.0</ele><time>2026-04-22T09:58:38.001Z</time></trkpt><trkpt lat="43.657722218733575" lon="6.122623726256795"><ele>549.3333333333333</ele><time>2026-04-22T09:58:39.001Z</time></trkpt><trkpt lat="43.65779434702645" lon="6.122806162035938"><ele>550.6666666666666</ele><time>2026-04-22T09:58:40.001Z</time></trkpt><trkpt lat="43.65787607632188" lon="6.123009097719666"><ele>552.0</ele><time>2026-04-22T09:58:41.001Z</time></trkpt><trkpt lat="43.65794905631284" lon="6.123215877596997"><ele>551.5</ele><time>2026-04-22T09:58:42.001Z</time></trkpt><trkpt lat="43.65801163094579" lon="6.123398451597528"><ele>551.0</ele><time>2026-04-22T09:58:43.001Z</time></trkpt><trkpt lat="43.65806847698755" lon="6.123565234313796"><ele>550.5</ele><time>2026-04-22T09:58:44.001Z</time></trkpt><trkpt lat="43.65812412792081" lon="6.123711223663321"><ele>550.0</ele><time>2026-04-22T09:58:45.001Z</time></trkpt><trkpt lat="43.65817144503898" lon="6.123817528607536"><ele>550.0</ele><time>2026-04-22T09:58:46.001Z</time></trkpt><trkpt lat="43.65820522863678" lon="6.123915654952947"><ele>550.0</ele><time>2026-04-22T09:58:47.001Z</time></trkpt><trkpt lat="43.65823324572196" lon="6.124011512861025"><ele>550.0</ele><time>2026-04-22T09:58:48.001Z</time></trkpt><trkpt lat="43.65825666243582" lon="6.124137895512983"><ele>550.0</ele><time>2026-04-22T09:58:50.001Z</time></trkpt><trkpt lat="43.65824683570272" lon="6.124269985341275"><ele>550.0</ele><time>2026-04-22T09:59:02Z</time></trkpt><trkpt lat="43.65822216842553" lon="6.12437320925182"><ele>550.0</ele><time>2026-04-22T09:59:03Z</time></trkpt><trkpt lat="43.65817674416492" lon="6.124484497186413"><ele>550.5</ele><time>2026-04-22T09:59:04Z</time></trkpt><trkpt lat="43.65811988630026" lon="6.12460533599019"><ele>551.0</ele><time>2026-04-22T09:59:05Z</time></trkpt><trkpt lat="43.658054255393566" lon="6.124737960405025"><ele>551.5</ele><time>2026-04-22T09:59:06Z</time></trkpt><trkpt lat="43.65797925344968" lon="6.12488181971566"><ele>552.0</ele><time>2026-04-22T09:59:07Z</time></trkpt><trkpt lat="43.657897334425215" lon="6.125050505683518"><ele>552.0</ele><time>2026-04-22T09:59:08Z</time></trkpt><trkpt lat="43.65780937749726" lon="6.1252455664566146"><ele>552.0</ele><time>2026-04-22T09:59:09Z</time></trkpt><trkpt lat="43.657733523931306" lon="6.125463936171243"><ele>552.0</ele><time>2026-04-22T09:59:10Z</time></trkpt><trkpt lat="43.657643231421424" lon="6.125699540297918"><ele>549.6666666666666</ele><time>2026-04-22T09:59:11Z</time></trkpt><trkpt lat="43.657553698972144" lon="6.125933946429591"><ele>547.3333333333333</ele><time>2026-04-22T09:59:12Z</time></trkpt><trkpt lat="43.65746023374354" lon="6.1261564539241675"><ele>545.0</ele><time>2026-04-22T09:59:13Z</time></trkpt><trkpt lat="43.65737786280637" lon="6.126397132062529"><ele>546.3333333333333</ele><time>2026-04-22T09:59:14Z</time></trkpt><trkpt lat="43.65728317739525" lon="6.126627594626267"><ele>547.6666666666666</ele><time>2026-04-22T09:59:15Z</time></trkpt><trkpt lat="43.65719027975546" lon="6.126796274487446"><ele>549.0</ele><time>2026-04-22T09:59:16Z</time></trkpt><trkpt lat="43.65710090902894" lon="6.126941512416006"><ele>549.0</ele><time>2026-04-22T09:59:17Z</time></trkpt><trkpt lat="43.65702852886186" lon="6.127088933579005"><ele>549.0</ele><time>2026-04-22T09:59:18Z</time></trkpt><trkpt lat="43.65696511917864" lon="6.127302880378366"><ele>549.0</ele><time>2026-04-22T09:59:19Z</time></trkpt><trkpt lat="43.656878764662295" lon="6.127664992834499"><ele>547.0</ele><time>2026-04-22T09:59:20Z</time></trkpt><trkpt lat="43.65681305701047" lon="6.127877001712392"><ele>545.0</ele><time>2026-04-22T09:59:21Z</time></trkpt><trkpt lat="43.65674114823772" lon="6.12805995417161"><ele>543.0</ele><time>2026-04-22T09:59:22Z</time></trkpt><trkpt lat="43.656678382770664" lon="6.128224548659165"><ele>543.1999999999999</ele><time>2026-04-22T09:59:23Z</time></trkpt><trkpt lat="43.6566226547056" lon="6.128371072574271"><ele>543.4</ele><time>2026-04-22T09:59:24Z</time></trkpt><trkpt lat="43.65658253793344" lon="6.128497748840577"><ele>543.5999999999999</ele><time>2026-04-22T09:59:25Z</time></trkpt><trkpt lat="43.65656119978939" lon="6.128610088108692"><ele>543.8</ele><time>2026-04-22T09:59:26Z</time></trkpt><trkpt lat="43.65659300106317" lon="6.12871782117735"><ele>544.0</ele><time>2026-04-22T09:59:27Z</time></trkpt><trkpt lat="43.65666289708506" lon="6.12878849192474"><ele>544.0</ele><time>2026-04-22T09:59:28Z</time></trkpt><trkpt lat="43.65674989518212" lon="6.128791235030239"><ele>544.0</ele><time>2026-04-22T09:59:29Z</time></trkpt><trkpt lat="43.656849934043336" lon="6.128814549377832"><ele>544.0</ele><time>2026-04-22T09:59:30Z</time></trkpt><trkpt lat="43.65695974106496" lon="6.128834742316865"><ele>544.0</ele><time>2026-04-22T09:59:31Z</time></trkpt><trkpt lat="43.65708436134183" lon="6.128855044031159"><ele>544.0</ele><time>2026-04-22T09:59:32Z</time></trkpt><trkpt lat="43.657225242365044" lon="6.128878475815246"><ele>545.25</ele><time>2026-04-22T09:59:33Z</time></trkpt><trkpt lat="43.65737422406521" lon="6.128906775389087"><ele>546.5</ele><time>2026-04-22T09:59:34Z</time></trkpt><trkpt lat="43.65751525553581" lon="6.128931001520802"><ele>547.75</ele><time>2026-04-22T09:59:35Z</time></trkpt><trkpt lat="43.65764752718954" lon="6.128970640657984"><ele>549.0</ele><time>2026-04-22T09:59:36Z</time></trkpt><trkpt lat="43.65777205736235" lon="6.129030975003286"><ele>548.25</ele><time>2026-04-22T09:59:37Z</time></trkpt><trkpt lat="43.65789756834439" lon="6.129118903156358"><ele>547.5</ele><time>2026-04-22T09:59:38Z</time></trkpt><trkpt lat="43.65802625267091" lon="6.129217557015843"><ele>546.75</ele><time>2026-04-22T09:59:39Z</time></trkpt><trkpt lat="43.65811134879115" lon="6.129395765607662"><ele>546.0</ele><time>2026-04-22T09:59:40Z</time></trkpt><trkpt lat="43.65820931976975" lon="6.1295638693324825"><ele>546.0</ele><time>2026-04-22T09:59:41Z</time></trkpt><trkpt lat="43.65825301755791" lon="6.129760387568463"><ele>546.0</ele><time>2026-04-22T09:59:42Z</time></trkpt><trkpt lat="43.65829638320177" lon="6.129930824067019"><ele>546.0</ele><time>2026-04-22T09:59:43Z</time></trkpt><trkpt lat="43.65830037082662" lon="6.130098051614731"><ele>546.0</ele><time>2026-04-22T09:59:44Z</time></trkpt><trkpt lat="43.65828073981116" lon="6.130267910952575"><ele>545.0</ele><time>2026-04-22T09:59:45Z</time></trkpt><trkpt lat="43.658245903280225" lon="6.13042968410343"><ele>544.0</ele><time>2026-04-22T09:59:46Z</time></trkpt><trkpt lat="43.65823753315618" lon="6.1306131553251095"><ele>543.0</ele><time>2026-04-22T09:59:47Z</time></trkpt><trkpt lat="43.65825893127503" lon="6.130802288210953"><ele>542.0</ele><time>2026-04-22T09:59:48Z</time></trkpt><trkpt lat="43.65825411460861" lon="6.131007016954732"><ele>541.3333333333333</ele><time>2026-04-22T09:59:49Z</time></trkpt><trkpt lat="43.65823375144643" lon="6.131235971372773"><ele>540.6666666666666</ele><time>2026-04-22T09:59:50Z</time></trkpt><trkpt lat="43.65820262054437" lon="6.131481998087752"><ele>540.0</ele><time>2026-04-22T09:59:51Z</time></trkpt><trkpt lat="43.65818325215141" lon="6.1317339043926"><ele>539.3333333333334</ele><time>2026-04-22T09:59:52Z</time></trkpt><trkpt lat="43.658162561945346" lon="6.131982444485235"><ele>538.6666666666667</ele><time>2026-04-22T09:59:53Z</time></trkpt><trkpt lat="43.65814293683592" lon="6.132234452176652"><ele>538.0</ele><time>2026-04-22T09:59:54Z</time></trkpt><trkpt lat="43.65812420861547" lon="6.132484448416138"><ele>537.0</ele><time>2026-04-22T09:59:55Z</time></trkpt><trkpt lat="43.6581084460681" lon="6.132741495847145"><ele>536.0</ele><time>2026-04-22T09:59:56Z</time></trkpt><trkpt lat="43.65809763534044" lon="6.133007014550876"><ele>535.0</ele><time>2026-04-22T09:59:57Z</time></trkpt><trkpt lat="43.658084196243394" lon="6.1332662854032085"><ele>534.6666666666667</ele><time>2026-04-22T09:59:58Z</time></trkpt><trkpt lat="43.658070754018404" lon="6.1335130504623985"><ele>534.3333333333334</ele><time>2026-04-22T09:59:59Z</time></trkpt><trkpt lat="43.65806181533927" lon="6.133762476631205"><ele>534.0</ele><time>2026-04-22T10:00:00Z</time></trkpt><trkpt lat="43.65805447742992" lon="6.134014433826239"><ele>534.3333333333334</ele><time>2026-04-22T10:00:01Z</time></trkpt><trkpt lat="43.658041513152845" lon="6.1342653654118475"><ele>534.6666666666667</ele><time>2026-04-22T10:00:02Z</time></trkpt><trkpt lat="43.65802710305166" lon="6.134515813644542"><ele>535.0</ele><time>2026-04-22T10:00:03Z</time></trkpt><trkpt lat="43.65800840363655" lon="6.134754854745361"><ele>534.6666666666667</ele><time>2026-04-22T10:00:04Z</time></trkpt><trkpt lat="43.65800053768444" lon="6.135003910904605"><ele>534.3333333333334</ele><time>2026-04-22T10:00:05Z</time></trkpt><trkpt lat="43.65798391111005" lon="6.135260551777984"><ele>534.0</ele><time>2026-04-22T10:00:06Z</time></trkpt><trkpt lat="43.65797037680528" lon="6.135485777069061"><ele>534.0</ele><time>2026-04-22T10:00:07Z</time></trkpt><trkpt lat="43.65796642683412" lon="6.135698003115579"><ele>534.0</ele><time>2026-04-22T10:00:08Z</time></trkpt><trkpt lat="43.65796173417039" lon="6.1359030022388605"><ele>534.0</ele><time>2026-04-22T10:00:09Z</time></trkpt><trkpt lat="43.65794806169016" lon="6.136107436746205"><ele>533.0</ele><time>2026-04-22T10:00:10Z</time></trkpt><trkpt lat="43.65794066131525" lon="6.136347713717028"><ele>532.0</ele><time>2026-04-22T10:00:11Z</time></trkpt><trkpt lat="43.65793077470843" lon="6.136592737301604"><ele>531.0</ele><time>2026-04-22T10:00:12Z</time></trkpt><trkpt lat="43.65792255068501" lon="6.136823926629451"><ele>530.6666666666666</ele><time>2026-04-22T10:00:13Z</time></trkpt><trkpt lat="43.65791231876286" lon="6.137050115215052"><ele>530.3333333333333</ele><time>2026-04-22T10:00:14Z</time></trkpt><trkpt lat="43.657901298804525" lon="6.137280979465657"><ele>530.0</ele><time>2026-04-22T10:00:15Z</time></trkpt><trkpt lat="43.65788260190539" lon="6.137511581191521"><ele>530.0</ele><time>2026-04-22T10:00:16Z</time></trkpt><trkpt lat="43.657846591755515" lon="6.137746867111599"><ele>530.0</ele><time>2026-04-22T10:00:17Z</time></trkpt><trkpt lat="43.65779181912131" lon="6.137974360557608"><ele>530.0</ele><time>2026-04-22T10:00:18Z</time></trkpt><trkpt lat="43.657723742303716" lon="6.1381941534132"><ele>528.3333333333333</ele><time>2026-04-22T10:00:19Z</time></trkpt><trkpt lat="43.65763100911093" lon="6.1384030765696815"><ele>526.6666666666666</ele><time>2026-04-22T10:00:20Z</time></trkpt><trkpt lat="43.657526415391445" lon="6.138626430360422"><ele>525.0</ele><time>2026-04-22T10:00:21Z</time></trkpt><trkpt lat="43.6574128619155" lon="6.1388527989646455"><ele>524.6666666666666</ele><time>2026-04-22T10:00:22Z</time></trkpt><trkpt lat="43.65729690938264" lon="6.139079002440537"><ele>524.3333333333333</ele><time>2026-04-22T10:00:23Z</time></trkpt><trkpt lat="43.65717966193192" lon="6.139306567826269"><ele>524.0</ele><time>2026-04-22T10:00:24Z</time></trkpt><trkpt lat="43.65706397096959" lon="6.139532369514585"><ele>524.0</ele><time>2026-04-22T10:00:25Z</time></trkpt><trkpt lat="43.65696545966679" lon="6.139744399945982"><ele>524.0</ele><time>2026-04-22T10:00:26Z</time></trkpt><trkpt lat="43.65688494335321" lon="6.139952235916965"><ele>524.0</ele><time>2026-04-22T10:00:27Z</time></trkpt><trkpt lat="43.65681180398422" lon="6.14016636472008"><ele>523.3333333333333</ele><time>2026-04-22T10:00:28Z</time></trkpt><trkpt lat="43.65673378879426" lon="6.1403943333061655"><ele>522.6666666666666</ele><time>2026-04-22T10:00:29.001Z</time></trkpt><trkpt lat="43.656652233233714" lon="6.140628469792306"><ele>522.0</ele><time>2026-04-22T10:00:30.001Z</time></trkpt><trkpt lat="43.6565693335252" lon="6.140858037854143"><ele>522.0</ele><time>2026-04-22T10:00:31.001Z</time></trkpt><trkpt lat="43.656481057960114" lon="6.1410861480251056"><ele>522.0</ele><time>2026-04-22T10:00:32.001Z</time></trkpt><trkpt lat="43.65636245173639" lon="6.141286976071287"><ele>522.0</ele><time>2026-04-22T10:00:33.001Z</time></trkpt><trkpt lat="43.65623988693018" lon="6.141489546164207"><ele>520.6666666666666</ele><time>2026-04-22T10:00:34.001Z</time></trkpt><trkpt lat="43.656118378375915" lon="6.141666361436126"><ele>519.3333333333333</ele><time>2026-04-22T10:00:35.001Z</time></trkpt><trkpt lat="43.65601262285045" lon="6.14182551025877"><ele>518.0</ele><time>2026-04-22T10:00:36.001Z</time></trkpt><trkpt lat="43.65592532292418" lon="6.141952841084442"><ele>518.0</ele><time>2026-04-22T10:00:37.001Z</time></trkpt><trkpt lat="43.655855164855836" lon="6.142050570694158"><ele>518.0</ele><time>2026-04-22T10:00:38.001Z</time></trkpt><trkpt lat="43.65580405123711" lon="6.142122595507068"><ele>518.0</ele><time>2026-04-22T10:00:39.001Z</time></trkpt><trkpt lat="43.65574379858562" lon="6.142201138989771"><ele>518.0</ele><time>2026-04-22T10:00:41.001Z</time></trkpt><trkpt lat="43.65569962348133" lon="6.142263513428733"><ele>518.0</ele><time>2026-04-22T10:00:44.001Z</time></trkpt><trkpt lat="43.65562050336133" lon="6.142390699508622"><ele>518.0</ele><time>2026-04-22T10:00:47.001Z</time></trkpt><trkpt lat="43.655577314574934" lon="6.142474865672285"><ele>518.25</ele><time>2026-04-22T10:00:48.001Z</time></trkpt><trkpt lat="43.6555229707209" lon="6.1425685715177964"><ele>518.5</ele><time>2026-04-22T10:00:49.001Z</time></trkpt><trkpt lat="43.6554402763777" lon="6.142660223619682"><ele>518.75</ele><time>2026-04-22T10:00:50.001Z</time></trkpt><trkpt lat="43.65535774660041" lon="6.142780711273976"><ele>519.0</ele><time>2026-04-22T10:00:51.001Z</time></trkpt><trkpt lat="43.65525804490057" lon="6.142926188161812"><ele>518.3333333333334</ele><time>2026-04-22T10:00:52.001Z</time></trkpt><trkpt lat="43.655159042552796" lon="6.143094145814716"><ele>517.6666666666667</ele><time>2026-04-22T10:00:53.001Z</time></trkpt><trkpt lat="43.655041398527786" lon="6.1432515968273655"><ele>517.0</ele><time>2026-04-22T10:00:54.001Z</time></trkpt><trkpt lat="43.65491558299051" lon="6.143425506569278"><ele>517.0</ele><time>2026-04-22T10:00:55.001Z</time></trkpt><trkpt lat="43.65478203106971" lon="6.143606009073465"><ele>517.0</ele><time>2026-04-22T10:00:56.001Z</time></trkpt><trkpt lat="43.65464787557925" lon="6.143785642854242"><ele>517.0</ele><time>2026-04-22T10:00:57.001Z</time></trkpt><trkpt lat="43.654503812729025" lon="6.143959496023183"><ele>516.0</ele><time>2026-04-22T10:00:58.001Z</time></trkpt><trkpt lat="43.65434619561637" lon="6.144140429026755"><ele>515.0</ele><time>2026-04-22T10:00:59.001Z</time></trkpt><trkpt lat="43.65417879001752" lon="6.144317252568105"><ele>514.0</ele><time>2026-04-22T10:01:00.001Z</time></trkpt><trkpt lat="43.65400073021431" lon="6.144494157102793"><ele>514.0</ele><time>2026-04-22T10:01:01.001Z</time></trkpt><trkpt lat="43.65382324904094" lon="6.144663352759576"><ele>514.0</ele><time>2026-04-22T10:01:02.001Z</time></trkpt><trkpt lat="43.65364829302686" lon="6.144823712404246"><ele>514.0</ele><time>2026-04-22T10:01:03.001Z</time></trkpt><trkpt lat="43.653474746043315" lon="6.144985547907061"><ele>514.6666666666667</ele><time>2026-04-22T10:01:04.001Z</time></trkpt><trkpt lat="43.653301409834796" lon="6.145157502287018"><ele>515.3333333333334</ele><time>2026-04-22T10:01:05.001Z</time></trkpt><trkpt lat="43.653132741765965" lon="6.145325082954193"><ele>516.0</ele><time>2026-04-22T10:01:06Z</time></trkpt><trkpt lat="43.652963296303646" lon="6.145511094850789"><ele>516.0</ele><time>2026-04-22T10:01:07Z</time></trkpt><trkpt lat="43.65280826479677" lon="6.145705808496614"><ele>516.0</ele><time>2026-04-22T10:01:08Z</time></trkpt><trkpt lat="43.65266990843251" lon="6.145935555484454"><ele>516.0</ele><time>2026-04-22T10:01:09Z</time></trkpt><trkpt lat="43.652541485788454" lon="6.146201478195787"><ele>515.5</ele><time>2026-04-22T10:01:10Z</time></trkpt><trkpt lat="43.65240931311754" lon="6.146527145670614"><ele>515.0</ele><time>2026-04-22T10:01:11Z</time></trkpt><trkpt lat="43.652303282685736" lon="6.146839145908281"><ele>516.0</ele><time>2026-04-22T10:01:12Z</time></trkpt><trkpt lat="43.65228469278526" lon="6.147016927076174"><ele>517.0</ele><time>2026-04-22T10:01:13Z</time></trkpt><trkpt lat="43.652210827260305" lon="6.147263870809341"><ele>518.0</ele><time>2026-04-22T10:01:14Z</time></trkpt><trkpt lat="43.65213799796511" lon="6.1475514754896325"><ele>518.0</ele><time>2026-04-22T10:01:15Z</time></trkpt><trkpt lat="43.65206281033769" lon="6.147799397282444"><ele>518.0</ele><time>2026-04-22T10:01:16Z</time></trkpt><trkpt lat="43.65199612330376" lon="6.148033812011512"><ele>518.0</ele><time>2026-04-22T10:01:17Z</time></trkpt><trkpt lat="43.651957696066354" lon="6.148251527373"><ele>518.0</ele><time>2026-04-22T10:01:18Z</time></trkpt><trkpt lat="43.65197210318481" lon="6.148496877587608"><ele>518.0</ele><time>2026-04-22T10:01:19Z</time></trkpt><trkpt lat="43.6520161871584" lon="6.1487629152881995"><ele>518.0</ele><time>2026-04-22T10:01:20Z</time></trkpt><trkpt lat="43.65207239035891" lon="6.149025387165056"><ele>519.6666666666666</ele><time>2026-04-22T10:01:21Z</time></trkpt><trkpt lat="43.6521039733398" lon="6.149257987923438"><ele>521.3333333333334</ele><time>2026-04-22T10:01:22Z</time></trkpt><trkpt lat="43.65208018378284" lon="6.149482298447046"><ele>523.0</ele><time>2026-04-22T10:01:23Z</time></trkpt><trkpt lat="43.65209293192588" lon="6.149716175373221"><ele>524.3333333333334</ele><time>2026-04-22T10:01:24Z</time></trkpt><trkpt lat="43.652012458254916" lon="6.149945591911934"><ele>525.6666666666666</ele><time>2026-04-22T10:01:25Z</time></trkpt><trkpt lat="43.65193793638162" lon="6.150191240091113"><ele>527.0</ele><time>2026-04-22T10:01:26Z</time></trkpt><trkpt lat="43.651867650093656" lon="6.150447327380306"><ele>523.0</ele><time>2026-04-22T10:01:27Z</time></trkpt><trkpt lat="43.651798957487514" lon="6.150698664298194"><ele>519.0</ele><time>2026-04-22T10:01:28Z</time></trkpt><trkpt lat="43.65173055947424" lon="6.150946277741316"><ele>515.0</ele><time>2026-04-22T10:01:29Z</time></trkpt><trkpt lat="43.65166578156635" lon="6.15121029652296"><ele>515.0</ele><time>2026-04-22T10:01:30Z</time></trkpt><trkpt lat="43.65160364015594" lon="6.151467956111928"><ele>515.0</ele><time>2026-04-22T10:01:31Z</time></trkpt><trkpt lat="43.651544718369074" lon="6.151742060474325"><ele>515.0</ele><time>2026-04-22T10:01:32Z</time></trkpt><trkpt lat="43.65149083604842" lon="6.1520150146653885"><ele>515.6666666666666</ele><time>2026-04-22T10:01:33Z</time></trkpt><trkpt lat="43.651433027269924" lon="6.152266847687691"><ele>516.3333333333334</ele><time>2026-04-22T10:01:34Z</time></trkpt><trkpt lat="43.65139323093093" lon="6.152519584441921"><ele>517.0</ele><time>2026-04-22T10:01:35Z</time></trkpt><trkpt lat="43.65135162575884" lon="6.152776486899758"><ele>518.3333333333334</ele><time>2026-04-22T10:01:36Z</time></trkpt><trkpt lat="43.651343162709146" lon="6.153074554938281"><ele>519.6666666666666</ele><time>2026-04-22T10:01:37Z</time></trkpt><trkpt lat="43.65135723839035" lon="6.153361270132033"><ele>521.0</ele><time>2026-04-22T10:01:38Z</time></trkpt><trkpt lat="43.651401982272326" lon="6.153665777574465"><ele>521.5</ele><time>2026-04-22T10:01:39Z</time></trkpt><trkpt lat="43.65145507229309" lon="6.153971770833756"><ele>522.0</ele><time>2026-04-22T10:01:40Z</time></trkpt><trkpt lat="43.651502714252594" lon="6.154279428859336"><ele>522.0</ele><time>2026-04-22T10:01:41Z</time></trkpt><trkpt lat="43.65154859850756" lon="6.154572209530932"><ele>522.0</ele><time>2026-04-22T10:01:42Z</time></trkpt><trkpt lat="43.651569750253984" lon="6.154833989278169"><ele>522.0</ele><time>2026-04-22T10:01:43Z</time></trkpt><trkpt lat="43.651532437352856" lon="6.155092534678771"><ele>521.6666666666666</ele><time>2026-04-22T10:01:44Z</time></trkpt><trkpt lat="43.651487582068214" lon="6.155328818061237"><ele>521.3333333333333</ele><time>2026-04-22T10:01:45Z</time></trkpt><trkpt lat="43.6514198594821" lon="6.155575624648617"><ele>521.0</ele><time>2026-04-22T10:01:46Z</time></trkpt><trkpt lat="43.651352702348625" lon="6.155833440501658"><ele>520.6666666666666</ele><time>2026-04-22T10:01:47Z</time></trkpt><trkpt lat="43.6512862383182" lon="6.156094322944135"><ele>520.3333333333334</ele><time>2026-04-22T10:01:48Z</time></trkpt><trkpt lat="43.65121869714353" lon="6.156371842354317"><ele>520.0</ele><time>2026-04-22T10:01:49Z</time></trkpt><trkpt lat="43.65114174954324" lon="6.156640267620875"><ele>516.0</ele><time>2026-04-22T10:01:50Z</time></trkpt><trkpt lat="43.65106271804194" lon="6.156933765893423"><ele>512.0</ele><time>2026-04-22T10:01:51Z</time></trkpt><trkpt lat="43.650987993301186" lon="6.157220636932657"><ele>508.0</ele><time>2026-04-22T10:01:52Z</time></trkpt><trkpt lat="43.65091169251469" lon="6.157496550477461"><ele>508.0</ele><time>2026-04-22T10:01:53Z</time></trkpt><trkpt lat="43.65085129487506" lon="6.157717491507719"><ele>508.0</ele><time>2026-04-22T10:01:54Z</time></trkpt><trkpt lat="43.650796190576415" lon="6.157921183600728"><ele>508.0</ele><time>2026-04-22T10:01:55Z</time></trkpt><trkpt lat="43.65065544241061" lon="6.158272262939632"><ele>509.33333333333337</ele><time>2026-04-22T10:01:56Z</time></trkpt><trkpt lat="43.65052998379952" lon="6.1585247569781005"><ele>510.66666666666663</ele><time>2026-04-22T10:01:57Z</time></trkpt><trkpt lat="43.65043090562323" lon="6.15877570841891"><ele>512.0</ele><time>2026-04-22T10:01:58Z</time></trkpt><trkpt lat="43.65035205143893" lon="6.159024033225329"><ele>512.6666666666666</ele><time>2026-04-22T10:01:59Z</time></trkpt><trkpt lat="43.65030984987734" lon="6.15929603991746"><ele>513.3333333333334</ele><time>2026-04-22T10:02:00Z</time></trkpt><trkpt lat="43.65030039089226" lon="6.159576572804977"><ele>514.0</ele><time>2026-04-22T10:02:01Z</time></trkpt><trkpt lat="43.65033159172683" lon="6.159905215571802"><ele>514.0</ele><time>2026-04-22T10:02:02Z</time></trkpt><trkpt lat="43.65036118293615" lon="6.1602435155169015"><ele>514.0</ele><time>2026-04-22T10:02:03Z</time></trkpt><trkpt lat="43.650335824539496" lon="6.1605834017345185"><ele>516.0</ele><time>2026-04-22T10:02:04Z</time></trkpt><trkpt lat="43.65032076834184" lon="6.160933551109937"><ele>518.0</ele><time>2026-04-22T10:02:05Z</time></trkpt><trkpt lat="43.65030496967149" lon="6.161277801435324"><ele>518.5</ele><time>2026-04-22T10:02:06Z</time></trkpt><trkpt lat="43.65029831612444" lon="6.16161847165719"><ele>519.0</ele><time>2026-04-22T10:02:07Z</time></trkpt><trkpt lat="43.65026354701044" lon="6.161935251788603"><ele>515.3333333333334</ele><time>2026-04-22T10:02:08Z</time></trkpt><trkpt lat="43.65022463862261" lon="6.162230078187105"><ele>511.6666666666667</ele><time>2026-04-22T10:02:09Z</time></trkpt><trkpt lat="43.650192314099044" lon="6.162524259463973"><ele>508.0</ele><time>2026-04-22T10:02:10Z</time></trkpt><trkpt lat="43.65017878703777" lon="6.162823176030034"><ele>508.0</ele><time>2026-04-22T10:02:11Z</time></trkpt><trkpt lat="43.65018393111829" lon="6.16313778573016"><ele>508.0</ele><time>2026-04-22T10:02:12Z</time></trkpt><trkpt lat="43.65018947108058" lon="6.163459306487304"><ele>509.0</ele><time>2026-04-22T10:02:13Z</time></trkpt><trkpt lat="43.650179877166345" lon="6.163784119469399"><ele>510.0</ele><time>2026-04-22T10:02:14Z</time></trkpt><trkpt lat="43.650202828167274" lon="6.16411087175458"><ele>510.5</ele><time>2026-04-22T10:02:15Z</time></trkpt><trkpt lat="43.65020464832324" lon="6.164423389702708"><ele>511.0</ele><time>2026-04-22T10:02:16Z</time></trkpt><trkpt lat="43.65020622712997" lon="6.164738551304602"><ele>510.5</ele><time>2026-04-22T10:02:17Z</time></trkpt><trkpt lat="43.650210588431605" lon="6.16505826843276"><ele>510.0</ele><time>2026-04-22T10:02:18Z</time></trkpt><trkpt lat="43.65020884727162" lon="6.165363339298955"><ele>510.0</ele><time>2026-04-22T10:02:19Z</time></trkpt><trkpt lat="43.65021290919828" lon="6.165672683724735"><ele>510.0</ele><time>2026-04-22T10:02:20Z</time></trkpt><trkpt lat="43.650206209114955" lon="6.165958009737833"><ele>510.0</ele><time>2026-04-22T10:02:21Z</time></trkpt><trkpt lat="43.650226854493994" lon="6.166240047535472"><ele>509.66666666666663</ele><time>2026-04-22T10:02:22Z</time></trkpt><trkpt lat="43.6501964998942" lon="6.166480475408451"><ele>509.3333333333333</ele><time>2026-04-22T10:02:23Z</time></trkpt><trkpt lat="43.65018256264117" lon="6.166728662573898"><ele>509.0</ele><time>2026-04-22T10:02:24Z</time></trkpt><trkpt lat="43.65021384720496" lon="6.167001746777342"><ele>508.0</ele><time>2026-04-22T10:02:25Z</time></trkpt><trkpt lat="43.650277910616474" lon="6.167274694661702"><ele>507.0</ele><time>2026-04-22T10:02:26.001Z</time></trkpt><trkpt lat="43.65035654024974" lon="6.16757725636116"><ele>506.0</ele><time>2026-04-22T10:02:27.001Z</time></trkpt><trkpt lat="43.650436231362605" lon="6.167870805878582"><ele>508.0</ele><time>2026-04-22T10:02:28.001Z</time></trkpt><trkpt lat="43.650510366619294" lon="6.168161365728521"><ele>510.0</ele><time>2026-04-22T10:02:29.001Z</time></trkpt><trkpt lat="43.65057700576139" lon="6.168415587590838"><ele>512.0</ele><time>2026-04-22T10:02:30.001Z</time></trkpt><trkpt lat="43.650645938572225" lon="6.168660452542895"><ele>512.0</ele><time>2026-04-22T10:02:31.001Z</time></trkpt><trkpt lat="43.65070255813235" lon="6.168882955621249"><ele>512.0</ele><time>2026-04-22T10:02:32.001Z</time></trkpt><trkpt lat="43.65075463064301" lon="6.169087709184322"><ele>512.0</ele><time>2026-04-22T10:02:33.001Z</time></trkpt><trkpt lat="43.650819561032" lon="6.169302183282885"><ele>511.0</ele><time>2026-04-22T10:02:34.001Z</time></trkpt><trkpt lat="43.65090069750069" lon="6.169532449927813"><ele>510.0</ele><time>2026-04-22T10:02:35.001Z</time></trkpt><trkpt lat="43.6509844431344" lon="6.169763126330311"><ele>509.0</ele><time>2026-04-22T10:02:36.001Z</time></trkpt><trkpt lat="43.65106676179316" lon="6.169994800852671"><ele>510.66666666666663</ele><time>2026-04-22T10:02:37.001Z</time></trkpt><trkpt lat="43.65113450942732" lon="6.170203360676812"><ele>512.3333333333334</ele><time>2026-04-22T10:02:38.001Z</time></trkpt><trkpt lat="43.651193806539666" lon="6.170403228205831"><ele>514.0</ele><time>2026-04-22T10:02:39.001Z</time></trkpt><trkpt lat="43.65124013572668" lon="6.170601675708108"><ele>512.25</ele><time>2026-04-22T10:02:40.001Z</time></trkpt><trkpt lat="43.65125557477906" lon="6.170809881219263"><ele>510.5</ele><time>2026-04-22T10:02:41.001Z</time></trkpt><trkpt lat="43.65124373915531" lon="6.171012315836692"><ele>508.75</ele><time>2026-04-22T10:02:42.001Z</time></trkpt><trkpt lat="43.65120134534544" lon="6.171212342326914"><ele>507.0</ele><time>2026-04-22T10:02:43.001Z</time></trkpt><trkpt lat="43.65112966395441" lon="6.171400810757499"><ele>505.0</ele><time>2026-04-22T10:02:44.001Z</time></trkpt><trkpt lat="43.65103596657202" lon="6.171582998529118"><ele>503.0</ele><time>2026-04-22T10:02:45.001Z</time></trkpt><trkpt lat="43.65090844308672" lon="6.171746889114837"><ele>501.0</ele><time>2026-04-22T10:02:46.001Z</time></trkpt><trkpt lat="43.65072869408953" lon="6.171896127336544"><ele>501.0</ele><time>2026-04-22T10:02:47.001Z</time></trkpt><trkpt lat="43.65054944139276" lon="6.172054409277056"><ele>501.0</ele><time>2026-04-22T10:02:48.001Z</time></trkpt><trkpt lat="43.65036607175885" lon="6.172220631376103"><ele>501.0</ele><time>2026-04-22T10:02:49.001Z</time></trkpt><trkpt lat="43.65017562574241" lon="6.172400515997935"><ele>498.66666666666663</ele><time>2026-04-22T10:02:50.001Z</time></trkpt><trkpt lat="43.64998334848953" lon="6.172569266325486"><ele>496.3333333333333</ele><time>2026-04-22T10:02:51.001Z</time></trkpt><trkpt lat="43.64981552375515" lon="6.172720781713138"><ele>494.0</ele><time>2026-04-22T10:02:52.001Z</time></trkpt><trkpt lat="43.64962332077266" lon="6.1728969136316305"><ele>492.0</ele><time>2026-04-22T10:02:53.001Z</time></trkpt><trkpt lat="43.649430682292554" lon="6.17308386664918"><ele>490.0</ele><time>2026-04-22T10:02:54.001Z</time></trkpt><trkpt lat="43.6492421143918" lon="6.17326659317395"><ele>489.5</ele><time>2026-04-22T10:02:55.001Z</time></trkpt><trkpt lat="43.64904518891856" lon="6.1734684233991794"><ele>489.0</ele><time>2026-04-22T10:02:56.001Z</time></trkpt><trkpt lat="43.648887905505184" lon="6.173674489095416"><ele>489.0</ele><time>2026-04-22T10:02:57.001Z</time></trkpt><trkpt lat="43.64872316045241" lon="6.1739153077930355"><ele>489.0</ele><time>2026-04-22T10:02:58.001Z</time></trkpt><trkpt lat="43.64856777841641" lon="6.1741756270122625"><ele>486.5</ele><time>2026-04-22T10:02:59.001Z</time></trkpt><trkpt lat="43.64841904292434" lon="6.174444598846087"><ele>484.0</ele><time>2026-04-22T10:03:00.001Z</time></trkpt><trkpt lat="43.64827111487109" lon="6.1747144762535"><ele>484.0</ele><time>2026-04-22T10:03:01.001Z</time></trkpt><trkpt lat="43.64811231528353" lon="6.17499178210272"><ele>484.0</ele><time>2026-04-22T10:03:02.001Z</time></trkpt><trkpt lat="43.647956465628376" lon="6.175260744271451"><ele>484.0</ele><time>2026-04-22T10:03:03.001Z</time></trkpt><trkpt lat="43.64780501881618" lon="6.175528164672399"><ele>484.0</ele><time>2026-04-22T10:03:04.001Z</time></trkpt><trkpt lat="43.64765293016329" lon="6.175794687149729"><ele>482.0</ele><time>2026-04-22T10:03:05.001Z</time></trkpt><trkpt lat="43.647513323727026" lon="6.176077870960917"><ele>480.0</ele><time>2026-04-22T10:03:06.001Z</time></trkpt><trkpt lat="43.64739437372336" lon="6.176355353189065"><ele>480.0</ele><time>2026-04-22T10:03:07.001Z</time></trkpt><trkpt lat="43.647293334777764" lon="6.176649973417194"><ele>480.0</ele><time>2026-04-22T10:03:08.001Z</time></trkpt><trkpt lat="43.64721616534307" lon="6.176966929914167"><ele>480.0</ele><time>2026-04-22T10:03:09.001Z</time></trkpt><trkpt lat="43.64715790264826" lon="6.177307452190892"><ele>480.0</ele><time>2026-04-22T10:03:10.001Z</time></trkpt><trkpt lat="43.64710167278676" lon="6.177654066292583"><ele>482.0</ele><time>2026-04-22T10:03:11.001Z</time></trkpt><trkpt lat="43.64705385874071" lon="6.178007101979146"><ele>484.0</ele><time>2026-04-22T10:03:12Z</time></trkpt><trkpt lat="43.64700411810135" lon="6.178350488490991"><ele>483.0</ele><time>2026-04-22T10:03:13Z</time></trkpt><trkpt lat="43.64694664327304" lon="6.178691435480765"><ele>482.0</ele><time>2026-04-22T10:03:14Z</time></trkpt><trkpt lat="43.64688266477284" lon="6.179023115855534"><ele>481.5</ele><time>2026-04-22T10:03:15Z</time></trkpt><trkpt lat="43.64680339726312" lon="6.179340450159186"><ele>481.0</ele><time>2026-04-22T10:03:16Z</time></trkpt><trkpt lat="43.64672169722774" lon="6.179656237844626"><ele>481.0</ele><time>2026-04-22T10:03:17Z</time></trkpt><trkpt lat="43.64663849359829" lon="6.179983623526955"><ele>481.0</ele><time>2026-04-22T10:03:18Z</time></trkpt><trkpt lat="43.646571152043286" lon="6.180378287990642"><ele>481.0</ele><time>2026-04-22T10:03:19Z</time></trkpt><trkpt lat="43.6463729363156" lon="6.180664533515421"><ele>481.0</ele><time>2026-04-22T10:03:20Z</time></trkpt><trkpt lat="43.64627367258062" lon="6.18090427252456"><ele>481.33333333333337</ele><time>2026-04-22T10:03:21Z</time></trkpt><trkpt lat="43.646176122700126" lon="6.181132299522062"><ele>481.66666666666663</ele><time>2026-04-22T10:03:22Z</time></trkpt><trkpt lat="43.64608902695547" lon="6.181364839753798"><ele>482.0</ele><time>2026-04-22T10:03:23Z</time></trkpt><trkpt lat="43.64596996893938" lon="6.181594873529893"><ele>482.0</ele><time>2026-04-22T10:03:24Z</time></trkpt><trkpt lat="43.645850851890735" lon="6.181831428351858"><ele>482.0</ele><time>2026-04-22T10:03:25Z</time></trkpt><trkpt lat="43.64571522471665" lon="6.182140090538746"><ele>483.0</ele><time>2026-04-22T10:03:26Z</time></trkpt><trkpt lat="43.64557400088629" lon="6.182487133426875"><ele>484.0</ele><time>2026-04-22T10:03:27Z</time></trkpt><trkpt lat="43.64540443482702" lon="6.182892970496764"><ele>484.5</ele><time>2026-04-22T10:03:28Z</time></trkpt><trkpt lat="43.645263464240934" lon="6.18321434059948"><ele>485.0</ele><time>2026-04-22T10:03:29Z</time></trkpt><trkpt lat="43.64513138353904" lon="6.183515444475294"><ele>485.0</ele><time>2026-04-22T10:03:30Z</time></trkpt><trkpt lat="43.645007753029304" lon="6.183831277936646"><ele>485.0</ele><time>2026-04-22T10:03:31Z</time></trkpt><trkpt lat="43.64486846230042" lon="6.184137584880725"><ele>485.5</ele><time>2026-04-22T10:03:32Z</time></trkpt><trkpt lat="43.64473856971767" lon="6.184440604430517"><ele>486.0</ele><time>2026-04-22T10:03:33Z</time></trkpt><trkpt lat="43.644609210732696" lon="6.184731064293497"><ele>486.0</ele><time>2026-04-22T10:03:34Z</time></trkpt><trkpt lat="43.64445863272202" lon="6.185018682285897"><ele>486.0</ele><time>2026-04-22T10:03:35Z</time></trkpt><trkpt lat="43.64433681633184" lon="6.185305397246996"><ele>486.0</ele><time>2026-04-22T10:03:36Z</time></trkpt><trkpt lat="43.644186585570644" lon="6.185564784357715"><ele>486.0</ele><time>2026-04-22T10:03:37Z</time></trkpt><trkpt lat="43.64404628079784" lon="6.185842252405152"><ele>486.5</ele><time>2026-04-22T10:03:38Z</time></trkpt><trkpt lat="43.643907987078954" lon="6.186112373238609"><ele>487.0</ele><time>2026-04-22T10:03:39Z</time></trkpt><trkpt lat="43.64376854644254" lon="6.186384261843443"><ele>488.0</ele><time>2026-04-22T10:03:40Z</time></trkpt><trkpt lat="43.64364096867471" lon="6.186672286438003"><ele>489.0</ele><time>2026-04-22T10:03:41Z</time></trkpt><trkpt lat="43.64349708096419" lon="6.1869405454432345"><ele>491.5</ele><time>2026-04-22T10:03:42Z</time></trkpt><trkpt lat="43.64335569152737" lon="6.187215348835488"><ele>494.0</ele><time>2026-04-22T10:03:43Z</time></trkpt><trkpt lat="43.643219438934715" lon="6.187490267434606"><ele>494.0</ele><time>2026-04-22T10:03:44Z</time></trkpt><trkpt lat="43.64309110475448" lon="6.187769463850962"><ele>494.0</ele><time>2026-04-22T10:03:45Z</time></trkpt><trkpt lat="43.64296973741501" lon="6.18803302942174"><ele>495.0</ele><time>2026-04-22T10:03:46Z</time></trkpt><trkpt lat="43.64284933260773" lon="6.1883301397714465"><ele>496.0</ele><time>2026-04-22T10:03:47Z</time></trkpt><trkpt lat="43.642734999456394" lon="6.188631315059803"><ele>497.0</ele><time>2026-04-22T10:03:48Z</time></trkpt><trkpt lat="43.64261742897196" lon="6.18893409513682"><ele>498.0</ele><time>2026-04-22T10:03:49Z</time></trkpt><trkpt lat="43.642522029315536" lon="6.18925470654427"><ele>499.5</ele><time>2026-04-22T10:03:50Z</time></trkpt><trkpt lat="43.642413886151836" lon="6.189576373234967"><ele>501.0</ele><time>2026-04-22T10:03:51Z</time></trkpt><trkpt lat="43.642301920934145" lon="6.189895975300427"><ele>503.0</ele><time>2026-04-22T10:03:52Z</time></trkpt><trkpt lat="43.642187155525036" lon="6.190225692623938"><ele>505.0</ele><time>2026-04-22T10:03:53Z</time></trkpt><trkpt lat="43.64207178905692" lon="6.190550707991216"><ele>503.5</ele><time>2026-04-22T10:03:54Z</time></trkpt><trkpt lat="43.641959680754994" lon="6.190873901952398"><ele>502.0</ele><time>2026-04-22T10:03:55Z</time></trkpt><trkpt lat="43.64185297888383" lon="6.191189566875118"><ele>502.0</ele><time>2026-04-22T10:03:56Z</time></trkpt><trkpt lat="43.641750671298695" lon="6.191492408667563"><ele>502.0</ele><time>2026-04-22T10:03:57Z</time></trkpt><trkpt lat="43.6416385499621" lon="6.191804730976048"><ele>503.0</ele><time>2026-04-22T10:03:58Z</time></trkpt><trkpt lat="43.64151866252938" lon="6.192108321640559"><ele>504.0</ele><time>2026-04-22T10:03:59Z</time></trkpt><trkpt lat="43.64142453577876" lon="6.192430329613299"><ele>504.5</ele><time>2026-04-22T10:04:00Z</time></trkpt><trkpt lat="43.64131502244663" lon="6.192738260657985"><ele>505.0</ele><time>2026-04-22T10:04:01Z</time></trkpt><trkpt lat="43.64120483971203" lon="6.19305004611532"><ele>504.5</ele><time>2026-04-22T10:04:02Z</time></trkpt><trkpt lat="43.641090643532316" lon="6.193355853502164"><ele>504.0</ele><time>2026-04-22T10:04:03Z</time></trkpt><trkpt lat="43.64098288593795" lon="6.193673291780719"><ele>504.5</ele><time>2026-04-22T10:04:04Z</time></trkpt><trkpt lat="43.64087668141926" lon="6.194009863093634"><ele>505.0</ele><time>2026-04-22T10:04:05Z</time></trkpt><trkpt lat="43.64077521496896" lon="6.194347815564712"><ele>505.0</ele><time>2026-04-22T10:04:06Z</time></trkpt><trkpt lat="43.64065806480432" lon="6.194642766822089"><ele>505.0</ele><time>2026-04-22T10:04:07Z</time></trkpt><trkpt lat="43.6405337509521" lon="6.194900850195002"><ele>505.0</ele><time>2026-04-22T10:04:08Z</time></trkpt><trkpt lat="43.640438025830434" lon="6.195260411621535"><ele>505.0</ele><time>2026-04-22T10:04:09Z</time></trkpt><trkpt lat="43.64038011420733" lon="6.195699246687223"><ele>505.5</ele><time>2026-04-22T10:04:10Z</time></trkpt><trkpt lat="43.64030872095308" lon="6.196112024890012"><ele>506.0</ele><time>2026-04-22T10:04:11Z</time></trkpt><trkpt lat="43.640221179748146" lon="6.196472037599772"><ele>506.0</ele><time>2026-04-22T10:04:12Z</time></trkpt><trkpt lat="43.640106068356275" lon="6.196772373163929"><ele>506.0</ele><time>2026-04-22T10:04:13Z</time></trkpt><trkpt lat="43.64000625819476" lon="6.197094842736761"><ele>506.0</ele><time>2026-04-22T10:04:14Z</time></trkpt><trkpt lat="43.63991530453238" lon="6.197421016405051"><ele>506.0</ele><time>2026-04-22T10:04:15Z</time></trkpt><trkpt lat="43.63982801351284" lon="6.197741024855336"><ele>506.0</ele><time>2026-04-22T10:04:16Z</time></trkpt><trkpt lat="43.6397450214531" lon="6.1980555637356"><ele>506.0</ele><time>2026-04-22T10:04:17Z</time></trkpt><trkpt lat="43.63966309434623" lon="6.198360940861554"><ele>508.0</ele><time>2026-04-22T10:04:18Z</time></trkpt><trkpt lat="43.63957633065306" lon="6.198665890186757"><ele>510.0</ele><time>2026-04-22T10:04:19Z</time></trkpt><trkpt lat="43.63949059408423" lon="6.198976768364171"><ele>509.5</ele><time>2026-04-22T10:04:20Z</time></trkpt><trkpt lat="43.63940029503856" lon="6.19928866895539"><ele>509.0</ele><time>2026-04-22T10:04:21Z</time></trkpt><trkpt lat="43.63931298234701" lon="6.199606449434451"><ele>508.0</ele><time>2026-04-22T10:04:22Z</time></trkpt><trkpt lat="43.639221082165605" lon="6.199931525319459"><ele>507.0</ele><time>2026-04-22T10:04:23Z</time></trkpt><trkpt lat="43.63912941307337" lon="6.200252596198695"><ele>507.0</ele><time>2026-04-22T10:04:24Z</time></trkpt><trkpt lat="43.6390281021414" lon="6.200568637727737"><ele>507.0</ele><time>2026-04-22T10:04:25Z</time></trkpt><trkpt lat="43.63891655134795" lon="6.200885769693481"><ele>505.5</ele><time>2026-04-22T10:04:26Z</time></trkpt><trkpt lat="43.638803225809944" lon="6.201198429687703"><ele>504.0</ele><time>2026-04-22T10:04:27Z</time></trkpt><trkpt lat="43.638694555330254" lon="6.201508846955586"><ele>503.5</ele><time>2026-04-22T10:04:28Z</time></trkpt><trkpt lat="43.63858852858669" lon="6.201797367097139"><ele>503.0</ele><time>2026-04-22T10:04:29Z</time></trkpt><trkpt lat="43.63848957172947" lon="6.202069498707045"><ele>503.0</ele><time>2026-04-22T10:04:30Z</time></trkpt><trkpt lat="43.63840121765509" lon="6.202331067228332"><ele>503.0</ele><time>2026-04-22T10:04:31Z</time></trkpt><trkpt lat="43.63831435077084" lon="6.202600821534339"><ele>503.0</ele><time>2026-04-22T10:04:32Z</time></trkpt><trkpt lat="43.638232028697665" lon="6.202865555578523"><ele>504.3333333333333</ele><time>2026-04-22T10:04:33Z</time></trkpt><trkpt lat="43.63816373318917" lon="6.20314035842213"><ele>505.66666666666663</ele><time>2026-04-22T10:04:34Z</time></trkpt><trkpt lat="43.63811406785586" lon="6.20343333229906"><ele>507.0</ele><time>2026-04-22T10:04:35Z</time></trkpt><trkpt lat="43.63807644760652" lon="6.203734515234493"><ele>506.66666666666663</ele><time>2026-04-22T10:04:36Z</time></trkpt><trkpt lat="43.63804688238085" lon="6.204035334209393"><ele>506.3333333333333</ele><time>2026-04-22T10:04:37Z</time></trkpt><trkpt lat="43.63801645850872" lon="6.204333278481532"><ele>506.0</ele><time>2026-04-22T10:04:38Z</time></trkpt><trkpt lat="43.63797812021096" lon="6.204621039429452"><ele>505.66666666666663</ele><time>2026-04-22T10:04:39Z</time></trkpt><trkpt lat="43.63793013645903" lon="6.2048885659097985"><ele>505.33333333333337</ele><time>2026-04-22T10:04:40.001Z</time></trkpt><trkpt lat="43.63786103998703" lon="6.205146039211408"><ele>505.0</ele><time>2026-04-22T10:04:41.001Z</time></trkpt><trkpt lat="43.63776962510326" lon="6.205398795866948"><ele>505.0</ele><time>2026-04-22T10:04:42.001Z</time></trkpt><trkpt lat="43.637645412482904" lon="6.205634360421314"><ele>505.0</ele><time>2026-04-22T10:04:43.001Z</time></trkpt><trkpt lat="43.63749651920852" lon="6.205849263691193"><ele>505.0</ele><time>2026-04-22T10:04:44.001Z</time></trkpt><trkpt lat="43.63732516103404" lon="6.206042528333761"><ele>505.0</ele><time>2026-04-22T10:04:45.001Z</time></trkpt><trkpt lat="43.63713983039798" lon="6.206219664158522"><ele>505.0</ele><time>2026-04-22T10:04:46.001Z</time></trkpt><trkpt lat="43.63694838234621" lon="6.206399172750554"><ele>508.0</ele><time>2026-04-22T10:04:47.001Z</time></trkpt><trkpt lat="43.63675988297757" lon="6.20658528593433"><ele>511.0</ele><time>2026-04-22T10:04:48.001Z</time></trkpt><trkpt lat="43.636571198360585" lon="6.206788860781095"><ele>511.0</ele><time>2026-04-22T10:04:49.001Z</time></trkpt><trkpt lat="43.636382685350476" lon="6.206995513573163"><ele>511.0</ele><time>2026-04-22T10:04:50.001Z</time></trkpt><trkpt lat="43.63620412765079" lon="6.207200085004007"><ele>510.5</ele><time>2026-04-22T10:04:51.001Z</time></trkpt><trkpt lat="43.636034495998466" lon="6.207417728319331"><ele>510.0</ele><time>2026-04-22T10:04:52.001Z</time></trkpt><trkpt lat="43.635886441070454" lon="6.207656649424026"><ele>510.0</ele><time>2026-04-22T10:04:53.001Z</time></trkpt><trkpt lat="43.635749001252194" lon="6.207904800583811"><ele>510.0</ele><time>2026-04-22T10:04:54.001Z</time></trkpt><trkpt lat="43.63561257717997" lon="6.208161430132452"><ele>511.5</ele><time>2026-04-22T10:04:55.001Z</time></trkpt><trkpt lat="43.63549660350764" lon="6.208433903613466"><ele>513.0</ele><time>2026-04-22T10:04:56.001Z</time></trkpt><trkpt lat="43.63539131597121" lon="6.208725335423072"><ele>510.5</ele><time>2026-04-22T10:04:57.001Z</time></trkpt><trkpt lat="43.63527461425004" lon="6.2090285054223875"><ele>508.0</ele><time>2026-04-22T10:04:58.001Z</time></trkpt><trkpt lat="43.63515314428608" lon="6.209340623460142"><ele>508.0</ele><time>2026-04-22T10:04:59.001Z</time></trkpt><trkpt lat="43.63502314659451" lon="6.209664690016659"><ele>508.0</ele><time>2026-04-22T10:05:00.001Z</time></trkpt><trkpt lat="43.63489625074461" lon="6.209988649889569"><ele>508.5</ele><time>2026-04-22T10:05:01.001Z</time></trkpt><trkpt lat="43.63476659521693" lon="6.210300614896422"><ele>509.0</ele><time>2026-04-22T10:05:02.001Z</time></trkpt><trkpt lat="43.634648605231135" lon="6.21055643582161"><ele>509.5</ele><time>2026-04-22T10:05:03.001Z</time></trkpt><trkpt lat="43.63452025849471" lon="6.210829348145062"><ele>510.0</ele><time>2026-04-22T10:05:04.001Z</time></trkpt><trkpt lat="43.63440101735668" lon="6.2112610564485164"><ele>510.0</ele><time>2026-04-22T10:05:05.001Z</time></trkpt><trkpt lat="43.634235522095295" lon="6.211654827190993"><ele>510.0</ele><time>2026-04-22T10:05:06.001Z</time></trkpt><trkpt lat="43.634101624361094" lon="6.212006882823683"><ele>512.0</ele><time>2026-04-22T10:05:07.001Z</time></trkpt><trkpt lat="43.63396968009648" lon="6.212338194829239"><ele>514.0</ele><time>2026-04-22T10:05:08.001Z</time></trkpt><trkpt lat="43.63383710584532" lon="6.2126657378455095"><ele>514.0</ele><time>2026-04-22T10:05:09.001Z</time></trkpt><trkpt lat="43.63370574978566" lon="6.212979917244302"><ele>514.0</ele><time>2026-04-22T10:05:10.001Z</time></trkpt><trkpt lat="43.63358096169956" lon="6.213278285245352"><ele>515.0</ele><time>2026-04-22T10:05:11.001Z</time></trkpt><trkpt lat="43.63345130899676" lon="6.213545761301837"><ele>516.0</ele><time>2026-04-22T10:05:12.001Z</time></trkpt><trkpt lat="43.63335776161325" lon="6.213850359567176"><ele>516.6666666666666</ele><time>2026-04-22T10:05:13.001Z</time></trkpt><trkpt lat="43.63325589241274" lon="6.214116656428772"><ele>517.3333333333333</ele><time>2026-04-22T10:05:14.001Z</time></trkpt><trkpt lat="43.63315376497823" lon="6.214377655713809"><ele>518.0</ele><time>2026-04-22T10:05:15.001Z</time></trkpt><trkpt lat="43.633045885944725" lon="6.214638636520925"><ele>518.3333333333333</ele><time>2026-04-22T10:05:16.001Z</time></trkpt><trkpt lat="43.632939094188714" lon="6.2149033296103795"><ele>518.6666666666666</ele><time>2026-04-22T10:05:17.001Z</time></trkpt><trkpt lat="43.632835764274255" lon="6.2151605297895305"><ele>519.0</ele><time>2026-04-22T10:05:18Z</time></trkpt><trkpt lat="43.632728560279716" lon="6.2154274508589165"><ele>520.0</ele><time>2026-04-22T10:05:19Z</time></trkpt><trkpt lat="43.632632332096115" lon="6.21571154775031"><ele>521.0</ele><time>2026-04-22T10:05:20Z</time></trkpt><trkpt lat="43.63253826832482" lon="6.216014552017276"><ele>521.0</ele><time>2026-04-22T10:05:21Z</time></trkpt><trkpt lat="43.63244106489261" lon="6.216324980120647"><ele>521.0</ele><time>2026-04-22T10:05:22Z</time></trkpt><trkpt lat="43.632336938594904" lon="6.216638721829773"><ele>522.5</ele><time>2026-04-22T10:05:23Z</time></trkpt><trkpt lat="43.632230957866554" lon="6.216937893270317"><ele>524.0</ele><time>2026-04-22T10:05:24Z</time></trkpt><trkpt lat="43.63215537101808" lon="6.217219541480934"><ele>524.3333333333333</ele><time>2026-04-22T10:05:25Z</time></trkpt><trkpt lat="43.63207378771965" lon="6.217492046085188"><ele>524.6666666666666</ele><time>2026-04-22T10:05:26Z</time></trkpt><trkpt lat="43.63198868109601" lon="6.2177555017781305"><ele>525.0</ele><time>2026-04-22T10:05:27Z</time></trkpt><trkpt lat="43.631902125273804" lon="6.218018196090401"><ele>525.3333333333334</ele><time>2026-04-22T10:05:28Z</time></trkpt><trkpt lat="43.63180535098341" lon="6.218277085543893"><ele>525.6666666666667</ele><time>2026-04-22T10:05:29Z</time></trkpt><trkpt lat="43.631705830748444" lon="6.218529411940281"><ele>526.0</ele><time>2026-04-22T10:05:30Z</time></trkpt><trkpt lat="43.631599071975224" lon="6.2187620403489134"><ele>526.0</ele><time>2026-04-22T10:05:31Z</time></trkpt><trkpt lat="43.631491880398" lon="6.218955655681132"><ele>526.0</ele><time>2026-04-22T10:05:32Z</time></trkpt><trkpt lat="43.631390467456356" lon="6.219127299324151"><ele>526.0</ele><time>2026-04-22T10:05:33Z</time></trkpt><trkpt lat="43.631319300070736" lon="6.219260850245545"><ele>526.0</ele><time>2026-04-22T10:05:34Z</time></trkpt><trkpt lat="43.63125938979708" lon="6.219355121877499"><ele>526.0</ele><time>2026-04-22T10:05:35Z</time></trkpt><trkpt lat="43.63118888394517" lon="6.219435454627605"><ele>526.0</ele><time>2026-04-22T10:05:36Z</time></trkpt><trkpt lat="43.6311077545096" lon="6.219488980032598"><ele>526.0</ele><time>2026-04-22T10:05:37Z</time></trkpt><trkpt lat="43.63106424323519" lon="6.2195721957982855"><ele>526.0</ele><time>2026-04-22T10:05:38Z</time></trkpt><trkpt lat="43.63108895000894" lon="6.219667698999819"><ele>526.0</ele><time>2026-04-22T10:05:39Z</time></trkpt><trkpt lat="43.63113704324605" lon="6.219738507918476"><ele>526.6</ele><time>2026-04-22T10:05:40Z</time></trkpt><trkpt lat="43.63119788569553" lon="6.219782396374238"><ele>527.2</ele><time>2026-04-22T10:05:41Z</time></trkpt><trkpt lat="43.63131134131975" lon="6.219756689869082"><ele>527.8</ele><time>2026-04-22T10:05:42Z</time></trkpt><trkpt lat="43.63140985405041" lon="6.219764268500395"><ele>528.4</ele><time>2026-04-22T10:05:43Z</time></trkpt><trkpt lat="43.631503104989065" lon="6.219804788366623"><ele>529.0</ele><time>2026-04-22T10:05:44Z</time></trkpt><trkpt lat="43.63159519453421" lon="6.219850379176218"><ele>529.6</ele><time>2026-04-22T10:05:45Z</time></trkpt><trkpt lat="43.63168497754389" lon="6.219889920511521"><ele>530.2</ele><time>2026-04-22T10:05:46Z</time></trkpt><trkpt lat="43.63178170724888" lon="6.219918604754216"><ele>530.8000000000001</ele><time>2026-04-22T10:05:47Z</time></trkpt><trkpt lat="43.63188517687936" lon="6.219945121200128"><ele>531.4</ele><time>2026-04-22T10:05:48Z</time></trkpt><trkpt lat="43.631997791576794" lon="6.219974368497917"><ele>532.0</ele><time>2026-04-22T10:05:49Z</time></trkpt><trkpt lat="43.632120317526756" lon="6.220013275470864"><ele>533.0</ele><time>2026-04-22T10:05:50Z</time></trkpt><trkpt lat="43.63223603495739" lon="6.220046906422312"><ele>534.0</ele><time>2026-04-22T10:05:51Z</time></trkpt><trkpt lat="43.63234762806839" lon="6.220084207609328"><ele>535.0</ele><time>2026-04-22T10:05:52Z</time></trkpt><trkpt lat="43.63245582013687" lon="6.220117967256918"><ele>536.0</ele><time>2026-04-22T10:05:53Z</time></trkpt><trkpt lat="43.63255519807814" lon="6.220146261104262"><ele>537.0</ele><time>2026-04-22T10:05:54Z</time></trkpt><trkpt lat="43.632650905340114" lon="6.220181039920154"><ele>537.0</ele><time>2026-04-22T10:05:55Z</time></trkpt><trkpt lat="43.63274715819189" lon="6.220210099298391"><ele>537.0</ele><time>2026-04-22T10:05:56Z</time></trkpt><trkpt lat="43.63284531536788" lon="6.220243917949692"><ele>537.0</ele><time>2026-04-22T10:05:57Z</time></trkpt><trkpt lat="43.632943100861624" lon="6.220270215662962"><ele>537.0</ele><time>2026-04-22T10:05:58Z</time></trkpt><trkpt lat="43.63304696540311" lon="6.220300576126855"><ele>537.0</ele><time>2026-04-22T10:05:59Z</time></trkpt><trkpt lat="43.63315408775666" lon="6.220328811796041"><ele>537.5</ele><time>2026-04-22T10:06:00Z</time></trkpt><trkpt lat="43.633265280673854" lon="6.220361977426901"><ele>538.0</ele><time>2026-04-22T10:06:01Z</time></trkpt><trkpt lat="43.63337522265146" lon="6.220397548571949"><ele>538.5</ele><time>2026-04-22T10:06:02Z</time></trkpt><trkpt lat="43.63349109364972" lon="6.2204346038083145"><ele>539.0</ele><time>2026-04-22T10:06:03Z</time></trkpt><trkpt lat="43.63360864211209" lon="6.220471787268891"><ele>538.25</ele><time>2026-04-22T10:06:04Z</time></trkpt><trkpt lat="43.633730890000756" lon="6.220502020948551"><ele>537.5</ele><time>2026-04-22T10:06:05Z</time></trkpt><trkpt lat="43.63385254830292" lon="6.220531191756227"><ele>536.75</ele><time>2026-04-22T10:06:06Z</time></trkpt><trkpt lat="43.63396616802448" lon="6.220566245206521"><ele>536.0</ele><time>2026-04-22T10:06:07Z</time></trkpt><trkpt lat="43.63408194636037" lon="6.22059954219002"><ele>536.0</ele><time>2026-04-22T10:06:08Z</time></trkpt><trkpt lat="43.63420423097953" lon="6.22063343442695"><ele>536.0</ele><time>2026-04-22T10:06:09Z</time></trkpt><trkpt lat="43.63433499194946" lon="6.220674363695424"><ele>536.0</ele><time>2026-04-22T10:06:10Z</time></trkpt><trkpt lat="43.634467879503866" lon="6.220717915519222"><ele>536.0</ele><time>2026-04-22T10:06:11Z</time></trkpt><trkpt lat="43.63459903902171" lon="6.220761261615729"><ele>536.75</ele><time>2026-04-22T10:06:12Z</time></trkpt><trkpt lat="43.63472165801838" lon="6.220800029006098"><ele>537.5</ele><time>2026-04-22T10:06:13Z</time></trkpt><trkpt lat="43.63483988636917" lon="6.220829600827694"><ele>538.25</ele><time>2026-04-22T10:06:14Z</time></trkpt><trkpt lat="43.63495419808056" lon="6.220862024528423"><ele>539.0</ele><time>2026-04-22T10:06:15Z</time></trkpt><trkpt lat="43.63506803091108" lon="6.220886426772815"><ele>539.0</ele><time>2026-04-22T10:06:16Z</time></trkpt><trkpt lat="43.63517532757316" lon="6.220915008421128"><ele>539.0</ele><time>2026-04-22T10:06:17Z</time></trkpt><trkpt lat="43.63528553537602" lon="6.220963522597779"><ele>539.0</ele><time>2026-04-22T10:06:18Z</time></trkpt><trkpt lat="43.63538887605326" lon="6.221043785342728"><ele>539.0</ele><time>2026-04-22T10:06:19Z</time></trkpt><trkpt lat="43.635487161285575" lon="6.221156004524837"><ele>539.5</ele><time>2026-04-22T10:06:20Z</time></trkpt><trkpt lat="43.63557823215728" lon="6.221274177904353"><ele>540.0</ele><time>2026-04-22T10:06:21Z</time></trkpt><trkpt lat="43.635673007973004" lon="6.2213802634797295"><ele>540.5</ele><time>2026-04-22T10:06:22Z</time></trkpt><trkpt lat="43.63577258711844" lon="6.221466750070706"><ele>541.0</ele><time>2026-04-22T10:06:23Z</time></trkpt><trkpt lat="43.635882971984785" lon="6.221532999153384"><ele>541.0</ele><time>2026-04-22T10:06:24Z</time></trkpt><trkpt lat="43.63600010532448" lon="6.221594077185358"><ele>541.0</ele><time>2026-04-22T10:06:25Z</time></trkpt><trkpt lat="43.636113980923945" lon="6.221666736492932"><ele>541.0</ele><time>2026-04-22T10:06:26Z</time></trkpt><trkpt lat="43.63622714062655" lon="6.2217546805601955"><ele>541.0</ele><time>2026-04-22T10:06:27Z</time></trkpt><trkpt lat="43.63633459951351" lon="6.221857956030183"><ele>543.5</ele><time>2026-04-22T10:06:28Z</time></trkpt><trkpt lat="43.636439944088856" lon="6.221972993523266"><ele>546.0</ele><time>2026-04-22T10:06:29Z</time></trkpt><trkpt lat="43.63651879039098" lon="6.222129205717723"><ele>548.5</ele><time>2026-04-22T10:06:30Z</time></trkpt><trkpt lat="43.636603881324035" lon="6.222270234206439"><ele>551.0</ele><time>2026-04-22T10:06:31Z</time></trkpt><trkpt lat="43.63667619157197" lon="6.222405782808708"><ele>551.0</ele><time>2026-04-22T10:06:32Z</time></trkpt><trkpt lat="43.63672667196556" lon="6.222545258713923"><ele>551.0</ele><time>2026-04-22T10:06:33Z</time></trkpt><trkpt lat="43.63678478417234" lon="6.222655203514749"><ele>551.0</ele><time>2026-04-22T10:06:34Z</time></trkpt><trkpt lat="43.636834467084434" lon="6.22275711874923"><ele>551.0</ele><time>2026-04-22T10:06:35Z</time></trkpt><trkpt lat="43.63689354554802" lon="6.222847429550423"><ele>551.0</ele><time>2026-04-22T10:06:36Z</time></trkpt><trkpt lat="43.63696310866163" lon="6.222930437293515"><ele>552.5</ele><time>2026-04-22T10:06:37Z</time></trkpt><trkpt lat="43.63704823852692" lon="6.22301284360509"><ele>554.0</ele><time>2026-04-22T10:06:38Z</time></trkpt><trkpt lat="43.637143900228395" lon="6.223091472882347"><ele>555.5</ele><time>2026-04-22T10:06:39Z</time></trkpt><trkpt lat="43.637267142355114" lon="6.223149609768175"><ele>557.0</ele><time>2026-04-22T10:06:40Z</time></trkpt><trkpt lat="43.63741328074876" lon="6.223171596824808"><ele>557.0</ele><time>2026-04-22T10:06:41Z</time></trkpt><trkpt lat="43.63756762611516" lon="6.223181951276227"><ele>557.0</ele><time>2026-04-22T10:06:42Z</time></trkpt><trkpt lat="43.6377252666555" lon="6.223168132026215"><ele>557.0</ele><time>2026-04-22T10:06:43Z</time></trkpt><trkpt lat="43.63786609438391" lon="6.223163934102028"><ele>558.5</ele><time>2026-04-22T10:06:44Z</time></trkpt><trkpt lat="43.63801342626733" lon="6.223171306482917"><ele>560.0</ele><time>2026-04-22T10:06:45Z</time></trkpt><trkpt lat="43.63817657094386" lon="6.223160935223195"><ele>561.5</ele><time>2026-04-22T10:06:46.001Z</time></trkpt><trkpt lat="43.6382959748463" lon="6.223169798760269"><ele>563.0</ele><time>2026-04-22T10:06:47.001Z</time></trkpt><trkpt lat="43.638422144695895" lon="6.223203951572543"><ele>563.0</ele><time>2026-04-22T10:06:48.001Z</time></trkpt><trkpt lat="43.63855491694669" lon="6.223207914467328"><ele>563.0</ele><time>2026-04-22T10:06:49.001Z</time></trkpt><trkpt lat="43.6386816095358" lon="6.223178507490887"><ele>563.0</ele><time>2026-04-22T10:06:50.001Z</time></trkpt><trkpt lat="43.63879820203563" lon="6.223106395725922"><ele>563.0</ele><time>2026-04-22T10:06:51.001Z</time></trkpt><trkpt lat="43.63890370426875" lon="6.223028411811053"><ele>566.0</ele><time>2026-04-22T10:06:52.001Z</time></trkpt><trkpt lat="43.63900939566038" lon="6.222964321679047"><ele>569.0</ele><time>2026-04-22T10:06:53.001Z</time></trkpt><trkpt lat="43.63912016807907" lon="6.22291637112018"><ele>572.0</ele><time>2026-04-22T10:06:54.001Z</time></trkpt><trkpt lat="43.639235801602894" lon="6.2229354051102"><ele>575.0</ele><time>2026-04-22T10:06:55.001Z</time></trkpt><trkpt lat="43.639355718935356" lon="6.222945864225765"><ele>575.0</ele><time>2026-04-22T10:06:56.001Z</time></trkpt><trkpt lat="43.63947214827578" lon="6.222941233462668"><ele>575.0</ele><time>2026-04-22T10:06:57.001Z</time></trkpt><trkpt lat="43.63957520627343" lon="6.222923928676709"><ele>575.0</ele><time>2026-04-22T10:06:58.001Z</time></trkpt><trkpt lat="43.6396818526794" lon="6.222875647673618"><ele>575.0</ele><time>2026-04-22T10:06:59.001Z</time></trkpt><trkpt lat="43.63979269527869" lon="6.222770408343172"><ele>575.0</ele><time>2026-04-22T10:07:00.001Z</time></trkpt><trkpt lat="43.63989150521337" lon="6.222696778835964"><ele>575.0</ele><time>2026-04-22T10:07:01.001Z</time></trkpt><trkpt lat="43.63998815145752" lon="6.22262819459712"><ele>575.0</ele><time>2026-04-22T10:07:02.001Z</time></trkpt><trkpt lat="43.64009756921539" lon="6.222565901993412"><ele>575.0</ele><time>2026-04-22T10:07:03.001Z</time></trkpt><trkpt lat="43.64021592395976" lon="6.222532247124215"><ele>576.0</ele><time>2026-04-22T10:07:04.001Z</time></trkpt><trkpt lat="43.64033750480483" lon="6.222498285530014"><ele>577.0</ele><time>2026-04-22T10:07:05.001Z</time></trkpt><trkpt lat="43.64046058604111" lon="6.222460497421292"><ele>578.0</ele><time>2026-04-22T10:07:06.001Z</time></trkpt><trkpt lat="43.640585426398815" lon="6.222458243168625"><ele>579.0</ele><time>2026-04-22T10:07:07.001Z</time></trkpt><trkpt lat="43.64070139437386" lon="6.222448090823952"><ele>579.0</ele><time>2026-04-22T10:07:08.001Z</time></trkpt><trkpt lat="43.64081705883164" lon="6.222446920474185"><ele>579.0</ele><time>2026-04-22T10:07:09.001Z</time></trkpt><trkpt lat="43.64093774322549" lon="6.222423645959518"><ele>579.0</ele><time>2026-04-22T10:07:10.001Z</time></trkpt><trkpt lat="43.641046608994735" lon="6.222391884136382"><ele>579.0</ele><time>2026-04-22T10:07:11.001Z</time></trkpt><trkpt lat="43.64114405283149" lon="6.222360130975362"><ele>579.0</ele><time>2026-04-22T10:07:12.001Z</time></trkpt><trkpt lat="43.64123617945699" lon="6.222272284679604"><ele>581.5</ele><time>2026-04-22T10:07:13.001Z</time></trkpt><trkpt lat="43.64134328076283" lon="6.2221706865324276"><ele>584.0</ele><time>2026-04-22T10:07:14.001Z</time></trkpt><trkpt lat="43.641451506011336" lon="6.222029048472593"><ele>586.5</ele><time>2026-04-22T10:07:15.001Z</time></trkpt><trkpt lat="43.641559338601176" lon="6.221907845607212"><ele>589.0</ele><time>2026-04-22T10:07:16.001Z</time></trkpt><trkpt lat="43.641677294461054" lon="6.221755845744134"><ele>589.0</ele><time>2026-04-22T10:07:17.001Z</time></trkpt><trkpt lat="43.64183357369507" lon="6.221554461759725"><ele>589.0</ele><time>2026-04-22T10:07:18.001Z</time></trkpt><trkpt lat="43.64198259266713" lon="6.221362433464322"><ele>589.0</ele><time>2026-04-22T10:07:19.001Z</time></trkpt><trkpt lat="43.642116822029045" lon="6.221192379431903"><ele>590.3333333333334</ele><time>2026-04-22T10:07:20.001Z</time></trkpt><trkpt lat="43.642234755801965" lon="6.221064638109095"><ele>591.6666666666666</ele><time>2026-04-22T10:07:21.001Z</time></trkpt><trkpt lat="43.642375216472104" lon="6.220959419246902"><ele>593.0</ele><time>2026-04-22T10:07:22.001Z</time></trkpt><trkpt lat="43.64251711907118" lon="6.220930451672826"><ele>593.0</ele><time>2026-04-22T10:07:23.001Z</time></trkpt><trkpt lat="43.642664064234886" lon="6.220927595448013"><ele>593.0</ele><time>2026-04-22T10:07:24Z</time></trkpt><trkpt lat="43.642817908061396" lon="6.220887451759956"><ele>593.0</ele><time>2026-04-22T10:07:25Z</time></trkpt><trkpt lat="43.64298176999677" lon="6.220851117517827"><ele>594.3333333333333</ele><time>2026-04-22T10:07:26Z</time></trkpt><trkpt lat="43.64314788030814" lon="6.220808919128262"><ele>595.6666666666666</ele><time>2026-04-22T10:07:27Z</time></trkpt><trkpt lat="43.64331664119259" lon="6.220795406490637"><ele>597.0</ele><time>2026-04-22T10:07:28Z</time></trkpt><trkpt lat="43.643496458792235" lon="6.22081512767596"><ele>600.0</ele><time>2026-04-22T10:07:29Z</time></trkpt><trkpt lat="43.64367518202921" lon="6.220853326176308"><ele>603.0</ele><time>2026-04-22T10:07:30Z</time></trkpt><trkpt lat="43.643854047437145" lon="6.220910637352093"><ele>606.0</ele><time>2026-04-22T10:07:31Z</time></trkpt><trkpt lat="43.6440243421316" lon="6.221002545290463"><ele>606.0</ele><time>2026-04-22T10:07:32Z</time></trkpt><trkpt lat="43.6441942147215" lon="6.221148786064823"><ele>606.0</ele><time>2026-04-22T10:07:33Z</time></trkpt><trkpt lat="43.64438228841008" lon="6.221274977780756"><ele>606.0</ele><time>2026-04-22T10:07:34Z</time></trkpt><trkpt lat="43.64457760605807" lon="6.221427815599691"><ele>606.5</ele><time>2026-04-22T10:07:35Z</time></trkpt><trkpt lat="43.644785874417096" lon="6.2215640378215396"><ele>607.0</ele><time>2026-04-22T10:07:36Z</time></trkpt><trkpt lat="43.64499854242208" lon="6.221713074259679"><ele>607.0</ele><time>2026-04-22T10:07:37Z</time></trkpt><trkpt lat="43.645219391128016" lon="6.221862423951274"><ele>607.0</ele><time>2026-04-22T10:07:38Z</time></trkpt><trkpt lat="43.64544862193195" lon="6.222036916987756"><ele>609.5</ele><time>2026-04-22T10:07:39Z</time></trkpt><trkpt lat="43.64567871081585" lon="6.222199653160297"><ele>612.0</ele><time>2026-04-22T10:07:40Z</time></trkpt><trkpt lat="43.64590195650724" lon="6.222358150140666"><ele>616.0</ele><time>2026-04-22T10:07:41Z</time></trkpt><trkpt lat="43.64613448144964" lon="6.222504367585978"><ele>620.0</ele><time>2026-04-22T10:07:42Z</time></trkpt><trkpt lat="43.646367405745174" lon="6.22267408515496"><ele>620.0</ele><time>2026-04-22T10:07:43Z</time></trkpt><trkpt lat="43.64660818510123" lon="6.222840439356449"><ele>620.0</ele><time>2026-04-22T10:07:44Z</time></trkpt><trkpt lat="43.646842611568985" lon="6.223027877913051"><ele>622.5</ele><time>2026-04-22T10:07:45Z</time></trkpt><trkpt lat="43.647084265872785" lon="6.2231998219025515"><ele>625.0</ele><time>2026-04-22T10:07:46Z</time></trkpt><trkpt lat="43.647332124158254" lon="6.223359406825301"><ele>625.0</ele><time>2026-04-22T10:07:47Z</time></trkpt><trkpt lat="43.64758156261462" lon="6.223537401815591"><ele>625.0</ele><time>2026-04-22T10:07:48Z</time></trkpt><trkpt lat="43.64782443283063" lon="6.223726312546804"><ele>626.5</ele><time>2026-04-22T10:07:49Z</time></trkpt><trkpt lat="43.6480805712306" lon="6.22390991316162"><ele>628.0</ele><time>2026-04-22T10:07:50Z</time></trkpt><trkpt lat="43.648341071083905" lon="6.224073096513993"><ele>631.5</ele><time>2026-04-22T10:07:51Z</time></trkpt><trkpt lat="43.64859167973918" lon="6.224256374684643"><ele>635.0</ele><time>2026-04-22T10:07:52Z</time></trkpt><trkpt lat="43.6488426807089" lon="6.224441390852729"><ele>637.0</ele><time>2026-04-22T10:07:53Z</time></trkpt><trkpt lat="43.649088198263385" lon="6.224625885850621"><ele>639.0</ele><time>2026-04-22T10:07:54Z</time></trkpt><trkpt lat="43.649329285238586" lon="6.224807982984203"><ele>643.0</ele><time>2026-04-22T10:07:55Z</time></trkpt><trkpt lat="43.64957536096972" lon="6.224984474034991"><ele>647.0</ele><time>2026-04-22T10:07:56Z</time></trkpt><trkpt lat="43.64982547289892" lon="6.225164250146456"><ele>647.0</ele><time>2026-04-22T10:07:57Z</time></trkpt><trkpt lat="43.65005084550514" lon="6.225325993164811"><ele>647.0</ele><time>2026-04-22T10:07:58Z</time></trkpt><trkpt lat="43.65025058403863" lon="6.225466263634689"><ele>649.3333333333333</ele><time>2026-04-22T10:07:59Z</time></trkpt><trkpt lat="43.650447403164335" lon="6.225607897994508"><ele>651.6666666666666</ele><time>2026-04-22T10:08:00Z</time></trkpt><trkpt lat="43.65064209452909" lon="6.225745682503303"><ele>654.0</ele><time>2026-04-22T10:08:01Z</time></trkpt><trkpt lat="43.650845421812946" lon="6.2258885038411815"><ele>654.0</ele><time>2026-04-22T10:08:02Z</time></trkpt><trkpt lat="43.65104583749876" lon="6.226001694222127"><ele>654.0</ele><time>2026-04-22T10:08:03Z</time></trkpt><trkpt lat="43.65123807962485" lon="6.22611503450889"><ele>654.0</ele><time>2026-04-22T10:08:04Z</time></trkpt><trkpt lat="43.65143795386043" lon="6.226179801318842"><ele>656.0</ele><time>2026-04-22T10:08:05Z</time></trkpt><trkpt lat="43.65164844779423" lon="6.226224510057773"><ele>658.0</ele><time>2026-04-22T10:08:06Z</time></trkpt><trkpt lat="43.651862683550625" lon="6.2262811037174055"><ele>660.0</ele><time>2026-04-22T10:08:07Z</time></trkpt><trkpt lat="43.65207706082988" lon="6.226357163379702"><ele>661.3333333333334</ele><time>2026-04-22T10:08:08Z</time></trkpt><trkpt lat="43.65229454613244" lon="6.226437519339231"><ele>662.6666666666667</ele><time>2026-04-22T10:08:09Z</time></trkpt><trkpt lat="43.652505412431864" lon="6.226520109947087"><ele>664.0</ele><time>2026-04-22T10:08:10Z</time></trkpt><trkpt lat="43.65270303289404" lon="6.226611634489123"><ele>671.6666666666667</ele><time>2026-04-22T10:08:11Z</time></trkpt><trkpt lat="43.65286455300685" lon="6.226729807278012"><ele>679.3333333333334</ele><time>2026-04-22T10:08:12Z</time></trkpt><trkpt lat="43.652986454687756" lon="6.226900217734228"><ele>687.0</ele><time>2026-04-22T10:08:13Z</time></trkpt><trkpt lat="43.653105566057135" lon="6.227079559598937"><ele>687.0</ele><time>2026-04-22T10:08:14Z</time></trkpt><trkpt lat="43.653204285290364" lon="6.227234573795935"><ele>687.0</ele><time>2026-04-22T10:08:15Z</time></trkpt><trkpt lat="43.65330141003803" lon="6.227351108751312"><ele>687.0</ele><time>2026-04-22T10:08:16Z</time></trkpt><trkpt lat="43.65339290248525" lon="6.227418430896625"><ele>687.0</ele><time>2026-04-22T10:08:17Z</time></trkpt><trkpt lat="43.6534761348668" lon="6.227446393293162"><ele>687.0</ele><time>2026-04-22T10:08:18Z</time></trkpt><trkpt lat="43.65355371000784" lon="6.22740086592199"><ele>687.0</ele><time>2026-04-22T10:08:19Z</time></trkpt><trkpt lat="43.65358064346669" lon="6.227295802779797"><ele>687.0</ele><time>2026-04-22T10:08:20Z</time></trkpt><trkpt lat="43.653572999461495" lon="6.227178146118961"><ele>687.0</ele><time>2026-04-22T10:08:21Z</time></trkpt><trkpt lat="43.6534915412528" lon="6.227067442660357"><ele>687.0</ele><time>2026-04-22T10:08:22Z</time></trkpt><trkpt lat="43.65338556832859" lon="6.227007188847852"><ele>687.0</ele><time>2026-04-22T10:08:23Z</time></trkpt><trkpt lat="43.653252561740985" lon="6.226916356218159"><ele>687.0</ele><time>2026-04-22T10:08:24Z</time></trkpt><trkpt lat="43.65313455221784" lon="6.2267896303197094"><ele>687.0</ele><time>2026-04-22T10:08:25Z</time></trkpt><trkpt lat="43.65302889840177" lon="6.226611023428377"><ele>683.3333333333334</ele><time>2026-04-22T10:08:26Z</time></trkpt><trkpt lat="43.65292591309988" lon="6.226403184614313"><ele>679.6666666666667</ele><time>2026-04-22T10:08:27Z</time></trkpt><trkpt lat="43.65283684390329" lon="6.226187827354795"><ele>676.0</ele><time>2026-04-22T10:08:28Z</time></trkpt><trkpt lat="43.65277474926958" lon="6.225982808536552"><ele>676.0</ele><time>2026-04-22T10:08:29Z</time></trkpt><trkpt lat="43.652728432340865" lon="6.225798411625903"><ele>676.0</ele><time>2026-04-22T10:08:30Z</time></trkpt><trkpt lat="43.65273757318486" lon="6.2256415352224215"><ele>676.0</ele><time>2026-04-22T10:08:31Z</time></trkpt><trkpt lat="43.652776338009325" lon="6.22547660219717"><ele>676.0</ele><time>2026-04-22T10:08:32Z</time></trkpt><trkpt lat="43.65289470683701" lon="6.225373549148168"><ele>679.5</ele><time>2026-04-22T10:08:33Z</time></trkpt><trkpt lat="43.65300951139031" lon="6.225305061535477"><ele>683.0</ele><time>2026-04-22T10:08:34Z</time></trkpt><trkpt lat="43.653144352495964" lon="6.22524915748131"><ele>686.5</ele><time>2026-04-22T10:08:35Z</time></trkpt><trkpt lat="43.65330885001888" lon="6.225185262061345"><ele>690.0</ele><time>2026-04-22T10:08:36Z</time></trkpt><trkpt lat="43.65348485231034" lon="6.225085800543692"><ele>687.6666666666666</ele><time>2026-04-22T10:08:37Z</time></trkpt><trkpt lat="43.653668877623275" lon="6.224981202018491"><ele>685.3333333333333</ele><time>2026-04-22T10:08:38Z</time></trkpt><trkpt lat="43.65384902968502" lon="6.224874820032702"><ele>683.0</ele><time>2026-04-22T10:08:39Z</time></trkpt><trkpt lat="43.65404414322468" lon="6.224774113799502"><ele>683.0</ele><time>2026-04-22T10:08:40Z</time></trkpt><trkpt lat="43.65424184811637" lon="6.224663162586793"><ele>683.0</ele><time>2026-04-22T10:08:41Z</time></trkpt><trkpt lat="43.65443415815157" lon="6.224517748035529"><ele>683.0</ele><time>2026-04-22T10:08:42Z</time></trkpt><trkpt lat="43.65463096125986" lon="6.224337993069009"><ele>688.0</ele><time>2026-04-22T10:08:43Z</time></trkpt><trkpt lat="43.65479594496921" lon="6.22414686080682"><ele>693.0</ele><time>2026-04-22T10:08:44Z</time></trkpt><trkpt lat="43.65496293193852" lon="6.223953908135325"><ele>698.0</ele><time>2026-04-22T10:08:45Z</time></trkpt><trkpt lat="43.65511066004079" lon="6.223735743933158"><ele>698.0</ele><time>2026-04-22T10:08:46Z</time></trkpt><trkpt lat="43.655255307218674" lon="6.223523881145453"><ele>698.0</ele><time>2026-04-22T10:08:47Z</time></trkpt><trkpt lat="43.65538314911446" lon="6.223336195378743"><ele>698.0</ele><time>2026-04-22T10:08:48Z</time></trkpt><trkpt lat="43.65551353602948" lon="6.223193856387558"><ele>697.75</ele><time>2026-04-22T10:08:49Z</time></trkpt><trkpt lat="43.65563329918215" lon="6.22311610940235"><ele>697.5</ele><time>2026-04-22T10:08:50Z</time></trkpt><trkpt lat="43.655744215189955" lon="6.223116965677455"><ele>697.25</ele><time>2026-04-22T10:08:51Z</time></trkpt><trkpt lat="43.655843255921084" lon="6.22321515225282"><ele>697.0</ele><time>2026-04-22T10:08:52Z</time></trkpt><trkpt lat="43.65591299554356" lon="6.223333688423257"><ele>701.0</ele><time>2026-04-22T10:08:53Z</time></trkpt><trkpt lat="43.65601883946602" lon="6.2234339122408215"><ele>705.0</ele><time>2026-04-22T10:08:54Z</time></trkpt><trkpt lat="43.656145891451864" lon="6.223511579632699"><ele>709.0</ele><time>2026-04-22T10:08:55Z</time></trkpt><trkpt lat="43.65630098169179" lon="6.223565229710813"><ele>713.0</ele><time>2026-04-22T10:08:56Z</time></trkpt><trkpt lat="43.656466246990114" lon="6.22359557863508"><ele>714.6666666666666</ele><time>2026-04-22T10:08:57Z</time></trkpt><trkpt lat="43.65661353566942" lon="6.223604173761694"><ele>716.3333333333334</ele><time>2026-04-22T10:08:58Z</time></trkpt><trkpt lat="43.65674659469411" lon="6.223569081528116"><ele>718.0</ele><time>2026-04-22T10:08:59.001Z</time></trkpt><trkpt lat="43.656849655638645" lon="6.223377570127244"><ele>718.0</ele><time>2026-04-22T10:09:00.001Z</time></trkpt><trkpt lat="43.65693995941607" lon="6.223186178902658"><ele>718.0</ele><time>2026-04-22T10:09:01.001Z</time></trkpt><trkpt lat="43.6570550693098" lon="6.223020972894158"><ele>718.0</ele><time>2026-04-22T10:09:02.001Z</time></trkpt><trkpt lat="43.65718613160972" lon="6.222941859686746"><ele>719.3333333333334</ele><time>2026-04-22T10:09:03.001Z</time></trkpt><trkpt lat="43.65734893739057" lon="6.2229092705534335"><ele>720.6666666666666</ele><time>2026-04-22T10:09:04.001Z</time></trkpt><trkpt lat="43.65750498260817" lon="6.222830789895524"><ele>722.0</ele><time>2026-04-22T10:09:05.001Z</time></trkpt><trkpt lat="43.65762293796476" lon="6.222661402413811"><ele>722.0</ele><time>2026-04-22T10:09:06.001Z</time></trkpt><trkpt lat="43.65773164731619" lon="6.222436279064661"><ele>722.0</ele><time>2026-04-22T10:09:07.001Z</time></trkpt><trkpt lat="43.65777901388443" lon="6.222205597115092"><ele>722.0</ele><time>2026-04-22T10:09:08.001Z</time></trkpt><trkpt lat="43.657777325747816" lon="6.221965206196909"><ele>721.25</ele><time>2026-04-22T10:09:09.001Z</time></trkpt><trkpt lat="43.65777680564275" lon="6.2217527271475666"><ele>720.5</ele><time>2026-04-22T10:09:10.001Z</time></trkpt><trkpt lat="43.657804364194675" lon="6.221596502195291"><ele>719.75</ele><time>2026-04-22T10:09:11.001Z</time></trkpt><trkpt lat="43.65788714279448" lon="6.221477083836592"><ele>719.0</ele><time>2026-04-22T10:09:12.001Z</time></trkpt><trkpt lat="43.657996672905924" lon="6.22136685739082"><ele>726.0</ele><time>2026-04-22T10:09:13.001Z</time></trkpt><trkpt lat="43.65809620756484" lon="6.22122859230373"><ele>733.0</ele><time>2026-04-22T10:09:14.001Z</time></trkpt><trkpt lat="43.65818167213832" lon="6.221041932335555"><ele>740.0</ele><time>2026-04-22T10:09:15.001Z</time></trkpt><trkpt lat="43.65822066345712" lon="6.22080967726085"><ele>738.0</ele><time>2026-04-22T10:09:16.001Z</time></trkpt><trkpt lat="43.65819719021415" lon="6.2205447305829"><ele>736.0</ele><time>2026-04-22T10:09:17.001Z</time></trkpt><trkpt lat="43.65818512788974" lon="6.220337644061001"><ele>734.0</ele><time>2026-04-22T10:09:18.001Z</time></trkpt><trkpt lat="43.65820358229626" lon="6.220165370804482"><ele>734.0</ele><time>2026-04-22T10:09:19.001Z</time></trkpt><trkpt lat="43.65828031145923" lon="6.220039571836615"><ele>734.0</ele><time>2026-04-22T10:09:20.001Z</time></trkpt><trkpt lat="43.658407280900285" lon="6.220021171414946"><ele>734.0</ele><time>2026-04-22T10:09:21.001Z</time></trkpt><trkpt lat="43.65853499590971" lon="6.22005370658049"><ele>734.0</ele><time>2026-04-22T10:09:22.001Z</time></trkpt><trkpt lat="43.658622844231246" lon="6.220161198209323"><ele>735.5</ele><time>2026-04-22T10:09:23.001Z</time></trkpt><trkpt lat="43.65868317408964" lon="6.2202966831696385"><ele>737.0</ele><time>2026-04-22T10:09:24.001Z</time></trkpt><trkpt lat="43.65868290963979" lon="6.220454772120988"><ele>738.5</ele><time>2026-04-22T10:09:25.001Z</time></trkpt><trkpt lat="43.65862591737913" lon="6.220661912679302"><ele>740.0</ele><time>2026-04-22T10:09:26.001Z</time></trkpt><trkpt lat="43.65857132839667" lon="6.220854584625882"><ele>740.0</ele><time>2026-04-22T10:09:27.001Z</time></trkpt><trkpt lat="43.658517165652206" lon="6.221063393166697"><ele>740.0</ele><time>2026-04-22T10:09:28.001Z</time></trkpt><trkpt lat="43.65846040072398" lon="6.221296666417933"><ele>740.0</ele><time>2026-04-22T10:09:29.001Z</time></trkpt><trkpt lat="43.65841109290325" lon="6.2215484944616115"><ele>742.3333333333333</ele><time>2026-04-22T10:09:30Z</time></trkpt><trkpt lat="43.658382068253644" lon="6.221798285499007"><ele>744.6666666666666</ele><time>2026-04-22T10:09:31Z</time></trkpt><trkpt lat="43.65837657949684" lon="6.222000314119603"><ele>747.0</ele><time>2026-04-22T10:09:32Z</time></trkpt><trkpt lat="43.65841054750333" lon="6.222182845337067"><ele>748.0</ele><time>2026-04-22T10:09:33Z</time></trkpt><trkpt lat="43.65848787486813" lon="6.22239439199574"><ele>749.0</ele><time>2026-04-22T10:09:34Z</time></trkpt><trkpt lat="43.658650875990894" lon="6.222609577051034"><ele>750.0</ele><time>2026-04-22T10:09:35Z</time></trkpt><trkpt lat="43.65872126266673" lon="6.222764127888367"><ele>753.6666666666666</ele><time>2026-04-22T10:09:36Z</time></trkpt><trkpt lat="43.658871157641855" lon="6.2228324892142695"><ele>757.3333333333333</ele><time>2026-04-22T10:09:37Z</time></trkpt><trkpt lat="43.65906132744573" lon="6.222840754722648"><ele>761.0</ele><time>2026-04-22T10:09:38Z</time></trkpt><trkpt lat="43.659262142059156" lon="6.222792638665153"><ele>762.6666666666666</ele><time>2026-04-22T10:09:39Z</time></trkpt><trkpt lat="43.659461975708936" lon="6.222718292477673"><ele>764.3333333333334</ele><time>2026-04-22T10:09:40Z</time></trkpt><trkpt lat="43.659663643543965" lon="6.222615654662436"><ele>766.0</ele><time>2026-04-22T10:09:41Z</time></trkpt><trkpt lat="43.65986419535991" lon="6.222538390367174"><ele>766.0</ele><time>2026-04-22T10:09:42Z</time></trkpt><trkpt lat="43.66004598785314" lon="6.222502219755301"><ele>766.0</ele><time>2026-04-22T10:09:43Z</time></trkpt><trkpt lat="43.66021915753237" lon="6.2225333767714455"><ele>766.0</ele><time>2026-04-22T10:09:44Z</time></trkpt><trkpt lat="43.6603555659797" lon="6.222648773815757"><ele>768.5</ele><time>2026-04-22T10:09:45Z</time></trkpt><trkpt lat="43.660456110710896" lon="6.222794806887021"><ele>771.0</ele><time>2026-04-22T10:09:46Z</time></trkpt><trkpt lat="43.66052062357572" lon="6.222962601588108"><ele>773.5</ele><time>2026-04-22T10:09:47Z</time></trkpt><trkpt lat="43.660562883272476" lon="6.223166468959731"><ele>776.0</ele><time>2026-04-22T10:09:48Z</time></trkpt><trkpt lat="43.66060408345805" lon="6.223392595860861"><ele>776.0</ele><time>2026-04-22T10:09:49Z</time></trkpt><trkpt lat="43.66064059564261" lon="6.223641217586067"><ele>776.0</ele><time>2026-04-22T10:09:50Z</time></trkpt><trkpt lat="43.660678926280156" lon="6.223906500070332"><ele>776.0</ele><time>2026-04-22T10:09:51Z</time></trkpt><trkpt lat="43.66072713702791" lon="6.224178682212251"><ele>776.3333333333334</ele><time>2026-04-22T10:09:52Z</time></trkpt><trkpt lat="43.66077396317564" lon="6.224462969563903"><ele>776.6666666666667</ele><time>2026-04-22T10:09:53Z</time></trkpt><trkpt lat="43.66081186354919" lon="6.224759945979766"><ele>777.0</ele><time>2026-04-22T10:09:54Z</time></trkpt><trkpt lat="43.66085323465008" lon="6.225067382885109"><ele>777.0</ele><time>2026-04-22T10:09:55Z</time></trkpt><trkpt lat="43.6609004356417" lon="6.225372844882639"><ele>777.0</ele><time>2026-04-22T10:09:56Z</time></trkpt><trkpt lat="43.66096025236345" lon="6.225657294023106"><ele>777.0</ele><time>2026-04-22T10:09:57Z</time></trkpt><trkpt lat="43.661041236730284" lon="6.225835889984415"><ele>785.5</ele><time>2026-04-22T10:09:58Z</time></trkpt><trkpt lat="43.66117599878325" lon="6.22609503765966"><ele>794.0</ele><time>2026-04-22T10:09:59Z</time></trkpt><trkpt lat="43.661373121198785" lon="6.22635073357549"><ele>791.5</ele><time>2026-04-22T10:10:00Z</time></trkpt><trkpt lat="43.661562782891835" lon="6.226549068065907"><ele>789.0</ele><time>2026-04-22T10:10:01Z</time></trkpt><trkpt lat="43.661768003374846" lon="6.226688931304346"><ele>792.0</ele><time>2026-04-22T10:10:02Z</time></trkpt><trkpt lat="43.662032032401356" lon="6.226769578677657"><ele>795.0</ele><time>2026-04-22T10:10:03Z</time></trkpt><trkpt lat="43.66227984959711" lon="6.2268375093462245"><ele>795.0</ele><time>2026-04-22T10:10:04Z</time></trkpt><trkpt lat="43.66253683014024" lon="6.2269001719173165"><ele>795.0</ele><time>2026-04-22T10:10:05Z</time></trkpt><trkpt lat="43.66279951231015" lon="6.226954705780558"><ele>798.0</ele><time>2026-04-22T10:10:06Z</time></trkpt><trkpt lat="43.66306588080069" lon="6.227004892482498"><ele>801.0</ele><time>2026-04-22T10:10:07Z</time></trkpt><trkpt lat="43.6633345968492" lon="6.227064842654105"><ele>801.0</ele><time>2026-04-22T10:10:08Z</time></trkpt><trkpt lat="43.663597107278925" lon="6.227119068709261"><ele>801.0</ele><time>2026-04-22T10:10:09Z</time></trkpt><trkpt lat="43.663838791992134" lon="6.227184982771334"><ele>800.5</ele><time>2026-04-22T10:10:10Z</time></trkpt><trkpt lat="43.66407420663882" lon="6.227237419572802"><ele>800.0</ele><time>2026-04-22T10:10:11Z</time></trkpt><trkpt lat="43.66431380779279" lon="6.227278742532995"><ele>797.0</ele><time>2026-04-22T10:10:12Z</time></trkpt><trkpt lat="43.664542186803544" lon="6.227306998535895"><ele>794.0</ele><time>2026-04-22T10:10:13Z</time></trkpt><trkpt lat="43.664793588448866" lon="6.227295763417172"><ele>794.0</ele><time>2026-04-22T10:10:14Z</time></trkpt><trkpt lat="43.665054381104575" lon="6.227238667591396"><ele>794.0</ele><time>2026-04-22T10:10:15Z</time></trkpt><trkpt lat="43.665326720375965" lon="6.227166787825539"><ele>788.5</ele><time>2026-04-22T10:10:16Z</time></trkpt><trkpt lat="43.66560154449997" lon="6.227091385854693"><ele>783.0</ele><time>2026-04-22T10:10:17Z</time></trkpt><trkpt lat="43.665868582409864" lon="6.2270321504369015"><ele>779.5</ele><time>2026-04-22T10:10:18Z</time></trkpt><trkpt lat="43.66612327936826" lon="6.2269976360692185"><ele>776.0</ele><time>2026-04-22T10:10:19Z</time></trkpt><trkpt lat="43.66637696496648" lon="6.226984130888998"><ele>776.0</ele><time>2026-04-22T10:10:20Z</time></trkpt><trkpt lat="43.66663145222442" lon="6.226991744306389"><ele>776.0</ele><time>2026-04-22T10:10:21Z</time></trkpt><trkpt lat="43.66686548346823" lon="6.226986239211118"><ele>773.0</ele><time>2026-04-22T10:10:22Z</time></trkpt><trkpt lat="43.66708974847899" lon="6.2269456212290955"><ele>770.0</ele><time>2026-04-22T10:10:23Z</time></trkpt><trkpt lat="43.6673231700747" lon="6.226864644627302"><ele>770.0</ele><time>2026-04-22T10:10:24Z</time></trkpt><trkpt lat="43.66755082649393" lon="6.226734462181137"><ele>770.0</ele><time>2026-04-22T10:10:25Z</time></trkpt><trkpt lat="43.667793658903115" lon="6.22653393430209"><ele>765.5</ele><time>2026-04-22T10:10:26Z</time></trkpt><trkpt lat="43.66803208105177" lon="6.2262927604048075"><ele>761.0</ele><time>2026-04-22T10:10:27Z</time></trkpt><trkpt lat="43.668278585886206" lon="6.226068578911809"><ele>761.0</ele><time>2026-04-22T10:10:28Z</time></trkpt><trkpt lat="43.6685254808802" lon="6.225844661596465"><ele>761.0</ele><time>2026-04-22T10:10:29Z</time></trkpt><trkpt lat="43.668746784498666" lon="6.225584877991361"><ele>759.0</ele><time>2026-04-22T10:10:30Z</time></trkpt><trkpt lat="43.668975781081336" lon="6.225370798650898"><ele>757.0</ele><time>2026-04-22T10:10:31Z</time></trkpt><trkpt lat="43.66919383376778" lon="6.2251705059140106"><ele>757.0</ele><time>2026-04-22T10:10:32Z</time></trkpt><trkpt lat="43.669409877150386" lon="6.2249854450447275"><ele>757.0</ele><time>2026-04-22T10:10:33Z</time></trkpt><trkpt lat="43.66963557148915" lon="6.224826525850736"><ele>753.5</ele><time>2026-04-22T10:10:34Z</time></trkpt><trkpt lat="43.66987584610144" lon="6.2246902414481"><ele>750.0</ele><time>2026-04-22T10:10:35Z</time></trkpt><trkpt lat="43.67011716721562" lon="6.224585660120458"><ele>748.0</ele><time>2026-04-22T10:10:36Z</time></trkpt><trkpt lat="43.67035205284272" lon="6.224484055568057"><ele>746.0</ele><time>2026-04-22T10:10:37Z</time></trkpt><trkpt lat="43.67058043856772" lon="6.224407688803203"><ele>746.0</ele><time>2026-04-22T10:10:38Z</time></trkpt><trkpt lat="43.67081655391438" lon="6.2243528221227145"><ele>746.0</ele><time>2026-04-22T10:10:39Z</time></trkpt><trkpt lat="43.671067182378266" lon="6.224334276446337"><ele>744.0</ele><time>2026-04-22T10:10:40Z</time></trkpt><trkpt lat="43.6713166739615" lon="6.2243535137650925"><ele>742.0</ele><time>2026-04-22T10:10:41Z</time></trkpt><trkpt lat="43.671582550599176" lon="6.224377796702426"><ele>742.0</ele><time>2026-04-22T10:10:42Z</time></trkpt><trkpt lat="43.67185082752654" lon="6.224406731848229"><ele>742.0</ele><time>2026-04-22T10:10:43Z</time></trkpt><trkpt lat="43.67212713422573" lon="6.224432985724118"><ele>740.0</ele><time>2026-04-22T10:10:44Z</time></trkpt><trkpt lat="43.67239392356487" lon="6.224448122693292"><ele>738.0</ele><time>2026-04-22T10:10:45Z</time></trkpt><trkpt lat="43.67265793191889" lon="6.224455100572477"><ele>736.6666666666666</ele><time>2026-04-22T10:10:46Z</time></trkpt><trkpt lat="43.67287866417865" lon="6.2245115674715725"><ele>735.3333333333333</ele><time>2026-04-22T10:10:47Z</time></trkpt><trkpt lat="43.67308522982561" lon="6.224587862393876"><ele>734.0</ele><time>2026-04-22T10:10:48Z</time></trkpt><trkpt lat="43.673362274482386" lon="6.224705190315237"><ele>734.0</ele><time>2026-04-22T10:10:49Z</time></trkpt><trkpt lat="43.67360444158838" lon="6.224812499321176"><ele>734.0</ele><time>2026-04-22T10:10:50Z</time></trkpt><trkpt lat="43.67382856979306" lon="6.224873550977767"><ele>730.5</ele><time>2026-04-22T10:10:51Z</time></trkpt><trkpt lat="43.67406540601948" lon="6.22489992483312"><ele>727.0</ele><time>2026-04-22T10:10:52Z</time></trkpt><trkpt lat="43.67431101729532" lon="6.22488644243154"><ele>727.0</ele><time>2026-04-22T10:10:53Z</time></trkpt><trkpt lat="43.67456055395088" lon="6.224826625899112"><ele>727.0</ele><time>2026-04-22T10:10:54Z</time></trkpt><trkpt lat="43.67482769138989" lon="6.224746621552992"><ele>727.0</ele><time>2026-04-22T10:10:55Z</time></trkpt><trkpt lat="43.67510782733989" lon="6.224679794663568"><ele>727.0</ele><time>2026-04-22T10:10:56Z</time></trkpt><trkpt lat="43.67543193606839" lon="6.224613378987058"><ele>723.5</ele><time>2026-04-22T10:10:57Z</time></trkpt><trkpt lat="43.675736038606736" lon="6.2245081024901925"><ele>720.0</ele><time>2026-04-22T10:10:58Z</time></trkpt><trkpt lat="43.67598558396272" lon="6.224449469348723"><ele>718.0</ele><time>2026-04-22T10:10:59Z</time></trkpt><trkpt lat="43.676130175702525" lon="6.224476616476024"><ele>716.0</ele><time>2026-04-22T10:11:00Z</time></trkpt><trkpt lat="43.67635387215672" lon="6.224443375690524"><ele>714.0</ele><time>2026-04-22T10:11:01.001Z</time></trkpt><trkpt lat="43.67658233828384" lon="6.224408390934958"><ele>714.0</ele><time>2026-04-22T10:11:02.001Z</time></trkpt><trkpt lat="43.676803589960855" lon="6.224367504463361"><ele>714.0</ele><time>2026-04-22T10:11:03.001Z</time></trkpt><trkpt lat="43.67701502301631" lon="6.224283784283085"><ele>714.0</ele><time>2026-04-22T10:11:04.001Z</time></trkpt><trkpt lat="43.67720953520319" lon="6.224141896919843"><ele>712.5</ele><time>2026-04-22T10:11:05.001Z</time></trkpt><trkpt lat="43.67739477197592" lon="6.223931171163076"><ele>711.0</ele><time>2026-04-22T10:11:06.001Z</time></trkpt><trkpt lat="43.67756240426604" lon="6.223684501776967"><ele>711.0</ele><time>2026-04-22T10:11:07.001Z</time></trkpt><trkpt lat="43.677720212500226" lon="6.223440654138735"><ele>711.0</ele><time>2026-04-22T10:11:08.001Z</time></trkpt><trkpt lat="43.677872025795644" lon="6.223228701095523"><ele>709.6666666666666</ele><time>2026-04-22T10:11:09.001Z</time></trkpt><trkpt lat="43.678022246397866" lon="6.223078026876268"><ele>708.3333333333333</ele><time>2026-04-22T10:11:10.001Z</time></trkpt><trkpt lat="43.6781891665469" lon="6.222980015205885"><ele>707.0</ele><time>2026-04-22T10:11:11.001Z</time></trkpt><trkpt lat="43.678372438069225" lon="6.222926029094211"><ele>707.0</ele><time>2026-04-22T10:11:12.001Z</time></trkpt><trkpt lat="43.67857267554661" lon="6.2229217616246455"><ele>707.0</ele><time>2026-04-22T10:11:13.001Z</time></trkpt><trkpt lat="43.67878521133186" lon="6.222944405976594"><ele>707.0</ele><time>2026-04-22T10:11:14.001Z</time></trkpt><trkpt lat="43.67901046571059" lon="6.222966347692592"><ele>705.5</ele><time>2026-04-22T10:11:15.001Z</time></trkpt><trkpt lat="43.67924542150666" lon="6.222976396331872"><ele>704.0</ele><time>2026-04-22T10:11:16.001Z</time></trkpt><trkpt lat="43.67949397418848" lon="6.222984305895689"><ele>702.0</ele><time>2026-04-22T10:11:17.001Z</time></trkpt><trkpt lat="43.67974882381572" lon="6.223003057584348"><ele>700.0</ele><time>2026-04-22T10:11:18.001Z</time></trkpt><trkpt lat="43.68001485478257" lon="6.223025381042079"><ele>698.5</ele><time>2026-04-22T10:11:19.001Z</time></trkpt><trkpt lat="43.68028085986043" lon="6.223041545850013"><ele>697.0</ele><time>2026-04-22T10:11:20.001Z</time></trkpt><trkpt lat="43.68056093711258" lon="6.223070873026473"><ele>697.0</ele><time>2026-04-22T10:11:21.001Z</time></trkpt><trkpt lat="43.68086922437723" lon="6.223093935503054"><ele>697.0</ele><time>2026-04-22T10:11:22.001Z</time></trkpt><trkpt lat="43.68115726370849" lon="6.223121363251908"><ele>694.5</ele><time>2026-04-22T10:11:23.001Z</time></trkpt><trkpt lat="43.6814450888411" lon="6.2231503590676835"><ele>692.0</ele><time>2026-04-22T10:11:24.001Z</time></trkpt><trkpt lat="43.6817339061749" lon="6.223180130050558"><ele>690.5</ele><time>2026-04-22T10:11:25.001Z</time></trkpt><trkpt lat="43.68202192481392" lon="6.223207716792324"><ele>689.0</ele><time>2026-04-22T10:11:26.001Z</time></trkpt><trkpt lat="43.682312878167025" lon="6.223236178678928"><ele>689.0</ele><time>2026-04-22T10:11:27.001Z</time></trkpt><trkpt lat="43.682605081783464" lon="6.223260173968703"><ele>689.0</ele><time>2026-04-22T10:11:28.001Z</time></trkpt><trkpt lat="43.682889659508085" lon="6.223290366428842"><ele>688.5</ele><time>2026-04-22T10:11:29.001Z</time></trkpt><trkpt lat="43.68317573250366" lon="6.22332108206105"><ele>688.0</ele><time>2026-04-22T10:11:30.001Z</time></trkpt><trkpt lat="43.68345985956358" lon="6.223354015713935"><ele>687.0</ele><time>2026-04-22T10:11:31.001Z</time></trkpt><trkpt lat="43.68374487479156" lon="6.22337868808251"><ele>686.0</ele><time>2026-04-22T10:11:32.001Z</time></trkpt><trkpt lat="43.684033224185185" lon="6.223402663982042"><ele>686.0</ele><time>2026-04-22T10:11:33.001Z</time></trkpt><trkpt lat="43.68431905558032" lon="6.22342709658332"><ele>686.0</ele><time>2026-04-22T10:11:34.001Z</time></trkpt><trkpt lat="43.684592894432065" lon="6.223449368407773"><ele>684.5</ele><time>2026-04-22T10:11:35.001Z</time></trkpt><trkpt lat="43.68483356538314" lon="6.223503724683069"><ele>683.0</ele><time>2026-04-22T10:11:36Z</time></trkpt><trkpt lat="43.68503961599899" lon="6.223515961915917"><ele>683.0</ele><time>2026-04-22T10:11:37Z</time></trkpt><trkpt lat="43.685258987833905" lon="6.223545783200073"><ele>683.0</ele><time>2026-04-22T10:11:38Z</time></trkpt><trkpt lat="43.68555660253262" lon="6.2235570202926604"><ele>682.5</ele><time>2026-04-22T10:11:39Z</time></trkpt><trkpt lat="43.68579784933312" lon="6.223557770230132"><ele>682.0</ele><time>2026-04-22T10:11:40Z</time></trkpt><trkpt lat="43.686036192616605" lon="6.223520214196188"><ele>681.5</ele><time>2026-04-22T10:11:41Z</time></trkpt><trkpt lat="43.68626747009173" lon="6.223440266689406"><ele>681.0</ele><time>2026-04-22T10:11:42Z</time></trkpt><trkpt lat="43.68650643862843" lon="6.223315433856287"><ele>681.0</ele><time>2026-04-22T10:11:43Z</time></trkpt><trkpt lat="43.686751289733806" lon="6.223172343008015"><ele>681.0</ele><time>2026-04-22T10:11:44Z</time></trkpt><trkpt lat="43.68700810517432" lon="6.223050854488617"><ele>679.0</ele><time>2026-04-22T10:11:45Z</time></trkpt><trkpt lat="43.68726406836536" lon="6.222889897085566"><ele>677.0</ele><time>2026-04-22T10:11:46Z</time></trkpt><trkpt lat="43.68753247337301" lon="6.222748544244602"><ele>676.5</ele><time>2026-04-22T10:11:47Z</time></trkpt><trkpt lat="43.68780788147493" lon="6.22259720994202"><ele>676.0</ele><time>2026-04-22T10:11:48Z</time></trkpt><trkpt lat="43.68807801477401" lon="6.222449578009861"><ele>676.0</ele><time>2026-04-22T10:11:49Z</time></trkpt><trkpt lat="43.68835631382651" lon="6.222317249682043"><ele>676.0</ele><time>2026-04-22T10:11:50Z</time></trkpt><trkpt lat="43.68862209272862" lon="6.22217290472188"><ele>675.5</ele><time>2026-04-22T10:11:51Z</time></trkpt><trkpt lat="43.6888839950428" lon="6.222029250623105"><ele>675.0</ele><time>2026-04-22T10:11:52Z</time></trkpt><trkpt lat="43.689139990035336" lon="6.221888625582793"><ele>675.0</ele><time>2026-04-22T10:11:53Z</time></trkpt><trkpt lat="43.689400767556165" lon="6.221745371607261"><ele>675.0</ele><time>2026-04-22T10:11:54Z</time></trkpt><trkpt lat="43.689660929473476" lon="6.221602494476149"><ele>674.5</ele><time>2026-04-22T10:11:55Z</time></trkpt><trkpt lat="43.68991757117866" lon="6.221438292510077"><ele>674.0</ele><time>2026-04-22T10:11:56Z</time></trkpt><trkpt lat="43.69018114755541" lon="6.221297350080655"><ele>673.0</ele><time>2026-04-22T10:11:57Z</time></trkpt><trkpt lat="43.69044444542396" lon="6.221152562301035"><ele>672.0</ele><time>2026-04-22T10:11:58Z</time></trkpt><trkpt lat="43.69072317032094" lon="6.221021165771383"><ele>672.0</ele><time>2026-04-22T10:11:59Z</time></trkpt><trkpt lat="43.690995641646836" lon="6.220833753502617"><ele>672.0</ele><time>2026-04-22T10:12:00Z</time></trkpt><trkpt lat="43.691273600693876" lon="6.220647316790949"><ele>672.0</ele><time>2026-04-22T10:12:01Z</time></trkpt><trkpt lat="43.691546446176574" lon="6.2204387198520035"><ele>672.0</ele><time>2026-04-22T10:12:02Z</time></trkpt><trkpt lat="43.691821442829" lon="6.220215602693787"><ele>672.5</ele><time>2026-04-22T10:12:03Z</time></trkpt><trkpt lat="43.692089096614055" lon="6.219993278640253"><ele>673.0</ele><time>2026-04-22T10:12:04Z</time></trkpt><trkpt lat="43.692352987638266" lon="6.21977988672557"><ele>671.5</ele><time>2026-04-22T10:12:05Z</time></trkpt><trkpt lat="43.692603190415305" lon="6.219583636168669"><ele>670.0</ele><time>2026-04-22T10:12:06Z</time></trkpt><trkpt lat="43.692869692701656" lon="6.2194235401062405"><ele>670.0</ele><time>2026-04-22T10:12:07Z</time></trkpt><trkpt lat="43.693125986278865" lon="6.219266577343441"><ele>670.0</ele><time>2026-04-22T10:12:08Z</time></trkpt><trkpt lat="43.6933725221178" lon="6.219118122109103"><ele>669.0</ele><time>2026-04-22T10:12:09Z</time></trkpt><trkpt lat="43.69361975907598" lon="6.218970060123776"><ele>668.0</ele><time>2026-04-22T10:12:10Z</time></trkpt><trkpt lat="43.69392105320792" lon="6.218818676819151"><ele>668.0</ele><time>2026-04-22T10:12:11Z</time></trkpt><trkpt lat="43.69424996161373" lon="6.218698761797891"><ele>668.0</ele><time>2026-04-22T10:12:12Z</time></trkpt><trkpt lat="43.694554019318915" lon="6.218602340740006"><ele>668.0</ele><time>2026-04-22T10:12:13Z</time></trkpt><trkpt lat="43.694676049759416" lon="6.218565922817509"><ele>668.0</ele><time>2026-04-22T10:12:14Z</time></trkpt><trkpt lat="43.69496652852575" lon="6.21848101310313"><ele>668.0</ele><time>2026-04-22T10:12:15Z</time></trkpt><trkpt lat="43.69526419832734" lon="6.218396782871682"><ele>668.5</ele><time>2026-04-22T10:12:16Z</time></trkpt><trkpt lat="43.695563325902654" lon="6.218312140134194"><ele>669.0</ele><time>2026-04-22T10:12:17Z</time></trkpt><trkpt lat="43.695858860550736" lon="6.218227973337359"><ele>668.0</ele><time>2026-04-22T10:12:18Z</time></trkpt><trkpt lat="43.69614345511058" lon="6.2181471912682875"><ele>667.0</ele><time>2026-04-22T10:12:19Z</time></trkpt><trkpt lat="43.69642228285648" lon="6.218068187062881"><ele>667.0</ele><time>2026-04-22T10:12:20Z</time></trkpt><trkpt lat="43.69670078860358" lon="6.217989711440651"><ele>667.0</ele><time>2026-04-22T10:12:21Z</time></trkpt><trkpt lat="43.696976306298794" lon="6.217914328101395"><ele>666.5</ele><time>2026-04-22T10:12:22Z</time></trkpt><trkpt lat="43.69725345919044" lon="6.217840035491527"><ele>666.0</ele><time>2026-04-22T10:12:23Z</time></trkpt><trkpt lat="43.697522676233696" lon="6.217767870141322"><ele>666.5</ele><time>2026-04-22T10:12:24Z</time></trkpt><trkpt lat="43.697775187489" lon="6.21768548482573"><ele>667.0</ele><time>2026-04-22T10:12:25Z</time></trkpt><trkpt lat="43.69802403319617" lon="6.217688310114888"><ele>667.0</ele><time>2026-04-22T10:12:26Z</time></trkpt><trkpt lat="43.69828443183303" lon="6.217684017037663"><ele>667.0</ele><time>2026-04-22T10:12:27Z</time></trkpt><trkpt lat="43.69855394058592" lon="6.217687995327526"><ele>666.5</ele><time>2026-04-22T10:12:28Z</time></trkpt><trkpt lat="43.69882626411342" lon="6.21769289178971"><ele>666.0</ele><time>2026-04-22T10:12:29Z</time></trkpt><trkpt lat="43.699103336064404" lon="6.217709530570867"><ele>666.0</ele><time>2026-04-22T10:12:30Z</time></trkpt><trkpt lat="43.69938477223948" lon="6.217751529384646"><ele>666.0</ele><time>2026-04-22T10:12:31Z</time></trkpt><trkpt lat="43.69967488161383" lon="6.217799201483504"><ele>664.5</ele><time>2026-04-22T10:12:32Z</time></trkpt><trkpt lat="43.699965428349444" lon="6.217846945455013"><ele>663.0</ele><time>2026-04-22T10:12:33Z</time></trkpt><trkpt lat="43.700266047665224" lon="6.217895025708546"><ele>663.0</ele><time>2026-04-22T10:12:34Z</time></trkpt><trkpt lat="43.70057354359839" lon="6.217928907888331"><ele>663.0</ele><time>2026-04-22T10:12:35Z</time></trkpt><trkpt lat="43.700870233685" lon="6.2179771700836595"><ele>662.5</ele><time>2026-04-22T10:12:36Z</time></trkpt><trkpt lat="43.701155728345626" lon="6.2180218401944245"><ele>662.0</ele><time>2026-04-22T10:12:37Z</time></trkpt><trkpt lat="43.70141942033396" lon="6.218041302474737"><ele>662.0</ele><time>2026-04-22T10:12:38Z</time></trkpt><trkpt lat="43.70167276212362" lon="6.218061039745754"><ele>662.0</ele><time>2026-04-22T10:12:39Z</time></trkpt><trkpt lat="43.70191268401492" lon="6.218049991780993"><ele>662.5</ele><time>2026-04-22T10:12:40Z</time></trkpt><trkpt lat="43.70217039557344" lon="6.218018499603125"><ele>663.0</ele><time>2026-04-22T10:12:41Z</time></trkpt><trkpt lat="43.702421869165335" lon="6.217995561134657"><ele>663.0</ele><time>2026-04-22T10:12:42Z</time></trkpt><trkpt lat="43.70266962684707" lon="6.2179873254406255"><ele>663.0</ele><time>2026-04-22T10:12:43Z</time></trkpt><trkpt lat="43.7029304902903" lon="6.2179868677529715"><ele>662.0</ele><time>2026-04-22T10:12:44Z</time></trkpt><trkpt lat="43.703196169402865" lon="6.217980756063819"><ele>661.0</ele><time>2026-04-22T10:12:45Z</time></trkpt><trkpt lat="43.703460700139296" lon="6.2179636916437255"><ele>660.5</ele><time>2026-04-22T10:12:46Z</time></trkpt><trkpt lat="43.703715338822164" lon="6.217965880507541"><ele>660.0</ele><time>2026-04-22T10:12:47Z</time></trkpt><trkpt lat="43.70396971710324" lon="6.217957433454691"><ele>660.0</ele><time>2026-04-22T10:12:48Z</time></trkpt><trkpt lat="43.70423098782333" lon="6.217978666081401"><ele>660.0</ele><time>2026-04-22T10:12:49Z</time></trkpt><trkpt lat="43.70450444023367" lon="6.218010055026588"><ele>659.5</ele><time>2026-04-22T10:12:50Z</time></trkpt><trkpt lat="43.70478719707744" lon="6.218053970070367"><ele>659.0</ele><time>2026-04-22T10:12:51Z</time></trkpt><trkpt lat="43.70507180456887" lon="6.218092199071134"><ele>658.5</ele><time>2026-04-22T10:12:52Z</time></trkpt><trkpt lat="43.70534675178532" lon="6.218127002974713"><ele>658.0</ele><time>2026-04-22T10:12:53Z</time></trkpt><trkpt lat="43.70562238712039" lon="6.218161109992054"><ele>658.5</ele><time>2026-04-22T10:12:54Z</time></trkpt><trkpt lat="43.70590125815891" lon="6.2182038726910305"><ele>659.0</ele><time>2026-04-22T10:12:55Z</time></trkpt><trkpt lat="43.706175539957876" lon="6.218244868566847"><ele>659.0</ele><time>2026-04-22T10:12:56Z</time></trkpt><trkpt lat="43.70641824765616" lon="6.218275568728701"><ele>659.0</ele><time>2026-04-22T10:12:57Z</time></trkpt><trkpt lat="43.70662541135965" lon="6.218316733861531"><ele>659.0</ele><time>2026-04-22T10:12:58Z</time></trkpt><trkpt lat="43.70688449760816" lon="6.2183633198775325"><ele>659.0</ele><time>2026-04-22T10:12:59Z</time></trkpt><trkpt lat="43.70711620384178" lon="6.218447148074286"><ele>659.0</ele><time>2026-04-22T10:13:00Z</time></trkpt><trkpt lat="43.7073479163908" lon="6.218547933090347"><ele>659.0</ele><time>2026-04-22T10:13:01Z</time></trkpt><trkpt lat="43.70756505429953" lon="6.218660002029937"><ele>657.5</ele><time>2026-04-22T10:13:02Z</time></trkpt><trkpt lat="43.70778630501151" lon="6.218784264618195"><ele>656.0</ele><time>2026-04-22T10:13:03Z</time></trkpt><trkpt lat="43.70800876203448" lon="6.2188954327599655"><ele>658.5</ele><time>2026-04-22T10:13:04Z</time></trkpt><trkpt lat="43.708238522577034" lon="6.219011556525947"><ele>661.0</ele><time>2026-04-22T10:13:05Z</time></trkpt><trkpt lat="43.70847312348174" lon="6.21912746262693"><ele>661.0</ele><time>2026-04-22T10:13:06Z</time></trkpt><trkpt lat="43.70871439655802" lon="6.219223746162896"><ele>661.0</ele><time>2026-04-22T10:13:07Z</time></trkpt><trkpt lat="43.708940123353024" lon="6.219296941975239"><ele>661.0</ele><time>2026-04-22T10:13:08Z</time></trkpt><trkpt lat="43.709144277543665" lon="6.219372926758915"><ele>661.0</ele><time>2026-04-22T10:13:09Z</time></trkpt><trkpt lat="43.709339893289666" lon="6.219448278652193"><ele>661.0</ele><time>2026-04-22T10:13:10Z</time></trkpt><trkpt lat="43.70952755473751" lon="6.219520650885605"><ele>660.3333333333334</ele><time>2026-04-22T10:13:11Z</time></trkpt><trkpt lat="43.70971047066128" lon="6.219594941391047"><ele>659.6666666666666</ele><time>2026-04-22T10:13:12Z</time></trkpt><trkpt lat="43.709889096642144" lon="6.219670193221447"><ele>659.0</ele><time>2026-04-22T10:13:13Z</time></trkpt><trkpt lat="43.710065559310124" lon="6.219736227675582"><ele>659.0</ele><time>2026-04-22T10:13:14Z</time></trkpt><trkpt lat="43.71025510444819" lon="6.219769054488652"><ele>659.0</ele><time>2026-04-22T10:13:15Z</time></trkpt><trkpt lat="43.71046111343542" lon="6.21978358726822"><ele>659.0</ele><time>2026-04-22T10:13:16Z</time></trkpt><trkpt lat="43.71068197044163" lon="6.219749932145521"><ele>659.0</ele><time>2026-04-22T10:13:17Z</time></trkpt><trkpt lat="43.71090128931312" lon="6.2196822702331085"><ele>659.0</ele><time>2026-04-22T10:13:18Z</time></trkpt><trkpt lat="43.711120426407554" lon="6.219596036083353"><ele>660.0</ele><time>2026-04-22T10:13:19Z</time></trkpt><trkpt lat="43.71133732818206" lon="6.219510926061836"><ele>661.0</ele><time>2026-04-22T10:13:20Z</time></trkpt><trkpt lat="43.71153521783327" lon="6.219442399831013"><ele>662.0</ele><time>2026-04-22T10:13:21Z</time></trkpt><trkpt lat="43.711716033307056" lon="6.219404379932578"><ele>662.0</ele><time>2026-04-22T10:13:22.001Z</time></trkpt><trkpt lat="43.711905506592714" lon="6.219396829605209"><ele>662.0</ele><time>2026-04-22T10:13:23.001Z</time></trkpt><trkpt lat="43.71209509500083" lon="6.219420328048111"><ele>662.0</ele><time>2026-04-22T10:13:24.001Z</time></trkpt><trkpt lat="43.712289253914065" lon="6.2194669270776215"><ele>662.6666666666666</ele><time>2026-04-22T10:13:25.001Z</time></trkpt><trkpt lat="43.71248555775991" lon="6.219516885160531"><ele>663.3333333333334</ele><time>2026-04-22T10:13:26.001Z</time></trkpt><trkpt lat="43.71269301766316" lon="6.219565237023812"><ele>664.0</ele><time>2026-04-22T10:13:27.001Z</time></trkpt><trkpt lat="43.71289749329209" lon="6.21961357557812"><ele>664.6666666666667</ele><time>2026-04-22T10:13:28.001Z</time></trkpt><trkpt lat="43.71310550500466" lon="6.219666284438041"><ele>665.3333333333334</ele><time>2026-04-22T10:13:29.001Z</time></trkpt><trkpt lat="43.71331596625238" lon="6.219739935970162"><ele>666.0</ele><time>2026-04-22T10:13:30.001Z</time></trkpt><trkpt lat="43.713525539422356" lon="6.219827264378131"><ele>667.5</ele><time>2026-04-22T10:13:31.001Z</time></trkpt><trkpt lat="43.713742412957934" lon="6.219934493212592"><ele>669.0</ele><time>2026-04-22T10:13:32.001Z</time></trkpt><trkpt lat="43.7139504883109" lon="6.220041720296622"><ele>669.0</ele><time>2026-04-22T10:13:33.001Z</time></trkpt><trkpt lat="43.71416814121759" lon="6.220160120423264"><ele>669.0</ele><time>2026-04-22T10:13:34.001Z</time></trkpt><trkpt lat="43.714381874281905" lon="6.220282627104234"><ele>669.6666666666666</ele><time>2026-04-22T10:13:35.001Z</time></trkpt><trkpt lat="43.71459135425574" lon="6.220399120863789"><ele>670.3333333333333</ele><time>2026-04-22T10:13:36.001Z</time></trkpt><trkpt lat="43.71479710516574" lon="6.220509164436288"><ele>671.0</ele><time>2026-04-22T10:13:37.001Z</time></trkpt><trkpt lat="43.71499941453634" lon="6.220608592053838"><ele>671.6666666666666</ele><time>2026-04-22T10:13:38.001Z</time></trkpt><trkpt lat="43.71519464581292" lon="6.220708114314126"><ele>672.3333333333334</ele><time>2026-04-22T10:13:39.001Z</time></trkpt><trkpt lat="43.715376710794985" lon="6.22081316042512"><ele>673.0</ele><time>2026-04-22T10:13:40.001Z</time></trkpt><trkpt lat="43.71556494549268" lon="6.220942966263409"><ele>673.0</ele><time>2026-04-22T10:13:41.001Z</time></trkpt><trkpt lat="43.71576841554977" lon="6.2211000358970985"><ele>673.0</ele><time>2026-04-22T10:13:42Z</time></trkpt><trkpt lat="43.71597307556476" lon="6.22127314276686"><ele>673.0</ele><time>2026-04-22T10:13:43Z</time></trkpt><trkpt lat="43.71619940719782" lon="6.2214288454636035"><ele>673.0</ele><time>2026-04-22T10:13:44Z</time></trkpt><trkpt lat="43.71643780494831" lon="6.221580429901531"><ele>673.0</ele><time>2026-04-22T10:13:45Z</time></trkpt><trkpt lat="43.71669022701051" lon="6.221727229204555"><ele>673.0</ele><time>2026-04-22T10:13:46Z</time></trkpt><trkpt lat="43.71694770224451" lon="6.221904557053783"><ele>670.5</ele><time>2026-04-22T10:13:47Z</time></trkpt><trkpt lat="43.717205513611376" lon="6.222075441490446"><ele>668.0</ele><time>2026-04-22T10:13:48Z</time></trkpt><trkpt lat="43.71746653535162" lon="6.222235725315816"><ele>670.5</ele><time>2026-04-22T10:13:49Z</time></trkpt><trkpt lat="43.71773497875586" lon="6.222375648631218"><ele>673.0</ele><time>2026-04-22T10:13:50Z</time></trkpt><trkpt lat="43.71800776512784" lon="6.2224911832002086"><ele>673.0</ele><time>2026-04-22T10:13:51Z</time></trkpt><trkpt lat="43.71828806152181" lon="6.222581229776674"><ele>673.0</ele><time>2026-04-22T10:13:52Z</time></trkpt><trkpt lat="43.71857916366413" lon="6.222677492380256"><ele>674.5</ele><time>2026-04-22T10:13:53Z</time></trkpt><trkpt lat="43.71887333442501" lon="6.222782006064884"><ele>676.0</ele><time>2026-04-22T10:13:54Z</time></trkpt><trkpt lat="43.719165839691684" lon="6.222897104153465"><ele>676.0</ele><time>2026-04-22T10:13:55Z</time></trkpt><trkpt lat="43.71943264127317" lon="6.222998671331769"><ele>676.0</ele><time>2026-04-22T10:13:56Z</time></trkpt><trkpt lat="43.719671448434944" lon="6.223095988311517"><ele>678.5</ele><time>2026-04-22T10:13:57Z</time></trkpt><trkpt lat="43.71990821228039" lon="6.223194846561468"><ele>681.0</ele><time>2026-04-22T10:13:58Z</time></trkpt><trkpt lat="43.720145840405166" lon="6.223298600634773"><ele>681.0</ele><time>2026-04-22T10:13:59Z</time></trkpt><trkpt lat="43.7203882244277" lon="6.223394820676972"><ele>681.0</ele><time>2026-04-22T10:14:00Z</time></trkpt><trkpt lat="43.72062475882471" lon="6.223484834019713"><ele>681.0</ele><time>2026-04-22T10:14:01Z</time></trkpt><trkpt lat="43.720842541759964" lon="6.2235611800834665"><ele>681.0</ele><time>2026-04-22T10:14:02Z</time></trkpt><trkpt lat="43.721051201229365" lon="6.223646350919466"><ele>681.0</ele><time>2026-04-22T10:14:03Z</time></trkpt><trkpt lat="43.721259889363594" lon="6.223731835991493"><ele>682.3333333333334</ele><time>2026-04-22T10:14:04Z</time></trkpt><trkpt lat="43.72145119100647" lon="6.223790636722451"><ele>683.6666666666667</ele><time>2026-04-22T10:14:05Z</time></trkpt><trkpt lat="43.72162466379274" lon="6.223858706627505"><ele>685.0</ele><time>2026-04-22T10:14:06Z</time></trkpt><trkpt lat="43.72179361185116" lon="6.223917354161285"><ele>685.3333333333334</ele><time>2026-04-22T10:14:07Z</time></trkpt><trkpt lat="43.72195151551169" lon="6.223972167813971"><ele>685.6666666666666</ele><time>2026-04-22T10:14:08Z</time></trkpt><trkpt lat="43.72212801115276" lon="6.2238554621881015"><ele>686.0</ele><time>2026-04-22T10:14:09Z</time></trkpt><trkpt lat="43.722277462841504" lon="6.223831593029994"><ele>686.0</ele><time>2026-04-22T10:14:10Z</time></trkpt><trkpt lat="43.72241699549905" lon="6.223804387181094"><ele>686.0</ele><time>2026-04-22T10:14:11Z</time></trkpt><trkpt lat="43.72255351183942" lon="6.223769785612789"><ele>686.0</ele><time>2026-04-22T10:14:12Z</time></trkpt><trkpt lat="43.72266034393338" lon="6.223737656073148"><ele>686.0</ele><time>2026-04-22T10:14:13Z</time></trkpt><trkpt lat="43.722722171193055" lon="6.223718054559798"><ele>685.8333333333333</ele><time>2026-04-22T10:14:14Z</time></trkpt><trkpt lat="43.72278675165857" lon="6.223697297198442"><ele>685.6666666666666</ele><time>2026-04-22T10:28:52Z</time></trkpt><trkpt lat="43.722847643990924" lon="6.223611705765085"><ele>685.5</ele><time>2026-04-22T10:29:04Z</time></trkpt><trkpt lat="43.72293894941092" lon="6.223565323748177"><ele>685.3333333333334</ele><time>2026-04-22T10:29:06Z</time></trkpt><trkpt lat="43.72302567246582" lon="6.2235227762052405"><ele>685.1666666666667</ele><time>2026-04-22T10:29:08Z</time></trkpt><trkpt lat="43.72310061853387" lon="6.223485680324115"><ele>685.0</ele><time>2026-04-22T10:29:10Z</time></trkpt><trkpt lat="43.72317281952413" lon="6.223456562093748"><ele>685.0</ele><time>2026-04-22T10:29:12Z</time></trkpt><trkpt lat="43.72324383479314" lon="6.223432768734345"><ele>685.0</ele><time>2026-04-22T10:29:14Z</time></trkpt><trkpt lat="43.723321914539106" lon="6.2233775785370495"><ele>685.0</ele><time>2026-04-22T10:29:16Z</time></trkpt><trkpt lat="43.72338404756332" lon="6.22335258677804"><ele>685.0</ele><time>2026-04-22T10:29:17Z</time></trkpt><trkpt lat="43.723455419293835" lon="6.223312146993675"><ele>685.0</ele><time>2026-04-22T10:29:18Z</time></trkpt><trkpt lat="43.72353870999774" lon="6.223256546805042"><ele>685.0</ele><time>2026-04-22T10:29:19Z</time></trkpt><trkpt lat="43.7236337769365" lon="6.223197616445822"><ele>684.25</ele><time>2026-04-22T10:29:20Z</time></trkpt><trkpt lat="43.72373275486937" lon="6.223146447046964"><ele>683.5</ele><time>2026-04-22T10:29:21Z</time></trkpt><trkpt lat="43.72384496366497" lon="6.223090783671506"><ele>682.75</ele><time>2026-04-22T10:29:22Z</time></trkpt><trkpt lat="43.72396579666235" lon="6.223028726265337"><ele>682.0</ele><time>2026-04-22T10:29:23Z</time></trkpt><trkpt lat="43.72408514902536" lon="6.222951255804647"><ele>682.0</ele><time>2026-04-22T10:29:24Z</time></trkpt><trkpt lat="43.724210362198484" lon="6.222876206105246"><ele>682.0</ele><time>2026-04-22T10:29:25Z</time></trkpt><trkpt lat="43.72433883205112" lon="6.2228141088752675"><ele>682.0</ele><time>2026-04-22T10:29:26Z</time></trkpt><trkpt lat="43.724468381388476" lon="6.222739497479403"><ele>682.0</ele><time>2026-04-22T10:29:27Z</time></trkpt><trkpt lat="43.72460058818612" lon="6.222660049321194"><ele>680.3333333333334</ele><time>2026-04-22T10:29:28Z</time></trkpt><trkpt lat="43.724734728431734" lon="6.222577898447206"><ele>678.6666666666666</ele><time>2026-04-22T10:29:29Z</time></trkpt><trkpt lat="43.72487655365153" lon="6.222504988679791"><ele>677.0</ele><time>2026-04-22T10:29:30Z</time></trkpt><trkpt lat="43.72502934400065" lon="6.222415005295159"><ele>677.0</ele><time>2026-04-22T10:29:31Z</time></trkpt><trkpt lat="43.72519269932255" lon="6.222319555830034"><ele>677.0</ele><time>2026-04-22T10:29:32Z</time></trkpt><trkpt lat="43.725362358651076" lon="6.222227623166008"><ele>677.0</ele><time>2026-04-22T10:29:33Z</time></trkpt><trkpt lat="43.72554461930331" lon="6.222133081644573"><ele>676.3333333333333</ele><time>2026-04-22T10:29:34Z</time></trkpt><trkpt lat="43.72573302414492" lon="6.222035663163723"><ele>675.6666666666666</ele><time>2026-04-22T10:29:35Z</time></trkpt><trkpt lat="43.72592420949551" lon="6.221923558818028"><ele>675.0</ele><time>2026-04-22T10:29:36Z</time></trkpt><trkpt lat="43.72611491198431" lon="6.2218143576090945"><ele>674.3333333333334</ele><time>2026-04-22T10:29:37Z</time></trkpt><trkpt lat="43.72630845713219" lon="6.221703528552308"><ele>673.6666666666667</ele><time>2026-04-22T10:29:38Z</time></trkpt><trkpt lat="43.72650663945754" lon="6.221590118443341"><ele>673.0</ele><time>2026-04-22T10:29:39Z</time></trkpt><trkpt lat="43.72671534537423" lon="6.22146986232397"><ele>670.0</ele><time>2026-04-22T10:29:40Z</time></trkpt><trkpt lat="43.726932277160365" lon="6.2213430791881645"><ele>667.0</ele><time>2026-04-22T10:29:41Z</time></trkpt><trkpt lat="43.727147625947794" lon="6.221226814035516"><ele>667.0</ele><time>2026-04-22T10:29:42Z</time></trkpt><trkpt lat="43.72736433966946" lon="6.221107478441033"><ele>667.0</ele><time>2026-04-22T10:29:43Z</time></trkpt><trkpt lat="43.727589901702224" lon="6.220984584132838"><ele>667.0</ele><time>2026-04-22T10:29:44Z</time></trkpt><trkpt lat="43.72780334749672" lon="6.220862675208528"><ele>667.0</ele><time>2026-04-22T10:29:45Z</time></trkpt><trkpt lat="43.72801238580421" lon="6.22074062445959"><ele>666.3333333333334</ele><time>2026-04-22T10:29:46Z</time></trkpt><trkpt lat="43.72820814911172" lon="6.2206240558647465"><ele>665.6666666666666</ele><time>2026-04-22T10:29:47Z</time></trkpt><trkpt lat="43.72839407793548" lon="6.220517903723567"><ele>665.0</ele><time>2026-04-22T10:29:48Z</time></trkpt><trkpt lat="43.728587118210804" lon="6.220418646068675"><ele>663.0</ele><time>2026-04-22T10:29:49Z</time></trkpt><trkpt lat="43.72877442211105" lon="6.220346663780388"><ele>661.0</ele><time>2026-04-22T10:29:50.001Z</time></trkpt><trkpt lat="43.72895284747502" lon="6.22031899896701"><ele>659.0</ele><time>2026-04-22T10:29:51.001Z</time></trkpt><trkpt lat="43.729150738831365" lon="6.220330856747933"><ele>659.0</ele><time>2026-04-22T10:29:52.001Z</time></trkpt><trkpt lat="43.72936244060228" lon="6.220346049360107"><ele>659.0</ele><time>2026-04-22T10:29:53.001Z</time></trkpt><trkpt lat="43.72958898311553" lon="6.220345111789826"><ele>659.0</ele><time>2026-04-22T10:29:54.001Z</time></trkpt><trkpt lat="43.72982315449551" lon="6.22034658745314"><ele>658.3333333333333</ele><time>2026-04-22T10:29:55.001Z</time></trkpt><trkpt lat="43.7300539438205" lon="6.220340727141636"><ele>657.6666666666666</ele><time>2026-04-22T10:29:56.001Z</time></trkpt><trkpt lat="43.73026169354914" lon="6.2203310423224245"><ele>657.0</ele><time>2026-04-22T10:29:57.001Z</time></trkpt><trkpt lat="43.73047429592853" lon="6.220319355442783"><ele>656.0</ele><time>2026-04-22T10:29:58.001Z</time></trkpt><trkpt lat="43.73068485703838" lon="6.220310680657862"><ele>655.0</ele><time>2026-04-22T10:29:59.001Z</time></trkpt><trkpt lat="43.73090580809932" lon="6.220290219443557"><ele>654.0</ele><time>2026-04-22T10:30:00.001Z</time></trkpt><trkpt lat="43.7311163999368" lon="6.220246334255915"><ele>654.0</ele><time>2026-04-22T10:30:01.001Z</time></trkpt><trkpt lat="43.73133060002671" lon="6.220164684612584"><ele>654.0</ele><time>2026-04-22T10:30:02.001Z</time></trkpt><trkpt lat="43.731511251769" lon="6.220023994290438"><ele>654.0</ele><time>2026-04-22T10:30:03.001Z</time></trkpt><trkpt lat="43.731686215950035" lon="6.219890130931521"><ele>654.0</ele><time>2026-04-22T10:30:04.001Z</time></trkpt><trkpt lat="43.73188038762126" lon="6.219855082952755"><ele>654.0</ele><time>2026-04-22T10:30:05.001Z</time></trkpt><trkpt lat="43.7320887779594" lon="6.21986616680799"><ele>654.0</ele><time>2026-04-22T10:30:06.001Z</time></trkpt><trkpt lat="43.73231434675157" lon="6.219888224735661"><ele>654.0</ele><time>2026-04-22T10:30:07.001Z</time></trkpt><trkpt lat="43.732567463383255" lon="6.219899450670874"><ele>654.0</ele><time>2026-04-22T10:30:08.001Z</time></trkpt><trkpt lat="43.732824532564265" lon="6.219929820156834"><ele>651.0</ele><time>2026-04-22T10:30:09.001Z</time></trkpt><trkpt lat="43.73308747250105" lon="6.219950522980892"><ele>648.0</ele><time>2026-04-22T10:30:10.001Z</time></trkpt><trkpt lat="43.733340685882034" lon="6.219965810854615"><ele>648.0</ele><time>2026-04-22T10:30:11.001Z</time></trkpt><trkpt lat="43.733576072058945" lon="6.219987545952299"><ele>648.0</ele><time>2026-04-22T10:30:12.001Z</time></trkpt><trkpt lat="43.73379335541057" lon="6.220013651171647"><ele>648.0</ele><time>2026-04-22T10:30:13.001Z</time></trkpt><trkpt lat="43.73399072695156" lon="6.220054081944771"><ele>648.0</ele><time>2026-04-22T10:30:14.001Z</time></trkpt><trkpt lat="43.73414669990694" lon="6.220149508066258"><ele>648.0</ele><time>2026-04-22T10:30:15.001Z</time></trkpt><trkpt lat="43.73427468162122" lon="6.220277840747816"><ele>649.3333333333334</ele><time>2026-04-22T10:30:16.001Z</time></trkpt><trkpt lat="43.73440626809958" lon="6.220416655198918"><ele>650.6666666666667</ele><time>2026-04-22T10:30:17.001Z</time></trkpt><trkpt lat="43.734545057623606" lon="6.220541486698821"><ele>652.0</ele><time>2026-04-22T10:30:18.001Z</time></trkpt><trkpt lat="43.734679162961555" lon="6.220694063662948"><ele>648.3333333333334</ele><time>2026-04-22T10:30:19.001Z</time></trkpt><trkpt lat="43.7348228222516" lon="6.220845149611886"><ele>644.6666666666666</ele><time>2026-04-22T10:30:20.001Z</time></trkpt><trkpt lat="43.73498130112353" lon="6.221006694918911"><ele>641.0</ele><time>2026-04-22T10:30:21.001Z</time></trkpt><trkpt lat="43.73513914587217" lon="6.221175715762647"><ele>640.0</ele><time>2026-04-22T10:30:22.001Z</time></trkpt><trkpt lat="43.73530751547104" lon="6.221352142390036"><ele>639.0</ele><time>2026-04-22T10:30:23.001Z</time></trkpt><trkpt lat="43.73547883271075" lon="6.221533048627525"><ele>638.0</ele><time>2026-04-22T10:30:24.001Z</time></trkpt><trkpt lat="43.73565018921187" lon="6.221714697835123"><ele>637.0</ele><time>2026-04-22T10:30:25.001Z</time></trkpt><trkpt lat="43.73581849438708" lon="6.2218966498195405"><ele>636.0</ele><time>2026-04-22T10:30:26.001Z</time></trkpt><trkpt lat="43.735984532473026" lon="6.222067050008847"><ele>635.0</ele><time>2026-04-22T10:30:27.001Z</time></trkpt><trkpt lat="43.73615639453301" lon="6.22222923926082"><ele>635.3333333333333</ele><time>2026-04-22T10:30:28.001Z</time></trkpt><trkpt lat="43.73632648443911" lon="6.222368338720122"><ele>635.6666666666666</ele><time>2026-04-22T10:30:29.001Z</time></trkpt><trkpt lat="43.73649715719236" lon="6.222489266762594"><ele>636.0</ele><time>2026-04-22T10:30:29.999Z</time></trkpt><trkpt lat="43.73667126385199" lon="6.2225816649044745"><ele>636.0</ele><time>2026-04-22T10:30:30.999Z</time></trkpt><trkpt lat="43.73686091251897" lon="6.222619888086469"><ele>636.0</ele><time>2026-04-22T10:30:31.999Z</time></trkpt><trkpt lat="43.73705726453871" lon="6.2226167161305845"><ele>636.0</ele><time>2026-04-22T10:30:32.999Z</time></trkpt><trkpt lat="43.7372552469371" lon="6.222578524247394"><ele>636.0</ele><time>2026-04-22T10:30:33.999Z</time></trkpt><trkpt lat="43.737449375926296" lon="6.222492471292483"><ele>636.0</ele><time>2026-04-22T10:30:35Z</time></trkpt><trkpt lat="43.73764824038085" lon="6.222390309546449"><ele>636.0</ele><time>2026-04-22T10:30:36Z</time></trkpt><trkpt lat="43.73783675692699" lon="6.222283581468303"><ele>631.6666666666666</ele><time>2026-04-22T10:30:37Z</time></trkpt><trkpt lat="43.738033285993716" lon="6.222177312219012"><ele>627.3333333333333</ele><time>2026-04-22T10:30:38Z</time></trkpt><trkpt lat="43.73822883914045" lon="6.222077919878636"><ele>623.0</ele><time>2026-04-22T10:30:39Z</time></trkpt><trkpt lat="43.73842545557978" lon="6.221979697016224"><ele>624.3333333333333</ele><time>2026-04-22T10:30:40Z</time></trkpt><trkpt lat="43.7386196891804" lon="6.221888752435408"><ele>625.6666666666666</ele><time>2026-04-22T10:30:41Z</time></trkpt><trkpt lat="43.73880328581033" lon="6.22181955425131"><ele>627.0</ele><time>2026-04-22T10:30:42Z</time></trkpt><trkpt lat="43.73899646835868" lon="6.221767394966849"><ele>627.0</ele><time>2026-04-22T10:30:43Z</time></trkpt><trkpt lat="43.7392012299937" lon="6.221721832660215"><ele>627.0</ele><time>2026-04-22T10:30:44Z</time></trkpt><trkpt lat="43.739415745220235" lon="6.2216976132542285"><ele>627.0</ele><time>2026-04-22T10:30:45Z</time></trkpt><trkpt lat="43.73963297271877" lon="6.221680448244711"><ele>627.3333333333334</ele><time>2026-04-22T10:30:46Z</time></trkpt><trkpt lat="43.73984615768693" lon="6.221656051417823"><ele>627.6666666666667</ele><time>2026-04-22T10:30:47Z</time></trkpt><trkpt lat="43.74003912036636" lon="6.221638044508032"><ele>628.0</ele><time>2026-04-22T10:30:48Z</time></trkpt><trkpt lat="43.740218995962394" lon="6.221648637434032"><ele>625.0</ele><time>2026-04-22T10:30:49Z</time></trkpt><trkpt lat="43.74039017649219" lon="6.221704777008851"><ele>622.0</ele><time>2026-04-22T10:30:50Z</time></trkpt><trkpt lat="43.740552157126245" lon="6.221834966624207"><ele>619.0</ele><time>2026-04-22T10:30:51Z</time></trkpt><trkpt lat="43.74069988237" lon="6.221991449814193"><ele>619.0</ele><time>2026-04-22T10:30:52Z</time></trkpt><trkpt lat="43.74086616687417" lon="6.222114980408553"><ele>619.0</ele><time>2026-04-22T10:30:53Z</time></trkpt><trkpt lat="43.74105836198955" lon="6.222181424104528"><ele>619.0</ele><time>2026-04-22T10:30:54Z</time></trkpt><trkpt lat="43.741264160767386" lon="6.22217409820782"><ele>617.6666666666667</ele><time>2026-04-22T10:30:55Z</time></trkpt><trkpt lat="43.74147647871205" lon="6.222104430223375"><ele>616.3333333333334</ele><time>2026-04-22T10:30:56Z</time></trkpt><trkpt lat="43.74168880891765" lon="6.221986098486029"><ele>615.0</ele><time>2026-04-22T10:30:57Z</time></trkpt><trkpt lat="43.74189297802423" lon="6.221904891157895"><ele>615.0</ele><time>2026-04-22T10:30:58Z</time></trkpt><trkpt lat="43.74208223758975" lon="6.221863116419759"><ele>615.0</ele><time>2026-04-22T10:30:59Z</time></trkpt><trkpt lat="43.74226919961288" lon="6.221855386861699"><ele>615.0</ele><time>2026-04-22T10:31:00Z</time></trkpt><trkpt lat="43.74245597757543" lon="6.22191714825723"><ele>615.0</ele><time>2026-04-22T10:31:01Z</time></trkpt><trkpt lat="43.74263253282647" lon="6.222032041864796"><ele>615.0</ele><time>2026-04-22T10:31:02Z</time></trkpt><trkpt lat="43.74280922087533" lon="6.222205211253239"><ele>615.0</ele><time>2026-04-22T10:31:03Z</time></trkpt><trkpt lat="43.74299702918658" lon="6.22240213209814"><ele>613.0</ele><time>2026-04-22T10:31:04Z</time></trkpt><trkpt lat="43.743188708906814" lon="6.222565504617976"><ele>611.0</ele><time>2026-04-22T10:31:05Z</time></trkpt><trkpt lat="43.74337099739034" lon="6.222723989352114"><ele>609.0</ele><time>2026-04-22T10:31:06Z</time></trkpt><trkpt lat="43.74354313232982" lon="6.222869187317492"><ele>608.0</ele><time>2026-04-22T10:31:07Z</time></trkpt><trkpt lat="43.74371240732496" lon="6.223018417386275"><ele>607.0</ele><time>2026-04-22T10:31:08Z</time></trkpt><trkpt lat="43.74387261759716" lon="6.223171737344065"><ele>606.0</ele><time>2026-04-22T10:31:09Z</time></trkpt><trkpt lat="43.744037042957856" lon="6.223315124256187"><ele>608.6666666666666</ele><time>2026-04-22T10:31:10Z</time></trkpt><trkpt lat="43.74421354704378" lon="6.223432346931995"><ele>611.3333333333333</ele><time>2026-04-22T10:31:11Z</time></trkpt><trkpt lat="43.74440271363742" lon="6.223498802130489"><ele>614.0</ele><time>2026-04-22T10:31:12Z</time></trkpt><trkpt lat="43.74458981715542" lon="6.223500932857677"><ele>614.0</ele><time>2026-04-22T10:31:13Z</time></trkpt><trkpt lat="43.7447647837108" lon="6.2234702787177385"><ele>614.0</ele><time>2026-04-22T10:31:14Z</time></trkpt><trkpt lat="43.74492649545044" lon="6.223417491266719"><ele>614.0</ele><time>2026-04-22T10:31:15Z</time></trkpt><trkpt lat="43.74507605306271" lon="6.223333235239578"><ele>616.0</ele><time>2026-04-22T10:31:16Z</time></trkpt><trkpt lat="43.74521519515708" lon="6.223243566437493"><ele>618.0</ele><time>2026-04-22T10:31:17Z</time></trkpt><trkpt lat="43.745361699567084" lon="6.223146986709745"><ele>620.0</ele><time>2026-04-22T10:31:18Z</time></trkpt><trkpt lat="43.74551762141016" lon="6.22304753852812"><ele>613.0</ele><time>2026-04-22T10:31:19Z</time></trkpt><trkpt lat="43.74567996327532" lon="6.222947365320068"><ele>606.0</ele><time>2026-04-22T10:31:20Z</time></trkpt><trkpt lat="43.74584958211321" lon="6.2228387976355135"><ele>599.0</ele><time>2026-04-22T10:31:21Z</time></trkpt><trkpt lat="43.746023870480435" lon="6.222729070554227"><ele>603.0</ele><time>2026-04-22T10:31:22Z</time></trkpt><trkpt lat="43.74620234434023" lon="6.222614734875194"><ele>607.0</ele><time>2026-04-22T10:31:23Z</time></trkpt><trkpt lat="43.74638688446846" lon="6.222496841605844"><ele>611.0</ele><time>2026-04-22T10:31:24Z</time></trkpt><trkpt lat="43.74656681149619" lon="6.222395212813026"><ele>606.3333333333333</ele><time>2026-04-22T10:31:25Z</time></trkpt><trkpt lat="43.74673762728022" lon="6.222307260260689"><ele>601.6666666666666</ele><time>2026-04-22T10:31:26Z</time></trkpt><trkpt lat="43.74690780978498" lon="6.222245100832098"><ele>597.0</ele><time>2026-04-22T10:31:27Z</time></trkpt><trkpt lat="43.747082542488975" lon="6.222217017252523"><ele>597.0</ele><time>2026-04-22T10:31:28Z</time></trkpt><trkpt lat="43.74725241436214" lon="6.222217260244311"><ele>597.0</ele><time>2026-04-22T10:31:29Z</time></trkpt><trkpt lat="43.74741546597608" lon="6.222252982557301"><ele>597.0</ele><time>2026-04-22T10:31:30Z</time></trkpt><trkpt lat="43.74757014628186" lon="6.222307982474119"><ele>598.6666666666666</ele><time>2026-04-22T10:31:31Z</time></trkpt><trkpt lat="43.747710922023124" lon="6.22238451649897"><ele>600.3333333333333</ele><time>2026-04-22T10:31:32Z</time></trkpt><trkpt lat="43.74784364943211" lon="6.222479689008433"><ele>602.0</ele><time>2026-04-22T10:31:33.001Z</time></trkpt><trkpt lat="43.74797869369437" lon="6.222579758180348"><ele>602.0</ele><time>2026-04-22T10:31:34.001Z</time></trkpt><trkpt lat="43.74811493298989" lon="6.222704325703141"><ele>602.0</ele><time>2026-04-22T10:31:35.001Z</time></trkpt><trkpt lat="43.74826001706009" lon="6.222835948275655"><ele>602.0</ele><time>2026-04-22T10:31:36.001Z</time></trkpt><trkpt lat="43.748411415911626" lon="6.222971614275409"><ele>599.6666666666666</ele><time>2026-04-22T10:31:37.001Z</time></trkpt><trkpt lat="43.74856299187055" lon="6.223106306412051"><ele>597.3333333333334</ele><time>2026-04-22T10:31:38.001Z</time></trkpt><trkpt lat="43.74871306412882" lon="6.223242722963086"><ele>595.0</ele><time>2026-04-22T10:31:39.001Z</time></trkpt><trkpt lat="43.74885683746393" lon="6.223373936347863"><ele>595.0</ele><time>2026-04-22T10:31:40.001Z</time></trkpt><trkpt lat="43.74899881934399" lon="6.223501869141315"><ele>595.0</ele><time>2026-04-22T10:31:41.001Z</time></trkpt><trkpt lat="43.74913094832232" lon="6.223628635023612"><ele>595.0</ele><time>2026-04-22T10:31:42.001Z</time></trkpt><trkpt lat="43.74925818515911" lon="6.223758531131231"><ele>593.6666666666667</ele><time>2026-04-22T10:31:43.001Z</time></trkpt><trkpt lat="43.7493920514873" lon="6.2238916623374365"><ele>592.3333333333334</ele><time>2026-04-22T10:31:44.001Z</time></trkpt><trkpt lat="43.74951796787673" lon="6.22403936520151"><ele>591.0</ele><time>2026-04-22T10:31:45.001Z</time></trkpt><trkpt lat="43.7496259999422" lon="6.224200068864753"><ele>591.0</ele><time>2026-04-22T10:31:46.001Z</time></trkpt><trkpt lat="43.74973611870604" lon="6.224370616614333"><ele>591.0</ele><time>2026-04-22T10:31:47.001Z</time></trkpt><trkpt lat="43.74984915869031" lon="6.224551386252445"><ele>591.0</ele><time>2026-04-22T10:31:48.001Z</time></trkpt><trkpt lat="43.74996500205526" lon="6.2247462045864435"><ele>591.6666666666666</ele><time>2026-04-22T10:31:49.001Z</time></trkpt><trkpt lat="43.75008182076591" lon="6.224948650095062"><ele>592.3333333333333</ele><time>2026-04-22T10:31:50.001Z</time></trkpt><trkpt lat="43.7502113581743" lon="6.225168608928887"><ele>593.0</ele><time>2026-04-22T10:31:51.001Z</time></trkpt><trkpt lat="43.75034390311276" lon="6.225387612086947"><ele>593.0</ele><time>2026-04-22T10:31:52.001Z</time></trkpt><trkpt lat="43.75046893618936" lon="6.225602641762339"><ele>593.0</ele><time>2026-04-22T10:31:53.001Z</time></trkpt><trkpt lat="43.75059416156245" lon="6.225816598924308"><ele>593.0</ele><time>2026-04-22T10:31:54.001Z</time></trkpt><trkpt lat="43.75071444614787" lon="6.226018338897863"><ele>593.3333333333333</ele><time>2026-04-22T10:31:55.001Z</time></trkpt><trkpt lat="43.750829300590524" lon="6.226207779947468"><ele>593.6666666666666</ele><time>2026-04-22T10:31:56.001Z</time></trkpt><trkpt lat="43.750934052363434" lon="6.2263827574857995"><ele>594.0</ele><time>2026-04-22T10:31:57.001Z</time></trkpt><trkpt lat="43.75103172326636" lon="6.226547069073388"><ele>589.5</ele><time>2026-04-22T10:31:58.001Z</time></trkpt><trkpt lat="43.751122722746636" lon="6.226699032963258"><ele>585.0</ele><time>2026-04-22T10:31:59.001Z</time></trkpt><trkpt lat="43.75122572351762" lon="6.2268261434078696"><ele>580.5</ele><time>2026-04-22T10:32:00.001Z</time></trkpt><trkpt lat="43.75134955037241" lon="6.2268995604690875"><ele>576.0</ele><time>2026-04-22T10:32:01.001Z</time></trkpt><trkpt lat="43.75148486561301" lon="6.226896201984279"><ele>576.0</ele><time>2026-04-22T10:32:02.001Z</time></trkpt><trkpt lat="43.7516013328805" lon="6.226812874644628"><ele>576.0</ele><time>2026-04-22T10:32:03.001Z</time></trkpt><trkpt lat="43.751677514235865" lon="6.22664505481391"><ele>576.0</ele><time>2026-04-22T10:32:04.001Z</time></trkpt><trkpt lat="43.75172987774943" lon="6.226444784012554"><ele>576.0</ele><time>2026-04-22T10:32:05.001Z</time></trkpt><trkpt lat="43.75181061380921" lon="6.226237523608201"><ele>573.0</ele><time>2026-04-22T10:32:06.001Z</time></trkpt><trkpt lat="43.751901517251156" lon="6.226049710197851"><ele>570.0</ele><time>2026-04-22T10:32:07.001Z</time></trkpt><trkpt lat="43.75202261374138" lon="6.225892544630049"><ele>567.0</ele><time>2026-04-22T10:32:08.001Z</time></trkpt><trkpt lat="43.7521694060348" lon="6.225777995683626"><ele>567.0</ele><time>2026-04-22T10:32:09.001Z</time></trkpt><trkpt lat="43.75234688329438" lon="6.225680918664733"><ele>567.0</ele><time>2026-04-22T10:32:10.001Z</time></trkpt><trkpt lat="43.75253098398824" lon="6.225563025412622"><ele>567.0</ele><time>2026-04-22T10:32:11.001Z</time></trkpt><trkpt lat="43.75273099371972" lon="6.225438997699544"><ele>565.0</ele><time>2026-04-22T10:32:12.001Z</time></trkpt><trkpt lat="43.75293407606508" lon="6.225293804387387"><ele>563.0</ele><time>2026-04-22T10:32:13.001Z</time></trkpt><trkpt lat="43.75312936705056" lon="6.225140684195273"><ele>563.0</ele><time>2026-04-22T10:32:14.001Z</time></trkpt><trkpt lat="43.75330916170594" lon="6.224981480413488"><ele>563.0</ele><time>2026-04-22T10:32:15.001Z</time></trkpt><trkpt lat="43.75349284351263" lon="6.224815294396582"><ele>563.0</ele><time>2026-04-22T10:32:16.001Z</time></trkpt><trkpt lat="43.753664289897536" lon="6.224654211225878"><ele>560.3333333333333</ele><time>2026-04-22T10:32:17.001Z</time></trkpt><trkpt lat="43.7538113750444" lon="6.224520843635033"><ele>557.6666666666666</ele><time>2026-04-22T10:32:18.001Z</time></trkpt><trkpt lat="43.75401107226273" lon="6.224330419064836"><ele>555.0</ele><time>2026-04-22T10:32:19.001Z</time></trkpt><trkpt lat="43.7541761892437" lon="6.224159517493488"><ele>557.3333333333334</ele><time>2026-04-22T10:32:20.001Z</time></trkpt><trkpt lat="43.75431667095576" lon="6.223970055562849"><ele>559.6666666666667</ele><time>2026-04-22T10:32:21.001Z</time></trkpt><trkpt lat="43.7544394542417" lon="6.223744850688635"><ele>562.0</ele><time>2026-04-22T10:32:22.001Z</time></trkpt><trkpt lat="43.754557376466586" lon="6.223508387300267"><ele>555.3333333333334</ele><time>2026-04-22T10:32:23.001Z</time></trkpt><trkpt lat="43.75464751296914" lon="6.22325986154245"><ele>548.6666666666666</ele><time>2026-04-22T10:32:24.001Z</time></trkpt><trkpt lat="43.75471679894217" lon="6.222964935311983"><ele>542.0</ele><time>2026-04-22T10:32:25.001Z</time></trkpt><trkpt lat="43.75478200171314" lon="6.222642758029668"><ele>542.0</ele><time>2026-04-22T10:32:26.001Z</time></trkpt><trkpt lat="43.754843897654546" lon="6.222322501091891"><ele>542.0</ele><time>2026-04-22T10:32:27.001Z</time></trkpt><trkpt lat="43.75489419477428" lon="6.222030409611994"><ele>542.0</ele><time>2026-04-22T10:32:28.001Z</time></trkpt><trkpt lat="43.75495103678239" lon="6.22174374070401"><ele>542.0</ele><time>2026-04-22T10:32:29.001Z</time></trkpt><trkpt lat="43.75500654507505" lon="6.221462232239917"><ele>542.0</ele><time>2026-04-22T10:32:30.001Z</time></trkpt><trkpt lat="43.75506261408098" lon="6.221179456901933"><ele>542.0</ele><time>2026-04-22T10:32:31.001Z</time></trkpt><trkpt lat="43.75511186017792" lon="6.220894979845211"><ele>542.0</ele><time>2026-04-22T10:32:32.001Z</time></trkpt><trkpt lat="43.7551669860429" lon="6.220627377989893"><ele>542.0</ele><time>2026-04-22T10:32:33.001Z</time></trkpt><trkpt lat="43.75520836348925" lon="6.220389171567071"><ele>538.75</ele><time>2026-04-22T10:32:34.001Z</time></trkpt><trkpt lat="43.755235799142106" lon="6.220170404817601"><ele>535.5</ele><time>2026-04-22T10:32:35.001Z</time></trkpt><trkpt lat="43.7552253883949" lon="6.21996981475273"><ele>532.25</ele><time>2026-04-22T10:32:36Z</time></trkpt><trkpt lat="43.75515495062557" lon="6.219798214811719"><ele>529.0</ele><time>2026-04-22T10:32:37Z</time></trkpt><trkpt lat="43.75504475753553" lon="6.219654096325912"><ele>529.0</ele><time>2026-04-22T10:32:38Z</time></trkpt><trkpt lat="43.754905020086156" lon="6.21952626308081"><ele>529.0</ele><time>2026-04-22T10:32:39Z</time></trkpt><trkpt lat="43.75476351765203" lon="6.219419639758716"><ele>529.0</ele><time>2026-04-22T10:32:40Z</time></trkpt><trkpt lat="43.75464432040616" lon="6.219301443517991"><ele>529.0</ele><time>2026-04-22T10:32:41Z</time></trkpt><trkpt lat="43.7545488498349" lon="6.219180807298263"><ele>529.0</ele><time>2026-04-22T10:32:42Z</time></trkpt><trkpt lat="43.75448795487824" lon="6.219037717129421"><ele>529.0</ele><time>2026-04-22T10:32:43Z</time></trkpt><trkpt lat="43.75450907450135" lon="6.218860854883214"><ele>529.0</ele><time>2026-04-22T10:32:44Z</time></trkpt><trkpt lat="43.754583733475" lon="6.2187331942057495"><ele>526.5</ele><time>2026-04-22T10:32:45Z</time></trkpt><trkpt lat="43.754667616551366" lon="6.218639508578551"><ele>524.0</ele><time>2026-04-22T10:32:46Z</time></trkpt><trkpt lat="43.7547773612892" lon="6.2186220779773524"><ele>521.5</ele><time>2026-04-22T10:32:47Z</time></trkpt><trkpt lat="43.754896716124065" lon="6.2186350312678265"><ele>519.0</ele><time>2026-04-22T10:32:48Z</time></trkpt><trkpt lat="43.75503532298794" lon="6.218751028969409"><ele>519.0</ele><time>2026-04-22T10:32:49Z</time></trkpt><trkpt lat="43.7551721838923" lon="6.218870549431111"><ele>519.0</ele><time>2026-04-22T10:32:50Z</time></trkpt><trkpt lat="43.75532898457551" lon="6.219010335809007"><ele>519.0</ele><time>2026-04-22T10:32:51Z</time></trkpt><trkpt lat="43.7555084771066" lon="6.219149295610032"><ele>519.0</ele><time>2026-04-22T10:32:52Z</time></trkpt><trkpt lat="43.75569635698162" lon="6.2192976217719"><ele>519.0</ele><time>2026-04-22T10:32:53Z</time></trkpt><trkpt lat="43.75588069174827" lon="6.219437253493953"><ele>519.0</ele><time>2026-04-22T10:32:54Z</time></trkpt><trkpt lat="43.75605443750112" lon="6.219575693446553"><ele>516.0</ele><time>2026-04-22T10:32:55Z</time></trkpt><trkpt lat="43.75623388397157" lon="6.219686585783948"><ele>513.0</ele><time>2026-04-22T10:32:56Z</time></trkpt><trkpt lat="43.75639308988669" lon="6.219808970176018"><ele>510.0</ele><time>2026-04-22T10:32:57Z</time></trkpt><trkpt lat="43.756582066125716" lon="6.219910481704647"><ele>508.33333333333337</ele><time>2026-04-22T10:32:58Z</time></trkpt><trkpt lat="43.75677756463447" lon="6.219978280080056"><ele>506.6666666666667</ele><time>2026-04-22T10:32:59Z</time></trkpt><trkpt lat="43.75698136690066" lon="6.22001612972501"><ele>505.0</ele><time>2026-04-22T10:33:00Z</time></trkpt><trkpt lat="43.75718335188581" lon="6.220023918239418"><ele>502.0</ele><time>2026-04-22T10:33:01Z</time></trkpt><trkpt lat="43.75739836480252" lon="6.219994932522762"><ele>499.0</ele><time>2026-04-22T10:33:02Z</time></trkpt><trkpt lat="43.75760945057429" lon="6.219932137819269"><ele>496.0</ele><time>2026-04-22T10:33:03Z</time></trkpt><trkpt lat="43.75781283036921" lon="6.219829867494507"><ele>495.0</ele><time>2026-04-22T10:33:04Z</time></trkpt><trkpt lat="43.758029425279" lon="6.219672692562516"><ele>494.0</ele><time>2026-04-22T10:33:05Z</time></trkpt><trkpt lat="43.75822572716583" lon="6.219486950690512"><ele>494.0</ele><time>2026-04-22T10:33:06Z</time></trkpt><trkpt lat="43.75840422082394" lon="6.219280974954003"><ele>494.0</ele><time>2026-04-22T10:33:07Z</time></trkpt><trkpt lat="43.75857328007869" lon="6.219044915864748"><ele>496.66666666666663</ele><time>2026-04-22T10:33:08Z</time></trkpt><trkpt lat="43.75873040817695" lon="6.218807589115842"><ele>499.33333333333337</ele><time>2026-04-22T10:33:09Z</time></trkpt><trkpt lat="43.75887748707935" lon="6.218587554716306"><ele>502.0</ele><time>2026-04-22T10:33:10Z</time></trkpt><trkpt lat="43.75902890689635" lon="6.218394981786191"><ele>502.0</ele><time>2026-04-22T10:33:11Z</time></trkpt><trkpt lat="43.759184510773146" lon="6.218232183635126"><ele>502.0</ele><time>2026-04-22T10:33:12Z</time></trkpt><trkpt lat="43.759352598712056" lon="6.218102726938201"><ele>502.0</ele><time>2026-04-22T10:33:13Z</time></trkpt><trkpt lat="43.75953149199391" lon="6.218039481832403"><ele>503.0</ele><time>2026-04-22T10:33:14Z</time></trkpt><trkpt lat="43.75971938752162" lon="6.2179720665806"><ele>504.0</ele><time>2026-04-22T10:33:15Z</time></trkpt><trkpt lat="43.75991428073299" lon="6.217953122800324"><ele>505.0</ele><time>2026-04-22T10:33:16Z</time></trkpt><trkpt lat="43.76011797936597" lon="6.217967146184395"><ele>504.5</ele><time>2026-04-22T10:33:17Z</time></trkpt><trkpt lat="43.76034084326192" lon="6.217978846925848"><ele>504.0</ele><time>2026-04-22T10:33:18Z</time></trkpt><trkpt lat="43.76056861445928" lon="6.217987773279207"><ele>504.0</ele><time>2026-04-22T10:33:19Z</time></trkpt><trkpt lat="43.760799411805365" lon="6.217992007183211"><ele>504.0</ele><time>2026-04-22T10:33:20Z</time></trkpt><trkpt lat="43.76104212430428" lon="6.217989810507399"><ele>503.0</ele><time>2026-04-22T10:33:21Z</time></trkpt><trkpt lat="43.76128633008531" lon="6.2179972818140525"><ele>502.0</ele><time>2026-04-22T10:33:22Z</time></trkpt><trkpt lat="43.761523380135124" lon="6.21800738750673"><ele>502.0</ele><time>2026-04-22T10:33:23Z</time></trkpt><trkpt lat="43.761739135697866" lon="6.218016903723523"><ele>502.0</ele><time>2026-04-22T10:33:24Z</time></trkpt><trkpt lat="43.7619351760002" lon="6.21802177114485"><ele>502.0</ele><time>2026-04-22T10:33:25Z</time></trkpt><trkpt lat="43.76211882118962" lon="6.218024422188578"><ele>501.6666666666667</ele><time>2026-04-22T10:33:26.001Z</time></trkpt><trkpt lat="43.76228997539236" lon="6.218024940626198"><ele>501.33333333333337</ele><time>2026-04-22T10:33:27.001Z</time></trkpt><trkpt lat="43.76245233442661" lon="6.218020264125681"><ele>501.0</ele><time>2026-04-22T10:33:28.001Z</time></trkpt><trkpt lat="43.76261190095532" lon="6.218005093891145"><ele>501.0</ele><time>2026-04-22T10:33:29.001Z</time></trkpt><trkpt lat="43.76276457148899" lon="6.217978323583066"><ele>501.0</ele><time>2026-04-22T10:33:30.001Z</time></trkpt><trkpt lat="43.762909890883805" lon="6.217949964544961"><ele>501.0</ele><time>2026-04-22T10:33:31.001Z</time></trkpt><trkpt lat="43.76305314854329" lon="6.217913056002184"><ele>501.0</ele><time>2026-04-22T10:33:32.001Z</time></trkpt><trkpt lat="43.76318849296642" lon="6.217873273965547"><ele>501.0</ele><time>2026-04-22T10:33:33.001Z</time></trkpt><trkpt lat="43.76332306012186" lon="6.217829938440695"><ele>501.0</ele><time>2026-04-22T10:33:34.001Z</time></trkpt><trkpt lat="43.763455628930686" lon="6.2177888005488615"><ele>501.0</ele><time>2026-04-22T10:33:35.001Z</time></trkpt><trkpt lat="43.76358865228654" lon="6.217752930594062"><ele>501.0</ele><time>2026-04-22T10:33:36.001Z</time></trkpt><trkpt lat="43.76371786835463" lon="6.217714254925403"><ele>501.5</ele><time>2026-04-22T10:33:37.001Z</time></trkpt><trkpt lat="43.76383784104946" lon="6.217682443767396"><ele>502.0</ele><time>2026-04-22T10:33:38.001Z</time></trkpt><trkpt lat="43.76395879986587" lon="6.217639365454026"><ele>502.5</ele><time>2026-04-22T10:33:39.001Z</time></trkpt><trkpt lat="43.76408557153087" lon="6.21759981668472"><ele>503.0</ele><time>2026-04-22T10:33:40.001Z</time></trkpt><trkpt lat="43.7642172613587" lon="6.217574718515389"><ele>503.0</ele><time>2026-04-22T10:33:41.001Z</time></trkpt><trkpt lat="43.76434925407699" lon="6.217549999094569"><ele>503.0</ele><time>2026-04-22T10:33:42.001Z</time></trkpt><trkpt lat="43.76448059649456" lon="6.217516541353265"><ele>503.0</ele><time>2026-04-22T10:33:43.001Z</time></trkpt><trkpt lat="43.76460886174474" lon="6.217492063840635"><ele>503.0</ele><time>2026-04-22T10:33:44.001Z</time></trkpt><trkpt lat="43.764729100353065" lon="6.217486115338694"><ele>502.66666666666663</ele><time>2026-04-22T10:33:45.001Z</time></trkpt><trkpt lat="43.76484071922825" lon="6.217471486053338"><ele>502.3333333333333</ele><time>2026-04-22T10:33:46.001Z</time></trkpt><trkpt lat="43.764924321186605" lon="6.217473968616069"><ele>502.0</ele><time>2026-04-22T10:33:47.001Z</time></trkpt><trkpt lat="43.76499687417268" lon="6.217472179658811"><ele>501.66666666666663</ele><time>2026-04-22T10:33:48.001Z</time></trkpt><trkpt lat="43.76509141178096" lon="6.217471932366021"><ele>501.3333333333333</ele><time>2026-04-22T10:33:50.001Z</time></trkpt><trkpt lat="43.76502503931149" lon="6.217469150388073"><ele>501.0</ele><time>2026-04-22T10:33:53.001Z</time></trkpt><trkpt lat="43.76495713438044" lon="6.217413990153592"><ele>501.0</ele><time>2026-04-22T10:33:54.001Z</time></trkpt><trkpt lat="43.76485110104065" lon="6.217434619787972"><ele>501.0</ele><time>2026-04-22T10:33:55.001Z</time></trkpt><trkpt lat="43.764741974552216" lon="6.21744439288065"><ele>501.0</ele><time>2026-04-22T10:33:56.001Z</time></trkpt><trkpt lat="43.76461740203012" lon="6.217460664316361"><ele>501.0</ele><time>2026-04-22T10:33:57.001Z</time></trkpt><trkpt lat="43.76448513262627" lon="6.217479970861446"><ele>501.66666666666663</ele><time>2026-04-22T10:33:58.001Z</time></trkpt><trkpt lat="43.76433583057596" lon="6.217510520910723"><ele>502.3333333333333</ele><time>2026-04-22T10:33:59.001Z</time></trkpt><trkpt lat="43.76416172112086" lon="6.217551274617803"><ele>503.0</ele><time>2026-04-22T10:34:00.001Z</time></trkpt><trkpt lat="43.763978079462674" lon="6.21761047727717"><ele>503.0</ele><time>2026-04-22T10:34:01.001Z</time></trkpt><trkpt lat="43.76379525710184" lon="6.217667166985523"><ele>503.0</ele><time>2026-04-22T10:34:02.001Z</time></trkpt><trkpt lat="43.763613248103674" lon="6.21770803429782"><ele>503.0</ele><time>2026-04-22T10:34:03.001Z</time></trkpt><trkpt lat="43.7634286029631" lon="6.2177586422177225"><ele>502.3333333333333</ele><time>2026-04-22T10:34:04.001Z</time></trkpt><trkpt lat="43.76324421009257" lon="6.217808827962845"><ele>501.66666666666663</ele><time>2026-04-22T10:34:05.001Z</time></trkpt><trkpt lat="43.76309132752043" lon="6.217859815283697"><ele>501.0</ele><time>2026-04-22T10:34:06.001Z</time></trkpt><trkpt lat="43.762951054894565" lon="6.21788581027599"><ele>501.0</ele><time>2026-04-22T10:34:07.001Z</time></trkpt><trkpt lat="43.76274448362322" lon="6.2179380830051185"><ele>501.0</ele><time>2026-04-22T10:34:08.001Z</time></trkpt><trkpt lat="43.76259224290968" lon="6.217970279991188"><ele>501.0</ele><time>2026-04-22T10:34:09.001Z</time></trkpt><trkpt lat="43.76245195696664" lon="6.217991703264463"><ele>501.0</ele><time>2026-04-22T10:34:10.001Z</time></trkpt><trkpt lat="43.76232880411761" lon="6.217993706628903"><ele>501.0</ele><time>2026-04-22T10:34:11.001Z</time></trkpt><trkpt lat="43.762227151995425" lon="6.21798789978543"><ele>501.0</ele><time>2026-04-22T10:34:12.001Z</time></trkpt><trkpt lat="43.76214975335665" lon="6.217983012424136"><ele>501.0</ele><time>2026-04-22T10:34:13.001Z</time></trkpt><trkpt lat="43.76206780126163" lon="6.217891572099502"><ele>501.0</ele><time>2026-04-22T10:34:15.001Z</time></trkpt><trkpt lat="43.76209164920695" lon="6.2177118978245165"><ele>501.0</ele><time>2026-04-22T10:34:17.001Z</time></trkpt><trkpt lat="43.76209309301166" lon="6.2176013386907"><ele>501.0</ele><time>2026-04-22T10:34:18.001Z</time></trkpt><trkpt lat="43.76208083076367" lon="6.217469622582476"><ele>501.0</ele><time>2026-04-22T10:34:19.001Z</time></trkpt><trkpt lat="43.762084966043815" lon="6.217314201894797"><ele>501.0</ele><time>2026-04-22T10:34:20.001Z</time></trkpt><trkpt lat="43.762091683564705" lon="6.217166299487003"><ele>501.0</ele><time>2026-04-22T10:34:21.001Z</time></trkpt><trkpt lat="43.762120394201716" lon="6.2170052329968195"><ele>500.20000000000005</ele><time>2026-04-22T10:34:22.001Z</time></trkpt><trkpt lat="43.76213874626873" lon="6.21685242165163"><ele>499.40000000000003</ele><time>2026-04-22T10:34:23.001Z</time></trkpt><trkpt lat="43.762158616840395" lon="6.2167120683004455"><ele>498.6</ele><time>2026-04-22T10:34:24.001Z</time></trkpt><trkpt lat="43.762180019302114" lon="6.216580153290285"><ele>497.8</ele><time>2026-04-22T10:34:25.001Z</time></trkpt><trkpt lat="43.76220801917208" lon="6.2164309601359"><ele>497.0</ele><time>2026-04-22T10:34:26.001Z</time></trkpt><trkpt lat="43.76224358216239" lon="6.216266667844962"><ele>496.25</ele><time>2026-04-22T10:34:27.001Z</time></trkpt><trkpt lat="43.76226437299438" lon="6.216092383172049"><ele>495.5</ele><time>2026-04-22T10:34:28.001Z</time></trkpt><trkpt lat="43.76229563459138" lon="6.215931310446079"><ele>494.75</ele><time>2026-04-22T10:34:29.001Z</time></trkpt><trkpt lat="43.76231419493274" lon="6.215777512275753"><ele>494.0</ele><time>2026-04-22T10:34:30.001Z</time></trkpt><trkpt lat="43.76234492550276" lon="6.215631813649491"><ele>493.5</ele><time>2026-04-22T10:34:31.001Z</time></trkpt><trkpt lat="43.76236024069193" lon="6.215467090256202"><ele>493.0</ele><time>2026-04-22T10:34:32.001Z</time></trkpt><trkpt lat="43.762425733317414" lon="6.215310617333487"><ele>492.5</ele><time>2026-04-22T10:34:33.001Z</time></trkpt><trkpt lat="43.76247585556477" lon="6.215138406851021"><ele>492.0</ele><time>2026-04-22T10:34:34.001Z</time></trkpt><trkpt lat="43.76253088027872" lon="6.21496674597388"><ele>491.0</ele><time>2026-04-22T10:34:35.001Z</time></trkpt><trkpt lat="43.76258276217565" lon="6.2147905060858415"><ele>490.0</ele><time>2026-04-22T10:34:36.001Z</time></trkpt><trkpt lat="43.76262608834686" lon="6.214612054140852"><ele>489.0</ele><time>2026-04-22T10:34:37.001Z</time></trkpt><trkpt lat="43.76265859255835" lon="6.2144359944158545"><ele>488.0</ele><time>2026-04-22T10:34:38.001Z</time></trkpt><trkpt lat="43.76268992351525" lon="6.214262997749387"><ele>488.0</ele><time>2026-04-22T10:34:39.002Z</time></trkpt><trkpt lat="43.762719696906416" lon="6.214104104891211"><ele>488.0</ele><time>2026-04-22T10:34:40.002Z</time></trkpt><trkpt lat="43.76274489881008" lon="6.213943659571385"><ele>488.0</ele><time>2026-04-22T10:34:41.002Z</time></trkpt><trkpt lat="43.762767125668276" lon="6.213786670176191"><ele>488.0</ele><time>2026-04-22T10:34:42Z</time></trkpt><trkpt lat="43.76279018242615" lon="6.213635118078676"><ele>487.2</ele><time>2026-04-22T10:34:43Z</time></trkpt><trkpt lat="43.76280903534441" lon="6.2134912131355255"><ele>486.4</ele><time>2026-04-22T10:34:44Z</time></trkpt><trkpt lat="43.762830231943624" lon="6.213349836472942"><ele>485.59999999999997</ele><time>2026-04-22T10:34:45Z</time></trkpt><trkpt lat="43.76285150116014" lon="6.2132148103876075"><ele>484.79999999999995</ele><time>2026-04-22T10:34:46Z</time></trkpt><trkpt lat="43.76288646324896" lon="6.213084873813026"><ele>484.0</ele><time>2026-04-22T10:34:47Z</time></trkpt><trkpt lat="43.76293122698593" lon="6.212950002479893"><ele>483.33333333333337</ele><time>2026-04-22T10:34:48Z</time></trkpt><trkpt lat="43.76296545022894" lon="6.212843796280016"><ele>482.6666666666667</ele><time>2026-04-22T10:34:49Z</time></trkpt><trkpt lat="43.7629990036975" lon="6.212701521265302"><ele>482.0</ele><time>2026-04-22T10:34:51Z</time></trkpt><trkpt lat="43.76302207411293" lon="6.212588919246845"><ele>481.33333333333337</ele><time>2026-04-22T10:34:53Z</time></trkpt><trkpt lat="43.763042659179604" lon="6.212499645548044"><ele>480.6666666666667</ele><time>2026-04-22T10:34:54Z</time></trkpt><trkpt lat="43.763059674966776" lon="6.212408842602539"><ele>480.0</ele><time>2026-04-22T10:34:55Z</time></trkpt><trkpt lat="43.76311288035474" lon="6.2122519544821495"><ele>479.5</ele><time>2026-04-22T10:34:57Z</time></trkpt><trkpt lat="43.76314263967868" lon="6.212159586653257"><ele>479.0</ele><time>2026-04-22T10:34:58Z</time></trkpt><trkpt lat="43.76317403750405" lon="6.212063458693049"><ele>478.5</ele><time>2026-04-22T10:34:59Z</time></trkpt><trkpt lat="43.763205435134736" lon="6.211963555567707"><ele>478.0</ele><time>2026-04-22T10:35:00Z</time></trkpt><trkpt lat="43.76322706327331" lon="6.211877118491844"><ele>477.5</ele><time>2026-04-22T10:35:01Z</time></trkpt><trkpt lat="43.76324796333147" lon="6.21178599197763"><ele>477.0</ele><time>2026-04-22T10:35:02Z</time></trkpt><trkpt lat="43.76329538280048" lon="6.211653343414115"><ele>477.0</ele><time>2026-04-22T10:35:04Z</time></trkpt><trkpt lat="43.7633352306402" lon="6.2115515035954"><ele>477.0</ele><time>2026-04-22T10:35:06Z</time></trkpt><trkpt lat="43.763404895463744" lon="6.211467849261825"><ele>477.0</ele><time>2026-04-22T10:35:09Z</time></trkpt><trkpt lat="43.7634664438541" lon="6.211422715088932"><ele>477.0</ele><time>2026-04-22T10:35:11Z</time></trkpt><trkpt lat="43.763517656833564" lon="6.21133802633385"><ele>477.0</ele><time>2026-04-22T10:35:14Z</time></trkpt><trkpt lat="43.76349827985287" lon="6.211253008020019"><ele>477.0</ele><time>2026-04-22T10:35:18Z</time></trkpt><trkpt lat="43.763417345128545" lon="6.211232476891027"><ele>477.0</ele><time>2026-04-22T10:37:13Z</time></trkpt><trkpt lat="43.763335627511054" lon="6.21123326436031"><ele>477.0</ele><time>2026-04-22T10:37:15Z</time></trkpt><trkpt lat="43.763405649619884" lon="6.211286387132883"><ele>477.0</ele><time>2026-04-22T10:37:19Z</time></trkpt><trkpt lat="43.76346675622855" lon="6.211317507938281"><ele>477.0</ele><time>2026-04-22T10:37:38.001Z</time></trkpt><trkpt lat="43.76354474693165" lon="6.211184366992447"><ele>477.0</ele><time>2026-04-22T10:37:40.001Z</time></trkpt><trkpt lat="43.763605009156265" lon="6.211077810192914"><ele>477.0</ele><time>2026-04-22T10:37:41.001Z</time></trkpt><trkpt lat="43.763358835285985" lon="6.2114964319281"><ele>477.0</ele><time>2026-04-22T10:37:42.001Z</time></trkpt><trkpt lat="43.76330978225497" lon="6.211624434041947"><ele>477.0</ele><time>2026-04-22T10:37:45.001Z</time></trkpt><trkpt lat="43.76326193004942" lon="6.211784466005208"><ele>477.0</ele><time>2026-04-22T10:37:47.001Z</time></trkpt><trkpt lat="43.763236182968164" lon="6.211867400909301"><ele>477.0</ele><time>2026-04-22T10:37:48.001Z</time></trkpt><trkpt lat="43.76320769099422" lon="6.21196317176561"><ele>477.0</ele><time>2026-04-22T10:37:49.001Z</time></trkpt><trkpt lat="43.763178624038915" lon="6.212049998254855"><ele>477.0</ele><time>2026-04-22T10:37:50.001Z</time></trkpt><trkpt lat="43.76314889899396" lon="6.212147549964302"><ele>477.0</ele><time>2026-04-22T10:37:51.001Z</time></trkpt><trkpt lat="43.763122157418586" lon="6.21224026991958"><ele>477.0</ele><time>2026-04-22T10:37:52.001Z</time></trkpt><trkpt lat="43.76309634453407" lon="6.212326688451463"><ele>477.0</ele><time>2026-04-22T10:37:53.001Z</time></trkpt><trkpt lat="43.7630642123593" lon="6.212406716645545"><ele>477.0</ele><time>2026-04-22T10:37:54.001Z</time></trkpt><trkpt lat="43.763011771584864" lon="6.212530252966254"><ele>477.0</ele><time>2026-04-22T10:37:56.001Z</time></trkpt><trkpt lat="43.762981385394845" lon="6.212656867021226"><ele>477.0</ele><time>2026-04-22T10:37:58.001Z</time></trkpt><trkpt lat="43.762966412178336" lon="6.212745525831318"><ele>477.5</ele><time>2026-04-22T10:37:59.001Z</time></trkpt><trkpt lat="43.76294325136249" lon="6.212843760808092"><ele>478.0</ele><time>2026-04-22T10:38:00.001Z</time></trkpt><trkpt lat="43.76291875084196" lon="6.2129437442553215"><ele>478.5</ele><time>2026-04-22T10:38:01.001Z</time></trkpt><trkpt lat="43.762887769858196" lon="6.213050977493419"><ele>479.0</ele><time>2026-04-22T10:38:02.001Z</time></trkpt><trkpt lat="43.762846412494035" lon="6.213155489689458"><ele>479.5</ele><time>2026-04-22T10:38:03.001Z</time></trkpt><trkpt lat="43.762813555905176" lon="6.213266905535587"><ele>480.0</ele><time>2026-04-22T10:38:04.001Z</time></trkpt><trkpt lat="43.762777707486855" lon="6.213393197100772"><ele>481.0</ele><time>2026-04-22T10:38:05.001Z</time></trkpt><trkpt lat="43.762764306588885" lon="6.213533476147822"><ele>482.0</ele><time>2026-04-22T10:38:06.001Z</time></trkpt><trkpt lat="43.76275335266308" lon="6.213687633411153"><ele>483.0</ele><time>2026-04-22T10:38:07.001Z</time></trkpt><trkpt lat="43.76273510522562" lon="6.213850187931928"><ele>484.0</ele><time>2026-04-22T10:38:08.001Z</time></trkpt><trkpt lat="43.76270153792402" lon="6.214006965089656"><ele>484.79999999999995</ele><time>2026-04-22T10:38:09.001Z</time></trkpt><trkpt lat="43.76267306777634" lon="6.214133660634335"><ele>485.59999999999997</ele><time>2026-04-22T10:38:10.001Z</time></trkpt><trkpt lat="43.76264534005185" lon="6.21426033463664"><ele>486.4</ele><time>2026-04-22T10:38:11.001Z</time></trkpt><trkpt lat="43.76261849826403" lon="6.214398214258362"><ele>487.2</ele><time>2026-04-22T10:38:12.001Z</time></trkpt><trkpt lat="43.76259356032137" lon="6.214555350468647"><ele>488.0</ele><time>2026-04-22T10:38:13.001Z</time></trkpt><trkpt lat="43.76256261213302" lon="6.214726190529937"><ele>489.0</ele><time>2026-04-22T10:38:14.001Z</time></trkpt><trkpt lat="43.76252315953832" lon="6.214898069265758"><ele>490.0</ele><time>2026-04-22T10:38:15.001Z</time></trkpt><trkpt lat="43.76248057104514" lon="6.2150747381041365"><ele>491.0</ele><time>2026-04-22T10:38:16.001Z</time></trkpt><trkpt lat="43.76243936098975" lon="6.21523108342036"><ele>492.0</ele><time>2026-04-22T10:38:17.001Z</time></trkpt><trkpt lat="43.76238892279131" lon="6.215381871506981"><ele>492.0</ele><time>2026-04-22T10:38:18.001Z</time></trkpt><trkpt lat="43.762350514946775" lon="6.2155361037823145"><ele>492.0</ele><time>2026-04-22T10:38:19.001Z</time></trkpt><trkpt lat="43.762312896200186" lon="6.215693180524551"><ele>492.0</ele><time>2026-04-22T10:38:20.001Z</time></trkpt><trkpt lat="43.762277976758476" lon="6.215854942269555"><ele>492.0</ele><time>2026-04-22T10:38:21.001Z</time></trkpt><trkpt lat="43.7622526434146" lon="6.216013030426035"><ele>492.40000000000003</ele><time>2026-04-22T10:38:22.001Z</time></trkpt><trkpt lat="43.762235868081" lon="6.216164646850158"><ele>492.80000000000007</ele><time>2026-04-22T10:38:23.001Z</time></trkpt><trkpt lat="43.762197482588654" lon="6.216318121043073"><ele>493.2</ele><time>2026-04-22T10:38:24.001Z</time></trkpt><trkpt lat="43.762170471995596" lon="6.216469893572652"><ele>493.6</ele><time>2026-04-22T10:38:25.001Z</time></trkpt><trkpt lat="43.7621492743522" lon="6.216613622575921"><ele>494.0</ele><time>2026-04-22T10:38:26.001Z</time></trkpt><trkpt lat="43.762124951504546" lon="6.216763405073424"><ele>494.6</ele><time>2026-04-22T10:38:27.001Z</time></trkpt><trkpt lat="43.76210638837688" lon="6.216914542121245"><ele>495.2</ele><time>2026-04-22T10:38:28.001Z</time></trkpt><trkpt lat="43.76209053936413" lon="6.21705778617044"><ele>495.80000000000007</ele><time>2026-04-22T10:38:29.001Z</time></trkpt><trkpt lat="43.762075911934154" lon="6.217205067961622"><ele>496.40000000000003</ele><time>2026-04-22T10:38:30.001Z</time></trkpt><trkpt lat="43.76207442002145" lon="6.21735149748406"><ele>497.0</ele><time>2026-04-22T10:38:31.001Z</time></trkpt><trkpt lat="43.7620738253719" lon="6.217467834542718"><ele>497.66666666666663</ele><time>2026-04-22T10:38:32.001Z</time></trkpt><trkpt lat="43.76207021764139" lon="6.217601395170067"><ele>498.3333333333333</ele><time>2026-04-22T10:38:33.001Z</time></trkpt><trkpt lat="43.76206724458991" lon="6.217725562346199"><ele>499.0</ele><time>2026-04-22T10:38:34.001Z</time></trkpt><trkpt lat="43.76206979423064" lon="6.217828634321006"><ele>499.66666666666663</ele><time>2026-04-22T10:38:35.001Z</time></trkpt><trkpt lat="43.76205957426167" lon="6.217961488290473"><ele>500.3333333333333</ele><time>2026-04-22T10:38:37.001Z</time></trkpt><trkpt lat="43.76208476148491" lon="6.218042122177643"><ele>501.0</ele><time>2026-04-22T10:38:42.001Z</time></trkpt><trkpt lat="43.7622165024694" lon="6.218043008139409"><ele>501.0</ele><time>2026-04-22T10:38:45.001Z</time></trkpt><trkpt lat="43.76232650247788" lon="6.218047491541905"><ele>501.0</ele><time>2026-04-22T10:38:47.001Z</time></trkpt><trkpt lat="43.762395081700966" lon="6.218044457522767"><ele>501.0</ele><time>2026-04-22T10:38:48.001Z</time></trkpt><trkpt lat="43.76247229679035" lon="6.218041599336428"><ele>501.0</ele><time>2026-04-22T10:38:49.001Z</time></trkpt><trkpt lat="43.76254920012289" lon="6.218031853975384"><ele>501.0</ele><time>2026-04-22T10:38:50.001Z</time></trkpt><trkpt lat="43.76263179237349" lon="6.218021653376839"><ele>501.0</ele><time>2026-04-22T10:38:51.001Z</time></trkpt><trkpt lat="43.76271717259808" lon="6.2180145305172205"><ele>501.0</ele><time>2026-04-22T10:38:52.002Z</time></trkpt><trkpt lat="43.76280224296083" lon="6.217992304520027"><ele>501.0</ele><time>2026-04-22T10:38:53.002Z</time></trkpt><trkpt lat="43.762894531805166" lon="6.217977610697931"><ele>501.0</ele><time>2026-04-22T10:38:54Z</time></trkpt><trkpt lat="43.76298891406596" lon="6.217953713458088"><ele>501.0</ele><time>2026-04-22T10:38:55Z</time></trkpt><trkpt lat="43.76309502743997" lon="6.217920859633289"><ele>501.0</ele><time>2026-04-22T10:38:56Z</time></trkpt><trkpt lat="43.763203056035344" lon="6.217880681974316"><ele>501.0</ele><time>2026-04-22T10:38:57Z</time></trkpt><trkpt lat="43.763322914431185" lon="6.217845843009633"><ele>501.0</ele><time>2026-04-22T10:38:58Z</time></trkpt><trkpt lat="43.76345697035692" lon="6.2178070597478525"><ele>501.0</ele><time>2026-04-22T10:38:59Z</time></trkpt><trkpt lat="43.763607231645864" lon="6.217751781267377"><ele>501.0</ele><time>2026-04-22T10:39:00Z</time></trkpt><trkpt lat="43.76375486550833" lon="6.217701604205402"><ele>501.66666666666663</ele><time>2026-04-22T10:39:01Z</time></trkpt><trkpt lat="43.763907489887934" lon="6.217658031589325"><ele>502.3333333333333</ele><time>2026-04-22T10:39:02Z</time></trkpt><trkpt lat="43.76406675240049" lon="6.217612157887419"><ele>503.0</ele><time>2026-04-22T10:39:03Z</time></trkpt><trkpt lat="43.76422508533051" lon="6.217578496644387"><ele>502.3333333333333</ele><time>2026-04-22T10:39:04Z</time></trkpt><trkpt lat="43.764383035361924" lon="6.217545934809627"><ele>501.66666666666663</ele><time>2026-04-22T10:39:05Z</time></trkpt><trkpt lat="43.76454971956243" lon="6.217520616726692"><ele>501.0</ele><time>2026-04-22T10:39:06Z</time></trkpt><trkpt lat="43.764724637331355" lon="6.21749941781201"><ele>501.0</ele><time>2026-04-22T10:39:07Z</time></trkpt><trkpt lat="43.76490100321642" lon="6.217484738532642"><ele>501.0</ele><time>2026-04-22T10:39:08Z</time></trkpt><trkpt lat="43.765080110730864" lon="6.217480254171175"><ele>501.0</ele><time>2026-04-22T10:39:09Z</time></trkpt><trkpt lat="43.76525935426541" lon="6.217478838136434"><ele>501.0</ele><time>2026-04-22T10:39:10Z</time></trkpt><trkpt lat="43.76543776359038" lon="6.217494202284284"><ele>501.0</ele><time>2026-04-22T10:39:11Z</time></trkpt><trkpt lat="43.76562241169189" lon="6.217523340849031"><ele>501.0</ele><time>2026-04-22T10:39:12Z</time></trkpt><trkpt lat="43.76581191371848" lon="6.217561465494069"><ele>501.0</ele><time>2026-04-22T10:39:13Z</time></trkpt><trkpt lat="43.76600291571527" lon="6.217608785875062"><ele>501.0</ele><time>2026-04-22T10:39:14Z</time></trkpt><trkpt lat="43.766196230778846" lon="6.217669564108129"><ele>501.0</ele><time>2026-04-22T10:39:15Z</time></trkpt><trkpt lat="43.76638915897053" lon="6.217732756334009"><ele>499.33333333333337</ele><time>2026-04-22T10:39:16Z</time></trkpt><trkpt lat="43.76658591621316" lon="6.217803378758939"><ele>497.6666666666667</ele><time>2026-04-22T10:39:17Z</time></trkpt><trkpt lat="43.76678306301997" lon="6.217867541063143"><ele>496.0</ele><time>2026-04-22T10:39:18Z</time></trkpt><trkpt lat="43.766984584907554" lon="6.2179228675716764"><ele>494.33333333333337</ele><time>2026-04-22T10:39:19Z</time></trkpt><trkpt lat="43.76719032408843" lon="6.217989196546567"><ele>492.66666666666663</ele><time>2026-04-22T10:39:20Z</time></trkpt><trkpt lat="43.76740747133865" lon="6.218055340868896"><ele>491.0</ele><time>2026-04-22T10:39:21Z</time></trkpt><trkpt lat="43.767636155755916" lon="6.218137390095554"><ele>493.5</ele><time>2026-04-22T10:39:22Z</time></trkpt><trkpt lat="43.76787220133157" lon="6.218217283482058"><ele>496.0</ele><time>2026-04-22T10:39:23Z</time></trkpt><trkpt lat="43.76810863740643" lon="6.21829710845001"><ele>496.0</ele><time>2026-04-22T10:39:24Z</time></trkpt><trkpt lat="43.7683424390797" lon="6.218380156946511"><ele>496.0</ele><time>2026-04-22T10:39:25Z</time></trkpt><trkpt lat="43.7685762665913" lon="6.218454623837362"><ele>496.5</ele><time>2026-04-22T10:39:26Z</time></trkpt><trkpt lat="43.76881165156624" lon="6.218532470427472"><ele>497.0</ele><time>2026-04-22T10:39:27Z</time></trkpt><trkpt lat="43.769046654830056" lon="6.21860990558504"><ele>497.0</ele><time>2026-04-22T10:39:28Z</time></trkpt><trkpt lat="43.76927884911925" lon="6.218691110801224"><ele>497.0</ele><time>2026-04-22T10:39:29Z</time></trkpt><trkpt lat="43.76952099583358" lon="6.218762493975629"><ele>496.0</ele><time>2026-04-22T10:39:30.001Z</time></trkpt><trkpt lat="43.769768580252936" lon="6.218811321640668"><ele>495.0</ele><time>2026-04-22T10:39:31.001Z</time></trkpt><trkpt lat="43.76998962288712" lon="6.218847848057543"><ele>495.5</ele><time>2026-04-22T10:39:32.001Z</time></trkpt><trkpt lat="43.77022933323771" lon="6.2188834938553885"><ele>496.0</ele><time>2026-04-22T10:39:33.001Z</time></trkpt><trkpt lat="43.7704702730621" lon="6.218907252553856"><ele>496.0</ele><time>2026-04-22T10:39:34.001Z</time></trkpt><trkpt lat="43.770706555606104" lon="6.218927355230537"><ele>496.0</ele><time>2026-04-22T10:39:35.001Z</time></trkpt><trkpt lat="43.77094476809302" lon="6.218934062854732"><ele>495.5</ele><time>2026-04-22T10:39:36.001Z</time></trkpt><trkpt lat="43.77118282957608" lon="6.218929787572668"><ele>495.0</ele><time>2026-04-22T10:39:37.001Z</time></trkpt><trkpt lat="43.77141652686426" lon="6.218914375912597"><ele>495.0</ele><time>2026-04-22T10:39:38.001Z</time></trkpt><trkpt lat="43.77164567048431" lon="6.2188970072409235"><ele>495.0</ele><time>2026-04-22T10:39:39.001Z</time></trkpt><trkpt lat="43.77187669582484" lon="6.2188741303211295"><ele>496.0</ele><time>2026-04-22T10:39:40.001Z</time></trkpt><trkpt lat="43.77210331843248" lon="6.218844656084532"><ele>497.0</ele><time>2026-04-22T10:39:41.001Z</time></trkpt><trkpt lat="43.772327894588415" lon="6.218809216570921"><ele>497.0</ele><time>2026-04-22T10:39:42.001Z</time></trkpt><trkpt lat="43.772550319201216" lon="6.218767647588862"><ele>497.0</ele><time>2026-04-22T10:39:43.001Z</time></trkpt><trkpt lat="43.77276537086945" lon="6.2187194632193314"><ele>497.0</ele><time>2026-04-22T10:39:44.001Z</time></trkpt><trkpt lat="43.77297646359594" lon="6.2186731895070135"><ele>497.66666666666663</ele><time>2026-04-22T10:39:45.001Z</time></trkpt><trkpt lat="43.773179746013035" lon="6.218633002904917"><ele>498.33333333333337</ele><time>2026-04-22T10:39:46.001Z</time></trkpt><trkpt lat="43.77338645859399" lon="6.218591279128416"><ele>499.0</ele><time>2026-04-22T10:39:47.001Z</time></trkpt><trkpt lat="43.77359249212346" lon="6.2185517991710135"><ele>500.0</ele><time>2026-04-22T10:39:48.001Z</time></trkpt><trkpt lat="43.77379359504613" lon="6.2185112992202916"><ele>501.0</ele><time>2026-04-22T10:39:49.001Z</time></trkpt><trkpt lat="43.77399506507747" lon="6.218459614174819"><ele>502.0</ele><time>2026-04-22T10:39:50.001Z</time></trkpt><trkpt lat="43.77419563871436" lon="6.218410184607228"><ele>502.6666666666667</ele><time>2026-04-22T10:39:51.001Z</time></trkpt><trkpt lat="43.774394932340314" lon="6.218347477898442"><ele>503.33333333333337</ele><time>2026-04-22T10:39:52.001Z</time></trkpt><trkpt lat="43.77458971989229" lon="6.218256766650935"><ele>504.0</ele><time>2026-04-22T10:39:53.001Z</time></trkpt><trkpt lat="43.77477723468407" lon="6.218144926732362"><ele>502.66666666666663</ele><time>2026-04-22T10:39:54.001Z</time></trkpt><trkpt lat="43.77494941430802" lon="6.218013542482184"><ele>501.3333333333333</ele><time>2026-04-22T10:39:55.001Z</time></trkpt><trkpt lat="43.775086018519175" lon="6.217881176727921"><ele>500.0</ele><time>2026-04-22T10:39:56.001Z</time></trkpt><trkpt lat="43.77518401568926" lon="6.2177660480584"><ele>500.16666666666663</ele><time>2026-04-22T10:39:57.001Z</time></trkpt><trkpt lat="43.77523692684429" lon="6.217699854598784"><ele>500.3333333333333</ele><time>2026-04-22T10:39:58.001Z</time></trkpt><trkpt lat="43.77529720405682" lon="6.217670749860348"><ele>500.5</ele><time>2026-04-22T10:40:00.001Z</time></trkpt><trkpt lat="43.775390635217384" lon="6.2175598947801545"><ele>500.66666666666663</ele><time>2026-04-22T10:40:02.001Z</time></trkpt><trkpt lat="43.775430239259606" lon="6.21746661601781"><ele>500.8333333333333</ele><time>2026-04-22T10:40:03.001Z</time></trkpt><trkpt lat="43.775474262908425" lon="6.217386549868849"><ele>501.0</ele><time>2026-04-22T10:40:04.001Z</time></trkpt><trkpt lat="43.7755181612532" lon="6.217319305871366"><ele>501.0</ele><time>2026-04-22T10:40:05.001Z</time></trkpt><trkpt lat="43.77567072700875" lon="6.2171752449747135"><ele>501.0</ele><time>2026-04-22T10:40:08.001Z</time></trkpt><trkpt lat="43.775455511136244" lon="6.21727067713335"><ele>501.0</ele><time>2026-04-22T10:40:09.001Z</time></trkpt><trkpt lat="43.775385980720216" lon="6.2173925092034015"><ele>501.0</ele><time>2026-04-22T10:40:11.001Z</time></trkpt><trkpt lat="43.77532519595922" lon="6.217489548896425"><ele>501.0</ele><time>2026-04-22T10:40:12.001Z</time></trkpt><trkpt lat="43.77526689765394" lon="6.217581873516276"><ele>501.0</ele><time>2026-04-22T10:40:13.001Z</time></trkpt><trkpt lat="43.775195908854904" lon="6.217628667185741"><ele>501.0</ele><time>2026-04-22T10:40:14.001Z</time></trkpt><trkpt lat="43.77505821163866" lon="6.217495679603573"><ele>501.0</ele><time>2026-04-22T10:40:16.001Z</time></trkpt><trkpt lat="43.774996120360115" lon="6.2173740288172015"><ele>502.0</ele><time>2026-04-22T10:40:17.001Z</time></trkpt><trkpt lat="43.774990734927236" lon="6.217217156493673"><ele>503.0</ele><time>2026-04-22T10:40:18.001Z</time></trkpt><trkpt lat="43.774998005417835" lon="6.2170588184781375"><ele>504.0</ele><time>2026-04-22T10:40:19.001Z</time></trkpt><trkpt lat="43.77509091357991" lon="6.216914906566213"><ele>505.0</ele><time>2026-04-22T10:40:20.001Z</time></trkpt><trkpt lat="43.77515602922643" lon="6.2167226223871035"><ele>503.0</ele><time>2026-04-22T10:40:21.001Z</time></trkpt><trkpt lat="43.77524623902837" lon="6.216512621124715"><ele>501.0</ele><time>2026-04-22T10:40:22.001Z</time></trkpt><trkpt lat="43.77532735991978" lon="6.21628529063881"><ele>499.0</ele><time>2026-04-22T10:40:23.001Z</time></trkpt><trkpt lat="43.775400735835206" lon="6.216047800110644"><ele>499.0</ele><time>2026-04-22T10:40:24.001Z</time></trkpt><trkpt lat="43.77547726939111" lon="6.2158148645140425"><ele>499.0</ele><time>2026-04-22T10:40:25.001Z</time></trkpt><trkpt lat="43.77553591749644" lon="6.215591464553311"><ele>499.0</ele><time>2026-04-22T10:40:26.001Z</time></trkpt><trkpt lat="43.77563236615764" lon="6.215298790184875"><ele>500.33333333333337</ele><time>2026-04-22T10:40:27.001Z</time></trkpt><trkpt lat="43.77569484416298" lon="6.21502718552317"><ele>501.66666666666663</ele><time>2026-04-22T10:40:28.001Z</time></trkpt><trkpt lat="43.77574472924841" lon="6.214755071939562"><ele>503.0</ele><time>2026-04-22T10:40:29.001Z</time></trkpt><trkpt lat="43.775786104703826" lon="6.214492626110662"><ele>504.66666666666663</ele><time>2026-04-22T10:40:30.001Z</time></trkpt><trkpt lat="43.77582886032121" lon="6.214234907485087"><ele>506.33333333333337</ele><time>2026-04-22T10:40:31.001Z</time></trkpt><trkpt lat="43.77584687351755" lon="6.214000596880405"><ele>508.0</ele><time>2026-04-22T10:40:32.001Z</time></trkpt><trkpt lat="43.775860885165976" lon="6.213788518108338"><ele>509.6666666666667</ele><time>2026-04-22T10:40:33.001Z</time></trkpt><trkpt lat="43.77590352582151" lon="6.213593938857815"><ele>511.33333333333337</ele><time>2026-04-22T10:40:34.001Z</time></trkpt><trkpt lat="43.77598716901919" lon="6.2132615585399495"><ele>513.0</ele><time>2026-04-22T10:40:36.001Z</time></trkpt><trkpt lat="43.77600337289968" lon="6.213089057732436"><ele>513.0</ele><time>2026-04-22T10:40:37.001Z</time></trkpt><trkpt lat="43.77601207940555" lon="6.212917605684324"><ele>513.0</ele><time>2026-04-22T10:40:38.001Z</time></trkpt><trkpt lat="43.77599771036399" lon="6.212738292007536"><ele>513.0</ele><time>2026-04-22T10:40:39.001Z</time></trkpt><trkpt lat="43.77594310687105" lon="6.212571415815858"><ele>513.0</ele><time>2026-04-22T10:40:40.001Z</time></trkpt><trkpt lat="43.775844927932894" lon="6.212428251942676"><ele>513.0</ele><time>2026-04-22T10:40:41.001Z</time></trkpt><trkpt lat="43.77572066508451" lon="6.212325942479406"><ele>513.0</ele><time>2026-04-22T10:40:42.001Z</time></trkpt><trkpt lat="43.77558785341403" lon="6.2122570053566895"><ele>513.0</ele><time>2026-04-22T10:40:43.001Z</time></trkpt><trkpt lat="43.77546665948948" lon="6.212199891907569"><ele>513.0</ele><time>2026-04-22T10:40:44.001Z</time></trkpt><trkpt lat="43.77535488162304" lon="6.212163170371494"><ele>513.4</ele><time>2026-04-22T10:40:45.001Z</time></trkpt><trkpt lat="43.77524616386104" lon="6.2121275217964165"><ele>513.8</ele><time>2026-04-22T10:40:46.001Z</time></trkpt><trkpt lat="43.77514774461913" lon="6.212089886430931"><ele>514.2</ele><time>2026-04-22T10:40:47.001Z</time></trkpt><trkpt lat="43.77507064629283" lon="6.212070620177574"><ele>514.6</ele><time>2026-04-22T10:40:48.001Z</time></trkpt><trkpt lat="43.77496011378134" lon="6.212015707846712"><ele>515.0</ele><time>2026-04-22T10:40:50.001Z</time></trkpt><trkpt lat="43.77489981066483" lon="6.2119886956297465"><ele>515.0</ele><time>2026-04-22T10:40:51.001Z</time></trkpt><trkpt lat="43.77484101131041" lon="6.2119495138198255"><ele>515.0</ele><time>2026-04-22T10:40:52.001Z</time></trkpt><trkpt lat="43.77476943476148" lon="6.211900967763019"><ele>515.0</ele><time>2026-04-22T10:40:53.001Z</time></trkpt><trkpt lat="43.77469318379555" lon="6.21182710889212"><ele>515.0</ele><time>2026-04-22T10:40:54.001Z</time></trkpt><trkpt lat="43.77462382178604" lon="6.211747052831733"><ele>515.0</ele><time>2026-04-22T10:40:55.001Z</time></trkpt><trkpt lat="43.77457135436972" lon="6.211652679708834"><ele>515.0</ele><time>2026-04-22T10:40:56.001Z</time></trkpt><trkpt lat="43.77452850683069" lon="6.211547374194811"><ele>514.8</ele><time>2026-04-22T10:40:57.001Z</time></trkpt><trkpt lat="43.77450073674188" lon="6.211454607026799"><ele>514.6</ele><time>2026-04-22T10:40:58.001Z</time></trkpt><trkpt lat="43.774488096877775" lon="6.211366775510289"><ele>514.4</ele><time>2026-04-22T10:40:59.001Z</time></trkpt><trkpt lat="43.774454250286205" lon="6.211161870336897"><ele>514.2</ele><time>2026-04-22T10:41:01Z</time></trkpt><trkpt lat="43.7744251151779" lon="6.211028481014936"><ele>514.0</ele><time>2026-04-22T10:41:02Z</time></trkpt><trkpt lat="43.77439429622569" lon="6.210914957534735"><ele>514.0</ele><time>2026-04-22T10:41:03Z</time></trkpt><trkpt lat="43.77436336798844" lon="6.210819137131527"><ele>514.0</ele><time>2026-04-22T10:41:04Z</time></trkpt><trkpt lat="43.77433136820585" lon="6.210731367962413"><ele>514.0</ele><time>2026-04-22T10:41:05Z</time></trkpt><trkpt lat="43.774298563964116" lon="6.210637643504466"><ele>514.0</ele><time>2026-04-22T10:41:06Z</time></trkpt><trkpt lat="43.77423129039816" lon="6.2105007127715135"><ele>514.0</ele><time>2026-04-22T10:41:08Z</time></trkpt><trkpt lat="43.77419260793447" lon="6.210428015784562"><ele>514.0</ele><time>2026-04-22T10:41:09Z</time></trkpt><trkpt lat="43.77415178162985" lon="6.2103449558476544"><ele>514.0</ele><time>2026-04-22T10:41:10Z</time></trkpt><trkpt lat="43.77410879743346" lon="6.210269759976718"><ele>514.0</ele><time>2026-04-22T10:41:11Z</time></trkpt><trkpt lat="43.774023669853875" lon="6.2101543567624775"><ele>514.0</ele><time>2026-04-22T10:41:13Z</time></trkpt><trkpt lat="43.77392789440747" lon="6.210056690743641"><ele>514.0</ele><time>2026-04-22T10:41:15Z</time></trkpt><trkpt lat="43.77384923260965" lon="6.209986032819391"><ele>514.0</ele><time>2026-04-22T10:41:17Z</time></trkpt><trkpt lat="43.77377558594726" lon="6.2099176846668485"><ele>514.0</ele><time>2026-04-22T10:41:19Z</time></trkpt><trkpt lat="43.77381995681911" lon="6.2097931306167595"><ele>514.0</ele><time>2026-04-22T10:41:22Z</time></trkpt><trkpt lat="43.77386359516899" lon="6.209674133614902"><ele>514.0</ele><time>2026-04-22T10:41:24Z</time></trkpt><trkpt lat="43.7739199260004" lon="6.209533906353843"><ele>514.0</ele><time>2026-04-22T10:41:26Z</time></trkpt><trkpt lat="43.77395130941553" lon="6.20945325570401"><ele>514.0</ele><time>2026-04-22T10:41:27Z</time></trkpt><trkpt lat="43.773984717365494" lon="6.2093708115154875"><ele>514.0</ele><time>2026-04-22T10:41:28Z</time></trkpt><trkpt lat="43.77401828684941" lon="6.209293930418812"><ele>514.0</ele><time>2026-04-22T10:41:29Z</time></trkpt><trkpt lat="43.77407550227505" lon="6.209202725324866"><ele>514.0</ele><time>2026-04-22T10:41:31Z</time></trkpt><trkpt lat="43.774112467704875" lon="6.209099840388042"><ele>514.0</ele><time>2026-04-22T10:41:34Z</time></trkpt><trkpt lat="43.7741836549821" lon="6.209097692704244"><ele>514.0</ele><time>2026-04-22T10:41:36Z</time></trkpt><trkpt lat="43.774266396269596" lon="6.209174155755936"><ele>514.0</ele><time>2026-04-22T10:41:40Z</time></trkpt><trkpt lat="43.77432139574153" lon="6.209106579220937"><ele>514.0</ele><time>2026-04-22T10:41:44Z</time></trkpt><trkpt lat="43.774245379882586" lon="6.209116640752297"><ele>514.0</ele><time>2026-04-22T10:41:49Z</time></trkpt><trkpt lat="43.77412633994469" lon="6.209025127141801"><ele>514.0</ele><time>2026-04-22T10:41:52Z</time></trkpt><trkpt lat="43.77406182002476" lon="6.208984268452807"><ele>514.0</ele><time>2026-04-22T10:41:53.001Z</time></trkpt><trkpt lat="43.773958633777426" lon="6.2089603378528615"><ele>514.0</ele><time>2026-04-22T10:41:55.001Z</time></trkpt><trkpt lat="43.77385273101265" lon="6.20894514169113"><ele>514.0</ele><time>2026-04-22T10:41:57.001Z</time></trkpt><trkpt lat="43.77373274624768" lon="6.209011858888765"><ele>514.0</ele><time>2026-04-22T10:41:59.001Z</time></trkpt><trkpt lat="43.77363015433161" lon="6.209023424259411"><ele>514.0</ele><time>2026-04-22T10:42:00.001Z</time></trkpt><trkpt lat="43.773591584969395" lon="6.208843340303686"><ele>514.0</ele><time>2026-04-22T10:42:01.001Z</time></trkpt><trkpt lat="43.77353651080159" lon="6.208796537436073"><ele>514.0</ele><time>2026-04-22T10:42:04.001Z</time></trkpt><trkpt lat="43.77344240906783" lon="6.208716568218549"><ele>514.0</ele><time>2026-04-22T10:42:06.001Z</time></trkpt><trkpt lat="43.77334791433858" lon="6.208659315252877"><ele>513.5</ele><time>2026-04-22T10:42:08.001Z</time></trkpt><trkpt lat="43.77327832129396" lon="6.2085741501004605"><ele>513.0</ele><time>2026-04-22T10:42:10.001Z</time></trkpt><trkpt lat="43.773170795341564" lon="6.2087378311502475"><ele>512.5</ele><time>2026-04-22T10:42:13.001Z</time></trkpt><trkpt lat="43.773130051004365" lon="6.208865719971072"><ele>512.0</ele><time>2026-04-22T10:42:15.001Z</time></trkpt><trkpt lat="43.77306314864857" lon="6.208982485176313"><ele>511.66666666666663</ele><time>2026-04-22T10:42:17.001Z</time></trkpt><trkpt lat="43.77298960193333" lon="6.209057526142448"><ele>511.3333333333333</ele><time>2026-04-22T10:42:19.001Z</time></trkpt><trkpt lat="43.772972190813654" lon="6.209151561559318"><ele>511.0</ele><time>2026-04-22T10:42:21.001Z</time></trkpt><trkpt lat="43.77288167025037" lon="6.209102130255593"><ele>510.66666666666663</ele><time>2026-04-22T10:42:22.001Z</time></trkpt><trkpt lat="43.772777237574225" lon="6.2090459206716755"><ele>510.3333333333333</ele><time>2026-04-22T10:42:24.001Z</time></trkpt><trkpt lat="43.772714585002795" lon="6.20900957956696"><ele>510.0</ele><time>2026-04-22T10:42:25.001Z</time></trkpt><trkpt lat="43.772651640240674" lon="6.20895092600151"><ele>510.0</ele><time>2026-04-22T10:42:26.001Z</time></trkpt><trkpt lat="43.77255397031645" lon="6.208881891438645"><ele>510.0</ele><time>2026-04-22T10:42:28.001Z</time></trkpt><trkpt lat="43.77249660424784" lon="6.20882424684572"><ele>510.0</ele><time>2026-04-22T10:42:30.001Z</time></trkpt><trkpt lat="43.772446386069454" lon="6.20873008110046"><ele>510.0</ele><time>2026-04-22T10:42:33.001Z</time></trkpt><trkpt lat="43.77242453197243" lon="6.208642527079309"><ele>510.0</ele><time>2026-04-22T10:42:37.001Z</time></trkpt><trkpt lat="43.77233376805146" lon="6.208665310536454"><ele>510.0</ele><time>2026-04-22T10:42:39.001Z</time></trkpt><trkpt lat="43.77226949662235" lon="6.208668328652191"><ele>510.0</ele><time>2026-04-22T10:42:43.001Z</time></trkpt><trkpt lat="43.77221043461947" lon="6.20862366600233"><ele>510.0</ele><time>2026-04-22T10:42:51.001Z</time></trkpt><trkpt lat="43.77228384537443" lon="6.208643280565127"><ele>510.0</ele><time>2026-04-22T10:42:54.001Z</time></trkpt><trkpt lat="43.77235351654216" lon="6.208606795180228"><ele>510.0</ele><time>2026-04-22T10:42:56.001Z</time></trkpt><trkpt lat="43.77244116018572" lon="6.208620377782679"><ele>510.0</ele><time>2026-04-22T10:42:58.001Z</time></trkpt><trkpt lat="43.77245462688999" lon="6.208767730478889"><ele>510.0</ele><time>2026-04-22T10:43:02.001Z</time></trkpt><trkpt lat="43.77257963870888" lon="6.208970256847354"><ele>510.0</ele><time>2026-04-22T10:44:08.001Z</time></trkpt><trkpt lat="43.772700199563616" lon="6.209077110776284"><ele>510.0</ele><time>2026-04-22T10:44:10.001Z</time></trkpt><trkpt lat="43.772767864042144" lon="6.209095729588049"><ele>510.0</ele><time>2026-04-22T10:44:11.001Z</time></trkpt><trkpt lat="43.77285955183339" lon="6.209160516526429"><ele>510.0</ele><time>2026-04-22T10:44:13.001Z</time></trkpt><trkpt lat="43.7729351898641" lon="6.209160159753796"><ele>510.0</ele><time>2026-04-22T10:44:14.001Z</time></trkpt><trkpt lat="43.773034913088395" lon="6.209204763147854"><ele>510.0</ele><time>2026-04-22T10:44:16.001Z</time></trkpt><trkpt lat="43.7730911496633" lon="6.209269911839233"><ele>510.0</ele><time>2026-04-22T10:44:18.001Z</time></trkpt><trkpt lat="43.77317629244494" lon="6.209366784328233"><ele>510.0</ele><time>2026-04-22T10:44:21.001Z</time></trkpt><trkpt lat="43.77322691435304" lon="6.209431300329366"><ele>510.0</ele><time>2026-04-22T10:44:24.001Z</time></trkpt><trkpt lat="43.77328626204496" lon="6.209506937061367"><ele>510.0</ele><time>2026-04-22T10:44:26.001Z</time></trkpt><trkpt lat="43.77332661818729" lon="6.209652249464409"><ele>510.0</ele><time>2026-04-22T10:44:28.001Z</time></trkpt><trkpt lat="43.77343154473435" lon="6.209728255772702"><ele>510.8</ele><time>2026-04-22T10:44:30.001Z</time></trkpt><trkpt lat="43.77354238919207" lon="6.209799771059144"><ele>511.6</ele><time>2026-04-22T10:44:32.001Z</time></trkpt><trkpt lat="43.773624152819664" lon="6.209850629996443"><ele>512.4</ele><time>2026-04-22T10:44:34.001Z</time></trkpt><trkpt lat="43.773679185278375" lon="6.20990183019579"><ele>513.2</ele><time>2026-04-22T10:44:36.001Z</time></trkpt><trkpt lat="43.773741365707984" lon="6.20994726880731"><ele>514.0</ele><time>2026-04-22T10:44:38.001Z</time></trkpt><trkpt lat="43.77384132691233" lon="6.210015660903237"><ele>514.0</ele><time>2026-04-22T10:44:40.001Z</time></trkpt><trkpt lat="43.77390378243879" lon="6.210066805914199"><ele>514.0</ele><time>2026-04-22T10:44:41.001Z</time></trkpt><trkpt lat="43.77399718381062" lon="6.210170188092146"><ele>514.0</ele><time>2026-04-22T10:44:43.001Z</time></trkpt><trkpt lat="43.774039917073345" lon="6.210250606247265"><ele>514.0</ele><time>2026-04-22T10:44:44.001Z</time></trkpt><trkpt lat="43.774087193269274" lon="6.210310777226329"><ele>514.0</ele><time>2026-04-22T10:44:45.001Z</time></trkpt><trkpt lat="43.774156258810116" lon="6.2104291238145475"><ele>514.0</ele><time>2026-04-22T10:44:46.001Z</time></trkpt><trkpt lat="43.77421698762399" lon="6.210539662102608"><ele>514.0</ele><time>2026-04-22T10:44:47.001Z</time></trkpt><trkpt lat="43.77427553193213" lon="6.210641630209547"><ele>514.0</ele><time>2026-04-22T10:44:48.001Z</time></trkpt><trkpt lat="43.77431858433518" lon="6.210744425436082"><ele>514.0</ele><time>2026-04-22T10:44:49.001Z</time></trkpt><trkpt lat="43.774362908932716" lon="6.210852620492761"><ele>514.0</ele><time>2026-04-22T10:44:50.001Z</time></trkpt><trkpt lat="43.77438623408552" lon="6.210966181247423"><ele>514.0</ele><time>2026-04-22T10:44:51.001Z</time></trkpt><trkpt lat="43.77440022312647" lon="6.21108904466076"><ele>514.0</ele><time>2026-04-22T10:44:52.001Z</time></trkpt><trkpt lat="43.77441927418831" lon="6.211196993128524"><ele>514.0</ele><time>2026-04-22T10:44:53.001Z</time></trkpt><trkpt lat="43.77444179605926" lon="6.211304417562261"><ele>514.0</ele><time>2026-04-22T10:44:54.001Z</time></trkpt><trkpt lat="43.774465805854746" lon="6.211409501598606"><ele>514.0</ele><time>2026-04-22T10:44:55.001Z</time></trkpt><trkpt lat="43.77449118418824" lon="6.2115209480450755"><ele>514.0</ele><time>2026-04-22T10:44:56.001Z</time></trkpt><trkpt lat="43.77452162879937" lon="6.211631982899693"><ele>514.0</ele><time>2026-04-22T10:44:57.001Z</time></trkpt><trkpt lat="43.77456242837513" lon="6.211737191880962"><ele>514.0</ele><time>2026-04-22T10:44:58.001Z</time></trkpt><trkpt lat="43.774618038179824" lon="6.211824628750462"><ele>514.1666666666667</ele><time>2026-04-22T10:44:59.001Z</time></trkpt><trkpt lat="43.774692155142596" lon="6.2118915919481035"><ele>514.3333333333334</ele><time>2026-04-22T10:45:00.001Z</time></trkpt><trkpt lat="43.77476562245758" lon="6.211948358094177"><ele>514.5</ele><time>2026-04-22T10:45:01.001Z</time></trkpt><trkpt lat="43.77484817597861" lon="6.211992725455626"><ele>514.6666666666666</ele><time>2026-04-22T10:45:02.001Z</time></trkpt><trkpt lat="43.77493507806316" lon="6.212024403606426"><ele>514.8333333333333</ele><time>2026-04-22T10:45:03.001Z</time></trkpt><trkpt lat="43.77502578670177" lon="6.212062684498223"><ele>515.0</ele><time>2026-04-22T10:45:04.001Z</time></trkpt><trkpt lat="43.775116007966126" lon="6.212106798833295"><ele>513.6</ele><time>2026-04-22T10:45:05.001Z</time></trkpt><trkpt lat="43.77520107108199" lon="6.212149137231458"><ele>512.2</ele><time>2026-04-22T10:45:06.001Z</time></trkpt><trkpt lat="43.77529536145838" lon="6.212188300387754"><ele>510.79999999999995</ele><time>2026-04-22T10:45:07.001Z</time></trkpt><trkpt lat="43.775388302629764" lon="6.212224584264806"><ele>509.4</ele><time>2026-04-22T10:45:08.001Z</time></trkpt><trkpt lat="43.77548697619747" lon="6.212261532950056"><ele>508.0</ele><time>2026-04-22T10:45:09.001Z</time></trkpt><trkpt lat="43.775584369828834" lon="6.21230944394872"><ele>509.0</ele><time>2026-04-22T10:45:10.001Z</time></trkpt><trkpt lat="43.77568379437143" lon="6.212370027223384"><ele>509.99999999999994</ele><time>2026-04-22T10:45:11.001Z</time></trkpt><trkpt lat="43.77578480793591" lon="6.2124484932770825"><ele>510.99999999999994</ele><time>2026-04-22T10:45:11.999Z</time></trkpt><trkpt lat="43.77587082653782" lon="6.212540259726857"><ele>512.0</ele><time>2026-04-22T10:45:12.999Z</time></trkpt><trkpt lat="43.77593465502166" lon="6.21265577397903"><ele>513.0</ele><time>2026-04-22T10:45:13.999Z</time></trkpt><trkpt lat="43.77598040708283" lon="6.212793127505321"><ele>513.0</ele><time>2026-04-22T10:45:14.999Z</time></trkpt><trkpt lat="43.77598661617301" lon="6.21295418453385"><ele>513.0</ele><time>2026-04-22T10:45:15.999Z</time></trkpt><trkpt lat="43.77598909927189" lon="6.213106991973945"><ele>513.0</ele><time>2026-04-22T10:45:16.999Z</time></trkpt><trkpt lat="43.775951321128524" lon="6.213268671483863"><ele>513.0</ele><time>2026-04-22T10:45:17.999Z</time></trkpt><trkpt lat="43.77592105674184" lon="6.213426726608493"><ele>513.0</ele><time>2026-04-22T10:45:18.999Z</time></trkpt><trkpt lat="43.77587931248981" lon="6.213579726338633"><ele>513.0</ele><time>2026-04-22T10:45:19.999Z</time></trkpt><trkpt lat="43.77584089335169" lon="6.2137433870253"><ele>513.0</ele><time>2026-04-22T10:45:20.999Z</time></trkpt><trkpt lat="43.77581295831695" lon="6.213917367526219"><ele>513.0</ele><time>2026-04-22T10:45:21.999Z</time></trkpt><trkpt lat="43.77579863354708" lon="6.214101363564705"><ele>511.75</ele><time>2026-04-22T10:45:22.999Z</time></trkpt><trkpt lat="43.77578054769175" lon="6.214285703034835"><ele>510.5</ele><time>2026-04-22T10:45:23.999Z</time></trkpt><trkpt lat="43.77575722295841" lon="6.214462810341696"><ele>509.25</ele><time>2026-04-22T10:45:24.999Z</time></trkpt><trkpt lat="43.77573176774173" lon="6.214643539003895"><ele>508.0</ele><time>2026-04-22T10:45:25.999Z</time></trkpt><trkpt lat="43.775702420781805" lon="6.214825373119489"><ele>506.75</ele><time>2026-04-22T10:45:26.999Z</time></trkpt><trkpt lat="43.77566618242958" lon="6.215005872010828"><ele>505.5</ele><time>2026-04-22T10:45:27.999Z</time></trkpt><trkpt lat="43.775628353331236" lon="6.215182079806721"><ele>504.25</ele><time>2026-04-22T10:45:28.999Z</time></trkpt><trkpt lat="43.77559287801333" lon="6.215356998153534"><ele>503.0</ele><time>2026-04-22T10:45:29.999Z</time></trkpt><trkpt lat="43.77553832827987" lon="6.21552861393146"><ele>502.0</ele><time>2026-04-22T10:45:30.999Z</time></trkpt><trkpt lat="43.775486805661885" lon="6.215692785204235"><ele>501.0</ele><time>2026-04-22T10:45:31.999Z</time></trkpt><trkpt lat="43.775435214835554" lon="6.2158486476868315"><ele>500.0</ele><time>2026-04-22T10:45:32.999Z</time></trkpt><trkpt lat="43.775382529664135" lon="6.215994288510609"><ele>499.0</ele><time>2026-04-22T10:45:33.999Z</time></trkpt><trkpt lat="43.77533700840934" lon="6.216153876867686"><ele>499.0</ele><time>2026-04-22T10:45:34.999Z</time></trkpt><trkpt lat="43.77528681019445" lon="6.216312524605766"><ele>499.0</ele><time>2026-04-22T10:45:35.999Z</time></trkpt><trkpt lat="43.77523838070912" lon="6.216464944126999"><ele>499.0</ele><time>2026-04-22T10:45:36.999Z</time></trkpt><trkpt lat="43.77518028858538" lon="6.216610092303167"><ele>499.0</ele><time>2026-04-22T10:45:38Z</time></trkpt><trkpt lat="43.77511972238431" lon="6.216755619930395"><ele>499.2</ele><time>2026-04-22T10:45:39Z</time></trkpt><trkpt lat="43.775069375793215" lon="6.216891665197704"><ele>499.4</ele><time>2026-04-22T10:45:40Z</time></trkpt><trkpt lat="43.77501625506697" lon="6.217024379121316"><ele>499.6</ele><time>2026-04-22T10:45:41Z</time></trkpt><trkpt lat="43.77497148090677" lon="6.217150428690019"><ele>499.8</ele><time>2026-04-22T10:45:42Z</time></trkpt><trkpt lat="43.77495564704139" lon="6.217273200780602"><ele>500.0</ele><time>2026-04-22T10:45:43Z</time></trkpt><trkpt lat="43.774980424612814" lon="6.217391255673498"><ele>500.0</ele><time>2026-04-22T10:45:44Z</time></trkpt><trkpt lat="43.775023094819446" lon="6.217489703083913"><ele>500.0</ele><time>2026-04-22T10:45:45Z</time></trkpt><trkpt lat="43.7750570523233" lon="6.217584981990228"><ele>500.0</ele><time>2026-04-22T10:45:46Z</time></trkpt><trkpt lat="43.775109146856515" lon="6.217724200396633"><ele>500.0</ele><time>2026-04-22T10:45:48Z</time></trkpt><trkpt lat="43.77516563921725" lon="6.217798653990793"><ele>500.0</ele><time>2026-04-22T10:45:50Z</time></trkpt><trkpt lat="43.77530128133659" lon="6.217675302729245"><ele>500.25</ele><time>2026-04-22T10:45:51Z</time></trkpt><trkpt lat="43.775374186696254" lon="6.21757389861476"><ele>500.5</ele><time>2026-04-22T10:45:52Z</time></trkpt><trkpt lat="43.77545726961431" lon="6.217436238218909"><ele>500.75</ele><time>2026-04-22T10:45:53Z</time></trkpt><trkpt lat="43.77553707938086" lon="6.217270772919292"><ele>501.0</ele><time>2026-04-22T10:45:54Z</time></trkpt><trkpt lat="43.77562197325659" lon="6.217080938921934"><ele>500.33333333333337</ele><time>2026-04-22T10:45:55Z</time></trkpt><trkpt lat="43.77571318533759" lon="6.216883386263276"><ele>499.6666666666667</ele><time>2026-04-22T10:45:56Z</time></trkpt><trkpt lat="43.775808233492334" lon="6.216678085737435"><ele>499.0</ele><time>2026-04-22T10:45:57Z</time></trkpt><trkpt lat="43.775902454970094" lon="6.2164807318661826"><ele>499.0</ele><time>2026-04-22T10:45:58Z</time></trkpt><trkpt lat="43.77601702924806" lon="6.2162854778278875"><ele>499.0</ele><time>2026-04-22T10:45:59Z</time></trkpt><trkpt lat="43.77610773219458" lon="6.2160599292392185"><ele>499.0</ele><time>2026-04-22T10:46:00Z</time></trkpt><trkpt lat="43.77622015197771" lon="6.215833185634567"><ele>497.0</ele><time>2026-04-22T10:46:01Z</time></trkpt><trkpt lat="43.77637048205831" lon="6.21554651789301"><ele>495.0</ele><time>2026-04-22T10:46:02Z</time></trkpt><trkpt lat="43.77652052027652" lon="6.21526171306909"><ele>495.0</ele><time>2026-04-22T10:46:03Z</time></trkpt><trkpt lat="43.77663471173542" lon="6.215029660416828"><ele>495.0</ele><time>2026-04-22T10:46:04Z</time></trkpt><trkpt lat="43.776667427210704" lon="6.21493184631002"><ele>495.0</ele><time>2026-04-22T10:46:05Z</time></trkpt><trkpt lat="43.77676467213835" lon="6.214728086989263"><ele>495.0</ele><time>2026-04-22T10:46:06Z</time></trkpt><trkpt lat="43.776870253492504" lon="6.214506860214164"><ele>495.0</ele><time>2026-04-22T10:46:07Z</time></trkpt><trkpt lat="43.7769681740633" lon="6.214302076276993"><ele>495.0</ele><time>2026-04-22T10:46:08Z</time></trkpt><trkpt lat="43.7770556416737" lon="6.2141202113667875"><ele>494.0</ele><time>2026-04-22T10:46:09Z</time></trkpt><trkpt lat="43.77715285373371" lon="6.21391814051413"><ele>493.0</ele><time>2026-04-22T10:46:10Z</time></trkpt><trkpt lat="43.777280037901875" lon="6.213630377184678"><ele>492.0</ele><time>2026-04-22T10:46:11Z</time></trkpt><trkpt lat="43.77738646475505" lon="6.213393691519419"><ele>492.0</ele><time>2026-04-22T10:46:12Z</time></trkpt><trkpt lat="43.77749547634715" lon="6.213168004395919"><ele>492.0</ele><time>2026-04-22T10:46:13Z</time></trkpt><trkpt lat="43.77760377105844" lon="6.212959625412431"><ele>492.0</ele><time>2026-04-22T10:46:14Z</time></trkpt><trkpt lat="43.777719142634844" lon="6.212747322627669"><ele>492.33333333333337</ele><time>2026-04-22T10:46:15Z</time></trkpt><trkpt lat="43.77782547257928" lon="6.212540729810396"><ele>492.6666666666667</ele><time>2026-04-22T10:46:16Z</time></trkpt><trkpt lat="43.777945811217265" lon="6.2123334655486655"><ele>493.0</ele><time>2026-04-22T10:46:17Z</time></trkpt><trkpt lat="43.778096553773615" lon="6.212139747960718"><ele>491.33333333333337</ele><time>2026-04-22T10:46:18Z</time></trkpt><trkpt lat="43.77825705861959" lon="6.211968149577467"><ele>489.66666666666663</ele><time>2026-04-22T10:46:19Z</time></trkpt><trkpt lat="43.77842840368862" lon="6.211818425048134"><ele>488.0</ele><time>2026-04-22T10:46:20Z</time></trkpt><trkpt lat="43.778591925812044" lon="6.211700156597034"><ele>488.0</ele><time>2026-04-22T10:46:21Z</time></trkpt><trkpt lat="43.77876487084939" lon="6.2116061315820605"><ele>488.0</ele><time>2026-04-22T10:46:22Z</time></trkpt><trkpt lat="43.7789369194166" lon="6.211521914474915"><ele>488.0</ele><time>2026-04-22T10:46:23Z</time></trkpt><trkpt lat="43.77911599540447" lon="6.211457559595582"><ele>487.3333333333333</ele><time>2026-04-22T10:46:24Z</time></trkpt><trkpt lat="43.77930495448984" lon="6.211416248060334"><ele>486.66666666666663</ele><time>2026-04-22T10:46:25Z</time></trkpt><trkpt lat="43.779494176442" lon="6.211388653074998"><ele>486.0</ele><time>2026-04-22T10:46:26Z</time></trkpt><trkpt lat="43.77967305377897" lon="6.2114166327243865"><ele>486.0</ele><time>2026-04-22T10:46:27Z</time></trkpt><trkpt lat="43.77986444038635" lon="6.211423494292583"><ele>486.0</ele><time>2026-04-22T10:46:28Z</time></trkpt><trkpt lat="43.7800540508365" lon="6.211469896840707"><ele>486.0</ele><time>2026-04-22T10:46:29Z</time></trkpt><trkpt lat="43.78024678399881" lon="6.211542366275483"><ele>486.66666666666663</ele><time>2026-04-22T10:46:30Z</time></trkpt><trkpt lat="43.780428678804675" lon="6.211633799316491"><ele>487.3333333333333</ele><time>2026-04-22T10:46:31Z</time></trkpt><trkpt lat="43.78060496629514" lon="6.2117489988782"><ele>488.0</ele><time>2026-04-22T10:46:32Z</time></trkpt><trkpt lat="43.78078057390594" lon="6.211892281426074"><ele>488.0</ele><time>2026-04-22T10:46:33Z</time></trkpt><trkpt lat="43.780944441134196" lon="6.212074178069456"><ele>488.0</ele><time>2026-04-22T10:46:34Z</time></trkpt><trkpt lat="43.7810996939161" lon="6.21225785969972"><ele>488.0</ele><time>2026-04-22T10:46:35Z</time></trkpt><trkpt lat="43.7812532766578" lon="6.2124517183809695"><ele>488.0</ele><time>2026-04-22T10:46:36Z</time></trkpt><trkpt lat="43.781414616578516" lon="6.212633044995808"><ele>488.0</ele><time>2026-04-22T10:46:37Z</time></trkpt><trkpt lat="43.781564744480406" lon="6.212828573431223"><ele>488.0</ele><time>2026-04-22T10:46:38.001Z</time></trkpt><trkpt lat="43.781725391489935" lon="6.213022965563704"><ele>488.66666666666663</ele><time>2026-04-22T10:46:39.001Z</time></trkpt><trkpt lat="43.781879905018585" lon="6.213200896761164"><ele>489.33333333333337</ele><time>2026-04-22T10:46:40.001Z</time></trkpt><trkpt lat="43.7820315665945" lon="6.213387088762041"><ele>490.0</ele><time>2026-04-22T10:46:41.001Z</time></trkpt><trkpt lat="43.78216986478817" lon="6.2135760323833535"><ele>490.0</ele><time>2026-04-22T10:46:42.001Z</time></trkpt><trkpt lat="43.78232186426966" lon="6.213762794970331"><ele>490.0</ele><time>2026-04-22T10:46:43.001Z</time></trkpt><trkpt lat="43.78247039269302" lon="6.213956291139859"><ele>490.0</ele><time>2026-04-22T10:46:44.001Z</time></trkpt><trkpt lat="43.78262403350655" lon="6.214143370108307"><ele>489.33333333333337</ele><time>2026-04-22T10:46:45.001Z</time></trkpt><trkpt lat="43.78277056145915" lon="6.214334713133264"><ele>488.66666666666663</ele><time>2026-04-22T10:46:46.001Z</time></trkpt><trkpt lat="43.782926867584045" lon="6.2145300551042375"><ele>488.0</ele><time>2026-04-22T10:46:47.001Z</time></trkpt><trkpt lat="43.78307796249668" lon="6.2147294227919705"><ele>486.66666666666663</ele><time>2026-04-22T10:46:48.001Z</time></trkpt><trkpt lat="43.783232851744145" lon="6.2149293929156375"><ele>485.33333333333337</ele><time>2026-04-22T10:46:49.001Z</time></trkpt><trkpt lat="43.783389735993396" lon="6.215126863601544"><ele>484.0</ele><time>2026-04-22T10:46:50.001Z</time></trkpt><trkpt lat="43.7835438964402" lon="6.215316166356221"><ele>484.0</ele><time>2026-04-22T10:46:51.001Z</time></trkpt><trkpt lat="43.78370084945589" lon="6.215508136155176"><ele>484.0</ele><time>2026-04-22T10:46:52.001Z</time></trkpt><trkpt lat="43.78385362639983" lon="6.215704621575601"><ele>484.0</ele><time>2026-04-22T10:46:53.001Z</time></trkpt><trkpt lat="43.78401149542852" lon="6.215901294269538"><ele>485.33333333333337</ele><time>2026-04-22T10:46:54.001Z</time></trkpt><trkpt lat="43.78417185063294" lon="6.216097018004118"><ele>486.66666666666663</ele><time>2026-04-22T10:46:55.001Z</time></trkpt><trkpt lat="43.784329536174425" lon="6.216294432797785"><ele>488.0</ele><time>2026-04-22T10:46:56.001Z</time></trkpt><trkpt lat="43.78449247113072" lon="6.216493249780485"><ele>488.0</ele><time>2026-04-22T10:46:57.001Z</time></trkpt><trkpt lat="43.78465519706565" lon="6.2166992336856755"><ele>488.0</ele><time>2026-04-22T10:46:58.001Z</time></trkpt><trkpt lat="43.78482258619246" lon="6.216906863502166"><ele>488.0</ele><time>2026-04-22T10:46:59.001Z</time></trkpt><trkpt lat="43.784991169477095" lon="6.2171191969835915"><ele>487.66666666666663</ele><time>2026-04-22T10:47:00.001Z</time></trkpt><trkpt lat="43.78515198012046" lon="6.217322099117856"><ele>487.33333333333337</ele><time>2026-04-22T10:47:01.001Z</time></trkpt><trkpt lat="43.78531583235094" lon="6.217527049841349"><ele>487.0</ele><time>2026-04-22T10:47:02.001Z</time></trkpt><trkpt lat="43.785480268064745" lon="6.21772910418301"><ele>487.0</ele><time>2026-04-22T10:47:03.001Z</time></trkpt><trkpt lat="43.78564623900914" lon="6.217934153536431"><ele>487.0</ele><time>2026-04-22T10:47:04.001Z</time></trkpt><trkpt lat="43.785811329183005" lon="6.218131943020947"><ele>487.0</ele><time>2026-04-22T10:47:05.001Z</time></trkpt><trkpt lat="43.78597389885979" lon="6.218334538217372"><ele>487.33333333333337</ele><time>2026-04-22T10:47:06.001Z</time></trkpt><trkpt lat="43.786141189404276" lon="6.218542461922288"><ele>487.66666666666663</ele><time>2026-04-22T10:47:07.001Z</time></trkpt><trkpt lat="43.7863028775268" lon="6.218744393776074"><ele>488.0</ele><time>2026-04-22T10:47:08.001Z</time></trkpt><trkpt lat="43.786465892857116" lon="6.218945026069853"><ele>488.0</ele><time>2026-04-22T10:47:09.001Z</time></trkpt><trkpt lat="43.78662290065105" lon="6.219143870293364"><ele>488.0</ele><time>2026-04-22T10:47:10.001Z</time></trkpt><trkpt lat="43.78678062424245" lon="6.219338134480205"><ele>488.0</ele><time>2026-04-22T10:47:11.001Z</time></trkpt><trkpt lat="43.786935008041965" lon="6.219532289571822"><ele>488.0</ele><time>2026-04-22T10:47:12.001Z</time></trkpt><trkpt lat="43.78708389802761" lon="6.219724157123979"><ele>488.0</ele><time>2026-04-22T10:47:13.001Z</time></trkpt><trkpt lat="43.78723537917978" lon="6.219912712919724"><ele>488.0</ele><time>2026-04-22T10:47:14.001Z</time></trkpt><trkpt lat="43.78738627474027" lon="6.220104531256355"><ele>488.3333333333333</ele><time>2026-04-22T10:47:15.001Z</time></trkpt><trkpt lat="43.78754092399697" lon="6.220294375901676"><ele>488.66666666666663</ele><time>2026-04-22T10:47:16.001Z</time></trkpt><trkpt lat="43.78769300651409" lon="6.220486391675044"><ele>489.0</ele><time>2026-04-22T10:47:17.001Z</time></trkpt><trkpt lat="43.78783769286595" lon="6.22067765545256"><ele>490.33333333333337</ele><time>2026-04-22T10:47:17.999Z</time></trkpt><trkpt lat="43.7879755528685" lon="6.220886657056605"><ele>491.6666666666667</ele><time>2026-04-22T10:47:18.999Z</time></trkpt><trkpt lat="43.78810582240356" lon="6.2210978617157675"><ele>493.0</ele><time>2026-04-22T10:47:19.999Z</time></trkpt><trkpt lat="43.78820876975447" lon="6.221335626485232"><ele>494.6666666666667</ele><time>2026-04-22T10:47:20.999Z</time></trkpt><trkpt lat="43.788289822336026" lon="6.221588649616529"><ele>496.33333333333337</ele><time>2026-04-22T10:47:21.999Z</time></trkpt><trkpt lat="43.78835716815927" lon="6.221849761604598"><ele>498.0</ele><time>2026-04-22T10:47:22.999Z</time></trkpt><trkpt lat="43.78840691978708" lon="6.222119131420163"><ele>500.0</ele><time>2026-04-22T10:47:23.999Z</time></trkpt><trkpt lat="43.788451532769244" lon="6.222384690078769"><ele>502.0</ele><time>2026-04-22T10:47:24.999Z</time></trkpt><trkpt lat="43.788500985915796" lon="6.222648512174665"><ele>504.0</ele><time>2026-04-22T10:47:25.999Z</time></trkpt><trkpt lat="43.78856349049399" lon="6.222910383268511"><ele>500.33333333333337</ele><time>2026-04-22T10:47:26.999Z</time></trkpt><trkpt lat="43.78862791393555" lon="6.223167084369603"><ele>496.6666666666667</ele><time>2026-04-22T10:47:27.999Z</time></trkpt><trkpt lat="43.78869451400189" lon="6.223407867721189"><ele>493.0</ele><time>2026-04-22T10:47:28.999Z</time></trkpt><trkpt lat="43.78877421932483" lon="6.223644276975274"><ele>493.0</ele><time>2026-04-22T10:47:30Z</time></trkpt><trkpt lat="43.788878679853156" lon="6.223866381185649"><ele>493.0</ele><time>2026-04-22T10:47:31Z</time></trkpt><trkpt lat="43.78899325504013" lon="6.2240862851761145"><ele>493.0</ele><time>2026-04-22T10:47:32Z</time></trkpt><trkpt lat="43.78912156963453" lon="6.224287542469142"><ele>496.33333333333337</ele><time>2026-04-22T10:47:33Z</time></trkpt><trkpt lat="43.78926818245076" lon="6.224476823206147"><ele>499.66666666666663</ele><time>2026-04-22T10:47:34Z</time></trkpt><trkpt lat="43.78943103167102" lon="6.224639041830221"><ele>503.0</ele><time>2026-04-22T10:47:35Z</time></trkpt><trkpt lat="43.78960259344937" lon="6.2247850316394"><ele>503.66666666666663</ele><time>2026-04-22T10:47:36Z</time></trkpt><trkpt lat="43.78978217112271" lon="6.2249186066253355"><ele>504.33333333333337</ele><time>2026-04-22T10:47:37Z</time></trkpt><trkpt lat="43.78996440168829" lon="6.225026661774585"><ele>505.0</ele><time>2026-04-22T10:47:38Z</time></trkpt><trkpt lat="43.79013136119788" lon="6.225112334551248"><ele>502.6666666666667</ele><time>2026-04-22T10:47:39Z</time></trkpt><trkpt lat="43.790302314262085" lon="6.225178144614052"><ele>500.33333333333337</ele><time>2026-04-22T10:47:40Z</time></trkpt><trkpt lat="43.79046124336763" lon="6.225242129504652"><ele>498.0</ele><time>2026-04-22T10:47:41Z</time></trkpt><trkpt lat="43.79061765312219" lon="6.225305469186392"><ele>498.0</ele><time>2026-04-22T10:47:42Z</time></trkpt><trkpt lat="43.79077731357733" lon="6.225373339419378"><ele>498.0</ele><time>2026-04-22T10:47:43Z</time></trkpt><trkpt lat="43.790933698506684" lon="6.2254548002996986"><ele>498.0</ele><time>2026-04-22T10:47:44Z</time></trkpt><trkpt lat="43.79109052879123" lon="6.225540417188722"><ele>500.66666666666663</ele><time>2026-04-22T10:47:45Z</time></trkpt><trkpt lat="43.79124423525037" lon="6.225654630370423"><ele>503.3333333333333</ele><time>2026-04-22T10:47:46Z</time></trkpt><trkpt lat="43.79139101737024" lon="6.225785432593944"><ele>506.0</ele><time>2026-04-22T10:47:47Z</time></trkpt><trkpt lat="43.791531571504606" lon="6.225935989001858"><ele>506.0</ele><time>2026-04-22T10:47:48Z</time></trkpt><trkpt lat="43.791661013947646" lon="6.226100971774535"><ele>506.0</ele><time>2026-04-22T10:47:49Z</time></trkpt><trkpt lat="43.791779586228756" lon="6.226292411192171"><ele>506.0</ele><time>2026-04-22T10:47:50Z</time></trkpt><trkpt lat="43.791888642050246" lon="6.226492451722118"><ele>507.3333333333333</ele><time>2026-04-22T10:47:51Z</time></trkpt><trkpt lat="43.79200494218542" lon="6.226688077170159"><ele>508.66666666666663</ele><time>2026-04-22T10:47:52Z</time></trkpt><trkpt lat="43.7921245407182" lon="6.226881214299543"><ele>510.0</ele><time>2026-04-22T10:47:53Z</time></trkpt><trkpt lat="43.79223787877878" lon="6.227084304605929"><ele>510.0</ele><time>2026-04-22T10:47:54Z</time></trkpt><trkpt lat="43.79235444149005" lon="6.2272974734363284"><ele>510.0</ele><time>2026-04-22T10:47:55Z</time></trkpt><trkpt lat="43.79247060858695" lon="6.227503655360121"><ele>510.0</ele><time>2026-04-22T10:47:56Z</time></trkpt><trkpt lat="43.792591588787666" lon="6.227707873027302"><ele>509.0</ele><time>2026-04-22T10:47:57Z</time></trkpt><trkpt lat="43.79271602923175" lon="6.227913002779979"><ele>508.0</ele><time>2026-04-22T10:47:58Z</time></trkpt><trkpt lat="43.79283441383621" lon="6.228116429549037"><ele>507.0</ele><time>2026-04-22T10:47:59Z</time></trkpt><trkpt lat="43.79294529953984" lon="6.228311484683858"><ele>507.0</ele><time>2026-04-22T10:48:00Z</time></trkpt><trkpt lat="43.79304771059915" lon="6.2284994083060035"><ele>507.0</ele><time>2026-04-22T10:48:01Z</time></trkpt><trkpt lat="43.793139213099266" lon="6.228687877337778"><ele>507.0</ele><time>2026-04-22T10:48:02Z</time></trkpt><trkpt lat="43.7932165663872" lon="6.228874530709338"><ele>508.0</ele><time>2026-04-22T10:48:03Z</time></trkpt><trkpt lat="43.79329637996325" lon="6.229052334921385"><ele>509.0</ele><time>2026-04-22T10:48:04Z</time></trkpt><trkpt lat="43.793382002182696" lon="6.229206024387891"><ele>510.0</ele><time>2026-04-22T10:48:05Z</time></trkpt><trkpt lat="43.79330875098473" lon="6.229500425375422"><ele>510.0</ele><time>2026-04-22T10:48:06Z</time></trkpt><trkpt lat="43.79328539919098" lon="6.229731933308447"><ele>510.0</ele><time>2026-04-22T10:48:07Z</time></trkpt><trkpt lat="43.79325472527009" lon="6.2299611005979845"><ele>510.0</ele><time>2026-04-22T10:48:08Z</time></trkpt><trkpt lat="43.79323566019649" lon="6.230197786505457"><ele>508.66666666666663</ele><time>2026-04-22T10:48:09Z</time></trkpt><trkpt lat="43.79322048511804" lon="6.230434242438474"><ele>507.3333333333333</ele><time>2026-04-22T10:48:10Z</time></trkpt><trkpt lat="43.79321345975764" lon="6.230661734658906"><ele>506.0</ele><time>2026-04-22T10:48:11Z</time></trkpt><trkpt lat="43.79320834415601" lon="6.230884785824269"><ele>502.66666666666663</ele><time>2026-04-22T10:48:12Z</time></trkpt><trkpt lat="43.79321699102721" lon="6.231104353046756"><ele>499.33333333333337</ele><time>2026-04-22T10:48:13Z</time></trkpt><trkpt lat="43.79325103922119" lon="6.231310063141664"><ele>496.0</ele><time>2026-04-22T10:48:14Z</time></trkpt><trkpt lat="43.793310908335535" lon="6.231508528379119"><ele>494.6666666666667</ele><time>2026-04-22T10:48:15Z</time></trkpt><trkpt lat="43.79338361490857" lon="6.231699603063548"><ele>493.33333333333337</ele><time>2026-04-22T10:48:16Z</time></trkpt><trkpt lat="43.793482595167774" lon="6.231866216482601"><ele>492.0</ele><time>2026-04-22T10:48:17Z</time></trkpt><trkpt lat="43.79360868922065" lon="6.23199467126715"><ele>491.33333333333337</ele><time>2026-04-22T10:48:18Z</time></trkpt><trkpt lat="43.79375558421742" lon="6.2320840356131"><ele>490.6666666666667</ele><time>2026-04-22T10:48:19Z</time></trkpt><trkpt lat="43.79391889921132" lon="6.23213667291774"><ele>490.0</ele><time>2026-04-22T10:48:20Z</time></trkpt><trkpt lat="43.794081432871266" lon="6.232168864011249"><ele>490.0</ele><time>2026-04-22T10:48:21.001Z</time></trkpt><trkpt lat="43.79425794363967" lon="6.232188016313093"><ele>490.0</ele><time>2026-04-22T10:48:22.001Z</time></trkpt><trkpt lat="43.79443692427753" lon="6.232194551773889"><ele>490.0</ele><time>2026-04-22T10:48:23.001Z</time></trkpt><trkpt lat="43.79460894835684" lon="6.232208020516676"><ele>491.33333333333337</ele><time>2026-04-22T10:48:24.001Z</time></trkpt><trkpt lat="43.794772092778196" lon="6.232234313716309"><ele>492.66666666666663</ele><time>2026-04-22T10:48:25.001Z</time></trkpt><trkpt lat="43.794921654390976" lon="6.232271827473842"><ele>494.0</ele><time>2026-04-22T10:48:26.001Z</time></trkpt><trkpt lat="43.79506324475989" lon="6.232309708023971"><ele>491.5</ele><time>2026-04-22T10:48:27.001Z</time></trkpt><trkpt lat="43.7952012863587" lon="6.232358281181193"><ele>489.0</ele><time>2026-04-22T10:48:28.001Z</time></trkpt><trkpt lat="43.79534089184636" lon="6.232443622825236"><ele>486.5</ele><time>2026-04-22T10:48:29.001Z</time></trkpt><trkpt lat="43.79546698268814" lon="6.232560173415342"><ele>484.0</ele><time>2026-04-22T10:48:30.001Z</time></trkpt><trkpt lat="43.79557637427647" lon="6.2327122032543345"><ele>484.0</ele><time>2026-04-22T10:48:31.001Z</time></trkpt><trkpt lat="43.79567144318659" lon="6.232890149388677"><ele>484.0</ele><time>2026-04-22T10:48:32.001Z</time></trkpt><trkpt lat="43.79575736199952" lon="6.233081584023991"><ele>484.0</ele><time>2026-04-22T10:48:33.001Z</time></trkpt><trkpt lat="43.795824810365346" lon="6.233280645022305"><ele>486.33333333333337</ele><time>2026-04-22T10:48:34.001Z</time></trkpt><trkpt lat="43.795869072784136" lon="6.233495631591716"><ele>488.66666666666663</ele><time>2026-04-22T10:48:35.001Z</time></trkpt><trkpt lat="43.795898541098026" lon="6.233722137325997"><ele>491.0</ele><time>2026-04-22T10:48:36.001Z</time></trkpt><trkpt lat="43.79588801247604" lon="6.233958665820391"><ele>492.3333333333333</ele><time>2026-04-22T10:48:37.001Z</time></trkpt><trkpt lat="43.79585750709799" lon="6.23419049863486"><ele>493.66666666666663</ele><time>2026-04-22T10:48:38.001Z</time></trkpt><trkpt lat="43.79580448900609" lon="6.234413436546729"><ele>495.0</ele><time>2026-04-22T10:48:39.001Z</time></trkpt><trkpt lat="43.795732219278484" lon="6.2346335680250276"><ele>493.0</ele><time>2026-04-22T10:48:40.001Z</time></trkpt><trkpt lat="43.79566167929903" lon="6.23485586260047"><ele>491.0</ele><time>2026-04-22T10:48:41.001Z</time></trkpt><trkpt lat="43.79559882523859" lon="6.235087478406657"><ele>489.0</ele><time>2026-04-22T10:48:42.001Z</time></trkpt><trkpt lat="43.79553665276959" lon="6.235320144655977"><ele>489.0</ele><time>2026-04-22T10:48:43.001Z</time></trkpt><trkpt lat="43.79547381427617" lon="6.23555210801634"><ele>489.0</ele><time>2026-04-22T10:48:44.001Z</time></trkpt><trkpt lat="43.79541924067216" lon="6.235784926040527"><ele>489.0</ele><time>2026-04-22T10:48:45.001Z</time></trkpt><trkpt lat="43.79538182841772" lon="6.23602159670871"><ele>488.66666666666663</ele><time>2026-04-22T10:48:46.001Z</time></trkpt><trkpt lat="43.79538700394546" lon="6.236253871123491"><ele>488.3333333333333</ele><time>2026-04-22T10:48:47.001Z</time></trkpt><trkpt lat="43.79542868290696" lon="6.23648152873539"><ele>488.0</ele><time>2026-04-22T10:48:48.001Z</time></trkpt><trkpt lat="43.79550519029273" lon="6.23669813040519"><ele>488.0</ele><time>2026-04-22T10:48:49.001Z</time></trkpt><trkpt lat="43.79561493568523" lon="6.236878217778876"><ele>488.0</ele><time>2026-04-22T10:48:50.001Z</time></trkpt><trkpt lat="43.79575688282764" lon="6.237012278319074"><ele>488.0</ele><time>2026-04-22T10:48:51.001Z</time></trkpt><trkpt lat="43.795918204659415" lon="6.237092441955648"><ele>486.66666666666663</ele><time>2026-04-22T10:48:52.001Z</time></trkpt><trkpt lat="43.796092988136834" lon="6.237134684287065"><ele>485.33333333333337</ele><time>2026-04-22T10:48:53.001Z</time></trkpt><trkpt lat="43.796272588784156" lon="6.237173893418714"><ele>484.0</ele><time>2026-04-22T10:48:54.001Z</time></trkpt><trkpt lat="43.79643937247386" lon="6.237222097268224"><ele>484.0</ele><time>2026-04-22T10:48:55.001Z</time></trkpt><trkpt lat="43.796596903914526" lon="6.237280169884371"><ele>484.0</ele><time>2026-04-22T10:48:56.001Z</time></trkpt><trkpt lat="43.79675035640572" lon="6.237349680422948"><ele>484.0</ele><time>2026-04-22T10:48:57.001Z</time></trkpt><trkpt lat="43.79689273425881" lon="6.237453217421795"><ele>481.6666666666667</ele><time>2026-04-22T10:48:58.001Z</time></trkpt><trkpt lat="43.7970105675121" lon="6.237586148718789"><ele>479.33333333333337</ele><time>2026-04-22T10:48:59.001Z</time></trkpt><trkpt lat="43.79709509545688" lon="6.237754946389534"><ele>477.0</ele><time>2026-04-22T10:49:00.001Z</time></trkpt><trkpt lat="43.79715207930273" lon="6.23794928529797"><ele>479.33333333333337</ele><time>2026-04-22T10:49:01.001Z</time></trkpt><trkpt lat="43.797176389849625" lon="6.238158633020409"><ele>481.6666666666667</ele><time>2026-04-22T10:49:02.001Z</time></trkpt><trkpt lat="43.79717883086717" lon="6.238375551702987"><ele>484.0</ele><time>2026-04-22T10:49:03.001Z</time></trkpt><trkpt lat="43.797158177357936" lon="6.238607627664191"><ele>484.0</ele><time>2026-04-22T10:49:04.001Z</time></trkpt><trkpt lat="43.79711762199473" lon="6.2388466182538025"><ele>484.0</ele><time>2026-04-22T10:49:05.001Z</time></trkpt><trkpt lat="43.79708116379738" lon="6.239080700527594"><ele>484.0</ele><time>2026-04-22T10:49:06.001Z</time></trkpt><trkpt lat="43.79705565931597" lon="6.2393283172836735"><ele>484.6666666666667</ele><time>2026-04-22T10:49:07.001Z</time></trkpt><trkpt lat="43.7970385135424" lon="6.2395812352173845"><ele>485.33333333333337</ele><time>2026-04-22T10:49:08.001Z</time></trkpt><trkpt lat="43.7970167683188" lon="6.239832357593494"><ele>486.0</ele><time>2026-04-22T10:49:09.001Z</time></trkpt><trkpt lat="43.79699123140353" lon="6.240090218710056"><ele>486.0</ele><time>2026-04-22T10:49:10.001Z</time></trkpt><trkpt lat="43.796967191923876" lon="6.240338218322661"><ele>486.0</ele><time>2026-04-22T10:49:11.001Z</time></trkpt><trkpt lat="43.79693608837119" lon="6.240588938257942"><ele>486.0</ele><time>2026-04-22T10:49:12.001Z</time></trkpt><trkpt lat="43.79690576177003" lon="6.240839002078895"><ele>486.66666666666663</ele><time>2026-04-22T10:49:13.001Z</time></trkpt><trkpt lat="43.79688033118622" lon="6.2410828602020825"><ele>487.3333333333333</ele><time>2026-04-22T10:49:14.001Z</time></trkpt><trkpt lat="43.79685322723606" lon="6.241311273687536"><ele>488.0</ele><time>2026-04-22T10:49:15.001Z</time></trkpt><trkpt lat="43.79682926765125" lon="6.241527954164505"><ele>490.75</ele><time>2026-04-22T10:49:16.001Z</time></trkpt><trkpt lat="43.79681169218527" lon="6.241727372825183"><ele>493.5</ele><time>2026-04-22T10:49:17.001Z</time></trkpt><trkpt lat="43.79680372134232" lon="6.241920903051545"><ele>496.25</ele><time>2026-04-22T10:49:18.001Z</time></trkpt><trkpt lat="43.796806176360704" lon="6.2421288135041175"><ele>499.0</ele><time>2026-04-22T10:49:19.001Z</time></trkpt><trkpt lat="43.79682309337931" lon="6.242345075639817"><ele>496.33333333333337</ele><time>2026-04-22T10:49:20.001Z</time></trkpt><trkpt lat="43.796855013573435" lon="6.242555465509682"><ele>493.66666666666663</ele><time>2026-04-22T10:49:21.001Z</time></trkpt><trkpt lat="43.79689938110877" lon="6.242764798864972"><ele>491.0</ele><time>2026-04-22T10:49:22.001Z</time></trkpt><trkpt lat="43.796950445875574" lon="6.24297155788046"><ele>492.66666666666663</ele><time>2026-04-22T10:49:23.001Z</time></trkpt><trkpt lat="43.79701574441856" lon="6.243171131807444"><ele>494.33333333333337</ele><time>2026-04-22T10:49:24Z</time></trkpt><trkpt lat="43.79709800296228" lon="6.24336886510019"><ele>496.0</ele><time>2026-04-22T10:49:25Z</time></trkpt><trkpt lat="43.79720232979444" lon="6.243545597954407"><ele>496.0</ele><time>2026-04-22T10:49:26Z</time></trkpt><trkpt lat="43.79731612791076" lon="6.243713809731373"><ele>496.0</ele><time>2026-04-22T10:49:27Z</time></trkpt><trkpt lat="43.79743925233875" lon="6.243882059900569"><ele>496.0</ele><time>2026-04-22T10:49:28Z</time></trkpt><trkpt lat="43.79757048577684" lon="6.244028823220863"><ele>495.0</ele><time>2026-04-22T10:49:29Z</time></trkpt><trkpt lat="43.79771694080057" lon="6.244161232933572"><ele>494.0</ele><time>2026-04-22T10:49:30Z</time></trkpt><trkpt lat="43.79787663269887" lon="6.244272289778018"><ele>493.0</ele><time>2026-04-22T10:49:31Z</time></trkpt><trkpt lat="43.7980356988806" lon="6.2443850447234315"><ele>493.0</ele><time>2026-04-22T10:49:32Z</time></trkpt><trkpt lat="43.79818718374668" lon="6.244511398656638"><ele>493.0</ele><time>2026-04-22T10:49:33Z</time></trkpt><trkpt lat="43.798347103312" lon="6.244645731834988"><ele>493.0</ele><time>2026-04-22T10:49:34Z</time></trkpt><trkpt lat="43.798509603573386" lon="6.244775321757229"><ele>492.6666666666667</ele><time>2026-04-22T10:49:35Z</time></trkpt><trkpt lat="43.798662132372435" lon="6.244899308248086"><ele>492.33333333333337</ele><time>2026-04-22T10:49:36Z</time></trkpt><trkpt lat="43.798808327512965" lon="6.245018978444199"><ele>492.0</ele><time>2026-04-22T10:49:37Z</time></trkpt><trkpt lat="43.79895013836972" lon="6.245145533925636"><ele>492.0</ele><time>2026-04-22T10:49:38Z</time></trkpt><trkpt lat="43.79909765721736" lon="6.245288301424935"><ele>492.0</ele><time>2026-04-22T10:49:39Z</time></trkpt><trkpt lat="43.799241737323854" lon="6.245432405654488"><ele>492.0</ele><time>2026-04-22T10:49:40Z</time></trkpt><trkpt lat="43.79937468015441" lon="6.245586801307727"><ele>490.33333333333337</ele><time>2026-04-22T10:49:41Z</time></trkpt><trkpt lat="43.79950806287326" lon="6.245752500139113"><ele>488.6666666666667</ele><time>2026-04-22T10:49:42Z</time></trkpt><trkpt lat="43.79963378408788" lon="6.245929409464996"><ele>487.0</ele><time>2026-04-22T10:49:43Z</time></trkpt><trkpt lat="43.799759453439684" lon="6.24610249665831"><ele>487.0</ele><time>2026-04-22T10:49:44Z</time></trkpt><trkpt lat="43.79988262924009" lon="6.24628553450441"><ele>487.0</ele><time>2026-04-22T10:49:45Z</time></trkpt><trkpt lat="43.79998264958246" lon="6.246488640809742"><ele>487.0</ele><time>2026-04-22T10:49:46Z</time></trkpt><trkpt lat="43.80009749571188" lon="6.246668156373583"><ele>484.33333333333337</ele><time>2026-04-22T10:49:47Z</time></trkpt><trkpt lat="43.800188122495356" lon="6.246872950514834"><ele>481.66666666666663</ele><time>2026-04-22T10:49:48Z</time></trkpt><trkpt lat="43.800270500249646" lon="6.24707268584961"><ele>479.0</ele><time>2026-04-22T10:49:49Z</time></trkpt><trkpt lat="43.80035667334368" lon="6.247271331217265"><ele>481.3333333333333</ele><time>2026-04-22T10:49:50Z</time></trkpt><trkpt lat="43.80044216019637" lon="6.247473130498108"><ele>483.66666666666663</ele><time>2026-04-22T10:49:51Z</time></trkpt><trkpt lat="43.80053417952029" lon="6.247670856234164"><ele>486.0</ele><time>2026-04-22T10:49:52Z</time></trkpt><trkpt lat="43.800617055998" lon="6.24786025259766"><ele>486.0</ele><time>2026-04-22T10:49:53Z</time></trkpt><trkpt lat="43.80069846885302" lon="6.248054501253752"><ele>486.0</ele><time>2026-04-22T10:49:54Z</time></trkpt><trkpt lat="43.80077814862796" lon="6.248238437035458"><ele>486.0</ele><time>2026-04-22T10:49:55Z</time></trkpt><trkpt lat="43.80085367620699" lon="6.2484126811680305"><ele>484.20000000000005</ele><time>2026-04-22T10:49:56Z</time></trkpt><trkpt lat="43.80092025765249" lon="6.2485669446386005"><ele>482.40000000000003</ele><time>2026-04-22T10:49:57Z</time></trkpt><trkpt lat="43.800970635292636" lon="6.248708388212404"><ele>480.6</ele><time>2026-04-22T10:49:58Z</time></trkpt><trkpt lat="43.80102627421127" lon="6.248828715933209"><ele>478.8</ele><time>2026-04-22T10:49:59Z</time></trkpt><trkpt lat="43.80108473894986" lon="6.248933198711453"><ele>477.0</ele><time>2026-04-22T10:50:00Z</time></trkpt><trkpt lat="43.80115374616272" lon="6.249021640716142"><ele>477.0</ele><time>2026-04-22T10:50:01Z</time></trkpt><trkpt lat="43.801221947626665" lon="6.2490897826037095"><ele>477.0</ele><time>2026-04-22T10:50:02Z</time></trkpt><trkpt lat="43.801288061083454" lon="6.249138323171091"><ele>477.0</ele><time>2026-04-22T10:50:03Z</time></trkpt><trkpt lat="43.80134703847838" lon="6.24918096185497"><ele>477.0</ele><time>2026-04-22T10:50:04Z</time></trkpt><trkpt lat="43.80140294414445" lon="6.249221473657861"><ele>477.0</ele><time>2026-04-22T10:50:05Z</time></trkpt><trkpt lat="43.801493642576894" lon="6.249291993932475"><ele>477.0</ele><time>2026-04-22T10:50:07Z</time></trkpt><trkpt lat="43.80156608632838" lon="6.24933977293919"><ele>477.0</ele><time>2026-04-22T10:50:09.001Z</time></trkpt><trkpt lat="43.801641432651905" lon="6.249396816269239"><ele>477.0</ele><time>2026-04-22T10:50:11.001Z</time></trkpt><trkpt lat="43.80172423208884" lon="6.249467056893606"><ele>477.0</ele><time>2026-04-22T10:50:13.001Z</time></trkpt><trkpt lat="43.80180679487079" lon="6.2495199549076474"><ele>477.0</ele><time>2026-04-22T10:50:15.001Z</time></trkpt><trkpt lat="43.80186817956874" lon="6.249567918055232"><ele>477.0</ele><time>2026-04-22T10:50:17.001Z</time></trkpt><trkpt lat="43.80192894914159" lon="6.2496113477245245"><ele>477.0</ele><time>2026-04-22T10:50:19.001Z</time></trkpt><trkpt lat="43.80200176882371" lon="6.2496729399287725"><ele>477.40000000000003</ele><time>2026-04-22T10:50:22.001Z</time></trkpt><trkpt lat="43.80206243213882" lon="6.249710657528491"><ele>477.80000000000007</ele><time>2026-04-22T10:50:24.001Z</time></trkpt><trkpt lat="43.80214758798285" lon="6.24974416225114"><ele>478.2</ele><time>2026-04-22T10:50:25.001Z</time></trkpt><trkpt lat="43.802210471347465" lon="6.2498451332003855"><ele>478.6</ele><time>2026-04-22T10:50:28.001Z</time></trkpt><trkpt lat="43.80230093658775" lon="6.249902426517572"><ele>479.0</ele><time>2026-04-22T10:50:31.001Z</time></trkpt><trkpt lat="43.80228400173966" lon="6.249737270863454"><ele>479.0</ele><time>2026-04-22T10:50:35.001Z</time></trkpt><trkpt lat="43.80222418672657" lon="6.249682214645306"><ele>479.0</ele><time>2026-04-22T10:50:42.001Z</time></trkpt><trkpt lat="43.80218504850729" lon="6.249751877657491"><ele>479.0</ele><time>2026-04-22T10:52:14.001Z</time></trkpt><trkpt lat="43.80211193265165" lon="6.249760960105155"><ele>479.0</ele><time>2026-04-22T10:52:22.001Z</time></trkpt><trkpt lat="43.8020422436359" lon="6.249749798637356"><ele>479.0</ele><time>2026-04-22T10:52:35.001Z</time></trkpt><trkpt lat="43.80198133458498" lon="6.249692960582261"><ele>479.0</ele><time>2026-04-22T10:52:51.001Z</time></trkpt><trkpt lat="43.80193735502599" lon="6.249629819174659"><ele>479.0</ele><time>2026-04-22T10:53:05.001Z</time></trkpt><trkpt lat="43.80186251792259" lon="6.24965710966291"><ele>478.99999999999994</ele><time>2026-04-22T10:55:56Z</time></trkpt><trkpt lat="43.801846262122275" lon="6.249493489709387"><ele>479.0</ele><time>2026-04-22T10:58:00.996Z</time></trkpt><trkpt lat="43.80188357747046" lon="6.249567243461249"><ele>479.0</ele><time>2026-04-22T10:58:26.998Z</time></trkpt><trkpt lat="43.80191844821592" lon="6.249648527945673"><ele>479.0</ele><time>2026-04-22T10:58:42.999Z</time></trkpt><trkpt lat="43.80198626774372" lon="6.249657339496902"><ele>478.99999999999994</ele><time>2026-04-22T10:58:52.999Z</time></trkpt><trkpt lat="43.80203447080862" lon="6.24972819592368"><ele>479.0</ele><time>2026-04-22T10:59:03.999Z</time></trkpt><trkpt lat="43.80210711131609" lon="6.249756443440629"><ele>478.99999999999994</ele><time>2026-04-22T10:59:34Z</time></trkpt><trkpt lat="43.80217423157322" lon="6.249771920707843"><ele>479.0</ele><time>2026-04-22T10:59:39Z</time></trkpt><trkpt lat="43.80215516624792" lon="6.249855535301421"><ele>479.0</ele><time>2026-04-22T10:59:48.001Z</time></trkpt><trkpt lat="43.8022501009039" lon="6.249867644936079"><ele>479.0</ele><time>2026-04-22T10:59:58.998Z</time></trkpt><trkpt lat="43.80232277804681" lon="6.249799915788328"><ele>478.99999999999994</ele><time>2026-04-22T11:00:02.999Z</time></trkpt><trkpt lat="43.802257755829714" lon="6.249779460676794"><ele>479.0</ele><time>2026-04-22T11:00:08.999Z</time></trkpt><trkpt lat="43.80234185947806" lon="6.249805410635362"><ele>479.0</ele><time>2026-04-22T11:00:27Z</time></trkpt><trkpt lat="43.802422060516804" lon="6.249787760275217"><ele>479.0</ele><time>2026-04-22T11:00:36Z</time></trkpt><trkpt lat="43.802486498254794" lon="6.2498207090306295"><ele>479.0</ele><time>2026-04-22T11:00:43Z</time></trkpt><trkpt lat="43.80254928835523" lon="6.24987921614547"><ele>479.0</ele><time>2026-04-22T11:00:48.001Z</time></trkpt><trkpt lat="43.80259332790533" lon="6.2497947232589945"><ele>479.0</ele><time>2026-04-22T11:00:53.001Z</time></trkpt><trkpt lat="43.80265155585347" lon="6.249757135935697"><ele>479.0</ele><time>2026-04-22T11:00:57.001Z</time></trkpt><trkpt lat="43.802594280583186" lon="6.24971720529119"><ele>479.0</ele><time>2026-04-22T11:02:04.001Z</time></trkpt><trkpt lat="43.80252864110775" lon="6.249721420656551"><ele>479.0</ele><time>2026-04-22T11:02:14.001Z</time></trkpt><trkpt lat="43.802462187336914" lon="6.249743739977476"><ele>479.0</ele><time>2026-04-22T11:02:20.001Z</time></trkpt><trkpt lat="43.802399283962934" lon="6.249762072431293"><ele>479.0</ele><time>2026-04-22T11:02:26.001Z</time></trkpt><trkpt lat="43.80233544297478" lon="6.249753893089027"><ele>479.0</ele><time>2026-04-22T11:03:09.002Z</time></trkpt><trkpt lat="43.80227490333656" lon="6.249712175378459"><ele>479.0</ele><time>2026-04-22T11:03:16.002Z</time></trkpt><trkpt lat="43.80220589449896" lon="6.249696178037293"><ele>479.0</ele><time>2026-04-22T11:13:12.001Z</time></trkpt><trkpt lat="43.80227848457874" lon="6.249743751049974"><ele>479.0</ele><time>2026-04-22T11:16:46Z</time></trkpt><trkpt lat="43.802339504013304" lon="6.249857603001613"><ele>481.0</ele><time>2026-04-22T11:16:48Z</time></trkpt><trkpt lat="43.80241697586474" lon="6.2499478961878046"><ele>483.0</ele><time>2026-04-22T11:16:50Z</time></trkpt><trkpt lat="43.80251088691281" lon="6.250010138960198"><ele>485.0</ele><time>2026-04-22T11:16:51Z</time></trkpt><trkpt lat="43.802611217178345" lon="6.250031737508929"><ele>487.0</ele><time>2026-04-22T11:16:52Z</time></trkpt><trkpt lat="43.80271991563662" lon="6.250012733342114"><ele>489.0</ele><time>2026-04-22T11:16:53Z</time></trkpt><trkpt lat="43.802805665801245" lon="6.249948757511979"><ele>491.0</ele><time>2026-04-22T11:16:54Z</time></trkpt><trkpt lat="43.80286843577878" lon="6.249879488293186"><ele>493.0</ele><time>2026-04-22T11:16:55Z</time></trkpt><trkpt lat="43.80291658306627" lon="6.249795490270463"><ele>495.0</ele><time>2026-04-22T11:16:56Z</time></trkpt><trkpt lat="43.802956399065486" lon="6.249704879868255"><ele>497.0</ele><time>2026-04-22T11:16:57Z</time></trkpt><trkpt lat="43.80298712428791" lon="6.24958765165455"><ele>499.0</ele><time>2026-04-22T11:16:58Z</time></trkpt><trkpt lat="43.80302127973432" lon="6.249459001790748"><ele>501.0</ele><time>2026-04-22T11:16:59Z</time></trkpt><trkpt lat="43.803050152492816" lon="6.24932149407755"><ele>501.0</ele><time>2026-04-22T11:17:00Z</time></trkpt><trkpt lat="43.80306103495148" lon="6.2491804230782435"><ele>501.0</ele><time>2026-04-22T11:17:01Z</time></trkpt><trkpt lat="43.80307163232333" lon="6.249037733991757"><ele>501.0</ele><time>2026-04-22T11:17:02Z</time></trkpt><trkpt lat="43.803107666632144" lon="6.248896530024746"><ele>501.0</ele><time>2026-04-22T11:17:03Z</time></trkpt><trkpt lat="43.8031939175506" lon="6.248762402289332"><ele>501.0</ele><time>2026-04-22T11:17:04Z</time></trkpt><trkpt lat="43.80329031815482" lon="6.248607910314221"><ele>497.66666666666663</ele><time>2026-04-22T11:17:05Z</time></trkpt><trkpt lat="43.803413311899575" lon="6.24842048106797"><ele>494.3333333333333</ele><time>2026-04-22T11:17:06Z</time></trkpt><trkpt lat="43.80351176547067" lon="6.2482361068221675"><ele>491.0</ele><time>2026-04-22T11:17:07Z</time></trkpt><trkpt lat="43.80364241017699" lon="6.248060938305769"><ele>490.3333333333333</ele><time>2026-04-22T11:17:08Z</time></trkpt><trkpt lat="43.80377978395762" lon="6.247825559565606"><ele>489.66666666666663</ele><time>2026-04-22T11:17:09Z</time></trkpt><trkpt lat="43.80388652221071" lon="6.247560677716336"><ele>489.0</ele><time>2026-04-22T11:17:10Z</time></trkpt><trkpt lat="43.803963874668376" lon="6.24730836536692"><ele>488.0</ele><time>2026-04-22T11:17:11Z</time></trkpt><trkpt lat="43.80403375088599" lon="6.247050512822203"><ele>487.0</ele><time>2026-04-22T11:17:12Z</time></trkpt><trkpt lat="43.804066894180835" lon="6.246752643642671"><ele>486.0</ele><time>2026-04-22T11:17:13Z</time></trkpt><trkpt lat="43.80407942549105" lon="6.2464487727719495"><ele>486.0</ele><time>2026-04-22T11:17:14Z</time></trkpt><trkpt lat="43.8041076917676" lon="6.246160465607945"><ele>486.0</ele><time>2026-04-22T11:17:15Z</time></trkpt><trkpt lat="43.804145457351886" lon="6.245874249525569"><ele>486.0</ele><time>2026-04-22T11:17:16Z</time></trkpt><trkpt lat="43.80417428547383" lon="6.245540036016013"><ele>486.0</ele><time>2026-04-22T11:17:17Z</time></trkpt><trkpt lat="43.80420440677008" lon="6.245231186689576"><ele>486.0</ele><time>2026-04-22T11:17:18Z</time></trkpt><trkpt lat="43.80423606312419" lon="6.244929498459733"><ele>486.0</ele><time>2026-04-22T11:17:19Z</time></trkpt><trkpt lat="43.80425731289802" lon="6.244634119164438"><ele>487.66666666666663</ele><time>2026-04-22T11:17:20Z</time></trkpt><trkpt lat="43.80427250614642" lon="6.244339271794441"><ele>489.3333333333333</ele><time>2026-04-22T11:17:21Z</time></trkpt><trkpt lat="43.804253126135464" lon="6.244048306106551"><ele>491.0</ele><time>2026-04-22T11:17:22Z</time></trkpt><trkpt lat="43.804216700991134" lon="6.243734119108724"><ele>493.0</ele><time>2026-04-22T11:17:23Z</time></trkpt><trkpt lat="43.80419934911585" lon="6.243360540895017"><ele>495.0</ele><time>2026-04-22T11:17:24Z</time></trkpt><trkpt lat="43.804210482727484" lon="6.243018346728406"><ele>495.66666666666663</ele><time>2026-04-22T11:17:25Z</time></trkpt><trkpt lat="43.804223382236884" lon="6.2427831991091205"><ele>496.3333333333333</ele><time>2026-04-22T11:17:26Z</time></trkpt><trkpt lat="43.80422695327656" lon="6.242489411581601"><ele>497.0</ele><time>2026-04-22T11:17:27Z</time></trkpt><trkpt lat="43.80425121566516" lon="6.24221549333211"><ele>498.0</ele><time>2026-04-22T11:17:28Z</time></trkpt><trkpt lat="43.804281404466686" lon="6.241838157617277"><ele>499.0</ele><time>2026-04-22T11:17:29Z</time></trkpt><trkpt lat="43.8042947403425" lon="6.241509139497171"><ele>502.5</ele><time>2026-04-22T11:17:30Z</time></trkpt><trkpt lat="43.80428552559894" lon="6.241186160584988"><ele>506.0</ele><time>2026-04-22T11:17:31Z</time></trkpt><trkpt lat="43.80425309813193" lon="6.240870502632024"><ele>509.5</ele><time>2026-04-22T11:17:32Z</time></trkpt><trkpt lat="43.8042072304334" lon="6.240554842351052"><ele>513.0</ele><time>2026-04-22T11:17:33Z</time></trkpt><trkpt lat="43.804158343256624" lon="6.240246392423988"><ele>513.0</ele><time>2026-04-22T11:17:34Z</time></trkpt><trkpt lat="43.80411697244587" lon="6.239940005218309"><ele>513.0</ele><time>2026-04-22T11:17:35Z</time></trkpt><trkpt lat="43.804097686106545" lon="6.2396344430027595"><ele>513.0</ele><time>2026-04-22T11:17:36Z</time></trkpt><trkpt lat="43.80412096950023" lon="6.239325131943797"><ele>512.0</ele><time>2026-04-22T11:17:37Z</time></trkpt><trkpt lat="43.80413171148436" lon="6.238996991173747"><ele>511.0</ele><time>2026-04-22T11:17:38Z</time></trkpt><trkpt lat="43.8041803231021" lon="6.2386738676498235"><ele>511.0</ele><time>2026-04-22T11:17:39Z</time></trkpt><trkpt lat="43.8042382180357" lon="6.238359923490382"><ele>511.0</ele><time>2026-04-22T11:17:40Z</time></trkpt><trkpt lat="43.80428553772899" lon="6.238063974593088"><ele>513.0</ele><time>2026-04-22T11:17:41Z</time></trkpt><trkpt lat="43.80431606456772" lon="6.237779933320498"><ele>515.0</ele><time>2026-04-22T11:17:42Z</time></trkpt><trkpt lat="43.804301446822585" lon="6.237479661985505"><ele>517.0</ele><time>2026-04-22T11:17:43Z</time></trkpt><trkpt lat="43.80424986711584" lon="6.237184306260536"><ele>522.0</ele><time>2026-04-22T11:17:44Z</time></trkpt><trkpt lat="43.80416409539518" lon="6.2368907660315696"><ele>527.0</ele><time>2026-04-22T11:17:45Z</time></trkpt><trkpt lat="43.80404175001555" lon="6.236612178158247"><ele>532.5</ele><time>2026-04-22T11:17:46Z</time></trkpt><trkpt lat="43.80389233672347" lon="6.23634152183361"><ele>538.0</ele><time>2026-04-22T11:17:47Z</time></trkpt><trkpt lat="43.80376253759843" lon="6.236059140847524"><ele>538.0</ele><time>2026-04-22T11:17:48Z</time></trkpt><trkpt lat="43.803620763872594" lon="6.235774467416265"><ele>538.0</ele><time>2026-04-22T11:17:49Z</time></trkpt><trkpt lat="43.80348514052484" lon="6.2355440443080505"><ele>536.0</ele><time>2026-04-22T11:17:50Z</time></trkpt><trkpt lat="43.80337175110754" lon="6.235311276056467"><ele>534.0</ele><time>2026-04-22T11:17:51Z</time></trkpt><trkpt lat="43.803304506610196" lon="6.235060158380614"><ele>532.0</ele><time>2026-04-22T11:17:52Z</time></trkpt><trkpt lat="43.803271129588836" lon="6.234796463132058"><ele>532.0</ele><time>2026-04-22T11:17:53Z</time></trkpt><trkpt lat="43.80328822402479" lon="6.234535066684867"><ele>532.0</ele><time>2026-04-22T11:17:54Z</time></trkpt><trkpt lat="43.8033428018951" lon="6.2343008396746304"><ele>532.0</ele><time>2026-04-22T11:17:55Z</time></trkpt><trkpt lat="43.80343728373392" lon="6.234103141502881"><ele>529.3333333333334</ele><time>2026-04-22T11:17:56Z</time></trkpt><trkpt lat="43.80355821152037" lon="6.233915787307177"><ele>526.6666666666666</ele><time>2026-04-22T11:17:57Z</time></trkpt><trkpt lat="43.80372236846783" lon="6.233786067088273"><ele>524.0</ele><time>2026-04-22T11:17:58Z</time></trkpt><trkpt lat="43.80391041025275" lon="6.233713059174715"><ele>524.0</ele><time>2026-04-22T11:17:59.001Z</time></trkpt><trkpt lat="43.80410033420685" lon="6.233731157816387"><ele>524.0</ele><time>2026-04-22T11:18:00.001Z</time></trkpt><trkpt lat="43.80429021943011" lon="6.233782668761433"><ele>524.0</ele><time>2026-04-22T11:18:01.001Z</time></trkpt><trkpt lat="43.804498098537046" lon="6.233856391296748"><ele>525.0</ele><time>2026-04-22T11:18:02.001Z</time></trkpt><trkpt lat="43.804705964851635" lon="6.233950469004119"><ele>526.0</ele><time>2026-04-22T11:18:03.001Z</time></trkpt><trkpt lat="43.80492690364308" lon="6.234023034294883"><ele>527.0</ele><time>2026-04-22T11:18:04.001Z</time></trkpt><trkpt lat="43.80515637519853" lon="6.234090335763125"><ele>525.0</ele><time>2026-04-22T11:18:05.001Z</time></trkpt><trkpt lat="43.80539682092736" lon="6.234169378165913"><ele>523.0</ele><time>2026-04-22T11:18:06.001Z</time></trkpt><trkpt lat="43.805648240722405" lon="6.234257324742469"><ele>523.0</ele><time>2026-04-22T11:18:07.001Z</time></trkpt><trkpt lat="43.80589371670398" lon="6.234343516908988"><ele>523.0</ele><time>2026-04-22T11:18:08.001Z</time></trkpt><trkpt lat="43.80614700815149" lon="6.2344267274301"><ele>522.5</ele><time>2026-04-22T11:18:09.001Z</time></trkpt><trkpt lat="43.806393690786486" lon="6.234514812721273"><ele>522.0</ele><time>2026-04-22T11:18:10.001Z</time></trkpt><trkpt lat="43.80664230116092" lon="6.234599685464926"><ele>520.0</ele><time>2026-04-22T11:18:11.001Z</time></trkpt><trkpt lat="43.80689036416058" lon="6.234685827626447"><ele>518.0</ele><time>2026-04-22T11:18:12.001Z</time></trkpt><trkpt lat="43.80713039722111" lon="6.234771229411346"><ele>519.6666666666666</ele><time>2026-04-22T11:18:13.001Z</time></trkpt><trkpt lat="43.80735462189738" lon="6.234837041883867"><ele>521.3333333333334</ele><time>2026-04-22T11:18:14.001Z</time></trkpt><trkpt lat="43.80757219403647" lon="6.234859081976541"><ele>523.0</ele><time>2026-04-22T11:18:15.001Z</time></trkpt><trkpt lat="43.80779245693988" lon="6.234829704467769"><ele>520.6666666666667</ele><time>2026-04-22T11:18:16.001Z</time></trkpt><trkpt lat="43.80800064726587" lon="6.234733082711589"><ele>518.3333333333334</ele><time>2026-04-22T11:18:17.001Z</time></trkpt><trkpt lat="43.80819066250656" lon="6.2345847634495355"><ele>516.0</ele><time>2026-04-22T11:18:18.001Z</time></trkpt><trkpt lat="43.80834789192948" lon="6.2343834965967195"><ele>516.0</ele><time>2026-04-22T11:18:19.001Z</time></trkpt><trkpt lat="43.80847517129682" lon="6.234147491704282"><ele>516.0</ele><time>2026-04-22T11:18:20.001Z</time></trkpt><trkpt lat="43.8085696633646" lon="6.233880321585006"><ele>516.0</ele><time>2026-04-22T11:18:21.001Z</time></trkpt><trkpt lat="43.808643588358365" lon="6.2335994848188125"><ele>515.6666666666666</ele><time>2026-04-22T11:18:22.001Z</time></trkpt><trkpt lat="43.80866881078885" lon="6.2332979540843265"><ele>515.3333333333333</ele><time>2026-04-22T11:18:23.001Z</time></trkpt><trkpt lat="43.80864562561165" lon="6.232988414081474"><ele>515.0</ele><time>2026-04-22T11:18:24.001Z</time></trkpt><trkpt lat="43.808582737883576" lon="6.23267878497717"><ele>509.0</ele><time>2026-04-22T11:18:25.001Z</time></trkpt><trkpt lat="43.80848289601155" lon="6.232365743032195"><ele>503.0</ele><time>2026-04-22T11:18:26.001Z</time></trkpt><trkpt lat="43.808399285317456" lon="6.232040737534029"><ele>502.5</ele><time>2026-04-22T11:18:27.001Z</time></trkpt><trkpt lat="43.808312294251" lon="6.231715895073699"><ele>502.0</ele><time>2026-04-22T11:18:28.001Z</time></trkpt><trkpt lat="43.80820289851148" lon="6.23142574576806"><ele>500.5</ele><time>2026-04-22T11:18:29.001Z</time></trkpt><trkpt lat="43.80815817919873" lon="6.231119325384206"><ele>499.0</ele><time>2026-04-22T11:18:30.001Z</time></trkpt><trkpt lat="43.80814017359803" lon="6.2308035334329315"><ele>495.5</ele><time>2026-04-22T11:18:31.001Z</time></trkpt><trkpt lat="43.8081593424042" lon="6.230485519451432"><ele>492.0</ele><time>2026-04-22T11:18:32.001Z</time></trkpt><trkpt lat="43.808204960013484" lon="6.230187020521839"><ele>492.0</ele><time>2026-04-22T11:18:33.001Z</time></trkpt><trkpt lat="43.808268273158774" lon="6.229889777662254"><ele>492.0</ele><time>2026-04-22T11:18:34.001Z</time></trkpt><trkpt lat="43.80836382863917" lon="6.229602846111313"><ele>491.5</ele><time>2026-04-22T11:18:35.001Z</time></trkpt><trkpt lat="43.80849579535413" lon="6.2293345157251725"><ele>491.0</ele><time>2026-04-22T11:18:36.001Z</time></trkpt><trkpt lat="43.808648617634304" lon="6.229071610494476"><ele>487.5</ele><time>2026-04-22T11:18:37.001Z</time></trkpt><trkpt lat="43.80882862032414" lon="6.228842954523711"><ele>484.0</ele><time>2026-04-22T11:18:38.001Z</time></trkpt><trkpt lat="43.80902774813256" lon="6.228655598737724"><ele>484.0</ele><time>2026-04-22T11:18:39.001Z</time></trkpt><trkpt lat="43.809236761504316" lon="6.228508752649292"><ele>484.0</ele><time>2026-04-22T11:18:40.001Z</time></trkpt><trkpt lat="43.809457744406146" lon="6.228391871568165"><ele>485.5</ele><time>2026-04-22T11:18:41.001Z</time></trkpt><trkpt lat="43.809688383114775" lon="6.228298858650792"><ele>487.0</ele><time>2026-04-22T11:18:42.001Z</time></trkpt><trkpt lat="43.80993062767463" lon="6.22820654842334"><ele>487.0</ele><time>2026-04-22T11:18:43.001Z</time></trkpt><trkpt lat="43.810183183100854" lon="6.22811101276898"><ele>487.0</ele><time>2026-04-22T11:18:44.001Z</time></trkpt><trkpt lat="43.81044011991877" lon="6.228002268088863"><ele>487.0</ele><time>2026-04-22T11:18:45.001Z</time></trkpt><trkpt lat="43.810705914040376" lon="6.227882495043236"><ele>487.0</ele><time>2026-04-22T11:18:46.001Z</time></trkpt><trkpt lat="43.81097528430447" lon="6.2277645334955745"><ele>490.0</ele><time>2026-04-22T11:18:47.001Z</time></trkpt><trkpt lat="43.81123505900617" lon="6.227652496194892"><ele>493.0</ele><time>2026-04-22T11:18:47.999Z</time></trkpt><trkpt lat="43.8114947994912" lon="6.22754141478592"><ele>493.0</ele><time>2026-04-22T11:18:48.999Z</time></trkpt><trkpt lat="43.8117573070574" lon="6.227424972334898"><ele>493.0</ele><time>2026-04-22T11:18:49.999Z</time></trkpt><trkpt lat="43.8120258234337" lon="6.227291884190563"><ele>490.5</ele><time>2026-04-22T11:18:50.999Z</time></trkpt><trkpt lat="43.81228520696002" lon="6.227149836289479"><ele>488.0</ele><time>2026-04-22T11:18:51.999Z</time></trkpt><trkpt lat="43.812530120692" lon="6.226986413883229"><ele>489.0</ele><time>2026-04-22T11:18:53Z</time></trkpt><trkpt lat="43.812747192413774" lon="6.226811184922195"><ele>490.0</ele><time>2026-04-22T11:18:54Z</time></trkpt><trkpt lat="43.8129397412818" lon="6.226632787501373"><ele>490.0</ele><time>2026-04-22T11:18:55Z</time></trkpt><trkpt lat="43.813133644396764" lon="6.22649047183047"><ele>490.0</ele><time>2026-04-22T11:18:56Z</time></trkpt><trkpt lat="43.81339691694103" lon="6.226367206642954"><ele>490.5</ele><time>2026-04-22T11:18:57Z</time></trkpt><trkpt lat="43.8136562823892" lon="6.226314531469929"><ele>491.0</ele><time>2026-04-22T11:18:58Z</time></trkpt><trkpt lat="43.813932515123945" lon="6.226378964321659"><ele>491.0</ele><time>2026-04-22T11:18:59Z</time></trkpt><trkpt lat="43.81422078893495" lon="6.226396501406715"><ele>491.0</ele><time>2026-04-22T11:19:00Z</time></trkpt><trkpt lat="43.81445297952343" lon="6.226433156124023"><ele>491.5</ele><time>2026-04-22T11:19:01Z</time></trkpt><trkpt lat="43.81471603492891" lon="6.226453819542082"><ele>492.0</ele><time>2026-04-22T11:19:02Z</time></trkpt><trkpt lat="43.81497774098336" lon="6.226461736297317"><ele>491.5</ele><time>2026-04-22T11:19:03Z</time></trkpt><trkpt lat="43.81524504965382" lon="6.226473123528845"><ele>491.0</ele><time>2026-04-22T11:19:04Z</time></trkpt><trkpt lat="43.81551782978431" lon="6.226486667345969"><ele>496.0</ele><time>2026-04-22T11:19:05Z</time></trkpt><trkpt lat="43.81579322250393" lon="6.2264967087349"><ele>501.0</ele><time>2026-04-22T11:19:06Z</time></trkpt><trkpt lat="43.81607519299541" lon="6.226509265982643"><ele>501.0</ele><time>2026-04-22T11:19:07Z</time></trkpt><trkpt lat="43.816350916679795" lon="6.226520088288763"><ele>501.0</ele><time>2026-04-22T11:19:08Z</time></trkpt><trkpt lat="43.81661461534501" lon="6.226533602061381"><ele>502.5</ele><time>2026-04-22T11:19:09Z</time></trkpt><trkpt lat="43.81689994265696" lon="6.226527348731943"><ele>504.0</ele><time>2026-04-22T11:19:10Z</time></trkpt><trkpt lat="43.817091955452554" lon="6.226554016910342"><ele>504.0</ele><time>2026-04-22T11:19:11Z</time></trkpt><trkpt lat="43.81728748561034" lon="6.226571446211215"><ele>504.0</ele><time>2026-04-22T11:19:12Z</time></trkpt><trkpt lat="43.81750491737474" lon="6.226591710854727"><ele>504.0</ele><time>2026-04-22T11:19:13Z</time></trkpt><trkpt lat="43.81772486264015" lon="6.226608510514939"><ele>504.66666666666663</ele><time>2026-04-22T11:19:14Z</time></trkpt><trkpt lat="43.817943397528566" lon="6.226612248476601"><ele>505.3333333333333</ele><time>2026-04-22T11:19:15Z</time></trkpt><trkpt lat="43.818166448107505" lon="6.226618606188874"><ele>506.0</ele><time>2026-04-22T11:19:16Z</time></trkpt><trkpt lat="43.81838574576856" lon="6.226637013791962"><ele>506.66666666666663</ele><time>2026-04-22T11:19:17Z</time></trkpt><trkpt lat="43.8186061463507" lon="6.226658289557639"><ele>507.33333333333337</ele><time>2026-04-22T11:19:18Z</time></trkpt><trkpt lat="43.818829299345246" lon="6.226683923078746"><ele>508.0</ele><time>2026-04-22T11:19:19Z</time></trkpt><trkpt lat="43.819056597608416" lon="6.226708036978819"><ele>508.0</ele><time>2026-04-22T11:19:20Z</time></trkpt><trkpt lat="43.8192836727238" lon="6.226731734737005"><ele>508.0</ele><time>2026-04-22T11:19:21Z</time></trkpt><trkpt lat="43.81951389148161" lon="6.226739255187785"><ele>509.0</ele><time>2026-04-22T11:19:22Z</time></trkpt><trkpt lat="43.819737044576456" lon="6.226710376445266"><ele>510.0</ele><time>2026-04-22T11:19:23Z</time></trkpt><trkpt lat="43.819973327472475" lon="6.226656371392244"><ele>508.5</ele><time>2026-04-22T11:19:24Z</time></trkpt><trkpt lat="43.82021011222129" lon="6.226561333310031"><ele>507.0</ele><time>2026-04-22T11:19:25Z</time></trkpt><trkpt lat="43.820443338509854" lon="6.226433782578186"><ele>507.0</ele><time>2026-04-22T11:19:26Z</time></trkpt><trkpt lat="43.82067625833433" lon="6.226277902968311"><ele>507.0</ele><time>2026-04-22T11:19:27Z</time></trkpt><trkpt lat="43.82090976020882" lon="6.22612073882201"><ele>512.0</ele><time>2026-04-22T11:19:28Z</time></trkpt><trkpt lat="43.8211355466391" lon="6.225962859434065"><ele>517.0</ele><time>2026-04-22T11:19:29Z</time></trkpt><trkpt lat="43.82136951419263" lon="6.225811796843928"><ele>517.0</ele><time>2026-04-22T11:19:30Z</time></trkpt><trkpt lat="43.82160251709413" lon="6.225667176700551"><ele>517.0</ele><time>2026-04-22T11:19:31Z</time></trkpt><trkpt lat="43.82184070819798" lon="6.225520595324682"><ele>514.0</ele><time>2026-04-22T11:19:32Z</time></trkpt><trkpt lat="43.822083179216825" lon="6.22536514123149"><ele>511.0</ele><time>2026-04-22T11:19:33Z</time></trkpt><trkpt lat="43.822322100169934" lon="6.22521274969732"><ele>511.0</ele><time>2026-04-22T11:19:34Z</time></trkpt><trkpt lat="43.82255092182069" lon="6.225064787433987"><ele>511.0</ele><time>2026-04-22T11:19:35Z</time></trkpt><trkpt lat="43.82278857101126" lon="6.22491539734827"><ele>509.5</ele><time>2026-04-22T11:19:36Z</time></trkpt><trkpt lat="43.82300777978391" lon="6.224780846172001"><ele>508.0</ele><time>2026-04-22T11:19:37Z</time></trkpt><trkpt lat="43.823232484851445" lon="6.2246520343407665"><ele>508.0</ele><time>2026-04-22T11:19:38Z</time></trkpt><trkpt lat="43.8234488499756" lon="6.224523876928337"><ele>508.0</ele><time>2026-04-22T11:19:39Z</time></trkpt><trkpt lat="43.82367779086207" lon="6.224451811238745"><ele>509.0</ele><time>2026-04-22T11:19:40Z</time></trkpt><trkpt lat="43.82390678203762" lon="6.224415239024266"><ele>510.0</ele><time>2026-04-22T11:19:41Z</time></trkpt><trkpt lat="43.824121908630424" lon="6.224446001828382"><ele>511.0</ele><time>2026-04-22T11:19:42Z</time></trkpt><trkpt lat="43.824337700217555" lon="6.224523231959491"><ele>512.0</ele><time>2026-04-22T11:19:43Z</time></trkpt><trkpt lat="43.82455291280586" lon="6.224594591230867"><ele>513.0</ele><time>2026-04-22T11:19:44Z</time></trkpt><trkpt lat="43.82476978428963" lon="6.224677960489383"><ele>514.0</ele><time>2026-04-22T11:19:45Z</time></trkpt><trkpt lat="43.82500192176913" lon="6.224714897105013"><ele>515.0</ele><time>2026-04-22T11:19:46Z</time></trkpt><trkpt lat="43.82524678980752" lon="6.224730147801112"><ele>516.0</ele><time>2026-04-22T11:19:47Z</time></trkpt><trkpt lat="43.825488546861735" lon="6.224734399415614"><ele>516.0</ele><time>2026-04-22T11:19:48Z</time></trkpt><trkpt lat="43.82572758584461" lon="6.224743221678704"><ele>516.0</ele><time>2026-04-22T11:19:49Z</time></trkpt><trkpt lat="43.8259658637531" lon="6.224746123137135"><ele>518.5</ele><time>2026-04-22T11:19:50Z</time></trkpt><trkpt lat="43.82620162633608" lon="6.224758046113397"><ele>521.0</ele><time>2026-04-22T11:19:51Z</time></trkpt><trkpt lat="43.82642289113134" lon="6.22475575884796"><ele>521.0</ele><time>2026-04-22T11:19:52Z</time></trkpt><trkpt lat="43.82662766509417" lon="6.224738560295285"><ele>521.0</ele><time>2026-04-22T11:19:53Z</time></trkpt><trkpt lat="43.82682148170735" lon="6.224713163481964"><ele>521.0</ele><time>2026-04-22T11:19:54Z</time></trkpt><trkpt lat="43.82700081266373" lon="6.224673301691545"><ele>522.25</ele><time>2026-04-22T11:19:55Z</time></trkpt><trkpt lat="43.82716791774127" lon="6.224649181154042"><ele>523.5</ele><time>2026-04-22T11:19:56Z</time></trkpt><trkpt lat="43.82731217709852" lon="6.224629012672837"><ele>524.75</ele><time>2026-04-22T11:19:57.001Z</time></trkpt><trkpt lat="43.8274429015758" lon="6.224615822528151"><ele>526.0</ele><time>2026-04-22T11:19:58.001Z</time></trkpt><trkpt lat="43.82754833267075" lon="6.224608724344304"><ele>526.0</ele><time>2026-04-22T11:19:59.001Z</time></trkpt><trkpt lat="43.82762196705366" lon="6.224617063073648"><ele>526.0</ele><time>2026-04-22T11:20:00.001Z</time></trkpt><trkpt lat="43.827703558653205" lon="6.224637568713876"><ele>526.0</ele><time>2026-04-22T11:20:01.001Z</time></trkpt><trkpt lat="43.82779876186297" lon="6.224683106318574"><ele>526.0</ele><time>2026-04-22T11:20:03.001Z</time></trkpt><trkpt lat="43.8279210836827" lon="6.2247503355948135"><ele>526.0</ele><time>2026-04-22T11:20:05.001Z</time></trkpt><trkpt lat="43.827990924689864" lon="6.224796990466355"><ele>525.6</ele><time>2026-04-22T11:20:06.001Z</time></trkpt><trkpt lat="43.82806889648992" lon="6.224805785424247"><ele>525.2</ele><time>2026-04-22T11:20:07.001Z</time></trkpt><trkpt lat="43.82815918230465" lon="6.224772528089269"><ele>524.8</ele><time>2026-04-22T11:20:08.001Z</time></trkpt><trkpt lat="43.82824749724356" lon="6.224724604583488"><ele>524.4</ele><time>2026-04-22T11:20:09.001Z</time></trkpt><trkpt lat="43.828348585119514" lon="6.224703746954114"><ele>524.0</ele><time>2026-04-22T11:20:10.001Z</time></trkpt><trkpt lat="43.828478063394755" lon="6.224712744873614"><ele>523.3333333333333</ele><time>2026-04-22T11:20:11.001Z</time></trkpt><trkpt lat="43.82862217994704" lon="6.224739954136763"><ele>522.6666666666666</ele><time>2026-04-22T11:20:12.001Z</time></trkpt><trkpt lat="43.828780900593955" lon="6.2247742259023635"><ele>522.0</ele><time>2026-04-22T11:20:13.001Z</time></trkpt><trkpt lat="43.828952104656196" lon="6.224816490202747"><ele>522.0</ele><time>2026-04-22T11:20:14.001Z</time></trkpt><trkpt lat="43.82912913658518" lon="6.224849295469033"><ele>522.0</ele><time>2026-04-22T11:20:15.001Z</time></trkpt><trkpt lat="43.82932792057206" lon="6.224865670007293"><ele>522.0</ele><time>2026-04-22T11:20:16.001Z</time></trkpt><trkpt lat="43.829540723497395" lon="6.224910995663589"><ele>521.6666666666666</ele><time>2026-04-22T11:20:17.001Z</time></trkpt><trkpt lat="43.829756394032096" lon="6.224944828130164"><ele>521.3333333333333</ele><time>2026-04-22T11:20:18.001Z</time></trkpt><trkpt lat="43.82998080442852" lon="6.224972577367316"><ele>521.0</ele><time>2026-04-22T11:20:19.001Z</time></trkpt><trkpt lat="43.83018129854816" lon="6.225030971608622"><ele>523.0</ele><time>2026-04-22T11:20:20.001Z</time></trkpt><trkpt lat="43.830359909079775" lon="6.22506323571871"><ele>525.0</ele><time>2026-04-22T11:20:21.001Z</time></trkpt><trkpt lat="43.830608585707076" lon="6.225043442559106"><ele>527.0</ele><time>2026-04-22T11:20:22.001Z</time></trkpt><trkpt lat="43.83083783651806" lon="6.224982268597715"><ele>528.3333333333333</ele><time>2026-04-22T11:20:23.001Z</time></trkpt><trkpt lat="43.8310442349128" lon="6.224883707899522"><ele>529.6666666666666</ele><time>2026-04-22T11:20:24.001Z</time></trkpt><trkpt lat="43.831240246080505" lon="6.22474619072862"><ele>531.0</ele><time>2026-04-22T11:20:25.001Z</time></trkpt><trkpt lat="43.83141456319717" lon="6.224556896849939"><ele>531.0</ele><time>2026-04-22T11:20:26.001Z</time></trkpt><trkpt lat="43.831576771109134" lon="6.224317829296063"><ele>531.0</ele><time>2026-04-22T11:20:27.001Z</time></trkpt><trkpt lat="43.83173146597472" lon="6.22406545133904"><ele>534.0</ele><time>2026-04-22T11:20:28.001Z</time></trkpt><trkpt lat="43.83188331232047" lon="6.223809077439588"><ele>537.0</ele><time>2026-04-22T11:20:29.001Z</time></trkpt><trkpt lat="43.83205190032825" lon="6.223547364724704"><ele>537.0</ele><time>2026-04-22T11:20:30.001Z</time></trkpt><trkpt lat="43.83221379432925" lon="6.2232820212039925"><ele>537.0</ele><time>2026-04-22T11:20:31.001Z</time></trkpt><trkpt lat="43.83237331731804" lon="6.223011500660486"><ele>537.0</ele><time>2026-04-22T11:20:32.001Z</time></trkpt><trkpt lat="43.83253082944613" lon="6.22274815350436"><ele>537.0</ele><time>2026-04-22T11:20:33.001Z</time></trkpt><trkpt lat="43.832679345564436" lon="6.222510301908585"><ele>535.5</ele><time>2026-04-22T11:20:34.001Z</time></trkpt><trkpt lat="43.83282454153754" lon="6.222272909288754"><ele>534.0</ele><time>2026-04-22T11:20:35.001Z</time></trkpt><trkpt lat="43.83298019165305" lon="6.222036503046524"><ele>534.0</ele><time>2026-04-22T11:20:36.001Z</time></trkpt><trkpt lat="43.833140263079166" lon="6.221809924411978"><ele>534.0</ele><time>2026-04-22T11:20:37.001Z</time></trkpt><trkpt lat="43.83330029988599" lon="6.221604019657093"><ele>534.0</ele><time>2026-04-22T11:20:38.001Z</time></trkpt><trkpt lat="43.83346352218912" lon="6.221428376460734"><ele>535.0</ele><time>2026-04-22T11:20:39.001Z</time></trkpt><trkpt lat="43.83364789150692" lon="6.22129042531008"><ele>536.0</ele><time>2026-04-22T11:20:40.001Z</time></trkpt><trkpt lat="43.833845386866635" lon="6.221186730035356"><ele>537.0</ele><time>2026-04-22T11:20:41.001Z</time></trkpt><trkpt lat="43.83403612108141" lon="6.221085941796468"><ele>537.0</ele><time>2026-04-22T11:20:42.001Z</time></trkpt><trkpt lat="43.83418629269993" lon="6.220985900641872"><ele>537.0</ele><time>2026-04-22T11:20:43.001Z</time></trkpt><trkpt lat="43.83431049475839" lon="6.220892840313649"><ele>537.0</ele><time>2026-04-22T11:20:44.001Z</time></trkpt><trkpt lat="43.83442765611131" lon="6.220825490216799"><ele>537.0</ele><time>2026-04-22T11:20:45.001Z</time></trkpt><trkpt lat="43.83453920686166" lon="6.2208119977844225"><ele>540.0</ele><time>2026-04-22T11:20:46.001Z</time></trkpt><trkpt lat="43.83462562422695" lon="6.220879760529167"><ele>543.0</ele><time>2026-04-22T11:20:47.001Z</time></trkpt><trkpt lat="43.83466842161002" lon="6.221001209220891"><ele>546.0</ele><time>2026-04-22T11:20:48.001Z</time></trkpt><trkpt lat="43.834653369541684" lon="6.221112740243387"><ele>549.0</ele><time>2026-04-22T11:20:49.001Z</time></trkpt><trkpt lat="43.83460273669805" lon="6.22122392129327"><ele>552.0</ele><time>2026-04-22T11:20:50.001Z</time></trkpt><trkpt lat="43.83450071463005" lon="6.22129377941958"><ele>552.0</ele><time>2026-04-22T11:20:51.001Z</time></trkpt><trkpt lat="43.834412671367325" lon="6.2214074376504875"><ele>552.0</ele><time>2026-04-22T11:20:52.001Z</time></trkpt><trkpt lat="43.83430618010321" lon="6.221549040750451"><ele>552.0</ele><time>2026-04-22T11:20:53.001Z</time></trkpt><trkpt lat="43.834190964278264" lon="6.221695369011376"><ele>552.0</ele><time>2026-04-22T11:20:54Z</time></trkpt><trkpt lat="43.834089299651914" lon="6.2218499919359695"><ele>551.5</ele><time>2026-04-22T11:20:55Z</time></trkpt><trkpt lat="43.833996200361" lon="6.221985478979294"><ele>551.0</ele><time>2026-04-22T11:20:56Z</time></trkpt><trkpt lat="43.83394686040609" lon="6.222124665749981"><ele>550.5</ele><time>2026-04-22T11:20:57Z</time></trkpt><trkpt lat="43.83394443813723" lon="6.222272806608237"><ele>550.0</ele><time>2026-04-22T11:20:58Z</time></trkpt><trkpt lat="43.834009101817614" lon="6.222385474420536"><ele>550.0</ele><time>2026-04-22T11:20:59Z</time></trkpt><trkpt lat="43.83412036525485" lon="6.2224103603870615"><ele>550.0</ele><time>2026-04-22T11:21:00Z</time></trkpt><trkpt lat="43.834233246262066" lon="6.222348436356169"><ele>550.0</ele><time>2026-04-22T11:21:01Z</time></trkpt><trkpt lat="43.83432736871807" lon="6.222218457007246"><ele>550.0</ele><time>2026-04-22T11:21:02Z</time></trkpt><trkpt lat="43.834419101731" lon="6.222064019782884"><ele>552.6666666666667</ele><time>2026-04-22T11:21:03Z</time></trkpt><trkpt lat="43.8345552566474" lon="6.221992829517141"><ele>555.3333333333334</ele><time>2026-04-22T11:21:04Z</time></trkpt><trkpt lat="43.834693461564896" lon="6.22193785921474"><ele>558.0</ele><time>2026-04-22T11:21:05Z</time></trkpt><trkpt lat="43.83485724604981" lon="6.221909044521942"><ele>558.0</ele><time>2026-04-22T11:21:06Z</time></trkpt><trkpt lat="43.83498318907851" lon="6.221829216791502"><ele>558.0</ele><time>2026-04-22T11:21:07Z</time></trkpt><trkpt lat="43.83507697124974" lon="6.22171105233005"><ele>558.0</ele><time>2026-04-22T11:21:08Z</time></trkpt><trkpt lat="43.83511640897887" lon="6.221525273790715"><ele>558.0</ele><time>2026-04-22T11:21:09Z</time></trkpt><trkpt lat="43.8351460018364" lon="6.22135493824045"><ele>559.75</ele><time>2026-04-22T11:21:10Z</time></trkpt><trkpt lat="43.83522078904774" lon="6.22120670712831"><ele>561.5</ele><time>2026-04-22T11:21:11Z</time></trkpt><trkpt lat="43.83533589625367" lon="6.221053195096651"><ele>563.25</ele><time>2026-04-22T11:21:12Z</time></trkpt><trkpt lat="43.83545918425879" lon="6.220946446242072"><ele>565.0</ele><time>2026-04-22T11:21:13Z</time></trkpt><trkpt lat="43.83560061879813" lon="6.220889028174186"><ele>565.0</ele><time>2026-04-22T11:21:14Z</time></trkpt><trkpt lat="43.83576317307684" lon="6.220922505444965"><ele>565.0</ele><time>2026-04-22T11:21:15Z</time></trkpt><trkpt lat="43.8359345824666" lon="6.220891108744402"><ele>565.0</ele><time>2026-04-22T11:21:16Z</time></trkpt><trkpt lat="43.83610748120187" lon="6.220813297681162"><ele>567.3333333333334</ele><time>2026-04-22T11:21:17Z</time></trkpt><trkpt lat="43.836275829556264" lon="6.220720507860467"><ele>569.6666666666666</ele><time>2026-04-22T11:21:18Z</time></trkpt><trkpt lat="43.83643966127824" lon="6.220692754751169"><ele>572.0</ele><time>2026-04-22T11:21:19Z</time></trkpt><trkpt lat="43.836610815288985" lon="6.220752671573869"><ele>572.0</ele><time>2026-04-22T11:21:20Z</time></trkpt><trkpt lat="43.83679369633966" lon="6.22080433621415"><ele>572.0</ele><time>2026-04-22T11:21:21Z</time></trkpt><trkpt lat="43.83696990897093" lon="6.22086820999259"><ele>572.0</ele><time>2026-04-22T11:21:22Z</time></trkpt><trkpt lat="43.837136662362504" lon="6.220921880244133"><ele>573.0</ele><time>2026-04-22T11:21:23Z</time></trkpt><trkpt lat="43.83728585544069" lon="6.220973004404167"><ele>574.0</ele><time>2026-04-22T11:21:24Z</time></trkpt><trkpt lat="43.83743911848421" lon="6.221029695471757"><ele>575.0</ele><time>2026-04-22T11:21:25Z</time></trkpt><trkpt lat="43.837587985894935" lon="6.221122486008043"><ele>576.25</ele><time>2026-04-22T11:21:26Z</time></trkpt><trkpt lat="43.83772952124473" lon="6.221219977234738"><ele>577.5</ele><time>2026-04-22T11:21:27Z</time></trkpt><trkpt lat="43.83784889478859" lon="6.2213099634715325"><ele>578.75</ele><time>2026-04-22T11:21:28Z</time></trkpt><trkpt lat="43.837928373766196" lon="6.221405828296617"><ele>580.0</ele><time>2026-04-22T11:21:29Z</time></trkpt><trkpt lat="43.83802391991283" lon="6.221557864304192"><ele>582.0</ele><time>2026-04-22T11:21:30Z</time></trkpt><trkpt lat="43.83808530879345" lon="6.2217161275351796"><ele>584.0</ele><time>2026-04-22T11:21:31Z</time></trkpt><trkpt lat="43.83816699050198" lon="6.221822706437865"><ele>586.0</ele><time>2026-04-22T11:21:32Z</time></trkpt><trkpt lat="43.838290980554454" lon="6.221848013248342"><ele>588.0</ele><time>2026-04-22T11:21:33Z</time></trkpt><trkpt lat="43.838406393740094" lon="6.221791166336934"><ele>587.4</ele><time>2026-04-22T11:21:34Z</time></trkpt><trkpt lat="43.83849346954159" lon="6.221671240259768"><ele>586.8</ele><time>2026-04-22T11:21:35Z</time></trkpt><trkpt lat="43.83854173055072" lon="6.221533168575417"><ele>586.2</ele><time>2026-04-22T11:21:36Z</time></trkpt><trkpt lat="43.8385849987425" lon="6.221432869780867"><ele>585.6</ele><time>2026-04-22T11:21:37Z</time></trkpt><trkpt lat="43.83862382429156" lon="6.2213546869135925"><ele>585.0</ele><time>2026-04-22T11:21:38Z</time></trkpt><trkpt lat="43.83867864612049" lon="6.221293160286338"><ele>585.0</ele><time>2026-04-22T11:21:39Z</time></trkpt><trkpt lat="43.83875589404444" lon="6.221263512571817"><ele>585.0</ele><time>2026-04-22T11:21:40Z</time></trkpt><trkpt lat="43.83883779669394" lon="6.221249540237708"><ele>585.0</ele><time>2026-04-22T11:21:41Z</time></trkpt><trkpt lat="43.838921872884455" lon="6.221254236239402"><ele>585.0</ele><time>2026-04-22T11:21:42Z</time></trkpt><trkpt lat="43.83900499460349" lon="6.221279986402172"><ele>585.0</ele><time>2026-04-22T11:21:43Z</time></trkpt><trkpt lat="43.83908296750037" lon="6.221337218370435"><ele>585.0</ele><time>2026-04-22T11:21:44Z</time></trkpt><trkpt lat="43.839149735209936" lon="6.221419096266824"><ele>586.0</ele><time>2026-04-22T11:21:45Z</time></trkpt><trkpt lat="43.839210930570445" lon="6.2215085170804745"><ele>587.0</ele><time>2026-04-22T11:21:46Z</time></trkpt><trkpt lat="43.83926984752705" lon="6.221597220687418"><ele>588.0</ele><time>2026-04-22T11:21:47Z</time></trkpt><trkpt lat="43.83932765261873" lon="6.221692870073008"><ele>589.0</ele><time>2026-04-22T11:21:48Z</time></trkpt><trkpt lat="43.83939203439322" lon="6.221786863570381"><ele>590.0</ele><time>2026-04-22T11:21:49Z</time></trkpt><trkpt lat="43.839459943898035" lon="6.221860302509597"><ele>591.0</ele><time>2026-04-22T11:21:50.001Z</time></trkpt><trkpt lat="43.83952995684506" lon="6.22191776183618"><ele>591.0</ele><time>2026-04-22T11:21:51.001Z</time></trkpt><trkpt lat="43.8396074600298" lon="6.22196549074139"><ele>591.0</ele><time>2026-04-22T11:21:52.001Z</time></trkpt><trkpt lat="43.83969713281236" lon="6.222000068787508"><ele>591.0</ele><time>2026-04-22T11:21:53.001Z</time></trkpt><trkpt lat="43.83979076401651" lon="6.222019501933218"><ele>591.0</ele><time>2026-04-22T11:21:54.001Z</time></trkpt><trkpt lat="43.839895594129295" lon="6.222008646978828"><ele>591.0</ele><time>2026-04-22T11:21:55.001Z</time></trkpt><trkpt lat="43.839997821446815" lon="6.222003112268372"><ele>591.0</ele><time>2026-04-22T11:21:56.001Z</time></trkpt><trkpt lat="43.840097084545626" lon="6.221991279007087"><ele>591.0</ele><time>2026-04-22T11:21:57.001Z</time></trkpt><trkpt lat="43.840206788673136" lon="6.221964840796946"><ele>591.0</ele><time>2026-04-22T11:21:58.001Z</time></trkpt><trkpt lat="43.840344340232654" lon="6.221939797623631"><ele>591.0</ele><time>2026-04-22T11:21:59.001Z</time></trkpt><trkpt lat="43.84049017555387" lon="6.221851410788442"><ele>594.3333333333334</ele><time>2026-04-22T11:22:00.001Z</time></trkpt><trkpt lat="43.840639947458456" lon="6.221751219824166"><ele>597.6666666666667</ele><time>2026-04-22T11:22:01.001Z</time></trkpt><trkpt lat="43.84078173559598" lon="6.221637971868622"><ele>601.0</ele><time>2026-04-22T11:22:02.001Z</time></trkpt><trkpt lat="43.84090513149128" lon="6.221537897273741"><ele>600.4</ele><time>2026-04-22T11:22:03.001Z</time></trkpt><trkpt lat="43.84101061022219" lon="6.221448774935009"><ele>599.8</ele><time>2026-04-22T11:22:04.001Z</time></trkpt><trkpt lat="43.84111326828732" lon="6.221396507274125"><ele>599.1999999999999</ele><time>2026-04-22T11:22:05.001Z</time></trkpt><trkpt lat="43.84121298821733" lon="6.2213981174038935"><ele>598.6</ele><time>2026-04-22T11:22:06.001Z</time></trkpt><trkpt lat="43.84131520730341" lon="6.2214243096014465"><ele>598.0</ele><time>2026-04-22T11:22:07.001Z</time></trkpt><trkpt lat="43.84141326354451" lon="6.221482679188331"><ele>598.0</ele><time>2026-04-22T11:22:08.001Z</time></trkpt><trkpt lat="43.84151215814245" lon="6.221520566815102"><ele>598.0</ele><time>2026-04-22T11:22:09.001Z</time></trkpt><trkpt lat="43.84162312662942" lon="6.2214869616989"><ele>598.0</ele><time>2026-04-22T11:22:10.001Z</time></trkpt><trkpt lat="43.841715543419184" lon="6.221395591612665"><ele>598.0</ele><time>2026-04-22T11:22:11.001Z</time></trkpt><trkpt lat="43.84179561226744" lon="6.22127796649947"><ele>598.0</ele><time>2026-04-22T11:22:12.001Z</time></trkpt><trkpt lat="43.84189146016986" lon="6.221204979726715"><ele>600.0</ele><time>2026-04-22T11:22:13.001Z</time></trkpt><trkpt lat="43.84199785830792" lon="6.221173177320177"><ele>602.0</ele><time>2026-04-22T11:22:14.001Z</time></trkpt><trkpt lat="43.84211373180396" lon="6.22114668244329"><ele>604.0</ele><time>2026-04-22T11:22:15.001Z</time></trkpt><trkpt lat="43.842229802162194" lon="6.221106679533661"><ele>606.0</ele><time>2026-04-22T11:22:16.001Z</time></trkpt><trkpt lat="43.84234581832972" lon="6.221073140961247"><ele>606.0</ele><time>2026-04-22T11:22:17.001Z</time></trkpt><trkpt lat="43.842465682788124" lon="6.221052507666233"><ele>606.0</ele><time>2026-04-22T11:22:18.001Z</time></trkpt><trkpt lat="43.84256830181281" lon="6.22107502949387"><ele>606.0</ele><time>2026-04-22T11:22:19.001Z</time></trkpt><trkpt lat="43.842658109184974" lon="6.221116972410391"><ele>606.0</ele><time>2026-04-22T11:22:20.001Z</time></trkpt><trkpt lat="43.842738506676795" lon="6.221177366603975"><ele>606.0</ele><time>2026-04-22T11:22:21.001Z</time></trkpt><trkpt lat="43.842814078056335" lon="6.221257645360874"><ele>606.2</ele><time>2026-04-22T11:22:22.001Z</time></trkpt><trkpt lat="43.8428820523241" lon="6.221355746513777"><ele>606.4000000000001</ele><time>2026-04-22T11:22:23.001Z</time></trkpt><trkpt lat="43.842947924194455" lon="6.221457018299198"><ele>606.6</ele><time>2026-04-22T11:22:24.001Z</time></trkpt><trkpt lat="43.843010798945514" lon="6.2215464878811275"><ele>606.8000000000001</ele><time>2026-04-22T11:22:25.001Z</time></trkpt><trkpt lat="43.84308490864503" lon="6.221599148208248"><ele>607.0</ele><time>2026-04-22T11:22:26.001Z</time></trkpt><trkpt lat="43.84316448527708" lon="6.221623090197662"><ele>609.5</ele><time>2026-04-22T11:22:27.001Z</time></trkpt><trkpt lat="43.843251548383996" lon="6.221608346669077"><ele>612.0</ele><time>2026-04-22T11:22:28.001Z</time></trkpt><trkpt lat="43.84333823710729" lon="6.221603545724828"><ele>614.5</ele><time>2026-04-22T11:22:29.001Z</time></trkpt><trkpt lat="43.84341021313854" lon="6.221592810335347"><ele>617.0</ele><time>2026-04-22T11:22:30.001Z</time></trkpt><trkpt lat="43.84348348348379" lon="6.22161659758035"><ele>619.5</ele><time>2026-04-22T11:22:31.001Z</time></trkpt><trkpt lat="43.843531018690776" lon="6.221740093798194"><ele>622.0</ele><time>2026-04-22T11:22:34.001Z</time></trkpt><trkpt lat="43.8435559737297" lon="6.22185034496148"><ele>622.1666666666667</ele><time>2026-04-22T11:22:35.001Z</time></trkpt><trkpt lat="43.84357512071232" lon="6.221990329831281"><ele>622.3333333333334</ele><time>2026-04-22T11:22:36.001Z</time></trkpt><trkpt lat="43.84361107639078" lon="6.222063091615753"><ele>622.5</ele><time>2026-04-22T11:22:37.001Z</time></trkpt><trkpt lat="43.843674034724316" lon="6.222154984844042"><ele>622.6666666666666</ele><time>2026-04-22T11:22:38.001Z</time></trkpt><trkpt lat="43.8437539452168" lon="6.222229898843711"><ele>622.8333333333333</ele><time>2026-04-22T11:22:39.001Z</time></trkpt><trkpt lat="43.843837211544944" lon="6.222246127703902"><ele>623.0</ele><time>2026-04-22T11:22:40.001Z</time></trkpt><trkpt lat="43.843924868673994" lon="6.222195142083256"><ele>623.0</ele><time>2026-04-22T11:22:41.001Z</time></trkpt><trkpt lat="43.84401327455666" lon="6.222110689912286"><ele>623.0</ele><time>2026-04-22T11:22:42.001Z</time></trkpt><trkpt lat="43.84410417782985" lon="6.222048699823597"><ele>623.0</ele><time>2026-04-22T11:22:43.001Z</time></trkpt><trkpt lat="43.84420927167111" lon="6.221994282795056"><ele>623.0</ele><time>2026-04-22T11:22:44.001Z</time></trkpt><trkpt lat="43.844325364553015" lon="6.221952005458214"><ele>623.0</ele><time>2026-04-22T11:22:45.001Z</time></trkpt><trkpt lat="43.844440195854105" lon="6.221910189493331"><ele>624.3333333333333</ele><time>2026-04-22T11:22:46.001Z</time></trkpt><trkpt lat="43.84453040626704" lon="6.221886193356806"><ele>625.6666666666666</ele><time>2026-04-22T11:22:47.001Z</time></trkpt><trkpt lat="43.84459490309507" lon="6.221884798906945"><ele>627.0</ele><time>2026-04-22T11:22:48.001Z</time></trkpt><trkpt lat="43.84463155116702" lon="6.221957796592202"><ele>628.3333333333334</ele><time>2026-04-22T11:22:50.001Z</time></trkpt><trkpt lat="43.84455853192813" lon="6.222062848932062"><ele>629.6666666666667</ele><time>2026-04-22T11:22:53.001Z</time></trkpt><trkpt lat="43.84448015943428" lon="6.222093015055397"><ele>631.0</ele><time>2026-04-22T11:22:54.001Z</time></trkpt><trkpt lat="43.84440068579857" lon="6.222155047670382"><ele>631.0</ele><time>2026-04-22T11:22:55.001Z</time></trkpt><trkpt lat="43.84431506161336" lon="6.222221776889265"><ele>631.0</ele><time>2026-04-22T11:22:56.001Z</time></trkpt><trkpt lat="43.84423972083689" lon="6.222293856300904"><ele>631.0</ele><time>2026-04-22T11:22:57.001Z</time></trkpt><trkpt lat="43.84419240403877" lon="6.222375432336978"><ele>631.0</ele><time>2026-04-22T11:22:58.001Z</time></trkpt><trkpt lat="43.84419705983223" lon="6.222482490175249"><ele>631.0</ele><time>2026-04-22T11:22:59.001Z</time></trkpt><trkpt lat="43.84425611919068" lon="6.222554087779407"><ele>631.0</ele><time>2026-04-22T11:23:00Z</time></trkpt><trkpt lat="43.84435473157308" lon="6.222528301292184"><ele>631.0</ele><time>2026-04-22T11:23:01Z</time></trkpt><trkpt lat="43.84443019713964" lon="6.222443354520703"><ele>631.0</ele><time>2026-04-22T11:23:02Z</time></trkpt><trkpt lat="43.84450454417852" lon="6.222337239153641"><ele>631.0</ele><time>2026-04-22T11:23:03Z</time></trkpt><trkpt lat="43.84459003039825" lon="6.222261366386245"><ele>631.0</ele><time>2026-04-22T11:23:04Z</time></trkpt><trkpt lat="43.84469410662913" lon="6.222260759571588"><ele>631.0</ele><time>2026-04-22T11:23:05Z</time></trkpt><trkpt lat="43.84480442515055" lon="6.222219836030304"><ele>631.0</ele><time>2026-04-22T11:23:06Z</time></trkpt><trkpt lat="43.844925121806725" lon="6.22219652370831"><ele>631.0</ele><time>2026-04-22T11:23:07Z</time></trkpt><trkpt lat="43.84505008571075" lon="6.222169888648975"><ele>631.0</ele><time>2026-04-22T11:23:08Z</time></trkpt><trkpt lat="43.845163031742516" lon="6.222157099837601"><ele>631.0</ele><time>2026-04-22T11:23:09Z</time></trkpt><trkpt lat="43.84524426025986" lon="6.222156067334281"><ele>631.0</ele><time>2026-04-22T11:23:10Z</time></trkpt><trkpt lat="43.845356928834846" lon="6.222190199378974"><ele>632.0</ele><time>2026-04-22T11:23:12Z</time></trkpt><trkpt lat="43.845460278328694" lon="6.222236747658191"><ele>633.0</ele><time>2026-04-22T11:23:14Z</time></trkpt><trkpt lat="43.845555934396565" lon="6.2222737364811005"><ele>634.0</ele><time>2026-04-22T11:23:16Z</time></trkpt><trkpt lat="43.84556078342143" lon="6.222466680423364"><ele>635.0</ele><time>2026-04-22T11:23:19Z</time></trkpt><trkpt lat="43.845537641491276" lon="6.222556836802922"><ele>636.0</ele><time>2026-04-22T11:23:20Z</time></trkpt><trkpt lat="43.845525386295115" lon="6.222652810542346"><ele>639.6</ele><time>2026-04-22T11:23:21Z</time></trkpt><trkpt lat="43.845572199024524" lon="6.222810718105127"><ele>643.2</ele><time>2026-04-22T11:23:23Z</time></trkpt><trkpt lat="43.84564020139244" lon="6.222865994507229"><ele>646.8000000000001</ele><time>2026-04-22T11:23:24Z</time></trkpt><trkpt lat="43.84572366824272" lon="6.222933362201386"><ele>650.4000000000001</ele><time>2026-04-22T11:23:25Z</time></trkpt><trkpt lat="43.8458253865051" lon="6.222962993077887"><ele>654.0</ele><time>2026-04-22T11:23:26Z</time></trkpt><trkpt lat="43.84592006662183" lon="6.222995708352742"><ele>654.0</ele><time>2026-04-22T11:23:27Z</time></trkpt><trkpt lat="43.84600587501277" lon="6.223051048063377"><ele>654.0</ele><time>2026-04-22T11:23:29Z</time></trkpt><trkpt lat="43.84587521844854" lon="6.223071706274994"><ele>654.0</ele><time>2026-04-22T11:23:33Z</time></trkpt><trkpt lat="43.84581024242757" lon="6.223066721201303"><ele>654.0</ele><time>2026-04-22T11:23:34Z</time></trkpt><trkpt lat="43.84574642602681" lon="6.223070468574544"><ele>654.0</ele><time>2026-04-22T11:23:35Z</time></trkpt><trkpt lat="43.845674461327384" lon="6.223037562663904"><ele>654.0</ele><time>2026-04-22T11:23:36Z</time></trkpt><trkpt lat="43.845604789574466" lon="6.2230232761123885"><ele>654.0</ele><time>2026-04-22T11:23:37Z</time></trkpt><trkpt lat="43.84553902382193" lon="6.223028449422665"><ele>654.0</ele><time>2026-04-22T11:23:38Z</time></trkpt><trkpt lat="43.845474171916095" lon="6.223003110342499"><ele>654.0</ele><time>2026-04-22T11:23:40Z</time></trkpt><trkpt lat="43.845557002303515" lon="6.223039017283685"><ele>654.0</ele><time>2026-04-22T11:23:45Z</time></trkpt><trkpt lat="43.84564016075206" lon="6.223029752815535"><ele>654.0</ele><time>2026-04-22T11:23:49.001Z</time></trkpt><trkpt lat="43.84570737966999" lon="6.223046184168786"><ele>654.0</ele><time>2026-04-22T11:23:51.001Z</time></trkpt><trkpt lat="43.845799934265635" lon="6.223062163693399"><ele>654.0</ele><time>2026-04-22T11:23:53.001Z</time></trkpt><trkpt lat="43.845904375944386" lon="6.2230977371409955"><ele>654.0</ele><time>2026-04-22T11:23:55.001Z</time></trkpt><trkpt lat="43.845996657823584" lon="6.223068295966154"><ele>654.0</ele><time>2026-04-22T11:23:57.001Z</time></trkpt><trkpt lat="43.8459222994027" lon="6.2230499154516385"><ele>654.0</ele><time>2026-04-22T11:24:00.001Z</time></trkpt><trkpt lat="43.84579482938244" lon="6.223043457837101"><ele>654.0</ele><time>2026-04-22T11:24:02.001Z</time></trkpt><trkpt lat="43.84572905580174" lon="6.223027473363376"><ele>654.0</ele><time>2026-04-22T11:24:03.001Z</time></trkpt><trkpt lat="43.84562665206623" lon="6.223002586881062"><ele>654.0</ele><time>2026-04-22T11:24:05.001Z</time></trkpt><trkpt lat="43.845562589617515" lon="6.222992344261595"><ele>654.0</ele><time>2026-04-22T11:24:07.001Z</time></trkpt><trkpt lat="43.845504874833814" lon="6.222944355479731"><ele>654.0</ele><time>2026-04-22T11:24:13.001Z</time></trkpt><trkpt lat="43.845563598006464" lon="6.222446985121977"><ele>654.0</ele><time>2026-04-22T11:24:16.001Z</time></trkpt><trkpt lat="43.84560955514253" lon="6.222365176064817"><ele>654.0</ele><time>2026-04-22T11:24:19.001Z</time></trkpt><trkpt lat="43.84561737106542" lon="6.222270822401934"><ele>654.0</ele><time>2026-04-22T11:24:21.001Z</time></trkpt><trkpt lat="43.84556004036296" lon="6.222207178776319"><ele>654.0</ele><time>2026-04-22T11:24:41.001Z</time></trkpt><trkpt lat="43.84548144517418" lon="6.222189722926847"><ele>654.0</ele><time>2026-04-22T11:24:44.001Z</time></trkpt><trkpt lat="43.84541141486209" lon="6.22215556552713"><ele>654.0</ele><time>2026-04-22T11:24:47.001Z</time></trkpt><trkpt lat="43.84534977716685" lon="6.2221373486248455"><ele>654.0</ele><time>2026-04-22T11:24:51.001Z</time></trkpt><trkpt lat="43.84541862654586" lon="6.22217463720241"><ele>650.4000000000001</ele><time>2026-04-22T11:24:56.001Z</time></trkpt><trkpt lat="43.845325913954866" lon="6.222189600989411"><ele>646.8000000000001</ele><time>2026-04-22T11:26:26.001Z</time></trkpt><trkpt lat="43.84545561377073" lon="6.222162895362566"><ele>643.2</ele><time>2026-04-22T11:26:28.001Z</time></trkpt><trkpt lat="43.84550892167054" lon="6.222232045007894"><ele>639.6</ele><time>2026-04-22T11:27:28Z</time></trkpt><trkpt lat="43.845583448838624" lon="6.222266426716707"><ele>636.0</ele><time>2026-04-22T11:27:37Z</time></trkpt><trkpt lat="43.845664835360665" lon="6.222305521216384"><ele>636.0</ele><time>2026-04-22T11:27:46Z</time></trkpt><trkpt lat="43.84574287116574" lon="6.2222969615682855"><ele>636.0</ele><time>2026-04-22T11:28:00Z</time></trkpt><trkpt lat="43.84580851642136" lon="6.2223003890362"><ele>636.0</ele><time>2026-04-22T11:28:07.001Z</time></trkpt><trkpt lat="43.845779286264694" lon="6.222215917994353"><ele>636.0</ele><time>2026-04-22T11:28:14.001Z</time></trkpt><trkpt lat="43.84584122285767" lon="6.222199926173668"><ele>636.0</ele><time>2026-04-22T11:28:32.001Z</time></trkpt><trkpt lat="43.84591051963813" lon="6.2221212070436716"><ele>636.0</ele><time>2026-04-22T11:28:38.001Z</time></trkpt><trkpt lat="43.84599001234956" lon="6.222132420829879"><ele>636.0</ele><time>2026-04-22T11:28:41.001Z</time></trkpt><trkpt lat="43.84596272785905" lon="6.221939281701762"><ele>635.6666666666666</ele><time>2026-04-22T11:29:09.001Z</time></trkpt><trkpt lat="43.84622218514734" lon="6.221877620477569"><ele>635.3333333333333</ele><time>2026-04-22T11:29:34Z</time></trkpt><trkpt lat="43.8462834857893" lon="6.221857354270524"><ele>635.0</ele><time>2026-04-22T11:29:35Z</time></trkpt><trkpt lat="43.846423581126935" lon="6.221913892535436"><ele>635.0</ele><time>2026-04-22T11:30:30.001Z</time></trkpt><trkpt lat="43.84649537087205" lon="6.2219522952853445"><ele>635.0</ele><time>2026-04-22T11:30:32.001Z</time></trkpt><trkpt lat="43.84653797283304" lon="6.222065532609596"><ele>635.0</ele><time>2026-04-22T11:30:48.001Z</time></trkpt><trkpt lat="43.84653946709796" lon="6.222159310819448"><ele>635.0</ele><time>2026-04-22T11:30:55.001Z</time></trkpt><trkpt lat="43.846594271163696" lon="6.222247230576513"><ele>635.0</ele><time>2026-04-22T11:31:09.001Z</time></trkpt><trkpt lat="43.84656242384582" lon="6.222340871033621"><ele>635.0</ele><time>2026-04-22T11:31:15.001Z</time></trkpt><trkpt lat="43.8465853844943" lon="6.2222422092733405"><ele>634.9999999999999</ele><time>2026-04-22T11:31:43Z</time></trkpt><trkpt lat="43.846522960507585" lon="6.222199032604073"><ele>635.0</ele><time>2026-04-22T11:31:53Z</time></trkpt><trkpt lat="43.84649810367099" lon="6.2220939090509955"><ele>635.0</ele><time>2026-04-22T11:32:00Z</time></trkpt><trkpt lat="43.846459670701165" lon="6.22201708555521"><ele>635.0</ele><time>2026-04-22T11:32:47.001Z</time></trkpt><trkpt lat="43.84642845678466" lon="6.22194016220479"><ele>635.0</ele><time>2026-04-22T11:32:54.001Z</time></trkpt><trkpt lat="43.84640707231622" lon="6.221856342414935"><ele>634.9999999999999</ele><time>2026-04-22T11:33:05.001Z</time></trkpt><trkpt lat="43.84642018633624" lon="6.221768586501544"><ele>635.0</ele><time>2026-04-22T11:33:26.001Z</time></trkpt><trkpt lat="43.84637464126093" lon="6.2216677410074"><ele>635.0</ele><time>2026-04-22T11:33:48Z</time></trkpt><trkpt lat="43.84640455001149" lon="6.221571387133461"><ele>635.0</ele><time>2026-04-22T11:34:07Z</time></trkpt><trkpt lat="43.84661305892134" lon="6.221665877815494"><ele>635.0</ele><time>2026-04-22T11:34:21Z</time></trkpt><trkpt lat="43.846658773411264" lon="6.221747400470476"><ele>635.0</ele><time>2026-04-22T11:34:32Z</time></trkpt><trkpt lat="43.84661035095392" lon="6.221827778292869"><ele>635.0</ele><time>2026-04-22T11:34:39Z</time></trkpt></trkseg><trkseg><trkpt lat="43.84541393556347" lon="6.2221988281742675"><ele>636.0</ele><time>2026-04-22T13:12:17.003Z</time></trkpt><trkpt lat="43.8453282955116" lon="6.222161017317058"><ele>636.0</ele><time>2026-04-22T13:12:20.003Z</time></trkpt><trkpt lat="43.84526404255913" lon="6.222156082596442"><ele>636.0</ele><time>2026-04-22T13:12:22.003Z</time></trkpt><trkpt lat="43.845195683467196" lon="6.222140633688795"><ele>636.0</ele><time>2026-04-22T13:12:24.003Z</time></trkpt><trkpt lat="43.84512038035208" lon="6.222139376197061"><ele>636.0</ele><time>2026-04-22T13:12:26.003Z</time></trkpt><trkpt lat="43.84504121762323" lon="6.222163743254398"><ele>636.0</ele><time>2026-04-22T13:12:28.003Z</time></trkpt><trkpt lat="43.844945757093114" lon="6.222192730241293"><ele>635.0</ele><time>2026-04-22T13:12:30.003Z</time></trkpt><trkpt lat="43.84484887611986" lon="6.222210966757075"><ele>634.0</ele><time>2026-04-22T13:12:32.003Z</time></trkpt><trkpt lat="43.844754502869954" lon="6.222235480902758"><ele>633.0</ele><time>2026-04-22T13:12:34.003Z</time></trkpt><trkpt lat="43.8446632522447" lon="6.222255448052505"><ele>632.0</ele><time>2026-04-22T13:12:36.003Z</time></trkpt><trkpt lat="43.844573826252905" lon="6.22228276112661"><ele>631.0</ele><time>2026-04-22T13:12:38.003Z</time></trkpt><trkpt lat="43.84450001865367" lon="6.222331226239048"><ele>631.0</ele><time>2026-04-22T13:12:39.998Z</time></trkpt><trkpt lat="43.84442745697992" lon="6.222391511895595"><ele>631.0</ele><time>2026-04-22T13:12:41.998Z</time></trkpt><trkpt lat="43.84435908377688" lon="6.222450721033018"><ele>631.0</ele><time>2026-04-22T13:12:43.999Z</time></trkpt><trkpt lat="43.844278340187266" lon="6.222476819579007"><ele>631.0</ele><time>2026-04-22T13:12:45.999Z</time></trkpt><trkpt lat="43.84424547370365" lon="6.222380830909535"><ele>631.0</ele><time>2026-04-22T13:12:47.999Z</time></trkpt><trkpt lat="43.844289082509064" lon="6.222292483656189"><ele>631.0</ele><time>2026-04-22T13:12:49.999Z</time></trkpt><trkpt lat="43.84435033899038" lon="6.222250973593495"><ele>631.0</ele><time>2026-04-22T13:12:51.999Z</time></trkpt><trkpt lat="43.8444145757184" lon="6.222204619233657"><ele>631.0</ele><time>2026-04-22T13:12:53.999Z</time></trkpt><trkpt lat="43.84448112080272" lon="6.222151278814315"><ele>631.0</ele><time>2026-04-22T13:12:55.999Z</time></trkpt><trkpt lat="43.844562269307715" lon="6.222092408215815"><ele>631.0</ele><time>2026-04-22T13:12:58Z</time></trkpt><trkpt lat="43.84463458276628" lon="6.222017582568415"><ele>631.0</ele><time>2026-04-22T13:13:00Z</time></trkpt><trkpt lat="43.844671394965715" lon="6.221922469439113"><ele>631.0</ele><time>2026-04-22T13:13:02Z</time></trkpt><trkpt lat="43.84464599381176" lon="6.221842350147775"><ele>631.0</ele><time>2026-04-22T13:13:04Z</time></trkpt><trkpt lat="43.844555617922474" lon="6.221845540987514"><ele>631.0</ele><time>2026-04-22T13:13:06Z</time></trkpt><trkpt lat="43.84445718744886" lon="6.221893938813565"><ele>631.0</ele><time>2026-04-22T13:13:08Z</time></trkpt><trkpt lat="43.8443819138414" lon="6.221917714000995"><ele>631.0</ele><time>2026-04-22T13:13:09Z</time></trkpt><trkpt lat="43.84426074572498" lon="6.221971359288965"><ele>631.0</ele><time>2026-04-22T13:13:11Z</time></trkpt><trkpt lat="43.8441958966715" lon="6.2219944801869245"><ele>629.8571428571429</ele><time>2026-04-22T13:13:12Z</time></trkpt><trkpt lat="43.844134733297324" lon="6.222020660016551"><ele>628.7142857142857</ele><time>2026-04-22T13:13:13Z</time></trkpt><trkpt lat="43.844066291654734" lon="6.222028252513164"><ele>627.5714285714286</ele><time>2026-04-22T13:13:14Z</time></trkpt><trkpt lat="43.84400089015712" lon="6.222086488459535"><ele>626.4285714285714</ele><time>2026-04-22T13:13:15.001Z</time></trkpt><trkpt lat="43.84393139359692" lon="6.22212340108083"><ele>625.2857142857142</ele><time>2026-04-22T13:13:16.001Z</time></trkpt><trkpt lat="43.8438669879384" lon="6.222161404177603"><ele>624.1428571428571</ele><time>2026-04-22T13:13:17.001Z</time></trkpt><trkpt lat="43.8438059529808" lon="6.222188973581855"><ele>623.0</ele><time>2026-04-22T13:13:18.001Z</time></trkpt><trkpt lat="43.84373340813148" lon="6.222179930484458"><ele>623.0</ele><time>2026-04-22T13:13:19.001Z</time></trkpt><trkpt lat="43.843672704770405" lon="6.222124913246564"><ele>623.0</ele><time>2026-04-22T13:13:20.001Z</time></trkpt><trkpt lat="43.84363596988681" lon="6.222043058976467"><ele>623.0</ele><time>2026-04-22T13:13:21.001Z</time></trkpt><trkpt lat="43.843597485705146" lon="6.221946607896729"><ele>623.0</ele><time>2026-04-22T13:13:22.001Z</time></trkpt><trkpt lat="43.84356972177637" lon="6.221856790742183"><ele>623.0</ele><time>2026-04-22T13:13:23.001Z</time></trkpt><trkpt lat="43.84356098211609" lon="6.221769543222088"><ele>623.0</ele><time>2026-04-22T13:13:24.001Z</time></trkpt><trkpt lat="43.8435500282814" lon="6.221650473323982"><ele>623.0</ele><time>2026-04-22T13:13:26.001Z</time></trkpt><trkpt lat="43.84346173071984" lon="6.221518770424826"><ele>622.8333333333333</ele><time>2026-04-22T13:13:31.001Z</time></trkpt><trkpt lat="43.843367185444805" lon="6.2215617502336515"><ele>622.6666666666666</ele><time>2026-04-22T13:13:32.001Z</time></trkpt><trkpt lat="43.843271877867274" lon="6.221571809474473"><ele>622.5</ele><time>2026-04-22T13:13:33.001Z</time></trkpt><trkpt lat="43.84318555838719" lon="6.221549984694289"><ele>622.3333333333334</ele><time>2026-04-22T13:13:34.001Z</time></trkpt><trkpt lat="43.84310502563742" lon="6.221535379233009"><ele>622.1666666666667</ele><time>2026-04-22T13:13:35.001Z</time></trkpt><trkpt lat="43.84302682517854" lon="6.221495833580641"><ele>622.0</ele><time>2026-04-22T13:13:36.001Z</time></trkpt><trkpt lat="43.84294289483309" lon="6.2214006263173625"><ele>619.0</ele><time>2026-04-22T13:13:37.001Z</time></trkpt><trkpt lat="43.84284308856351" lon="6.221310711221937"><ele>616.0</ele><time>2026-04-22T13:13:38.001Z</time></trkpt><trkpt lat="43.842788018000526" lon="6.221200176723239"><ele>613.0</ele><time>2026-04-22T13:13:39.001Z</time></trkpt><trkpt lat="43.84272195354515" lon="6.2211158447139505"><ele>610.0</ele><time>2026-04-22T13:13:40.001Z</time></trkpt><trkpt lat="43.84263421206545" lon="6.221060971941206"><ele>607.0</ele><time>2026-04-22T13:13:41.001Z</time></trkpt><trkpt lat="43.842528600916346" lon="6.221039097210568"><ele>606.75</ele><time>2026-04-22T13:13:42.001Z</time></trkpt><trkpt lat="43.84241378846592" lon="6.221025028442652"><ele>606.5</ele><time>2026-04-22T13:13:43.002Z</time></trkpt><trkpt lat="43.84228833885792" lon="6.221039588322247"><ele>606.25</ele><time>2026-04-22T13:13:44.002Z</time></trkpt><trkpt lat="43.84215576091619" lon="6.22109196447315"><ele>606.0</ele><time>2026-04-22T13:13:45.002Z</time></trkpt><trkpt lat="43.84202207795943" lon="6.2211431464570985"><ele>606.0</ele><time>2026-04-22T13:13:46.002Z</time></trkpt><trkpt lat="43.84190694262274" lon="6.221171128912503"><ele>606.0</ele><time>2026-04-22T13:13:47.002Z</time></trkpt><trkpt lat="43.84180018897056" lon="6.22122357186189"><ele>606.0</ele><time>2026-04-22T13:13:48.002Z</time></trkpt><trkpt lat="43.8417064790346" lon="6.221298278009742"><ele>606.0</ele><time>2026-04-22T13:13:49.002Z</time></trkpt><trkpt lat="43.84163052643435" lon="6.221403722432236"><ele>606.0</ele><time>2026-04-22T13:13:50.002Z</time></trkpt><trkpt lat="43.8415516331211" lon="6.221448197520438"><ele>607.0</ele><time>2026-04-22T13:13:51.002Z</time></trkpt><trkpt lat="43.84148487698651" lon="6.221492465416681"><ele>608.0</ele><time>2026-04-22T13:13:52.002Z</time></trkpt><trkpt lat="43.841421795258476" lon="6.221457295008475"><ele>609.0</ele><time>2026-04-22T13:13:53.002Z</time></trkpt><trkpt lat="43.84136406179779" lon="6.2213592978555585"><ele>610.0</ele><time>2026-04-22T13:13:55.002Z</time></trkpt><trkpt lat="43.84133784053615" lon="6.2212489860057385"><ele>611.0</ele><time>2026-04-22T13:13:59.002Z</time></trkpt><trkpt lat="43.84139737558228" lon="6.2210823436791225"><ele>608.4</ele><time>2026-04-22T13:14:01.002Z</time></trkpt><trkpt lat="43.84146083324597" lon="6.220991970067915"><ele>605.8</ele><time>2026-04-22T13:14:02.002Z</time></trkpt><trkpt lat="43.84152523650323" lon="6.220890901460288"><ele>603.1999999999999</ele><time>2026-04-22T13:14:03.002Z</time></trkpt><trkpt lat="43.84160348110619" lon="6.220789577667065"><ele>600.6</ele><time>2026-04-22T13:14:04.002Z</time></trkpt><trkpt lat="43.841689240811384" lon="6.220671387746352"><ele>598.0</ele><time>2026-04-22T13:14:05.002Z</time></trkpt><trkpt lat="43.84178306029479" lon="6.220544757709968"><ele>595.75</ele><time>2026-04-22T13:14:06.002Z</time></trkpt><trkpt lat="43.84187437933108" lon="6.220423931936461"><ele>593.5</ele><time>2026-04-22T13:14:07.002Z</time></trkpt><trkpt lat="43.84197587227137" lon="6.220298752276079"><ele>591.25</ele><time>2026-04-22T13:14:08.002Z</time></trkpt><trkpt lat="43.84208729303057" lon="6.22018104849522"><ele>589.0</ele><time>2026-04-22T13:14:09.002Z</time></trkpt><trkpt lat="43.84220797899654" lon="6.220071583763381"><ele>589.0</ele><time>2026-04-22T13:14:10.002Z</time></trkpt><trkpt lat="43.842338752005496" lon="6.219973313328373"><ele>589.0</ele><time>2026-04-22T13:14:11.002Z</time></trkpt><trkpt lat="43.84247777674743" lon="6.219889033929965"><ele>589.0</ele><time>2026-04-22T13:14:12.002Z</time></trkpt><trkpt lat="43.84262678714234" lon="6.219827025104857"><ele>585.0</ele><time>2026-04-22T13:14:13.002Z</time></trkpt><trkpt lat="43.842781091175695" lon="6.219773536425065"><ele>581.0</ele><time>2026-04-22T13:14:14.002Z</time></trkpt><trkpt lat="43.842935608259005" lon="6.219717662931136"><ele>577.0</ele><time>2026-04-22T13:14:15.003Z</time></trkpt><trkpt lat="43.84309578283923" lon="6.219670428118762"><ele>577.0</ele><time>2026-04-22T13:14:16.003Z</time></trkpt><trkpt lat="43.843256007172286" lon="6.219620311849835"><ele>577.0</ele><time>2026-04-22T13:14:17.003Z</time></trkpt><trkpt lat="43.84341226441084" lon="6.219573934136757"><ele>577.0</ele><time>2026-04-22T13:14:18.003Z</time></trkpt><trkpt lat="43.843565977469645" lon="6.219524388556921"><ele>578.0</ele><time>2026-04-22T13:14:19.003Z</time></trkpt><trkpt lat="43.843719831481174" lon="6.219471863227347"><ele>579.0</ele><time>2026-04-22T13:14:20.003Z</time></trkpt><trkpt lat="43.84386198155703" lon="6.219414470618148"><ele>580.0</ele><time>2026-04-22T13:14:21.003Z</time></trkpt><trkpt lat="43.843994792206466" lon="6.21934309817181"><ele>581.0</ele><time>2026-04-22T13:14:22.003Z</time></trkpt><trkpt lat="43.8441222172866" lon="6.219269029562707"><ele>581.0</ele><time>2026-04-22T13:14:23.003Z</time></trkpt><trkpt lat="43.8442415294668" lon="6.21918571183439"><ele>581.0</ele><time>2026-04-22T13:14:24.003Z</time></trkpt><trkpt lat="43.844346799098325" lon="6.219092327121769"><ele>581.0</ele><time>2026-04-22T13:14:25.003Z</time></trkpt><trkpt lat="43.84443945077486" lon="6.218990686719286"><ele>581.0</ele><time>2026-04-22T13:14:26.003Z</time></trkpt><trkpt lat="43.84452770291557" lon="6.218869368776608"><ele>578.3333333333333</ele><time>2026-04-22T13:14:27.003Z</time></trkpt><trkpt lat="43.844612849274704" lon="6.218726372615746"><ele>575.6666666666666</ele><time>2026-04-22T13:14:28.003Z</time></trkpt><trkpt lat="43.844705425196366" lon="6.218553530382498"><ele>573.0</ele><time>2026-04-22T13:14:29.003Z</time></trkpt><trkpt lat="43.8447896649263" lon="6.218357577424743"><ele>572.0</ele><time>2026-04-22T13:14:30.003Z</time></trkpt><trkpt lat="43.844855331757564" lon="6.218146577663183"><ele>571.0</ele><time>2026-04-22T13:14:31.003Z</time></trkpt><trkpt lat="43.844919385557795" lon="6.217923792813946"><ele>570.0</ele><time>2026-04-22T13:14:32.003Z</time></trkpt><trkpt lat="43.8449641162448" lon="6.217688892346776"><ele>570.0</ele><time>2026-04-22T13:14:33.003Z</time></trkpt><trkpt lat="43.84499428324564" lon="6.2174573482912905"><ele>570.0</ele><time>2026-04-22T13:14:34.003Z</time></trkpt><trkpt lat="43.8449930973706" lon="6.217213638148944"><ele>570.0</ele><time>2026-04-22T13:14:35.003Z</time></trkpt><trkpt lat="43.84497423667516" lon="6.2169646443079944"><ele>569.6666666666666</ele><time>2026-04-22T13:14:36.003Z</time></trkpt><trkpt lat="43.84493455701587" lon="6.216720984927443"><ele>569.3333333333333</ele><time>2026-04-22T13:14:37.003Z</time></trkpt><trkpt lat="43.84488092378992" lon="6.216499970103669"><ele>569.0</ele><time>2026-04-22T13:14:38.003Z</time></trkpt><trkpt lat="43.84482963644241" lon="6.216328021334256"><ele>569.8</ele><time>2026-04-22T13:14:39.003Z</time></trkpt><trkpt lat="43.84475880690283" lon="6.2161905188651705"><ele>570.5999999999999</ele><time>2026-04-22T13:14:40.003Z</time></trkpt><trkpt lat="43.844717434465586" lon="6.216068542066798"><ele>571.4</ele><time>2026-04-22T13:14:41.003Z</time></trkpt><trkpt lat="43.84467355815509" lon="6.215918734620736"><ele>572.1999999999999</ele><time>2026-04-22T13:14:42.003Z</time></trkpt><trkpt lat="43.844649392310565" lon="6.215805036061861"><ele>573.0</ele><time>2026-04-22T13:14:43.003Z</time></trkpt><trkpt lat="43.844617733448466" lon="6.215682964454"><ele>572.8</ele><time>2026-04-22T13:14:44.003Z</time></trkpt><trkpt lat="43.84454633260153" lon="6.215584962306999"><ele>572.5999999999999</ele><time>2026-04-22T13:14:45.001Z</time></trkpt><trkpt lat="43.84445433732085" lon="6.215516724680784"><ele>572.4000000000001</ele><time>2026-04-22T13:14:46.001Z</time></trkpt><trkpt lat="43.84436141484903" lon="6.2154207349005715"><ele>572.2</ele><time>2026-04-22T13:14:47.001Z</time></trkpt><trkpt lat="43.84428258570907" lon="6.215311138352799"><ele>572.0</ele><time>2026-04-22T13:14:48.001Z</time></trkpt><trkpt lat="43.84420857212117" lon="6.215185487572192"><ele>572.0</ele><time>2026-04-22T13:14:49.001Z</time></trkpt><trkpt lat="43.84412046403836" lon="6.215050079164577"><ele>572.0</ele><time>2026-04-22T13:14:50.001Z</time></trkpt><trkpt lat="43.844027547840284" lon="6.214909819721643"><ele>572.0</ele><time>2026-04-22T13:14:51.001Z</time></trkpt><trkpt lat="43.843927693469276" lon="6.214782120675442"><ele>572.0</ele><time>2026-04-22T13:14:52.001Z</time></trkpt><trkpt lat="43.843816296192145" lon="6.214669470818987"><ele>572.5</ele><time>2026-04-22T13:14:53.001Z</time></trkpt><trkpt lat="43.84369503144402" lon="6.214590297694592"><ele>573.0</ele><time>2026-04-22T13:14:54.001Z</time></trkpt><trkpt lat="43.843566581569036" lon="6.214524252060288"><ele>573.5</ele><time>2026-04-22T13:14:55.001Z</time></trkpt><trkpt lat="43.84344260984975" lon="6.214485222065332"><ele>574.0</ele><time>2026-04-22T13:14:56.001Z</time></trkpt><trkpt lat="43.84331210217319" lon="6.214460525492467"><ele>574.0</ele><time>2026-04-22T13:14:57Z</time></trkpt><trkpt lat="43.84318198971879" lon="6.214437745628272"><ele>574.0</ele><time>2026-04-22T13:14:58Z</time></trkpt><trkpt lat="43.843074087982714" lon="6.214411998915416"><ele>574.0</ele><time>2026-04-22T13:14:59Z</time></trkpt><trkpt lat="43.84296658931939" lon="6.2143743395219575"><ele>574.0</ele><time>2026-04-22T13:15:00Z</time></trkpt><trkpt lat="43.84286239197817" lon="6.214332931862735"><ele>574.0</ele><time>2026-04-22T13:15:01Z</time></trkpt><trkpt lat="43.84276347159128" lon="6.214271158555299"><ele>574.0</ele><time>2026-04-22T13:15:02Z</time></trkpt><trkpt lat="43.84265432855411" lon="6.214206041425871"><ele>574.0</ele><time>2026-04-22T13:15:03Z</time></trkpt><trkpt lat="43.842538801428645" lon="6.214146462150308"><ele>574.0</ele><time>2026-04-22T13:15:04Z</time></trkpt><trkpt lat="43.84241965116209" lon="6.214078595207735"><ele>574.25</ele><time>2026-04-22T13:15:05Z</time></trkpt><trkpt lat="43.84232048295528" lon="6.21399713421297"><ele>574.5</ele><time>2026-04-22T13:15:06Z</time></trkpt><trkpt lat="43.842239164591206" lon="6.213887711722765"><ele>574.75</ele><time>2026-04-22T13:15:07Z</time></trkpt><trkpt lat="43.84218365744483" lon="6.213746213954936"><ele>575.0</ele><time>2026-04-22T13:15:08Z</time></trkpt><trkpt lat="43.84215037823275" lon="6.213587688404198"><ele>575.0</ele><time>2026-04-22T13:15:09Z</time></trkpt><trkpt lat="43.842143267275674" lon="6.21343261891709"><ele>575.0</ele><time>2026-04-22T13:15:10Z</time></trkpt><trkpt lat="43.84214786389683" lon="6.213267374074356"><ele>575.0</ele><time>2026-04-22T13:15:11Z</time></trkpt><trkpt lat="43.84217115909076" lon="6.213090701012898"><ele>575.0</ele><time>2026-04-22T13:15:12.001Z</time></trkpt><trkpt lat="43.84221163839421" lon="6.212886079722056"><ele>574.6666666666666</ele><time>2026-04-22T13:15:13.001Z</time></trkpt><trkpt lat="43.84226532556573" lon="6.2126697733891465"><ele>574.3333333333334</ele><time>2026-04-22T13:15:14.001Z</time></trkpt><trkpt lat="43.84231564187773" lon="6.212464570045045"><ele>574.0</ele><time>2026-04-22T13:15:15.001Z</time></trkpt><trkpt lat="43.842364470896364" lon="6.21226832197867"><ele>574.0</ele><time>2026-04-22T13:15:16.001Z</time></trkpt><trkpt lat="43.842428692067564" lon="6.2120719662210195"><ele>574.0</ele><time>2026-04-22T13:15:17.001Z</time></trkpt><trkpt lat="43.84250766206022" lon="6.211874824754138"><ele>574.0</ele><time>2026-04-22T13:15:18.001Z</time></trkpt><trkpt lat="43.84259032290161" lon="6.211662136097894"><ele>577.6666666666667</ele><time>2026-04-22T13:15:19.001Z</time></trkpt><trkpt lat="43.842660214886585" lon="6.2114312386194035"><ele>581.3333333333334</ele><time>2026-04-22T13:15:20.001Z</time></trkpt><trkpt lat="43.84272386881178" lon="6.211201759620014"><ele>585.0</ele><time>2026-04-22T13:15:21.001Z</time></trkpt><trkpt lat="43.84278457331562" lon="6.210966657904073"><ele>585.0</ele><time>2026-04-22T13:15:22.001Z</time></trkpt><trkpt lat="43.842847802027435" lon="6.210729062330936"><ele>585.0</ele><time>2026-04-22T13:15:23.001Z</time></trkpt><trkpt lat="43.84291198894356" lon="6.210491608383525"><ele>585.0</ele><time>2026-04-22T13:15:24.001Z</time></trkpt><trkpt lat="43.84297318617531" lon="6.210248566714666"><ele>583.3333333333334</ele><time>2026-04-22T13:15:25.001Z</time></trkpt><trkpt lat="43.84303921744952" lon="6.210017414705954"><ele>581.6666666666667</ele><time>2026-04-22T13:15:26.001Z</time></trkpt><trkpt lat="43.843111771425846" lon="6.209781815965037"><ele>580.0</ele><time>2026-04-22T13:15:27.001Z</time></trkpt><trkpt lat="43.84318542199704" lon="6.209552300646499"><ele>578.6666666666667</ele><time>2026-04-22T13:15:28.001Z</time></trkpt><trkpt lat="43.843264823090664" lon="6.209326143974259"><ele>577.3333333333334</ele><time>2026-04-22T13:15:29.001Z</time></trkpt><trkpt lat="43.84334293960372" lon="6.209100135795311"><ele>576.0</ele><time>2026-04-22T13:15:30.001Z</time></trkpt><trkpt lat="43.84341829428156" lon="6.208879597553552"><ele>578.3333333333334</ele><time>2026-04-22T13:15:31.001Z</time></trkpt><trkpt lat="43.84348889653649" lon="6.208642331571637"><ele>580.6666666666667</ele><time>2026-04-22T13:15:32.001Z</time></trkpt><trkpt lat="43.84356205925504" lon="6.208405745386512"><ele>583.0</ele><time>2026-04-22T13:15:33.001Z</time></trkpt><trkpt lat="43.84363464345102" lon="6.208162759007824"><ele>581.6666666666667</ele><time>2026-04-22T13:15:34.001Z</time></trkpt><trkpt lat="43.84371594501682" lon="6.20791858459288"><ele>580.3333333333334</ele><time>2026-04-22T13:15:35.001Z</time></trkpt><trkpt lat="43.84381301292553" lon="6.2076807221719275"><ele>579.0</ele><time>2026-04-22T13:15:36.001Z</time></trkpt><trkpt lat="43.84391345581359" lon="6.207450552504617"><ele>579.0</ele><time>2026-04-22T13:15:37.001Z</time></trkpt><trkpt lat="43.84400560787336" lon="6.207223904524469"><ele>579.0</ele><time>2026-04-22T13:15:38.001Z</time></trkpt><trkpt lat="43.844101968324885" lon="6.206996563208958"><ele>579.0</ele><time>2026-04-22T13:15:39.001Z</time></trkpt><trkpt lat="43.844205922483255" lon="6.206773005517988"><ele>580.6666666666666</ele><time>2026-04-22T13:15:40.001Z</time></trkpt><trkpt lat="43.84430536328743" lon="6.206544998397807"><ele>582.3333333333333</ele><time>2026-04-22T13:15:41.001Z</time></trkpt><trkpt lat="43.844343933224096" lon="6.2062613393360655"><ele>584.0</ele><time>2026-04-22T13:15:42.001Z</time></trkpt><trkpt lat="43.844414484496355" lon="6.206008168626817"><ele>584.0</ele><time>2026-04-22T13:15:43.001Z</time></trkpt><trkpt lat="43.844505055677025" lon="6.205774720817624"><ele>584.0</ele><time>2026-04-22T13:15:44.001Z</time></trkpt><trkpt lat="43.844614603638995" lon="6.205559036667653"><ele>584.0</ele><time>2026-04-22T13:15:45.001Z</time></trkpt><trkpt lat="43.844738527837194" lon="6.205368030793204"><ele>584.0</ele><time>2026-04-22T13:15:46.001Z</time></trkpt><trkpt lat="43.844873481315155" lon="6.205185856453234"><ele>584.0</ele><time>2026-04-22T13:15:47.001Z</time></trkpt><trkpt lat="43.84500773585003" lon="6.20501071261285"><ele>584.0</ele><time>2026-04-22T13:15:48.001Z</time></trkpt><trkpt lat="43.84514240779018" lon="6.2048476190595885"><ele>586.0</ele><time>2026-04-22T13:15:49.001Z</time></trkpt><trkpt lat="43.84529163982217" lon="6.204690660413933"><ele>588.0</ele><time>2026-04-22T13:15:50.001Z</time></trkpt><trkpt lat="43.84544410110984" lon="6.204547764729397"><ele>590.0</ele><time>2026-04-22T13:15:51.001Z</time></trkpt><trkpt lat="43.845594082182" lon="6.204408500471746"><ele>590.0</ele><time>2026-04-22T13:15:52.001Z</time></trkpt><trkpt lat="43.84573778890885" lon="6.2042777262169535"><ele>590.0</ele><time>2026-04-22T13:15:53.001Z</time></trkpt><trkpt lat="43.845873106607506" lon="6.204155195781414"><ele>590.0</ele><time>2026-04-22T13:15:54.001Z</time></trkpt><trkpt lat="43.84599553685236" lon="6.2040498841932274"><ele>590.75</ele><time>2026-04-22T13:15:55.001Z</time></trkpt><trkpt lat="43.84610620616214" lon="6.203950431837769"><ele>591.5</ele><time>2026-04-22T13:15:56.001Z</time></trkpt><trkpt lat="43.846189001502545" lon="6.203834321425861"><ele>592.25</ele><time>2026-04-22T13:15:57.001Z</time></trkpt><trkpt lat="43.84623149869832" lon="6.203693866862611"><ele>593.0</ele><time>2026-04-22T13:15:58.001Z</time></trkpt><trkpt lat="43.84623349426856" lon="6.203547887234488"><ele>593.0</ele><time>2026-04-22T13:15:59.001Z</time></trkpt><trkpt lat="43.846203626259644" lon="6.203402981100898"><ele>593.0</ele><time>2026-04-22T13:16:00.001Z</time></trkpt><trkpt lat="43.84615608389494" lon="6.203267128162794"><ele>593.0</ele><time>2026-04-22T13:16:01.001Z</time></trkpt><trkpt lat="43.846112035452975" lon="6.203132346417401"><ele>593.0</ele><time>2026-04-22T13:16:02.001Z</time></trkpt><trkpt lat="43.84611879426159" lon="6.2030111034430595"><ele>593.0</ele><time>2026-04-22T13:16:03.002Z</time></trkpt><trkpt lat="43.84617126428371" lon="6.202883455597904"><ele>593.0</ele><time>2026-04-22T13:16:04.002Z</time></trkpt><trkpt lat="43.846260673352795" lon="6.202772223267361"><ele>593.0</ele><time>2026-04-22T13:16:05.002Z</time></trkpt><trkpt lat="43.84634692764776" lon="6.202655218435582"><ele>593.0</ele><time>2026-04-22T13:16:06.002Z</time></trkpt><trkpt lat="43.8464410007808" lon="6.2025199317140025"><ele>593.0</ele><time>2026-04-22T13:16:07.002Z</time></trkpt><trkpt lat="43.846534959635626" lon="6.202361437462895"><ele>594.0</ele><time>2026-04-22T13:16:08.002Z</time></trkpt><trkpt lat="43.84663072724182" lon="6.202201761574627"><ele>595.0</ele><time>2026-04-22T13:16:09.002Z</time></trkpt><trkpt lat="43.846732989902286" lon="6.202034131004944"><ele>596.0</ele><time>2026-04-22T13:16:10.002Z</time></trkpt><trkpt lat="43.84684441391953" lon="6.201859772027559"><ele>596.3333333333333</ele><time>2026-04-22T13:16:11.002Z</time></trkpt><trkpt lat="43.846956951164465" lon="6.20166914074103"><ele>596.6666666666666</ele><time>2026-04-22T13:16:12.002Z</time></trkpt><trkpt lat="43.847069185564294" lon="6.201480985553046"><ele>597.0</ele><time>2026-04-22T13:16:13.002Z</time></trkpt><trkpt lat="43.847174293664615" lon="6.201298189703751"><ele>597.0</ele><time>2026-04-22T13:16:14.002Z</time></trkpt><trkpt lat="43.847271785609884" lon="6.201130700049839"><ele>597.0</ele><time>2026-04-22T13:16:15.002Z</time></trkpt><trkpt lat="43.84736770148695" lon="6.20096353356544"><ele>597.0</ele><time>2026-04-22T13:16:16.002Z</time></trkpt><trkpt lat="43.84747127039303" lon="6.20078114786437"><ele>598.6666666666666</ele><time>2026-04-22T13:16:17.002Z</time></trkpt><trkpt lat="43.84757254313253" lon="6.200589542382739"><ele>600.3333333333333</ele><time>2026-04-22T13:16:18.002Z</time></trkpt><trkpt lat="43.8476751588419" lon="6.200385169721877"><ele>602.0</ele><time>2026-04-22T13:16:19.002Z</time></trkpt><trkpt lat="43.84778212651943" lon="6.2001859867964715"><ele>602.6666666666666</ele><time>2026-04-22T13:16:20.002Z</time></trkpt><trkpt lat="43.84788679053894" lon="6.19997715550487"><ele>603.3333333333334</ele><time>2026-04-22T13:16:21.002Z</time></trkpt><trkpt lat="43.84799854519548" lon="6.19976854405141"><ele>604.0</ele><time>2026-04-22T13:16:22.002Z</time></trkpt><trkpt lat="43.84811242298173" lon="6.199556105392186"><ele>605.3333333333334</ele><time>2026-04-22T13:16:23.002Z</time></trkpt><trkpt lat="43.84822695284715" lon="6.199358865841811"><ele>606.6666666666666</ele><time>2026-04-22T13:16:24.002Z</time></trkpt><trkpt lat="43.84833957812497" lon="6.199152046754111"><ele>608.0</ele><time>2026-04-22T13:16:25.002Z</time></trkpt><trkpt lat="43.84843931913797" lon="6.1989198553127345"><ele>608.3333333333333</ele><time>2026-04-22T13:16:26.002Z</time></trkpt><trkpt lat="43.84851980287015" lon="6.198695483764802"><ele>608.6666666666666</ele><time>2026-04-22T13:16:27.002Z</time></trkpt><trkpt lat="43.84858987797983" lon="6.198483005298898"><ele>609.0</ele><time>2026-04-22T13:16:28.002Z</time></trkpt><trkpt lat="43.8486697861523" lon="6.198273381952964"><ele>610.75</ele><time>2026-04-22T13:16:29.002Z</time></trkpt><trkpt lat="43.848755858298034" lon="6.198083322812712"><ele>612.5</ele><time>2026-04-22T13:16:30.002Z</time></trkpt><trkpt lat="43.84884786910925" lon="6.19793151170653"><ele>614.25</ele><time>2026-04-22T13:16:31.002Z</time></trkpt><trkpt lat="43.848943286673226" lon="6.197828288276469"><ele>616.0</ele><time>2026-04-22T13:16:32.002Z</time></trkpt><trkpt lat="43.8490275616976" lon="6.197756792254261"><ele>616.0</ele><time>2026-04-22T13:16:33.002Z</time></trkpt><trkpt lat="43.84908633729118" lon="6.197698616547026"><ele>616.0</ele><time>2026-04-22T13:16:34.002Z</time></trkpt><trkpt lat="43.84915282011874" lon="6.1976047391608375"><ele>616.0</ele><time>2026-04-22T13:16:36.002Z</time></trkpt><trkpt lat="43.84918968570794" lon="6.197499219027164"><ele>616.0</ele><time>2026-04-22T13:16:48.003Z</time></trkpt><trkpt lat="43.84914502322229" lon="6.197436847231112"><ele>616.0</ele><time>2026-04-22T13:17:51.001Z</time></trkpt><trkpt lat="43.84904943312593" lon="6.197422100017667"><ele>616.0</ele><time>2026-04-22T13:17:53.001Z</time></trkpt><trkpt lat="43.8489617664162" lon="6.197378106976799"><ele>616.0</ele><time>2026-04-22T13:17:54.001Z</time></trkpt><trkpt lat="43.849155275067794" lon="6.197461421238429"><ele>616.0</ele><time>2026-04-22T13:17:55.001Z</time></trkpt><trkpt lat="43.849163125584134" lon="6.197373049617638"><ele>616.0</ele><time>2026-04-22T13:18:44.002Z</time></trkpt><trkpt lat="43.8492216064062" lon="6.197229380773665"><ele>616.0</ele><time>2026-04-22T13:18:46.002Z</time></trkpt><trkpt lat="43.84925794042193" lon="6.19713020074691"><ele>615.6</ele><time>2026-04-22T13:18:47.002Z</time></trkpt><trkpt lat="43.84930894230986" lon="6.197022391614255"><ele>615.2</ele><time>2026-04-22T13:18:48.002Z</time></trkpt><trkpt lat="43.84937297320157" lon="6.196896627004924"><ele>614.8</ele><time>2026-04-22T13:18:49.002Z</time></trkpt><trkpt lat="43.84945252661749" lon="6.1967811785939135"><ele>614.4</ele><time>2026-04-22T13:18:50.002Z</time></trkpt><trkpt lat="43.8495434653523" lon="6.196676812013695"><ele>614.0</ele><time>2026-04-22T13:18:51.002Z</time></trkpt><trkpt lat="43.84964760413782" lon="6.196573207694928"><ele>617.0</ele><time>2026-04-22T13:18:52.002Z</time></trkpt><trkpt lat="43.849760020925025" lon="6.196458687362835"><ele>620.0</ele><time>2026-04-22T13:18:53.002Z</time></trkpt><trkpt lat="43.84987935075239" lon="6.196354652834593"><ele>623.0</ele><time>2026-04-22T13:18:54.002Z</time></trkpt><trkpt lat="43.85001250345049" lon="6.196242881489533"><ele>626.0</ele><time>2026-04-22T13:18:55.002Z</time></trkpt><trkpt lat="43.85016208392354" lon="6.19612446069929"><ele>626.0</ele><time>2026-04-22T13:18:56.002Z</time></trkpt><trkpt lat="43.850330466041804" lon="6.196017819065537"><ele>626.0</ele><time>2026-04-22T13:18:57.001Z</time></trkpt><trkpt lat="43.850498816526375" lon="6.195933304355474"><ele>626.0</ele><time>2026-04-22T13:18:58.001Z</time></trkpt><trkpt lat="43.85066662773026" lon="6.19586194455266"><ele>626.0</ele><time>2026-04-22T13:18:59.001Z</time></trkpt><trkpt lat="43.85083688916737" lon="6.195797560135041"><ele>626.0</ele><time>2026-04-22T13:19:00.001Z</time></trkpt><trkpt lat="43.85100216958599" lon="6.195711876131101"><ele>626.0</ele><time>2026-04-22T13:19:01.001Z</time></trkpt><trkpt lat="43.851160513257774" lon="6.195641145716868"><ele>628.6666666666666</ele><time>2026-04-22T13:19:02.001Z</time></trkpt><trkpt lat="43.85131896710467" lon="6.195579353504257"><ele>631.3333333333334</ele><time>2026-04-22T13:19:03.001Z</time></trkpt><trkpt lat="43.851470723891474" lon="6.195564120571558"><ele>634.0</ele><time>2026-04-22T13:19:04.001Z</time></trkpt><trkpt lat="43.85161889842035" lon="6.195558386179099"><ele>634.0</ele><time>2026-04-22T13:19:05.001Z</time></trkpt><trkpt lat="43.85177631439008" lon="6.195603640227051"><ele>634.0</ele><time>2026-04-22T13:19:06.001Z</time></trkpt><trkpt lat="43.85193642809794" lon="6.195653752991698"><ele>634.0</ele><time>2026-04-22T13:19:07.001Z</time></trkpt><trkpt lat="43.85210421605516" lon="6.195671347963105"><ele>633.3333333333334</ele><time>2026-04-22T13:19:08.001Z</time></trkpt><trkpt lat="43.85228852317967" lon="6.195630628165201"><ele>632.6666666666666</ele><time>2026-04-22T13:19:09.001Z</time></trkpt><trkpt lat="43.85247629996284" lon="6.195568715495955"><ele>632.0</ele><time>2026-04-22T13:19:10.001Z</time></trkpt><trkpt lat="43.85268085600936" lon="6.1955056562710675"><ele>635.0</ele><time>2026-04-22T13:19:11.001Z</time></trkpt><trkpt lat="43.85287957146292" lon="6.195453404589113"><ele>638.0</ele><time>2026-04-22T13:19:12.001Z</time></trkpt><trkpt lat="43.85305433812199" lon="6.1954116276715405"><ele>641.0</ele><time>2026-04-22T13:19:13.001Z</time></trkpt><trkpt lat="43.85320909216745" lon="6.195380154699722"><ele>641.0</ele><time>2026-04-22T13:19:14.001Z</time></trkpt><trkpt lat="43.85334124109103" lon="6.195373274059183"><ele>641.0</ele><time>2026-04-22T13:19:15.001Z</time></trkpt><trkpt lat="43.853470988048194" lon="6.19541588550025"><ele>641.0</ele><time>2026-04-22T13:19:16.001Z</time></trkpt><trkpt lat="43.85358961441557" lon="6.195517405113353"><ele>641.0</ele><time>2026-04-22T13:19:17.001Z</time></trkpt><trkpt lat="43.85371896990396" lon="6.195646356233837"><ele>641.6666666666666</ele><time>2026-04-22T13:19:18.001Z</time></trkpt><trkpt lat="43.85385752240265" lon="6.1957601509885265"><ele>642.3333333333334</ele><time>2026-04-22T13:19:19.001Z</time></trkpt><trkpt lat="43.85401857369224" lon="6.1958644229055375"><ele>643.0</ele><time>2026-04-22T13:19:20.001Z</time></trkpt><trkpt lat="43.85419067218759" lon="6.195954448171825"><ele>647.0</ele><time>2026-04-22T13:19:21.001Z</time></trkpt><trkpt lat="43.85435547233779" lon="6.196060752527471"><ele>651.0</ele><time>2026-04-22T13:19:22.001Z</time></trkpt><trkpt lat="43.85448915443144" lon="6.196215865188199"><ele>655.0</ele><time>2026-04-22T13:19:23.001Z</time></trkpt><trkpt lat="43.85460051985303" lon="6.196404753142191"><ele>651.6666666666667</ele><time>2026-04-22T13:19:24.001Z</time></trkpt><trkpt lat="43.85472419697509" lon="6.196566005388974"><ele>648.3333333333334</ele><time>2026-04-22T13:19:25.001Z</time></trkpt><trkpt lat="43.85488581465933" lon="6.19668863200327"><ele>645.0</ele><time>2026-04-22T13:19:26.001Z</time></trkpt><trkpt lat="43.85506888296824" lon="6.196812829328749"><ele>650.3333333333334</ele><time>2026-04-22T13:19:27.001Z</time></trkpt><trkpt lat="43.855250366428066" lon="6.196936076352487"><ele>655.6666666666667</ele><time>2026-04-22T13:19:28.001Z</time></trkpt><trkpt lat="43.855435246424626" lon="6.197081884897571"><ele>661.0</ele><time>2026-04-22T13:19:29.001Z</time></trkpt><trkpt lat="43.855610956957946" lon="6.19721195817482"><ele>657.6666666666667</ele><time>2026-04-22T13:19:30.001Z</time></trkpt><trkpt lat="43.85577252797688" lon="6.1973453358475314"><ele>654.3333333333334</ele><time>2026-04-22T13:19:31.001Z</time></trkpt><trkpt lat="43.85592249808315" lon="6.197469148341426"><ele>651.0</ele><time>2026-04-22T13:19:32.001Z</time></trkpt><trkpt lat="43.85604900846432" lon="6.197581981105268"><ele>656.0</ele><time>2026-04-22T13:19:33.001Z</time></trkpt><trkpt lat="43.85614283135293" lon="6.197691712970201"><ele>661.0</ele><time>2026-04-22T13:19:34.001Z</time></trkpt><trkpt lat="43.856223565635524" lon="6.1978231589965995"><ele>666.0</ele><time>2026-04-22T13:19:35.001Z</time></trkpt><trkpt lat="43.856274717377126" lon="6.197971829731069"><ele>671.0</ele><time>2026-04-22T13:19:36.001Z</time></trkpt><trkpt lat="43.85631758302363" lon="6.198121307340239"><ele>671.0</ele><time>2026-04-22T13:19:37.001Z</time></trkpt><trkpt lat="43.85637204130229" lon="6.198225368040765"><ele>671.0</ele><time>2026-04-22T13:19:38.001Z</time></trkpt><trkpt lat="43.85644365880665" lon="6.198257048770632"><ele>671.0</ele><time>2026-04-22T13:19:39.001Z</time></trkpt><trkpt lat="43.856502391847705" lon="6.198211982656542"><ele>671.0</ele><time>2026-04-22T13:19:40.001Z</time></trkpt><trkpt lat="43.85654729729804" lon="6.1980902748774644"><ele>671.0</ele><time>2026-04-22T13:19:41.001Z</time></trkpt><trkpt lat="43.85653775188451" lon="6.197979168144716"><ele>671.0</ele><time>2026-04-22T13:19:42.001Z</time></trkpt><trkpt lat="43.85649365531546" lon="6.197875191605347"><ele>671.0</ele><time>2026-04-22T13:19:43.001Z</time></trkpt><trkpt lat="43.856426688255596" lon="6.1977543437503755"><ele>671.0</ele><time>2026-04-22T13:19:44.001Z</time></trkpt><trkpt lat="43.85635944153964" lon="6.197606125905619"><ele>671.0</ele><time>2026-04-22T13:19:45.001Z</time></trkpt><trkpt lat="43.85628828096144" lon="6.197427203672875"><ele>671.0</ele><time>2026-04-22T13:19:46.001Z</time></trkpt><trkpt lat="43.85622906310358" lon="6.197234967817458"><ele>676.0</ele><time>2026-04-22T13:19:47.001Z</time></trkpt><trkpt lat="43.85616680362947" lon="6.1970481968039035"><ele>681.0</ele><time>2026-04-22T13:19:48.001Z</time></trkpt><trkpt lat="43.85608018422645" lon="6.1968527365360195"><ele>686.0</ele><time>2026-04-22T13:19:49.001Z</time></trkpt><trkpt lat="43.85595796395873" lon="6.196645463888977"><ele>683.0</ele><time>2026-04-22T13:19:50.001Z</time></trkpt><trkpt lat="43.85582941174073" lon="6.196445185461636"><ele>680.0</ele><time>2026-04-22T13:19:51.001Z</time></trkpt><trkpt lat="43.85569809847435" lon="6.196233728110744"><ele>677.0</ele><time>2026-04-22T13:19:52.001Z</time></trkpt><trkpt lat="43.855579907781674" lon="6.196038343287349"><ele>677.0</ele><time>2026-04-22T13:19:53.001Z</time></trkpt><trkpt lat="43.85547445498028" lon="6.1958742258428945"><ele>677.0</ele><time>2026-04-22T13:19:54.001Z</time></trkpt><trkpt lat="43.85538272060597" lon="6.195744100274568"><ele>677.0</ele><time>2026-04-22T13:19:55.001Z</time></trkpt><trkpt lat="43.85531259966836" lon="6.195635380911485"><ele>677.0</ele><time>2026-04-22T13:19:56.001Z</time></trkpt><trkpt lat="43.8552905304342" lon="6.195540698089289"><ele>677.0</ele><time>2026-04-22T13:19:57.001Z</time></trkpt><trkpt lat="43.85537806109005" lon="6.195456579874383"><ele>677.0</ele><time>2026-04-22T13:19:59.001Z</time></trkpt><trkpt lat="43.85544481728363" lon="6.195481314125089"><ele>677.0</ele><time>2026-04-22T13:20:00.001Z</time></trkpt><trkpt lat="43.855507889293236" lon="6.1955500718025895"><ele>677.0</ele><time>2026-04-22T13:20:01.001Z</time></trkpt><trkpt lat="43.85556928747766" lon="6.195644748649567"><ele>677.0</ele><time>2026-04-22T13:20:02.001Z</time></trkpt><trkpt lat="43.855640627259916" lon="6.1957743344848275"><ele>677.0</ele><time>2026-04-22T13:20:03.001Z</time></trkpt><trkpt lat="43.85573764226694" lon="6.195897538025305"><ele>677.0</ele><time>2026-04-22T13:20:04.001Z</time></trkpt><trkpt lat="43.85585303183605" lon="6.196017087517704"><ele>677.0</ele><time>2026-04-22T13:20:05.001Z</time></trkpt><trkpt lat="43.8559807328949" lon="6.196145981522425"><ele>677.0</ele><time>2026-04-22T13:20:06.001Z</time></trkpt><trkpt lat="43.85612480019324" lon="6.1962878047456655"><ele>680.0</ele><time>2026-04-22T13:20:07.001Z</time></trkpt><trkpt lat="43.856271493507656" lon="6.196439335807464"><ele>683.0</ele><time>2026-04-22T13:20:08.001Z</time></trkpt><trkpt lat="43.85639359232071" lon="6.19660954753733"><ele>686.0</ele><time>2026-04-22T13:20:09.001Z</time></trkpt><trkpt lat="43.856488166331935" lon="6.196806708800884"><ele>686.0</ele><time>2026-04-22T13:20:10.001Z</time></trkpt><trkpt lat="43.85655990998081" lon="6.197034224687435"><ele>686.0</ele><time>2026-04-22T13:20:11.001Z</time></trkpt><trkpt lat="43.856645721683606" lon="6.197266486286766"><ele>686.0</ele><time>2026-04-22T13:20:12.001Z</time></trkpt><trkpt lat="43.85676524049624" lon="6.197458176547281"><ele>688.0</ele><time>2026-04-22T13:20:13.001Z</time></trkpt><trkpt lat="43.85691168051612" lon="6.1976171315431365"><ele>690.0</ele><time>2026-04-22T13:20:14.001Z</time></trkpt><trkpt lat="43.857073147547396" lon="6.197745703598752"><ele>692.0</ele><time>2026-04-22T13:20:15.001Z</time></trkpt><trkpt lat="43.8572481452817" lon="6.1978452706037315"><ele>692.0</ele><time>2026-04-22T13:20:16.001Z</time></trkpt><trkpt lat="43.85743649415451" lon="6.19789903034621"><ele>692.0</ele><time>2026-04-22T13:20:17.001Z</time></trkpt><trkpt lat="43.8576193929728" lon="6.197933207667515"><ele>692.0</ele><time>2026-04-22T13:20:18.001Z</time></trkpt><trkpt lat="43.85778406011234" lon="6.198008189526935"><ele>693.0</ele><time>2026-04-22T13:20:19.001Z</time></trkpt><trkpt lat="43.85790402226787" lon="6.198161577142285"><ele>694.0</ele><time>2026-04-22T13:20:20.001Z</time></trkpt><trkpt lat="43.85802069013808" lon="6.198343637471996"><ele>695.0</ele><time>2026-04-22T13:20:21.001Z</time></trkpt><trkpt lat="43.85814438265255" lon="6.198480811783006"><ele>695.0</ele><time>2026-04-22T13:20:22.001Z</time></trkpt><trkpt lat="43.858246515629105" lon="6.19860267240144"><ele>695.0</ele><time>2026-04-22T13:20:23.001Z</time></trkpt><trkpt lat="43.85832734493376" lon="6.198711424293928"><ele>695.0</ele><time>2026-04-22T13:20:24.001Z</time></trkpt><trkpt lat="43.85838807460015" lon="6.1987768472264735"><ele>695.0</ele><time>2026-04-22T13:20:25.001Z</time></trkpt><trkpt lat="43.858463253655884" lon="6.19878091485039"><ele>695.0</ele><time>2026-04-22T13:20:26.001Z</time></trkpt><trkpt lat="43.85853644638561" lon="6.1987057366458655"><ele>695.0</ele><time>2026-04-22T13:20:27.001Z</time></trkpt><trkpt lat="43.85855216431748" lon="6.198566322485625"><ele>695.0</ele><time>2026-04-22T13:20:28.002Z</time></trkpt><trkpt lat="43.85851194756481" lon="6.198438823827065"><ele>695.0</ele><time>2026-04-22T13:20:29.002Z</time></trkpt><trkpt lat="43.85843492544073" lon="6.198338127226063"><ele>695.0</ele><time>2026-04-22T13:20:30.002Z</time></trkpt><trkpt lat="43.85833164548851" lon="6.198251900226349"><ele>695.0</ele><time>2026-04-22T13:20:31.002Z</time></trkpt><trkpt lat="43.858229123495256" lon="6.198125450631769"><ele>699.0</ele><time>2026-04-22T13:20:32.002Z</time></trkpt><trkpt lat="43.85814175494186" lon="6.197960473358229"><ele>703.0</ele><time>2026-04-22T13:20:33.002Z</time></trkpt><trkpt lat="43.858049129242396" lon="6.19776430225529"><ele>707.0</ele><time>2026-04-22T13:20:34.002Z</time></trkpt><trkpt lat="43.85793305942055" lon="6.197572558334133"><ele>707.0</ele><time>2026-04-22T13:20:35.002Z</time></trkpt><trkpt lat="43.85779177221225" lon="6.197419315006466"><ele>707.0</ele><time>2026-04-22T13:20:36.002Z</time></trkpt><trkpt lat="43.85763320734895" lon="6.197315823710095"><ele>707.0</ele><time>2026-04-22T13:20:37.002Z</time></trkpt><trkpt lat="43.85749009364665" lon="6.197245595218932"><ele>708.3333333333333</ele><time>2026-04-22T13:20:38.002Z</time></trkpt><trkpt lat="43.85737213440041" lon="6.1971335097767675"><ele>709.6666666666666</ele><time>2026-04-22T13:20:39.002Z</time></trkpt><trkpt lat="43.8572803418551" lon="6.196966946512316"><ele>711.0</ele><time>2026-04-22T13:20:40.002Z</time></trkpt><trkpt lat="43.857202181055776" lon="6.196778555102904"><ele>711.0</ele><time>2026-04-22T13:20:41.002Z</time></trkpt><trkpt lat="43.85711205314902" lon="6.196571741541658"><ele>711.0</ele><time>2026-04-22T13:20:42.002Z</time></trkpt><trkpt lat="43.85702821280639" lon="6.1963412531062145"><ele>711.0</ele><time>2026-04-22T13:20:43.002Z</time></trkpt><trkpt lat="43.85695077843227" lon="6.19608926443053"><ele>712.3333333333334</ele><time>2026-04-22T13:20:44.002Z</time></trkpt><trkpt lat="43.85686902855711" lon="6.195816020377631"><ele>713.6666666666667</ele><time>2026-04-22T13:20:45.002Z</time></trkpt><trkpt lat="43.8567670753305" lon="6.1955621690305245"><ele>715.0</ele><time>2026-04-22T13:20:46.002Z</time></trkpt><trkpt lat="43.85666491992959" lon="6.195294441340013"><ele>715.0</ele><time>2026-04-22T13:20:47.002Z</time></trkpt><trkpt lat="43.85653543553991" lon="6.195042363390975"><ele>715.0</ele><time>2026-04-22T13:20:48.002Z</time></trkpt><trkpt lat="43.85639510238674" lon="6.194769803842342"><ele>723.5</ele><time>2026-04-22T13:20:49.002Z</time></trkpt><trkpt lat="43.856253387196766" lon="6.194488453937183"><ele>732.0</ele><time>2026-04-22T13:20:50.002Z</time></trkpt><trkpt lat="43.85611927710687" lon="6.1941925384262015"><ele>728.5</ele><time>2026-04-22T13:20:51.002Z</time></trkpt><trkpt lat="43.85598381175742" lon="6.193895598127838"><ele>725.0</ele><time>2026-04-22T13:20:52.002Z</time></trkpt><trkpt lat="43.8558477369634" lon="6.193600089021694"><ele>725.0</ele><time>2026-04-22T13:20:53.002Z</time></trkpt><trkpt lat="43.85571119435145" lon="6.193304457800265"><ele>725.0</ele><time>2026-04-22T13:20:54.002Z</time></trkpt><trkpt lat="43.855582536957506" lon="6.192998613933538"><ele>729.0</ele><time>2026-04-22T13:20:55.002Z</time></trkpt><trkpt lat="43.855443241241794" lon="6.1926995000922105"><ele>733.0</ele><time>2026-04-22T13:20:56.002Z</time></trkpt><trkpt lat="43.85532189594232" lon="6.192434135553826"><ele>733.0</ele><time>2026-04-22T13:20:57.002Z</time></trkpt><trkpt lat="43.855203943065575" lon="6.192175365286447"><ele>733.0</ele><time>2026-04-22T13:20:58.002Z</time></trkpt><trkpt lat="43.855094049892024" lon="6.191941424997868"><ele>733.0</ele><time>2026-04-22T13:20:59.002Z</time></trkpt><trkpt lat="43.854996643283194" lon="6.191725449001385"><ele>729.3333333333334</ele><time>2026-04-22T13:21:00.002Z</time></trkpt><trkpt lat="43.85489527399749" lon="6.1915104783043935"><ele>725.6666666666666</ele><time>2026-04-22T13:21:01.002Z</time></trkpt><trkpt lat="43.854798890913166" lon="6.191283889399361"><ele>722.0</ele><time>2026-04-22T13:21:02.002Z</time></trkpt><trkpt lat="43.85467211076606" lon="6.191015883508865"><ele>721.5</ele><time>2026-04-22T13:21:03.001Z</time></trkpt><trkpt lat="43.85454664361687" lon="6.190740178817991"><ele>721.0</ele><time>2026-04-22T13:21:04.001Z</time></trkpt><trkpt lat="43.85441233384295" lon="6.19044318776401"><ele>718.0</ele><time>2026-04-22T13:21:05.001Z</time></trkpt><trkpt lat="43.854269083617936" lon="6.190135214785487"><ele>715.0</ele><time>2026-04-22T13:21:06.001Z</time></trkpt><trkpt lat="43.8541172273168" lon="6.18981846039757"><ele>714.5</ele><time>2026-04-22T13:21:07.001Z</time></trkpt><trkpt lat="43.853961361301685" lon="6.189485370265989"><ele>714.0</ele><time>2026-04-22T13:21:08.001Z</time></trkpt><trkpt lat="43.8538006585329" lon="6.189142274130063"><ele>711.5</ele><time>2026-04-22T13:21:09.001Z</time></trkpt><trkpt lat="43.85364080092725" lon="6.188797265002456"><ele>709.0</ele><time>2026-04-22T13:21:10.001Z</time></trkpt><trkpt lat="43.85347514405199" lon="6.188442586607709"><ele>708.5</ele><time>2026-04-22T13:21:11.001Z</time></trkpt><trkpt lat="43.85330534202335" lon="6.188079633009845"><ele>708.0</ele><time>2026-04-22T13:21:12.001Z</time></trkpt><trkpt lat="43.85313705219631" lon="6.187712088826389"><ele>706.5</ele><time>2026-04-22T13:21:13.001Z</time></trkpt><trkpt lat="43.852967095744795" lon="6.187343610502583"><ele>705.0</ele><time>2026-04-22T13:21:14.001Z</time></trkpt><trkpt lat="43.85279788048446" lon="6.1869833450715035"><ele>705.0</ele><time>2026-04-22T13:21:15.001Z</time></trkpt><trkpt lat="43.852635486826316" lon="6.186632131474287"><ele>705.0</ele><time>2026-04-22T13:21:16.001Z</time></trkpt><trkpt lat="43.852478160406775" lon="6.186285356454749"><ele>703.0</ele><time>2026-04-22T13:21:17.001Z</time></trkpt><trkpt lat="43.852318871744515" lon="6.185940515620566"><ele>701.0</ele><time>2026-04-22T13:21:18.001Z</time></trkpt><trkpt lat="43.85217508252277" lon="6.185598204456726"><ele>701.0</ele><time>2026-04-22T13:21:19.001Z</time></trkpt><trkpt lat="43.85204771221613" lon="6.185245524671948"><ele>701.0</ele><time>2026-04-22T13:21:20.001Z</time></trkpt><trkpt lat="43.85194981255083" lon="6.184893611622187"><ele>701.0</ele><time>2026-04-22T13:21:21.001Z</time></trkpt><trkpt lat="43.85188365712048" lon="6.184540598530963"><ele>701.0</ele><time>2026-04-22T13:21:22.001Z</time></trkpt><trkpt lat="43.85184973406749" lon="6.184186474983353"><ele>699.0</ele><time>2026-04-22T13:21:23.001Z</time></trkpt><trkpt lat="43.85184511047643" lon="6.183823920804087"><ele>697.0</ele><time>2026-04-22T13:21:24.001Z</time></trkpt><trkpt lat="43.85186560547258" lon="6.183445025018872"><ele>696.5</ele><time>2026-04-22T13:21:25.001Z</time></trkpt><trkpt lat="43.85191155752359" lon="6.183081208036606"><ele>696.0</ele><time>2026-04-22T13:21:26.001Z</time></trkpt><trkpt lat="43.85197115863145" lon="6.1827178626137576"><ele>696.0</ele><time>2026-04-22T13:21:27.001Z</time></trkpt><trkpt lat="43.852060096426804" lon="6.1823682878376545"><ele>696.0</ele><time>2026-04-22T13:21:28.001Z</time></trkpt><trkpt lat="43.852160028410275" lon="6.182019401213222"><ele>695.0</ele><time>2026-04-22T13:21:29.001Z</time></trkpt><trkpt lat="43.8522660696415" lon="6.181658618874919"><ele>694.0</ele><time>2026-04-22T13:21:30.001Z</time></trkpt><trkpt lat="43.85237710934148" lon="6.181297517557473"><ele>694.0</ele><time>2026-04-22T13:21:31.001Z</time></trkpt><trkpt lat="43.85248992175554" lon="6.180990032929436"><ele>694.0</ele><time>2026-04-22T13:21:32.001Z</time></trkpt><trkpt lat="43.85252491560576" lon="6.180593973502938"><ele>692.5</ele><time>2026-04-22T13:21:33.001Z</time></trkpt><trkpt lat="43.852549681089975" lon="6.180254610511202"><ele>691.0</ele><time>2026-04-22T13:21:34.001Z</time></trkpt><trkpt lat="43.85254815963148" lon="6.179920810809843"><ele>691.5</ele><time>2026-04-22T13:21:35.001Z</time></trkpt><trkpt lat="43.85250983915512" lon="6.179581167401987"><ele>692.0</ele><time>2026-04-22T13:21:36.001Z</time></trkpt><trkpt lat="43.852431860577546" lon="6.1792482905478705"><ele>692.0</ele><time>2026-04-22T13:21:37.001Z</time></trkpt><trkpt lat="43.85231969909717" lon="6.178909106341459"><ele>692.0</ele><time>2026-04-22T13:21:38.001Z</time></trkpt><trkpt lat="43.852188721995795" lon="6.178572897744964"><ele>692.0</ele><time>2026-04-22T13:21:39.001Z</time></trkpt><trkpt lat="43.85205198753716" lon="6.178227345290286"><ele>692.0</ele><time>2026-04-22T13:21:40.001Z</time></trkpt><trkpt lat="43.85191388602441" lon="6.17787007294219"><ele>688.0</ele><time>2026-04-22T13:21:41.001Z</time></trkpt><trkpt lat="43.85178239392496" lon="6.17750343374618"><ele>684.0</ele><time>2026-04-22T13:21:42.001Z</time></trkpt><trkpt lat="43.85165110119848" lon="6.177145877046199"><ele>684.0</ele><time>2026-04-22T13:21:43.001Z</time></trkpt><trkpt lat="43.851527420826905" lon="6.1768025569445655"><ele>684.0</ele><time>2026-04-22T13:21:44.001Z</time></trkpt><trkpt lat="43.85140957686991" lon="6.176476828945454"><ele>685.5</ele><time>2026-04-22T13:21:45.001Z</time></trkpt><trkpt lat="43.85130369369346" lon="6.176173259082865"><ele>687.0</ele><time>2026-04-22T13:21:46.001Z</time></trkpt><trkpt lat="43.851197799494095" lon="6.175879897344404"><ele>687.0</ele><time>2026-04-22T13:21:47.001Z</time></trkpt><trkpt lat="43.85110937190423" lon="6.175589638436851"><ele>687.0</ele><time>2026-04-22T13:21:48.001Z</time></trkpt><trkpt lat="43.851045063812116" lon="6.1752951448671185"><ele>687.0</ele><time>2026-04-22T13:21:49.001Z</time></trkpt><trkpt lat="43.85100072549908" lon="6.1749985821398035"><ele>687.3333333333334</ele><time>2026-04-22T13:21:50.001Z</time></trkpt><trkpt lat="43.85097446622325" lon="6.174696642669827"><ele>687.6666666666667</ele><time>2026-04-22T13:21:51.001Z</time></trkpt><trkpt lat="43.85094464219075" lon="6.174396994465686"><ele>688.0</ele><time>2026-04-22T13:21:52.001Z</time></trkpt><trkpt lat="43.85091532590109" lon="6.174094569127591"><ele>683.6666666666667</ele><time>2026-04-22T13:21:53.001Z</time></trkpt><trkpt lat="43.8508836317999" lon="6.173793173269072"><ele>679.3333333333334</ele><time>2026-04-22T13:21:54.001Z</time></trkpt><trkpt lat="43.85084938855315" lon="6.173482810003956"><ele>675.0</ele><time>2026-04-22T13:21:55.001Z</time></trkpt><trkpt lat="43.85080800473068" lon="6.173177706171227"><ele>674.0</ele><time>2026-04-22T13:21:56.001Z</time></trkpt><trkpt lat="43.85075476389833" lon="6.172878483453867"><ele>673.0</ele><time>2026-04-22T13:21:57.001Z</time></trkpt><trkpt lat="43.850675079370234" lon="6.17257896544988"><ele>673.5</ele><time>2026-04-22T13:21:58.001Z</time></trkpt><trkpt lat="43.85056772753445" lon="6.1722997377651305"><ele>674.0</ele><time>2026-04-22T13:21:59.001Z</time></trkpt><trkpt lat="43.8504391068227" lon="6.172049275488552"><ele>674.0</ele><time>2026-04-22T13:22:00.001Z</time></trkpt><trkpt lat="43.85028554074941" lon="6.1718219672865935"><ele>674.0</ele><time>2026-04-22T13:22:01.001Z</time></trkpt><trkpt lat="43.8501186881768" lon="6.171627424161902"><ele>674.0</ele><time>2026-04-22T13:22:02.001Z</time></trkpt><trkpt lat="43.84994328269273" lon="6.171463300797306"><ele>674.0</ele><time>2026-04-22T13:22:03.001Z</time></trkpt><trkpt lat="43.8497657684356" lon="6.171313092339241"><ele>674.0</ele><time>2026-04-22T13:22:04.001Z</time></trkpt><trkpt lat="43.849587670521785" lon="6.1711657664914785"><ele>674.0</ele><time>2026-04-22T13:22:05.001Z</time></trkpt><trkpt lat="43.849425228073166" lon="6.171003104586654"><ele>671.6666666666666</ele><time>2026-04-22T13:22:06.001Z</time></trkpt><trkpt lat="43.849284925880625" lon="6.170804106260735"><ele>669.3333333333334</ele><time>2026-04-22T13:22:07.001Z</time></trkpt><trkpt lat="43.849161287533846" lon="6.170588463355015"><ele>667.0</ele><time>2026-04-22T13:22:08.001Z</time></trkpt><trkpt lat="43.84905144300887" lon="6.170349491933244"><ele>667.0</ele><time>2026-04-22T13:22:09.001Z</time></trkpt><trkpt lat="43.8489617564863" lon="6.17007753004548"><ele>667.0</ele><time>2026-04-22T13:22:10.001Z</time></trkpt><trkpt lat="43.848888066861086" lon="6.16978731120075"><ele>667.0</ele><time>2026-04-22T13:22:11.001Z</time></trkpt><trkpt lat="43.8488214607876" lon="6.1694932808614436"><ele>667.3333333333334</ele><time>2026-04-22T13:22:12.001Z</time></trkpt><trkpt lat="43.848754125178246" lon="6.169209749847425"><ele>667.6666666666666</ele><time>2026-04-22T13:22:13.001Z</time></trkpt><trkpt lat="43.84866369151804" lon="6.168929458794865"><ele>668.0</ele><time>2026-04-22T13:22:14.001Z</time></trkpt><trkpt lat="43.848548151331485" lon="6.168663083191924"><ele>665.5</ele><time>2026-04-22T13:22:15.001Z</time></trkpt><trkpt lat="43.84840358823443" lon="6.168412764002778"><ele>663.0</ele><time>2026-04-22T13:22:16.001Z</time></trkpt><trkpt lat="43.84824138808802" lon="6.168151763283378"><ele>663.0</ele><time>2026-04-22T13:22:17.001Z</time></trkpt><trkpt lat="43.84807821062452" lon="6.1678714532603065"><ele>663.0</ele><time>2026-04-22T13:22:18.001Z</time></trkpt><trkpt lat="43.847916126809125" lon="6.1675827980963"><ele>664.0</ele><time>2026-04-22T13:22:19.001Z</time></trkpt><trkpt lat="43.8477506926826" lon="6.1672811966169"><ele>665.0</ele><time>2026-04-22T13:22:20.001Z</time></trkpt><trkpt lat="43.84758599579923" lon="6.166967797634506"><ele>661.0</ele><time>2026-04-22T13:22:21.001Z</time></trkpt><trkpt lat="43.84741629655762" lon="6.166644791641607"><ele>657.0</ele><time>2026-04-22T13:22:22.001Z</time></trkpt><trkpt lat="43.84724484635108" lon="6.1663102162903645"><ele>657.0</ele><time>2026-04-22T13:22:23.001Z</time></trkpt><trkpt lat="43.84706875018476" lon="6.1659719083333195"><ele>657.0</ele><time>2026-04-22T13:22:24.001Z</time></trkpt><trkpt lat="43.84689433826823" lon="6.165638648730809"><ele>654.5</ele><time>2026-04-22T13:22:25.001Z</time></trkpt><trkpt lat="43.84672229444463" lon="6.165316906029473"><ele>652.0</ele><time>2026-04-22T13:22:26.001Z</time></trkpt><trkpt lat="43.84655756557208" lon="6.165010620747646"><ele>654.5</ele><time>2026-04-22T13:22:27.001Z</time></trkpt><trkpt lat="43.84640197865747" lon="6.164718456245535"><ele>657.0</ele><time>2026-04-22T13:22:28.001Z</time></trkpt><trkpt lat="43.846251410009955" lon="6.164438397639795"><ele>657.0</ele><time>2026-04-22T13:22:29.001Z</time></trkpt><trkpt lat="43.84610180637586" lon="6.1641623424604095"><ele>657.0</ele><time>2026-04-22T13:22:30.001Z</time></trkpt><trkpt lat="43.845951193940536" lon="6.163880768805318"><ele>655.0</ele><time>2026-04-22T13:22:31.001Z</time></trkpt><trkpt lat="43.84580228954508" lon="6.163598577289218"><ele>653.0</ele><time>2026-04-22T13:22:32.001Z</time></trkpt><trkpt lat="43.845652711984876" lon="6.163313681211316"><ele>655.5</ele><time>2026-04-22T13:22:33.001Z</time></trkpt><trkpt lat="43.84549938029826" lon="6.163031193922881"><ele>658.0</ele><time>2026-04-22T13:22:34.001Z</time></trkpt><trkpt lat="43.84534907033358" lon="6.1627626485298785"><ele>658.0</ele><time>2026-04-22T13:22:35.001Z</time></trkpt><trkpt lat="43.84520604086772" lon="6.162517132644484"><ele>658.0</ele><time>2026-04-22T13:22:36.001Z</time></trkpt><trkpt lat="43.84507244608074" lon="6.162288917223594"><ele>658.0</ele><time>2026-04-22T13:22:37.001Z</time></trkpt><trkpt lat="43.84494987855388" lon="6.162071882792652"><ele>656.0</ele><time>2026-04-22T13:22:38.001Z</time></trkpt><trkpt lat="43.844835656074956" lon="6.1618735479721565"><ele>654.0</ele><time>2026-04-22T13:22:39.001Z</time></trkpt><trkpt lat="43.84471410162831" lon="6.161694955145536"><ele>652.0</ele><time>2026-04-22T13:22:40.001Z</time></trkpt><trkpt lat="43.84457274547127" lon="6.161556394547114"><ele>653.3333333333334</ele><time>2026-04-22T13:22:41.001Z</time></trkpt><trkpt lat="43.84442582684908" lon="6.161471816589331"><ele>654.6666666666666</ele><time>2026-04-22T13:22:42.001Z</time></trkpt><trkpt lat="43.84427615575049" lon="6.161433412195307"><ele>656.0</ele><time>2026-04-22T13:22:43.001Z</time></trkpt><trkpt lat="43.84411902992327" lon="6.161435098255635"><ele>653.3333333333333</ele><time>2026-04-22T13:22:44.001Z</time></trkpt><trkpt lat="43.84394524143833" lon="6.161451064285315"><ele>650.6666666666666</ele><time>2026-04-22T13:22:45.001Z</time></trkpt><trkpt lat="43.843761970132476" lon="6.16142988527074"><ele>648.0</ele><time>2026-04-22T13:22:46.001Z</time></trkpt><trkpt lat="43.84358014156171" lon="6.1613534514890675"><ele>646.3333333333334</ele><time>2026-04-22T13:22:47.001Z</time></trkpt><trkpt lat="43.84339502426251" lon="6.161244906417797"><ele>644.6666666666667</ele><time>2026-04-22T13:22:48.002Z</time></trkpt><trkpt lat="43.84320177428219" lon="6.161128907027793"><ele>643.0</ele><time>2026-04-22T13:22:49.002Z</time></trkpt><trkpt lat="43.84301494211951" lon="6.161010088183676"><ele>643.0</ele><time>2026-04-22T13:22:50.002Z</time></trkpt><trkpt lat="43.84285321804255" lon="6.160869477338603"><ele>643.0</ele><time>2026-04-22T13:22:51.002Z</time></trkpt><trkpt lat="43.84272818001812" lon="6.16070511473552"><ele>643.0</ele><time>2026-04-22T13:22:52.002Z</time></trkpt><trkpt lat="43.84262108609641" lon="6.160507031501754"><ele>641.6666666666667</ele><time>2026-04-22T13:22:53.002Z</time></trkpt><trkpt lat="43.842492904409475" lon="6.160296033258033"><ele>640.3333333333334</ele><time>2026-04-22T13:22:54.002Z</time></trkpt><trkpt lat="43.8423328611319" lon="6.160099754732859"><ele>639.0</ele><time>2026-04-22T13:22:55.002Z</time></trkpt><trkpt lat="43.84216581525335" lon="6.159930737933818"><ele>639.3333333333334</ele><time>2026-04-22T13:22:56.002Z</time></trkpt><trkpt lat="43.84203214993803" lon="6.159752207330008"><ele>639.6666666666667</ele><time>2026-04-22T13:22:57.002Z</time></trkpt><trkpt lat="43.84193442196724" lon="6.159534224885749"><ele>640.0</ele><time>2026-04-22T13:22:58.002Z</time></trkpt><trkpt lat="43.84185830086153" lon="6.159296931074624"><ele>638.3333333333334</ele><time>2026-04-22T13:22:59.002Z</time></trkpt><trkpt lat="43.84177244853127" lon="6.159078474784035"><ele>636.6666666666666</ele><time>2026-04-22T13:23:00.002Z</time></trkpt><trkpt lat="43.8416510223769" lon="6.158896312826317"><ele>635.0</ele><time>2026-04-22T13:23:01.002Z</time></trkpt><trkpt lat="43.84148587510644" lon="6.158743994126913"><ele>635.0</ele><time>2026-04-22T13:23:02.002Z</time></trkpt><trkpt lat="43.841290489534614" lon="6.158618288275364"><ele>635.0</ele><time>2026-04-22T13:23:03.002Z</time></trkpt><trkpt lat="43.8410736092018" lon="6.158514930681051"><ele>635.0</ele><time>2026-04-22T13:23:04.002Z</time></trkpt><trkpt lat="43.84086086639826" lon="6.158428886250838"><ele>634.3333333333333</ele><time>2026-04-22T13:23:05.002Z</time></trkpt><trkpt lat="43.84066373424086" lon="6.158349899101689"><ele>633.6666666666666</ele><time>2026-04-22T13:23:06.002Z</time></trkpt><trkpt lat="43.840489498666024" lon="6.158255723878937"><ele>633.0</ele><time>2026-04-22T13:23:07.002Z</time></trkpt><trkpt lat="43.840334531368825" lon="6.158132378669999"><ele>633.0</ele><time>2026-04-22T13:23:08.002Z</time></trkpt><trkpt lat="43.84019151502988" lon="6.157957475251508"><ele>633.0</ele><time>2026-04-22T13:23:09.001Z</time></trkpt><trkpt lat="43.840066840173975" lon="6.157743156529827"><ele>633.0</ele><time>2026-04-22T13:23:10.001Z</time></trkpt><trkpt lat="43.83993410292909" lon="6.157512757861135"><ele>631.0</ele><time>2026-04-22T13:23:11.001Z</time></trkpt><trkpt lat="43.839767719006346" lon="6.157304112819958"><ele>629.0</ele><time>2026-04-22T13:23:12.001Z</time></trkpt><trkpt lat="43.8395756342614" lon="6.157122643219002"><ele>629.0</ele><time>2026-04-22T13:23:13.001Z</time></trkpt><trkpt lat="43.83938538529897" lon="6.156944604151321"><ele>629.0</ele><time>2026-04-22T13:23:14.001Z</time></trkpt><trkpt lat="43.83922424076764" lon="6.156765591591506"><ele>629.0</ele><time>2026-04-22T13:23:15.001Z</time></trkpt><trkpt lat="43.839088581824356" lon="6.15655165291072"><ele>628.6666666666666</ele><time>2026-04-22T13:23:16.001Z</time></trkpt><trkpt lat="43.83897843462477" lon="6.156309413901305"><ele>628.3333333333334</ele><time>2026-04-22T13:23:17.001Z</time></trkpt><trkpt lat="43.83888439244491" lon="6.1560392850646855"><ele>628.0</ele><time>2026-04-22T13:23:18.001Z</time></trkpt><trkpt lat="43.838791156407694" lon="6.155746151110371"><ele>627.0</ele><time>2026-04-22T13:23:19.001Z</time></trkpt><trkpt lat="43.83868815863134" lon="6.155443910676548"><ele>626.0</ele><time>2026-04-22T13:23:20.001Z</time></trkpt><trkpt lat="43.83856305485652" lon="6.155147536013274"><ele>627.0</ele><time>2026-04-22T13:23:21.001Z</time></trkpt><trkpt lat="43.83843632996701" lon="6.154835653843781"><ele>628.0</ele><time>2026-04-22T13:23:22.001Z</time></trkpt><trkpt lat="43.838323906364344" lon="6.154494256805761"><ele>628.0</ele><time>2026-04-22T13:23:23.001Z</time></trkpt><trkpt lat="43.83823500366425" lon="6.15414209546922"><ele>628.0</ele><time>2026-04-22T13:23:24.001Z</time></trkpt><trkpt lat="43.83816292977342" lon="6.15378733490894"><ele>626.5</ele><time>2026-04-22T13:23:25.001Z</time></trkpt><trkpt lat="43.83811412824979" lon="6.153428367664726"><ele>625.0</ele><time>2026-04-22T13:23:26.001Z</time></trkpt><trkpt lat="43.83808218712375" lon="6.153067034161363"><ele>624.0</ele><time>2026-04-22T13:23:27.001Z</time></trkpt><trkpt lat="43.83805369375868" lon="6.152712251080059"><ele>623.0</ele><time>2026-04-22T13:23:28.001Z</time></trkpt><trkpt lat="43.83800473754272" lon="6.1523493691862114"><ele>622.0</ele><time>2026-04-22T13:23:29.001Z</time></trkpt><trkpt lat="43.83794046682088" lon="6.15199540987705"><ele>621.0</ele><time>2026-04-22T13:23:30.001Z</time></trkpt><trkpt lat="43.837860851134984" lon="6.151664260744469"><ele>620.5</ele><time>2026-04-22T13:23:31.001Z</time></trkpt><trkpt lat="43.83777639311923" lon="6.151361302284521"><ele>620.0</ele><time>2026-04-22T13:23:32.001Z</time></trkpt><trkpt lat="43.8376936742864" lon="6.151084965660378"><ele>621.3333333333333</ele><time>2026-04-22T13:23:33.001Z</time></trkpt><trkpt lat="43.83760975147046" lon="6.150829448428211"><ele>622.6666666666666</ele><time>2026-04-22T13:23:34.001Z</time></trkpt><trkpt lat="43.8375579767633" lon="6.150585769146483"><ele>624.0</ele><time>2026-04-22T13:23:35.001Z</time></trkpt><trkpt lat="43.83754662795681" lon="6.150335085299247"><ele>624.0</ele><time>2026-04-22T13:23:36.001Z</time></trkpt><trkpt lat="43.83756338124143" lon="6.150078425995635"><ele>624.0</ele><time>2026-04-22T13:23:37.001Z</time></trkpt><trkpt lat="43.83758814409624" lon="6.149793724628177"><ele>624.0</ele><time>2026-04-22T13:23:38.001Z</time></trkpt><trkpt lat="43.837597349046305" lon="6.149493637261744"><ele>624.0</ele><time>2026-04-22T13:23:39.001Z</time></trkpt><trkpt lat="43.83758737215556" lon="6.1491755154882535"><ele>624.0</ele><time>2026-04-22T13:23:40.001Z</time></trkpt><trkpt lat="43.837580448660624" lon="6.148847999426951"><ele>624.0</ele><time>2026-04-22T13:23:41.001Z</time></trkpt><trkpt lat="43.837588732667115" lon="6.148530201408273"><ele>624.0</ele><time>2026-04-22T13:23:42.001Z</time></trkpt><trkpt lat="43.83759848564447" lon="6.148241006626241"><ele>624.0</ele><time>2026-04-22T13:23:43.001Z</time></trkpt><trkpt lat="43.837617357443136" lon="6.147959006331114"><ele>624.3333333333334</ele><time>2026-04-22T13:23:44.001Z</time></trkpt><trkpt lat="43.83762831083341" lon="6.147685247101415"><ele>624.6666666666667</ele><time>2026-04-22T13:23:45.001Z</time></trkpt><trkpt lat="43.83761157746004" lon="6.147405477579463"><ele>625.0</ele><time>2026-04-22T13:23:46.001Z</time></trkpt><trkpt lat="43.83757059557915" lon="6.147130816079409"><ele>623.0</ele><time>2026-04-22T13:23:47.001Z</time></trkpt><trkpt lat="43.837504075072104" lon="6.146860774400927"><ele>621.0</ele><time>2026-04-22T13:23:48.001Z</time></trkpt><trkpt lat="43.8374181066117" lon="6.146597538716158"><ele>619.0</ele><time>2026-04-22T13:23:49.001Z</time></trkpt><trkpt lat="43.8373085110543" lon="6.146349484062345"><ele>617.3333333333334</ele><time>2026-04-22T13:23:50.001Z</time></trkpt><trkpt lat="43.8372136206812" lon="6.146095320191519"><ele>615.6666666666666</ele><time>2026-04-22T13:23:51.001Z</time></trkpt><trkpt lat="43.83715855907329" lon="6.1458290074000645"><ele>614.0</ele><time>2026-04-22T13:23:52.001Z</time></trkpt><trkpt lat="43.83712336198765" lon="6.145548919242647"><ele>613.6666666666666</ele><time>2026-04-22T13:23:53.001Z</time></trkpt><trkpt lat="43.83706229928561" lon="6.145282045971133"><ele>613.3333333333334</ele><time>2026-04-22T13:23:54.001Z</time></trkpt><trkpt lat="43.83695891882101" lon="6.145029402622657"><ele>613.0</ele><time>2026-04-22T13:23:55.001Z</time></trkpt><trkpt lat="43.83683854138134" lon="6.144788027900992"><ele>613.6666666666667</ele><time>2026-04-22T13:23:56.001Z</time></trkpt><trkpt lat="43.836723008809265" lon="6.144552713444951"><ele>614.3333333333334</ele><time>2026-04-22T13:23:57.001Z</time></trkpt><trkpt lat="43.836626523663575" lon="6.144311219875307"><ele>615.0</ele><time>2026-04-22T13:23:58.001Z</time></trkpt><trkpt lat="43.83653941965792" lon="6.1440734431872"><ele>613.6666666666666</ele><time>2026-04-22T13:23:59.001Z</time></trkpt><trkpt lat="43.83644459896953" lon="6.143860672652129"><ele>612.3333333333333</ele><time>2026-04-22T13:24:00.001Z</time></trkpt><trkpt lat="43.8363106876238" lon="6.143670249736159"><ele>611.0</ele><time>2026-04-22T13:24:01.001Z</time></trkpt><trkpt lat="43.836160436764274" lon="6.143493284050834"><ele>611.0</ele><time>2026-04-22T13:24:02.001Z</time></trkpt><trkpt lat="43.83600054034426" lon="6.143323328577429"><ele>611.0</ele><time>2026-04-22T13:24:03.001Z</time></trkpt><trkpt lat="43.835854750298445" lon="6.143141556616678"><ele>611.0</ele><time>2026-04-22T13:24:04.001Z</time></trkpt><trkpt lat="43.835715682179206" lon="6.142943240193631"><ele>610.6666666666666</ele><time>2026-04-22T13:24:05.001Z</time></trkpt><trkpt lat="43.83557761316996" lon="6.142742272736319"><ele>610.3333333333334</ele><time>2026-04-22T13:24:06.001Z</time></trkpt><trkpt lat="43.83540818149718" lon="6.14255925340903"><ele>610.0</ele><time>2026-04-22T13:24:07.001Z</time></trkpt><trkpt lat="43.83521598600708" lon="6.142396070309291"><ele>609.0</ele><time>2026-04-22T13:24:08.001Z</time></trkpt><trkpt lat="43.835011596359806" lon="6.14223629846812"><ele>608.0</ele><time>2026-04-22T13:24:09.001Z</time></trkpt><trkpt lat="43.83481666867892" lon="6.142044791373837"><ele>608.0</ele><time>2026-04-22T13:24:10.001Z</time></trkpt><trkpt lat="43.83462879273062" lon="6.141829894355992"><ele>608.0</ele><time>2026-04-22T13:24:11.001Z</time></trkpt><trkpt lat="43.83444189552692" lon="6.141614997915855"><ele>606.5</ele><time>2026-04-22T13:24:12.001Z</time></trkpt><trkpt lat="43.83423331834426" lon="6.141417962670041"><ele>605.0</ele><time>2026-04-22T13:24:13.001Z</time></trkpt><trkpt lat="43.83402697688927" lon="6.1412539495110074"><ele>605.0</ele><time>2026-04-22T13:24:14.001Z</time></trkpt><trkpt lat="43.83380249767272" lon="6.14111887236979"><ele>605.0</ele><time>2026-04-22T13:24:15.001Z</time></trkpt><trkpt lat="43.83356599086208" lon="6.141008198246036"><ele>605.3333333333333</ele><time>2026-04-22T13:24:16.001Z</time></trkpt><trkpt lat="43.83333523860421" lon="6.140934854675459"><ele>605.6666666666666</ele><time>2026-04-22T13:24:17.001Z</time></trkpt><trkpt lat="43.833147853945384" lon="6.140883377057204"><ele>606.0</ele><time>2026-04-22T13:24:18.001Z</time></trkpt><trkpt lat="43.83299233944991" lon="6.140878648335698"><ele>606.0</ele><time>2026-04-22T13:24:19.001Z</time></trkpt><trkpt lat="43.832848428235685" lon="6.140939116557594"><ele>606.0</ele><time>2026-04-22T13:24:20.001Z</time></trkpt><trkpt lat="43.832709525057176" lon="6.141043239770779"><ele>606.0</ele><time>2026-04-22T13:24:21.001Z</time></trkpt><trkpt lat="43.83259415874948" lon="6.141212955336403"><ele>605.0</ele><time>2026-04-22T13:24:22.001Z</time></trkpt><trkpt lat="43.83249947342462" lon="6.1414272204798"><ele>604.0</ele><time>2026-04-22T13:24:23.001Z</time></trkpt><trkpt lat="43.832418291928114" lon="6.141627808801384"><ele>603.0</ele><time>2026-04-22T13:24:24.001Z</time></trkpt><trkpt lat="43.832315385452574" lon="6.141776228689959"><ele>605.0</ele><time>2026-04-22T13:24:25.001Z</time></trkpt><trkpt lat="43.83219271814063" lon="6.141867287209873"><ele>607.0</ele><time>2026-04-22T13:24:26.001Z</time></trkpt><trkpt lat="43.83205486244482" lon="6.141905713360447"><ele>609.0</ele><time>2026-04-22T13:24:27.001Z</time></trkpt><trkpt lat="43.83191201272531" lon="6.141868489406009"><ele>611.0</ele><time>2026-04-22T13:24:28.001Z</time></trkpt><trkpt lat="43.83176987772335" lon="6.141803620880779"><ele>611.0</ele><time>2026-04-22T13:24:29.001Z</time></trkpt><trkpt lat="43.83164188346972" lon="6.1416640317652815"><ele>611.0</ele><time>2026-04-22T13:24:30.001Z</time></trkpt><trkpt lat="43.83153121386071" lon="6.14148214712779"><ele>611.0</ele><time>2026-04-22T13:24:31.001Z</time></trkpt><trkpt lat="43.83143226320147" lon="6.141279283214045"><ele>609.0</ele><time>2026-04-22T13:24:32.001Z</time></trkpt><trkpt lat="43.831327462088375" lon="6.141076599488156"><ele>607.0</ele><time>2026-04-22T13:24:33.001Z</time></trkpt><trkpt lat="43.831216555636736" lon="6.140877799027669"><ele>605.0</ele><time>2026-04-22T13:24:34.001Z</time></trkpt><trkpt lat="43.83108790635074" lon="6.140676644319166"><ele>604.3333333333333</ele><time>2026-04-22T13:24:35.001Z</time></trkpt><trkpt lat="43.830944300864104" lon="6.140473628074311"><ele>603.6666666666666</ele><time>2026-04-22T13:24:36.001Z</time></trkpt><trkpt lat="43.83078314773248" lon="6.140270352115277"><ele>603.0</ele><time>2026-04-22T13:24:37.001Z</time></trkpt><trkpt lat="43.83061788862985" lon="6.140082724119592"><ele>603.0</ele><time>2026-04-22T13:24:38.001Z</time></trkpt><trkpt lat="43.83043828474704" lon="6.139901680796326"><ele>603.0</ele><time>2026-04-22T13:24:39.001Z</time></trkpt><trkpt lat="43.83023232685817" lon="6.139748209155085"><ele>601.0</ele><time>2026-04-22T13:24:40.001Z</time></trkpt><trkpt lat="43.830016028387114" lon="6.139606342103184"><ele>599.0</ele><time>2026-04-22T13:24:41.001Z</time></trkpt><trkpt lat="43.82979675357897" lon="6.139444203801589"><ele>599.0</ele><time>2026-04-22T13:24:42.001Z</time></trkpt><trkpt lat="43.82958684387831" lon="6.139243663674958"><ele>599.0</ele><time>2026-04-22T13:24:43.001Z</time></trkpt><trkpt lat="43.8293860594881" lon="6.139031380193133"><ele>598.5</ele><time>2026-04-22T13:24:44.001Z</time></trkpt><trkpt lat="43.829191596728016" lon="6.138816510132535"><ele>598.0</ele><time>2026-04-22T13:24:45.001Z</time></trkpt><trkpt lat="43.82901099818846" lon="6.138605955324572"><ele>598.0</ele><time>2026-04-22T13:24:46.001Z</time></trkpt><trkpt lat="43.82883910616377" lon="6.1384181416798445"><ele>598.0</ele><time>2026-04-22T13:24:47.001Z</time></trkpt><trkpt lat="43.828662320193565" lon="6.138249457375925"><ele>598.0</ele><time>2026-04-22T13:24:48.001Z</time></trkpt><trkpt lat="43.828488011557305" lon="6.138087526481288"><ele>599.0</ele><time>2026-04-22T13:24:49.001Z</time></trkpt><trkpt lat="43.828330339200534" lon="6.137885701421054"><ele>600.0</ele><time>2026-04-22T13:24:50.001Z</time></trkpt><trkpt lat="43.82818066486211" lon="6.137629063085542"><ele>595.0</ele><time>2026-04-22T13:24:51.001Z</time></trkpt><trkpt lat="43.82802518931567" lon="6.137366023585892"><ele>590.0</ele><time>2026-04-22T13:24:52.001Z</time></trkpt><trkpt lat="43.827863101842844" lon="6.137109309373186"><ele>590.0</ele><time>2026-04-22T13:24:53.001Z</time></trkpt><trkpt lat="43.82770134637073" lon="6.136876969313812"><ele>590.0</ele><time>2026-04-22T13:24:54.001Z</time></trkpt><trkpt lat="43.827547811088344" lon="6.136645050893447"><ele>591.5</ele><time>2026-04-22T13:24:55.001Z</time></trkpt><trkpt lat="43.82740616663991" lon="6.136395657331944"><ele>593.0</ele><time>2026-04-22T13:24:56.001Z</time></trkpt><trkpt lat="43.8272675020285" lon="6.136124862904403"><ele>593.0</ele><time>2026-04-22T13:24:57.001Z</time></trkpt><trkpt lat="43.827151788954566" lon="6.135830731775138"><ele>593.0</ele><time>2026-04-22T13:24:58.001Z</time></trkpt><trkpt lat="43.82704666623733" lon="6.135504265968102"><ele>590.5</ele><time>2026-04-22T13:24:59.001Z</time></trkpt><trkpt lat="43.82696876217614" lon="6.135206511105974"><ele>588.0</ele><time>2026-04-22T13:25:00.001Z</time></trkpt><trkpt lat="43.82689916804817" lon="6.134904266737645"><ele>586.5</ele><time>2026-04-22T13:25:01.001Z</time></trkpt><trkpt lat="43.826844096506804" lon="6.134591249253985"><ele>585.0</ele><time>2026-04-22T13:25:02.001Z</time></trkpt><trkpt lat="43.826806959216796" lon="6.134267737182926"><ele>594.0</ele><time>2026-04-22T13:25:03.001Z</time></trkpt><trkpt lat="43.82679533553577" lon="6.133934024561874"><ele>603.0</ele><time>2026-04-22T13:25:04.001Z</time></trkpt><trkpt lat="43.8267825307627" lon="6.133582903886111"><ele>603.0</ele><time>2026-04-22T13:25:05.001Z</time></trkpt><trkpt lat="43.82676679663264" lon="6.133251504979199"><ele>603.0</ele><time>2026-04-22T13:25:06.001Z</time></trkpt><trkpt lat="43.82676056122541" lon="6.132945005087056"><ele>603.0</ele><time>2026-04-22T13:25:07.001Z</time></trkpt><trkpt lat="43.826764240061586" lon="6.1326558483537825"><ele>603.0</ele><time>2026-04-22T13:25:08.001Z</time></trkpt><trkpt lat="43.82677967867323" lon="6.132368386099003"><ele>603.0</ele><time>2026-04-22T13:25:09.001Z</time></trkpt><trkpt lat="43.82681097594819" lon="6.1320806189922274"><ele>596.0</ele><time>2026-04-22T13:25:10.002Z</time></trkpt><trkpt lat="43.8268369047796" lon="6.131810184223836"><ele>589.0</ele><time>2026-04-22T13:25:11.002Z</time></trkpt><trkpt lat="43.82685756328973" lon="6.131544101371575"><ele>582.0</ele><time>2026-04-22T13:25:12.002Z</time></trkpt><trkpt lat="43.826886100807485" lon="6.131272827613239"><ele>582.0</ele><time>2026-04-22T13:25:13.002Z</time></trkpt><trkpt lat="43.826916367502776" lon="6.13098958709494"><ele>582.0</ele><time>2026-04-22T13:25:14.002Z</time></trkpt><trkpt lat="43.826947130435094" lon="6.1307184103304255"><ele>582.0</ele><time>2026-04-22T13:25:15.001Z</time></trkpt><trkpt lat="43.82697175953217" lon="6.13046572197059"><ele>581.6666666666666</ele><time>2026-04-22T13:25:16.001Z</time></trkpt><trkpt lat="43.826995618064494" lon="6.130223690776225"><ele>581.3333333333333</ele><time>2026-04-22T13:25:17.001Z</time></trkpt><trkpt lat="43.82701616892281" lon="6.1300033125123194"><ele>581.0</ele><time>2026-04-22T13:25:18.001Z</time></trkpt><trkpt lat="43.82702166784686" lon="6.129795834608824"><ele>580.75</ele><time>2026-04-22T13:25:19.001Z</time></trkpt><trkpt lat="43.827009818232064" lon="6.12959560114359"><ele>580.5</ele><time>2026-04-22T13:25:20.001Z</time></trkpt><trkpt lat="43.82697786220247" lon="6.129400096769854"><ele>580.25</ele><time>2026-04-22T13:25:21.001Z</time></trkpt><trkpt lat="43.82693008544098" lon="6.129210566571853"><ele>580.0</ele><time>2026-04-22T13:25:22.001Z</time></trkpt><trkpt lat="43.82688188726263" lon="6.12902165028719"><ele>580.0</ele><time>2026-04-22T13:25:23.001Z</time></trkpt><trkpt lat="43.82683312343248" lon="6.128823276608953"><ele>580.0</ele><time>2026-04-22T13:25:24.001Z</time></trkpt><trkpt lat="43.826782472668555" lon="6.128626508184435"><ele>580.0</ele><time>2026-04-22T13:25:25.001Z</time></trkpt><trkpt lat="43.82672796095899" lon="6.128420961581246"><ele>580.0</ele><time>2026-04-22T13:25:26.001Z</time></trkpt><trkpt lat="43.826632451490156" lon="6.128205714538315"><ele>580.0</ele><time>2026-04-22T13:25:27.001Z</time></trkpt><trkpt lat="43.82650905132565" lon="6.1279615784833"><ele>580.0</ele><time>2026-04-22T13:25:28.001Z</time></trkpt><trkpt lat="43.82639249761965" lon="6.127712024338947"><ele>580.0</ele><time>2026-04-22T13:25:29.001Z</time></trkpt><trkpt lat="43.82627805852113" lon="6.127452157831127"><ele>580.0</ele><time>2026-04-22T13:25:30.001Z</time></trkpt><trkpt lat="43.8261785371014" lon="6.12719958445788"><ele>580.0</ele><time>2026-04-22T13:25:31.001Z</time></trkpt><trkpt lat="43.82609346456465" lon="6.126961897437395"><ele>579.0</ele><time>2026-04-22T13:25:32.001Z</time></trkpt><trkpt lat="43.82601471727457" lon="6.126757807187839"><ele>578.0</ele><time>2026-04-22T13:25:33.001Z</time></trkpt><trkpt lat="43.8259172346202" lon="6.1265487224530375"><ele>577.0</ele><time>2026-04-22T13:25:34.001Z</time></trkpt><trkpt lat="43.825792738824816" lon="6.126326062489056"><ele>576.3333333333334</ele><time>2026-04-22T13:25:35.001Z</time></trkpt><trkpt lat="43.82564998854457" lon="6.126106475007318"><ele>575.6666666666666</ele><time>2026-04-22T13:25:36.001Z</time></trkpt><trkpt lat="43.825499035364054" lon="6.1258884018915865"><ele>575.0</ele><time>2026-04-22T13:25:37.001Z</time></trkpt><trkpt lat="43.825344992317326" lon="6.1256713679898285"><ele>574.6666666666666</ele><time>2026-04-22T13:25:38.001Z</time></trkpt><trkpt lat="43.82519713205445" lon="6.125472645249093"><ele>574.3333333333334</ele><time>2026-04-22T13:25:39.001Z</time></trkpt><trkpt lat="43.82505146903568" lon="6.1252990777454075"><ele>574.0</ele><time>2026-04-22T13:25:40.001Z</time></trkpt><trkpt lat="43.824903184343796" lon="6.125139996825015"><ele>574.0</ele><time>2026-04-22T13:25:41.001Z</time></trkpt><trkpt lat="43.824762316715194" lon="6.12498103126303"><ele>574.0</ele><time>2026-04-22T13:25:42.001Z</time></trkpt><trkpt lat="43.82463838076075" lon="6.124820833459365"><ele>574.0</ele><time>2026-04-22T13:25:43.001Z</time></trkpt><trkpt lat="43.82451319038983" lon="6.124633515340862"><ele>574.0</ele><time>2026-04-22T13:25:44.001Z</time></trkpt><trkpt lat="43.82437671592615" lon="6.124425129349452"><ele>574.0</ele><time>2026-04-22T13:25:45.001Z</time></trkpt><trkpt lat="43.82422802840951" lon="6.124193187256394"><ele>574.0</ele><time>2026-04-22T13:25:46.001Z</time></trkpt><trkpt lat="43.824087504233525" lon="6.123941891776671"><ele>572.3333333333334</ele><time>2026-04-22T13:25:47.001Z</time></trkpt><trkpt lat="43.82396906564705" lon="6.123703331379316"><ele>570.6666666666666</ele><time>2026-04-22T13:25:48.001Z</time></trkpt><trkpt lat="43.823862007354585" lon="6.1234800122088995"><ele>569.0</ele><time>2026-04-22T13:25:49.001Z</time></trkpt><trkpt lat="43.82375784040247" lon="6.123275327898609"><ele>568.0</ele><time>2026-04-22T13:25:50.001Z</time></trkpt><trkpt lat="43.823657625702964" lon="6.123093328607665"><ele>567.0</ele><time>2026-04-22T13:25:51.001Z</time></trkpt><trkpt lat="43.82355531537142" lon="6.122906169630342"><ele>566.0</ele><time>2026-04-22T13:25:52.001Z</time></trkpt><trkpt lat="43.82345767299177" lon="6.122729786845386"><ele>566.0</ele><time>2026-04-22T13:25:53.001Z</time></trkpt><trkpt lat="43.82334920099103" lon="6.122536912534398"><ele>566.0</ele><time>2026-04-22T13:25:54.001Z</time></trkpt><trkpt lat="43.823218874327445" lon="6.1223262353828725"><ele>566.0</ele><time>2026-04-22T13:25:55.001Z</time></trkpt><trkpt lat="43.82307780504563" lon="6.1220961790910176"><ele>564.5</ele><time>2026-04-22T13:25:56.001Z</time></trkpt><trkpt lat="43.822938933205286" lon="6.12184756227982"><ele>563.0</ele><time>2026-04-22T13:25:57.001Z</time></trkpt><trkpt lat="43.822805823246114" lon="6.121580040442231"><ele>563.0</ele><time>2026-04-22T13:25:58.001Z</time></trkpt><trkpt lat="43.82267140240981" lon="6.1213092456006555"><ele>563.0</ele><time>2026-04-22T13:25:59.001Z</time></trkpt><trkpt lat="43.82254499535921" lon="6.121064331351686"><ele>562.6666666666666</ele><time>2026-04-22T13:26:00.001Z</time></trkpt><trkpt lat="43.822430958635294" lon="6.120839755600487"><ele>562.3333333333334</ele><time>2026-04-22T13:26:01.001Z</time></trkpt><trkpt lat="43.82234013492728" lon="6.120615142676172"><ele>562.0</ele><time>2026-04-22T13:26:02.001Z</time></trkpt><trkpt lat="43.82227590737829" lon="6.120374047436484"><ele>562.0</ele><time>2026-04-22T13:26:03.001Z</time></trkpt><trkpt lat="43.82224832244483" lon="6.120133230367204"><ele>562.0</ele><time>2026-04-22T13:26:04.001Z</time></trkpt><trkpt lat="43.822265582805755" lon="6.11990306148997"><ele>562.0</ele><time>2026-04-22T13:26:05.001Z</time></trkpt><trkpt lat="43.82229661901401" lon="6.119669337420078"><ele>562.0</ele><time>2026-04-22T13:26:06.001Z</time></trkpt><trkpt lat="43.8223324100759" lon="6.11943417965071"><ele>562.0</ele><time>2026-04-22T13:26:07.001Z</time></trkpt><trkpt lat="43.822330247395236" lon="6.119178768918579"><ele>562.0</ele><time>2026-04-22T13:26:08.001Z</time></trkpt><trkpt lat="43.8223007237115" lon="6.118912647099739"><ele>563.3333333333334</ele><time>2026-04-22T13:26:09.001Z</time></trkpt><trkpt lat="43.82223939869098" lon="6.118635800393228"><ele>564.6666666666666</ele><time>2026-04-22T13:26:10.001Z</time></trkpt><trkpt lat="43.82217272080628" lon="6.118345206291931"><ele>566.0</ele><time>2026-04-22T13:26:11.001Z</time></trkpt><trkpt lat="43.822104402390515" lon="6.118031775554776"><ele>569.0</ele><time>2026-04-22T13:26:12.001Z</time></trkpt><trkpt lat="43.82202946942664" lon="6.117709945021201"><ele>572.0</ele><time>2026-04-22T13:26:13.001Z</time></trkpt><trkpt lat="43.82195151290546" lon="6.117384706653759"><ele>575.5</ele><time>2026-04-22T13:26:14.001Z</time></trkpt><trkpt lat="43.8218720270749" lon="6.117046521080703"><ele>579.0</ele><time>2026-04-22T13:26:15.001Z</time></trkpt><trkpt lat="43.82178593383697" lon="6.1167015466919965"><ele>573.0</ele><time>2026-04-22T13:26:16.001Z</time></trkpt><trkpt lat="43.82169598025163" lon="6.116364319050081"><ele>567.0</ele><time>2026-04-22T13:26:17.001Z</time></trkpt><trkpt lat="43.82161118061733" lon="6.116030258715657"><ele>570.0</ele><time>2026-04-22T13:26:18.001Z</time></trkpt><trkpt lat="43.8215287692625" lon="6.11569303627843"><ele>573.0</ele><time>2026-04-22T13:26:19.001Z</time></trkpt><trkpt lat="43.82145051015128" lon="6.115358429391345"><ele>573.0</ele><time>2026-04-22T13:26:20.001Z</time></trkpt><trkpt lat="43.821370402555615" lon="6.115035660079773"><ele>573.0</ele><time>2026-04-22T13:26:21.001Z</time></trkpt><trkpt lat="43.821281159989816" lon="6.114724701846547"><ele>578.5</ele><time>2026-04-22T13:26:22.001Z</time></trkpt><trkpt lat="43.821184170500146" lon="6.114438037759424"><ele>584.0</ele><time>2026-04-22T13:26:23.001Z</time></trkpt><trkpt lat="43.821087819513124" lon="6.114158532724136"><ele>589.0</ele><time>2026-04-22T13:26:24.001Z</time></trkpt><trkpt lat="43.82099721696763" lon="6.113887821751791"><ele>594.0</ele><time>2026-04-22T13:26:25.001Z</time></trkpt><trkpt lat="43.82091660904326" lon="6.113628249866214"><ele>599.0</ele><time>2026-04-22T13:26:26.001Z</time></trkpt><trkpt lat="43.820845530624766" lon="6.113373532969592"><ele>590.0</ele><time>2026-04-22T13:26:27.001Z</time></trkpt><trkpt lat="43.82077999844524" lon="6.113104102679313"><ele>581.0</ele><time>2026-04-22T13:26:28.001Z</time></trkpt><trkpt lat="43.820719321491836" lon="6.112824454830148"><ele>572.0</ele><time>2026-04-22T13:26:29.001Z</time></trkpt><trkpt lat="43.82066774642403" lon="6.112536128225135"><ele>572.3333333333333</ele><time>2026-04-22T13:26:30.001Z</time></trkpt><trkpt lat="43.820622729044565" lon="6.112237177732281"><ele>572.6666666666666</ele><time>2026-04-22T13:26:31.001Z</time></trkpt><trkpt lat="43.820591483533725" lon="6.11194505263547"><ele>573.0</ele><time>2026-04-22T13:26:32.001Z</time></trkpt><trkpt lat="43.82056788414504" lon="6.1116544554133965"><ele>571.0</ele><time>2026-04-22T13:26:33.001Z</time></trkpt><trkpt lat="43.82054585464135" lon="6.1113436328344095"><ele>569.0</ele><time>2026-04-22T13:26:34.001Z</time></trkpt><trkpt lat="43.82050324066877" lon="6.1110424480326095"><ele>567.0</ele><time>2026-04-22T13:26:35.001Z</time></trkpt><trkpt lat="43.82045790176117" lon="6.11075700336665"><ele>569.6666666666666</ele><time>2026-04-22T13:26:36.001Z</time></trkpt><trkpt lat="43.82040468191382" lon="6.110477815578595"><ele>572.3333333333333</ele><time>2026-04-22T13:26:37.001Z</time></trkpt><trkpt lat="43.82032516995975" lon="6.110185527861664"><ele>575.0</ele><time>2026-04-22T13:26:38.001Z</time></trkpt><trkpt lat="43.820232215694034" lon="6.109881355599145"><ele>571.6666666666666</ele><time>2026-04-22T13:26:39.001Z</time></trkpt><trkpt lat="43.82014422605095" lon="6.109586683260073"><ele>568.3333333333334</ele><time>2026-04-22T13:26:40.001Z</time></trkpt><trkpt lat="43.8200558920767" lon="6.109322359296094"><ele>565.0</ele><time>2026-04-22T13:26:41.001Z</time></trkpt><trkpt lat="43.8199815525433" lon="6.109069870230664"><ele>565.0</ele><time>2026-04-22T13:26:42.001Z</time></trkpt><trkpt lat="43.81991182262628" lon="6.108823950427147"><ele>565.0</ele><time>2026-04-22T13:26:43.001Z</time></trkpt><trkpt lat="43.81985215459569" lon="6.108601537757899"><ele>565.0</ele><time>2026-04-22T13:26:44.001Z</time></trkpt><trkpt lat="43.819797335264425" lon="6.108405174059892"><ele>565.75</ele><time>2026-04-22T13:26:45.001Z</time></trkpt><trkpt lat="43.8197467306019" lon="6.10821901470701"><ele>566.5</ele><time>2026-04-22T13:26:46.001Z</time></trkpt><trkpt lat="43.819720584218906" lon="6.108034369670022"><ele>567.25</ele><time>2026-04-22T13:26:47.001Z</time></trkpt><trkpt lat="43.81969472313707" lon="6.107817432606735"><ele>568.0</ele><time>2026-04-22T13:26:48.001Z</time></trkpt><trkpt lat="43.819679622073586" lon="6.107569600910178"><ele>568.3333333333334</ele><time>2026-04-22T13:26:49.001Z</time></trkpt><trkpt lat="43.819668351672654" lon="6.107308150929486"><ele>568.6666666666666</ele><time>2026-04-22T13:26:50.001Z</time></trkpt><trkpt lat="43.819648432855146" lon="6.1070174832337445"><ele>569.0</ele><time>2026-04-22T13:26:51.001Z</time></trkpt><trkpt lat="43.81962515001162" lon="6.106715936619371"><ele>570.3333333333333</ele><time>2026-04-22T13:26:52.001Z</time></trkpt><trkpt lat="43.81960377368884" lon="6.106409705189031"><ele>571.6666666666666</ele><time>2026-04-22T13:26:53.001Z</time></trkpt><trkpt lat="43.819587028771075" lon="6.106124252078642"><ele>573.0</ele><time>2026-04-22T13:26:54.001Z</time></trkpt><trkpt lat="43.81956347600882" lon="6.1058525353581965"><ele>574.0</ele><time>2026-04-22T13:26:55.001Z</time></trkpt><trkpt lat="43.81952237710379" lon="6.105570327700947"><ele>575.0</ele><time>2026-04-22T13:26:56.001Z</time></trkpt><trkpt lat="43.81948215139182" lon="6.105292847456877"><ele>576.0</ele><time>2026-04-22T13:26:57.001Z</time></trkpt><trkpt lat="43.81943376870165" lon="6.105025093086867"><ele>577.0</ele><time>2026-04-22T13:26:58.001Z</time></trkpt><trkpt lat="43.819378611558584" lon="6.104765139419317"><ele>578.0</ele><time>2026-04-22T13:26:59.001Z</time></trkpt><trkpt lat="43.81930649429704" lon="6.10450740667141"><ele>579.0</ele><time>2026-04-22T13:27:00.001Z</time></trkpt><trkpt lat="43.81921797903244" lon="6.104251586025481"><ele>572.3333333333334</ele><time>2026-04-22T13:27:01.001Z</time></trkpt><trkpt lat="43.81914161276065" lon="6.104013449861317"><ele>565.6666666666667</ele><time>2026-04-22T13:27:02.001Z</time></trkpt><trkpt lat="43.81906369064851" lon="6.103787777920217"><ele>559.0</ele><time>2026-04-22T13:27:03.001Z</time></trkpt><trkpt lat="43.81899445674772" lon="6.103559284641414"><ele>559.0</ele><time>2026-04-22T13:27:04.001Z</time></trkpt><trkpt lat="43.81893203168491" lon="6.1033065104215"><ele>559.0</ele><time>2026-04-22T13:27:05.001Z</time></trkpt><trkpt lat="43.81885528822565" lon="6.103027988371359"><ele>559.0</ele><time>2026-04-22T13:27:06.001Z</time></trkpt><trkpt lat="43.8187763262059" lon="6.10272653112618"><ele>556.5</ele><time>2026-04-22T13:27:07.001Z</time></trkpt><trkpt lat="43.81869617926833" lon="6.1024175968268874"><ele>554.0</ele><time>2026-04-22T13:27:08.001Z</time></trkpt><trkpt lat="43.81861611483776" lon="6.102133807002836"><ele>553.6666666666666</ele><time>2026-04-22T13:27:09.001Z</time></trkpt><trkpt lat="43.818548653044736" lon="6.101870294003139"><ele>553.3333333333334</ele><time>2026-04-22T13:27:10.001Z</time></trkpt><trkpt lat="43.8184812126693" lon="6.1016021952534"><ele>553.0</ele><time>2026-04-22T13:27:11.001Z</time></trkpt><trkpt lat="43.81840823322137" lon="6.1013356593616805"><ele>548.3333333333334</ele><time>2026-04-22T13:27:12.001Z</time></trkpt><trkpt lat="43.81833714242875" lon="6.101087210046438"><ele>543.6666666666666</ele><time>2026-04-22T13:27:13.001Z</time></trkpt><trkpt lat="43.818280370219505" lon="6.100846015306236"><ele>539.0</ele><time>2026-04-22T13:27:14.001Z</time></trkpt><trkpt lat="43.81822387413158" lon="6.10060766577698"><ele>538.6666666666666</ele><time>2026-04-22T13:27:15.001Z</time></trkpt><trkpt lat="43.81817174234717" lon="6.100372054991714"><ele>538.3333333333334</ele><time>2026-04-22T13:27:16.001Z</time></trkpt><trkpt lat="43.81813799199712" lon="6.100134056727715"><ele>538.0</ele><time>2026-04-22T13:27:17.001Z</time></trkpt><trkpt lat="43.81812117850738" lon="6.099906827930905"><ele>538.0</ele><time>2026-04-22T13:27:18.001Z</time></trkpt><trkpt lat="43.81812240792191" lon="6.099680786755931"><ele>538.0</ele><time>2026-04-22T13:27:19.001Z</time></trkpt><trkpt lat="43.818137190234864" lon="6.099455324789995"><ele>538.0</ele><time>2026-04-22T13:27:20.001Z</time></trkpt><trkpt lat="43.818148218567856" lon="6.099218422974874"><ele>537.6666666666667</ele><time>2026-04-22T13:27:21.001Z</time></trkpt><trkpt lat="43.81814548872321" lon="6.0989787997974245"><ele>537.3333333333334</ele><time>2026-04-22T13:27:22.001Z</time></trkpt><trkpt lat="43.81813830426143" lon="6.0987396002651035"><ele>537.0</ele><time>2026-04-22T13:27:23.001Z</time></trkpt><trkpt lat="43.81814034764139" lon="6.098493200840485"><ele>537.6666666666666</ele><time>2026-04-22T13:27:24.001Z</time></trkpt><trkpt lat="43.818125064706194" lon="6.098240147488019"><ele>538.3333333333333</ele><time>2026-04-22T13:27:25.001Z</time></trkpt><trkpt lat="43.81810812692099" lon="6.09798709721526"><ele>539.0</ele><time>2026-04-22T13:27:26.001Z</time></trkpt><trkpt lat="43.818096897934744" lon="6.097724281531394"><ele>539.0</ele><time>2026-04-22T13:27:27.001Z</time></trkpt><trkpt lat="43.81807744131308" lon="6.09748541471575"><ele>539.0</ele><time>2026-04-22T13:27:28.001Z</time></trkpt><trkpt lat="43.81806475615203" lon="6.097248127313537"><ele>539.0</ele><time>2026-04-22T13:27:29Z</time></trkpt><trkpt lat="43.81805213254725" lon="6.097015641290082"><ele>539.75</ele><time>2026-04-22T13:27:30Z</time></trkpt><trkpt lat="43.818045126703545" lon="6.09679061949567"><ele>540.5</ele><time>2026-04-22T13:27:31Z</time></trkpt><trkpt lat="43.818032258512815" lon="6.096582197270947"><ele>541.25</ele><time>2026-04-22T13:27:32Z</time></trkpt><trkpt lat="43.818018279839926" lon="6.096397210180329"><ele>542.0</ele><time>2026-04-22T13:27:33Z</time></trkpt><trkpt lat="43.81799814466073" lon="6.096222353053925"><ele>542.0</ele><time>2026-04-22T13:27:34Z</time></trkpt><trkpt lat="43.81797184555514" lon="6.096057481659986"><ele>542.0</ele><time>2026-04-22T13:27:35Z</time></trkpt><trkpt lat="43.817961512512206" lon="6.095909861958632"><ele>542.0</ele><time>2026-04-22T13:27:36Z</time></trkpt><trkpt lat="43.81797572493322" lon="6.095773805153392"><ele>542.0</ele><time>2026-04-22T13:27:37Z</time></trkpt><trkpt lat="43.81801256891475" lon="6.09564958073276"><ele>542.0</ele><time>2026-04-22T13:27:38Z</time></trkpt><trkpt lat="43.81804754722312" lon="6.095553100176214"><ele>541.8333333333333</ele><time>2026-04-22T13:27:39Z</time></trkpt><trkpt lat="43.8180738996514" lon="6.0954592612298875"><ele>541.6666666666666</ele><time>2026-04-22T13:27:40Z</time></trkpt><trkpt lat="43.81805872370455" lon="6.095367425503888"><ele>541.5</ele><time>2026-04-22T13:27:42Z</time></trkpt><trkpt lat="43.817996056681515" lon="6.095282175648336"><ele>541.3333333333334</ele><time>2026-04-22T13:27:45Z</time></trkpt><trkpt lat="43.817940060180895" lon="6.095232098363367"><ele>541.1666666666667</ele><time>2026-04-22T13:27:50Z</time></trkpt><trkpt lat="43.817862281160956" lon="6.095148633978582"><ele>541.0</ele><time>2026-04-22T13:27:52Z</time></trkpt><trkpt lat="43.817815442795066" lon="6.095049315008375"><ele>541.0</ele><time>2026-04-22T13:27:54Z</time></trkpt><trkpt lat="43.8177872944049" lon="6.094964954574546"><ele>541.0</ele><time>2026-04-22T13:27:55Z</time></trkpt><trkpt lat="43.81773374881365" lon="6.094802708032227"><ele>541.0</ele><time>2026-04-22T13:27:57Z</time></trkpt><trkpt lat="43.81770169776073" lon="6.0946517447798625"><ele>541.0</ele><time>2026-04-22T13:27:59Z</time></trkpt><trkpt lat="43.81766616489158" lon="6.094568836904061"><ele>541.0</ele><time>2026-04-22T13:28:00Z</time></trkpt><trkpt lat="43.81761840391723" lon="6.094476127340307"><ele>538.8</ele><time>2026-04-22T13:28:01Z</time></trkpt><trkpt lat="43.81754958395356" lon="6.0943923063170855"><ele>536.6</ele><time>2026-04-22T13:28:02Z</time></trkpt><trkpt lat="43.8174531953505" lon="6.094270950930928"><ele>534.4</ele><time>2026-04-22T13:28:04Z</time></trkpt><trkpt lat="43.81735112407408" lon="6.094262568954689"><ele>532.2</ele><time>2026-04-22T13:28:06Z</time></trkpt><trkpt lat="43.81727948725365" lon="6.0943184663814325"><ele>530.0</ele><time>2026-04-22T13:28:07Z</time></trkpt><trkpt lat="43.81722054653643" lon="6.094370749362872"><ele>530.0</ele><time>2026-04-22T13:28:08Z</time></trkpt><trkpt lat="43.81712926560944" lon="6.094379904017858"><ele>530.0</ele><time>2026-04-22T13:28:09Z</time></trkpt><trkpt lat="43.81705935934172" lon="6.094402753527173"><ele>530.0</ele><time>2026-04-22T13:28:10Z</time></trkpt><trkpt lat="43.816970749757324" lon="6.094435042353669"><ele>530.0</ele><time>2026-04-22T13:28:11Z</time></trkpt><trkpt lat="43.816871403914625" lon="6.094441227159401"><ele>530.0</ele><time>2026-04-22T13:28:12Z</time></trkpt><trkpt lat="43.81676814843857" lon="6.0944385068812"><ele>529.2</ele><time>2026-04-22T13:28:13Z</time></trkpt><trkpt lat="43.81668123571328" lon="6.094429605292063"><ele>528.4</ele><time>2026-04-22T13:28:14Z</time></trkpt><trkpt lat="43.81657941127413" lon="6.094420219119517"><ele>527.6</ele><time>2026-04-22T13:28:15.001Z</time></trkpt><trkpt lat="43.816468657255605" lon="6.094433477170969"><ele>526.8</ele><time>2026-04-22T13:28:16.001Z</time></trkpt><trkpt lat="43.81635592652319" lon="6.094461375803708"><ele>526.0</ele><time>2026-04-22T13:28:17.001Z</time></trkpt><trkpt lat="43.81622982420234" lon="6.094516199056664"><ele>526.0</ele><time>2026-04-22T13:28:18.001Z</time></trkpt><trkpt lat="43.81609529396239" lon="6.094565470770859"><ele>526.0</ele><time>2026-04-22T13:28:19.001Z</time></trkpt><trkpt lat="43.815958783912436" lon="6.094617974210635"><ele>526.0</ele><time>2026-04-22T13:28:20.001Z</time></trkpt><trkpt lat="43.81583530834053" lon="6.094663922917068"><ele>526.0</ele><time>2026-04-22T13:28:21.001Z</time></trkpt><trkpt lat="43.815724287142714" lon="6.094708906408648"><ele>526.6</ele><time>2026-04-22T13:28:22.001Z</time></trkpt><trkpt lat="43.81563189467217" lon="6.094737827278967"><ele>527.2</ele><time>2026-04-22T13:28:23.001Z</time></trkpt><trkpt lat="43.81554915265025" lon="6.094752933301216"><ele>527.8</ele><time>2026-04-22T13:28:24.001Z</time></trkpt><trkpt lat="43.81544913874136" lon="6.094691141666884"><ele>528.4</ele><time>2026-04-22T13:28:26.001Z</time></trkpt><trkpt lat="43.81542157402537" lon="6.094534877803734"><ele>529.0</ele><time>2026-04-22T13:28:28.001Z</time></trkpt><trkpt lat="43.81542556158645" lon="6.09442012953965"><ele>529.0</ele><time>2026-04-22T13:28:29.001Z</time></trkpt><trkpt lat="43.81543044327217" lon="6.094262573099352"><ele>529.0</ele><time>2026-04-22T13:28:30.001Z</time></trkpt><trkpt lat="43.81544969420685" lon="6.094047369820198"><ele>529.0</ele><time>2026-04-22T13:28:31.001Z</time></trkpt><trkpt lat="43.815454187306905" lon="6.093855702907507"><ele>529.0</ele><time>2026-04-22T13:28:32.001Z</time></trkpt><trkpt lat="43.81547526286412" lon="6.093652752708813"><ele>528.5</ele><time>2026-04-22T13:28:33.001Z</time></trkpt><trkpt lat="43.81549184241594" lon="6.093444092250962"><ele>528.0</ele><time>2026-04-22T13:28:34.001Z</time></trkpt><trkpt lat="43.815500705263624" lon="6.093238888458545"><ele>527.5</ele><time>2026-04-22T13:28:35.001Z</time></trkpt><trkpt lat="43.81550115439991" lon="6.093036912809064"><ele>527.0</ele><time>2026-04-22T13:28:36.001Z</time></trkpt><trkpt lat="43.815499646799466" lon="6.09283342091901"><ele>526.75</ele><time>2026-04-22T13:28:37.001Z</time></trkpt><trkpt lat="43.81550804334514" lon="6.092629754359608"><ele>526.5</ele><time>2026-04-22T13:28:38.001Z</time></trkpt><trkpt lat="43.8155082334481" lon="6.092430051787203"><ele>526.25</ele><time>2026-04-22T13:28:39.001Z</time></trkpt><trkpt lat="43.81550685738263" lon="6.092223208223284"><ele>526.0</ele><time>2026-04-22T13:28:40.001Z</time></trkpt><trkpt lat="43.81550379854237" lon="6.092017816836957"><ele>526.0</ele><time>2026-04-22T13:28:41.001Z</time></trkpt><trkpt lat="43.81550355273807" lon="6.091834935719776"><ele>526.0</ele><time>2026-04-22T13:28:42.001Z</time></trkpt><trkpt lat="43.815505604774465" lon="6.091651758997676"><ele>526.0</ele><time>2026-04-22T13:28:43.001Z</time></trkpt><trkpt lat="43.8154986014061" lon="6.091479880768162"><ele>526.0</ele><time>2026-04-22T13:28:44.001Z</time></trkpt><trkpt lat="43.81550143646208" lon="6.0913212515330395"><ele>526.0</ele><time>2026-04-22T13:28:45.001Z</time></trkpt><trkpt lat="43.8155087051733" lon="6.091161949799154"><ele>526.0</ele><time>2026-04-22T13:28:46.001Z</time></trkpt><trkpt lat="43.81552887079359" lon="6.0909998518170845"><ele>526.0</ele><time>2026-04-22T13:28:47.001Z</time></trkpt><trkpt lat="43.81556617498955" lon="6.0908563981312875"><ele>526.0</ele><time>2026-04-22T13:28:48.001Z</time></trkpt><trkpt lat="43.81559517913613" lon="6.090710490600046"><ele>525.6666666666667</ele><time>2026-04-22T13:28:49.001Z</time></trkpt><trkpt lat="43.81560995097721" lon="6.090568381038253"><ele>525.3333333333334</ele><time>2026-04-22T13:28:50.001Z</time></trkpt><trkpt lat="43.81562986411586" lon="6.0904507907944945"><ele>525.0</ele><time>2026-04-22T13:28:51.001Z</time></trkpt><trkpt lat="43.81565886321592" lon="6.090354215297607"><ele>524.6666666666666</ele><time>2026-04-22T13:28:52.001Z</time></trkpt><trkpt lat="43.81570635124444" lon="6.090280477159788"><ele>524.3333333333333</ele><time>2026-04-22T13:28:53.001Z</time></trkpt><trkpt lat="43.81575947476661" lon="6.090229197023429"><ele>524.0</ele><time>2026-04-22T13:28:54.001Z</time></trkpt><trkpt lat="43.815765759711184" lon="6.090100744600521"><ele>524.0</ele><time>2026-04-22T13:28:56.001Z</time></trkpt><trkpt lat="43.81566050669395" lon="6.0899815122982"><ele>524.0</ele><time>2026-04-22T13:28:58.001Z</time></trkpt><trkpt lat="43.81558278801266" lon="6.089877186718161"><ele>524.0</ele><time>2026-04-22T13:28:59.001Z</time></trkpt><trkpt lat="43.81552374662032" lon="6.089764918820674"><ele>524.0</ele><time>2026-04-22T13:29:00.001Z</time></trkpt><trkpt lat="43.815482903378104" lon="6.08961505699249"><ele>522.75</ele><time>2026-04-22T13:29:01.001Z</time></trkpt><trkpt lat="43.815439362697596" lon="6.089435272031741"><ele>521.5</ele><time>2026-04-22T13:29:02.001Z</time></trkpt><trkpt lat="43.81540787432129" lon="6.08924799376844"><ele>520.25</ele><time>2026-04-22T13:29:03.001Z</time></trkpt><trkpt lat="43.81538490271071" lon="6.089080234702727"><ele>519.0</ele><time>2026-04-22T13:29:04.001Z</time></trkpt><trkpt lat="43.81536125357458" lon="6.088913667377609"><ele>518.25</ele><time>2026-04-22T13:29:05.001Z</time></trkpt><trkpt lat="43.81533247082412" lon="6.088747392217775"><ele>517.5</ele><time>2026-04-22T13:29:06.001Z</time></trkpt><trkpt lat="43.81529882953313" lon="6.088591841751887"><ele>516.75</ele><time>2026-04-22T13:29:07.001Z</time></trkpt><trkpt lat="43.8152643514849" lon="6.088419793842816"><ele>516.0</ele><time>2026-04-22T13:29:08.001Z</time></trkpt><trkpt lat="43.81524373484842" lon="6.088270578112376"><ele>516.3333333333334</ele><time>2026-04-22T13:29:09.001Z</time></trkpt><trkpt lat="43.815216840781375" lon="6.088078259105726"><ele>516.6666666666667</ele><time>2026-04-22T13:29:10.001Z</time></trkpt><trkpt lat="43.81519197418841" lon="6.087877121333486"><ele>517.0</ele><time>2026-04-22T13:29:11.001Z</time></trkpt><trkpt lat="43.815178982439726" lon="6.087646951291185"><ele>517.3333333333334</ele><time>2026-04-22T13:29:12.001Z</time></trkpt><trkpt lat="43.81517729104464" lon="6.087413803086968"><ele>517.6666666666666</ele><time>2026-04-22T13:29:13.001Z</time></trkpt><trkpt lat="43.8151906063842" lon="6.087176704062591"><ele>518.0</ele><time>2026-04-22T13:29:14.001Z</time></trkpt><trkpt lat="43.81520723553147" lon="6.0869429683993985"><ele>518.0</ele><time>2026-04-22T13:29:15.001Z</time></trkpt><trkpt lat="43.81521178712257" lon="6.086693956231206"><ele>518.0</ele><time>2026-04-22T13:29:16.001Z</time></trkpt><trkpt lat="43.81520285002964" lon="6.08643723040273"><ele>518.0</ele><time>2026-04-22T13:29:17.001Z</time></trkpt><trkpt lat="43.81518611069365" lon="6.086202479436322"><ele>517.3333333333333</ele><time>2026-04-22T13:29:18.001Z</time></trkpt><trkpt lat="43.81516357231807" lon="6.085981687033879"><ele>516.6666666666666</ele><time>2026-04-22T13:29:19.001Z</time></trkpt><trkpt lat="43.81513865441991" lon="6.0857725216113785"><ele>516.0</ele><time>2026-04-22T13:29:20.001Z</time></trkpt><trkpt lat="43.815117689757656" lon="6.0855742888509585"><ele>515.75</ele><time>2026-04-22T13:29:21.001Z</time></trkpt><trkpt lat="43.815104166923454" lon="6.085383278989257"><ele>515.5</ele><time>2026-04-22T13:29:22.001Z</time></trkpt><trkpt lat="43.81509002371607" lon="6.085207734588442"><ele>515.25</ele><time>2026-04-22T13:29:23.001Z</time></trkpt><trkpt lat="43.81508269430654" lon="6.085073182133103"><ele>515.0</ele><time>2026-04-22T13:29:24.001Z</time></trkpt><trkpt lat="43.815061572726925" lon="6.084901452484705"><ele>514.8</ele><time>2026-04-22T13:29:26.001Z</time></trkpt><trkpt lat="43.815043401369145" lon="6.084793208630882"><ele>514.6</ele><time>2026-04-22T13:29:27Z</time></trkpt><trkpt lat="43.81503338211039" lon="6.084657656010699"><ele>514.4</ele><time>2026-04-22T13:29:28Z</time></trkpt><trkpt lat="43.81502837801662" lon="6.084518847156437"><ele>514.2</ele><time>2026-04-22T13:29:29Z</time></trkpt><trkpt lat="43.815016752790534" lon="6.084368136876443"><ele>514.0</ele><time>2026-04-22T13:29:30Z</time></trkpt><trkpt lat="43.814992788599234" lon="6.084204667445232"><ele>513.75</ele><time>2026-04-22T13:29:31Z</time></trkpt><trkpt lat="43.81495474557537" lon="6.084023520163792"><ele>513.5</ele><time>2026-04-22T13:29:32Z</time></trkpt><trkpt lat="43.81490798525707" lon="6.083834972529824"><ele>513.25</ele><time>2026-04-22T13:29:33Z</time></trkpt><trkpt lat="43.81485508062471" lon="6.083651838146557"><ele>513.0</ele><time>2026-04-22T13:29:34Z</time></trkpt><trkpt lat="43.81479195120741" lon="6.083466990704778"><ele>513.0</ele><time>2026-04-22T13:29:35Z</time></trkpt><trkpt lat="43.81471936137594" lon="6.083278649839367"><ele>513.0</ele><time>2026-04-22T13:29:36Z</time></trkpt><trkpt lat="43.814630083904916" lon="6.083078603777496"><ele>513.0</ele><time>2026-04-22T13:29:37Z</time></trkpt><trkpt lat="43.81452515678941" lon="6.082872616723718"><ele>512.3333333333334</ele><time>2026-04-22T13:29:38Z</time></trkpt><trkpt lat="43.81441630953291" lon="6.082660386518545"><ele>511.6666666666667</ele><time>2026-04-22T13:29:39Z</time></trkpt><trkpt lat="43.81431691652059" lon="6.082454469751435"><ele>511.0</ele><time>2026-04-22T13:29:40Z</time></trkpt><trkpt lat="43.81422142640761" lon="6.082253472459527"><ele>511.0</ele><time>2026-04-22T13:29:41Z</time></trkpt><trkpt lat="43.8141324415152" lon="6.08205768688024"><ele>511.0</ele><time>2026-04-22T13:29:42Z</time></trkpt><trkpt lat="43.81404676232193" lon="6.08186902764327"><ele>511.0</ele><time>2026-04-22T13:29:43Z</time></trkpt><trkpt lat="43.813960769694425" lon="6.081683148194707"><ele>510.6666666666667</ele><time>2026-04-22T13:29:44Z</time></trkpt><trkpt lat="43.81386734777973" lon="6.081495938861506"><ele>510.33333333333337</ele><time>2026-04-22T13:29:45Z</time></trkpt><trkpt lat="43.81376946381927" lon="6.081307452724732"><ele>510.0</ele><time>2026-04-22T13:29:46Z</time></trkpt><trkpt lat="43.81367421684947" lon="6.081110720647108"><ele>510.0</ele><time>2026-04-22T13:29:47Z</time></trkpt><trkpt lat="43.813565146581574" lon="6.080893136848098"><ele>510.0</ele><time>2026-04-22T13:29:48Z</time></trkpt><trkpt lat="43.81345400914988" lon="6.080655840080522"><ele>510.0</ele><time>2026-04-22T13:29:49Z</time></trkpt><trkpt lat="43.81335874887732" lon="6.080412005215702"><ele>509.33333333333337</ele><time>2026-04-22T13:29:50Z</time></trkpt><trkpt lat="43.81328296615803" lon="6.080172312200127"><ele>508.6666666666667</ele><time>2026-04-22T13:29:51Z</time></trkpt><trkpt lat="43.81322157448377" lon="6.0799372879492"><ele>508.0</ele><time>2026-04-22T13:29:52Z</time></trkpt><trkpt lat="43.81316686198948" lon="6.07970767110428"><ele>508.0</ele><time>2026-04-22T13:29:53Z</time></trkpt><trkpt lat="43.81311313465864" lon="6.079474821894285"><ele>508.0</ele><time>2026-04-22T13:29:54Z</time></trkpt><trkpt lat="43.81306391955715" lon="6.079241991777829"><ele>508.0</ele><time>2026-04-22T13:29:55Z</time></trkpt><trkpt lat="43.81301351632756" lon="6.079004652060637"><ele>508.0</ele><time>2026-04-22T13:29:56Z</time></trkpt><trkpt lat="43.81298466864506" lon="6.078760319350001"><ele>508.0</ele><time>2026-04-22T13:29:57Z</time></trkpt><trkpt lat="43.812975381375196" lon="6.078515796869739"><ele>508.0</ele><time>2026-04-22T13:29:58Z</time></trkpt><trkpt lat="43.812970328965484" lon="6.078260673724009"><ele>508.0</ele><time>2026-04-22T13:29:59Z</time></trkpt><trkpt lat="43.81295258343311" lon="6.0779845453647035"><ele>508.0</ele><time>2026-04-22T13:30:00Z</time></trkpt><trkpt lat="43.81292239249726" lon="6.077700388813833"><ele>508.0</ele><time>2026-04-22T13:30:01Z</time></trkpt><trkpt lat="43.812879825023174" lon="6.077433880309142"><ele>507.33333333333337</ele><time>2026-04-22T13:30:02Z</time></trkpt><trkpt lat="43.81283547042446" lon="6.077173269061164"><ele>506.66666666666663</ele><time>2026-04-22T13:30:03Z</time></trkpt><trkpt lat="43.812791810476774" lon="6.076907835727442"><ele>506.0</ele><time>2026-04-22T13:30:04Z</time></trkpt><trkpt lat="43.81273775265106" lon="6.076614578254618"><ele>506.0</ele><time>2026-04-22T13:30:05Z</time></trkpt><trkpt lat="43.81267073567152" lon="6.076306472628968"><ele>506.0</ele><time>2026-04-22T13:30:06Z</time></trkpt><trkpt lat="43.8126030182097" lon="6.0759835041738715"><ele>507.0</ele><time>2026-04-22T13:30:07Z</time></trkpt><trkpt lat="43.81253182410896" lon="6.0756407329090605"><ele>508.0</ele><time>2026-04-22T13:30:08Z</time></trkpt><trkpt lat="43.81246584549829" lon="6.075277137893136"><ele>509.0</ele><time>2026-04-22T13:30:09Z</time></trkpt><trkpt lat="43.8124066357087" lon="6.07493542422898"><ele>510.0</ele><time>2026-04-22T13:30:10Z</time></trkpt><trkpt lat="43.81235338454794" lon="6.0746258204405175"><ele>510.0</ele><time>2026-04-22T13:30:11Z</time></trkpt><trkpt lat="43.812298320036696" lon="6.074339047090898"><ele>510.0</ele><time>2026-04-22T13:30:12Z</time></trkpt><trkpt lat="43.81224640101057" lon="6.074070057969333"><ele>510.0</ele><time>2026-04-22T13:30:13Z</time></trkpt><trkpt lat="43.8121886660822" lon="6.073830307279592"><ele>509.0</ele><time>2026-04-22T13:30:14Z</time></trkpt><trkpt lat="43.81211881579913" lon="6.073601792858381"><ele>508.0</ele><time>2026-04-22T13:30:15Z</time></trkpt><trkpt lat="43.81201576844674" lon="6.073370479205769"><ele>507.0</ele><time>2026-04-22T13:30:16Z</time></trkpt><trkpt lat="43.81190615855668" lon="6.073126176717987"><ele>509.0</ele><time>2026-04-22T13:30:17Z</time></trkpt><trkpt lat="43.81178346970226" lon="6.072872789949629"><ele>511.0</ele><time>2026-04-22T13:30:18Z</time></trkpt><trkpt lat="43.81163715793089" lon="6.072613405696517"><ele>507.5</ele><time>2026-04-22T13:30:19Z</time></trkpt><trkpt lat="43.81148030876376" lon="6.07235862994887"><ele>504.0</ele><time>2026-04-22T13:30:20Z</time></trkpt><trkpt lat="43.81131768088242" lon="6.072101381956628"><ele>504.0</ele><time>2026-04-22T13:30:21Z</time></trkpt><trkpt lat="43.81116297578015" lon="6.0718502872990125"><ele>504.0</ele><time>2026-04-22T13:30:22Z</time></trkpt><trkpt lat="43.8110293776632" lon="6.071600174593343"><ele>503.66666666666663</ele><time>2026-04-22T13:30:23Z</time></trkpt><trkpt lat="43.81089772459215" lon="6.071369826380831"><ele>503.3333333333333</ele><time>2026-04-22T13:30:24Z</time></trkpt><trkpt lat="43.81075349010292" lon="6.071148638062272"><ele>503.0</ele><time>2026-04-22T13:30:25Z</time></trkpt><trkpt lat="43.810586648382724" lon="6.070935377451507"><ele>500.66666666666663</ele><time>2026-04-22T13:30:26Z</time></trkpt><trkpt lat="43.8104433201256" lon="6.070725986682854"><ele>498.33333333333337</ele><time>2026-04-22T13:30:27Z</time></trkpt><trkpt lat="43.81029803468449" lon="6.070473853690668"><ele>496.0</ele><time>2026-04-22T13:30:28Z</time></trkpt><trkpt lat="43.81017657392322" lon="6.0702274367423374"><ele>499.0</ele><time>2026-04-22T13:30:29Z</time></trkpt><trkpt lat="43.81011553914682" lon="6.069977560307691"><ele>502.0</ele><time>2026-04-22T13:30:30Z</time></trkpt><trkpt lat="43.810066460599465" lon="6.069709927851514"><ele>505.0</ele><time>2026-04-22T13:30:31Z</time></trkpt><trkpt lat="43.81002789207259" lon="6.069434542078761"><ele>505.0</ele><time>2026-04-22T13:30:32Z</time></trkpt><trkpt lat="43.80997807026233" lon="6.0691271289955155"><ele>505.0</ele><time>2026-04-22T13:30:33Z</time></trkpt><trkpt lat="43.80990976565938" lon="6.068825421406553"><ele>502.5</ele><time>2026-04-22T13:30:34Z</time></trkpt><trkpt lat="43.80980768614584" lon="6.068532122977513"><ele>500.0</ele><time>2026-04-22T13:30:35Z</time></trkpt><trkpt lat="43.80968268384176" lon="6.068244207477226"><ele>496.5</ele><time>2026-04-22T13:30:36Z</time></trkpt><trkpt lat="43.80954661357724" lon="6.067952174146743"><ele>493.0</ele><time>2026-04-22T13:30:37Z</time></trkpt><trkpt lat="43.809400528065424" lon="6.067651149511301"><ele>495.0</ele><time>2026-04-22T13:30:38Z</time></trkpt><trkpt lat="43.8092580218448" lon="6.067353931224626"><ele>497.0</ele><time>2026-04-22T13:30:39Z</time></trkpt><trkpt lat="43.80911749672229" lon="6.067062513319907"><ele>497.0</ele><time>2026-04-22T13:30:40Z</time></trkpt><trkpt lat="43.809000375415536" lon="6.066784989785029"><ele>497.0</ele><time>2026-04-22T13:30:41Z</time></trkpt><trkpt lat="43.80888977961449" lon="6.066496147355921"><ele>493.5</ele><time>2026-04-22T13:30:42Z</time></trkpt><trkpt lat="43.808796318129744" lon="6.066193887567584"><ele>490.0</ele><time>2026-04-22T13:30:43Z</time></trkpt><trkpt lat="43.80871307330373" lon="6.065862446926842"><ele>489.0</ele><time>2026-04-22T13:30:44.001Z</time></trkpt><trkpt lat="43.80862940122941" lon="6.065530369805571"><ele>488.0</ele><time>2026-04-22T13:30:45.001Z</time></trkpt><trkpt lat="43.80852222600394" lon="6.065200581085481"><ele>491.5</ele><time>2026-04-22T13:30:46.001Z</time></trkpt><trkpt lat="43.80840165278813" lon="6.06488620362794"><ele>495.0</ele><time>2026-04-22T13:30:47.001Z</time></trkpt><trkpt lat="43.80829289569713" lon="6.064577340204978"><ele>495.0</ele><time>2026-04-22T13:30:48.001Z</time></trkpt><trkpt lat="43.80820448451422" lon="6.064263726361027"><ele>495.0</ele><time>2026-04-22T13:30:49.001Z</time></trkpt><trkpt lat="43.80812589366133" lon="6.063949767501724"><ele>492.5</ele><time>2026-04-22T13:30:50.001Z</time></trkpt><trkpt lat="43.80807558693876" lon="6.063618257371001"><ele>490.0</ele><time>2026-04-22T13:30:51.001Z</time></trkpt><trkpt lat="43.80802315390497" lon="6.063247411107166"><ele>489.0</ele><time>2026-04-22T13:30:52.001Z</time></trkpt><trkpt lat="43.80795017126035" lon="6.062907324638987"><ele>488.0</ele><time>2026-04-22T13:30:53.001Z</time></trkpt><trkpt lat="43.807889479547086" lon="6.062581776449326"><ele>487.0</ele><time>2026-04-22T13:30:54.001Z</time></trkpt><trkpt lat="43.80783488285016" lon="6.062279298078344"><ele>486.0</ele><time>2026-04-22T13:30:55.001Z</time></trkpt><trkpt lat="43.80778537686195" lon="6.061968047147191"><ele>486.0</ele><time>2026-04-22T13:30:56.001Z</time></trkpt><trkpt lat="43.80775076193638" lon="6.061627662409735"><ele>486.0</ele><time>2026-04-22T13:30:57.001Z</time></trkpt><trkpt lat="43.80772481255823" lon="6.061280762443939"><ele>485.5</ele><time>2026-04-22T13:30:58.001Z</time></trkpt><trkpt lat="43.807708730001984" lon="6.060948666981707"><ele>485.0</ele><time>2026-04-22T13:30:59.001Z</time></trkpt><trkpt lat="43.807693474049714" lon="6.060633934216434"><ele>488.0</ele><time>2026-04-22T13:31:00.001Z</time></trkpt><trkpt lat="43.80765135031112" lon="6.060323790640546"><ele>491.0</ele><time>2026-04-22T13:31:01.001Z</time></trkpt><trkpt lat="43.80756411943189" lon="6.06000032837817"><ele>489.0</ele><time>2026-04-22T13:31:02.001Z</time></trkpt><trkpt lat="43.80745715560693" lon="6.059667410426959"><ele>487.0</ele><time>2026-04-22T13:31:03.001Z</time></trkpt><trkpt lat="43.807354863753794" lon="6.059326206791077"><ele>485.5</ele><time>2026-04-22T13:31:04.001Z</time></trkpt><trkpt lat="43.80725969321576" lon="6.058970869337914"><ele>484.0</ele><time>2026-04-22T13:31:05.001Z</time></trkpt><trkpt lat="43.80716554402918" lon="6.058601123334383"><ele>484.0</ele><time>2026-04-22T13:31:06.001Z</time></trkpt><trkpt lat="43.80709126112266" lon="6.0582484267766485"><ele>484.0</ele><time>2026-04-22T13:31:07.001Z</time></trkpt><trkpt lat="43.807032205548786" lon="6.057919261034659"><ele>484.0</ele><time>2026-04-22T13:31:08.001Z</time></trkpt><trkpt lat="43.80698106952852" lon="6.057590169679826"><ele>484.0</ele><time>2026-04-22T13:31:09.001Z</time></trkpt><trkpt lat="43.8069356083475" lon="6.057264800980129"><ele>485.0</ele><time>2026-04-22T13:31:10.001Z</time></trkpt><trkpt lat="43.8068790369386" lon="6.056950445709467"><ele>486.0</ele><time>2026-04-22T13:31:11.001Z</time></trkpt><trkpt lat="43.80681953933286" lon="6.056648640383232"><ele>487.66666666666663</ele><time>2026-04-22T13:31:12.001Z</time></trkpt><trkpt lat="43.80676003492342" lon="6.05636455658515"><ele>489.3333333333333</ele><time>2026-04-22T13:31:13.001Z</time></trkpt><trkpt lat="43.80670696185646" lon="6.056090218428757"><ele>491.0</ele><time>2026-04-22T13:31:14.001Z</time></trkpt><trkpt lat="43.806651226504364" lon="6.055832368968452"><ele>489.3333333333333</ele><time>2026-04-22T13:31:15.001Z</time></trkpt><trkpt lat="43.80658942291339" lon="6.055588783271746"><ele>487.66666666666663</ele><time>2026-04-22T13:31:16.001Z</time></trkpt><trkpt lat="43.80650287486805" lon="6.055357282448462"><ele>486.0</ele><time>2026-04-22T13:31:17.001Z</time></trkpt><trkpt lat="43.80638741121342" lon="6.055139060372807"><ele>485.0</ele><time>2026-04-22T13:31:18.001Z</time></trkpt><trkpt lat="43.80625501329561" lon="6.054918633410708"><ele>484.0</ele><time>2026-04-22T13:31:19.001Z</time></trkpt><trkpt lat="43.80610447957418" lon="6.054710157651061"><ele>483.0</ele><time>2026-04-22T13:31:20.001Z</time></trkpt><trkpt lat="43.80592738139002" lon="6.054534320967699"><ele>483.0</ele><time>2026-04-22T13:31:21.001Z</time></trkpt><trkpt lat="43.80573851735481" lon="6.054357518018698"><ele>483.0</ele><time>2026-04-22T13:31:22.001Z</time></trkpt><trkpt lat="43.80554829291708" lon="6.054193306919187"><ele>482.33333333333337</ele><time>2026-04-22T13:31:23.001Z</time></trkpt><trkpt lat="43.80537592246865" lon="6.054018830217732"><ele>481.6666666666667</ele><time>2026-04-22T13:31:24.001Z</time></trkpt><trkpt lat="43.805225941198465" lon="6.053846684568522"><ele>481.0</ele><time>2026-04-22T13:31:25.001Z</time></trkpt><trkpt lat="43.80507916002303" lon="6.053670103521226"><ele>481.0</ele><time>2026-04-22T13:31:26.001Z</time></trkpt><trkpt lat="43.80493686474022" lon="6.053495266506255"><ele>481.0</ele><time>2026-04-22T13:31:27.001Z</time></trkpt><trkpt lat="43.80478294170215" lon="6.053334291561661"><ele>481.0</ele><time>2026-04-22T13:31:28.001Z</time></trkpt><trkpt lat="43.80460965071915" lon="6.0531792079693085"><ele>479.6666666666667</ele><time>2026-04-22T13:31:29.001Z</time></trkpt><trkpt lat="43.804441368599676" lon="6.053006868259365"><ele>478.33333333333337</ele><time>2026-04-22T13:31:30.001Z</time></trkpt><trkpt lat="43.80427117069341" lon="6.052817251890915"><ele>477.0</ele><time>2026-04-22T13:31:31.001Z</time></trkpt><trkpt lat="43.80409097666566" lon="6.052602394264798"><ele>473.5</ele><time>2026-04-22T13:31:32.001Z</time></trkpt><trkpt lat="43.80390118823631" lon="6.052380769401019"><ele>470.0</ele><time>2026-04-22T13:31:33Z</time></trkpt><trkpt lat="43.803710761891956" lon="6.052138936050789"><ele>470.0</ele><time>2026-04-22T13:31:34Z</time></trkpt><trkpt lat="43.80351563388168" lon="6.0518821871214765"><ele>470.0</ele><time>2026-04-22T13:31:35Z</time></trkpt><trkpt lat="43.80331809829129" lon="6.051611904505074"><ele>473.0</ele><time>2026-04-22T13:31:36Z</time></trkpt><trkpt lat="43.80313148072475" lon="6.051356774715533"><ele>476.0</ele><time>2026-04-22T13:31:37Z</time></trkpt><trkpt lat="43.802955365589284" lon="6.051123342706637"><ele>476.0</ele><time>2026-04-22T13:31:38Z</time></trkpt><trkpt lat="43.80279805736014" lon="6.050906323018429"><ele>476.0</ele><time>2026-04-22T13:31:39Z</time></trkpt><trkpt lat="43.80264547970106" lon="6.050698671862067"><ele>476.0</ele><time>2026-04-22T13:31:40Z</time></trkpt><trkpt lat="43.80250525589385" lon="6.050497356542071"><ele>476.66666666666663</ele><time>2026-04-22T13:31:41Z</time></trkpt><trkpt lat="43.80237191014344" lon="6.0502908342833965"><ele>477.33333333333337</ele><time>2026-04-22T13:31:42Z</time></trkpt><trkpt lat="43.802234316238646" lon="6.050100150625629"><ele>478.0</ele><time>2026-04-22T13:31:43Z</time></trkpt><trkpt lat="43.802089072892805" lon="6.049922273955412"><ele>475.6666666666667</ele><time>2026-04-22T13:31:44Z</time></trkpt><trkpt lat="43.801937762989986" lon="6.049750799926737"><ele>473.33333333333337</ele><time>2026-04-22T13:31:45Z</time></trkpt><trkpt lat="43.80178713876676" lon="6.049604079220412"><ele>471.0</ele><time>2026-04-22T13:31:46Z</time></trkpt><trkpt lat="43.80164199782033" lon="6.049455940369637"><ele>471.0</ele><time>2026-04-22T13:31:47Z</time></trkpt><trkpt lat="43.80150038266023" lon="6.049308111990804"><ele>471.0</ele><time>2026-04-22T13:31:48Z</time></trkpt><trkpt lat="43.80136721013081" lon="6.049141655752294"><ele>471.0</ele><time>2026-04-22T13:31:49Z</time></trkpt><trkpt lat="43.80124304334679" lon="6.048966615158776"><ele>471.0</ele><time>2026-04-22T13:31:50Z</time></trkpt><trkpt lat="43.80112047697107" lon="6.048789956145411"><ele>471.0</ele><time>2026-04-22T13:31:51Z</time></trkpt><trkpt lat="43.80100775411345" lon="6.048610010493962"><ele>471.0</ele><time>2026-04-22T13:31:52Z</time></trkpt><trkpt lat="43.800896234598554" lon="6.04842566130279"><ele>468.0</ele><time>2026-04-22T13:31:53Z</time></trkpt><trkpt lat="43.80078019637565" lon="6.048243567317696"><ele>465.0</ele><time>2026-04-22T13:31:54Z</time></trkpt><trkpt lat="43.80066228487309" lon="6.048055617013344"><ele>462.0</ele><time>2026-04-22T13:31:55Z</time></trkpt><trkpt lat="43.800535649414115" lon="6.04786231744131"><ele>462.0</ele><time>2026-04-22T13:31:56Z</time></trkpt><trkpt lat="43.80040855588543" lon="6.047666721456598"><ele>462.0</ele><time>2026-04-22T13:31:57Z</time></trkpt><trkpt lat="43.800279907834174" lon="6.047465493575015"><ele>462.0</ele><time>2026-04-22T13:31:58Z</time></trkpt><trkpt lat="43.80013320589884" lon="6.047249142038013"><ele>464.0</ele><time>2026-04-22T13:31:59Z</time></trkpt><trkpt lat="43.79996970264436" lon="6.04701460258203"><ele>466.0</ele><time>2026-04-22T13:32:00Z</time></trkpt><trkpt lat="43.799818412456645" lon="6.046758176598457"><ele>463.0</ele><time>2026-04-22T13:32:01Z</time></trkpt><trkpt lat="43.79966759968768" lon="6.046490802368078"><ele>460.0</ele><time>2026-04-22T13:32:02Z</time></trkpt><trkpt lat="43.79951238296811" lon="6.046210028107451"><ele>460.0</ele><time>2026-04-22T13:32:03Z</time></trkpt><trkpt lat="43.799352956794486" lon="6.045930583302783"><ele>460.0</ele><time>2026-04-22T13:32:04Z</time></trkpt><trkpt lat="43.7991870274431" lon="6.045651631463043"><ele>460.5</ele><time>2026-04-22T13:32:05Z</time></trkpt><trkpt lat="43.79900849690915" lon="6.04536838523302"><ele>461.0</ele><time>2026-04-22T13:32:06Z</time></trkpt><trkpt lat="43.79882088688494" lon="6.045106933097501"><ele>460.0</ele><time>2026-04-22T13:32:07Z</time></trkpt><trkpt lat="43.79862598386684" lon="6.044862744448466"><ele>459.0</ele><time>2026-04-22T13:32:08Z</time></trkpt><trkpt lat="43.798443929427926" lon="6.044627659852997"><ele>461.5</ele><time>2026-04-22T13:32:09Z</time></trkpt><trkpt lat="43.798274898846294" lon="6.044407686642393"><ele>464.0</ele><time>2026-04-22T13:32:10Z</time></trkpt><trkpt lat="43.798114453635236" lon="6.044190275343217"><ele>462.3333333333333</ele><time>2026-04-22T13:32:11Z</time></trkpt><trkpt lat="43.797969674451906" lon="6.0439717831679705"><ele>460.66666666666663</ele><time>2026-04-22T13:32:12Z</time></trkpt><trkpt lat="43.79783423466959" lon="6.043734615049724"><ele>459.0</ele><time>2026-04-22T13:32:13Z</time></trkpt><trkpt lat="43.7976885686863" lon="6.043474668638894"><ele>460.0</ele><time>2026-04-22T13:32:14Z</time></trkpt><trkpt lat="43.79758522714239" lon="6.043164807828471"><ele>461.0</ele><time>2026-04-22T13:32:15Z</time></trkpt><trkpt lat="43.79756420244169" lon="6.042926790751939"><ele>462.0</ele><time>2026-04-22T13:32:16Z</time></trkpt><trkpt lat="43.7975271119885" lon="6.042626641903433"><ele>459.5</ele><time>2026-04-22T13:32:17Z</time></trkpt><trkpt lat="43.797479320758555" lon="6.042303144472087"><ele>457.0</ele><time>2026-04-22T13:32:18Z</time></trkpt><trkpt lat="43.797407933431245" lon="6.0419463602820676"><ele>456.5</ele><time>2026-04-22T13:32:19Z</time></trkpt><trkpt lat="43.79732124537747" lon="6.041593075135356"><ele>456.0</ele><time>2026-04-22T13:32:20Z</time></trkpt><trkpt lat="43.79722182578468" lon="6.041226863787697"><ele>456.0</ele><time>2026-04-22T13:32:21Z</time></trkpt><trkpt lat="43.79711037428936" lon="6.04085724472976"><ele>456.0</ele><time>2026-04-22T13:32:22Z</time></trkpt><trkpt lat="43.79699098467734" lon="6.040500357103734"><ele>456.0</ele><time>2026-04-22T13:32:23Z</time></trkpt><trkpt lat="43.79687234752241" lon="6.040151683989844"><ele>456.0</ele><time>2026-04-22T13:32:24Z</time></trkpt><trkpt lat="43.79674460702286" lon="6.039817476227464"><ele>456.0</ele><time>2026-04-22T13:32:25Z</time></trkpt><trkpt lat="43.796610231533165" lon="6.03950659391511"><ele>456.0</ele><time>2026-04-22T13:32:26Z</time></trkpt><trkpt lat="43.7964809606743" lon="6.039215259880628"><ele>454.5</ele><time>2026-04-22T13:32:27Z</time></trkpt><trkpt lat="43.79634145898819" lon="6.038939025028676"><ele>453.0</ele><time>2026-04-22T13:32:28Z</time></trkpt><trkpt lat="43.7961961219728" lon="6.038660511148748"><ele>453.0</ele><time>2026-04-22T13:32:29Z</time></trkpt><trkpt lat="43.79604604014174" lon="6.03839583925264"><ele>453.0</ele><time>2026-04-22T13:32:30Z</time></trkpt><trkpt lat="43.79589361325518" lon="6.038127231910008"><ele>454.0</ele><time>2026-04-22T13:32:31Z</time></trkpt><trkpt lat="43.795723929745535" lon="6.037865301373701"><ele>455.0</ele><time>2026-04-22T13:32:32Z</time></trkpt><trkpt lat="43.7955708683471" lon="6.037594704057802"><ele>453.5</ele><time>2026-04-22T13:32:33Z</time></trkpt><trkpt lat="43.79541786464566" lon="6.037310379470745"><ele>452.0</ele><time>2026-04-22T13:32:34Z</time></trkpt><trkpt lat="43.79527300680185" lon="6.037010318307562"><ele>455.5</ele><time>2026-04-22T13:32:35Z</time></trkpt><trkpt lat="43.79514703180152" lon="6.036709430542399"><ele>459.0</ele><time>2026-04-22T13:32:36Z</time></trkpt><trkpt lat="43.79501878916726" lon="6.036406607244406"><ele>459.0</ele><time>2026-04-22T13:32:37Z</time></trkpt><trkpt lat="43.794880219544225" lon="6.036117784203435"><ele>459.0</ele><time>2026-04-22T13:32:38Z</time></trkpt><trkpt lat="43.79473179565856" lon="6.035842119157432"><ele>457.5</ele><time>2026-04-22T13:32:39Z</time></trkpt><trkpt lat="43.79458846754183" lon="6.035589497329743"><ele>456.0</ele><time>2026-04-22T13:32:40Z</time></trkpt><trkpt lat="43.79445107773054" lon="6.035353959259687"><ele>457.0</ele><time>2026-04-22T13:32:41Z</time></trkpt><trkpt lat="43.794296309586734" lon="6.035128769975275"><ele>458.0</ele><time>2026-04-22T13:32:42Z</time></trkpt><trkpt lat="43.794128994079806" lon="6.034909318650441"><ele>456.0</ele><time>2026-04-22T13:32:43Z</time></trkpt><trkpt lat="43.793942728749435" lon="6.034702527457885"><ele>454.0</ele><time>2026-04-22T13:32:44Z</time></trkpt><trkpt lat="43.79374269686548" lon="6.034499471973342"><ele>454.0</ele><time>2026-04-22T13:32:45Z</time></trkpt><trkpt lat="43.79354001929697" lon="6.034295138559187"><ele>454.0</ele><time>2026-04-22T13:32:46Z</time></trkpt><trkpt lat="43.793340233254334" lon="6.034079254330516"><ele>452.0</ele><time>2026-04-22T13:32:47Z</time></trkpt><trkpt lat="43.79313573540866" lon="6.033855648211914"><ele>450.0</ele><time>2026-04-22T13:32:48Z</time></trkpt><trkpt lat="43.792950469045934" lon="6.0336085173262965"><ele>450.0</ele><time>2026-04-22T13:32:49Z</time></trkpt><trkpt lat="43.79278880545315" lon="6.033348015926972"><ele>450.0</ele><time>2026-04-22T13:32:50Z</time></trkpt><trkpt lat="43.792648496956225" lon="6.033068487764251"><ele>449.66666666666663</ele><time>2026-04-22T13:32:51Z</time></trkpt><trkpt lat="43.79252264045163" lon="6.032808569722738"><ele>449.3333333333333</ele><time>2026-04-22T13:32:52Z</time></trkpt><trkpt lat="43.79240059091879" lon="6.032582076894734"><ele>449.0</ele><time>2026-04-22T13:32:53Z</time></trkpt><trkpt lat="43.79225696333942" lon="6.032396866007982"><ele>449.0</ele><time>2026-04-22T13:32:54Z</time></trkpt><trkpt lat="43.792095165938306" lon="6.032242562283555"><ele>449.0</ele><time>2026-04-22T13:32:55Z</time></trkpt><trkpt lat="43.79190956269158" lon="6.032102409555154"><ele>449.0</ele><time>2026-04-22T13:32:56Z</time></trkpt><trkpt lat="43.79171211645917" lon="6.031972345138152"><ele>447.0</ele><time>2026-04-22T13:32:57Z</time></trkpt><trkpt lat="43.791516157078576" lon="6.031812483544692"><ele>445.0</ele><time>2026-04-22T13:32:58Z</time></trkpt><trkpt lat="43.79133579725489" lon="6.031611897232916"><ele>445.0</ele><time>2026-04-22T13:32:59.001Z</time></trkpt><trkpt lat="43.791174474645345" lon="6.031383148954452"><ele>445.0</ele><time>2026-04-22T13:33:00.001Z</time></trkpt><trkpt lat="43.79103137825412" lon="6.031118911681864"><ele>444.5</ele><time>2026-04-22T13:33:01.001Z</time></trkpt><trkpt lat="43.7909077608667" lon="6.030838386734199"><ele>444.0</ele><time>2026-04-22T13:33:02.001Z</time></trkpt><trkpt lat="43.79077424738053" lon="6.030568691426588"><ele>444.0</ele><time>2026-04-22T13:33:03.001Z</time></trkpt><trkpt lat="43.79060830604638" lon="6.030336709246793"><ele>444.0</ele><time>2026-04-22T13:33:04.001Z</time></trkpt><trkpt lat="43.79041899740984" lon="6.030150133431026"><ele>444.0</ele><time>2026-04-22T13:33:05.001Z</time></trkpt><trkpt lat="43.790217807055555" lon="6.02998673493806"><ele>444.0</ele><time>2026-04-22T13:33:06.001Z</time></trkpt><trkpt lat="43.79003153199537" lon="6.029817727987177"><ele>443.0</ele><time>2026-04-22T13:33:07.001Z</time></trkpt><trkpt lat="43.789872409615214" lon="6.029620315906839"><ele>442.0</ele><time>2026-04-22T13:33:08.001Z</time></trkpt><trkpt lat="43.789726097182246" lon="6.029392927306007"><ele>441.0</ele><time>2026-04-22T13:33:09.001Z</time></trkpt><trkpt lat="43.78958299650543" lon="6.029131391863011"><ele>439.0</ele><time>2026-04-22T13:33:10.001Z</time></trkpt><trkpt lat="43.78942872244266" lon="6.028866697500481"><ele>437.0</ele><time>2026-04-22T13:33:11.001Z</time></trkpt><trkpt lat="43.78926542605595" lon="6.028618323132118"><ele>437.5</ele><time>2026-04-22T13:33:12.001Z</time></trkpt><trkpt lat="43.78910240774229" lon="6.0283855243571836"><ele>438.0</ele><time>2026-04-22T13:33:13.001Z</time></trkpt><trkpt lat="43.788949922384006" lon="6.028140880486184"><ele>438.0</ele><time>2026-04-22T13:33:14.001Z</time></trkpt><trkpt lat="43.788807362164526" lon="6.027878991180492"><ele>438.0</ele><time>2026-04-22T13:33:15.001Z</time></trkpt><trkpt lat="43.78867356539145" lon="6.027600463294941"><ele>435.0</ele><time>2026-04-22T13:33:16.001Z</time></trkpt><trkpt lat="43.78855076277041" lon="6.027318354071162"><ele>432.0</ele><time>2026-04-22T13:33:17.001Z</time></trkpt><trkpt lat="43.788434706425086" lon="6.027038649077661"><ele>435.5</ele><time>2026-04-22T13:33:18.001Z</time></trkpt><trkpt lat="43.78830291144939" lon="6.026751758842916"><ele>439.0</ele><time>2026-04-22T13:33:19.001Z</time></trkpt><trkpt lat="43.78817657552943" lon="6.026416878200841"><ele>439.0</ele><time>2026-04-22T13:33:20.001Z</time></trkpt><trkpt lat="43.78805481128977" lon="6.0261054487688295"><ele>439.0</ele><time>2026-04-22T13:33:21.001Z</time></trkpt><trkpt lat="43.787912933076214" lon="6.025809815589405"><ele>436.0</ele><time>2026-04-22T13:33:22.001Z</time></trkpt><trkpt lat="43.78776414483963" lon="6.025540776349993"><ele>433.0</ele><time>2026-04-22T13:33:23.001Z</time></trkpt><trkpt lat="43.787602609103814" lon="6.025269779659"><ele>435.0</ele><time>2026-04-22T13:33:24.001Z</time></trkpt><trkpt lat="43.78745797097377" lon="6.025046784844774"><ele>437.0</ele><time>2026-04-22T13:33:25.001Z</time></trkpt><trkpt lat="43.78731482684551" lon="6.0248073911944005"><ele>439.0</ele><time>2026-04-22T13:33:26.001Z</time></trkpt><trkpt lat="43.78716578534874" lon="6.02455694379355"><ele>439.0</ele><time>2026-04-22T13:33:27.001Z</time></trkpt><trkpt lat="43.78702110775952" lon="6.024291869585974"><ele>439.0</ele><time>2026-04-22T13:33:28.001Z</time></trkpt><trkpt lat="43.78687498212694" lon="6.024004096062886"><ele>444.0</ele><time>2026-04-22T13:33:29.001Z</time></trkpt><trkpt lat="43.78673845573947" lon="6.023710880826733"><ele>449.0</ele><time>2026-04-22T13:33:30.001Z</time></trkpt><trkpt lat="43.78660977127056" lon="6.023430056301446"><ele>445.3333333333333</ele><time>2026-04-22T13:33:31.001Z</time></trkpt><trkpt lat="43.78648285904941" lon="6.023171469544987"><ele>441.66666666666663</ele><time>2026-04-22T13:33:32.001Z</time></trkpt><trkpt lat="43.78636097181584" lon="6.022920180135179"><ele>438.0</ele><time>2026-04-22T13:33:33.001Z</time></trkpt><trkpt lat="43.786248674935734" lon="6.022654324021131"><ele>435.5</ele><time>2026-04-22T13:33:34.001Z</time></trkpt><trkpt lat="43.786142552168776" lon="6.022357043058245"><ele>433.0</ele><time>2026-04-22T13:33:35.001Z</time></trkpt><trkpt lat="43.78603338196047" lon="6.022034358565756"><ele>435.0</ele><time>2026-04-22T13:33:36.001Z</time></trkpt><trkpt lat="43.78592769866587" lon="6.021717862153022"><ele>437.0</ele><time>2026-04-22T13:33:37.001Z</time></trkpt><trkpt lat="43.78581059528887" lon="6.02140736497459"><ele>437.0</ele><time>2026-04-22T13:33:38.001Z</time></trkpt><trkpt lat="43.78569344889823" lon="6.021111357014123"><ele>437.0</ele><time>2026-04-22T13:33:39Z</time></trkpt><trkpt lat="43.78556902701298" lon="6.020813287882962"><ele>434.5</ele><time>2026-04-22T13:33:40Z</time></trkpt><trkpt lat="43.78542721686332" lon="6.020505381622064"><ele>432.0</ele><time>2026-04-22T13:33:41Z</time></trkpt><trkpt lat="43.78529862366407" lon="6.020188675751418"><ele>431.0</ele><time>2026-04-22T13:33:42Z</time></trkpt><trkpt lat="43.78518223739038" lon="6.019866046261806"><ele>430.0</ele><time>2026-04-22T13:33:43Z</time></trkpt><trkpt lat="43.78509257183403" lon="6.019529082111605"><ele>434.0</ele><time>2026-04-22T13:33:44Z</time></trkpt><trkpt lat="43.784996823212516" lon="6.019198980517245"><ele>438.0</ele><time>2026-04-22T13:33:45Z</time></trkpt><trkpt lat="43.78487280971546" lon="6.018873698571995"><ele>438.0</ele><time>2026-04-22T13:33:46Z</time></trkpt><trkpt lat="43.78474727301006" lon="6.018558620197542"><ele>438.0</ele><time>2026-04-22T13:33:47Z</time></trkpt><trkpt lat="43.78461654357143" lon="6.018234681950602"><ele>436.0</ele><time>2026-04-22T13:33:48Z</time></trkpt><trkpt lat="43.78452198853119" lon="6.017887193603711"><ele>434.0</ele><time>2026-04-22T13:33:49Z</time></trkpt><trkpt lat="43.78442795863269" lon="6.017527027155694"><ele>443.0</ele><time>2026-04-22T13:33:50Z</time></trkpt><trkpt lat="43.78433583065414" lon="6.017169894393418"><ele>452.0</ele><time>2026-04-22T13:33:51Z</time></trkpt><trkpt lat="43.78424768526621" lon="6.016794980627166"><ele>447.0</ele><time>2026-04-22T13:33:52Z</time></trkpt><trkpt lat="43.78416640860868" lon="6.016400068815643"><ele>442.0</ele><time>2026-04-22T13:33:53Z</time></trkpt><trkpt lat="43.78409020954512" lon="6.016004462966229"><ele>437.5</ele><time>2026-04-22T13:33:54Z</time></trkpt><trkpt lat="43.78399161907766" lon="6.015613883750595"><ele>433.0</ele><time>2026-04-22T13:33:55Z</time></trkpt><trkpt lat="43.78389493287714" lon="6.015241511578374"><ele>430.0</ele><time>2026-04-22T13:33:56Z</time></trkpt><trkpt lat="43.783833717073584" lon="6.014880297399224"><ele>427.0</ele><time>2026-04-22T13:33:57Z</time></trkpt><trkpt lat="43.78372993792387" lon="6.014550444796839"><ele>427.0</ele><time>2026-04-22T13:33:58Z</time></trkpt><trkpt lat="43.78363003998774" lon="6.014243537257417"><ele>427.0</ele><time>2026-04-22T13:33:59Z</time></trkpt><trkpt lat="43.78353793241565" lon="6.013934434850529"><ele>430.33333333333337</ele><time>2026-04-22T13:34:00Z</time></trkpt><trkpt lat="43.78344735022535" lon="6.0136299791651355"><ele>433.66666666666663</ele><time>2026-04-22T13:34:01Z</time></trkpt><trkpt lat="43.78338457249966" lon="6.013363860547355"><ele>437.0</ele><time>2026-04-22T13:34:02Z</time></trkpt><trkpt lat="43.783336278840466" lon="6.013097893322008"><ele>437.0</ele><time>2026-04-22T13:34:03Z</time></trkpt><trkpt lat="43.78327718118619" lon="6.012833546961855"><ele>437.0</ele><time>2026-04-22T13:34:04Z</time></trkpt><trkpt lat="43.78323573706738" lon="6.012568433736939"><ele>437.0</ele><time>2026-04-22T13:34:05Z</time></trkpt><trkpt lat="43.78319482919078" lon="6.012330515792616"><ele>434.0</ele><time>2026-04-22T13:34:06Z</time></trkpt><trkpt lat="43.783158223197006" lon="6.012097387092248"><ele>431.0</ele><time>2026-04-22T13:34:07Z</time></trkpt><trkpt lat="43.78310928570822" lon="6.011874733084164"><ele>428.0</ele><time>2026-04-22T13:34:08Z</time></trkpt><trkpt lat="43.78305592127905" lon="6.011666982811299"><ele>426.5</ele><time>2026-04-22T13:34:09Z</time></trkpt><trkpt lat="43.783000747358514" lon="6.011479655124757"><ele>425.0</ele><time>2026-04-22T13:34:10Z</time></trkpt><trkpt lat="43.782952784678706" lon="6.011298792205249"><ele>423.5</ele><time>2026-04-22T13:34:11Z</time></trkpt><trkpt lat="43.78292864459116" lon="6.011137307058885"><ele>422.0</ele><time>2026-04-22T13:34:12Z</time></trkpt><trkpt lat="43.78292547460879" lon="6.010973352515453"><ele>421.6</ele><time>2026-04-22T13:34:13Z</time></trkpt><trkpt lat="43.78291905118316" lon="6.010817698717777"><ele>421.20000000000005</ele><time>2026-04-22T13:34:14Z</time></trkpt><trkpt lat="43.7829237102609" lon="6.010667977207127"><ele>420.8</ele><time>2026-04-22T13:34:15Z</time></trkpt><trkpt lat="43.782914502714256" lon="6.010516469783691"><ele>420.4</ele><time>2026-04-22T13:34:16Z</time></trkpt><trkpt lat="43.78288609741151" lon="6.01038092271391"><ele>420.0</ele><time>2026-04-22T13:34:17Z</time></trkpt><trkpt lat="43.78283603113206" lon="6.010275409283492"><ele>420.0</ele><time>2026-04-22T13:34:18Z</time></trkpt><trkpt lat="43.78276896424109" lon="6.010212024112743"><ele>420.0</ele><time>2026-04-22T13:34:19Z</time></trkpt><trkpt lat="43.78268454288567" lon="6.010174900263334"><ele>420.0</ele><time>2026-04-22T13:34:20Z</time></trkpt><trkpt lat="43.78258625693611" lon="6.010168719102659"><ele>420.0</ele><time>2026-04-22T13:34:21Z</time></trkpt><trkpt lat="43.782482477681675" lon="6.010188313580511"><ele>420.0</ele><time>2026-04-22T13:34:22Z</time></trkpt><trkpt lat="43.78237535006753" lon="6.010224310449958"><ele>421.8</ele><time>2026-04-22T13:34:23Z</time></trkpt><trkpt lat="43.78226589284244" lon="6.0102712565385685"><ele>423.6</ele><time>2026-04-22T13:34:24Z</time></trkpt><trkpt lat="43.78216581018249" lon="6.010315247760889"><ele>425.4</ele><time>2026-04-22T13:34:25Z</time></trkpt><trkpt lat="43.782073204762774" lon="6.010347847933947"><ele>427.2</ele><time>2026-04-22T13:34:26Z</time></trkpt><trkpt lat="43.781997132276274" lon="6.010355258916316"><ele>429.0</ele><time>2026-04-22T13:34:27Z</time></trkpt><trkpt lat="43.78192544009814" lon="6.0103432515466055"><ele>428.0</ele><time>2026-04-22T13:34:28Z</time></trkpt><trkpt lat="43.78183631962211" lon="6.01028375562662"><ele>427.0</ele><time>2026-04-22T13:34:29Z</time></trkpt><trkpt lat="43.781772620077824" lon="6.010190693348459"><ele>426.0</ele><time>2026-04-22T13:34:30Z</time></trkpt><trkpt lat="43.781707248148145" lon="6.01008400471751"><ele>425.0</ele><time>2026-04-22T13:34:31Z</time></trkpt><trkpt lat="43.78170960884473" lon="6.00995302089667"><ele>424.0</ele><time>2026-04-22T13:34:33Z</time></trkpt><trkpt lat="43.78182944858092" lon="6.009811376412837"><ele>423.5</ele><time>2026-04-22T13:34:35Z</time></trkpt><trkpt lat="43.78188493087015" lon="6.009598822676639"><ele>423.0</ele><time>2026-04-22T13:34:36Z</time></trkpt><trkpt lat="43.7819371596578" lon="6.009465112695972"><ele>422.5</ele><time>2026-04-22T13:34:37Z</time></trkpt><trkpt lat="43.782003358023516" lon="6.00934793355314"><ele>422.0</ele><time>2026-04-22T13:34:38Z</time></trkpt><trkpt lat="43.78206422732186" lon="6.009250488681073"><ele>422.20000000000005</ele><time>2026-04-22T13:34:39Z</time></trkpt><trkpt lat="43.782126902427265" lon="6.009154693819647"><ele>422.4</ele><time>2026-04-22T13:34:40Z</time></trkpt><trkpt lat="43.7821773288317" lon="6.009056002434345"><ele>422.6</ele><time>2026-04-22T13:34:41Z</time></trkpt><trkpt lat="43.78218991565759" lon="6.008913847452728"><ele>422.79999999999995</ele><time>2026-04-22T13:34:42Z</time></trkpt><trkpt lat="43.782215252330936" lon="6.008785472461174"><ele>423.0</ele><time>2026-04-22T13:34:43Z</time></trkpt><trkpt lat="43.78224693226773" lon="6.008669276422809"><ele>423.0</ele><time>2026-04-22T13:34:44Z</time></trkpt><trkpt lat="43.782282095376296" lon="6.0085519631727555"><ele>423.0</ele><time>2026-04-22T13:34:45Z</time></trkpt><trkpt lat="43.78231269541443" lon="6.008420433522864"><ele>423.0</ele><time>2026-04-22T13:34:46Z</time></trkpt><trkpt lat="43.782334199159266" lon="6.008310955345141"><ele>423.0</ele><time>2026-04-22T13:34:47Z</time></trkpt><trkpt lat="43.78235150349836" lon="6.008206743221685"><ele>423.0</ele><time>2026-04-22T13:34:48Z</time></trkpt><trkpt lat="43.78237321202252" lon="6.0080884824266745"><ele>423.0</ele><time>2026-04-22T13:34:49Z</time></trkpt><trkpt lat="43.7823936719665" lon="6.007961769928489"><ele>423.25</ele><time>2026-04-22T13:34:50Z</time></trkpt><trkpt lat="43.78241314175278" lon="6.007826831320101"><ele>423.5</ele><time>2026-04-22T13:34:51Z</time></trkpt><trkpt lat="43.78243140099377" lon="6.007684291185163"><ele>423.75</ele><time>2026-04-22T13:34:52Z</time></trkpt><trkpt lat="43.7824414329245" lon="6.007499178961334"><ele>424.0</ele><time>2026-04-22T13:34:53Z</time></trkpt><trkpt lat="43.782461008430175" lon="6.007282004804327"><ele>424.6666666666667</ele><time>2026-04-22T13:34:54Z</time></trkpt><trkpt lat="43.78248061617672" lon="6.007064323792377"><ele>425.33333333333337</ele><time>2026-04-22T13:34:55Z</time></trkpt><trkpt lat="43.782505220606986" lon="6.006848306100339"><ele>426.0</ele><time>2026-04-22T13:34:56Z</time></trkpt><trkpt lat="43.782533573549095" lon="6.00663632870467"><ele>427.0</ele><time>2026-04-22T13:34:57Z</time></trkpt><trkpt lat="43.782557208598085" lon="6.006455295810114"><ele>428.0</ele><time>2026-04-22T13:34:58Z</time></trkpt><trkpt lat="43.78258196253795" lon="6.00623136108899"><ele>429.0</ele><time>2026-04-22T13:34:59Z</time></trkpt><trkpt lat="43.78262078549135" lon="6.00594980785305"><ele>428.5</ele><time>2026-04-22T13:35:00Z</time></trkpt><trkpt lat="43.782661906995344" lon="6.005686137379629"><ele>428.0</ele><time>2026-04-22T13:35:01Z</time></trkpt><trkpt lat="43.78268237848443" lon="6.005536896759484"><ele>427.5</ele><time>2026-04-22T13:35:02Z</time></trkpt><trkpt lat="43.7826867317595" lon="6.005396881034518"><ele>427.0</ele><time>2026-04-22T13:35:04Z</time></trkpt><trkpt lat="43.78266388478" lon="6.005242875795264"><ele>427.0</ele><time>2026-04-22T13:35:05Z</time></trkpt><trkpt lat="43.78264475435093" lon="6.005076163267737"><ele>427.0</ele><time>2026-04-22T13:35:06Z</time></trkpt><trkpt lat="43.78263725315714" lon="6.004888604764494"><ele>427.0</ele><time>2026-04-22T13:35:07Z</time></trkpt><trkpt lat="43.782638107570655" lon="6.004687560149773"><ele>427.0</ele><time>2026-04-22T13:35:08Z</time></trkpt><trkpt lat="43.782671581280184" lon="6.004461431050605"><ele>423.6666666666667</ele><time>2026-04-22T13:35:09Z</time></trkpt><trkpt lat="43.78270842854646" lon="6.00421487627228"><ele>420.33333333333337</ele><time>2026-04-22T13:35:10Z</time></trkpt><trkpt lat="43.78274359090065" lon="6.00395617746987"><ele>417.0</ele><time>2026-04-22T13:35:11Z</time></trkpt><trkpt lat="43.78278580872211" lon="6.003689728697639"><ele>416.0</ele><time>2026-04-22T13:35:12Z</time></trkpt><trkpt lat="43.782829708109446" lon="6.003432993779076"><ele>415.0</ele><time>2026-04-22T13:35:13Z</time></trkpt><trkpt lat="43.782875331645826" lon="6.003181577120302"><ele>414.0</ele><time>2026-04-22T13:35:14Z</time></trkpt><trkpt lat="43.782930890467775" lon="6.002920853864429"><ele>413.66666666666663</ele><time>2026-04-22T13:35:15Z</time></trkpt><trkpt lat="43.78299366670277" lon="6.002667441744805"><ele>413.3333333333333</ele><time>2026-04-22T13:35:16Z</time></trkpt><trkpt lat="43.783056932225584" lon="6.002410435499291"><ele>413.0</ele><time>2026-04-22T13:35:17Z</time></trkpt><trkpt lat="43.78311828113249" lon="6.002135131454258"><ele>412.5</ele><time>2026-04-22T13:35:18Z</time></trkpt><trkpt lat="43.78318572994896" lon="6.0018261910572495"><ele>412.0</ele><time>2026-04-22T13:35:19Z</time></trkpt><trkpt lat="43.78325823100677" lon="6.001510430675305"><ele>410.6666666666667</ele><time>2026-04-22T13:35:20Z</time></trkpt><trkpt lat="43.78333165154196" lon="6.001208629320721"><ele>409.33333333333337</ele><time>2026-04-22T13:35:21Z</time></trkpt><trkpt lat="43.78340026475034" lon="6.000928482122907"><ele>408.0</ele><time>2026-04-22T13:35:22Z</time></trkpt><trkpt lat="43.783456677172175" lon="6.000655973826579"><ele>406.66666666666663</ele><time>2026-04-22T13:35:23Z</time></trkpt><trkpt lat="43.78349475936874" lon="6.00037597595993"><ele>405.3333333333333</ele><time>2026-04-22T13:35:24Z</time></trkpt><trkpt lat="43.78351104180745" lon="6.000075082638832"><ele>404.0</ele><time>2026-04-22T13:35:25Z</time></trkpt><trkpt lat="43.78349733235685" lon="5.999753386093734"><ele>404.0</ele><time>2026-04-22T13:35:26Z</time></trkpt><trkpt lat="43.78346921869168" lon="5.999415598390704"><ele>404.0</ele><time>2026-04-22T13:35:27Z</time></trkpt><trkpt lat="43.783427227771554" lon="5.99906151607987"><ele>404.0</ele><time>2026-04-22T13:35:28.001Z</time></trkpt><trkpt lat="43.783376629415876" lon="5.998707583431178"><ele>404.0</ele><time>2026-04-22T13:35:29.001Z</time></trkpt><trkpt lat="43.783311699929854" lon="5.998348130123236"><ele>403.5</ele><time>2026-04-22T13:35:30.001Z</time></trkpt><trkpt lat="43.78324528341839" lon="5.9979732325223205"><ele>403.0</ele><time>2026-04-22T13:35:31.001Z</time></trkpt><trkpt lat="43.78317867560135" lon="5.9975932402061725"><ele>403.0</ele><time>2026-04-22T13:35:32.001Z</time></trkpt><trkpt lat="43.78311306641129" lon="5.997210422174119"><ele>403.0</ele><time>2026-04-22T13:35:33.001Z</time></trkpt><trkpt lat="43.78304586413524" lon="5.996829317533074"><ele>404.0</ele><time>2026-04-22T13:35:34.001Z</time></trkpt><trkpt lat="43.7829833407517" lon="5.99645847040391"><ele>405.0</ele><time>2026-04-22T13:35:35.001Z</time></trkpt><trkpt lat="43.78292177551268" lon="5.9961006582245595"><ele>403.5</ele><time>2026-04-22T13:35:36.001Z</time></trkpt><trkpt lat="43.78286410653937" lon="5.995763062104935"><ele>402.0</ele><time>2026-04-22T13:35:37.001Z</time></trkpt><trkpt lat="43.78280602102749" lon="5.995444723560175"><ele>402.0</ele><time>2026-04-22T13:35:38.001Z</time></trkpt><trkpt lat="43.78275580494149" lon="5.995150770201032"><ele>402.0</ele><time>2026-04-22T13:35:39.001Z</time></trkpt><trkpt lat="43.782709482926016" lon="5.994878261732565"><ele>402.0</ele><time>2026-04-22T13:35:40.001Z</time></trkpt><trkpt lat="43.78267061632238" lon="5.994620247150384"><ele>402.0</ele><time>2026-04-22T13:35:41.001Z</time></trkpt><trkpt lat="43.782640079105654" lon="5.994394416845504"><ele>402.0</ele><time>2026-04-22T13:35:42.001Z</time></trkpt><trkpt lat="43.782627474400314" lon="5.9941718904231545"><ele>402.0</ele><time>2026-04-22T13:35:43.001Z</time></trkpt><trkpt lat="43.782631062144524" lon="5.993955253843098"><ele>401.66666666666663</ele><time>2026-04-22T13:35:44.001Z</time></trkpt><trkpt lat="43.78266845309866" lon="5.993739849172317"><ele>401.3333333333333</ele><time>2026-04-22T13:35:45Z</time></trkpt><trkpt lat="43.782723582928334" lon="5.993506955237037"><ele>401.0</ele><time>2026-04-22T13:35:46Z</time></trkpt><trkpt lat="43.782776120784916" lon="5.993266149076844"><ele>401.66666666666663</ele><time>2026-04-22T13:35:47Z</time></trkpt><trkpt lat="43.7828203949742" lon="5.993030636748397"><ele>402.33333333333337</ele><time>2026-04-22T13:35:48Z</time></trkpt><trkpt lat="43.78282808563115" lon="5.992793469783763"><ele>403.0</ele><time>2026-04-22T13:35:49Z</time></trkpt><trkpt lat="43.78279531138514" lon="5.992549655811432"><ele>402.6666666666667</ele><time>2026-04-22T13:35:50Z</time></trkpt><trkpt lat="43.7827258761331" lon="5.99230969052533"><ele>402.33333333333337</ele><time>2026-04-22T13:35:51Z</time></trkpt><trkpt lat="43.78262176061362" lon="5.992067626860153"><ele>402.0</ele><time>2026-04-22T13:35:52Z</time></trkpt><trkpt lat="43.78250026235832" lon="5.9918237960544625"><ele>401.0</ele><time>2026-04-22T13:35:53Z</time></trkpt><trkpt lat="43.78237817184531" lon="5.9915530776674295"><ele>400.0</ele><time>2026-04-22T13:35:54Z</time></trkpt><trkpt lat="43.782261286857576" lon="5.991254161010637"><ele>400.0</ele><time>2026-04-22T13:35:55Z</time></trkpt><trkpt lat="43.7821692734938" lon="5.990908355981758"><ele>400.0</ele><time>2026-04-22T13:35:56Z</time></trkpt><trkpt lat="43.78208847599065" lon="5.990554325508026"><ele>399.0</ele><time>2026-04-22T13:35:57Z</time></trkpt><trkpt lat="43.782022428906195" lon="5.990180175153747"><ele>398.0</ele><time>2026-04-22T13:35:58Z</time></trkpt><trkpt lat="43.78196211647924" lon="5.989815550975556"><ele>396.5</ele><time>2026-04-22T13:35:59Z</time></trkpt><trkpt lat="43.781900987312916" lon="5.989431428943508"><ele>395.0</ele><time>2026-04-22T13:36:00Z</time></trkpt><trkpt lat="43.7818383700161" lon="5.9890484309005645"><ele>394.5</ele><time>2026-04-22T13:36:01Z</time></trkpt><trkpt lat="43.78177531337488" lon="5.98867554349529"><ele>394.0</ele><time>2026-04-22T13:36:02Z</time></trkpt><trkpt lat="43.78171101953678" lon="5.988318776859948"><ele>393.5</ele><time>2026-04-22T13:36:03Z</time></trkpt><trkpt lat="43.781647166058896" lon="5.9879791417534864"><ele>393.0</ele><time>2026-04-22T13:36:04Z</time></trkpt><trkpt lat="43.78158364385144" lon="5.9876503055414405"><ele>393.5</ele><time>2026-04-22T13:36:05Z</time></trkpt><trkpt lat="43.781519631478844" lon="5.987340520092093"><ele>394.0</ele><time>2026-04-22T13:36:06Z</time></trkpt><trkpt lat="43.78144853510897" lon="5.9870512279837325"><ele>394.0</ele><time>2026-04-22T13:36:07Z</time></trkpt><trkpt lat="43.78137534397445" lon="5.986780713067546"><ele>394.0</ele><time>2026-04-22T13:36:08Z</time></trkpt><trkpt lat="43.781316004704266" lon="5.986530574861776"><ele>394.0</ele><time>2026-04-22T13:36:09Z</time></trkpt><trkpt lat="43.781262941910654" lon="5.986248116108401"><ele>394.33333333333337</ele><time>2026-04-22T13:36:10Z</time></trkpt><trkpt lat="43.78122492512616" lon="5.985946975711075"><ele>394.66666666666663</ele><time>2026-04-22T13:36:11Z</time></trkpt><trkpt lat="43.78122244653039" lon="5.985643224561556"><ele>395.0</ele><time>2026-04-22T13:36:12Z</time></trkpt><trkpt lat="43.781215386598674" lon="5.985366757384045"><ele>395.3333333333333</ele><time>2026-04-22T13:36:13Z</time></trkpt><trkpt lat="43.781162112856926" lon="5.985087221825005"><ele>395.66666666666663</ele><time>2026-04-22T13:36:14Z</time></trkpt><trkpt lat="43.78107925849982" lon="5.984808953108379"><ele>396.0</ele><time>2026-04-22T13:36:15Z</time></trkpt><trkpt lat="43.780984532859776" lon="5.984535314350022"><ele>396.0</ele><time>2026-04-22T13:36:16Z</time></trkpt><trkpt lat="43.78087835772711" lon="5.984298961243809"><ele>396.0</ele><time>2026-04-22T13:36:17Z</time></trkpt><trkpt lat="43.780699703603105" lon="5.98409600949455"><ele>396.0</ele><time>2026-04-22T13:36:18Z</time></trkpt><trkpt lat="43.780527743080214" lon="5.983888756651094"><ele>395.66666666666663</ele><time>2026-04-22T13:36:19Z</time></trkpt><trkpt lat="43.780355436397684" lon="5.983689951880899"><ele>395.3333333333333</ele><time>2026-04-22T13:36:20Z</time></trkpt><trkpt lat="43.780203477066514" lon="5.9834805144142775"><ele>395.0</ele><time>2026-04-22T13:36:21Z</time></trkpt><trkpt lat="43.78008712618612" lon="5.983220936820504"><ele>393.0</ele><time>2026-04-22T13:36:22Z</time></trkpt><trkpt lat="43.77997554673891" lon="5.98293385315126"><ele>391.0</ele><time>2026-04-22T13:36:23Z</time></trkpt><trkpt lat="43.77984357564344" lon="5.9826544833251605"><ele>391.5</ele><time>2026-04-22T13:36:24Z</time></trkpt><trkpt lat="43.779689286923" lon="5.98236818998959"><ele>392.0</ele><time>2026-04-22T13:36:25Z</time></trkpt><trkpt lat="43.779524049516176" lon="5.982073405292129"><ele>392.0</ele><time>2026-04-22T13:36:26Z</time></trkpt><trkpt lat="43.779360998522016" lon="5.981776405821346"><ele>392.0</ele><time>2026-04-22T13:36:27Z</time></trkpt><trkpt lat="43.77920026171896" lon="5.9814761851873826"><ele>390.5</ele><time>2026-04-22T13:36:28Z</time></trkpt><trkpt lat="43.779042228090546" lon="5.981181378226715"><ele>389.0</ele><time>2026-04-22T13:36:29Z</time></trkpt><trkpt lat="43.77889666849956" lon="5.980903174830041"><ele>389.5</ele><time>2026-04-22T13:36:30Z</time></trkpt><trkpt lat="43.77875793043633" lon="5.9806372943166215"><ele>390.0</ele><time>2026-04-22T13:36:31Z</time></trkpt><trkpt lat="43.778627152333954" lon="5.98038321472256"><ele>388.66666666666663</ele><time>2026-04-22T13:36:32Z</time></trkpt><trkpt lat="43.7785008992925" lon="5.980139634779993"><ele>387.3333333333333</ele><time>2026-04-22T13:36:33Z</time></trkpt><trkpt lat="43.77838384594522" lon="5.97991376288006"><ele>386.0</ele><time>2026-04-22T13:36:34Z</time></trkpt><trkpt lat="43.77826408220859" lon="5.979682235658492"><ele>386.0</ele><time>2026-04-22T13:36:35Z</time></trkpt><trkpt lat="43.778147466704105" lon="5.979465810398864"><ele>386.0</ele><time>2026-04-22T13:36:36Z</time></trkpt><trkpt lat="43.77804035584026" lon="5.979264402235644"><ele>386.0</ele><time>2026-04-22T13:36:37Z</time></trkpt><trkpt lat="43.77793796321039" lon="5.979078206270178"><ele>387.0</ele><time>2026-04-22T13:36:38Z</time></trkpt><trkpt lat="43.777865436542584" lon="5.978883454014729"><ele>388.0</ele><time>2026-04-22T13:36:39Z</time></trkpt><trkpt lat="43.777791730884225" lon="5.9786797947353225"><ele>389.0</ele><time>2026-04-22T13:36:40Z</time></trkpt><trkpt lat="43.77774068329394" lon="5.978458516915397"><ele>390.3333333333333</ele><time>2026-04-22T13:36:41Z</time></trkpt><trkpt lat="43.77770402855157" lon="5.978228675318277"><ele>391.66666666666663</ele><time>2026-04-22T13:36:42Z</time></trkpt><trkpt lat="43.777678290809135" lon="5.977992728247622"><ele>393.0</ele><time>2026-04-22T13:36:43Z</time></trkpt><trkpt lat="43.77765790114031" lon="5.977735645540575"><ele>390.33333333333337</ele><time>2026-04-22T13:36:44Z</time></trkpt><trkpt lat="43.77762282817683" lon="5.977446770980089"><ele>387.6666666666667</ele><time>2026-04-22T13:36:45Z</time></trkpt><trkpt lat="43.77758702098026" lon="5.977138535599376"><ele>385.0</ele><time>2026-04-22T13:36:46Z</time></trkpt><trkpt lat="43.77753931020838" lon="5.976818429592552"><ele>385.6666666666667</ele><time>2026-04-22T13:36:47Z</time></trkpt><trkpt lat="43.77746115868799" lon="5.9765316982528995"><ele>386.33333333333337</ele><time>2026-04-22T13:36:48Z</time></trkpt><trkpt lat="43.77734903767194" lon="5.976276294688154"><ele>387.0</ele><time>2026-04-22T13:36:49Z</time></trkpt><trkpt lat="43.77723081405464" lon="5.976051753581492"><ele>387.0</ele><time>2026-04-22T13:36:50Z</time></trkpt><trkpt lat="43.77711017226117" lon="5.97585362208075"><ele>387.0</ele><time>2026-04-22T13:36:51Z</time></trkpt><trkpt lat="43.77701368542598" lon="5.975652215930342"><ele>387.0</ele><time>2026-04-22T13:36:52Z</time></trkpt><trkpt lat="43.776958777212506" lon="5.9754288566268325"><ele>387.66666666666663</ele><time>2026-04-22T13:36:53Z</time></trkpt><trkpt lat="43.77692874497074" lon="5.975197109845361"><ele>388.3333333333333</ele><time>2026-04-22T13:36:54Z</time></trkpt><trkpt lat="43.7769238701684" lon="5.974965584572622"><ele>389.0</ele><time>2026-04-22T13:36:55Z</time></trkpt><trkpt lat="43.77693708482093" lon="5.974752148967831"><ele>389.0</ele><time>2026-04-22T13:36:56Z</time></trkpt><trkpt lat="43.77695324765881" lon="5.974561090560254"><ele>389.0</ele><time>2026-04-22T13:36:57Z</time></trkpt><trkpt lat="43.77698532682726" lon="5.974356948197408"><ele>389.0</ele><time>2026-04-22T13:36:58Z</time></trkpt><trkpt lat="43.77703486523872" lon="5.974147916203887"><ele>389.0</ele><time>2026-04-22T13:36:59Z</time></trkpt><trkpt lat="43.77708970675197" lon="5.973956018988062"><ele>388.75</ele><time>2026-04-22T13:37:00Z</time></trkpt><trkpt lat="43.77713106256926" lon="5.973758769291618"><ele>388.5</ele><time>2026-04-22T13:37:01Z</time></trkpt><trkpt lat="43.77714842695803" lon="5.973560864533523"><ele>388.25</ele><time>2026-04-22T13:37:02Z</time></trkpt><trkpt lat="43.77715105532392" lon="5.973362569577239"><ele>388.0</ele><time>2026-04-22T13:37:03Z</time></trkpt><trkpt lat="43.77714106720014" lon="5.973146377294047"><ele>388.0</ele><time>2026-04-22T13:37:04Z</time></trkpt><trkpt lat="43.77712587022076" lon="5.972929757707384"><ele>388.0</ele><time>2026-04-22T13:37:05Z</time></trkpt><trkpt lat="43.77712086550211" lon="5.972713303381546"><ele>388.0</ele><time>2026-04-22T13:37:06Z</time></trkpt><trkpt lat="43.777115869136225" lon="5.972506881589762"><ele>388.0</ele><time>2026-04-22T13:37:07Z</time></trkpt><trkpt lat="43.77711032694753" lon="5.972299669178746"><ele>388.0</ele><time>2026-04-22T13:37:08Z</time></trkpt><trkpt lat="43.777094228915274" lon="5.972094666593099"><ele>388.0</ele><time>2026-04-22T13:37:09.001Z</time></trkpt><trkpt lat="43.77706407268912" lon="5.97189783469823"><ele>388.0</ele><time>2026-04-22T13:37:10.001Z</time></trkpt><trkpt lat="43.77702559982526" lon="5.971696535423081"><ele>388.0</ele><time>2026-04-22T13:37:11.001Z</time></trkpt><trkpt lat="43.77698034409606" lon="5.971486332605202"><ele>388.0</ele><time>2026-04-22T13:37:12.001Z</time></trkpt><trkpt lat="43.776934641642065" lon="5.971281411442118"><ele>388.0</ele><time>2026-04-22T13:37:13.001Z</time></trkpt><trkpt lat="43.776890355355626" lon="5.971074018255446"><ele>386.5</ele><time>2026-04-22T13:37:14.001Z</time></trkpt><trkpt lat="43.776852438861006" lon="5.970871708452875"><ele>385.0</ele><time>2026-04-22T13:37:15.001Z</time></trkpt><trkpt lat="43.776818775081814" lon="5.970669039694281"><ele>383.5</ele><time>2026-04-22T13:37:16.001Z</time></trkpt><trkpt lat="43.77678780442049" lon="5.970472426503451"><ele>382.0</ele><time>2026-04-22T13:37:17.001Z</time></trkpt><trkpt lat="43.77675965377692" lon="5.970268208079952"><ele>382.0</ele><time>2026-04-22T13:37:18.001Z</time></trkpt><trkpt lat="43.776727032160274" lon="5.970040105609166"><ele>382.0</ele><time>2026-04-22T13:37:19.001Z</time></trkpt><trkpt lat="43.77669577714714" lon="5.969811640331551"><ele>382.0</ele><time>2026-04-22T13:37:20.001Z</time></trkpt><trkpt lat="43.77667281136053" lon="5.969581262501166"><ele>381.66666666666663</ele><time>2026-04-22T13:37:21.001Z</time></trkpt><trkpt lat="43.776660275561596" lon="5.969351615700252"><ele>381.3333333333333</ele><time>2026-04-22T13:37:22.001Z</time></trkpt><trkpt lat="43.77664553866053" lon="5.9691116432929086"><ele>381.0</ele><time>2026-04-22T13:37:23.001Z</time></trkpt><trkpt lat="43.77662495741579" lon="5.968851702705352"><ele>381.0</ele><time>2026-04-22T13:37:24.001Z</time></trkpt><trkpt lat="43.776598731623764" lon="5.968564787357296"><ele>381.0</ele><time>2026-04-22T13:37:25.001Z</time></trkpt><trkpt lat="43.77656771495335" lon="5.968196593549774"><ele>384.5</ele><time>2026-04-22T13:37:26.001Z</time></trkpt><trkpt lat="43.77656143910096" lon="5.967878404134531"><ele>388.0</ele><time>2026-04-22T13:37:27.001Z</time></trkpt><trkpt lat="43.77654090161303" lon="5.967552195741922"><ele>389.0</ele><time>2026-04-22T13:37:28.001Z</time></trkpt><trkpt lat="43.77650839683901" lon="5.967209234696165"><ele>390.0</ele><time>2026-04-22T13:37:29.001Z</time></trkpt><trkpt lat="43.77647365098223" lon="5.966853207395326"><ele>391.0</ele><time>2026-04-22T13:37:30.001Z</time></trkpt><trkpt lat="43.77643145991059" lon="5.966496125022473"><ele>392.0</ele><time>2026-04-22T13:37:31.001Z</time></trkpt><trkpt lat="43.776388619154055" lon="5.966142830698761"><ele>392.5</ele><time>2026-04-22T13:37:32.001Z</time></trkpt><trkpt lat="43.77634266437908" lon="5.965788336241073"><ele>393.0</ele><time>2026-04-22T13:37:33.001Z</time></trkpt><trkpt lat="43.77628200528072" lon="5.965446437142887"><ele>393.0</ele><time>2026-04-22T13:37:34.001Z</time></trkpt><trkpt lat="43.77620280764727" lon="5.9651058678110465"><ele>393.0</ele><time>2026-04-22T13:37:35.001Z</time></trkpt><trkpt lat="43.776115635162355" lon="5.964767155083467"><ele>396.0</ele><time>2026-04-22T13:37:36.001Z</time></trkpt><trkpt lat="43.77603246759402" lon="5.964443193982629"><ele>399.0</ele><time>2026-04-22T13:37:37.001Z</time></trkpt><trkpt lat="43.775958431958706" lon="5.964132290739782"><ele>388.5</ele><time>2026-04-22T13:37:38.001Z</time></trkpt><trkpt lat="43.77588657576896" lon="5.96380804777411"><ele>378.0</ele><time>2026-04-22T13:37:39.001Z</time></trkpt><trkpt lat="43.775831821558256" lon="5.9634910283573"><ele>380.0</ele><time>2026-04-22T13:37:40.001Z</time></trkpt><trkpt lat="43.775791256135875" lon="5.9631675148559316"><ele>382.0</ele><time>2026-04-22T13:37:41.001Z</time></trkpt><trkpt lat="43.7757502620837" lon="5.962841618900095"><ele>383.5</ele><time>2026-04-22T13:37:42.001Z</time></trkpt><trkpt lat="43.77570107265373" lon="5.962496295707467"><ele>385.0</ele><time>2026-04-22T13:37:43.001Z</time></trkpt><trkpt lat="43.775617635652445" lon="5.962140642579927"><ele>385.0</ele><time>2026-04-22T13:37:44.001Z</time></trkpt><trkpt lat="43.77553922497508" lon="5.961813266704644"><ele>385.0</ele><time>2026-04-22T13:37:45.001Z</time></trkpt><trkpt lat="43.775445186814395" lon="5.961523453027793"><ele>384.6666666666667</ele><time>2026-04-22T13:37:46.001Z</time></trkpt><trkpt lat="43.77536644442718" lon="5.961232559678375"><ele>384.33333333333337</ele><time>2026-04-22T13:37:47.001Z</time></trkpt><trkpt lat="43.775315169659684" lon="5.960940910870776"><ele>384.0</ele><time>2026-04-22T13:37:48.001Z</time></trkpt><trkpt lat="43.775284955555016" lon="5.960643712524263"><ele>385.0</ele><time>2026-04-22T13:37:49.001Z</time></trkpt><trkpt lat="43.77527772442611" lon="5.960352963850995"><ele>386.0</ele><time>2026-04-22T13:37:50.001Z</time></trkpt><trkpt lat="43.775284508614114" lon="5.960050654669598"><ele>387.0</ele><time>2026-04-22T13:37:51Z</time></trkpt><trkpt lat="43.77525947677887" lon="5.959756863148339"><ele>390.33333333333337</ele><time>2026-04-22T13:37:52Z</time></trkpt><trkpt lat="43.77521290674143" lon="5.959465813145472"><ele>393.6666666666667</ele><time>2026-04-22T13:37:53Z</time></trkpt><trkpt lat="43.775134751742826" lon="5.959161353562186"><ele>397.0</ele><time>2026-04-22T13:37:54Z</time></trkpt><trkpt lat="43.77503502572984" lon="5.958855598139973"><ele>388.5</ele><time>2026-04-22T13:37:55Z</time></trkpt><trkpt lat="43.774943047652826" lon="5.958539933508611"><ele>380.0</ele><time>2026-04-22T13:37:56Z</time></trkpt><trkpt lat="43.77484240839039" lon="5.958218920027766"><ele>380.0</ele><time>2026-04-22T13:37:57Z</time></trkpt><trkpt lat="43.774739319600826" lon="5.957926690402965"><ele>380.0</ele><time>2026-04-22T13:37:58Z</time></trkpt><trkpt lat="43.774645201293005" lon="5.95764236097049"><ele>381.33333333333337</ele><time>2026-04-22T13:37:59Z</time></trkpt><trkpt lat="43.7745643337535" lon="5.957375537005599"><ele>382.6666666666667</ele><time>2026-04-22T13:38:00Z</time></trkpt><trkpt lat="43.77450885168974" lon="5.957116514122965"><ele>384.0</ele><time>2026-04-22T13:38:01Z</time></trkpt><trkpt lat="43.774474384297996" lon="5.956847473161475"><ele>386.33333333333337</ele><time>2026-04-22T13:38:02Z</time></trkpt><trkpt lat="43.77443939743584" lon="5.956579548072358"><ele>388.6666666666667</ele><time>2026-04-22T13:38:03Z</time></trkpt><trkpt lat="43.7743870085951" lon="5.956306228208944"><ele>391.0</ele><time>2026-04-22T13:38:04Z</time></trkpt><trkpt lat="43.77431603840412" lon="5.956028910082944"><ele>385.33333333333337</ele><time>2026-04-22T13:38:05Z</time></trkpt><trkpt lat="43.77424769228887" lon="5.955741357621737"><ele>379.6666666666667</ele><time>2026-04-22T13:38:06Z</time></trkpt><trkpt lat="43.77417075362244" lon="5.955457772520703"><ele>374.0</ele><time>2026-04-22T13:38:07Z</time></trkpt><trkpt lat="43.774071129250274" lon="5.955182139001873"><ele>374.5</ele><time>2026-04-22T13:38:08Z</time></trkpt><trkpt lat="43.77393941682001" lon="5.954923549436976"><ele>375.0</ele><time>2026-04-22T13:38:09Z</time></trkpt><trkpt lat="43.77378603181035" lon="5.954662738993809"><ele>375.0</ele><time>2026-04-22T13:38:10Z</time></trkpt><trkpt lat="43.77363289857897" lon="5.954395990826598"><ele>375.0</ele><time>2026-04-22T13:38:11Z</time></trkpt><trkpt lat="43.77349488666975" lon="5.954123154242451"><ele>372.0</ele><time>2026-04-22T13:38:12Z</time></trkpt><trkpt lat="43.77336110904803" lon="5.953840535917188"><ele>369.0</ele><time>2026-04-22T13:38:13Z</time></trkpt><trkpt lat="43.773230643485626" lon="5.953556694638189"><ele>370.6666666666667</ele><time>2026-04-22T13:38:14Z</time></trkpt><trkpt lat="43.773107632214064" lon="5.953285102595524"><ele>372.33333333333337</ele><time>2026-04-22T13:38:15Z</time></trkpt><trkpt lat="43.772996250508335" lon="5.953032606845233"><ele>374.0</ele><time>2026-04-22T13:38:16Z</time></trkpt><trkpt lat="43.77289029531563" lon="5.952768864934941"><ele>376.5</ele><time>2026-04-22T13:38:17Z</time></trkpt><trkpt lat="43.77278514182808" lon="5.9524837196259215"><ele>379.0</ele><time>2026-04-22T13:38:18Z</time></trkpt><trkpt lat="43.77269226781522" lon="5.95218744606131"><ele>372.0</ele><time>2026-04-22T13:38:19Z</time></trkpt><trkpt lat="43.77259851136598" lon="5.951882789890303"><ele>365.0</ele><time>2026-04-22T13:38:20Z</time></trkpt><trkpt lat="43.772505672209924" lon="5.951583296592542"><ele>365.0</ele><time>2026-04-22T13:38:21Z</time></trkpt><trkpt lat="43.77240114202321" lon="5.9512864706905075"><ele>365.0</ele><time>2026-04-22T13:38:22Z</time></trkpt><trkpt lat="43.772279788105415" lon="5.950995255696609"><ele>369.0</ele><time>2026-04-22T13:38:23Z</time></trkpt><trkpt lat="43.77214287243115" lon="5.950716027346373"><ele>373.0</ele><time>2026-04-22T13:38:24Z</time></trkpt><trkpt lat="43.77198873329608" lon="5.950452935593049"><ele>370.0</ele><time>2026-04-22T13:38:25Z</time></trkpt><trkpt lat="43.771828168075864" lon="5.950219994390451"><ele>367.0</ele><time>2026-04-22T13:38:26Z</time></trkpt><trkpt lat="43.77165930836131" lon="5.9499915598195665"><ele>367.0</ele><time>2026-04-22T13:38:27Z</time></trkpt><trkpt lat="43.771481726134944" lon="5.949776725502783"><ele>367.0</ele><time>2026-04-22T13:38:28Z</time></trkpt><trkpt lat="43.7712827358728" lon="5.949605719597761"><ele>367.0</ele><time>2026-04-22T13:38:29Z</time></trkpt><trkpt lat="43.77109065530811" lon="5.949441889328912"><ele>367.0</ele><time>2026-04-22T13:38:30Z</time></trkpt><trkpt lat="43.770914070539376" lon="5.949286737022126"><ele>367.0</ele><time>2026-04-22T13:38:31Z</time></trkpt><trkpt lat="43.77075520509213" lon="5.9491440693967315"><ele>367.0</ele><time>2026-04-22T13:38:32Z</time></trkpt><trkpt lat="43.77060169460841" lon="5.9490037751593965"><ele>367.0</ele><time>2026-04-22T13:38:33Z</time></trkpt><trkpt lat="43.77045738358525" lon="5.948860853724647"><ele>367.0</ele><time>2026-04-22T13:38:34Z</time></trkpt><trkpt lat="43.77030582305632" lon="5.948697072381177"><ele>365.66666666666663</ele><time>2026-04-22T13:38:35Z</time></trkpt><trkpt lat="43.77014951073909" lon="5.948502304720513"><ele>364.3333333333333</ele><time>2026-04-22T13:38:36Z</time></trkpt><trkpt lat="43.76999200079991" lon="5.948281896340686"><ele>363.0</ele><time>2026-04-22T13:38:37Z</time></trkpt><trkpt lat="43.76984047036716" lon="5.948043931966068"><ele>363.0</ele><time>2026-04-22T13:38:38Z</time></trkpt><trkpt lat="43.7697077672412" lon="5.947809972798154"><ele>363.0</ele><time>2026-04-22T13:38:39Z</time></trkpt><trkpt lat="43.769576552460485" lon="5.947583407330232"><ele>363.0</ele><time>2026-04-22T13:38:40Z</time></trkpt><trkpt lat="43.76945471261926" lon="5.947372727188556"><ele>361.6666666666667</ele><time>2026-04-22T13:38:41Z</time></trkpt><trkpt lat="43.7693419863282" lon="5.947146648837053"><ele>360.33333333333337</ele><time>2026-04-22T13:38:42Z</time></trkpt><trkpt lat="43.76924540766297" lon="5.946916868319932"><ele>359.0</ele><time>2026-04-22T13:38:43Z</time></trkpt><trkpt lat="43.76914452292564" lon="5.946672381680092"><ele>359.0</ele><time>2026-04-22T13:38:44Z</time></trkpt><trkpt lat="43.76904942368045" lon="5.946417067415405"><ele>359.0</ele><time>2026-04-22T13:38:45Z</time></trkpt><trkpt lat="43.76895977261617" lon="5.946180389286457"><ele>359.0</ele><time>2026-04-22T13:38:46Z</time></trkpt><trkpt lat="43.76888691747647" lon="5.945963552984698"><ele>358.33333333333337</ele><time>2026-04-22T13:38:47Z</time></trkpt><trkpt lat="43.768846922492855" lon="5.945758406127351"><ele>357.6666666666667</ele><time>2026-04-22T13:38:48Z</time></trkpt><trkpt lat="43.768848790864176" lon="5.9455460552291095"><ele>357.0</ele><time>2026-04-22T13:38:49Z</time></trkpt><trkpt lat="43.768867661728535" lon="5.945323065805095"><ele>357.0</ele><time>2026-04-22T13:38:50Z</time></trkpt><trkpt lat="43.76892434733514" lon="5.94509896580243"><ele>357.0</ele><time>2026-04-22T13:38:51Z</time></trkpt><trkpt lat="43.76901401595665" lon="5.944846605315802"><ele>357.0</ele><time>2026-04-22T13:38:52Z</time></trkpt><trkpt lat="43.76909947841433" lon="5.944607575947348"><ele>356.0</ele><time>2026-04-22T13:38:53Z</time></trkpt><trkpt lat="43.7691820048865" lon="5.944348968300184"><ele>355.0</ele><time>2026-04-22T13:38:54Z</time></trkpt><trkpt lat="43.769242990345866" lon="5.944091165954077"><ele>354.0</ele><time>2026-04-22T13:38:55Z</time></trkpt><trkpt lat="43.769280396362824" lon="5.9438344198653015"><ele>353.3333333333333</ele><time>2026-04-22T13:38:56Z</time></trkpt><trkpt lat="43.76927766967079" lon="5.943574717114861"><ele>352.66666666666663</ele><time>2026-04-22T13:38:57Z</time></trkpt><trkpt lat="43.76924249153261" lon="5.943323743928084"><ele>352.0</ele><time>2026-04-22T13:38:58Z</time></trkpt><trkpt lat="43.76918052413651" lon="5.943084690517051"><ele>352.0</ele><time>2026-04-22T13:38:59Z</time></trkpt><trkpt lat="43.76909806635504" lon="5.942864308237272"><ele>352.0</ele><time>2026-04-22T13:39:00Z</time></trkpt><trkpt lat="43.76899727502005" lon="5.9426693030519395"><ele>352.0</ele><time>2026-04-22T13:39:01Z</time></trkpt><trkpt lat="43.76887356211627" lon="5.942489787274592"><ele>353.0</ele><time>2026-04-22T13:39:02Z</time></trkpt><trkpt lat="43.768737956050046" lon="5.942311721195262"><ele>354.0</ele><time>2026-04-22T13:39:03.001Z</time></trkpt><trkpt lat="43.76860806900157" lon="5.942120486278046"><ele>355.0</ele><time>2026-04-22T13:39:04.001Z</time></trkpt><trkpt lat="43.76847158239608" lon="5.941921907137154"><ele>355.0</ele><time>2026-04-22T13:39:05.001Z</time></trkpt><trkpt lat="43.76832874079752" lon="5.941729391709629"><ele>355.0</ele><time>2026-04-22T13:39:06.001Z</time></trkpt><trkpt lat="43.768184100010814" lon="5.941549523734133"><ele>355.0</ele><time>2026-04-22T13:39:07.001Z</time></trkpt><trkpt lat="43.76807139133103" lon="5.9413744805490705"><ele>357.0</ele><time>2026-04-22T13:39:08.001Z</time></trkpt><trkpt lat="43.76798564721972" lon="5.941186949689828"><ele>359.0</ele><time>2026-04-22T13:39:09.001Z</time></trkpt><trkpt lat="43.767953204355024" lon="5.940989396198747"><ele>361.0</ele><time>2026-04-22T13:39:10.001Z</time></trkpt><trkpt lat="43.76794158741841" lon="5.940774223487081"><ele>363.66666666666663</ele><time>2026-04-22T13:39:11.001Z</time></trkpt><trkpt lat="43.76793428562207" lon="5.9405402798632245"><ele>366.3333333333333</ele><time>2026-04-22T13:39:12.001Z</time></trkpt><trkpt lat="43.76793144219136" lon="5.94029725560567"><ele>369.0</ele><time>2026-04-22T13:39:13.001Z</time></trkpt><trkpt lat="43.76792531083253" lon="5.94004670547614"><ele>369.6666666666667</ele><time>2026-04-22T13:39:14.001Z</time></trkpt><trkpt lat="43.76790450534532" lon="5.93979232247452"><ele>370.33333333333337</ele><time>2026-04-22T13:39:15.001Z</time></trkpt><trkpt lat="43.76785358489327" lon="5.9395302272335115"><ele>371.0</ele><time>2026-04-22T13:39:16.001Z</time></trkpt><trkpt lat="43.767758821478296" lon="5.939280689019912"><ele>367.0</ele><time>2026-04-22T13:39:17.001Z</time></trkpt><trkpt lat="43.7676401320406" lon="5.93904610401513"><ele>363.0</ele><time>2026-04-22T13:39:18.001Z</time></trkpt><trkpt lat="43.767518627947474" lon="5.938836209254438"><ele>359.0</ele><time>2026-04-22T13:39:19.001Z</time></trkpt><trkpt lat="43.76740906537005" lon="5.938631173862511"><ele>359.0</ele><time>2026-04-22T13:39:20.001Z</time></trkpt><trkpt lat="43.76731969532735" lon="5.938436291001315"><ele>359.0</ele><time>2026-04-22T13:39:21.001Z</time></trkpt><trkpt lat="43.767263015968794" lon="5.938248066455153"><ele>359.0</ele><time>2026-04-22T13:39:22.001Z</time></trkpt><trkpt lat="43.76724930586518" lon="5.938057273752146"><ele>359.5</ele><time>2026-04-22T13:39:23.001Z</time></trkpt><trkpt lat="43.76728110404024" lon="5.937873102602552"><ele>360.0</ele><time>2026-04-22T13:39:24.001Z</time></trkpt><trkpt lat="43.76733849374383" lon="5.937708565623605"><ele>360.5</ele><time>2026-04-22T13:39:25.001Z</time></trkpt><trkpt lat="43.7674022557913" lon="5.937541952165063"><ele>361.0</ele><time>2026-04-22T13:39:26.001Z</time></trkpt><trkpt lat="43.767456037221656" lon="5.937363213430032"><ele>361.0</ele><time>2026-04-22T13:39:27.001Z</time></trkpt><trkpt lat="43.76749456373126" lon="5.937163721304845"><ele>361.0</ele><time>2026-04-22T13:39:28.001Z</time></trkpt><trkpt lat="43.767526521319795" lon="5.936948269511914"><ele>361.0</ele><time>2026-04-22T13:39:29.001Z</time></trkpt><trkpt lat="43.76755926768976" lon="5.936712103096241"><ele>360.3333333333333</ele><time>2026-04-22T13:39:30.001Z</time></trkpt><trkpt lat="43.767587038464086" lon="5.936468055962628"><ele>359.6666666666667</ele><time>2026-04-22T13:39:31.001Z</time></trkpt><trkpt lat="43.767587453077915" lon="5.936215310516004"><ele>359.0</ele><time>2026-04-22T13:39:32.001Z</time></trkpt><trkpt lat="43.76754167947393" lon="5.935962984773627"><ele>360.0</ele><time>2026-04-22T13:39:33.001Z</time></trkpt><trkpt lat="43.76742869006826" lon="5.93573072202295"><ele>361.0</ele><time>2026-04-22T13:39:34.001Z</time></trkpt><trkpt lat="43.767314406823175" lon="5.935523568279264"><ele>362.0</ele><time>2026-04-22T13:39:35.001Z</time></trkpt><trkpt lat="43.76717366002652" lon="5.935337165494632"><ele>362.0</ele><time>2026-04-22T13:39:36.001Z</time></trkpt><trkpt lat="43.76701782486744" lon="5.9351536509570515"><ele>362.0</ele><time>2026-04-22T13:39:37.001Z</time></trkpt><trkpt lat="43.76685631418833" lon="5.934950897427223"><ele>362.0</ele><time>2026-04-22T13:39:38.001Z</time></trkpt><trkpt lat="43.7666892383841" lon="5.934738347600955"><ele>359.6666666666667</ele><time>2026-04-22T13:39:39.001Z</time></trkpt><trkpt lat="43.766525631336805" lon="5.934563867272992"><ele>357.3333333333333</ele><time>2026-04-22T13:39:40.001Z</time></trkpt><trkpt lat="43.766370447386265" lon="5.9345141516177184"><ele>355.0</ele><time>2026-04-22T13:39:41.001Z</time></trkpt><trkpt lat="43.76621774072823" lon="5.934534287111937"><ele>355.0</ele><time>2026-04-22T13:39:42.001Z</time></trkpt><trkpt lat="43.76606102343941" lon="5.934582900037975"><ele>355.0</ele><time>2026-04-22T13:39:43.001Z</time></trkpt><trkpt lat="43.76583407022949" lon="5.934301968082689"><ele>352.75</ele><time>2026-04-22T13:39:44.001Z</time></trkpt><trkpt lat="43.76567532217192" lon="5.934318165381113"><ele>350.5</ele><time>2026-04-22T13:39:45.001Z</time></trkpt><trkpt lat="43.76553776078359" lon="5.9343014770542375"><ele>348.25</ele><time>2026-04-22T13:39:46.001Z</time></trkpt><trkpt lat="43.765405728289814" lon="5.934251757537371"><ele>346.0</ele><time>2026-04-22T13:39:47.001Z</time></trkpt><trkpt lat="43.76530803786839" lon="5.934166216482047"><ele>348.0</ele><time>2026-04-22T13:39:48.001Z</time></trkpt><trkpt lat="43.76523243317668" lon="5.9340432087649075"><ele>350.0</ele><time>2026-04-22T13:39:49.001Z</time></trkpt><trkpt lat="43.765187256925664" lon="5.933863916409186"><ele>352.0</ele><time>2026-04-22T13:39:50.001Z</time></trkpt><trkpt lat="43.765154142758924" lon="5.933672433921552"><ele>354.0</ele><time>2026-04-22T13:39:51.001Z</time></trkpt><trkpt lat="43.76512877474142" lon="5.93347253754766"><ele>357.0</ele><time>2026-04-22T13:39:52.001Z</time></trkpt><trkpt lat="43.76507801766924" lon="5.933263631693425"><ele>360.0</ele><time>2026-04-22T13:39:53.001Z</time></trkpt><trkpt lat="43.76499931070392" lon="5.933050815949066"><ele>363.0</ele><time>2026-04-22T13:39:54.001Z</time></trkpt><trkpt lat="43.76486818253508" lon="5.932874405840936"><ele>363.0</ele><time>2026-04-22T13:39:55.001Z</time></trkpt><trkpt lat="43.76471816338403" lon="5.932754565371995"><ele>363.0</ele><time>2026-04-22T13:39:56.001Z</time></trkpt><trkpt lat="43.76455816196369" lon="5.932658366963258"><ele>363.0</ele><time>2026-04-22T13:39:57Z</time></trkpt><trkpt lat="43.764432900502186" lon="5.9325516287337114"><ele>360.25</ele><time>2026-04-22T13:39:58Z</time></trkpt><trkpt lat="43.76433507172023" lon="5.93240911028632"><ele>357.5</ele><time>2026-04-22T13:39:59Z</time></trkpt><trkpt lat="43.76428079245564" lon="5.932232299642536"><ele>354.75</ele><time>2026-04-22T13:40:00Z</time></trkpt><trkpt lat="43.76426040154556" lon="5.932031984044902"><ele>352.0</ele><time>2026-04-22T13:40:01Z</time></trkpt><trkpt lat="43.764277243527694" lon="5.931820984426119"><ele>352.66666666666663</ele><time>2026-04-22T13:40:02Z</time></trkpt><trkpt lat="43.764310388860146" lon="5.931584491743079"><ele>353.3333333333333</ele><time>2026-04-22T13:40:03Z</time></trkpt><trkpt lat="43.764347116657945" lon="5.931332142452655"><ele>354.0</ele><time>2026-04-22T13:40:04Z</time></trkpt><trkpt lat="43.76438254560572" lon="5.931050381818293"><ele>364.0</ele><time>2026-04-22T13:40:05Z</time></trkpt><trkpt lat="43.76441745252643" lon="5.930762093145702"><ele>374.0</ele><time>2026-04-22T13:40:06Z</time></trkpt><trkpt lat="43.764476244356096" lon="5.930414743761124"><ele>374.0</ele><time>2026-04-22T13:40:07Z</time></trkpt><trkpt lat="43.76449604382434" lon="5.930099664752816"><ele>374.0</ele><time>2026-04-22T13:40:08Z</time></trkpt><trkpt lat="43.7644900366598" lon="5.92980751383154"><ele>374.0</ele><time>2026-04-22T13:40:09Z</time></trkpt><trkpt lat="43.76447806710593" lon="5.929544842707991"><ele>374.33333333333337</ele><time>2026-04-22T13:40:10Z</time></trkpt><trkpt lat="43.764436861167916" lon="5.929277873363256"><ele>374.6666666666667</ele><time>2026-04-22T13:40:11Z</time></trkpt><trkpt lat="43.764370658134204" lon="5.929038995884221"><ele>375.0</ele><time>2026-04-22T13:40:12Z</time></trkpt><trkpt lat="43.76426957070317" lon="5.928830160310958"><ele>368.3333333333333</ele><time>2026-04-22T13:40:13Z</time></trkpt><trkpt lat="43.764152376209395" lon="5.928660044404285"><ele>361.66666666666663</ele><time>2026-04-22T13:40:14Z</time></trkpt><trkpt lat="43.764010517327016" lon="5.928544040084737"><ele>355.0</ele><time>2026-04-22T13:40:15Z</time></trkpt><trkpt lat="43.76384749477542" lon="5.928470733609373"><ele>355.0</ele><time>2026-04-22T13:40:16Z</time></trkpt><trkpt lat="43.76368155020534" lon="5.9284398777995175"><ele>355.0</ele><time>2026-04-22T13:40:17Z</time></trkpt><trkpt lat="43.76353113887622" lon="5.928420453626703"><ele>355.0</ele><time>2026-04-22T13:40:18Z</time></trkpt><trkpt lat="43.763397439089246" lon="5.9283615771139795"><ele>354.5</ele><time>2026-04-22T13:40:19Z</time></trkpt><trkpt lat="43.76328691827989" lon="5.928245765376913"><ele>354.0</ele><time>2026-04-22T13:40:20Z</time></trkpt><trkpt lat="43.763198490990504" lon="5.928080993443022"><ele>353.5</ele><time>2026-04-22T13:40:21Z</time></trkpt><trkpt lat="43.763151627132174" lon="5.927876222735238"><ele>353.0</ele><time>2026-04-22T13:40:22Z</time></trkpt><trkpt lat="43.763118174548374" lon="5.9276596403898845"><ele>359.6666666666667</ele><time>2026-04-22T13:40:23Z</time></trkpt><trkpt lat="43.7630751962589" lon="5.927455138519019"><ele>366.3333333333333</ele><time>2026-04-22T13:40:24Z</time></trkpt><trkpt lat="43.76298577324856" lon="5.927283152394851"><ele>373.0</ele><time>2026-04-22T13:40:25Z</time></trkpt><trkpt lat="43.762870516662566" lon="5.927145017596933"><ele>373.0</ele><time>2026-04-22T13:40:26Z</time></trkpt><trkpt lat="43.76273197246562" lon="5.927053037749836"><ele>373.0</ele><time>2026-04-22T13:40:27Z</time></trkpt><trkpt lat="43.76256816756914" lon="5.927003402662077"><ele>373.0</ele><time>2026-04-22T13:40:28Z</time></trkpt><trkpt lat="43.76240168475668" lon="5.926974598585865"><ele>370.75</ele><time>2026-04-22T13:40:29Z</time></trkpt><trkpt lat="43.762242556252204" lon="5.926966243382911"><ele>368.5</ele><time>2026-04-22T13:40:30Z</time></trkpt><trkpt lat="43.762104824022295" lon="5.926910240278843"><ele>366.25</ele><time>2026-04-22T13:40:31Z</time></trkpt><trkpt lat="43.76199033402456" lon="5.926796283898833"><ele>364.0</ele><time>2026-04-22T13:40:32Z</time></trkpt><trkpt lat="43.76191001334554" lon="5.926633674839353"><ele>357.3333333333333</ele><time>2026-04-22T13:40:33Z</time></trkpt><trkpt lat="43.76183855274893" lon="5.926454380543459"><ele>350.6666666666667</ele><time>2026-04-22T13:40:34Z</time></trkpt><trkpt lat="43.761728576963236" lon="5.926297611380954"><ele>344.0</ele><time>2026-04-22T13:40:35Z</time></trkpt><trkpt lat="43.761574147974315" lon="5.926195917433165"><ele>344.0</ele><time>2026-04-22T13:40:36Z</time></trkpt><trkpt lat="43.76142213109339" lon="5.926118798203733"><ele>344.0</ele><time>2026-04-22T13:40:37Z</time></trkpt><trkpt lat="43.76130647616082" lon="5.925985166191137"><ele>344.0</ele><time>2026-04-22T13:40:38Z</time></trkpt><trkpt lat="43.76121730306679" lon="5.9257902564073"><ele>343.6666666666667</ele><time>2026-04-22T13:40:39Z</time></trkpt><trkpt lat="43.76115368753671" lon="5.925549715627909"><ele>343.3333333333333</ele><time>2026-04-22T13:40:40Z</time></trkpt><trkpt lat="43.76108452674234" lon="5.925293562726286"><ele>343.0</ele><time>2026-04-22T13:40:41Z</time></trkpt><trkpt lat="43.7610017424847" lon="5.925026817094845"><ele>343.0</ele><time>2026-04-22T13:40:42Z</time></trkpt><trkpt lat="43.760901575707756" lon="5.924761742651219"><ele>343.0</ele><time>2026-04-22T13:40:43Z</time></trkpt><trkpt lat="43.76079920816184" lon="5.924485686170605"><ele>343.0</ele><time>2026-04-22T13:40:44Z</time></trkpt><trkpt lat="43.76070784264667" lon="5.924198516506845"><ele>345.66666666666663</ele><time>2026-04-22T13:40:45Z</time></trkpt><trkpt lat="43.76063002623509" lon="5.923905603114208"><ele>348.3333333333333</ele><time>2026-04-22T13:40:46Z</time></trkpt><trkpt lat="43.76056963390114" lon="5.923616379013141"><ele>351.0</ele><time>2026-04-22T13:40:47Z</time></trkpt><trkpt lat="43.760536450959165" lon="5.923327424844837"><ele>352.0</ele><time>2026-04-22T13:40:48Z</time></trkpt><trkpt lat="43.76049022492843" lon="5.923035755011959"><ele>353.0</ele><time>2026-04-22T13:40:49Z</time></trkpt><trkpt lat="43.760455130234156" lon="5.922751196883307"><ele>354.0</ele><time>2026-04-22T13:40:50Z</time></trkpt><trkpt lat="43.760415320821" lon="5.922480615546"><ele>356.3333333333333</ele><time>2026-04-22T13:40:51Z</time></trkpt><trkpt lat="43.760375725113406" lon="5.922204740414562"><ele>358.66666666666663</ele><time>2026-04-22T13:40:52Z</time></trkpt><trkpt lat="43.76031853301406" lon="5.921933567402419"><ele>361.0</ele><time>2026-04-22T13:40:53Z</time></trkpt><trkpt lat="43.7602349487021" lon="5.921677413586186"><ele>354.66666666666663</ele><time>2026-04-22T13:40:54Z</time></trkpt><trkpt lat="43.76012311397091" lon="5.921443253887811"><ele>348.3333333333333</ele><time>2026-04-22T13:40:55Z</time></trkpt><trkpt lat="43.760002156190595" lon="5.9212154675885555"><ele>342.0</ele><time>2026-04-22T13:40:56Z</time></trkpt><trkpt lat="43.759880005235345" lon="5.920983745439178"><ele>347.0</ele><time>2026-04-22T13:40:57Z</time></trkpt><trkpt lat="43.7597434401153" lon="5.920759029345558"><ele>352.0</ele><time>2026-04-22T13:40:58Z</time></trkpt><trkpt lat="43.75959910358901" lon="5.920537590222191"><ele>357.0</ele><time>2026-04-22T13:40:59Z</time></trkpt><trkpt lat="43.75942253041464" lon="5.920366634162719"><ele>357.3333333333333</ele><time>2026-04-22T13:41:00Z</time></trkpt><trkpt lat="43.75923752323596" lon="5.920215241462582"><ele>357.66666666666663</ele><time>2026-04-22T13:41:01Z</time></trkpt><trkpt lat="43.759066205142545" lon="5.920080762084041"><ele>358.0</ele><time>2026-04-22T13:41:02Z</time></trkpt><trkpt lat="43.758910348047" lon="5.919956577199013"><ele>358.0</ele><time>2026-04-22T13:41:03Z</time></trkpt><trkpt lat="43.75875313515271" lon="5.919867337888574"><ele>358.0</ele><time>2026-04-22T13:41:04Z</time></trkpt><trkpt lat="43.75858664381456" lon="5.919830569289438"><ele>358.0</ele><time>2026-04-22T13:41:05Z</time></trkpt><trkpt lat="43.75841229050433" lon="5.919849660153138"><ele>354.3333333333333</ele><time>2026-04-22T13:41:06Z</time></trkpt><trkpt lat="43.75824778138126" lon="5.919916665212179"><ele>350.6666666666667</ele><time>2026-04-22T13:41:07Z</time></trkpt><trkpt lat="43.75809197437042" lon="5.920027870522877"><ele>347.0</ele><time>2026-04-22T13:41:08Z</time></trkpt><trkpt lat="43.757942234782575" lon="5.920140482785135"><ele>344.25</ele><time>2026-04-22T13:41:09Z</time></trkpt><trkpt lat="43.75779891041263" lon="5.9201908223263295"><ele>341.5</ele><time>2026-04-22T13:41:10Z</time></trkpt><trkpt lat="43.757650544359336" lon="5.920177821164565"><ele>338.75</ele><time>2026-04-22T13:41:11Z</time></trkpt><trkpt lat="43.75750930645766" lon="5.920105469116561"><ele>336.0</ele><time>2026-04-22T13:41:12Z</time></trkpt><trkpt lat="43.75738594311128" lon="5.919976429252774"><ele>336.0</ele><time>2026-04-22T13:41:13Z</time></trkpt><trkpt lat="43.75728345091976" lon="5.919810534587539"><ele>336.0</ele><time>2026-04-22T13:41:14Z</time></trkpt><trkpt lat="43.757197616323786" lon="5.919595984330044"><ele>336.0</ele><time>2026-04-22T13:41:15Z</time></trkpt><trkpt lat="43.757121130421076" lon="5.919354184295882"><ele>337.0</ele><time>2026-04-22T13:41:16Z</time></trkpt><trkpt lat="43.7570225582201" lon="5.919105833561025"><ele>338.0</ele><time>2026-04-22T13:41:17Z</time></trkpt><trkpt lat="43.75687714873412" lon="5.918874686617751"><ele>339.0</ele><time>2026-04-22T13:41:18Z</time></trkpt><trkpt lat="43.75670235419842" lon="5.918644092223092"><ele>336.3333333333333</ele><time>2026-04-22T13:41:19.001Z</time></trkpt><trkpt lat="43.756544065466976" lon="5.918413627404253"><ele>333.66666666666663</ele><time>2026-04-22T13:41:20.001Z</time></trkpt><trkpt lat="43.75640982999175" lon="5.918187977684904"><ele>331.0</ele><time>2026-04-22T13:41:21.001Z</time></trkpt><trkpt lat="43.756298462207006" lon="5.917969248158104"><ele>331.0</ele><time>2026-04-22T13:41:22.001Z</time></trkpt><trkpt lat="43.75621354204001" lon="5.9177389153731115"><ele>331.0</ele><time>2026-04-22T13:41:23.001Z</time></trkpt><trkpt lat="43.75616874069586" lon="5.917493754804424"><ele>331.0</ele><time>2026-04-22T13:41:24.001Z</time></trkpt><trkpt lat="43.75616689845528" lon="5.917239832528004"><ele>333.3333333333333</ele><time>2026-04-22T13:41:25.001Z</time></trkpt><trkpt lat="43.7562010891866" lon="5.916981594404983"><ele>335.6666666666667</ele><time>2026-04-22T13:41:26.001Z</time></trkpt><trkpt lat="43.756268784215344" lon="5.916716126213507"><ele>338.0</ele><time>2026-04-22T13:41:27.001Z</time></trkpt><trkpt lat="43.75634839298994" lon="5.916436499968525"><ele>338.0</ele><time>2026-04-22T13:41:28.001Z</time></trkpt><trkpt lat="43.7564232656148" lon="5.916137583016149"><ele>338.0</ele><time>2026-04-22T13:41:29.001Z</time></trkpt><trkpt lat="43.756505303246826" lon="5.915823199218426"><ele>334.0</ele><time>2026-04-22T13:41:30.001Z</time></trkpt><trkpt lat="43.75658287441389" lon="5.91549965994255"><ele>330.0</ele><time>2026-04-22T13:41:31.001Z</time></trkpt><trkpt lat="43.7566570090534" lon="5.915162679843951"><ele>327.5</ele><time>2026-04-22T13:41:32.001Z</time></trkpt><trkpt lat="43.7567356924818" lon="5.914826204166551"><ele>325.0</ele><time>2026-04-22T13:41:33.001Z</time></trkpt><trkpt lat="43.756811650464584" lon="5.914487995174907"><ele>329.5</ele><time>2026-04-22T13:41:34.001Z</time></trkpt><trkpt lat="43.75688291295814" lon="5.914142074667502"><ele>334.0</ele><time>2026-04-22T13:41:35.001Z</time></trkpt><trkpt lat="43.756949395556056" lon="5.913790753623908"><ele>334.0</ele><time>2026-04-22T13:41:36.001Z</time></trkpt><trkpt lat="43.7570129237727" lon="5.9134309739401205"><ele>334.0</ele><time>2026-04-22T13:41:37.001Z</time></trkpt><trkpt lat="43.75706867333973" lon="5.9130747152929874"><ele>330.0</ele><time>2026-04-22T13:41:38.001Z</time></trkpt><trkpt lat="43.75711515450608" lon="5.912707992769795"><ele>326.0</ele><time>2026-04-22T13:41:39.001Z</time></trkpt><trkpt lat="43.75715710129401" lon="5.9123524900933635"><ele>325.0</ele><time>2026-04-22T13:41:40.001Z</time></trkpt><trkpt lat="43.75719335637046" lon="5.911991039024426"><ele>324.0</ele><time>2026-04-22T13:41:41.001Z</time></trkpt><trkpt lat="43.757227119761914" lon="5.91162641551323"><ele>323.5</ele><time>2026-04-22T13:41:42.001Z</time></trkpt><trkpt lat="43.7572629540505" lon="5.911262368331954"><ele>323.0</ele><time>2026-04-22T13:41:43.001Z</time></trkpt><trkpt lat="43.7572976633551" lon="5.910897486570399"><ele>323.0</ele><time>2026-04-22T13:41:44.001Z</time></trkpt><trkpt lat="43.757331664786264" lon="5.9105270968831265"><ele>323.0</ele><time>2026-04-22T13:41:45.001Z</time></trkpt><trkpt lat="43.757367342273305" lon="5.910176728730869"><ele>323.5</ele><time>2026-04-22T13:41:46.001Z</time></trkpt><trkpt lat="43.75740301456203" lon="5.909841506541406"><ele>324.0</ele><time>2026-04-22T13:41:47.001Z</time></trkpt><trkpt lat="43.757439496906635" lon="5.90952454145427"><ele>324.0</ele><time>2026-04-22T13:41:48.001Z</time></trkpt><trkpt lat="43.75747151502739" lon="5.909240287985068"><ele>324.0</ele><time>2026-04-22T13:41:49.001Z</time></trkpt><trkpt lat="43.75750074549453" lon="5.908981140327622"><ele>324.0</ele><time>2026-04-22T13:41:50.001Z</time></trkpt><trkpt lat="43.75752913802263" lon="5.908732400830106"><ele>324.0</ele><time>2026-04-22T13:41:51.001Z</time></trkpt><trkpt lat="43.75755345420851" lon="5.9084875501517"><ele>324.0</ele><time>2026-04-22T13:41:52.001Z</time></trkpt><trkpt lat="43.75757705274528" lon="5.908247221445348"><ele>324.0</ele><time>2026-04-22T13:41:53.001Z</time></trkpt><trkpt lat="43.75759755153763" lon="5.908003166086405"><ele>324.6666666666667</ele><time>2026-04-22T13:41:54.001Z</time></trkpt><trkpt lat="43.75762002048037" lon="5.90776526686404"><ele>325.33333333333337</ele><time>2026-04-22T13:41:55.001Z</time></trkpt><trkpt lat="43.75764681641931" lon="5.907533524612087"><ele>326.0</ele><time>2026-04-22T13:41:56.001Z</time></trkpt><trkpt lat="43.75767367114866" lon="5.9072942896803795"><ele>329.33333333333337</ele><time>2026-04-22T13:41:57.001Z</time></trkpt><trkpt lat="43.75770742881866" lon="5.907045868927508"><ele>332.6666666666667</ele><time>2026-04-22T13:41:58.001Z</time></trkpt><trkpt lat="43.757751467161754" lon="5.90680046539294"><ele>336.0</ele><time>2026-04-22T13:41:59.001Z</time></trkpt><trkpt lat="43.757797486928375" lon="5.906558408317128"><ele>338.3333333333333</ele><time>2026-04-22T13:42:00.001Z</time></trkpt><trkpt lat="43.757846015778505" lon="5.906316025456087"><ele>340.66666666666663</ele><time>2026-04-22T13:42:01.001Z</time></trkpt><trkpt lat="43.757891596483006" lon="5.906077335188161"><ele>343.0</ele><time>2026-04-22T13:42:02.001Z</time></trkpt><trkpt lat="43.75793625616931" lon="5.9058371736244215"><ele>343.0</ele><time>2026-04-22T13:42:03Z</time></trkpt><trkpt lat="43.75797230770819" lon="5.905589674978173"><ele>343.0</ele><time>2026-04-22T13:42:04Z</time></trkpt><trkpt lat="43.757994976324895" lon="5.905331652866907"><ele>343.0</ele><time>2026-04-22T13:42:05Z</time></trkpt><trkpt lat="43.758013320675325" lon="5.905069171716079"><ele>342.66666666666663</ele><time>2026-04-22T13:42:06Z</time></trkpt><trkpt lat="43.75802248128639" lon="5.904809406439143"><ele>342.3333333333333</ele><time>2026-04-22T13:42:07Z</time></trkpt><trkpt lat="43.75802993059157" lon="5.904550923781653"><ele>342.0</ele><time>2026-04-22T13:42:08Z</time></trkpt><trkpt lat="43.75804416414153" lon="5.904296651052876"><ele>342.3333333333333</ele><time>2026-04-22T13:42:09Z</time></trkpt><trkpt lat="43.75806091330825" lon="5.904045883376604"><ele>342.66666666666663</ele><time>2026-04-22T13:42:10Z</time></trkpt><trkpt lat="43.75807614341609" lon="5.9038032023566895"><ele>343.0</ele><time>2026-04-22T13:42:11Z</time></trkpt><trkpt lat="43.758091576554534" lon="5.903563766842025"><ele>343.66666666666663</ele><time>2026-04-22T13:42:12Z</time></trkpt><trkpt lat="43.75810926011739" lon="5.903332751493723"><ele>344.3333333333333</ele><time>2026-04-22T13:42:13Z</time></trkpt><trkpt lat="43.75813035000119" lon="5.903118289816056"><ele>345.0</ele><time>2026-04-22T13:42:14Z</time></trkpt><trkpt lat="43.75816453928105" lon="5.902906927081464"><ele>345.0</ele><time>2026-04-22T13:42:15Z</time></trkpt><trkpt lat="43.758213941114725" lon="5.902703471369738"><ele>345.0</ele><time>2026-04-22T13:42:16Z</time></trkpt><trkpt lat="43.75827253726861" lon="5.902508358504136"><ele>345.0</ele><time>2026-04-22T13:42:17Z</time></trkpt><trkpt lat="43.758325150490386" lon="5.902322389482691"><ele>344.5</ele><time>2026-04-22T13:42:18Z</time></trkpt><trkpt lat="43.75837528154054" lon="5.902137955687106"><ele>344.0</ele><time>2026-04-22T13:42:19Z</time></trkpt><trkpt lat="43.758424469120534" lon="5.901963804583832"><ele>343.5</ele><time>2026-04-22T13:42:20Z</time></trkpt><trkpt lat="43.758455311573506" lon="5.901773364209269"><ele>343.0</ele><time>2026-04-22T13:42:21Z</time></trkpt><trkpt lat="43.75847040753054" lon="5.901556821272984"><ele>343.0</ele><time>2026-04-22T13:42:22Z</time></trkpt><trkpt lat="43.75845838973061" lon="5.901312266237559"><ele>343.0</ele><time>2026-04-22T13:42:23Z</time></trkpt><trkpt lat="43.758430670777855" lon="5.901062989631037"><ele>343.0</ele><time>2026-04-22T13:42:24Z</time></trkpt><trkpt lat="43.75840395080238" lon="5.900827573453155"><ele>343.0</ele><time>2026-04-22T13:42:25Z</time></trkpt><trkpt lat="43.75838484968729" lon="5.9006113329652035"><ele>343.0</ele><time>2026-04-22T13:42:26Z</time></trkpt><trkpt lat="43.75836301379139" lon="5.900389516626855"><ele>343.0</ele><time>2026-04-22T13:42:27Z</time></trkpt><trkpt lat="43.758336888431174" lon="5.900168018816561"><ele>343.0</ele><time>2026-04-22T13:42:28Z</time></trkpt><trkpt lat="43.75831359234841" lon="5.899952773219461"><ele>343.0</ele><time>2026-04-22T13:42:29Z</time></trkpt><trkpt lat="43.758291001270614" lon="5.89974445941643"><ele>343.0</ele><time>2026-04-22T13:42:30Z</time></trkpt><trkpt lat="43.75827440443986" lon="5.899536642977786"><ele>343.0</ele><time>2026-04-22T13:42:31Z</time></trkpt><trkpt lat="43.758254256176144" lon="5.899333385176889"><ele>343.0</ele><time>2026-04-22T13:42:32Z</time></trkpt><trkpt lat="43.75823030483449" lon="5.899130839529335"><ele>343.0</ele><time>2026-04-22T13:42:33Z</time></trkpt><trkpt lat="43.758206369952134" lon="5.898928369411031"><ele>343.0</ele><time>2026-04-22T13:42:34Z</time></trkpt><trkpt lat="43.75817432500502" lon="5.89873069157601"><ele>343.0</ele><time>2026-04-22T13:42:35Z</time></trkpt><trkpt lat="43.75813682624595" lon="5.898538141730911"><ele>343.0</ele><time>2026-04-22T13:42:36Z</time></trkpt><trkpt lat="43.75809842951668" lon="5.898355780948126"><ele>343.0</ele><time>2026-04-22T13:42:37Z</time></trkpt><trkpt lat="43.75806332118811" lon="5.898185105562228"><ele>343.0</ele><time>2026-04-22T13:42:38Z</time></trkpt><trkpt lat="43.758027508151926" lon="5.89802113640668"><ele>343.0</ele><time>2026-04-22T13:42:39Z</time></trkpt><trkpt lat="43.757982674198885" lon="5.897879810022902"><ele>343.0</ele><time>2026-04-22T13:42:40Z</time></trkpt><trkpt lat="43.75795152888785" lon="5.897745610130415"><ele>343.0</ele><time>2026-04-22T13:42:41Z</time></trkpt><trkpt lat="43.75791769604017" lon="5.897616924419832"><ele>343.0</ele><time>2026-04-22T13:42:42Z</time></trkpt><trkpt lat="43.7578786721029" lon="5.897441674746598"><ele>343.0</ele><time>2026-04-22T13:42:43Z</time></trkpt><trkpt lat="43.757845428025284" lon="5.897289554447687"><ele>343.75</ele><time>2026-04-22T13:42:44Z</time></trkpt><trkpt lat="43.75781292744495" lon="5.8971411145630075"><ele>344.5</ele><time>2026-04-22T13:42:45Z</time></trkpt><trkpt lat="43.7577689206371" lon="5.896995949653752"><ele>345.25</ele><time>2026-04-22T13:42:46Z</time></trkpt><trkpt lat="43.75770862737548" lon="5.8968651463030906"><ele>346.0</ele><time>2026-04-22T13:42:47Z</time></trkpt><trkpt lat="43.75763338398767" lon="5.896708395385811"><ele>344.0</ele><time>2026-04-22T13:42:48Z</time></trkpt><trkpt lat="43.75754454767409" lon="5.896576235122999"><ele>342.0</ele><time>2026-04-22T13:42:49Z</time></trkpt><trkpt lat="43.75745603456366" lon="5.896454806661371"><ele>340.0</ele><time>2026-04-22T13:42:50Z</time></trkpt><trkpt lat="43.757381386344036" lon="5.896339625928588"><ele>338.0</ele><time>2026-04-22T13:42:51Z</time></trkpt><trkpt lat="43.757316233659985" lon="5.89622450696814"><ele>338.0</ele><time>2026-04-22T13:42:52Z</time></trkpt><trkpt lat="43.75726440850895" lon="5.896118754228657"><ele>338.0</ele><time>2026-04-22T13:42:53Z</time></trkpt><trkpt lat="43.75722395876895" lon="5.89600380054148"><ele>338.0</ele><time>2026-04-22T13:42:54Z</time></trkpt><trkpt lat="43.757202296908666" lon="5.895860405406501"><ele>338.0</ele><time>2026-04-22T13:42:55Z</time></trkpt><trkpt lat="43.75720363649748" lon="5.89572546286524"><ele>338.0</ele><time>2026-04-22T13:42:56Z</time></trkpt><trkpt lat="43.75723249538052" lon="5.895612136002589"><ele>337.59999999999997</ele><time>2026-04-22T13:42:57Z</time></trkpt><trkpt lat="43.757280854626096" lon="5.895474997400419"><ele>337.2</ele><time>2026-04-22T13:42:58Z</time></trkpt><trkpt lat="43.7573384569785" lon="5.895349011279397"><ele>336.8</ele><time>2026-04-22T13:42:59Z</time></trkpt><trkpt lat="43.75738671271589" lon="5.895205929228554"><ele>336.4</ele><time>2026-04-22T13:43:00Z</time></trkpt><trkpt lat="43.757432387383524" lon="5.895071530640061"><ele>336.0</ele><time>2026-04-22T13:43:01Z</time></trkpt><trkpt lat="43.757482711126165" lon="5.894937530432122"><ele>335.4</ele><time>2026-04-22T13:43:02Z</time></trkpt><trkpt lat="43.757535814898425" lon="5.894799162358739"><ele>334.8</ele><time>2026-04-22T13:43:03Z</time></trkpt><trkpt lat="43.75758671404504" lon="5.894661731554726"><ele>334.2</ele><time>2026-04-22T13:43:04Z</time></trkpt><trkpt lat="43.75762932955626" lon="5.894523679039667"><ele>333.59999999999997</ele><time>2026-04-22T13:43:05Z</time></trkpt><trkpt lat="43.757667687486624" lon="5.894391668505302"><ele>333.0</ele><time>2026-04-22T13:43:06Z</time></trkpt><trkpt lat="43.757698993645015" lon="5.894269393440392"><ele>332.6666666666667</ele><time>2026-04-22T13:43:07Z</time></trkpt><trkpt lat="43.75771700991339" lon="5.894176579813814"><ele>332.3333333333333</ele><time>2026-04-22T13:43:08Z</time></trkpt><trkpt lat="43.757718207665796" lon="5.8940300815024145"><ele>332.0</ele><time>2026-04-22T13:43:10Z</time></trkpt><trkpt lat="43.757705612360354" lon="5.893905584783201"><ele>331.66666666666663</ele><time>2026-04-22T13:43:11Z</time></trkpt><trkpt lat="43.75770186491178" lon="5.893795925688054"><ele>331.3333333333333</ele><time>2026-04-22T13:43:12.001Z</time></trkpt><trkpt lat="43.75769338169823" lon="5.893680995542181"><ele>331.0</ele><time>2026-04-22T13:43:13.001Z</time></trkpt><trkpt lat="43.75769012048339" lon="5.893585120275813"><ele>331.0</ele><time>2026-04-22T13:43:14.001Z</time></trkpt><trkpt lat="43.75769213566022" lon="5.8934854084114825"><ele>331.0</ele><time>2026-04-22T13:43:15.001Z</time></trkpt><trkpt lat="43.75772293557542" lon="5.893380989745304"><ele>331.0</ele><time>2026-04-22T13:43:16.001Z</time></trkpt><trkpt lat="43.75775889884037" lon="5.893182970348213"><ele>331.0</ele><time>2026-04-22T13:43:17.001Z</time></trkpt><trkpt lat="43.75774303222411" lon="5.893067452249145"><ele>331.0</ele><time>2026-04-22T13:43:18.001Z</time></trkpt><trkpt lat="43.75772701810227" lon="5.892941274955793"><ele>325.0</ele><time>2026-04-22T13:43:19.001Z</time></trkpt><trkpt lat="43.757855175253624" lon="5.892565153006527"><ele>319.0</ele><time>2026-04-22T13:43:20.001Z</time></trkpt><trkpt lat="43.757867614750324" lon="5.89234452394641"><ele>319.0</ele><time>2026-04-22T13:43:21.001Z</time></trkpt><trkpt lat="43.75789604831501" lon="5.8921082224990915"><ele>319.0</ele><time>2026-04-22T13:43:22.001Z</time></trkpt><trkpt lat="43.757900931176756" lon="5.891884812585701"><ele>319.0</ele><time>2026-04-22T13:43:23.001Z</time></trkpt><trkpt lat="43.75792616011438" lon="5.891659045531598"><ele>319.3333333333333</ele><time>2026-04-22T13:43:24.001Z</time></trkpt><trkpt lat="43.75796202467012" lon="5.891426623754987"><ele>319.6666666666667</ele><time>2026-04-22T13:43:25.001Z</time></trkpt><trkpt lat="43.75799471415591" lon="5.89119721442506"><ele>320.0</ele><time>2026-04-22T13:43:26.001Z</time></trkpt><trkpt lat="43.75799192338585" lon="5.89097713589109"><ele>321.33333333333337</ele><time>2026-04-22T13:43:27.001Z</time></trkpt><trkpt lat="43.757979743422574" lon="5.890699856157248"><ele>322.6666666666667</ele><time>2026-04-22T13:43:28.001Z</time></trkpt><trkpt lat="43.75797291517191" lon="5.890401763308104"><ele>324.0</ele><time>2026-04-22T13:43:29.001Z</time></trkpt><trkpt lat="43.75796694711616" lon="5.8901243992840975"><ele>325.0</ele><time>2026-04-22T13:43:30.001Z</time></trkpt><trkpt lat="43.75795305246835" lon="5.8898980202414375"><ele>326.0</ele><time>2026-04-22T13:43:31.001Z</time></trkpt><trkpt lat="43.7579723939664" lon="5.889679577544069"><ele>327.0</ele><time>2026-04-22T13:43:32.001Z</time></trkpt><trkpt lat="43.75797111780595" lon="5.889487197512453"><ele>327.0</ele><time>2026-04-22T13:43:33.001Z</time></trkpt><trkpt lat="43.757973215869825" lon="5.8893090429348645"><ele>327.0</ele><time>2026-04-22T13:43:34.001Z</time></trkpt><trkpt lat="43.7579824257908" lon="5.889151056212443"><ele>327.0</ele><time>2026-04-22T13:43:35.001Z</time></trkpt><trkpt lat="43.757993841492514" lon="5.889004279829238"><ele>327.0</ele><time>2026-04-22T13:43:36.001Z</time></trkpt><trkpt lat="43.75799103512676" lon="5.888880631332184"><ele>327.0</ele><time>2026-04-22T13:43:37.001Z</time></trkpt><trkpt lat="43.757996225676145" lon="5.888777316795462"><ele>327.2857142857143</ele><time>2026-04-22T13:43:38.001Z</time></trkpt><trkpt lat="43.75800070540367" lon="5.888684557819458"><ele>327.57142857142856</ele><time>2026-04-22T13:43:39.001Z</time></trkpt><trkpt lat="43.75799815434682" lon="5.888583188886164"><ele>327.8571428571429</ele><time>2026-04-22T13:43:40.001Z</time></trkpt><trkpt lat="43.757999056015976" lon="5.888471187693761"><ele>328.1428571428571</ele><time>2026-04-22T13:43:41.001Z</time></trkpt><trkpt lat="43.7580006779068" lon="5.88836266147491"><ele>328.42857142857144</ele><time>2026-04-22T13:43:42.001Z</time></trkpt><trkpt lat="43.75800256560039" lon="5.888257726923396"><ele>328.7142857142857</ele><time>2026-04-22T13:43:43.001Z</time></trkpt><trkpt lat="43.758005345113766" lon="5.888168284019555"><ele>329.0</ele><time>2026-04-22T13:43:44.001Z</time></trkpt><trkpt lat="43.758009646936316" lon="5.8880748271557835"><ele>329.6</ele><time>2026-04-22T13:43:45.001Z</time></trkpt><trkpt lat="43.75802621811539" lon="5.887929238676911"><ele>330.2</ele><time>2026-04-22T13:43:47.001Z</time></trkpt><trkpt lat="43.75806509549193" lon="5.887785569259927"><ele>330.8</ele><time>2026-04-22T13:43:49.001Z</time></trkpt><trkpt lat="43.75802790111333" lon="5.8876749491220295"><ele>331.40000000000003</ele><time>2026-04-22T13:43:51.001Z</time></trkpt><trkpt lat="43.75790996305025" lon="5.887711256936551"><ele>332.0</ele><time>2026-04-22T13:43:53.001Z</time></trkpt><trkpt lat="43.7578482350012" lon="5.887752319931883"><ele>332.0</ele><time>2026-04-22T13:43:54.001Z</time></trkpt><trkpt lat="43.757788858925196" lon="5.887799870053952"><ele>332.0</ele><time>2026-04-22T13:43:55.001Z</time></trkpt><trkpt lat="43.75772279333447" lon="5.887836207027023"><ele>332.0</ele><time>2026-04-22T13:43:56.001Z</time></trkpt><trkpt lat="43.75765318400734" lon="5.887841978447379"><ele>332.0</ele><time>2026-04-22T13:43:57.001Z</time></trkpt><trkpt lat="43.7575526662904" lon="5.887872096102185"><ele>332.0</ele><time>2026-04-22T13:43:58.001Z</time></trkpt><trkpt lat="43.75744256625722" lon="5.887910540722629"><ele>332.0</ele><time>2026-04-22T13:43:59.001Z</time></trkpt><trkpt lat="43.75731861908521" lon="5.887950125918568"><ele>332.25</ele><time>2026-04-22T13:44:00.001Z</time></trkpt><trkpt lat="43.75717831992179" lon="5.888005735379127"><ele>332.5</ele><time>2026-04-22T13:44:01.001Z</time></trkpt><trkpt lat="43.75704313810599" lon="5.8880620571142686"><ele>332.75</ele><time>2026-04-22T13:44:02.001Z</time></trkpt><trkpt lat="43.75693078324082" lon="5.888101285778074"><ele>333.0</ele><time>2026-04-22T13:44:03.001Z</time></trkpt><trkpt lat="43.75682671978746" lon="5.888126773145251"><ele>333.59999999999997</ele><time>2026-04-22T13:44:04.001Z</time></trkpt><trkpt lat="43.75672119290202" lon="5.888123245067922"><ele>334.2</ele><time>2026-04-22T13:44:05.001Z</time></trkpt><trkpt lat="43.756614958730076" lon="5.888081272933154"><ele>334.8</ele><time>2026-04-22T13:44:06.001Z</time></trkpt><trkpt lat="43.75652600212633" lon="5.88798878404542"><ele>335.4</ele><time>2026-04-22T13:44:07.001Z</time></trkpt><trkpt lat="43.75645121647173" lon="5.887862777301082"><ele>336.0</ele><time>2026-04-22T13:44:08.001Z</time></trkpt><trkpt lat="43.756383233836125" lon="5.8877096049925415"><ele>337.0</ele><time>2026-04-22T13:44:09Z</time></trkpt><trkpt lat="43.75632419839828" lon="5.887539222598659"><ele>338.0</ele><time>2026-04-22T13:44:10Z</time></trkpt><trkpt lat="43.756280708634186" lon="5.8873618360108475"><ele>339.0</ele><time>2026-04-22T13:44:11Z</time></trkpt><trkpt lat="43.75627308769878" lon="5.887182436014193"><ele>340.0</ele><time>2026-04-22T13:44:12Z</time></trkpt><trkpt lat="43.756284301692986" lon="5.887003519547102"><ele>340.0</ele><time>2026-04-22T13:44:13Z</time></trkpt><trkpt lat="43.75630517094045" lon="5.886827104421513"><ele>340.0</ele><time>2026-04-22T13:44:14Z</time></trkpt><trkpt lat="43.75632840804721" lon="5.886645213579897"><ele>340.0</ele><time>2026-04-22T13:44:15Z</time></trkpt><trkpt lat="43.75636071605087" lon="5.886443126452759"><ele>340.0</ele><time>2026-04-22T13:44:16Z</time></trkpt><trkpt lat="43.75637308616458" lon="5.886233328078194"><ele>341.0</ele><time>2026-04-22T13:44:17Z</time></trkpt><trkpt lat="43.75638194220927" lon="5.886059694704716"><ele>342.0</ele><time>2026-04-22T13:44:18Z</time></trkpt><trkpt lat="43.7563891142614" lon="5.885897898559369"><ele>343.0</ele><time>2026-04-22T13:44:19Z</time></trkpt><trkpt lat="43.75641040017632" lon="5.885720126062997"><ele>344.0</ele><time>2026-04-22T13:44:20Z</time></trkpt><trkpt lat="43.756419240481314" lon="5.885544952385457"><ele>344.5</ele><time>2026-04-22T13:44:21Z</time></trkpt><trkpt lat="43.756435823645354" lon="5.885368104211315"><ele>345.0</ele><time>2026-04-22T13:44:22Z</time></trkpt><trkpt lat="43.756448784963915" lon="5.88519077705495"><ele>345.5</ele><time>2026-04-22T13:44:23Z</time></trkpt><trkpt lat="43.75645757329155" lon="5.885016853305414"><ele>346.0</ele><time>2026-04-22T13:44:24Z</time></trkpt><trkpt lat="43.75646105271591" lon="5.8848454186401655"><ele>347.75</ele><time>2026-04-22T13:44:25Z</time></trkpt><trkpt lat="43.75646132426708" lon="5.884675387731818"><ele>349.5</ele><time>2026-04-22T13:44:26Z</time></trkpt><trkpt lat="43.756448897750424" lon="5.8845025637596855"><ele>351.25</ele><time>2026-04-22T13:44:27Z</time></trkpt><trkpt lat="43.756415802849574" lon="5.884345178710761"><ele>353.0</ele><time>2026-04-22T13:44:28Z</time></trkpt><trkpt lat="43.75639458349998" lon="5.884204683452934"><ele>353.4</ele><time>2026-04-22T13:44:29Z</time></trkpt><trkpt lat="43.75639564671439" lon="5.884075224031835"><ele>353.79999999999995</ele><time>2026-04-22T13:44:30Z</time></trkpt><trkpt lat="43.75642499155938" lon="5.883952139035863"><ele>354.2</ele><time>2026-04-22T13:44:31Z</time></trkpt><trkpt lat="43.75648159689095" lon="5.883826377534821"><ele>354.6</ele><time>2026-04-22T13:44:32Z</time></trkpt><trkpt lat="43.75656076609594" lon="5.883721816212016"><ele>355.0</ele><time>2026-04-22T13:44:33Z</time></trkpt><trkpt lat="43.756652174295645" lon="5.8836244506789495"><ele>355.0</ele><time>2026-04-22T13:44:34Z</time></trkpt><trkpt lat="43.75674390159503" lon="5.883536245474865"><ele>355.0</ele><time>2026-04-22T13:44:35Z</time></trkpt><trkpt lat="43.75684524470639" lon="5.88345676663403"><ele>355.0</ele><time>2026-04-22T13:44:36Z</time></trkpt><trkpt lat="43.75696665904127" lon="5.88339280207337"><ele>355.0</ele><time>2026-04-22T13:44:37Z</time></trkpt><trkpt lat="43.75708364191656" lon="5.883337931096729"><ele>354.6</ele><time>2026-04-22T13:44:38Z</time></trkpt><trkpt lat="43.75719203218847" lon="5.883294865607603"><ele>354.2</ele><time>2026-04-22T13:44:39Z</time></trkpt><trkpt lat="43.75729216289414" lon="5.883245702888943"><ele>353.79999999999995</ele><time>2026-04-22T13:44:40Z</time></trkpt><trkpt lat="43.75738789036676" lon="5.883193661039656"><ele>353.4</ele><time>2026-04-22T13:44:41Z</time></trkpt><trkpt lat="43.757485443006786" lon="5.883125881174789"><ele>353.0</ele><time>2026-04-22T13:44:42Z</time></trkpt><trkpt lat="43.75757931552677" lon="5.883036681308578"><ele>353.0</ele><time>2026-04-22T13:44:43Z</time></trkpt><trkpt lat="43.75766410690063" lon="5.882925352635521"><ele>353.0</ele><time>2026-04-22T13:44:44Z</time></trkpt><trkpt lat="43.7577382715515" lon="5.882817092987944"><ele>353.0</ele><time>2026-04-22T13:44:45Z</time></trkpt><trkpt lat="43.75780455120903" lon="5.88271781424805"><ele>353.0</ele><time>2026-04-22T13:44:46Z</time></trkpt><trkpt lat="43.75787394616035" lon="5.882625302611619"><ele>353.0</ele><time>2026-04-22T13:44:47Z</time></trkpt><trkpt lat="43.757956121784574" lon="5.882523854214522"><ele>353.0</ele><time>2026-04-22T13:44:48Z</time></trkpt><trkpt lat="43.75804334756778" lon="5.882446427910836"><ele>353.0</ele><time>2026-04-22T13:44:49Z</time></trkpt><trkpt lat="43.7581328117118" lon="5.882395445973021"><ele>353.0</ele><time>2026-04-22T13:44:50Z</time></trkpt><trkpt lat="43.758232359545424" lon="5.882360989523276"><ele>353.0</ele><time>2026-04-22T13:44:51Z</time></trkpt><trkpt lat="43.758332529411575" lon="5.882327611770193"><ele>353.0</ele><time>2026-04-22T13:44:52Z</time></trkpt><trkpt lat="43.758424721365" lon="5.88229599569978"><ele>353.0</ele><time>2026-04-22T13:44:53Z</time></trkpt><trkpt lat="43.7585037468578" lon="5.882272317365576"><ele>353.0</ele><time>2026-04-22T13:44:54Z</time></trkpt><trkpt lat="43.758574401410314" lon="5.882247997110976"><ele>353.0</ele><time>2026-04-22T13:44:55Z</time></trkpt><trkpt lat="43.75864308374749" lon="5.882232697925648"><ele>353.0</ele><time>2026-04-22T13:44:56Z</time></trkpt><trkpt lat="43.758692056695494" lon="5.882162762362118"><ele>353.0</ele><time>2026-04-22T13:44:57Z</time></trkpt><trkpt lat="43.75870570706491" lon="5.882007602448908"><ele>353.0</ele><time>2026-04-22T13:44:59Z</time></trkpt><trkpt lat="43.75866902626918" lon="5.88191226462336"><ele>352.59999999999997</ele><time>2026-04-22T13:45:00Z</time></trkpt><trkpt lat="43.75864337723694" lon="5.881807835937101"><ele>352.2</ele><time>2026-04-22T13:45:01Z</time></trkpt><trkpt lat="43.75860091580328" lon="5.881684589267666"><ele>351.8</ele><time>2026-04-22T13:45:02Z</time></trkpt><trkpt lat="43.75856261004974" lon="5.881558713816562"><ele>351.4</ele><time>2026-04-22T13:45:03Z</time></trkpt><trkpt lat="43.75851732917917" lon="5.8814350630146635"><ele>351.0</ele><time>2026-04-22T13:45:04Z</time></trkpt><trkpt lat="43.75843841613507" lon="5.8813104753532"><ele>351.0</ele><time>2026-04-22T13:45:05Z</time></trkpt><trkpt lat="43.75836073264758" lon="5.881233900486249"><ele>351.0</ele><time>2026-04-22T13:45:06Z</time></trkpt><trkpt lat="43.75829586717958" lon="5.881142089883777"><ele>351.0</ele><time>2026-04-22T13:45:07Z</time></trkpt><trkpt lat="43.75823593286325" lon="5.881052266873551"><ele>351.0</ele><time>2026-04-22T13:45:08Z</time></trkpt><trkpt lat="43.75819171360572" lon="5.880953081310397"><ele>351.0</ele><time>2026-04-22T13:45:09Z</time></trkpt><trkpt lat="43.758184960903435" lon="5.880816766531281"><ele>350.6</ele><time>2026-04-22T13:45:10Z</time></trkpt><trkpt lat="43.758186371129334" lon="5.880693659621086"><ele>350.20000000000005</ele><time>2026-04-22T13:45:11Z</time></trkpt><trkpt lat="43.75822962301272" lon="5.8805509943513945"><ele>349.79999999999995</ele><time>2026-04-22T13:45:12Z</time></trkpt><trkpt lat="43.758295305905555" lon="5.880431752509216"><ele>349.4</ele><time>2026-04-22T13:45:13Z</time></trkpt><trkpt lat="43.7583884193554" lon="5.880343413686957"><ele>349.0</ele><time>2026-04-22T13:45:14Z</time></trkpt><trkpt lat="43.75847499124401" lon="5.880251618674473"><ele>349.0</ele><time>2026-04-22T13:45:15Z</time></trkpt><trkpt lat="43.758521436607815" lon="5.880124121079293"><ele>349.0</ele><time>2026-04-22T13:45:16Z</time></trkpt><trkpt lat="43.758512015962154" lon="5.879982519086431"><ele>349.0</ele><time>2026-04-22T13:45:17Z</time></trkpt><trkpt lat="43.75846661351443" lon="5.879842565651794"><ele>349.0</ele><time>2026-04-22T13:45:18Z</time></trkpt><trkpt lat="43.75839726496619" lon="5.879703344462612"><ele>349.0</ele><time>2026-04-22T13:45:19Z</time></trkpt><trkpt lat="43.7583035833217" lon="5.879531120149269"><ele>347.5</ele><time>2026-04-22T13:45:20Z</time></trkpt><trkpt lat="43.75822296794945" lon="5.879378800976501"><ele>346.0</ele><time>2026-04-22T13:45:21Z</time></trkpt><trkpt lat="43.75819175444458" lon="5.879216477561489"><ele>344.5</ele><time>2026-04-22T13:45:22Z</time></trkpt><trkpt lat="43.75818179680527" lon="5.879049046990702"><ele>343.0</ele><time>2026-04-22T13:45:23Z</time></trkpt><trkpt lat="43.75816559946448" lon="5.8788564939391055"><ele>342.75</ele><time>2026-04-22T13:45:24Z</time></trkpt><trkpt lat="43.75812372001362" lon="5.8786662380458985"><ele>342.5</ele><time>2026-04-22T13:45:25Z</time></trkpt><trkpt lat="43.75806741786217" lon="5.878496936165205"><ele>342.25</ele><time>2026-04-22T13:45:26Z</time></trkpt><trkpt lat="43.757982593810155" lon="5.87835904692079"><ele>342.0</ele><time>2026-04-22T13:45:27Z</time></trkpt><trkpt lat="43.75787680715741" lon="5.8782287685347026"><ele>341.3333333333333</ele><time>2026-04-22T13:45:28Z</time></trkpt><trkpt lat="43.757774750110094" lon="5.87805896997713"><ele>340.66666666666663</ele><time>2026-04-22T13:45:29Z</time></trkpt><trkpt lat="43.75770618752025" lon="5.877867163526486"><ele>340.0</ele><time>2026-04-22T13:45:30Z</time></trkpt><trkpt lat="43.75767348842026" lon="5.877649300157548"><ele>341.0</ele><time>2026-04-22T13:45:31Z</time></trkpt><trkpt lat="43.75766921106133" lon="5.877428743259776"><ele>342.0</ele><time>2026-04-22T13:45:32Z</time></trkpt><trkpt lat="43.757682810114495" lon="5.8772309060750185"><ele>343.0</ele><time>2026-04-22T13:45:33Z</time></trkpt><trkpt lat="43.7577117194634" lon="5.87702596081048"><ele>343.0</ele><time>2026-04-22T13:45:34Z</time></trkpt><trkpt lat="43.757747399725595" lon="5.876820930957428"><ele>343.0</ele><time>2026-04-22T13:45:35.001Z</time></trkpt><trkpt lat="43.75777309300177" lon="5.876606134906919"><ele>343.0</ele><time>2026-04-22T13:45:36.001Z</time></trkpt><trkpt lat="43.75779743326151" lon="5.8764056741866115"><ele>342.5</ele><time>2026-04-22T13:45:37.001Z</time></trkpt><trkpt lat="43.757800162093204" lon="5.876221666912456"><ele>342.0</ele><time>2026-04-22T13:45:38.001Z</time></trkpt><trkpt lat="43.75779245455314" lon="5.876063312100611"><ele>341.5</ele><time>2026-04-22T13:45:39.001Z</time></trkpt><trkpt lat="43.75777369844119" lon="5.875908161974644"><ele>341.0</ele><time>2026-04-22T13:45:40.001Z</time></trkpt><trkpt lat="43.757715659958116" lon="5.8757664927177"><ele>335.25</ele><time>2026-04-22T13:45:41.001Z</time></trkpt><trkpt lat="43.75763256791825" lon="5.875637741598721"><ele>329.5</ele><time>2026-04-22T13:45:42.001Z</time></trkpt><trkpt lat="43.7575161332267" lon="5.875504503333209"><ele>323.75</ele><time>2026-04-22T13:45:43.001Z</time></trkpt><trkpt lat="43.757385617871336" lon="5.87535141060418"><ele>318.0</ele><time>2026-04-22T13:45:44.001Z</time></trkpt><trkpt lat="43.75726848404212" lon="5.875200274036548"><ele>316.75</ele><time>2026-04-22T13:45:45.001Z</time></trkpt><trkpt lat="43.75716551226387" lon="5.875051166187527"><ele>315.5</ele><time>2026-04-22T13:45:46.001Z</time></trkpt><trkpt lat="43.75708282618578" lon="5.874884084693022"><ele>314.25</ele><time>2026-04-22T13:45:47.001Z</time></trkpt><trkpt lat="43.75703101481885" lon="5.874692561618808"><ele>313.0</ele><time>2026-04-22T13:45:48.001Z</time></trkpt><trkpt lat="43.75700851192147" lon="5.8744883201343265"><ele>313.0</ele><time>2026-04-22T13:45:49.001Z</time></trkpt><trkpt lat="43.75699225127078" lon="5.874285377110892"><ele>313.0</ele><time>2026-04-22T13:45:50.001Z</time></trkpt><trkpt lat="43.756974871626454" lon="5.874079120391113"><ele>313.0</ele><time>2026-04-22T13:45:51.001Z</time></trkpt><trkpt lat="43.75695311043671" lon="5.873868315616113"><ele>313.0</ele><time>2026-04-22T13:45:52.001Z</time></trkpt><trkpt lat="43.756927826945144" lon="5.873653610611018"><ele>313.0</ele><time>2026-04-22T13:45:53.001Z</time></trkpt><trkpt lat="43.75689655850152" lon="5.873435256494596"><ele>313.0</ele><time>2026-04-22T13:45:54.001Z</time></trkpt><trkpt lat="43.75686521385087" lon="5.873214252719146"><ele>310.0</ele><time>2026-04-22T13:45:55.001Z</time></trkpt><trkpt lat="43.756827815755976" lon="5.872988065427918"><ele>307.0</ele><time>2026-04-22T13:45:56.001Z</time></trkpt><trkpt lat="43.7567875034148" lon="5.872761127104536"><ele>304.0</ele><time>2026-04-22T13:45:57.001Z</time></trkpt><trkpt lat="43.756750891852576" lon="5.872538301806359"><ele>304.0</ele><time>2026-04-22T13:45:58.001Z</time></trkpt><trkpt lat="43.756722024184285" lon="5.872327512343859"><ele>304.0</ele><time>2026-04-22T13:45:59.001Z</time></trkpt><trkpt lat="43.75669955900617" lon="5.872110780659041"><ele>304.0</ele><time>2026-04-22T13:46:00.001Z</time></trkpt><trkpt lat="43.75669492611375" lon="5.871877926974061"><ele>303.66666666666663</ele><time>2026-04-22T13:46:01.001Z</time></trkpt><trkpt lat="43.75670695567955" lon="5.8716314224285595"><ele>303.3333333333333</ele><time>2026-04-22T13:46:02.001Z</time></trkpt><trkpt lat="43.75673445072347" lon="5.871377229627235"><ele>303.0</ele><time>2026-04-22T13:46:03.001Z</time></trkpt><trkpt lat="43.756767833817435" lon="5.87111993556126"><ele>303.0</ele><time>2026-04-22T13:46:04.001Z</time></trkpt><trkpt lat="43.75679879249343" lon="5.8708501325557"><ele>303.0</ele><time>2026-04-22T13:46:05.001Z</time></trkpt><trkpt lat="43.756823787604745" lon="5.870588935496999"><ele>303.0</ele><time>2026-04-22T13:46:06.001Z</time></trkpt><trkpt lat="43.75683499724769" lon="5.8703458710912"><ele>303.0</ele><time>2026-04-22T13:46:07.001Z</time></trkpt><trkpt lat="43.75682685716937" lon="5.8701189148950474"><ele>303.0</ele><time>2026-04-22T13:46:08.001Z</time></trkpt><trkpt lat="43.75679984683299" lon="5.869904396955015"><ele>303.0</ele><time>2026-04-22T13:46:09.001Z</time></trkpt><trkpt lat="43.756749628944796" lon="5.869699925029792"><ele>303.0</ele><time>2026-04-22T13:46:10.001Z</time></trkpt><trkpt lat="43.75668141154126" lon="5.869499617180208"><ele>303.0</ele><time>2026-04-22T13:46:11.001Z</time></trkpt><trkpt lat="43.756592472941314" lon="5.869299008947153"><ele>303.0</ele><time>2026-04-22T13:46:12.001Z</time></trkpt><trkpt lat="43.75648727907313" lon="5.869105868705852"><ele>303.0</ele><time>2026-04-22T13:46:13.001Z</time></trkpt><trkpt lat="43.75636662096921" lon="5.868911273546214"><ele>303.0</ele><time>2026-04-22T13:46:14.001Z</time></trkpt><trkpt lat="43.756229528205914" lon="5.868709844308462"><ele>303.0</ele><time>2026-04-22T13:46:15Z</time></trkpt><trkpt lat="43.75609297320408" lon="5.86850067887965"><ele>302.3333333333333</ele><time>2026-04-22T13:46:16Z</time></trkpt><trkpt lat="43.755966837069586" lon="5.868300061114744"><ele>301.66666666666663</ele><time>2026-04-22T13:46:17Z</time></trkpt><trkpt lat="43.75584803886044" lon="5.868109140659992"><ele>301.0</ele><time>2026-04-22T13:46:18Z</time></trkpt><trkpt lat="43.75574399666226" lon="5.867923263082076"><ele>301.0</ele><time>2026-04-22T13:46:19Z</time></trkpt><trkpt lat="43.75566186101213" lon="5.867730796780659"><ele>301.0</ele><time>2026-04-22T13:46:20Z</time></trkpt><trkpt lat="43.75560552298161" lon="5.867519970449179"><ele>301.0</ele><time>2026-04-22T13:46:21Z</time></trkpt><trkpt lat="43.755577371791695" lon="5.867288963290302"><ele>301.3333333333333</ele><time>2026-04-22T13:46:22Z</time></trkpt><trkpt lat="43.75556931628797" lon="5.867039616486397"><ele>301.6666666666667</ele><time>2026-04-22T13:46:23Z</time></trkpt><trkpt lat="43.75556066944672" lon="5.8667657706201854"><ele>302.0</ele><time>2026-04-22T13:46:24Z</time></trkpt><trkpt lat="43.75553536867754" lon="5.866488648226183"><ele>302.33333333333337</ele><time>2026-04-22T13:46:25Z</time></trkpt><trkpt lat="43.755499360569125" lon="5.866214756172338"><ele>302.6666666666667</ele><time>2026-04-22T13:46:26Z</time></trkpt><trkpt lat="43.755441706196756" lon="5.865973400840102"><ele>303.0</ele><time>2026-04-22T13:46:27Z</time></trkpt><trkpt lat="43.75537462732154" lon="5.865744279057804"><ele>302.0</ele><time>2026-04-22T13:46:28Z</time></trkpt><trkpt lat="43.755280373811374" lon="5.865533046925542"><ele>301.0</ele><time>2026-04-22T13:46:29Z</time></trkpt><trkpt lat="43.7551755137003" lon="5.86532694796879"><ele>300.0</ele><time>2026-04-22T13:46:30Z</time></trkpt><trkpt lat="43.755068973879396" lon="5.865128923488215"><ele>300.3333333333333</ele><time>2026-04-22T13:46:31Z</time></trkpt><trkpt lat="43.754977828193006" lon="5.864895054962959"><ele>300.66666666666663</ele><time>2026-04-22T13:46:32Z</time></trkpt><trkpt lat="43.754896888623804" lon="5.86462860855122"><ele>301.0</ele><time>2026-04-22T13:46:33Z</time></trkpt><trkpt lat="43.754817353589324" lon="5.864342960576487"><ele>302.0</ele><time>2026-04-22T13:46:34Z</time></trkpt><trkpt lat="43.75473960135975" lon="5.8640502890754105"><ele>303.0</ele><time>2026-04-22T13:46:35Z</time></trkpt><trkpt lat="43.75466175214405" lon="5.863766301702977"><ele>304.0</ele><time>2026-04-22T13:46:36Z</time></trkpt><trkpt lat="43.75458369878277" lon="5.863483537881442"><ele>305.3333333333333</ele><time>2026-04-22T13:46:37Z</time></trkpt><trkpt lat="43.7544982422789" lon="5.863218014661601"><ele>306.6666666666667</ele><time>2026-04-22T13:46:38Z</time></trkpt><trkpt lat="43.75440101636734" lon="5.8629831078962855"><ele>308.0</ele><time>2026-04-22T13:46:39Z</time></trkpt><trkpt lat="43.754295611097945" lon="5.862771790916331"><ele>306.0</ele><time>2026-04-22T13:46:40Z</time></trkpt><trkpt lat="43.75416631369127" lon="5.862572499625466"><ele>304.0</ele><time>2026-04-22T13:46:41Z</time></trkpt><trkpt lat="43.75402649815487" lon="5.862391502303749"><ele>302.0</ele><time>2026-04-22T13:46:42Z</time></trkpt><trkpt lat="43.75388137057494" lon="5.862217408792855"><ele>302.0</ele><time>2026-04-22T13:46:43Z</time></trkpt><trkpt lat="43.75374240362085" lon="5.862030213927707"><ele>302.0</ele><time>2026-04-22T13:46:44Z</time></trkpt><trkpt lat="43.75362117733407" lon="5.861815089246106"><ele>302.0</ele><time>2026-04-22T13:46:45Z</time></trkpt><trkpt lat="43.75352074675644" lon="5.86158540441393"><ele>301.33333333333337</ele><time>2026-04-22T13:46:46Z</time></trkpt><trkpt lat="43.753442160000866" lon="5.861340721300425"><ele>300.6666666666667</ele><time>2026-04-22T13:46:47Z</time></trkpt><trkpt lat="43.753382945172305" lon="5.86108684863868"><ele>300.0</ele><time>2026-04-22T13:46:48Z</time></trkpt><trkpt lat="43.75333105875118" lon="5.860820189009795"><ele>299.6666666666667</ele><time>2026-04-22T13:46:49Z</time></trkpt><trkpt lat="43.75327158588076" lon="5.8605548952134985"><ele>299.33333333333337</ele><time>2026-04-22T13:46:50Z</time></trkpt><trkpt lat="43.75319704446196" lon="5.860286183857074"><ele>299.0</ele><time>2026-04-22T13:46:51Z</time></trkpt><trkpt lat="43.75310393746944" lon="5.860023933218157"><ele>299.33333333333337</ele><time>2026-04-22T13:46:52Z</time></trkpt><trkpt lat="43.753004124873975" lon="5.8597632435992555"><ele>299.6666666666667</ele><time>2026-04-22T13:46:53Z</time></trkpt><trkpt lat="43.75290584100601" lon="5.859507149197686"><ele>300.0</ele><time>2026-04-22T13:46:54Z</time></trkpt><trkpt lat="43.75281884038941" lon="5.859245154553003"><ele>300.0</ele><time>2026-04-22T13:46:55Z</time></trkpt><trkpt lat="43.75274518906821" lon="5.858970713014426"><ele>300.0</ele><time>2026-04-22T13:46:56Z</time></trkpt><trkpt lat="43.7526819217275" lon="5.858688880477963"><ele>300.0</ele><time>2026-04-22T13:46:57Z</time></trkpt><trkpt lat="43.75262524470311" lon="5.858404008013804"><ele>298.3333333333333</ele><time>2026-04-22T13:46:58Z</time></trkpt><trkpt lat="43.752566394383436" lon="5.858129021494255"><ele>296.66666666666663</ele><time>2026-04-22T13:46:59Z</time></trkpt><trkpt lat="43.752498936448355" lon="5.857864436597399"><ele>295.0</ele><time>2026-04-22T13:47:00Z</time></trkpt><trkpt lat="43.752411123673646" lon="5.857614535516535"><ele>295.0</ele><time>2026-04-22T13:47:01Z</time></trkpt><trkpt lat="43.75230735005278" lon="5.857383392997139"><ele>295.0</ele><time>2026-04-22T13:47:02Z</time></trkpt><trkpt lat="43.75220688765335" lon="5.857179392738349"><ele>295.0</ele><time>2026-04-22T13:47:03Z</time></trkpt><trkpt lat="43.75212844037796" lon="5.856968466594397"><ele>295.0</ele><time>2026-04-22T13:47:04Z</time></trkpt><trkpt lat="43.752072820952954" lon="5.856738131185744"><ele>295.0</ele><time>2026-04-22T13:47:05Z</time></trkpt><trkpt lat="43.75203987860425" lon="5.8564879695209555"><ele>295.0</ele><time>2026-04-22T13:47:06Z</time></trkpt><trkpt lat="43.75201773905194" lon="5.856225671613446"><ele>295.0</ele><time>2026-04-22T13:47:07Z</time></trkpt><trkpt lat="43.75199898804186" lon="5.855958683331481"><ele>295.0</ele><time>2026-04-22T13:47:08Z</time></trkpt><trkpt lat="43.75197164407117" lon="5.8556900652277015"><ele>295.0</ele><time>2026-04-22T13:47:09Z</time></trkpt><trkpt lat="43.75194434279521" lon="5.855428602874842"><ele>295.66666666666663</ele><time>2026-04-22T13:47:10Z</time></trkpt><trkpt lat="43.75191234107177" lon="5.855169777724117"><ele>296.3333333333333</ele><time>2026-04-22T13:47:11Z</time></trkpt><trkpt lat="43.7518662740042" lon="5.854924060586792"><ele>297.0</ele><time>2026-04-22T13:47:12Z</time></trkpt><trkpt lat="43.75179156039723" lon="5.854687846927364"><ele>296.6666666666667</ele><time>2026-04-22T13:47:13Z</time></trkpt><trkpt lat="43.75168940109124" lon="5.854470552320638"><ele>296.33333333333337</ele><time>2026-04-22T13:47:14Z</time></trkpt><trkpt lat="43.75156123116144" lon="5.854275240763448"><ele>296.0</ele><time>2026-04-22T13:47:15Z</time></trkpt><trkpt lat="43.75142423015676" lon="5.854094478283982"><ele>296.0</ele><time>2026-04-22T13:47:16Z</time></trkpt><trkpt lat="43.75128596841423" lon="5.85390555866092"><ele>296.0</ele><time>2026-04-22T13:47:17Z</time></trkpt><trkpt lat="43.751151486636175" lon="5.8537107360488045"><ele>296.0</ele><time>2026-04-22T13:47:18Z</time></trkpt><trkpt lat="43.751021065371056" lon="5.85351169256643"><ele>295.33333333333337</ele><time>2026-04-22T13:47:19Z</time></trkpt><trkpt lat="43.7508948011168" lon="5.853318749716366"><ele>294.6666666666667</ele><time>2026-04-22T13:47:20Z</time></trkpt><trkpt lat="43.750768814585854" lon="5.8531275654793395"><ele>294.0</ele><time>2026-04-22T13:47:21Z</time></trkpt><trkpt lat="43.75063985037782" lon="5.852936860574719"><ele>294.0</ele><time>2026-04-22T13:47:22Z</time></trkpt><trkpt lat="43.75050852253423" lon="5.852744190876666"><ele>294.0</ele><time>2026-04-22T13:47:23Z</time></trkpt><trkpt lat="43.750380547095" lon="5.852546948456295"><ele>294.0</ele><time>2026-04-22T13:47:24Z</time></trkpt><trkpt lat="43.75024267084248" lon="5.852345951753717"><ele>293.3333333333333</ele><time>2026-04-22T13:47:25Z</time></trkpt><trkpt lat="43.750097658177694" lon="5.852129062201531"><ele>292.66666666666663</ele><time>2026-04-22T13:47:26Z</time></trkpt><trkpt lat="43.74994440331239" lon="5.851909147835488"><ele>292.0</ele><time>2026-04-22T13:47:27Z</time></trkpt><trkpt lat="43.7497935312861" lon="5.851692401056856"><ele>292.3333333333333</ele><time>2026-04-22T13:47:28Z</time></trkpt><trkpt lat="43.74964423186713" lon="5.851477924058813"><ele>292.6666666666667</ele><time>2026-04-22T13:47:29Z</time></trkpt><trkpt lat="43.74949938052138" lon="5.8512618683844515"><ele>293.0</ele><time>2026-04-22T13:47:30Z</time></trkpt><trkpt lat="43.74935426754162" lon="5.851043865721614"><ele>294.33333333333337</ele><time>2026-04-22T13:47:31Z</time></trkpt><trkpt lat="43.74921738794789" lon="5.850825555783346"><ele>295.6666666666667</ele><time>2026-04-22T13:47:32Z</time></trkpt><trkpt lat="43.74909162881865" lon="5.850610444880272"><ele>297.0</ele><time>2026-04-22T13:47:33Z</time></trkpt><trkpt lat="43.74897838812332" lon="5.850380288805779"><ele>297.0</ele><time>2026-04-22T13:47:34Z</time></trkpt><trkpt lat="43.74887600041849" lon="5.850159055062058"><ele>297.0</ele><time>2026-04-22T13:47:35Z</time></trkpt><trkpt lat="43.74877790351673" lon="5.849939801147992"><ele>297.0</ele><time>2026-04-22T13:47:36Z</time></trkpt><trkpt lat="43.74868489822143" lon="5.849734528822044"><ele>296.6666666666667</ele><time>2026-04-22T13:47:37.001Z</time></trkpt><trkpt lat="43.74859440099355" lon="5.849535059849965"><ele>296.33333333333337</ele><time>2026-04-22T13:47:38.001Z</time></trkpt><trkpt lat="43.74850367686511" lon="5.849344846638251"><ele>296.0</ele><time>2026-04-22T13:47:39.001Z</time></trkpt><trkpt lat="43.74842929742037" lon="5.8491496216389605"><ele>296.0</ele><time>2026-04-22T13:47:40.001Z</time></trkpt><trkpt lat="43.74838215672809" lon="5.848935271640298"><ele>296.0</ele><time>2026-04-22T13:47:41.001Z</time></trkpt><trkpt lat="43.74836241669986" lon="5.848713978926738"><ele>296.0</ele><time>2026-04-22T13:47:42.001Z</time></trkpt><trkpt lat="43.74835839355711" lon="5.84847813995567"><ele>296.33333333333337</ele><time>2026-04-22T13:47:43.001Z</time></trkpt><trkpt lat="43.74832423369245" lon="5.848245914971746"><ele>296.6666666666667</ele><time>2026-04-22T13:47:44.001Z</time></trkpt><trkpt lat="43.7482486402852" lon="5.848033716230391"><ele>297.0</ele><time>2026-04-22T13:47:45.001Z</time></trkpt><trkpt lat="43.748136224362106" lon="5.847858960004337"><ele>297.0</ele><time>2026-04-22T13:47:46.001Z</time></trkpt><trkpt lat="43.748007189302996" lon="5.847718999105615"><ele>297.0</ele><time>2026-04-22T13:47:47.001Z</time></trkpt><trkpt lat="43.747866354197186" lon="5.847577372910271"><ele>297.0</ele><time>2026-04-22T13:47:48.001Z</time></trkpt><trkpt lat="43.747718026168386" lon="5.8474118973780485"><ele>295.3333333333333</ele><time>2026-04-22T13:47:49.001Z</time></trkpt><trkpt lat="43.747577137520814" lon="5.847241092818802"><ele>293.66666666666663</ele><time>2026-04-22T13:47:50.001Z</time></trkpt><trkpt lat="43.747449154925576" lon="5.847078641838251"><ele>292.0</ele><time>2026-04-22T13:47:51.001Z</time></trkpt><trkpt lat="43.74732469621728" lon="5.846933124847288"><ele>296.3333333333333</ele><time>2026-04-22T13:47:52.001Z</time></trkpt><trkpt lat="43.74721045751996" lon="5.8467890385226"><ele>300.6666666666667</ele><time>2026-04-22T13:47:53.001Z</time></trkpt><trkpt lat="43.74708592930451" lon="5.846648331917352"><ele>305.0</ele><time>2026-04-22T13:47:54.001Z</time></trkpt><trkpt lat="43.74695664437467" lon="5.846493705997218"><ele>300.6666666666667</ele><time>2026-04-22T13:47:55.001Z</time></trkpt><trkpt lat="43.74683134073991" lon="5.846334086682459"><ele>296.3333333333333</ele><time>2026-04-22T13:47:56.001Z</time></trkpt><trkpt lat="43.74670369371484" lon="5.846179313376868"><ele>292.0</ele><time>2026-04-22T13:47:57.001Z</time></trkpt><trkpt lat="43.74657818474578" lon="5.846008818439957"><ele>296.3333333333333</ele><time>2026-04-22T13:47:58.001Z</time></trkpt><trkpt lat="43.74645750372326" lon="5.845846408230133"><ele>300.6666666666667</ele><time>2026-04-22T13:47:59.001Z</time></trkpt><trkpt lat="43.746340883171925" lon="5.845692442142647"><ele>305.0</ele><time>2026-04-22T13:48:00.001Z</time></trkpt><trkpt lat="43.74622406837269" lon="5.845560430077126"><ele>305.0</ele><time>2026-04-22T13:48:01.001Z</time></trkpt><trkpt lat="43.74609586195152" lon="5.845455959600699"><ele>305.0</ele><time>2026-04-22T13:48:02.001Z</time></trkpt><trkpt lat="43.74595789775556" lon="5.845385973443852"><ele>305.0</ele><time>2026-04-22T13:48:03.001Z</time></trkpt><trkpt lat="43.74580609523023" lon="5.845352229802564"><ele>305.0</ele><time>2026-04-22T13:48:04.001Z</time></trkpt><trkpt lat="43.745662214159175" lon="5.845341949886395"><ele>301.75</ele><time>2026-04-22T13:48:05.001Z</time></trkpt><trkpt lat="43.745525907935104" lon="5.845322291548099"><ele>298.5</ele><time>2026-04-22T13:48:06.001Z</time></trkpt><trkpt lat="43.74540572973867" lon="5.845265407525771"><ele>295.25</ele><time>2026-04-22T13:48:07.001Z</time></trkpt><trkpt lat="43.745293645387754" lon="5.845167577572991"><ele>292.0</ele><time>2026-04-22T13:48:08.001Z</time></trkpt><trkpt lat="43.745188872968164" lon="5.845040937264519"><ele>292.0</ele><time>2026-04-22T13:48:09.001Z</time></trkpt><trkpt lat="43.74508649493907" lon="5.844891249160868"><ele>292.0</ele><time>2026-04-22T13:48:10.001Z</time></trkpt><trkpt lat="43.74497493647361" lon="5.844728880800168"><ele>292.0</ele><time>2026-04-22T13:48:11.001Z</time></trkpt><trkpt lat="43.744871921759376" lon="5.8445789011887115"><ele>292.0</ele><time>2026-04-22T13:48:12.001Z</time></trkpt><trkpt lat="43.74476678071458" lon="5.844427991634255"><ele>292.0</ele><time>2026-04-22T13:48:13.001Z</time></trkpt><trkpt lat="43.74466060369302" lon="5.844262877946063"><ele>292.0</ele><time>2026-04-22T13:48:14.001Z</time></trkpt><trkpt lat="43.744547582637786" lon="5.844094141570857"><ele>291.0</ele><time>2026-04-22T13:48:15.001Z</time></trkpt><trkpt lat="43.74441696497061" lon="5.8439125872102675"><ele>290.0</ele><time>2026-04-22T13:48:16.001Z</time></trkpt><trkpt lat="43.74427448701431" lon="5.8437360107757375"><ele>289.0</ele><time>2026-04-22T13:48:17.001Z</time></trkpt><trkpt lat="43.74411849432925" lon="5.84358138707137"><ele>291.3333333333333</ele><time>2026-04-22T13:48:18.001Z</time></trkpt><trkpt lat="43.74394911092656" lon="5.843431225633444"><ele>293.6666666666667</ele><time>2026-04-22T13:48:19.001Z</time></trkpt><trkpt lat="43.74377731910561" lon="5.843273103149097"><ele>296.0</ele><time>2026-04-22T13:48:20.001Z</time></trkpt><trkpt lat="43.743605425790406" lon="5.843111975455653"><ele>296.0</ele><time>2026-04-22T13:48:21Z</time></trkpt><trkpt lat="43.74343013140193" lon="5.8429476874666015"><ele>296.0</ele><time>2026-04-22T13:48:22Z</time></trkpt><trkpt lat="43.74324972745375" lon="5.842785497724959"><ele>296.0</ele><time>2026-04-22T13:48:23Z</time></trkpt><trkpt lat="43.74307115826781" lon="5.842620578665924"><ele>296.0</ele><time>2026-04-22T13:48:24Z</time></trkpt><trkpt lat="43.742888542782524" lon="5.8424464152330735"><ele>296.0</ele><time>2026-04-22T13:48:25Z</time></trkpt><trkpt lat="43.74271062023206" lon="5.842279227638634"><ele>296.0</ele><time>2026-04-22T13:48:26Z</time></trkpt><trkpt lat="43.74251424147358" lon="5.842106175666631"><ele>296.33333333333337</ele><time>2026-04-22T13:48:27Z</time></trkpt><trkpt lat="43.742322094894256" lon="5.841964856048032"><ele>296.6666666666667</ele><time>2026-04-22T13:48:28Z</time></trkpt><trkpt lat="43.74214477815151" lon="5.841846889540105"><ele>297.0</ele><time>2026-04-22T13:48:29Z</time></trkpt><trkpt lat="43.741973166463204" lon="5.841726456031886"><ele>295.6666666666667</ele><time>2026-04-22T13:48:30Z</time></trkpt><trkpt lat="43.74180560430498" lon="5.8415920762362905"><ele>294.33333333333337</ele><time>2026-04-22T13:48:31Z</time></trkpt><trkpt lat="43.741639540519685" lon="5.841450726320918"><ele>293.0</ele><time>2026-04-22T13:48:32Z</time></trkpt><trkpt lat="43.741464900838935" lon="5.841301419003466"><ele>293.0</ele><time>2026-04-22T13:48:33Z</time></trkpt><trkpt lat="43.74128695656302" lon="5.8411654972079035"><ele>293.0</ele><time>2026-04-22T13:48:34Z</time></trkpt><trkpt lat="43.741111801204646" lon="5.841039333483316"><ele>293.0</ele><time>2026-04-22T13:48:35Z</time></trkpt><trkpt lat="43.740935392436896" lon="5.840930474632281"><ele>294.33333333333337</ele><time>2026-04-22T13:48:36Z</time></trkpt><trkpt lat="43.740760873019994" lon="5.840855985245148"><ele>295.6666666666667</ele><time>2026-04-22T13:48:37Z</time></trkpt><trkpt lat="43.74059437107189" lon="5.840792176348863"><ele>297.0</ele><time>2026-04-22T13:48:38Z</time></trkpt><trkpt lat="43.74043492950669" lon="5.840725998228722"><ele>297.0</ele><time>2026-04-22T13:48:39Z</time></trkpt><trkpt lat="43.740267919756356" lon="5.840666673979169"><ele>297.0</ele><time>2026-04-22T13:48:40Z</time></trkpt><trkpt lat="43.74008799120968" lon="5.840598616221937"><ele>297.0</ele><time>2026-04-22T13:48:41Z</time></trkpt><trkpt lat="43.73990127258021" lon="5.840544320464439"><ele>295.3333333333333</ele><time>2026-04-22T13:48:42Z</time></trkpt><trkpt lat="43.739709801571514" lon="5.8405034690250055"><ele>293.66666666666663</ele><time>2026-04-22T13:48:43Z</time></trkpt><trkpt lat="43.73951771867667" lon="5.840463410734227"><ele>292.0</ele><time>2026-04-22T13:48:44Z</time></trkpt><trkpt lat="43.73932806145488" lon="5.840442522355209"><ele>291.3333333333333</ele><time>2026-04-22T13:48:45Z</time></trkpt><trkpt lat="43.73914533995484" lon="5.840425874567839"><ele>290.6666666666667</ele><time>2026-04-22T13:48:46Z</time></trkpt><trkpt lat="43.73897229602409" lon="5.8404049606929584"><ele>290.0</ele><time>2026-04-22T13:48:47Z</time></trkpt><trkpt lat="43.73880713541379" lon="5.840374941488999"><ele>290.0</ele><time>2026-04-22T13:48:48Z</time></trkpt><trkpt lat="43.738641599478214" lon="5.84034449574432"><ele>290.0</ele><time>2026-04-22T13:48:49Z</time></trkpt><trkpt lat="43.73847406764375" lon="5.840312426145091"><ele>290.0</ele><time>2026-04-22T13:48:50Z</time></trkpt><trkpt lat="43.738317507747105" lon="5.840295427672914"><ele>291.0</ele><time>2026-04-22T13:48:51Z</time></trkpt><trkpt lat="43.738153302261175" lon="5.840274436950261"><ele>292.0</ele><time>2026-04-22T13:48:52Z</time></trkpt><trkpt lat="43.73798673547707" lon="5.840264300675696"><ele>293.0</ele><time>2026-04-22T13:48:53Z</time></trkpt><trkpt lat="43.73780393762672" lon="5.8402553161330095"><ele>295.6666666666667</ele><time>2026-04-22T13:48:54Z</time></trkpt><trkpt lat="43.737633321314036" lon="5.840258262186612"><ele>298.3333333333333</ele><time>2026-04-22T13:48:55Z</time></trkpt><trkpt lat="43.737473029699444" lon="5.840271271863239"><ele>301.0</ele><time>2026-04-22T13:48:56Z</time></trkpt><trkpt lat="43.73732506965612" lon="5.840310689312185"><ele>301.0</ele><time>2026-04-22T13:48:57Z</time></trkpt><trkpt lat="43.73719970055028" lon="5.840359727611545"><ele>301.0</ele><time>2026-04-22T13:48:58Z</time></trkpt><trkpt lat="43.73707550281204" lon="5.840401254580679"><ele>301.0</ele><time>2026-04-22T13:48:59Z</time></trkpt><trkpt lat="43.73695519716163" lon="5.840420659578287"><ele>301.0</ele><time>2026-04-22T13:49:00Z</time></trkpt><trkpt lat="43.73684742630595" lon="5.840399330868546"><ele>299.75</ele><time>2026-04-22T13:49:01Z</time></trkpt><trkpt lat="43.73674623839692" lon="5.840321355810909"><ele>298.5</ele><time>2026-04-22T13:49:02Z</time></trkpt><trkpt lat="43.73666247655861" lon="5.840215975747902"><ele>297.25</ele><time>2026-04-22T13:49:03Z</time></trkpt><trkpt lat="43.7365776608558" lon="5.840075222622465"><ele>296.0</ele><time>2026-04-22T13:49:04Z</time></trkpt><trkpt lat="43.736490414084145" lon="5.839915618100615"><ele>298.75</ele><time>2026-04-22T13:49:05Z</time></trkpt><trkpt lat="43.736419395584164" lon="5.839764561614728"><ele>301.5</ele><time>2026-04-22T13:49:06Z</time></trkpt><trkpt lat="43.736375922579285" lon="5.839610009954329"><ele>304.25</ele><time>2026-04-22T13:49:07Z</time></trkpt><trkpt lat="43.73636161614078" lon="5.839438166753463"><ele>307.0</ele><time>2026-04-22T13:49:08Z</time></trkpt><trkpt lat="43.73638635936498" lon="5.839252850921703"><ele>308.0</ele><time>2026-04-22T13:49:09Z</time></trkpt><trkpt lat="43.73642870915959" lon="5.8390461168769985"><ele>309.0</ele><time>2026-04-22T13:49:10Z</time></trkpt><trkpt lat="43.736478051929474" lon="5.838831065660583"><ele>310.0</ele><time>2026-04-22T13:49:11Z</time></trkpt><trkpt lat="43.73651758651394" lon="5.838627833218775"><ele>309.75</ele><time>2026-04-22T13:49:12Z</time></trkpt><trkpt lat="43.73654964886988" lon="5.838428898166735"><ele>309.5</ele><time>2026-04-22T13:49:13Z</time></trkpt><trkpt lat="43.73657923088683" lon="5.838218455120698"><ele>309.25</ele><time>2026-04-22T13:49:14Z</time></trkpt><trkpt lat="43.73660105566493" lon="5.83801767491583"><ele>309.0</ele><time>2026-04-22T13:49:15Z</time></trkpt><trkpt lat="43.73658704738107" lon="5.837824883271856"><ele>309.0</ele><time>2026-04-22T13:49:16Z</time></trkpt><trkpt lat="43.73653434756791" lon="5.837646730918908"><ele>309.0</ele><time>2026-04-22T13:49:17Z</time></trkpt><trkpt lat="43.73645645132068" lon="5.837475097847487"><ele>309.0</ele><time>2026-04-22T13:49:18Z</time></trkpt><trkpt lat="43.73634232626365" lon="5.83731419638189"><ele>309.0</ele><time>2026-04-22T13:49:19Z</time></trkpt><trkpt lat="43.73622339872452" lon="5.837158079045009"><ele>309.0</ele><time>2026-04-22T13:49:20Z</time></trkpt><trkpt lat="43.73609760845988" lon="5.836987280216248"><ele>309.0</ele><time>2026-04-22T13:49:21Z</time></trkpt><trkpt lat="43.73596252799114" lon="5.836791315718559"><ele>309.0</ele><time>2026-04-22T13:49:22Z</time></trkpt><trkpt lat="43.7358302361642" lon="5.836583982326252"><ele>309.0</ele><time>2026-04-22T13:49:23Z</time></trkpt><trkpt lat="43.735700645455715" lon="5.8363746385015185"><ele>309.0</ele><time>2026-04-22T13:49:24Z</time></trkpt><trkpt lat="43.73556826817691" lon="5.836175865980418"><ele>309.0</ele><time>2026-04-22T13:49:25Z</time></trkpt><trkpt lat="43.73541672754173" lon="5.836012741075113"><ele>308.3333333333333</ele><time>2026-04-22T13:49:26Z</time></trkpt><trkpt lat="43.73523841585051" lon="5.8358847925731805"><ele>307.66666666666663</ele><time>2026-04-22T13:49:27Z</time></trkpt><trkpt lat="43.73506229613508" lon="5.835758443669838"><ele>307.0</ele><time>2026-04-22T13:49:28Z</time></trkpt><trkpt lat="43.73488018765484" lon="5.835627595159107"><ele>307.0</ele><time>2026-04-22T13:49:29Z</time></trkpt><trkpt lat="43.73472532614326" lon="5.83548982317035"><ele>307.0</ele><time>2026-04-22T13:49:30Z</time></trkpt><trkpt lat="43.73458641088208" lon="5.8353325838745915"><ele>307.0</ele><time>2026-04-22T13:49:31Z</time></trkpt><trkpt lat="43.73444796081088" lon="5.835155142232281"><ele>306.3333333333333</ele><time>2026-04-22T13:49:32Z</time></trkpt><trkpt lat="43.73431767794825" lon="5.8349465911453295"><ele>305.6666666666667</ele><time>2026-04-22T13:49:33Z</time></trkpt><trkpt lat="43.73420358800668" lon="5.834739604718034"><ele>305.0</ele><time>2026-04-22T13:49:34Z</time></trkpt><trkpt lat="43.734112099725145" lon="5.834546444063481"><ele>305.0</ele><time>2026-04-22T13:49:35Z</time></trkpt><trkpt lat="43.734034076055856" lon="5.834345051308075"><ele>305.0</ele><time>2026-04-22T13:49:36Z</time></trkpt><trkpt lat="43.733964152312886" lon="5.834124709507342"><ele>305.0</ele><time>2026-04-22T13:49:37Z</time></trkpt><trkpt lat="43.733906251615" lon="5.833874566890217"><ele>307.33333333333337</ele><time>2026-04-22T13:49:38Z</time></trkpt><trkpt lat="43.73386473145598" lon="5.83357619291309"><ele>309.6666666666667</ele><time>2026-04-22T13:49:39Z</time></trkpt><trkpt lat="43.73381148994646" lon="5.833334212463929"><ele>312.0</ele><time>2026-04-22T13:49:40Z</time></trkpt><trkpt lat="43.73376644914739" lon="5.833092209759142"><ele>314.0</ele><time>2026-04-22T13:49:41Z</time></trkpt><trkpt lat="43.73372131460354" lon="5.832857255084209"><ele>316.0</ele><time>2026-04-22T13:49:42Z</time></trkpt><trkpt lat="43.733671983923" lon="5.832649060341733"><ele>318.0</ele><time>2026-04-22T13:49:43Z</time></trkpt><trkpt lat="43.73362658004203" lon="5.832473462142921"><ele>318.6</ele><time>2026-04-22T13:49:44Z</time></trkpt><trkpt lat="43.73358554113951" lon="5.832329524913939"><ele>319.20000000000005</ele><time>2026-04-22T13:49:45Z</time></trkpt><trkpt lat="43.73354881941929" lon="5.832209615178294"><ele>319.8</ele><time>2026-04-22T13:49:46.001Z</time></trkpt><trkpt lat="43.733517513856704" lon="5.832115899997446"><ele>320.40000000000003</ele><time>2026-04-22T13:49:47.001Z</time></trkpt><trkpt lat="43.73346378485398" lon="5.831981582525076"><ele>321.0</ele><time>2026-04-22T13:49:49.001Z</time></trkpt><trkpt lat="43.733410069971164" lon="5.831860292218675"><ele>318.5</ele><time>2026-04-22T13:49:51.001Z</time></trkpt><trkpt lat="43.73338056305461" lon="5.831773968519384"><ele>316.0</ele><time>2026-04-22T13:49:52.001Z</time></trkpt><trkpt lat="43.73334388341828" lon="5.831674233277136"><ele>313.5</ele><time>2026-04-22T13:49:53.001Z</time></trkpt><trkpt lat="43.733297672644845" lon="5.831559389328683"><ele>311.0</ele><time>2026-04-22T13:49:54.001Z</time></trkpt><trkpt lat="43.73326301962414" lon="5.831434256059696"><ele>308.5</ele><time>2026-04-22T13:49:55.001Z</time></trkpt><trkpt lat="43.73321619690405" lon="5.831300264166765"><ele>306.0</ele><time>2026-04-22T13:49:56.001Z</time></trkpt><trkpt lat="43.733175737289116" lon="5.831163790335374"><ele>306.0</ele><time>2026-04-22T13:49:57.001Z</time></trkpt><trkpt lat="43.733137384415514" lon="5.831007141646375"><ele>306.0</ele><time>2026-04-22T13:49:58.001Z</time></trkpt><trkpt lat="43.73309605421362" lon="5.8308373626165215"><ele>306.0</ele><time>2026-04-22T13:49:59.001Z</time></trkpt><trkpt lat="43.73306253441931" lon="5.830653401684225"><ele>306.0</ele><time>2026-04-22T13:50:00.001Z</time></trkpt><trkpt lat="43.73302790305451" lon="5.830459837326095"><ele>305.75</ele><time>2026-04-22T13:50:01.001Z</time></trkpt><trkpt lat="43.73299568812862" lon="5.830254279895199"><ele>305.5</ele><time>2026-04-22T13:50:02.001Z</time></trkpt><trkpt lat="43.73297835069575" lon="5.830062172069009"><ele>305.25</ele><time>2026-04-22T13:50:03.001Z</time></trkpt><trkpt lat="43.73295888459453" lon="5.829873503043419"><ele>305.0</ele><time>2026-04-22T13:50:04.001Z</time></trkpt><trkpt lat="43.73295010017226" lon="5.829691911507604"><ele>305.0</ele><time>2026-04-22T13:50:05.001Z</time></trkpt><trkpt lat="43.732946548434086" lon="5.829505745128236"><ele>305.0</ele><time>2026-04-22T13:50:06.001Z</time></trkpt><trkpt lat="43.73295328383297" lon="5.829321831106047"><ele>305.0</ele><time>2026-04-22T13:50:07.001Z</time></trkpt><trkpt lat="43.732964780034536" lon="5.829153004928585"><ele>305.0</ele><time>2026-04-22T13:50:08.001Z</time></trkpt><trkpt lat="43.73298256777581" lon="5.828997904733332"><ele>304.8</ele><time>2026-04-22T13:50:09.001Z</time></trkpt><trkpt lat="43.732997166820745" lon="5.828838078713528"><ele>304.6</ele><time>2026-04-22T13:50:10.001Z</time></trkpt><trkpt lat="43.73301140236041" lon="5.828699317551348"><ele>304.4</ele><time>2026-04-22T13:50:11.001Z</time></trkpt><trkpt lat="43.73301361296143" lon="5.828561080645368"><ele>304.2</ele><time>2026-04-22T13:50:12.001Z</time></trkpt><trkpt lat="43.73300688048847" lon="5.828418258814689"><ele>304.0</ele><time>2026-04-22T13:50:13.001Z</time></trkpt><trkpt lat="43.73299515205339" lon="5.828262747651661"><ele>303.25</ele><time>2026-04-22T13:50:14.001Z</time></trkpt><trkpt lat="43.73296712501479" lon="5.828087436654543"><ele>302.5</ele><time>2026-04-22T13:50:15.001Z</time></trkpt><trkpt lat="43.73293219707846" lon="5.827897643830006"><ele>301.75</ele><time>2026-04-22T13:50:16.001Z</time></trkpt><trkpt lat="43.73288952619351" lon="5.827713626780631"><ele>301.0</ele><time>2026-04-22T13:50:17.001Z</time></trkpt><trkpt lat="43.73284754224491" lon="5.827539054473476"><ele>300.75</ele><time>2026-04-22T13:50:18.001Z</time></trkpt><trkpt lat="43.7328058154095" lon="5.827379493998905"><ele>300.5</ele><time>2026-04-22T13:50:19.001Z</time></trkpt><trkpt lat="43.732763947336785" lon="5.827215933835582"><ele>300.25</ele><time>2026-04-22T13:50:20.001Z</time></trkpt><trkpt lat="43.73273287810318" lon="5.827044995378845"><ele>300.0</ele><time>2026-04-22T13:50:21.001Z</time></trkpt><trkpt lat="43.732709156043946" lon="5.826884347027447"><ele>299.0</ele><time>2026-04-22T13:50:22.001Z</time></trkpt><trkpt lat="43.73269365602311" lon="5.82673162621576"><ele>298.0</ele><time>2026-04-22T13:50:23.001Z</time></trkpt><trkpt lat="43.73267580122442" lon="5.826582461858866"><ele>297.0</ele><time>2026-04-22T13:50:24.001Z</time></trkpt><trkpt lat="43.73265684624351" lon="5.826434450307483"><ele>296.0</ele><time>2026-04-22T13:50:25.001Z</time></trkpt><trkpt lat="43.73264118322292" lon="5.826263117407683"><ele>296.0</ele><time>2026-04-22T13:50:26.001Z</time></trkpt><trkpt lat="43.73262004715522" lon="5.826095639566767"><ele>296.0</ele><time>2026-04-22T13:50:27Z</time></trkpt><trkpt lat="43.732604663620265" lon="5.8259446590923645"><ele>296.0</ele><time>2026-04-22T13:50:28Z</time></trkpt><trkpt lat="43.73259393372999" lon="5.825788442494943"><ele>296.0</ele><time>2026-04-22T13:50:29Z</time></trkpt><trkpt lat="43.732588108040986" lon="5.825615596061587"><ele>295.5</ele><time>2026-04-22T13:50:30Z</time></trkpt><trkpt lat="43.73258576760608" lon="5.825437149920602"><ele>295.0</ele><time>2026-04-22T13:50:31Z</time></trkpt><trkpt lat="43.732587063040974" lon="5.825278502290431"><ele>294.5</ele><time>2026-04-22T13:50:32Z</time></trkpt><trkpt lat="43.73259190281423" lon="5.825126950137931"><ele>294.0</ele><time>2026-04-22T13:50:33Z</time></trkpt><trkpt lat="43.7325941282444" lon="5.824988538853639"><ele>293.2</ele><time>2026-04-22T13:50:34Z</time></trkpt><trkpt lat="43.732590842568634" lon="5.824865602252566"><ele>292.4</ele><time>2026-04-22T13:50:35Z</time></trkpt><trkpt lat="43.732585756483644" lon="5.8247623954910726"><ele>291.6</ele><time>2026-04-22T13:50:36Z</time></trkpt><trkpt lat="43.73257854285474" lon="5.824584690968501"><ele>290.8</ele><time>2026-04-22T13:50:38Z</time></trkpt><trkpt lat="43.73256277300053" lon="5.824455976720699"><ele>290.0</ele><time>2026-04-22T13:50:39Z</time></trkpt><trkpt lat="43.73254480230948" lon="5.824304709245716"><ele>290.0</ele><time>2026-04-22T13:50:40Z</time></trkpt><trkpt lat="43.73252965890327" lon="5.824131847049693"><ele>290.0</ele><time>2026-04-22T13:50:41Z</time></trkpt><trkpt lat="43.7325180403117" lon="5.823946931553178"><ele>290.0</ele><time>2026-04-22T13:50:42Z</time></trkpt><trkpt lat="43.732506689654855" lon="5.823765238122011"><ele>290.0</ele><time>2026-04-22T13:50:43Z</time></trkpt><trkpt lat="43.73248989279253" lon="5.823590547615297"><ele>289.8</ele><time>2026-04-22T13:50:44Z</time></trkpt><trkpt lat="43.732468634530726" lon="5.823434808540537"><ele>289.6</ele><time>2026-04-22T13:50:45Z</time></trkpt><trkpt lat="43.732443544920464" lon="5.823287750391012"><ele>289.4</ele><time>2026-04-22T13:50:46Z</time></trkpt><trkpt lat="43.73241631552595" lon="5.8231463670987855"><ele>289.2</ele><time>2026-04-22T13:50:47Z</time></trkpt><trkpt lat="43.73238730742237" lon="5.823002133711047"><ele>289.0</ele><time>2026-04-22T13:50:48Z</time></trkpt><trkpt lat="43.73235901675568" lon="5.8228556406918095"><ele>289.0</ele><time>2026-04-22T13:50:49Z</time></trkpt><trkpt lat="43.73233429327484" lon="5.822713338197228"><ele>289.0</ele><time>2026-04-22T13:50:50Z</time></trkpt><trkpt lat="43.732305965812145" lon="5.822586563643526"><ele>289.0</ele><time>2026-04-22T13:50:51Z</time></trkpt><trkpt lat="43.73228331554002" lon="5.822467682318813"><ele>289.0</ele><time>2026-04-22T13:50:52Z</time></trkpt><trkpt lat="43.73226159998181" lon="5.8223637358804"><ele>289.0</ele><time>2026-04-22T13:50:53Z</time></trkpt><trkpt lat="43.73222879034821" lon="5.822202744938089"><ele>289.0</ele><time>2026-04-22T13:50:55Z</time></trkpt><trkpt lat="43.732186324299086" lon="5.822045984132471"><ele>289.0</ele><time>2026-04-22T13:50:57Z</time></trkpt><trkpt lat="43.7321590242094" lon="5.821940858568829"><ele>289.0</ele><time>2026-04-22T13:50:58Z</time></trkpt><trkpt lat="43.732134381774785" lon="5.821806774352864"><ele>289.0</ele><time>2026-04-22T13:50:59Z</time></trkpt><trkpt lat="43.732107019713276" lon="5.821672465950514"><ele>289.0</ele><time>2026-04-22T13:51:00Z</time></trkpt><trkpt lat="43.73208005945111" lon="5.821531077725654"><ele>289.25</ele><time>2026-04-22T13:51:01Z</time></trkpt><trkpt lat="43.73204712965847" lon="5.821383384547627"><ele>289.5</ele><time>2026-04-22T13:51:02Z</time></trkpt><trkpt lat="43.73201723564586" lon="5.821232754927788"><ele>289.75</ele><time>2026-04-22T13:51:03Z</time></trkpt><trkpt lat="43.73198529694444" lon="5.821080727409883"><ele>290.0</ele><time>2026-04-22T13:51:04Z</time></trkpt><trkpt lat="43.7319556532986" lon="5.8209256270332"><ele>290.0</ele><time>2026-04-22T13:51:05Z</time></trkpt><trkpt lat="43.73192970782165" lon="5.820770869788473"><ele>290.0</ele><time>2026-04-22T13:51:06Z</time></trkpt><trkpt lat="43.731898086077294" lon="5.8206216244018645"><ele>290.0</ele><time>2026-04-22T13:51:07Z</time></trkpt><trkpt lat="43.73186830641327" lon="5.820473489874778"><ele>290.0</ele><time>2026-04-22T13:51:08Z</time></trkpt><trkpt lat="43.731838363664615" lon="5.820327986663235"><ele>290.0</ele><time>2026-04-22T13:51:09Z</time></trkpt><trkpt lat="43.731816121917156" lon="5.820203073434015"><ele>289.33333333333337</ele><time>2026-04-22T13:51:10Z</time></trkpt><trkpt lat="43.7317998485535" lon="5.820092326670496"><ele>288.6666666666667</ele><time>2026-04-22T13:51:11Z</time></trkpt><trkpt lat="43.731787813492915" lon="5.8199955028561305"><ele>288.0</ele><time>2026-04-22T13:51:12Z</time></trkpt><trkpt lat="43.731766405740636" lon="5.819842239790165"><ele>287.3333333333333</ele><time>2026-04-22T13:51:14Z</time></trkpt><trkpt lat="43.73175317418491" lon="5.819750236538521"><ele>286.66666666666663</ele><time>2026-04-22T13:51:15Z</time></trkpt><trkpt lat="43.73173346066776" lon="5.819624066212583"><ele>286.0</ele><time>2026-04-22T13:51:16Z</time></trkpt><trkpt lat="43.73171673645857" lon="5.819481940175389"><ele>286.0</ele><time>2026-04-22T13:51:17Z</time></trkpt><trkpt lat="43.73170482276134" lon="5.819340267131995"><ele>286.0</ele><time>2026-04-22T13:51:18Z</time></trkpt><trkpt lat="43.7316977806842" lon="5.819193876137534"><ele>286.0</ele><time>2026-04-22T13:51:19Z</time></trkpt><trkpt lat="43.73168898920959" lon="5.819034643578931"><ele>286.0</ele><time>2026-04-22T13:51:20Z</time></trkpt><trkpt lat="43.73167709069537" lon="5.818859884136636"><ele>285.5</ele><time>2026-04-22T13:51:21Z</time></trkpt><trkpt lat="43.731665281393866" lon="5.8186770306464535"><ele>285.0</ele><time>2026-04-22T13:51:22Z</time></trkpt><trkpt lat="43.73165097870142" lon="5.818503783268007"><ele>284.5</ele><time>2026-04-22T13:51:23Z</time></trkpt><trkpt lat="43.73163705564215" lon="5.818343704059956"><ele>284.0</ele><time>2026-04-22T13:51:24Z</time></trkpt><trkpt lat="43.73162002994573" lon="5.818181966544609"><ele>284.0</ele><time>2026-04-22T13:51:25Z</time></trkpt><trkpt lat="43.73159359518081" lon="5.818018349856483"><ele>284.0</ele><time>2026-04-22T13:51:26Z</time></trkpt><trkpt lat="43.7315531263927" lon="5.8178628834652955"><ele>284.0</ele><time>2026-04-22T13:51:27Z</time></trkpt><trkpt lat="43.7315070817819" lon="5.8177253875083235"><ele>284.0</ele><time>2026-04-22T13:51:28Z</time></trkpt><trkpt lat="43.731466512163614" lon="5.817584892217266"><ele>284.0</ele><time>2026-04-22T13:51:29Z</time></trkpt><trkpt lat="43.73143435857234" lon="5.817435559228963"><ele>284.0</ele><time>2026-04-22T13:51:30Z</time></trkpt><trkpt lat="43.73140919188534" lon="5.817277609307717"><ele>284.0</ele><time>2026-04-22T13:51:31Z</time></trkpt><trkpt lat="43.73138296545132" lon="5.8171151038571995"><ele>284.0</ele><time>2026-04-22T13:51:32Z</time></trkpt><trkpt lat="43.73135496011136" lon="5.81696262122604"><ele>283.8</ele><time>2026-04-22T13:51:33Z</time></trkpt><trkpt lat="43.73133143803778" lon="5.816813742069388"><ele>283.59999999999997</ele><time>2026-04-22T13:51:34Z</time></trkpt><trkpt lat="43.731310733294556" lon="5.816662472499595"><ele>283.4</ele><time>2026-04-22T13:51:35Z</time></trkpt><trkpt lat="43.731286129804175" lon="5.816520626516207"><ele>283.2</ele><time>2026-04-22T13:51:36Z</time></trkpt><trkpt lat="43.73125734750821" lon="5.816385812675106"><ele>283.0</ele><time>2026-04-22T13:51:37Z</time></trkpt><trkpt lat="43.731223091634554" lon="5.816257388305098"><ele>283.0</ele><time>2026-04-22T13:51:38Z</time></trkpt><trkpt lat="43.73118081713554" lon="5.816129068590905"><ele>283.0</ele><time>2026-04-22T13:51:39Z</time></trkpt><trkpt lat="43.73113163108901" lon="5.816010531182375"><ele>283.0</ele><time>2026-04-22T13:51:40Z</time></trkpt><trkpt lat="43.73108271067855" lon="5.81589695099123"><ele>283.0</ele><time>2026-04-22T13:51:41Z</time></trkpt><trkpt lat="43.73103120361084" lon="5.815786733810491"><ele>283.0</ele><time>2026-04-22T13:51:42Z</time></trkpt><trkpt lat="43.73097801338432" lon="5.81567016819881"><ele>282.75</ele><time>2026-04-22T13:51:43Z</time></trkpt><trkpt lat="43.73091582853859" lon="5.8155429879360865"><ele>282.5</ele><time>2026-04-22T13:51:44Z</time></trkpt><trkpt lat="43.730856398201375" lon="5.815415412067462"><ele>282.25</ele><time>2026-04-22T13:51:45Z</time></trkpt><trkpt lat="43.730796972923606" lon="5.815278885596065"><ele>282.0</ele><time>2026-04-22T13:51:46Z</time></trkpt><trkpt lat="43.73073380494926" lon="5.815144141125383"><ele>282.0</ele><time>2026-04-22T13:51:47Z</time></trkpt><trkpt lat="43.73067485103401" lon="5.8150200058922366"><ele>282.0</ele><time>2026-04-22T13:51:48Z</time></trkpt><trkpt lat="43.73061837824578" lon="5.814896421583284"><ele>282.0</ele><time>2026-04-22T13:51:49Z</time></trkpt><trkpt lat="43.73056246005504" lon="5.8147700731587815"><ele>282.0</ele><time>2026-04-22T13:51:50Z</time></trkpt><trkpt lat="43.73051338917425" lon="5.814653587534713"><ele>282.0</ele><time>2026-04-22T13:51:51Z</time></trkpt><trkpt lat="43.73047000828472" lon="5.814535538201063"><ele>282.0</ele><time>2026-04-22T13:51:52Z</time></trkpt><trkpt lat="43.73041872051426" lon="5.8144189922896485"><ele>282.0</ele><time>2026-04-22T13:51:53Z</time></trkpt><trkpt lat="43.730372793462216" lon="5.814298845638825"><ele>282.0</ele><time>2026-04-22T13:51:54Z</time></trkpt><trkpt lat="43.73031859440512" lon="5.814179385538214"><ele>282.0</ele><time>2026-04-22T13:51:55Z</time></trkpt><trkpt lat="43.7302699965605" lon="5.814074219002726"><ele>282.0</ele><time>2026-04-22T13:51:56Z</time></trkpt><trkpt lat="43.7302308404015" lon="5.813978810789829"><ele>282.0</ele><time>2026-04-22T13:51:57Z</time></trkpt><trkpt lat="43.73019011829087" lon="5.813880367954239"><ele>282.0</ele><time>2026-04-22T13:51:58Z</time></trkpt><trkpt lat="43.73014724122854" lon="5.813787806666801"><ele>282.0</ele><time>2026-04-22T13:51:59Z</time></trkpt><trkpt lat="43.73009242772485" lon="5.813695732029381"><ele>282.0</ele><time>2026-04-22T13:52:00Z</time></trkpt><trkpt lat="43.73003773415583" lon="5.813593939086313"><ele>282.0</ele><time>2026-04-22T13:52:01Z</time></trkpt><trkpt lat="43.72998477059998" lon="5.813494617359765"><ele>282.0</ele><time>2026-04-22T13:52:02Z</time></trkpt><trkpt lat="43.72993746517682" lon="5.813411019211195"><ele>282.0</ele><time>2026-04-22T13:52:03Z</time></trkpt><trkpt lat="43.729891710091685" lon="5.813314583587401"><ele>282.0</ele><time>2026-04-22T13:52:05Z</time></trkpt><trkpt lat="43.72984936295294" lon="5.813247791514858"><ele>282.0</ele><time>2026-04-22T13:52:07.001Z</time></trkpt><trkpt lat="43.729802976676226" lon="5.813161824365087"><ele>282.0</ele><time>2026-04-22T13:52:09.001Z</time></trkpt><trkpt lat="43.72974178623941" lon="5.813079543559441"><ele>282.0</ele><time>2026-04-22T13:52:12.001Z</time></trkpt><trkpt lat="43.72969385173194" lon="5.812948692889288"><ele>282.0</ele><time>2026-04-22T13:52:15.001Z</time></trkpt><trkpt lat="43.72963413831386" lon="5.812816391203879"><ele>282.0</ele><time>2026-04-22T13:52:17.001Z</time></trkpt><trkpt lat="43.72957111099043" lon="5.812798407178675"><ele>282.0</ele><time>2026-04-22T13:52:18.001Z</time></trkpt><trkpt lat="43.72950463357155" lon="5.812793007125908"><ele>282.0</ele><time>2026-04-22T13:52:19.001Z</time></trkpt><trkpt lat="43.729430322700104" lon="5.8127834519811055"><ele>282.0</ele><time>2026-04-22T13:52:20.001Z</time></trkpt><trkpt lat="43.72934918773797" lon="5.812766522089551"><ele>282.0</ele><time>2026-04-22T13:52:21.001Z</time></trkpt><trkpt lat="43.729257061187006" lon="5.812741467481977"><ele>282.0</ele><time>2026-04-22T13:52:22.001Z</time></trkpt><trkpt lat="43.72916636735487" lon="5.812711856691383"><ele>281.2</ele><time>2026-04-22T13:52:23.001Z</time></trkpt><trkpt lat="43.729070619442915" lon="5.812689361989582"><ele>280.4</ele><time>2026-04-22T13:52:24.001Z</time></trkpt><trkpt lat="43.72896849668035" lon="5.812685832160486"><ele>279.6</ele><time>2026-04-22T13:52:25.001Z</time></trkpt><trkpt lat="43.72886474324152" lon="5.812695827180353"><ele>278.8</ele><time>2026-04-22T13:52:26.001Z</time></trkpt><trkpt lat="43.72877301357952" lon="5.812721022120214"><ele>278.0</ele><time>2026-04-22T13:52:27.001Z</time></trkpt><trkpt lat="43.72868697930939" lon="5.812746454537893"><ele>278.0</ele><time>2026-04-22T13:52:28.001Z</time></trkpt><trkpt lat="43.728599925431496" lon="5.81276204366359"><ele>278.0</ele><time>2026-04-22T13:52:29.001Z</time></trkpt><trkpt lat="43.72850344312222" lon="5.812788330930222"><ele>278.0</ele><time>2026-04-22T13:52:30.001Z</time></trkpt><trkpt lat="43.72841972095836" lon="5.812804394003501"><ele>278.0</ele><time>2026-04-22T13:52:31.001Z</time></trkpt><trkpt lat="43.72833893912314" lon="5.812836202965867"><ele>278.0</ele><time>2026-04-22T13:52:32.001Z</time></trkpt><trkpt lat="43.72825296902376" lon="5.812851483795416"><ele>278.0</ele><time>2026-04-22T13:52:33Z</time></trkpt><trkpt lat="43.72817027423217" lon="5.812881591749478"><ele>277.33333333333337</ele><time>2026-04-22T13:52:34Z</time></trkpt><trkpt lat="43.72809042975784" lon="5.812894136289487"><ele>276.6666666666667</ele><time>2026-04-22T13:52:35Z</time></trkpt><trkpt lat="43.72801722049937" lon="5.812906028284475"><ele>276.0</ele><time>2026-04-22T13:52:36Z</time></trkpt><trkpt lat="43.727934325348826" lon="5.8129221713552734"><ele>275.3333333333333</ele><time>2026-04-22T13:52:37Z</time></trkpt><trkpt lat="43.72785187419225" lon="5.812938066905863"><ele>274.66666666666663</ele><time>2026-04-22T13:52:38Z</time></trkpt><trkpt lat="43.72776999111979" lon="5.812953790970947"><ele>274.0</ele><time>2026-04-22T13:52:39Z</time></trkpt><trkpt lat="43.72768413875048" lon="5.812971064531344"><ele>273.8</ele><time>2026-04-22T13:52:40Z</time></trkpt><trkpt lat="43.72760137153244" lon="5.81298813976072"><ele>273.59999999999997</ele><time>2026-04-22T13:52:41Z</time></trkpt><trkpt lat="43.727512363704705" lon="5.813006114133834"><ele>273.4</ele><time>2026-04-22T13:52:42Z</time></trkpt><trkpt lat="43.72741848667664" lon="5.813032985026492"><ele>273.2</ele><time>2026-04-22T13:52:43Z</time></trkpt><trkpt lat="43.72732285084502" lon="5.81306897490082"><ele>273.0</ele><time>2026-04-22T13:52:44Z</time></trkpt><trkpt lat="43.72723203293972" lon="5.813123633205002"><ele>273.0</ele><time>2026-04-22T13:52:45Z</time></trkpt><trkpt lat="43.727140681909866" lon="5.81317704944768"><ele>273.0</ele><time>2026-04-22T13:52:46Z</time></trkpt><trkpt lat="43.727057786262776" lon="5.813200350560833"><ele>273.0</ele><time>2026-04-22T13:52:47Z</time></trkpt><trkpt lat="43.72699474849347" lon="5.8131944283882815"><ele>273.0</ele><time>2026-04-22T13:52:48Z</time></trkpt><trkpt lat="43.72688264920857" lon="5.813152608925668"><ele>273.0</ele><time>2026-04-22T13:52:50Z</time></trkpt><trkpt lat="43.726828961782346" lon="5.813097368497647"><ele>273.0</ele><time>2026-04-22T13:52:51Z</time></trkpt><trkpt lat="43.72678609038896" lon="5.8130189290011725"><ele>273.5</ele><time>2026-04-22T13:52:52Z</time></trkpt><trkpt lat="43.726757649031214" lon="5.812937840609755"><ele>274.0</ele><time>2026-04-22T13:52:53Z</time></trkpt><trkpt lat="43.72673685267018" lon="5.81283996611005"><ele>274.5</ele><time>2026-04-22T13:52:54Z</time></trkpt><trkpt lat="43.726727707188886" lon="5.812731951101803"><ele>275.0</ele><time>2026-04-22T13:52:55Z</time></trkpt><trkpt lat="43.72672512951503" lon="5.812615438453131"><ele>275.5</ele><time>2026-04-22T13:52:56Z</time></trkpt><trkpt lat="43.72672110806465" lon="5.812515162958969"><ele>276.0</ele><time>2026-04-22T13:52:57Z</time></trkpt><trkpt lat="43.72670980311197" lon="5.812350955749833"><ele>276.0</ele><time>2026-04-22T13:52:59Z</time></trkpt><trkpt lat="43.726711348884" lon="5.812262653635473"><ele>276.0</ele><time>2026-04-22T13:53:00Z</time></trkpt><trkpt lat="43.72672609033931" lon="5.812173196300643"><ele>276.0</ele><time>2026-04-22T13:53:01Z</time></trkpt><trkpt lat="43.726732050105475" lon="5.812068927097466"><ele>276.0</ele><time>2026-04-22T13:53:02Z</time></trkpt><trkpt lat="43.72672646727209" lon="5.811980760028702"><ele>276.0</ele><time>2026-04-22T13:53:03Z</time></trkpt><trkpt lat="43.72670856695768" lon="5.811895518466014"><ele>276.0</ele><time>2026-04-22T13:53:04Z</time></trkpt><trkpt lat="43.726674970418216" lon="5.8117274724111905"><ele>276.0</ele><time>2026-04-22T13:53:06Z</time></trkpt><trkpt lat="43.72665627131463" lon="5.8116289361909965"><ele>276.0</ele><time>2026-04-22T13:53:07Z</time></trkpt><trkpt lat="43.7266295009188" lon="5.81151685404204"><ele>276.0</ele><time>2026-04-22T13:53:08Z</time></trkpt><trkpt lat="43.72658654859525" lon="5.8113939125574285"><ele>276.0</ele><time>2026-04-22T13:53:09Z</time></trkpt><trkpt lat="43.726529739545875" lon="5.811277566831635"><ele>276.0</ele><time>2026-04-22T13:53:10Z</time></trkpt><trkpt lat="43.726468422949516" lon="5.811178050930714"><ele>276.0</ele><time>2026-04-22T13:53:11Z</time></trkpt><trkpt lat="43.72639482351501" lon="5.811090433585016"><ele>276.0</ele><time>2026-04-22T13:53:12Z</time></trkpt><trkpt lat="43.72631743312511" lon="5.811024237618871"><ele>276.0</ele><time>2026-04-22T13:53:13Z</time></trkpt><trkpt lat="43.72624292692871" lon="5.81097298162763"><ele>276.0</ele><time>2026-04-22T13:53:14Z</time></trkpt><trkpt lat="43.726172613122166" lon="5.810942746235217"><ele>276.0</ele><time>2026-04-22T13:53:15Z</time></trkpt><trkpt lat="43.72610360192534" lon="5.810931162888535"><ele>276.0</ele><time>2026-04-22T13:53:16Z</time></trkpt><trkpt lat="43.725983491256684" lon="5.810902225525649"><ele>275.8333333333333</ele><time>2026-04-22T13:53:18Z</time></trkpt><trkpt lat="43.725875925490996" lon="5.810887203750789"><ele>275.6666666666667</ele><time>2026-04-22T13:53:20Z</time></trkpt><trkpt lat="43.72579225873768" lon="5.810870910683552"><ele>275.5</ele><time>2026-04-22T13:53:22Z</time></trkpt><trkpt lat="43.72572291453929" lon="5.810861584364281"><ele>275.33333333333337</ele><time>2026-04-22T13:53:23Z</time></trkpt><trkpt lat="43.72564693326594" lon="5.810851780822283"><ele>275.1666666666667</ele><time>2026-04-22T13:53:24Z</time></trkpt><trkpt lat="43.72557055810538" lon="5.810841272037506"><ele>275.0</ele><time>2026-04-22T13:53:25Z</time></trkpt><trkpt lat="43.72549930421791" lon="5.810830914483996"><ele>275.0</ele><time>2026-04-22T13:53:26Z</time></trkpt><trkpt lat="43.72542627751946" lon="5.810825632128884"><ele>275.0</ele><time>2026-04-22T13:53:27Z</time></trkpt><trkpt lat="43.72534643012909" lon="5.810814981340497"><ele>275.0</ele><time>2026-04-22T13:53:28Z</time></trkpt><trkpt lat="43.725251680675434" lon="5.810800545907517"><ele>275.0</ele><time>2026-04-22T13:53:29Z</time></trkpt><trkpt lat="43.72514458295625" lon="5.810784434280233"><ele>275.0</ele><time>2026-04-22T13:53:30Z</time></trkpt><trkpt lat="43.72502139124547" lon="5.81076466170677"><ele>275.2</ele><time>2026-04-22T13:53:31Z</time></trkpt><trkpt lat="43.72489554758732" lon="5.810752154568917"><ele>275.4</ele><time>2026-04-22T13:53:32Z</time></trkpt><trkpt lat="43.72477846841681" lon="5.810740919062742"><ele>275.6</ele><time>2026-04-22T13:53:33Z</time></trkpt><trkpt lat="43.72467469587125" lon="5.8107277574062985"><ele>275.8</ele><time>2026-04-22T13:53:34Z</time></trkpt><trkpt lat="43.72457855150448" lon="5.810718750381401"><ele>276.0</ele><time>2026-04-22T13:53:35Z</time></trkpt><trkpt lat="43.724496406169045" lon="5.810699754428932"><ele>276.0</ele><time>2026-04-22T13:53:36Z</time></trkpt><trkpt lat="43.72442671430312" lon="5.810689822217194"><ele>276.0</ele><time>2026-04-22T13:53:37Z</time></trkpt><trkpt lat="43.72433016786097" lon="5.810668311806337"><ele>276.0</ele><time>2026-04-22T13:53:39Z</time></trkpt><trkpt lat="43.724249275072836" lon="5.810666049766047"><ele>276.0</ele><time>2026-04-22T13:53:41Z</time></trkpt><trkpt lat="43.72416321262482" lon="5.810642989227855"><ele>276.0</ele><time>2026-04-22T13:53:43Z</time></trkpt><trkpt lat="43.72409697908189" lon="5.810619953522739"><ele>276.0</ele><time>2026-04-22T13:53:44Z</time></trkpt><trkpt lat="43.724013427840525" lon="5.810616015409509"><ele>275.8</ele><time>2026-04-22T13:53:45Z</time></trkpt><trkpt lat="43.723927728188414" lon="5.810604462037955"><ele>275.6</ele><time>2026-04-22T13:53:46Z</time></trkpt><trkpt lat="43.72383551442054" lon="5.8105955147250405"><ele>275.4</ele><time>2026-04-22T13:53:47Z</time></trkpt><trkpt lat="43.72373243260048" lon="5.810581090900245"><ele>275.2</ele><time>2026-04-22T13:53:48Z</time></trkpt><trkpt lat="43.72362792347056" lon="5.810563018193643"><ele>275.0</ele><time>2026-04-22T13:53:49Z</time></trkpt><trkpt lat="43.72351568408973" lon="5.810545865499147"><ele>275.4</ele><time>2026-04-22T13:53:50Z</time></trkpt><trkpt lat="43.723401353042085" lon="5.810532194009035"><ele>275.8</ele><time>2026-04-22T13:53:51Z</time></trkpt><trkpt lat="43.72329366136199" lon="5.810515238309487"><ele>276.2</ele><time>2026-04-22T13:53:52Z</time></trkpt><trkpt lat="43.7231912119415" lon="5.810505863613591"><ele>276.6</ele><time>2026-04-22T13:53:53Z</time></trkpt><trkpt lat="43.72309922520239" lon="5.810497470425408"><ele>277.0</ele><time>2026-04-22T13:53:54Z</time></trkpt><trkpt lat="43.723011736838906" lon="5.810488194357042"><ele>277.0</ele><time>2026-04-22T13:53:55Z</time></trkpt><trkpt lat="43.722923732214504" lon="5.810470246010179"><ele>277.0</ele><time>2026-04-22T13:53:56Z</time></trkpt><trkpt lat="43.72284552146517" lon="5.810439795379423"><ele>277.0</ele><time>2026-04-22T13:53:57Z</time></trkpt><trkpt lat="43.72278006100173" lon="5.810407427964679"><ele>277.0</ele><time>2026-04-22T13:53:58Z</time></trkpt><trkpt lat="43.72265501031879" lon="5.810386635983894"><ele>277.0</ele><time>2026-04-22T13:54:00Z</time></trkpt><trkpt lat="43.722570943654226" lon="5.810394873241254"><ele>276.6</ele><time>2026-04-22T13:54:01Z</time></trkpt><trkpt lat="43.72247622503616" lon="5.810399138411101"><ele>276.2</ele><time>2026-04-22T13:54:02Z</time></trkpt><trkpt lat="43.722379100754225" lon="5.810396138631588"><ele>275.8</ele><time>2026-04-22T13:54:03Z</time></trkpt><trkpt lat="43.72228356158365" lon="5.810391890321184"><ele>275.4</ele><time>2026-04-22T13:54:04Z</time></trkpt><trkpt lat="43.72218923240462" lon="5.810380852437296"><ele>275.0</ele><time>2026-04-22T13:54:05Z</time></trkpt><trkpt lat="43.72209254437117" lon="5.810360527333494"><ele>275.0</ele><time>2026-04-22T13:54:06Z</time></trkpt><trkpt lat="43.72199034940921" lon="5.810339897698018"><ele>275.0</ele><time>2026-04-22T13:54:07Z</time></trkpt><trkpt lat="43.72188257424832" lon="5.810321847692003"><ele>275.0</ele><time>2026-04-22T13:54:08Z</time></trkpt><trkpt lat="43.72176919066733" lon="5.810308006671846"><ele>275.0</ele><time>2026-04-22T13:54:09Z</time></trkpt><trkpt lat="43.72165195721775" lon="5.81029232668593"><ele>275.0</ele><time>2026-04-22T13:54:10Z</time></trkpt><trkpt lat="43.721536431751474" lon="5.810262124774004"><ele>275.5</ele><time>2026-04-22T13:54:11Z</time></trkpt><trkpt lat="43.72142801740934" lon="5.810221414570055"><ele>276.0</ele><time>2026-04-22T13:54:12Z</time></trkpt><trkpt lat="43.721308719275655" lon="5.810175966199801"><ele>276.5</ele><time>2026-04-22T13:54:13Z</time></trkpt><trkpt lat="43.72120053743973" lon="5.810120814116395"><ele>277.0</ele><time>2026-04-22T13:54:14Z</time></trkpt><trkpt lat="43.72108775759767" lon="5.810050960389364"><ele>276.5</ele><time>2026-04-22T13:54:15Z</time></trkpt><trkpt lat="43.720975256870126" lon="5.809972897721246"><ele>276.0</ele><time>2026-04-22T13:54:16Z</time></trkpt><trkpt lat="43.72086601707801" lon="5.809884054120546"><ele>275.5</ele><time>2026-04-22T13:54:17Z</time></trkpt><trkpt lat="43.72076403579188" lon="5.809789917194843"><ele>275.0</ele><time>2026-04-22T13:54:18Z</time></trkpt><trkpt lat="43.72066026852317" lon="5.809688396526585"><ele>275.0</ele><time>2026-04-22T13:54:19Z</time></trkpt><trkpt lat="43.72056310152617" lon="5.809585562670967"><ele>275.0</ele><time>2026-04-22T13:54:20Z</time></trkpt><trkpt lat="43.72046671368219" lon="5.809477395859246"><ele>275.0</ele><time>2026-04-22T13:54:21.001Z</time></trkpt><trkpt lat="43.72037275023951" lon="5.8093714354441754"><ele>275.0</ele><time>2026-04-22T13:54:22.001Z</time></trkpt><trkpt lat="43.720281642744496" lon="5.809271878861766"><ele>276.5</ele><time>2026-04-22T13:54:23.001Z</time></trkpt><trkpt lat="43.720191400323664" lon="5.809168173277336"><ele>278.0</ele><time>2026-04-22T13:54:24.001Z</time></trkpt><trkpt lat="43.72010043997703" lon="5.809064436709119"><ele>279.5</ele><time>2026-04-22T13:54:25.001Z</time></trkpt><trkpt lat="43.7200124271312" lon="5.8089565944323205"><ele>281.0</ele><time>2026-04-22T13:54:26.001Z</time></trkpt><trkpt lat="43.71992555796097" lon="5.808831469885172"><ele>281.0</ele><time>2026-04-22T13:54:27.001Z</time></trkpt><trkpt lat="43.71984708083998" lon="5.808690617691365"><ele>281.0</ele><time>2026-04-22T13:54:28.001Z</time></trkpt><trkpt lat="43.719768131684994" lon="5.808521176027904"><ele>281.0</ele><time>2026-04-22T13:54:29.001Z</time></trkpt><trkpt lat="43.71968703131795" lon="5.808333451752018"><ele>281.0</ele><time>2026-04-22T13:54:30.001Z</time></trkpt><trkpt lat="43.71960537768396" lon="5.808106348560338"><ele>282.0</ele><time>2026-04-22T13:54:31.001Z</time></trkpt><trkpt lat="43.719520079236425" lon="5.807842484325785"><ele>283.0</ele><time>2026-04-22T13:54:32.001Z</time></trkpt><trkpt lat="43.719458955217725" lon="5.807573348945157"><ele>284.0</ele><time>2026-04-22T13:54:33.001Z</time></trkpt><trkpt lat="43.71936530287339" lon="5.807262025171522"><ele>284.0</ele><time>2026-04-22T13:54:34.001Z</time></trkpt><trkpt lat="43.719264383981404" lon="5.806948089758772"><ele>284.0</ele><time>2026-04-22T13:54:35.001Z</time></trkpt><trkpt lat="43.71916450533233" lon="5.806627608112391"><ele>281.0</ele><time>2026-04-22T13:54:36.001Z</time></trkpt><trkpt lat="43.719066144192794" lon="5.806315589179014"><ele>278.0</ele><time>2026-04-22T13:54:37.001Z</time></trkpt><trkpt lat="43.71897783808169" lon="5.806003003380997"><ele>275.0</ele><time>2026-04-22T13:54:38.001Z</time></trkpt><trkpt lat="43.718897565866925" lon="5.805673886304676"><ele>272.0</ele><time>2026-04-22T13:54:39Z</time></trkpt><trkpt lat="43.71882028857047" lon="5.805354205670757"><ele>271.0</ele><time>2026-04-22T13:54:40Z</time></trkpt><trkpt lat="43.718746790623314" lon="5.8050467404780655"><ele>270.0</ele><time>2026-04-22T13:54:41Z</time></trkpt><trkpt lat="43.718682985634665" lon="5.804747948790182"><ele>270.0</ele><time>2026-04-22T13:54:42Z</time></trkpt><trkpt lat="43.71862699122561" lon="5.8044452195805"><ele>270.0</ele><time>2026-04-22T13:54:43Z</time></trkpt><trkpt lat="43.718581216209586" lon="5.804151273621572"><ele>270.0</ele><time>2026-04-22T13:54:44Z</time></trkpt><trkpt lat="43.718563685709654" lon="5.803880313530682"><ele>269.6666666666667</ele><time>2026-04-22T13:54:45Z</time></trkpt><trkpt lat="43.71855282955913" lon="5.803574998637245"><ele>269.33333333333337</ele><time>2026-04-22T13:54:46Z</time></trkpt><trkpt lat="43.718563005764715" lon="5.803274030034497"><ele>269.0</ele><time>2026-04-22T13:54:47Z</time></trkpt><trkpt lat="43.71858094868175" lon="5.802980190795179"><ele>269.0</ele><time>2026-04-22T13:54:48Z</time></trkpt><trkpt lat="43.71860935902592" lon="5.802686493431399"><ele>269.0</ele><time>2026-04-22T13:54:49Z</time></trkpt><trkpt lat="43.71863604270612" lon="5.8023815437542385"><ele>269.0</ele><time>2026-04-22T13:54:50Z</time></trkpt><trkpt lat="43.718653745006165" lon="5.802066726335524"><ele>268.33333333333337</ele><time>2026-04-22T13:54:51Z</time></trkpt><trkpt lat="43.71865430523173" lon="5.801760194604734"><ele>267.6666666666667</ele><time>2026-04-22T13:54:52Z</time></trkpt><trkpt lat="43.71864556459634" lon="5.8014572504650275"><ele>267.0</ele><time>2026-04-22T13:54:53Z</time></trkpt><trkpt lat="43.71862014297928" lon="5.801149168531236"><ele>267.5</ele><time>2026-04-22T13:54:54Z</time></trkpt><trkpt lat="43.71858525442232" lon="5.800832815745673"><ele>268.0</ele><time>2026-04-22T13:54:55Z</time></trkpt><trkpt lat="43.71853202320707" lon="5.800503167573171"><ele>271.5</ele><time>2026-04-22T13:54:56Z</time></trkpt><trkpt lat="43.71847863153956" lon="5.800165428631272"><ele>275.0</ele><time>2026-04-22T13:54:57Z</time></trkpt><trkpt lat="43.71842814638371" lon="5.799813816353503"><ele>275.0</ele><time>2026-04-22T13:54:58Z</time></trkpt><trkpt lat="43.71838014545625" lon="5.799451287439987"><ele>275.0</ele><time>2026-04-22T13:54:59Z</time></trkpt><trkpt lat="43.718330312082024" lon="5.799083020233494"><ele>275.0</ele><time>2026-04-22T13:55:00Z</time></trkpt><trkpt lat="43.71828428506444" lon="5.7987236434161336"><ele>275.0</ele><time>2026-04-22T13:55:01Z</time></trkpt><trkpt lat="43.71823690739396" lon="5.798361954945813"><ele>274.0</ele><time>2026-04-22T13:55:02Z</time></trkpt><trkpt lat="43.71819020975267" lon="5.797999787985221"><ele>273.0</ele><time>2026-04-22T13:55:03Z</time></trkpt><trkpt lat="43.718142258406125" lon="5.797641596180325"><ele>271.5</ele><time>2026-04-22T13:55:04Z</time></trkpt><trkpt lat="43.71809462153823" lon="5.797283802778778"><ele>270.0</ele><time>2026-04-22T13:55:05Z</time></trkpt><trkpt lat="43.718043714220485" lon="5.796927000056303"><ele>268.0</ele><time>2026-04-22T13:55:06Z</time></trkpt><trkpt lat="43.71800203667946" lon="5.796559805028529"><ele>266.0</ele><time>2026-04-22T13:55:07Z</time></trkpt><trkpt lat="43.71795637470684" lon="5.796207397487159"><ele>266.0</ele><time>2026-04-22T13:55:08Z</time></trkpt><trkpt lat="43.71792076030022" lon="5.795882596991017"><ele>266.0</ele><time>2026-04-22T13:55:09Z</time></trkpt><trkpt lat="43.71789131837479" lon="5.795587072661972"><ele>266.0</ele><time>2026-04-22T13:55:10Z</time></trkpt><trkpt lat="43.717860249886066" lon="5.795319849471957"><ele>266.0</ele><time>2026-04-22T13:55:11Z</time></trkpt><trkpt lat="43.71782885750387" lon="5.7950435961466065"><ele>266.0</ele><time>2026-04-22T13:55:12Z</time></trkpt><trkpt lat="43.71778564745993" lon="5.794762070598422"><ele>269.33333333333337</ele><time>2026-04-22T13:55:13Z</time></trkpt><trkpt lat="43.71772560470424" lon="5.794480506952122"><ele>272.6666666666667</ele><time>2026-04-22T13:55:14Z</time></trkpt><trkpt lat="43.71766096377664" lon="5.794180942382519"><ele>276.0</ele><time>2026-04-22T13:55:15Z</time></trkpt><trkpt lat="43.71755788160066" lon="5.79385306883982"><ele>276.0</ele><time>2026-04-22T13:55:16Z</time></trkpt><trkpt lat="43.71747499926348" lon="5.793516323116719"><ele>276.0</ele><time>2026-04-22T13:55:17Z</time></trkpt><trkpt lat="43.717401701267626" lon="5.793180422838462"><ele>273.0</ele><time>2026-04-22T13:55:18Z</time></trkpt><trkpt lat="43.717333017534465" lon="5.792848739441084"><ele>270.0</ele><time>2026-04-22T13:55:19Z</time></trkpt><trkpt lat="43.71726995328437" lon="5.792534576078493"><ele>267.0</ele><time>2026-04-22T13:55:20Z</time></trkpt><trkpt lat="43.717213359421926" lon="5.792234668185417"><ele>264.0</ele><time>2026-04-22T13:55:21Z</time></trkpt><trkpt lat="43.71716560263308" lon="5.791928441638155"><ele>263.5</ele><time>2026-04-22T13:55:22Z</time></trkpt><trkpt lat="43.71713223920924" lon="5.791609561931672"><ele>263.0</ele><time>2026-04-22T13:55:23Z</time></trkpt><trkpt lat="43.717121508559046" lon="5.791290599813046"><ele>263.5</ele><time>2026-04-22T13:55:24Z</time></trkpt><trkpt lat="43.71711571963054" lon="5.7909640958399855"><ele>264.0</ele><time>2026-04-22T13:55:25Z</time></trkpt><trkpt lat="43.71710440386441" lon="5.790630992753482"><ele>264.0</ele><time>2026-04-22T13:55:26Z</time></trkpt><trkpt lat="43.717091303056876" lon="5.790308309463127"><ele>264.0</ele><time>2026-04-22T13:55:27Z</time></trkpt><trkpt lat="43.71708182829783" lon="5.790007474040894"><ele>264.0</ele><time>2026-04-22T13:55:28Z</time></trkpt><trkpt lat="43.71705978651872" lon="5.789726312862953"><ele>264.0</ele><time>2026-04-22T13:55:29Z</time></trkpt><trkpt lat="43.7170319564783" lon="5.789467164987132"><ele>264.0</ele><time>2026-04-22T13:55:30Z</time></trkpt><trkpt lat="43.71700286028268" lon="5.789219703293604"><ele>263.6666666666667</ele><time>2026-04-22T13:55:31Z</time></trkpt><trkpt lat="43.716965631649316" lon="5.788972858365048"><ele>263.33333333333337</ele><time>2026-04-22T13:55:32Z</time></trkpt><trkpt lat="43.71692766422135" lon="5.788744189742164"><ele>263.0</ele><time>2026-04-22T13:55:33Z</time></trkpt><trkpt lat="43.716894450585535" lon="5.788536702725107"><ele>265.25</ele><time>2026-04-22T13:55:34Z</time></trkpt><trkpt lat="43.71685695197376" lon="5.788353785545754"><ele>267.5</ele><time>2026-04-22T13:55:35Z</time></trkpt><trkpt lat="43.716805720990116" lon="5.788187609754016"><ele>269.75</ele><time>2026-04-22T13:55:36Z</time></trkpt><trkpt lat="43.716718731692666" lon="5.788051172483162"><ele>272.0</ele><time>2026-04-22T13:55:37Z</time></trkpt><trkpt lat="43.71659761335016" lon="5.7879326448151405"><ele>272.0</ele><time>2026-04-22T13:55:38Z</time></trkpt><trkpt lat="43.71645162632821" lon="5.787819202165056"><ele>272.0</ele><time>2026-04-22T13:55:39Z</time></trkpt><trkpt lat="43.71631743370638" lon="5.787687980474908"><ele>272.0</ele><time>2026-04-22T13:55:40Z</time></trkpt><trkpt lat="43.716206922466675" lon="5.787527826102208"><ele>272.0</ele><time>2026-04-22T13:55:41Z</time></trkpt><trkpt lat="43.716122826066126" lon="5.787349725600945"><ele>272.0</ele><time>2026-04-22T13:55:42Z</time></trkpt><trkpt lat="43.716051817089294" lon="5.787152641435056"><ele>272.0</ele><time>2026-04-22T13:55:43Z</time></trkpt><trkpt lat="43.7160038337618" lon="5.786938565227101"><ele>273.33333333333337</ele><time>2026-04-22T13:55:44Z</time></trkpt><trkpt lat="43.71599340633574" lon="5.786687281367703"><ele>274.6666666666667</ele><time>2026-04-22T13:55:45Z</time></trkpt><trkpt lat="43.715989446445214" lon="5.786424349400982"><ele>276.0</ele><time>2026-04-22T13:55:46Z</time></trkpt><trkpt lat="43.715986708334064" lon="5.786133978750101"><ele>276.3333333333333</ele><time>2026-04-22T13:55:47Z</time></trkpt><trkpt lat="43.71597637770141" lon="5.785836617887293"><ele>276.66666666666663</ele><time>2026-04-22T13:55:48Z</time></trkpt><trkpt lat="43.71595912545922" lon="5.78552271873579"><ele>277.0</ele><time>2026-04-22T13:55:49Z</time></trkpt><trkpt lat="43.71594089248606" lon="5.785202013324152"><ele>278.0</ele><time>2026-04-22T13:55:50Z</time></trkpt><trkpt lat="43.71590586851815" lon="5.784877685033136"><ele>279.0</ele><time>2026-04-22T13:55:51Z</time></trkpt><trkpt lat="43.71585666199853" lon="5.784556040432625"><ele>279.0</ele><time>2026-04-22T13:55:52Z</time></trkpt><trkpt lat="43.71580914671477" lon="5.784218461532749"><ele>279.0</ele><time>2026-04-22T13:55:53Z</time></trkpt><trkpt lat="43.71577974077779" lon="5.783893631118666"><ele>279.0</ele><time>2026-04-22T13:55:54Z</time></trkpt><trkpt lat="43.71574550720886" lon="5.783581421530303"><ele>279.0</ele><time>2026-04-22T13:55:55Z</time></trkpt><trkpt lat="43.71571891295987" lon="5.783260339546575"><ele>278.0</ele><time>2026-04-22T13:55:56Z</time></trkpt><trkpt lat="43.71568244139125" lon="5.782943599527591"><ele>277.0</ele><time>2026-04-22T13:55:57Z</time></trkpt><trkpt lat="43.715643695551975" lon="5.782638474490497"><ele>276.3333333333333</ele><time>2026-04-22T13:55:58Z</time></trkpt><trkpt lat="43.71561163139744" lon="5.78234883163718"><ele>275.6666666666667</ele><time>2026-04-22T13:55:59Z</time></trkpt><trkpt lat="43.71557869449184" lon="5.782071081348517"><ele>275.0</ele><time>2026-04-22T13:56:00Z</time></trkpt><trkpt lat="43.715548524600095" lon="5.781797216791838"><ele>274.6666666666667</ele><time>2026-04-22T13:56:01Z</time></trkpt><trkpt lat="43.715517711809504" lon="5.781535668904455"><ele>274.3333333333333</ele><time>2026-04-22T13:56:02Z</time></trkpt><trkpt lat="43.715488627564206" lon="5.781277556069271"><ele>274.0</ele><time>2026-04-22T13:56:03Z</time></trkpt><trkpt lat="43.71545850405537" lon="5.781026051473089"><ele>274.3333333333333</ele><time>2026-04-22T13:56:04Z</time></trkpt><trkpt lat="43.71542929075552" lon="5.780781518211491"><ele>274.6666666666667</ele><time>2026-04-22T13:56:05Z</time></trkpt><trkpt lat="43.71539560199173" lon="5.780541905012692"><ele>275.0</ele><time>2026-04-22T13:56:06Z</time></trkpt><trkpt lat="43.715357557587176" lon="5.780311843361253"><ele>275.33333333333337</ele><time>2026-04-22T13:56:07Z</time></trkpt><trkpt lat="43.71530045859768" lon="5.780091491943291"><ele>275.6666666666667</ele><time>2026-04-22T13:56:08Z</time></trkpt><trkpt lat="43.71522850762843" lon="5.7798846133309585"><ele>276.0</ele><time>2026-04-22T13:56:09Z</time></trkpt><trkpt lat="43.71515246164682" lon="5.779684956173394"><ele>278.0</ele><time>2026-04-22T13:56:10Z</time></trkpt><trkpt lat="43.71506714800822" lon="5.779506160428516"><ele>280.0</ele><time>2026-04-22T13:56:11Z</time></trkpt><trkpt lat="43.71496439231059" lon="5.779346548183028"><ele>282.0</ele><time>2026-04-22T13:56:12Z</time></trkpt><trkpt lat="43.71483646946412" lon="5.779212162985722"><ele>282.0</ele><time>2026-04-22T13:56:13Z</time></trkpt><trkpt lat="43.71469333165884" lon="5.779109687949959"><ele>282.0</ele><time>2026-04-22T13:56:14Z</time></trkpt><trkpt lat="43.714546398322426" lon="5.779034739933863"><ele>282.0</ele><time>2026-04-22T13:56:15Z</time></trkpt><trkpt lat="43.71440740636657" lon="5.778948320411312"><ele>283.6666666666667</ele><time>2026-04-22T13:56:16Z</time></trkpt><trkpt lat="43.71427822572537" lon="5.778822279299627"><ele>285.33333333333337</ele><time>2026-04-22T13:56:17Z</time></trkpt><trkpt lat="43.714162733009175" lon="5.7786499566724565"><ele>287.0</ele><time>2026-04-22T13:56:18Z</time></trkpt><trkpt lat="43.714070886392726" lon="5.7784445776262645"><ele>287.33333333333337</ele><time>2026-04-22T13:56:19.001Z</time></trkpt><trkpt lat="43.7139889924888" lon="5.778232930713914"><ele>287.6666666666667</ele><time>2026-04-22T13:56:20.001Z</time></trkpt><trkpt lat="43.71392440521705" lon="5.777995669105016"><ele>288.0</ele><time>2026-04-22T13:56:21.001Z</time></trkpt><trkpt lat="43.71385526100069" lon="5.777766028554748"><ele>290.0</ele><time>2026-04-22T13:56:22.001Z</time></trkpt><trkpt lat="43.71377440498214" lon="5.777534361630218"><ele>292.0</ele><time>2026-04-22T13:56:23.001Z</time></trkpt><trkpt lat="43.71371264773314" lon="5.777298418951117"><ele>294.0</ele><time>2026-04-22T13:56:24.001Z</time></trkpt><trkpt lat="43.71363798706548" lon="5.7770760616394785"><ele>294.3333333333333</ele><time>2026-04-22T13:56:25.001Z</time></trkpt><trkpt lat="43.713558843662106" lon="5.77685196604388"><ele>294.66666666666663</ele><time>2026-04-22T13:56:26.001Z</time></trkpt><trkpt lat="43.71347484130477" lon="5.776649035817371"><ele>295.0</ele><time>2026-04-22T13:56:27.001Z</time></trkpt><trkpt lat="43.71338753793407" lon="5.776437831245621"><ele>295.0</ele><time>2026-04-22T13:56:28.001Z</time></trkpt><trkpt lat="43.713294852270806" lon="5.776229658361547"><ele>295.0</ele><time>2026-04-22T13:56:29.001Z</time></trkpt><trkpt lat="43.713200291829885" lon="5.776036317746228"><ele>295.0</ele><time>2026-04-22T13:56:30.001Z</time></trkpt><trkpt lat="43.7130951308982" lon="5.775829113073595"><ele>295.0</ele><time>2026-04-22T13:56:31.001Z</time></trkpt><trkpt lat="43.712987861946665" lon="5.775601679528056"><ele>295.0</ele><time>2026-04-22T13:56:32.001Z</time></trkpt><trkpt lat="43.712894249083064" lon="5.775394338738874"><ele>295.0</ele><time>2026-04-22T13:56:33.001Z</time></trkpt><trkpt lat="43.71280911600835" lon="5.775209173972987"><ele>295.25</ele><time>2026-04-22T13:56:34.001Z</time></trkpt><trkpt lat="43.71272501925342" lon="5.775049635370784"><ele>295.5</ele><time>2026-04-22T13:56:35.001Z</time></trkpt><trkpt lat="43.71264429963525" lon="5.774904413157628"><ele>295.75</ele><time>2026-04-22T13:56:36.001Z</time></trkpt><trkpt lat="43.71258637708032" lon="5.774758275730131"><ele>296.0</ele><time>2026-04-22T13:56:37.001Z</time></trkpt><trkpt lat="43.712557047622504" lon="5.774599394916336"><ele>296.0</ele><time>2026-04-22T13:56:38.001Z</time></trkpt><trkpt lat="43.7125342346089" lon="5.774433653732217"><ele>296.0</ele><time>2026-04-22T13:56:39.001Z</time></trkpt><trkpt lat="43.712479278082434" lon="5.774293095582676"><ele>296.0</ele><time>2026-04-22T13:56:40.001Z</time></trkpt><trkpt lat="43.71238662083652" lon="5.774185909118523"><ele>296.0</ele><time>2026-04-22T13:56:41.001Z</time></trkpt><trkpt lat="43.71229042083241" lon="5.774073205598924"><ele>295.5</ele><time>2026-04-22T13:56:42.001Z</time></trkpt><trkpt lat="43.71222279962629" lon="5.773915436356995"><ele>295.0</ele><time>2026-04-22T13:56:43.001Z</time></trkpt><trkpt lat="43.712175214036556" lon="5.773726144259549"><ele>294.5</ele><time>2026-04-22T13:56:44.001Z</time></trkpt><trkpt lat="43.71212537973199" lon="5.77352684908729"><ele>294.0</ele><time>2026-04-22T13:56:45Z</time></trkpt><trkpt lat="43.71205115940632" lon="5.7733179015764176"><ele>295.0</ele><time>2026-04-22T13:56:46Z</time></trkpt><trkpt lat="43.7119533924426" lon="5.773099118244318"><ele>296.0</ele><time>2026-04-22T13:56:47Z</time></trkpt><trkpt lat="43.711839770434814" lon="5.772869271917258"><ele>297.0</ele><time>2026-04-22T13:56:48Z</time></trkpt><trkpt lat="43.71172416545808" lon="5.772623481937625"><ele>297.0</ele><time>2026-04-22T13:56:49Z</time></trkpt><trkpt lat="43.71160354618139" lon="5.7723563410813385"><ele>297.0</ele><time>2026-04-22T13:56:50Z</time></trkpt><trkpt lat="43.711487398781216" lon="5.7720752639346316"><ele>297.0</ele><time>2026-04-22T13:56:51Z</time></trkpt><trkpt lat="43.71136288571399" lon="5.7717764858272815"><ele>297.0</ele><time>2026-04-22T13:56:52Z</time></trkpt><trkpt lat="43.711233144310114" lon="5.771466587556315"><ele>297.0</ele><time>2026-04-22T13:56:53Z</time></trkpt><trkpt lat="43.711103800543654" lon="5.771159240405499"><ele>297.0</ele><time>2026-04-22T13:56:54Z</time></trkpt><trkpt lat="43.7109743712814" lon="5.77085749972996"><ele>297.5</ele><time>2026-04-22T13:56:55Z</time></trkpt><trkpt lat="43.710841578572705" lon="5.770549639535566"><ele>298.0</ele><time>2026-04-22T13:56:56Z</time></trkpt><trkpt lat="43.71070929356797" lon="5.770247498442289"><ele>297.5</ele><time>2026-04-22T13:56:57Z</time></trkpt><trkpt lat="43.71057740004272" lon="5.7699526948119955"><ele>297.0</ele><time>2026-04-22T13:56:58Z</time></trkpt><trkpt lat="43.71043954069488" lon="5.769676060267964"><ele>297.0</ele><time>2026-04-22T13:56:59Z</time></trkpt><trkpt lat="43.71029319674213" lon="5.769429742769947"><ele>297.0</ele><time>2026-04-22T13:57:00Z</time></trkpt><trkpt lat="43.7101412380543" lon="5.76919311106954"><ele>297.0</ele><time>2026-04-22T13:57:01Z</time></trkpt><trkpt lat="43.70999531859871" lon="5.7689461150838275"><ele>297.0</ele><time>2026-04-22T13:57:02Z</time></trkpt><trkpt lat="43.709858657173335" lon="5.768675906108415"><ele>297.0</ele><time>2026-04-22T13:57:03Z</time></trkpt><trkpt lat="43.709731662701444" lon="5.768396380492823"><ele>297.0</ele><time>2026-04-22T13:57:04Z</time></trkpt><trkpt lat="43.70960500787478" lon="5.768114610047191"><ele>297.0</ele><time>2026-04-22T13:57:05Z</time></trkpt><trkpt lat="43.7094780477344" lon="5.767835865168886"><ele>297.0</ele><time>2026-04-22T13:57:06Z</time></trkpt><trkpt lat="43.70935560461823" lon="5.767563927424895"><ele>296.6666666666667</ele><time>2026-04-22T13:57:07Z</time></trkpt><trkpt lat="43.70924147682753" lon="5.767307720478223"><ele>296.33333333333337</ele><time>2026-04-22T13:57:08Z</time></trkpt><trkpt lat="43.709146171278405" lon="5.767081621526531"><ele>296.0</ele><time>2026-04-22T13:57:09Z</time></trkpt><trkpt lat="43.70907004085164" lon="5.766869909094121"><ele>296.0</ele><time>2026-04-22T13:57:10Z</time></trkpt><trkpt lat="43.7090209170514" lon="5.766672719087264"><ele>296.0</ele><time>2026-04-22T13:57:11Z</time></trkpt><trkpt lat="43.709009762809494" lon="5.766488905503081"><ele>296.0</ele><time>2026-04-22T13:57:12Z</time></trkpt><trkpt lat="43.709044957020474" lon="5.766315098100892"><ele>296.0</ele><time>2026-04-22T13:57:13Z</time></trkpt><trkpt lat="43.709090825314604" lon="5.766131481532919"><ele>295.33333333333337</ele><time>2026-04-22T13:57:14Z</time></trkpt><trkpt lat="43.70914244568704" lon="5.765932193674274"><ele>294.6666666666667</ele><time>2026-04-22T13:57:15Z</time></trkpt><trkpt lat="43.709167254887525" lon="5.765706786105321"><ele>294.0</ele><time>2026-04-22T13:57:16Z</time></trkpt><trkpt lat="43.7091660617429" lon="5.765458277519101"><ele>294.0</ele><time>2026-04-22T13:57:17Z</time></trkpt><trkpt lat="43.70914462478545" lon="5.7652025388859816"><ele>294.0</ele><time>2026-04-22T13:57:18Z</time></trkpt><trkpt lat="43.70909488277443" lon="5.764943924408076"><ele>294.0</ele><time>2026-04-22T13:57:19Z</time></trkpt><trkpt lat="43.70901874595334" lon="5.764675095715044"><ele>293.0</ele><time>2026-04-22T13:57:20Z</time></trkpt><trkpt lat="43.70892609895027" lon="5.764401687565435"><ele>292.0</ele><time>2026-04-22T13:57:21Z</time></trkpt><trkpt lat="43.708825379271154" lon="5.764117852532571"><ele>291.0</ele><time>2026-04-22T13:57:22Z</time></trkpt><trkpt lat="43.70873181172994" lon="5.763836642534796"><ele>291.3333333333333</ele><time>2026-04-22T13:57:23Z</time></trkpt><trkpt lat="43.70864117505146" lon="5.763555694762336"><ele>291.66666666666663</ele><time>2026-04-22T13:57:24Z</time></trkpt><trkpt lat="43.70855105371665" lon="5.763269410356175"><ele>292.0</ele><time>2026-04-22T13:57:25Z</time></trkpt><trkpt lat="43.70845201395686" lon="5.7629697338538906"><ele>291.5</ele><time>2026-04-22T13:57:26Z</time></trkpt><trkpt lat="43.70834177714359" lon="5.762656924610335"><ele>291.0</ele><time>2026-04-22T13:57:27Z</time></trkpt><trkpt lat="43.70822659421535" lon="5.762336959359196"><ele>291.0</ele><time>2026-04-22T13:57:28Z</time></trkpt><trkpt lat="43.70811038554931" lon="5.761999430042846"><ele>291.0</ele><time>2026-04-22T13:57:29Z</time></trkpt><trkpt lat="43.707994748245035" lon="5.7616529678803845"><ele>290.0</ele><time>2026-04-22T13:57:30Z</time></trkpt><trkpt lat="43.70787296554826" lon="5.761294062789032"><ele>289.0</ele><time>2026-04-22T13:57:31Z</time></trkpt><trkpt lat="43.70774908962733" lon="5.760935504879037"><ele>288.5</ele><time>2026-04-22T13:57:32Z</time></trkpt><trkpt lat="43.70762225578094" lon="5.760573334450493"><ele>288.0</ele><time>2026-04-22T13:57:33Z</time></trkpt><trkpt lat="43.70748997799822" lon="5.760205681394814"><ele>287.0</ele><time>2026-04-22T13:57:34Z</time></trkpt><trkpt lat="43.707358025816085" lon="5.759830122773771"><ele>286.0</ele><time>2026-04-22T13:57:35Z</time></trkpt><trkpt lat="43.70722835183222" lon="5.759455692624501"><ele>286.0</ele><time>2026-04-22T13:57:36Z</time></trkpt><trkpt lat="43.70710371865852" lon="5.759088048910649"><ele>286.0</ele><time>2026-04-22T13:57:37Z</time></trkpt><trkpt lat="43.70698643078723" lon="5.758727668151709"><ele>286.5</ele><time>2026-04-22T13:57:38Z</time></trkpt><trkpt lat="43.70687327146569" lon="5.7583713728490595"><ele>287.0</ele><time>2026-04-22T13:57:39Z</time></trkpt><trkpt lat="43.70676056210766" lon="5.75802103048527"><ele>287.5</ele><time>2026-04-22T13:57:40Z</time></trkpt><trkpt lat="43.70664942681709" lon="5.757667016146498"><ele>288.0</ele><time>2026-04-22T13:57:41Z</time></trkpt><trkpt lat="43.70653793721972" lon="5.757319542610582"><ele>288.0</ele><time>2026-04-22T13:57:42Z</time></trkpt><trkpt lat="43.70642600460406" lon="5.756982034612759"><ele>288.0</ele><time>2026-04-22T13:57:43Z</time></trkpt><trkpt lat="43.70631389639918" lon="5.756648615791718"><ele>287.0</ele><time>2026-04-22T13:57:44Z</time></trkpt><trkpt lat="43.70620163298404" lon="5.756314513581296"><ele>286.0</ele><time>2026-04-22T13:57:45Z</time></trkpt><trkpt lat="43.70608007870021" lon="5.756007627406694"><ele>287.5</ele><time>2026-04-22T13:57:46Z</time></trkpt><trkpt lat="43.7059483109883" lon="5.755723873731664"><ele>289.0</ele><time>2026-04-22T13:57:47Z</time></trkpt><trkpt lat="43.70579514165601" lon="5.755457369575685"><ele>289.0</ele><time>2026-04-22T13:57:48Z</time></trkpt><trkpt lat="43.70562768094835" lon="5.755227694054825"><ele>289.0</ele><time>2026-04-22T13:57:49Z</time></trkpt><trkpt lat="43.70547041022794" lon="5.755031989429076"><ele>289.0</ele><time>2026-04-22T13:57:50Z</time></trkpt><trkpt lat="43.705326117684045" lon="5.754844559773532"><ele>288.66666666666663</ele><time>2026-04-22T13:57:51Z</time></trkpt><trkpt lat="43.70519892042749" lon="5.7546698543409365"><ele>288.3333333333333</ele><time>2026-04-22T13:57:52Z</time></trkpt><trkpt lat="43.70509513810576" lon="5.754510592846592"><ele>288.0</ele><time>2026-04-22T13:57:53Z</time></trkpt><trkpt lat="43.70500513401483" lon="5.754361993491734"><ele>287.75</ele><time>2026-04-22T13:57:54Z</time></trkpt><trkpt lat="43.70493356143542" lon="5.754216934877103"><ele>287.5</ele><time>2026-04-22T13:57:55Z</time></trkpt><trkpt lat="43.70487243369147" lon="5.754075637638708"><ele>287.25</ele><time>2026-04-22T13:57:56Z</time></trkpt><trkpt lat="43.704831122823336" lon="5.753940074697729"><ele>287.0</ele><time>2026-04-22T13:57:57Z</time></trkpt><trkpt lat="43.70482438864878" lon="5.753787155241554"><ele>287.0</ele><time>2026-04-22T13:57:58Z</time></trkpt><trkpt lat="43.7048080501595" lon="5.753624656773069"><ele>287.0</ele><time>2026-04-22T13:57:59Z</time></trkpt><trkpt lat="43.704762616304116" lon="5.753490068950626"><ele>287.0</ele><time>2026-04-22T13:58:00Z</time></trkpt><trkpt lat="43.70467674076286" lon="5.753388020697467"><ele>287.0</ele><time>2026-04-22T13:58:01Z</time></trkpt><trkpt lat="43.70456692933355" lon="5.753312591358066"><ele>287.25</ele><time>2026-04-22T13:58:02Z</time></trkpt><trkpt lat="43.70446450735829" lon="5.753206441235918"><ele>287.5</ele><time>2026-04-22T13:58:03Z</time></trkpt><trkpt lat="43.7043784510901" lon="5.753047254950101"><ele>287.75</ele><time>2026-04-22T13:58:04Z</time></trkpt><trkpt lat="43.70430366003151" lon="5.752849980089986"><ele>288.0</ele><time>2026-04-22T13:58:05Z</time></trkpt><trkpt lat="43.70422621496358" lon="5.752635229431887"><ele>288.0</ele><time>2026-04-22T13:58:06Z</time></trkpt><trkpt lat="43.70413754389133" lon="5.752403636924597"><ele>288.0</ele><time>2026-04-22T13:58:07Z</time></trkpt><trkpt lat="43.70404370883235" lon="5.75215283955105"><ele>288.0</ele><time>2026-04-22T13:58:08Z</time></trkpt><trkpt lat="43.70393650626252" lon="5.7518875690065645"><ele>286.0</ele><time>2026-04-22T13:58:09Z</time></trkpt><trkpt lat="43.703815254234264" lon="5.751606269558094"><ele>284.0</ele><time>2026-04-22T13:58:10Z</time></trkpt><trkpt lat="43.70368513733031" lon="5.751325658554709"><ele>285.5</ele><time>2026-04-22T13:58:11Z</time></trkpt><trkpt lat="43.70354002364438" lon="5.7510490973413395"><ele>287.0</ele><time>2026-04-22T13:58:12Z</time></trkpt><trkpt lat="43.703382731278964" lon="5.750775553639806"><ele>287.0</ele><time>2026-04-22T13:58:13Z</time></trkpt><trkpt lat="43.703218219898204" lon="5.750497775166973"><ele>287.0</ele><time>2026-04-22T13:58:14Z</time></trkpt><trkpt lat="43.70304896489188" lon="5.7502222616870275"><ele>285.0</ele><time>2026-04-22T13:58:15Z</time></trkpt><trkpt lat="43.702878869763865" lon="5.749959264949849"><ele>283.0</ele><time>2026-04-22T13:58:16Z</time></trkpt><trkpt lat="43.702709034641344" lon="5.749712614317794"><ele>283.0</ele><time>2026-04-22T13:58:17Z</time></trkpt><trkpt lat="43.70253047059526" lon="5.749478074097091"><ele>283.0</ele><time>2026-04-22T13:58:18Z</time></trkpt><trkpt lat="43.70235928372982" lon="5.74926845204248"><ele>282.3333333333333</ele><time>2026-04-22T13:58:19Z</time></trkpt><trkpt lat="43.70218950016844" lon="5.749065588825478"><ele>281.6666666666667</ele><time>2026-04-22T13:58:20Z</time></trkpt><trkpt lat="43.70204398265913" lon="5.7488710378041015"><ele>281.0</ele><time>2026-04-22T13:58:21Z</time></trkpt><trkpt lat="43.70190699531964" lon="5.7486970059346465"><ele>280.33333333333337</ele><time>2026-04-22T13:58:22Z</time></trkpt><trkpt lat="43.70178629109169" lon="5.748529726274217"><ele>279.6666666666667</ele><time>2026-04-22T13:58:23Z</time></trkpt><trkpt lat="43.701689874873985" lon="5.748352984579972"><ele>279.0</ele><time>2026-04-22T13:58:24Z</time></trkpt><trkpt lat="43.7016223225891" lon="5.7481546569158946"><ele>279.0</ele><time>2026-04-22T13:58:25Z</time></trkpt><trkpt lat="43.701594506536054" lon="5.747941386842145"><ele>279.0</ele><time>2026-04-22T13:58:26Z</time></trkpt><trkpt lat="43.701595067683535" lon="5.7477116242757305"><ele>279.0</ele><time>2026-04-22T13:58:27Z</time></trkpt><trkpt lat="43.70160351925699" lon="5.7474523389630034"><ele>278.3333333333333</ele><time>2026-04-22T13:58:28Z</time></trkpt><trkpt lat="43.701607837427005" lon="5.747185288729111"><ele>277.66666666666663</ele><time>2026-04-22T13:58:29Z</time></trkpt><trkpt lat="43.70159644354224" lon="5.746911909502059"><ele>277.0</ele><time>2026-04-22T13:58:30Z</time></trkpt><trkpt lat="43.70155149751176" lon="5.746640099559891"><ele>277.0</ele><time>2026-04-22T13:58:31Z</time></trkpt><trkpt lat="43.70148006675743" lon="5.746363474034648"><ele>277.0</ele><time>2026-04-22T13:58:32Z</time></trkpt><trkpt lat="43.70139866385337" lon="5.746073048489782"><ele>277.0</ele><time>2026-04-22T13:58:33Z</time></trkpt><trkpt lat="43.701302479478876" lon="5.745766216496315"><ele>277.0</ele><time>2026-04-22T13:58:34Z</time></trkpt><trkpt lat="43.70121470264693" lon="5.745436802690548"><ele>277.0</ele><time>2026-04-22T13:58:35Z</time></trkpt><trkpt lat="43.70113555283353" lon="5.745101278033211"><ele>276.0</ele><time>2026-04-22T13:58:36Z</time></trkpt><trkpt lat="43.701070426830064" lon="5.74475490018068"><ele>275.0</ele><time>2026-04-22T13:58:37Z</time></trkpt><trkpt lat="43.7010161740047" lon="5.74439878217728"><ele>274.0</ele><time>2026-04-22T13:58:38Z</time></trkpt><trkpt lat="43.70097436620034" lon="5.7440327244158"><ele>273.0</ele><time>2026-04-22T13:58:39Z</time></trkpt><trkpt lat="43.70092640131512" lon="5.743666661168767"><ele>272.5</ele><time>2026-04-22T13:58:40Z</time></trkpt><trkpt lat="43.70088331051707" lon="5.7433040595571665"><ele>272.0</ele><time>2026-04-22T13:58:41Z</time></trkpt><trkpt lat="43.70083891994356" lon="5.742931782431679"><ele>271.5</ele><time>2026-04-22T13:58:42.001Z</time></trkpt><trkpt lat="43.70079379012085" lon="5.7425636586772155"><ele>271.0</ele><time>2026-04-22T13:58:43.001Z</time></trkpt><trkpt lat="43.70074770922765" lon="5.742214320872775"><ele>268.5</ele><time>2026-04-22T13:58:44.001Z</time></trkpt><trkpt lat="43.700700595930336" lon="5.7418766434091175"><ele>266.0</ele><time>2026-04-22T13:58:45.001Z</time></trkpt><trkpt lat="43.70065208049421" lon="5.741542577748998"><ele>266.0</ele><time>2026-04-22T13:58:46.001Z</time></trkpt><trkpt lat="43.700593880341245" lon="5.741227384620249"><ele>266.0</ele><time>2026-04-22T13:58:47.001Z</time></trkpt><trkpt lat="43.700549857711636" lon="5.7409361449189875"><ele>265.6666666666667</ele><time>2026-04-22T13:58:48.001Z</time></trkpt><trkpt lat="43.70050384526242" lon="5.740660047993466"><ele>265.3333333333333</ele><time>2026-04-22T13:58:49.001Z</time></trkpt><trkpt lat="43.700452690881676" lon="5.740406260636587"><ele>265.0</ele><time>2026-04-22T13:58:50.001Z</time></trkpt><trkpt lat="43.70040749092182" lon="5.740185110662626"><ele>263.5</ele><time>2026-04-22T13:58:51Z</time></trkpt><trkpt lat="43.700349570895746" lon="5.739990150009893"><ele>262.0</ele><time>2026-04-22T13:58:52Z</time></trkpt><trkpt lat="43.70029498943269" lon="5.73982028241222"><ele>260.5</ele><time>2026-04-22T13:58:53Z</time></trkpt><trkpt lat="43.70024966752666" lon="5.739666633186066"><ele>259.0</ele><time>2026-04-22T13:58:54Z</time></trkpt><trkpt lat="43.70021260946822" lon="5.73950065537312"><ele>258.0</ele><time>2026-04-22T13:58:55Z</time></trkpt><trkpt lat="43.70018031931404" lon="5.73931926513411"><ele>257.0</ele><time>2026-04-22T13:58:56Z</time></trkpt><trkpt lat="43.7001309349673" lon="5.739152290483266"><ele>256.0</ele><time>2026-04-22T13:58:57Z</time></trkpt><trkpt lat="43.70005793163237" lon="5.739028159660516"><ele>255.0</ele><time>2026-04-22T13:58:58Z</time></trkpt><trkpt lat="43.69998118027675" lon="5.738909664824585"><ele>255.0</ele><time>2026-04-22T13:58:59Z</time></trkpt><trkpt lat="43.69992614927228" lon="5.7387619190940065"><ele>255.0</ele><time>2026-04-22T13:59:00Z</time></trkpt><trkpt lat="43.699898332667495" lon="5.738571379077229"><ele>255.0</ele><time>2026-04-22T13:59:01Z</time></trkpt><trkpt lat="43.69988420836139" lon="5.738356289522003"><ele>255.0</ele><time>2026-04-22T13:59:02Z</time></trkpt><trkpt lat="43.69985980015367" lon="5.738125271656522"><ele>255.0</ele><time>2026-04-22T13:59:03Z</time></trkpt><trkpt lat="43.69981981149551" lon="5.737868758855846"><ele>255.0</ele><time>2026-04-22T13:59:04Z</time></trkpt><trkpt lat="43.69976001199683" lon="5.737593865755753"><ele>255.0</ele><time>2026-04-22T13:59:05Z</time></trkpt><trkpt lat="43.69968863794713" lon="5.737307071173187"><ele>255.5</ele><time>2026-04-22T13:59:06Z</time></trkpt><trkpt lat="43.69961546519553" lon="5.737007181633162"><ele>256.0</ele><time>2026-04-22T13:59:07Z</time></trkpt><trkpt lat="43.699549311204166" lon="5.736704386515066"><ele>256.0</ele><time>2026-04-22T13:59:08Z</time></trkpt><trkpt lat="43.69948309681667" lon="5.736406248007975"><ele>256.0</ele><time>2026-04-22T13:59:09Z</time></trkpt><trkpt lat="43.699406134282775" lon="5.736127159926188"><ele>256.0</ele><time>2026-04-22T13:59:10Z</time></trkpt><trkpt lat="43.69935542119249" lon="5.735883064782536"><ele>256.0</ele><time>2026-04-22T13:59:11Z</time></trkpt><trkpt lat="43.69929960025193" lon="5.735632434691354"><ele>256.0</ele><time>2026-04-22T13:59:12Z</time></trkpt><trkpt lat="43.69924254285726" lon="5.735373866988403"><ele>256.0</ele><time>2026-04-22T13:59:13Z</time></trkpt><trkpt lat="43.6991746155834" lon="5.735103553865956"><ele>256.0</ele><time>2026-04-22T13:59:14Z</time></trkpt><trkpt lat="43.69909908012216" lon="5.73484808089017"><ele>256.0</ele><time>2026-04-22T13:59:15Z</time></trkpt><trkpt lat="43.699007523859734" lon="5.734605375667354"><ele>256.0</ele><time>2026-04-22T13:59:16Z</time></trkpt><trkpt lat="43.69889294800652" lon="5.734375145209408"><ele>256.0</ele><time>2026-04-22T13:59:17Z</time></trkpt><trkpt lat="43.69877401006626" lon="5.734154726629639"><ele>256.0</ele><time>2026-04-22T13:59:18Z</time></trkpt><trkpt lat="43.69864128328142" lon="5.733952913076264"><ele>256.0</ele><time>2026-04-22T13:59:19Z</time></trkpt><trkpt lat="43.6985063767113" lon="5.733774614722279"><ele>257.0</ele><time>2026-04-22T13:59:20Z</time></trkpt><trkpt lat="43.698367371591296" lon="5.733612539668434"><ele>258.0</ele><time>2026-04-22T13:59:21Z</time></trkpt><trkpt lat="43.698223831623345" lon="5.73346124452687"><ele>259.0</ele><time>2026-04-22T13:59:22Z</time></trkpt><trkpt lat="43.69808103122881" lon="5.733331787729792"><ele>259.0</ele><time>2026-04-22T13:59:23Z</time></trkpt><trkpt lat="43.69794534449258" lon="5.733212967412578"><ele>259.0</ele><time>2026-04-22T13:59:24Z</time></trkpt><trkpt lat="43.69782039171381" lon="5.73309769177861"><ele>259.0</ele><time>2026-04-22T13:59:25Z</time></trkpt><trkpt lat="43.69770189529305" lon="5.732982625000741"><ele>259.75</ele><time>2026-04-22T13:59:26Z</time></trkpt><trkpt lat="43.69759944134064" lon="5.732872403873469"><ele>260.5</ele><time>2026-04-22T13:59:27Z</time></trkpt><trkpt lat="43.697506031088196" lon="5.732768605175501"><ele>261.25</ele><time>2026-04-22T13:59:28Z</time></trkpt><trkpt lat="43.69742264034931" lon="5.732669606082613"><ele>262.0</ele><time>2026-04-22T13:59:29Z</time></trkpt><trkpt lat="43.69735710080129" lon="5.732564344534729"><ele>262.0</ele><time>2026-04-22T13:59:30Z</time></trkpt><trkpt lat="43.6973082041136" lon="5.732458522839985"><ele>262.0</ele><time>2026-04-22T13:59:31Z</time></trkpt><trkpt lat="43.697269435920404" lon="5.732349029893127"><ele>262.0</ele><time>2026-04-22T13:59:32Z</time></trkpt><trkpt lat="43.697225944661504" lon="5.732219479585694"><ele>262.0</ele><time>2026-04-22T13:59:33Z</time></trkpt><trkpt lat="43.69717523911056" lon="5.7320759171503415"><ele>262.0</ele><time>2026-04-22T13:59:34Z</time></trkpt><trkpt lat="43.69711165214665" lon="5.731959122794452"><ele>262.0</ele><time>2026-04-22T13:59:35Z</time></trkpt><trkpt lat="43.69702167334948" lon="5.731894086717065"><ele>262.0</ele><time>2026-04-22T13:59:36Z</time></trkpt><trkpt lat="43.69691792495035" lon="5.731862938475719"><ele>262.0</ele><time>2026-04-22T13:59:37Z</time></trkpt><trkpt lat="43.69680809717774" lon="5.731816011008009"><ele>262.0</ele><time>2026-04-22T13:59:38Z</time></trkpt><trkpt lat="43.69670023333793" lon="5.7317243545351095"><ele>262.0</ele><time>2026-04-22T13:59:39Z</time></trkpt><trkpt lat="43.6965925507592" lon="5.731588772539582"><ele>261.66666666666663</ele><time>2026-04-22T13:59:40Z</time></trkpt><trkpt lat="43.696483298062425" lon="5.731430470809778"><ele>261.3333333333333</ele><time>2026-04-22T13:59:41Z</time></trkpt><trkpt lat="43.6963641337509" lon="5.731254864005853"><ele>261.0</ele><time>2026-04-22T13:59:42Z</time></trkpt><trkpt lat="43.696246716879365" lon="5.731091951141887"><ele>261.3333333333333</ele><time>2026-04-22T13:59:43Z</time></trkpt><trkpt lat="43.69613288542389" lon="5.73093843987875"><ele>261.66666666666663</ele><time>2026-04-22T13:59:44Z</time></trkpt><trkpt lat="43.696017093009615" lon="5.7307865438351335"><ele>262.0</ele><time>2026-04-22T13:59:45Z</time></trkpt><trkpt lat="43.695902473958284" lon="5.7306303156777245"><ele>262.0</ele><time>2026-04-22T13:59:46Z</time></trkpt><trkpt lat="43.69578566310379" lon="5.73047786965013"><ele>262.0</ele><time>2026-04-22T13:59:47Z</time></trkpt><trkpt lat="43.69566678060274" lon="5.730317043318511"><ele>262.0</ele><time>2026-04-22T13:59:48Z</time></trkpt><trkpt lat="43.695542794564325" lon="5.730147703026443"><ele>261.3333333333333</ele><time>2026-04-22T13:59:49Z</time></trkpt><trkpt lat="43.69542048426627" lon="5.72997422534616"><ele>260.6666666666667</ele><time>2026-04-22T13:59:50Z</time></trkpt><trkpt lat="43.69529502958766" lon="5.729801015426529"><ele>260.0</ele><time>2026-04-22T13:59:51Z</time></trkpt><trkpt lat="43.69517070925866" lon="5.729636702281048"><ele>260.6666666666667</ele><time>2026-04-22T13:59:52Z</time></trkpt><trkpt lat="43.695051207713284" lon="5.729482887455563"><ele>261.3333333333333</ele><time>2026-04-22T13:59:53Z</time></trkpt><trkpt lat="43.694929417260056" lon="5.7293326399551"><ele>262.0</ele><time>2026-04-22T13:59:54Z</time></trkpt><trkpt lat="43.69480635536965" lon="5.729181601864076"><ele>262.0</ele><time>2026-04-22T13:59:55Z</time></trkpt><trkpt lat="43.69468453664419" lon="5.729034678052973"><ele>262.0</ele><time>2026-04-22T13:59:56Z</time></trkpt><trkpt lat="43.694569060637434" lon="5.7288880954263055"><ele>262.0</ele><time>2026-04-22T13:59:57Z</time></trkpt><trkpt lat="43.69444858461955" lon="5.728730149087972"><ele>263.0</ele><time>2026-04-22T13:59:58Z</time></trkpt><trkpt lat="43.6943275921798" lon="5.728568252782383"><ele>264.0</ele><time>2026-04-22T13:59:59Z</time></trkpt><trkpt lat="43.69420503530186" lon="5.728407487032869"><ele>265.0</ele><time>2026-04-22T14:00:00Z</time></trkpt><trkpt lat="43.694081991245966" lon="5.728238296949755"><ele>265.0</ele><time>2026-04-22T14:00:01Z</time></trkpt><trkpt lat="43.69395450072983" lon="5.7280572182980105"><ele>265.0</ele><time>2026-04-22T14:00:02Z</time></trkpt><trkpt lat="43.69383986155984" lon="5.727858926399612"><ele>265.0</ele><time>2026-04-22T14:00:03Z</time></trkpt><trkpt lat="43.693736556889384" lon="5.727650035016295"><ele>265.0</ele><time>2026-04-22T14:00:04Z</time></trkpt><trkpt lat="43.69362857946653" lon="5.7274173321638555"><ele>265.0</ele><time>2026-04-22T14:00:05Z</time></trkpt><trkpt lat="43.69350765240511" lon="5.727178533362213"><ele>265.0</ele><time>2026-04-22T14:00:06Z</time></trkpt><trkpt lat="43.693392348251" lon="5.726939195520028"><ele>263.3333333333333</ele><time>2026-04-22T14:00:07Z</time></trkpt><trkpt lat="43.69327811164338" lon="5.726702616720694"><ele>261.6666666666667</ele><time>2026-04-22T14:00:08Z</time></trkpt><trkpt lat="43.69315662804308" lon="5.726475399600531"><ele>260.0</ele><time>2026-04-22T14:00:09Z</time></trkpt><trkpt lat="43.6930163472303" lon="5.726256935913516"><ele>259.6666666666667</ele><time>2026-04-22T14:00:10Z</time></trkpt><trkpt lat="43.692871419351185" lon="5.726047043802094"><ele>259.3333333333333</ele><time>2026-04-22T14:00:11Z</time></trkpt><trkpt lat="43.692724453470156" lon="5.725843829157413"><ele>259.0</ele><time>2026-04-22T14:00:12Z</time></trkpt><trkpt lat="43.692577224845934" lon="5.725644453748547"><ele>259.0</ele><time>2026-04-22T14:00:13Z</time></trkpt><trkpt lat="43.69243485491404" lon="5.72544516012586"><ele>259.0</ele><time>2026-04-22T14:00:14Z</time></trkpt><trkpt lat="43.692294190834566" lon="5.725246183842979"><ele>259.0</ele><time>2026-04-22T14:00:15Z</time></trkpt><trkpt lat="43.69214097373762" lon="5.725040986781493"><ele>259.0</ele><time>2026-04-22T14:00:16Z</time></trkpt><trkpt lat="43.691974337745314" lon="5.724828110923357"><ele>259.0</ele><time>2026-04-22T14:00:17Z</time></trkpt><trkpt lat="43.691790431589425" lon="5.724595922010904"><ele>258.5</ele><time>2026-04-22T14:00:18Z</time></trkpt><trkpt lat="43.69160123484801" lon="5.7243633778592455"><ele>258.0</ele><time>2026-04-22T14:00:19Z</time></trkpt><trkpt lat="43.69141137961471" lon="5.7241341373301875"><ele>258.0</ele><time>2026-04-22T14:00:20Z</time></trkpt><trkpt lat="43.69122141244533" lon="5.7239111606942865"><ele>258.0</ele><time>2026-04-22T14:00:21Z</time></trkpt><trkpt lat="43.691028809749504" lon="5.723685624728098"><ele>258.5</ele><time>2026-04-22T14:00:22Z</time></trkpt><trkpt lat="43.69084047744209" lon="5.7234605424510425"><ele>259.0</ele><time>2026-04-22T14:00:23.001Z</time></trkpt><trkpt lat="43.69065399854051" lon="5.723231618508934"><ele>259.0</ele><time>2026-04-22T14:00:24.001Z</time></trkpt><trkpt lat="43.69046625286141" lon="5.7230000430970795"><ele>259.0</ele><time>2026-04-22T14:00:25.001Z</time></trkpt><trkpt lat="43.690246324203756" lon="5.722769964622175"><ele>259.0</ele><time>2026-04-22T14:00:26.001Z</time></trkpt><trkpt lat="43.690070634047046" lon="5.722557186505627"><ele>259.0</ele><time>2026-04-22T14:00:27.001Z</time></trkpt><trkpt lat="43.689948474620465" lon="5.722361041998459"><ele>259.0</ele><time>2026-04-22T14:00:28.001Z</time></trkpt><trkpt lat="43.68979372995746" lon="5.7221678182531495"><ele>259.0</ele><time>2026-04-22T14:00:29.001Z</time></trkpt><trkpt lat="43.689646140375366" lon="5.721978930981514"><ele>259.0</ele><time>2026-04-22T14:00:30.001Z</time></trkpt><trkpt lat="43.689500564860545" lon="5.721797874545857"><ele>259.0</ele><time>2026-04-22T14:00:31.001Z</time></trkpt><trkpt lat="43.689359536585556" lon="5.721618104471402"><ele>258.66666666666663</ele><time>2026-04-22T14:00:32.001Z</time></trkpt><trkpt lat="43.68921609520079" lon="5.721434812725444"><ele>258.3333333333333</ele><time>2026-04-22T14:00:33.001Z</time></trkpt><trkpt lat="43.68906061341707" lon="5.721224959088235"><ele>258.0</ele><time>2026-04-22T14:00:34.001Z</time></trkpt><trkpt lat="43.68890021264707" lon="5.721000521676009"><ele>257.0</ele><time>2026-04-22T14:00:35.001Z</time></trkpt><trkpt lat="43.68874204575157" lon="5.72077106650523"><ele>256.0</ele><time>2026-04-22T14:00:36.001Z</time></trkpt><trkpt lat="43.688604478580935" lon="5.720527944866658"><ele>257.3333333333333</ele><time>2026-04-22T14:00:37.001Z</time></trkpt><trkpt lat="43.688485202379525" lon="5.720269370706554"><ele>258.6666666666667</ele><time>2026-04-22T14:00:38.001Z</time></trkpt><trkpt lat="43.688384974720954" lon="5.720003087837673"><ele>260.0</ele><time>2026-04-22T14:00:39.001Z</time></trkpt><trkpt lat="43.688297939802695" lon="5.719728707485325"><ele>260.6666666666667</ele><time>2026-04-22T14:00:40.001Z</time></trkpt><trkpt lat="43.68821658344529" lon="5.719456164951341"><ele>261.3333333333333</ele><time>2026-04-22T14:00:41.001Z</time></trkpt><trkpt lat="43.688138843337654" lon="5.719180004846566"><ele>262.0</ele><time>2026-04-22T14:00:42.001Z</time></trkpt><trkpt lat="43.68806103516968" lon="5.7189182695264345"><ele>260.66666666666663</ele><time>2026-04-22T14:00:43.001Z</time></trkpt><trkpt lat="43.68797875656115" lon="5.718655946369212"><ele>259.3333333333333</ele><time>2026-04-22T14:00:44.001Z</time></trkpt><trkpt lat="43.68790203457393" lon="5.718397743254739"><ele>258.0</ele><time>2026-04-22T14:00:45.001Z</time></trkpt><trkpt lat="43.68782161848749" lon="5.718138306389961"><ele>259.6666666666667</ele><time>2026-04-22T14:00:46.001Z</time></trkpt><trkpt lat="43.6877455206609" lon="5.717878958459466"><ele>261.33333333333337</ele><time>2026-04-22T14:00:47.001Z</time></trkpt><trkpt lat="43.68766831192035" lon="5.717620362497079"><ele>263.0</ele><time>2026-04-22T14:00:48.001Z</time></trkpt><trkpt lat="43.68758814013428" lon="5.7173662316268"><ele>263.0</ele><time>2026-04-22T14:00:49.001Z</time></trkpt><trkpt lat="43.687509914657184" lon="5.717119105420854"><ele>263.0</ele><time>2026-04-22T14:00:50.001Z</time></trkpt><trkpt lat="43.68743416625353" lon="5.716876772220937"><ele>263.0</ele><time>2026-04-22T14:00:51.001Z</time></trkpt><trkpt lat="43.68736676272535" lon="5.716636677330379"><ele>260.6666666666667</ele><time>2026-04-22T14:00:52.001Z</time></trkpt><trkpt lat="43.68730000195797" lon="5.716402444478"><ele>258.3333333333333</ele><time>2026-04-22T14:00:53.001Z</time></trkpt><trkpt lat="43.68723247045528" lon="5.716175637226736"><ele>256.0</ele><time>2026-04-22T14:00:54.001Z</time></trkpt><trkpt lat="43.68716447406476" lon="5.715950398217358"><ele>255.66666666666666</ele><time>2026-04-22T14:00:55.001Z</time></trkpt><trkpt lat="43.6870980848536" lon="5.715728171087812"><ele>255.33333333333331</ele><time>2026-04-22T14:00:56.001Z</time></trkpt><trkpt lat="43.687035521304274" lon="5.715516191954008"><ele>255.0</ele><time>2026-04-22T14:00:57Z</time></trkpt><trkpt lat="43.68697763342877" lon="5.71531302245922"><ele>257.75</ele><time>2026-04-22T14:00:58Z</time></trkpt><trkpt lat="43.68692474672478" lon="5.715123166805249"><ele>260.5</ele><time>2026-04-22T14:00:59Z</time></trkpt><trkpt lat="43.68688074792732" lon="5.71494072369214"><ele>263.25</ele><time>2026-04-22T14:01:00Z</time></trkpt><trkpt lat="43.6868390145301" lon="5.714768194289153"><ele>266.0</ele><time>2026-04-22T14:01:01Z</time></trkpt><trkpt lat="43.686796802518664" lon="5.7146008569694615"><ele>266.0</ele><time>2026-04-22T14:01:02Z</time></trkpt><trkpt lat="43.68675309744406" lon="5.714430126987954"><ele>266.0</ele><time>2026-04-22T14:01:03Z</time></trkpt><trkpt lat="43.686701956581764" lon="5.714242189750318"><ele>266.0</ele><time>2026-04-22T14:01:04Z</time></trkpt><trkpt lat="43.686660691596394" lon="5.714068021416031"><ele>266.0</ele><time>2026-04-22T14:01:05Z</time></trkpt><trkpt lat="43.68661961588213" lon="5.713887877744606"><ele>265.5</ele><time>2026-04-22T14:01:06Z</time></trkpt><trkpt lat="43.68657344070834" lon="5.713708427336181"><ele>265.0</ele><time>2026-04-22T14:01:07Z</time></trkpt><trkpt lat="43.68652884740615" lon="5.713520155312026"><ele>264.5</ele><time>2026-04-22T14:01:08Z</time></trkpt><trkpt lat="43.686482951256835" lon="5.7133362668605026"><ele>264.0</ele><time>2026-04-22T14:01:09Z</time></trkpt><trkpt lat="43.68643700648063" lon="5.713161751513933"><ele>263.0</ele><time>2026-04-22T14:01:10Z</time></trkpt><trkpt lat="43.68639113987208" lon="5.712992736468697"><ele>262.0</ele><time>2026-04-22T14:01:11Z</time></trkpt><trkpt lat="43.686349265772776" lon="5.712827561325582"><ele>261.0</ele><time>2026-04-22T14:01:12Z</time></trkpt><trkpt lat="43.68630716817851" lon="5.712660486519716"><ele>260.0</ele><time>2026-04-22T14:01:13Z</time></trkpt><trkpt lat="43.686266584784484" lon="5.712494004433387"><ele>260.0</ele><time>2026-04-22T14:01:14Z</time></trkpt><trkpt lat="43.6862260147739" lon="5.712329070436287"><ele>260.0</ele><time>2026-04-22T14:01:15Z</time></trkpt><trkpt lat="43.68618433334936" lon="5.712163792991794"><ele>260.0</ele><time>2026-04-22T14:01:16Z</time></trkpt><trkpt lat="43.68614030737996" lon="5.7119987244518216"><ele>260.0</ele><time>2026-04-22T14:01:17Z</time></trkpt><trkpt lat="43.68609750042667" lon="5.711833211068451"><ele>260.25</ele><time>2026-04-22T14:01:18Z</time></trkpt><trkpt lat="43.68605623475054" lon="5.711670321022279"><ele>260.5</ele><time>2026-04-22T14:01:19Z</time></trkpt><trkpt lat="43.68602102837173" lon="5.711513415065417"><ele>260.75</ele><time>2026-04-22T14:01:20Z</time></trkpt><trkpt lat="43.68598345158763" lon="5.711358450037858"><ele>261.0</ele><time>2026-04-22T14:01:21Z</time></trkpt><trkpt lat="43.68594972811552" lon="5.711219479868754"><ele>261.0</ele><time>2026-04-22T14:01:22Z</time></trkpt><trkpt lat="43.685917554827476" lon="5.711096665341675"><ele>261.0</ele><time>2026-04-22T14:01:23Z</time></trkpt><trkpt lat="43.68588427753832" lon="5.710968364927025"><ele>261.0</ele><time>2026-04-22T14:01:24Z</time></trkpt><trkpt lat="43.68585069527865" lon="5.710842502984242"><ele>261.0</ele><time>2026-04-22T14:01:25Z</time></trkpt><trkpt lat="43.68581737199053" lon="5.710717573099512"><ele>261.0</ele><time>2026-04-22T14:01:26Z</time></trkpt><trkpt lat="43.68578566388638" lon="5.710576453957807"><ele>260.75</ele><time>2026-04-22T14:01:27Z</time></trkpt><trkpt lat="43.68575064251361" lon="5.710422503663127"><ele>260.5</ele><time>2026-04-22T14:01:28Z</time></trkpt><trkpt lat="43.68571820810799" lon="5.71025735390996"><ele>260.25</ele><time>2026-04-22T14:01:29Z</time></trkpt><trkpt lat="43.685692433872234" lon="5.710081644880449"><ele>260.0</ele><time>2026-04-22T14:01:30Z</time></trkpt><trkpt lat="43.685676558103914" lon="5.709906133728492"><ele>260.0</ele><time>2026-04-22T14:01:31Z</time></trkpt><trkpt lat="43.6856619397068" lon="5.709735818337448"><ele>260.0</ele><time>2026-04-22T14:01:32Z</time></trkpt><trkpt lat="43.685652679144106" lon="5.709560355831741"><ele>260.0</ele><time>2026-04-22T14:01:33Z</time></trkpt><trkpt lat="43.68564841036325" lon="5.7093894581751945"><ele>260.0</ele><time>2026-04-22T14:01:34Z</time></trkpt><trkpt lat="43.685648283924344" lon="5.709216698293395"><ele>259.75</ele><time>2026-04-22T14:01:35Z</time></trkpt><trkpt lat="43.68565413456577" lon="5.709048056144908"><ele>259.5</ele><time>2026-04-22T14:01:36Z</time></trkpt><trkpt lat="43.685657425824694" lon="5.708879080888014"><ele>259.25</ele><time>2026-04-22T14:01:37Z</time></trkpt><trkpt lat="43.68566108640893" lon="5.708711572720796"><ele>259.0</ele><time>2026-04-22T14:01:38Z</time></trkpt><trkpt lat="43.68566703791364" lon="5.70854729143694"><ele>259.0</ele><time>2026-04-22T14:01:39Z</time></trkpt><trkpt lat="43.68567541595209" lon="5.708376666318698"><ele>259.0</ele><time>2026-04-22T14:01:40Z</time></trkpt><trkpt lat="43.68568344447798" lon="5.708208932159975"><ele>259.0</ele><time>2026-04-22T14:01:41Z</time></trkpt><trkpt lat="43.68568994569112" lon="5.708042073054512"><ele>259.0</ele><time>2026-04-22T14:01:42Z</time></trkpt><trkpt lat="43.68569407144309" lon="5.707870828740817"><ele>258.75</ele><time>2026-04-22T14:01:43Z</time></trkpt><trkpt lat="43.685699963443085" lon="5.707707901546353"><ele>258.5</ele><time>2026-04-22T14:01:44Z</time></trkpt><trkpt lat="43.685705151359286" lon="5.707542887283266"><ele>258.25</ele><time>2026-04-22T14:01:45Z</time></trkpt><trkpt lat="43.68570934938837" lon="5.707382706091725"><ele>258.0</ele><time>2026-04-22T14:01:46Z</time></trkpt><trkpt lat="43.68571090439874" lon="5.707217837886221"><ele>258.0</ele><time>2026-04-22T14:01:47Z</time></trkpt><trkpt lat="43.6857165593849" lon="5.70705932884349"><ele>258.0</ele><time>2026-04-22T14:01:48Z</time></trkpt><trkpt lat="43.68572159347063" lon="5.706897639018378"><ele>258.0</ele><time>2026-04-22T14:01:49Z</time></trkpt><trkpt lat="43.68572925213382" lon="5.7067381819942"><ele>258.0</ele><time>2026-04-22T14:01:50Z</time></trkpt><trkpt lat="43.68573910278251" lon="5.7065801001350644"><ele>258.5</ele><time>2026-04-22T14:01:51Z</time></trkpt><trkpt lat="43.685750943985106" lon="5.7064165533964"><ele>259.0</ele><time>2026-04-22T14:01:52Z</time></trkpt><trkpt lat="43.68575495786889" lon="5.706236370928631"><ele>259.5</ele><time>2026-04-22T14:01:53Z</time></trkpt><trkpt lat="43.6857564807727" lon="5.706052627004851"><ele>260.0</ele><time>2026-04-22T14:01:54Z</time></trkpt><trkpt lat="43.685762903386056" lon="5.705890991524677"><ele>260.5</ele><time>2026-04-22T14:01:55Z</time></trkpt><trkpt lat="43.68577546347369" lon="5.705733516673946"><ele>261.0</ele><time>2026-04-22T14:01:56Z</time></trkpt><trkpt lat="43.68579125718648" lon="5.705573708934144"><ele>261.5</ele><time>2026-04-22T14:01:57Z</time></trkpt><trkpt lat="43.68581594158515" lon="5.705417491161462"><ele>262.0</ele><time>2026-04-22T14:01:58Z</time></trkpt><trkpt lat="43.68584467137419" lon="5.705255550650667"><ele>262.0</ele><time>2026-04-22T14:01:59Z</time></trkpt><trkpt lat="43.68587400464843" lon="5.705108298903041"><ele>262.0</ele><time>2026-04-22T14:02:00Z</time></trkpt><trkpt lat="43.68591224587141" lon="5.704953148145893"><ele>262.0</ele><time>2026-04-22T14:02:01Z</time></trkpt><trkpt lat="43.685953278812676" lon="5.704797257893667"><ele>262.0</ele><time>2026-04-22T14:02:02Z</time></trkpt><trkpt lat="43.68599783510299" lon="5.704640131067193"><ele>262.0</ele><time>2026-04-22T14:02:03Z</time></trkpt><trkpt lat="43.686046007529974" lon="5.704491398734458"><ele>262.0</ele><time>2026-04-22T14:02:04Z</time></trkpt><trkpt lat="43.68609904561392" lon="5.7043439699299965"><ele>262.0</ele><time>2026-04-22T14:02:05Z</time></trkpt><trkpt lat="43.686161875857096" lon="5.704199525586039"><ele>262.0</ele><time>2026-04-22T14:02:06Z</time></trkpt><trkpt lat="43.68623310031533" lon="5.704052674781907"><ele>261.0</ele><time>2026-04-22T14:02:07Z</time></trkpt><trkpt lat="43.686304341461145" lon="5.703891403877324"><ele>260.0</ele><time>2026-04-22T14:02:08Z</time></trkpt><trkpt lat="43.68638977213087" lon="5.7037235531097465"><ele>259.0</ele><time>2026-04-22T14:02:09Z</time></trkpt><trkpt lat="43.686477814390514" lon="5.703553729939987"><ele>258.0</ele><time>2026-04-22T14:02:10Z</time></trkpt><trkpt lat="43.68656841343998" lon="5.703376399415902"><ele>258.0</ele><time>2026-04-22T14:02:11Z</time></trkpt><trkpt lat="43.68666495979701" lon="5.7031974781656025"><ele>258.0</ele><time>2026-04-22T14:02:12Z</time></trkpt><trkpt lat="43.686754474089504" lon="5.7030244105029375"><ele>258.0</ele><time>2026-04-22T14:02:13Z</time></trkpt><trkpt lat="43.68685497312196" lon="5.702835601032415"><ele>257.0</ele><time>2026-04-22T14:02:14Z</time></trkpt><trkpt lat="43.68696617730444" lon="5.702622943816419"><ele>256.0</ele><time>2026-04-22T14:02:15Z</time></trkpt><trkpt lat="43.68708483411422" lon="5.702393393932223"><ele>255.0</ele><time>2026-04-22T14:02:16.001Z</time></trkpt><trkpt lat="43.6872098200884" lon="5.702159676475676"><ele>255.0</ele><time>2026-04-22T14:02:17.001Z</time></trkpt><trkpt lat="43.68733667700231" lon="5.7019235531560275"><ele>255.0</ele><time>2026-04-22T14:02:18.001Z</time></trkpt><trkpt lat="43.6874677136873" lon="5.701682403274123"><ele>255.0</ele><time>2026-04-22T14:02:19.001Z</time></trkpt><trkpt lat="43.68760175629444" lon="5.701426279075441"><ele>256.0</ele><time>2026-04-22T14:02:20.001Z</time></trkpt><trkpt lat="43.687734038444226" lon="5.701158890708666"><ele>257.0</ele><time>2026-04-22T14:02:21.001Z</time></trkpt><trkpt lat="43.68786095545236" lon="5.700887897190866"><ele>257.0</ele><time>2026-04-22T14:02:22.001Z</time></trkpt><trkpt lat="43.68797986965076" lon="5.70060925850879"><ele>257.0</ele><time>2026-04-22T14:02:23.001Z</time></trkpt><trkpt lat="43.688089245820144" lon="5.700327200929925"><ele>257.0</ele><time>2026-04-22T14:02:24.001Z</time></trkpt><trkpt lat="43.6881952850086" lon="5.700043859261801"><ele>257.0</ele><time>2026-04-22T14:02:25.001Z</time></trkpt><trkpt lat="43.68828707623301" lon="5.699766246920368"><ele>257.0</ele><time>2026-04-22T14:02:26.001Z</time></trkpt><trkpt lat="43.68837147076698" lon="5.699506253324632"><ele>257.0</ele><time>2026-04-22T14:02:27.001Z</time></trkpt><trkpt lat="43.688459528156386" lon="5.699293507451128"><ele>257.0</ele><time>2026-04-22T14:02:28.001Z</time></trkpt><trkpt lat="43.68851252697313" lon="5.699012927899182"><ele>253.0</ele><time>2026-04-22T14:02:29.001Z</time></trkpt><trkpt lat="43.68856436986671" lon="5.698674328408569"><ele>249.0</ele><time>2026-04-22T14:02:30.001Z</time></trkpt><trkpt lat="43.68859337578894" lon="5.698380564440173"><ele>249.0</ele><time>2026-04-22T14:02:31.001Z</time></trkpt><trkpt lat="43.688618232711654" lon="5.6981048748581875"><ele>249.0</ele><time>2026-04-22T14:02:32.001Z</time></trkpt><trkpt lat="43.688636164585745" lon="5.697830474144407"><ele>249.0</ele><time>2026-04-22T14:02:33.001Z</time></trkpt><trkpt lat="43.68864635088967" lon="5.69755634600148"><ele>249.0</ele><time>2026-04-22T14:02:34.001Z</time></trkpt><trkpt lat="43.68866410140926" lon="5.697269308731724"><ele>249.0</ele><time>2026-04-22T14:02:35.001Z</time></trkpt><trkpt lat="43.688686602161894" lon="5.696969910581228"><ele>249.0</ele><time>2026-04-22T14:02:36.001Z</time></trkpt><trkpt lat="43.68871185422111" lon="5.696671359926101"><ele>249.0</ele><time>2026-04-22T14:02:37.001Z</time></trkpt><trkpt lat="43.68873645001786" lon="5.696385612351827"><ele>249.0</ele><time>2026-04-22T14:02:38.001Z</time></trkpt><trkpt lat="43.68875522107467" lon="5.696108870836579"><ele>249.0</ele><time>2026-04-22T14:02:39.001Z</time></trkpt><trkpt lat="43.68877522756113" lon="5.695830011708907"><ele>250.33333333333331</ele><time>2026-04-22T14:02:40.001Z</time></trkpt><trkpt lat="43.6887953075135" lon="5.695553294936257"><ele>251.66666666666666</ele><time>2026-04-22T14:02:41.001Z</time></trkpt><trkpt lat="43.68882026209955" lon="5.695261079602563"><ele>253.0</ele><time>2026-04-22T14:02:42.001Z</time></trkpt><trkpt lat="43.68884388727459" lon="5.69496260283373"><ele>254.66666666666666</ele><time>2026-04-22T14:02:43.001Z</time></trkpt><trkpt lat="43.68886394769191" lon="5.694685490883225"><ele>256.3333333333333</ele><time>2026-04-22T14:02:44.001Z</time></trkpt><trkpt lat="43.688879935794326" lon="5.694431785983441"><ele>258.0</ele><time>2026-04-22T14:02:45.001Z</time></trkpt><trkpt lat="43.688899821811845" lon="5.694177577404465"><ele>259.3333333333333</ele><time>2026-04-22T14:02:46.001Z</time></trkpt><trkpt lat="43.688919149849596" lon="5.693917402851391"><ele>260.66666666666663</ele><time>2026-04-22T14:02:47.001Z</time></trkpt><trkpt lat="43.68893683765648" lon="5.693655633938078"><ele>262.0</ele><time>2026-04-22T14:02:48.001Z</time></trkpt><trkpt lat="43.688959989992036" lon="5.693374581895572"><ele>263.0</ele><time>2026-04-22T14:02:49.001Z</time></trkpt><trkpt lat="43.68897787679028" lon="5.693086872506706"><ele>264.0</ele><time>2026-04-22T14:02:50.001Z</time></trkpt><trkpt lat="43.68899906869636" lon="5.692807159217024"><ele>265.0</ele><time>2026-04-22T14:02:51.001Z</time></trkpt><trkpt lat="43.68902063504002" lon="5.692537878737654"><ele>265.0</ele><time>2026-04-22T14:02:52.001Z</time></trkpt><trkpt lat="43.68904324792749" lon="5.692264713168352"><ele>265.0</ele><time>2026-04-22T14:02:53.001Z</time></trkpt><trkpt lat="43.68906477584958" lon="5.691987830811477"><ele>265.0</ele><time>2026-04-22T14:02:54.001Z</time></trkpt><trkpt lat="43.68908132251467" lon="5.6917083230655185"><ele>266.0</ele><time>2026-04-22T14:02:55.001Z</time></trkpt><trkpt lat="43.689092403856996" lon="5.6914384632610515"><ele>267.0</ele><time>2026-04-22T14:02:56.001Z</time></trkpt><trkpt lat="43.68909981904082" lon="5.691168546697559"><ele>268.0</ele><time>2026-04-22T14:02:57.001Z</time></trkpt><trkpt lat="43.68910790307032" lon="5.690902479471162"><ele>268.66666666666663</ele><time>2026-04-22T14:02:58.001Z</time></trkpt><trkpt lat="43.68911568688577" lon="5.690650277423589"><ele>269.3333333333333</ele><time>2026-04-22T14:02:59.001Z</time></trkpt><trkpt lat="43.68912465707095" lon="5.6904042738832565"><ele>270.0</ele><time>2026-04-22T14:03:00.001Z</time></trkpt><trkpt lat="43.6891302728327" lon="5.690162872265888"><ele>270.0</ele><time>2026-04-22T14:03:01.001Z</time></trkpt><trkpt lat="43.689140007159864" lon="5.689933232887964"><ele>270.0</ele><time>2026-04-22T14:03:02.001Z</time></trkpt><trkpt lat="43.68914619760031" lon="5.689707755849077"><ele>270.0</ele><time>2026-04-22T14:03:03Z</time></trkpt><trkpt lat="43.689147490863355" lon="5.689475321146656"><ele>270.6666666666667</ele><time>2026-04-22T14:03:04Z</time></trkpt><trkpt lat="43.68914751230036" lon="5.689243268309187"><ele>271.33333333333337</ele><time>2026-04-22T14:03:05Z</time></trkpt><trkpt lat="43.68914577622524" lon="5.689013017210244"><ele>272.0</ele><time>2026-04-22T14:03:06Z</time></trkpt><trkpt lat="43.68914700186162" lon="5.6887806571561805"><ele>272.0</ele><time>2026-04-22T14:03:07Z</time></trkpt><trkpt lat="43.68914545237254" lon="5.688550327535822"><ele>272.0</ele><time>2026-04-22T14:03:08Z</time></trkpt><trkpt lat="43.68914529774153" lon="5.688317861207443"><ele>272.0</ele><time>2026-04-22T14:03:09Z</time></trkpt><trkpt lat="43.68914719942419" lon="5.688076330091044"><ele>272.0</ele><time>2026-04-22T14:03:10Z</time></trkpt><trkpt lat="43.68915052262921" lon="5.687829166125549"><ele>272.0</ele><time>2026-04-22T14:03:11Z</time></trkpt><trkpt lat="43.68914963144591" lon="5.687553442704756"><ele>272.0</ele><time>2026-04-22T14:03:12Z</time></trkpt><trkpt lat="43.68914776285494" lon="5.6872561017054215"><ele>272.5</ele><time>2026-04-22T14:03:13Z</time></trkpt><trkpt lat="43.68914476520759" lon="5.686945367507417"><ele>273.0</ele><time>2026-04-22T14:03:14Z</time></trkpt><trkpt lat="43.68914333827979" lon="5.686615710215267"><ele>271.5</ele><time>2026-04-22T14:03:15Z</time></trkpt><trkpt lat="43.689148015814666" lon="5.686264515899504"><ele>270.0</ele><time>2026-04-22T14:03:16Z</time></trkpt><trkpt lat="43.68915548270452" lon="5.685918167609089"><ele>266.0</ele><time>2026-04-22T14:03:17Z</time></trkpt><trkpt lat="43.689162943892605" lon="5.685572834477816"><ele>262.0</ele><time>2026-04-22T14:03:18Z</time></trkpt><trkpt lat="43.68918195174881" lon="5.685248947855912"><ele>262.66666666666663</ele><time>2026-04-22T14:03:19Z</time></trkpt><trkpt lat="43.68920805144614" lon="5.684944086817797"><ele>263.3333333333333</ele><time>2026-04-22T14:03:20Z</time></trkpt><trkpt lat="43.689231803378796" lon="5.684651770179727"><ele>264.0</ele><time>2026-04-22T14:03:21Z</time></trkpt><trkpt lat="43.68925903809589" lon="5.6843654905104195"><ele>264.0</ele><time>2026-04-22T14:03:22Z</time></trkpt><trkpt lat="43.689286623367124" lon="5.684109389859698"><ele>264.0</ele><time>2026-04-22T14:03:23Z</time></trkpt><trkpt lat="43.68930778486815" lon="5.6838478331493985"><ele>264.0</ele><time>2026-04-22T14:03:24Z</time></trkpt><trkpt lat="43.68931790889275" lon="5.683581222061479"><ele>265.6666666666667</ele><time>2026-04-22T14:03:25Z</time></trkpt><trkpt lat="43.68933758579625" lon="5.683287278344692"><ele>267.33333333333337</ele><time>2026-04-22T14:03:26Z</time></trkpt><trkpt lat="43.68935384999909" lon="5.682978991762514"><ele>269.0</ele><time>2026-04-22T14:03:27Z</time></trkpt><trkpt lat="43.689378479504406" lon="5.682676758671745"><ele>269.6666666666667</ele><time>2026-04-22T14:03:28Z</time></trkpt><trkpt lat="43.689406566277704" lon="5.682398606550682"><ele>270.3333333333333</ele><time>2026-04-22T14:03:29Z</time></trkpt><trkpt lat="43.68943914711129" lon="5.682123105572781"><ele>271.0</ele><time>2026-04-22T14:03:30Z</time></trkpt><trkpt lat="43.68948709393433" lon="5.681856039605756"><ele>267.3333333333333</ele><time>2026-04-22T14:03:31Z</time></trkpt><trkpt lat="43.6895510293398" lon="5.681589101167699"><ele>263.6666666666667</ele><time>2026-04-22T14:03:32Z</time></trkpt><trkpt lat="43.689621119843174" lon="5.681324616664852"><ele>260.0</ele><time>2026-04-22T14:03:33Z</time></trkpt><trkpt lat="43.68971467259638" lon="5.681073667001239"><ele>260.0</ele><time>2026-04-22T14:03:34Z</time></trkpt><trkpt lat="43.68982996964611" lon="5.680834790543978"><ele>260.0</ele><time>2026-04-22T14:03:35Z</time></trkpt><trkpt lat="43.68994911259175" lon="5.680594207592649"><ele>260.0</ele><time>2026-04-22T14:03:36Z</time></trkpt><trkpt lat="43.690049509396985" lon="5.6803399454492745"><ele>262.0</ele><time>2026-04-22T14:03:37Z</time></trkpt><trkpt lat="43.690126451845444" lon="5.68006894219711"><ele>264.0</ele><time>2026-04-22T14:03:38Z</time></trkpt><trkpt lat="43.69018165194021" lon="5.6797939155178385"><ele>266.0</ele><time>2026-04-22T14:03:39Z</time></trkpt><trkpt lat="43.69021574609859" lon="5.679516266634425"><ele>266.6666666666667</ele><time>2026-04-22T14:03:40Z</time></trkpt><trkpt lat="43.69023932690923" lon="5.679245410502522"><ele>267.3333333333333</ele><time>2026-04-22T14:03:41Z</time></trkpt><trkpt lat="43.69025188479772" lon="5.678975852113349"><ele>268.0</ele><time>2026-04-22T14:03:42Z</time></trkpt><trkpt lat="43.690229708809994" lon="5.678692627838927"><ele>266.5</ele><time>2026-04-22T14:03:43Z</time></trkpt><trkpt lat="43.69019688985016" lon="5.678392561511501"><ele>265.0</ele><time>2026-04-22T14:03:44Z</time></trkpt><trkpt lat="43.690155026938186" lon="5.678076272683863"><ele>265.0</ele><time>2026-04-22T14:03:45Z</time></trkpt><trkpt lat="43.6901414969267" lon="5.677781408257446"><ele>265.0</ele><time>2026-04-22T14:03:46Z</time></trkpt><trkpt lat="43.69010489224084" lon="5.6775142492752"><ele>265.0</ele><time>2026-04-22T14:03:47Z</time></trkpt><trkpt lat="43.69006896161683" lon="5.67723511927093"><ele>265.0</ele><time>2026-04-22T14:03:48Z</time></trkpt><trkpt lat="43.69005808746008" lon="5.67697779952176"><ele>265.0</ele><time>2026-04-22T14:03:49Z</time></trkpt><trkpt lat="43.69006522797602" lon="5.676723358909984"><ele>265.0</ele><time>2026-04-22T14:03:50Z</time></trkpt><trkpt lat="43.690104824917356" lon="5.676468128526203"><ele>266.0</ele><time>2026-04-22T14:03:51Z</time></trkpt><trkpt lat="43.69014743314623" lon="5.676222556745474"><ele>267.0</ele><time>2026-04-22T14:03:52Z</time></trkpt><trkpt lat="43.69017801239994" lon="5.675975024493781"><ele>268.0</ele><time>2026-04-22T14:03:53Z</time></trkpt><trkpt lat="43.69019137568017" lon="5.675730440987608"><ele>268.0</ele><time>2026-04-22T14:03:54Z</time></trkpt><trkpt lat="43.690192250764376" lon="5.675482652476782"><ele>268.0</ele><time>2026-04-22T14:03:55Z</time></trkpt><trkpt lat="43.69019766054427" lon="5.675247703213213"><ele>268.0</ele><time>2026-04-22T14:03:56Z</time></trkpt><trkpt lat="43.69020242017615" lon="5.675024852548878"><ele>270.66666666666663</ele><time>2026-04-22T14:03:57Z</time></trkpt><trkpt lat="43.69020856570201" lon="5.674809082618248"><ele>273.3333333333333</ele><time>2026-04-22T14:03:58Z</time></trkpt><trkpt lat="43.69021263545761" lon="5.674591220555879"><ele>276.0</ele><time>2026-04-22T14:03:59Z</time></trkpt><trkpt lat="43.690226569888175" lon="5.674353594950663"><ele>276.3333333333333</ele><time>2026-04-22T14:04:00Z</time></trkpt><trkpt lat="43.690231818448005" lon="5.674133851821866"><ele>276.66666666666663</ele><time>2026-04-22T14:04:01Z</time></trkpt><trkpt lat="43.69025222846775" lon="5.673927696459628"><ele>277.0</ele><time>2026-04-22T14:04:02Z</time></trkpt><trkpt lat="43.69028452130326" lon="5.673729177032258"><ele>263.66666666666663</ele><time>2026-04-22T14:04:03Z</time></trkpt><trkpt lat="43.69035329198348" lon="5.673542946805107"><ele>250.33333333333331</ele><time>2026-04-22T14:04:04Z</time></trkpt><trkpt lat="43.690413118804315" lon="5.673339520391708"><ele>237.0</ele><time>2026-04-22T14:04:05Z</time></trkpt><trkpt lat="43.690447250831305" lon="5.67309816189227"><ele>237.0</ele><time>2026-04-22T14:04:06Z</time></trkpt><trkpt lat="43.690463211307886" lon="5.672836239176022"><ele>237.0</ele><time>2026-04-22T14:04:07Z</time></trkpt><trkpt lat="43.690466262960264" lon="5.672589776632287"><ele>237.0</ele><time>2026-04-22T14:04:08Z</time></trkpt><trkpt lat="43.690466068148034" lon="5.672358191201251"><ele>237.0</ele><time>2026-04-22T14:04:09Z</time></trkpt><trkpt lat="43.69047020516731" lon="5.672141604775785"><ele>237.0</ele><time>2026-04-22T14:04:10Z</time></trkpt><trkpt lat="43.69048138243514" lon="5.671941440209363"><ele>237.0</ele><time>2026-04-22T14:04:11Z</time></trkpt><trkpt lat="43.69048854065814" lon="5.6717657071923595"><ele>237.0</ele><time>2026-04-22T14:04:12Z</time></trkpt><trkpt lat="43.690493182443284" lon="5.671594285544267"><ele>236.25</ele><time>2026-04-22T14:04:13Z</time></trkpt><trkpt lat="43.690494990341655" lon="5.6714249095791365"><ele>235.5</ele><time>2026-04-22T14:04:14Z</time></trkpt><trkpt lat="43.690481696236105" lon="5.671248566915714"><ele>234.75</ele><time>2026-04-22T14:04:15Z</time></trkpt><trkpt lat="43.69044082924249" lon="5.671057496616055"><ele>234.0</ele><time>2026-04-22T14:04:16Z</time></trkpt><trkpt lat="43.69036846730717" lon="5.6708480595072945"><ele>232.33333333333331</ele><time>2026-04-22T14:04:17Z</time></trkpt><trkpt lat="43.6902768935876" lon="5.6706457570968585"><ele>230.66666666666666</ele><time>2026-04-22T14:04:18Z</time></trkpt><trkpt lat="43.69019338146939" lon="5.670452815634633"><ele>229.0</ele><time>2026-04-22T14:04:19Z</time></trkpt><trkpt lat="43.69011438634203" lon="5.670252838827781"><ele>234.0</ele><time>2026-04-22T14:04:20Z</time></trkpt><trkpt lat="43.690041282771965" lon="5.670037413103668"><ele>239.0</ele><time>2026-04-22T14:04:21Z</time></trkpt><trkpt lat="43.68997045314742" lon="5.669841688660976"><ele>244.0</ele><time>2026-04-22T14:04:22Z</time></trkpt><trkpt lat="43.68990758873683" lon="5.669661490625334"><ele>244.0</ele><time>2026-04-22T14:04:23Z</time></trkpt><trkpt lat="43.689852602721864" lon="5.6694911418883915"><ele>244.0</ele><time>2026-04-22T14:04:24Z</time></trkpt><trkpt lat="43.68979848540874" lon="5.669330371623082"><ele>244.0</ele><time>2026-04-22T14:04:25Z</time></trkpt><trkpt lat="43.689729311651064" lon="5.669178443813013"><ele>244.0</ele><time>2026-04-22T14:04:26Z</time></trkpt><trkpt lat="43.68964259071976" lon="5.669039928510395"><ele>245.5</ele><time>2026-04-22T14:04:27Z</time></trkpt><trkpt lat="43.68955827453206" lon="5.668905218355397"><ele>247.0</ele><time>2026-04-22T14:04:28.001Z</time></trkpt><trkpt lat="43.68947833545926" lon="5.668782834124184"><ele>248.5</ele><time>2026-04-22T14:04:29.001Z</time></trkpt><trkpt lat="43.68941749542876" lon="5.668658224330784"><ele>250.0</ele><time>2026-04-22T14:04:30.001Z</time></trkpt><trkpt lat="43.68937481814336" lon="5.668537927185909"><ele>250.0</ele><time>2026-04-22T14:04:31.001Z</time></trkpt><trkpt lat="43.68933132008724" lon="5.668414669594372"><ele>250.0</ele><time>2026-04-22T14:04:32.001Z</time></trkpt><trkpt lat="43.68927695116935" lon="5.668286992764405"><ele>250.0</ele><time>2026-04-22T14:04:33.001Z</time></trkpt><trkpt lat="43.68921975904844" lon="5.668151996817135"><ele>250.0</ele><time>2026-04-22T14:04:34.001Z</time></trkpt><trkpt lat="43.689160529195675" lon="5.668001578528925"><ele>250.0</ele><time>2026-04-22T14:04:35.001Z</time></trkpt><trkpt lat="43.68909523596411" lon="5.66784822789649"><ele>247.0</ele><time>2026-04-22T14:04:36.001Z</time></trkpt><trkpt lat="43.68903180539262" lon="5.667712925542536"><ele>244.0</ele><time>2026-04-22T14:04:37.001Z</time></trkpt><trkpt lat="43.688968760115806" lon="5.6675843266129124"><ele>241.0</ele><time>2026-04-22T14:04:38.001Z</time></trkpt><trkpt lat="43.68892387424923" lon="5.667467291477139"><ele>238.0</ele><time>2026-04-22T14:04:39.001Z</time></trkpt><trkpt lat="43.688908223528905" lon="5.667363068193364"><ele>235.0</ele><time>2026-04-22T14:04:40.001Z</time></trkpt><trkpt lat="43.68891181340767" lon="5.667263358884626"><ele>235.0</ele><time>2026-04-22T14:04:41.001Z</time></trkpt><trkpt lat="43.6889324089027" lon="5.667156058920985"><ele>235.0</ele><time>2026-04-22T14:04:42.001Z</time></trkpt><trkpt lat="43.68892950863513" lon="5.667025236488286"><ele>235.0</ele><time>2026-04-22T14:04:43.001Z</time></trkpt><trkpt lat="43.68888281692964" lon="5.6669269914337725"><ele>235.0</ele><time>2026-04-22T14:04:44.001Z</time></trkpt><trkpt lat="43.688802494990554" lon="5.666865819562966"><ele>235.0</ele><time>2026-04-22T14:04:45.001Z</time></trkpt><trkpt lat="43.68870118761784" lon="5.666821259005641"><ele>235.5</ele><time>2026-04-22T14:04:46.001Z</time></trkpt><trkpt lat="43.68857528890561" lon="5.666777117160674"><ele>236.0</ele><time>2026-04-22T14:04:47.001Z</time></trkpt><trkpt lat="43.68843645138118" lon="5.666702355351597"><ele>236.5</ele><time>2026-04-22T14:04:48.001Z</time></trkpt><trkpt lat="43.68828304197171" lon="5.666605800285453"><ele>237.0</ele><time>2026-04-22T14:04:49.001Z</time></trkpt><trkpt lat="43.6881194512507" lon="5.666484599931932"><ele>237.0</ele><time>2026-04-22T14:04:50.001Z</time></trkpt><trkpt lat="43.687940124274014" lon="5.666343028914885"><ele>237.0</ele><time>2026-04-22T14:04:51.001Z</time></trkpt><trkpt lat="43.68775550463735" lon="5.666204533212529"><ele>237.0</ele><time>2026-04-22T14:04:52.001Z</time></trkpt><trkpt lat="43.68756490739866" lon="5.666067919698887"><ele>236.0</ele><time>2026-04-22T14:04:53.001Z</time></trkpt><trkpt lat="43.687375712855044" lon="5.665929906631759"><ele>235.0</ele><time>2026-04-22T14:04:54.001Z</time></trkpt><trkpt lat="43.687202013424844" lon="5.665806456322944"><ele>234.0</ele><time>2026-04-22T14:04:55.001Z</time></trkpt><trkpt lat="43.68704571640112" lon="5.665690790855578"><ele>234.25</ele><time>2026-04-22T14:04:56.001Z</time></trkpt><trkpt lat="43.686922046608196" lon="5.665587834518336"><ele>234.5</ele><time>2026-04-22T14:04:57.001Z</time></trkpt><trkpt lat="43.68681882495088" lon="5.665486315471448"><ele>234.75</ele><time>2026-04-22T14:04:58.001Z</time></trkpt><trkpt lat="43.68673745276191" lon="5.665384700989456"><ele>235.0</ele><time>2026-04-22T14:04:59.001Z</time></trkpt><trkpt lat="43.686678884126835" lon="5.665265649380398"><ele>235.0</ele><time>2026-04-22T14:05:00.001Z</time></trkpt><trkpt lat="43.68663185846406" lon="5.665122437366755"><ele>235.0</ele><time>2026-04-22T14:05:01.001Z</time></trkpt><trkpt lat="43.686584574986206" lon="5.664929734415174"><ele>235.0</ele><time>2026-04-22T14:05:02.001Z</time></trkpt><trkpt lat="43.68647371172374" lon="5.664746332988603"><ele>235.0</ele><time>2026-04-22T14:05:03.001Z</time></trkpt><trkpt lat="43.686292918764394" lon="5.6645284863312835"><ele>234.66666666666666</ele><time>2026-04-22T14:05:04.001Z</time></trkpt><trkpt lat="43.6861588583604" lon="5.66429373101139"><ele>234.33333333333331</ele><time>2026-04-22T14:05:05.001Z</time></trkpt><trkpt lat="43.68604807298142" lon="5.664046359402578"><ele>234.0</ele><time>2026-04-22T14:05:06.001Z</time></trkpt><trkpt lat="43.686041360432455" lon="5.663791445750265"><ele>235.33333333333331</ele><time>2026-04-22T14:05:07.001Z</time></trkpt><trkpt lat="43.685991948403604" lon="5.663554630783333"><ele>236.66666666666666</ele><time>2026-04-22T14:05:08.001Z</time></trkpt><trkpt lat="43.685941964886744" lon="5.6633353834690725"><ele>238.0</ele><time>2026-04-22T14:05:09Z</time></trkpt><trkpt lat="43.68589941142781" lon="5.66312652089092"><ele>238.0</ele><time>2026-04-22T14:05:10Z</time></trkpt><trkpt lat="43.685854566478525" lon="5.662938037981467"><ele>238.0</ele><time>2026-04-22T14:05:11Z</time></trkpt><trkpt lat="43.685804892476405" lon="5.662752794596598"><ele>238.0</ele><time>2026-04-22T14:05:12Z</time></trkpt><trkpt lat="43.68574564942995" lon="5.662583220962822"><ele>238.0</ele><time>2026-04-22T14:05:13Z</time></trkpt><trkpt lat="43.68567332055139" lon="5.662398181824341"><ele>235.33333333333331</ele><time>2026-04-22T14:05:14Z</time></trkpt><trkpt lat="43.68557977948385" lon="5.662207437986927"><ele>232.66666666666669</ele><time>2026-04-22T14:05:15Z</time></trkpt><trkpt lat="43.68547351668339" lon="5.662018602596644"><ele>230.0</ele><time>2026-04-22T14:05:16Z</time></trkpt><trkpt lat="43.68537372642853" lon="5.66182357398101"><ele>229.66666666666669</ele><time>2026-04-22T14:05:17Z</time></trkpt><trkpt lat="43.68527374669821" lon="5.661619451020731"><ele>229.33333333333331</ele><time>2026-04-22T14:05:18Z</time></trkpt><trkpt lat="43.685192329041534" lon="5.661405111080519"><ele>229.0</ele><time>2026-04-22T14:05:19Z</time></trkpt><trkpt lat="43.68511587963471" lon="5.66118322048715"><ele>233.0</ele><time>2026-04-22T14:05:20Z</time></trkpt><trkpt lat="43.68504420843643" lon="5.660954624931594"><ele>237.0</ele><time>2026-04-22T14:05:21Z</time></trkpt><trkpt lat="43.68497435455257" lon="5.660722561051138"><ele>241.0</ele><time>2026-04-22T14:05:22Z</time></trkpt><trkpt lat="43.684916232216395" lon="5.660479069494549"><ele>239.0</ele><time>2026-04-22T14:05:23Z</time></trkpt><trkpt lat="43.68486098669437" lon="5.660231934077898"><ele>237.0</ele><time>2026-04-22T14:05:24Z</time></trkpt><trkpt lat="43.684803966036625" lon="5.659981588326412"><ele>235.0</ele><time>2026-04-22T14:05:25Z</time></trkpt><trkpt lat="43.68474879858411" lon="5.659743199144239"><ele>235.0</ele><time>2026-04-22T14:05:26Z</time></trkpt><trkpt lat="43.68469473233194" lon="5.6594872408776675"><ele>235.0</ele><time>2026-04-22T14:05:27Z</time></trkpt><trkpt lat="43.68464339572794" lon="5.6592364845923235"><ele>235.0</ele><time>2026-04-22T14:05:28Z</time></trkpt><trkpt lat="43.6845858050385" lon="5.658979970120928"><ele>234.66666666666666</ele><time>2026-04-22T14:05:29Z</time></trkpt><trkpt lat="43.684526052786325" lon="5.658751176310763"><ele>234.33333333333331</ele><time>2026-04-22T14:05:30Z</time></trkpt><trkpt lat="43.684468623535444" lon="5.658528213277505"><ele>234.0</ele><time>2026-04-22T14:05:31Z</time></trkpt><trkpt lat="43.684415801295636" lon="5.658304545597536"><ele>235.0</ele><time>2026-04-22T14:05:32Z</time></trkpt><trkpt lat="43.68435514567783" lon="5.6580776256469445"><ele>236.0</ele><time>2026-04-22T14:05:33Z</time></trkpt><trkpt lat="43.68427418014851" lon="5.657851131297962"><ele>237.0</ele><time>2026-04-22T14:05:34Z</time></trkpt><trkpt lat="43.68417451368398" lon="5.657637722538456"><ele>237.0</ele><time>2026-04-22T14:05:35Z</time></trkpt><trkpt lat="43.68406568687619" lon="5.657430908733629"><ele>237.0</ele><time>2026-04-22T14:05:36Z</time></trkpt><trkpt lat="43.683933944538545" lon="5.657232406839551"><ele>237.0</ele><time>2026-04-22T14:05:37Z</time></trkpt><trkpt lat="43.68378573831238" lon="5.657040507817426"><ele>237.0</ele><time>2026-04-22T14:05:38Z</time></trkpt><trkpt lat="43.68362086792909" lon="5.656862705147493"><ele>237.0</ele><time>2026-04-22T14:05:39Z</time></trkpt><trkpt lat="43.68345718704206" lon="5.656698037403422"><ele>237.0</ele><time>2026-04-22T14:05:40Z</time></trkpt><trkpt lat="43.68328899189804" lon="5.6565459131272435"><ele>237.0</ele><time>2026-04-22T14:05:41Z</time></trkpt><trkpt lat="43.68312791610833" lon="5.656404231558515"><ele>237.0</ele><time>2026-04-22T14:05:42Z</time></trkpt><trkpt lat="43.68297378190633" lon="5.656267392109747"><ele>237.0</ele><time>2026-04-22T14:05:43Z</time></trkpt><trkpt lat="43.68282596529189" lon="5.656146488797293"><ele>234.33333333333331</ele><time>2026-04-22T14:05:44Z</time></trkpt><trkpt lat="43.68269155570833" lon="5.656091354351859"><ele>231.66666666666666</ele><time>2026-04-22T14:05:45Z</time></trkpt><trkpt lat="43.682460183519574" lon="5.655965486872954"><ele>229.0</ele><time>2026-04-22T14:05:46Z</time></trkpt><trkpt lat="43.68226606780933" lon="5.655904932477997"><ele>229.0</ele><time>2026-04-22T14:05:47Z</time></trkpt><trkpt lat="43.682075774383016" lon="5.655857541526592"><ele>229.0</ele><time>2026-04-22T14:05:48Z</time></trkpt><trkpt lat="43.68190283642826" lon="5.655827604507628"><ele>229.0</ele><time>2026-04-22T14:05:49Z</time></trkpt><trkpt lat="43.681741475619184" lon="5.655799726557936"><ele>228.33333333333331</ele><time>2026-04-22T14:05:50Z</time></trkpt><trkpt lat="43.68157202600319" lon="5.655770722523027"><ele>227.66666666666669</ele><time>2026-04-22T14:05:51Z</time></trkpt><trkpt lat="43.681399786580116" lon="5.6557368082831445"><ele>227.0</ele><time>2026-04-22T14:05:52Z</time></trkpt><trkpt lat="43.68122391937989" lon="5.655706858730792"><ele>228.66666666666669</ele><time>2026-04-22T14:05:53Z</time></trkpt><trkpt lat="43.68104403690863" lon="5.655673564264262"><ele>230.33333333333331</ele><time>2026-04-22T14:05:54Z</time></trkpt><trkpt lat="43.680860572463246" lon="5.655635710599583"><ele>232.0</ele><time>2026-04-22T14:05:55Z</time></trkpt><trkpt lat="43.680677782029576" lon="5.655593929365397"><ele>232.0</ele><time>2026-04-22T14:05:56Z</time></trkpt><trkpt lat="43.68049549406369" lon="5.655543261445506"><ele>232.0</ele><time>2026-04-22T14:05:57Z</time></trkpt><trkpt lat="43.6803023015881" lon="5.655483847405609"><ele>232.0</ele><time>2026-04-22T14:05:58Z</time></trkpt><trkpt lat="43.68013557362619" lon="5.655421388572851"><ele>232.66666666666666</ele><time>2026-04-22T14:05:59Z</time></trkpt><trkpt lat="43.679961756789005" lon="5.655340655439523"><ele>233.33333333333331</ele><time>2026-04-22T14:06:00Z</time></trkpt><trkpt lat="43.679787401125886" lon="5.655254272847502"><ele>234.0</ele><time>2026-04-22T14:06:01Z</time></trkpt><trkpt lat="43.67960626504795" lon="5.655138667987806"><ele>233.66666666666669</ele><time>2026-04-22T14:06:02Z</time></trkpt><trkpt lat="43.67942878082243" lon="5.655016978450227"><ele>233.33333333333334</ele><time>2026-04-22T14:06:03Z</time></trkpt><trkpt lat="43.679254739228035" lon="5.654890830227436"><ele>233.0</ele><time>2026-04-22T14:06:04Z</time></trkpt><trkpt lat="43.67907289103452" lon="5.65473869495151"><ele>233.0</ele><time>2026-04-22T14:06:05Z</time></trkpt><trkpt lat="43.67887300011875" lon="5.654577659007236"><ele>233.0</ele><time>2026-04-22T14:06:06Z</time></trkpt><trkpt lat="43.678673952572176" lon="5.654417053861859"><ele>232.33333333333334</ele><time>2026-04-22T14:06:07Z</time></trkpt><trkpt lat="43.67849956696745" lon="5.6542680628446575"><ele>231.66666666666669</ele><time>2026-04-22T14:06:08Z</time></trkpt><trkpt lat="43.67833809917112" lon="5.65413702865991"><ele>231.0</ele><time>2026-04-22T14:06:09Z</time></trkpt><trkpt lat="43.67817214916872" lon="5.654001311432434"><ele>231.0</ele><time>2026-04-22T14:06:10Z</time></trkpt><trkpt lat="43.67798997374541" lon="5.653849789687417"><ele>231.0</ele><time>2026-04-22T14:06:11Z</time></trkpt><trkpt lat="43.67779323563554" lon="5.653682244882116"><ele>231.0</ele><time>2026-04-22T14:06:12Z</time></trkpt><trkpt lat="43.67758116318345" lon="5.653505248027121"><ele>229.5</ele><time>2026-04-22T14:06:13Z</time></trkpt><trkpt lat="43.67735918150603" lon="5.653323838075083"><ele>228.0</ele><time>2026-04-22T14:06:14Z</time></trkpt><trkpt lat="43.67712399429845" lon="5.653140308895962"><ele>231.5</ele><time>2026-04-22T14:06:15Z</time></trkpt><trkpt lat="43.67688275728693" lon="5.652947825252256"><ele>235.0</ele><time>2026-04-22T14:06:16Z</time></trkpt><trkpt lat="43.67664437963493" lon="5.652738484407661"><ele>235.0</ele><time>2026-04-22T14:06:17Z</time></trkpt><trkpt lat="43.676403350512004" lon="5.652518368483355"><ele>235.0</ele><time>2026-04-22T14:06:18Z</time></trkpt><trkpt lat="43.676156118202975" lon="5.652299630164197"><ele>232.0</ele><time>2026-04-22T14:06:19Z</time></trkpt><trkpt lat="43.67590503075067" lon="5.6520722153815175"><ele>229.0</ele><time>2026-04-22T14:06:20Z</time></trkpt><trkpt lat="43.675646800943156" lon="5.65184482462454"><ele>229.0</ele><time>2026-04-22T14:06:21Z</time></trkpt><trkpt lat="43.67538691932247" lon="5.651621815380865"><ele>229.0</ele><time>2026-04-22T14:06:22Z</time></trkpt><trkpt lat="43.67512053597806" lon="5.651396924746549"><ele>230.0</ele><time>2026-04-22T14:06:23Z</time></trkpt><trkpt lat="43.67485138766051" lon="5.6511714291444815"><ele>231.0</ele><time>2026-04-22T14:06:24Z</time></trkpt><trkpt lat="43.674582465562295" lon="5.650951866257109"><ele>232.5</ele><time>2026-04-22T14:06:25Z</time></trkpt><trkpt lat="43.67431334178919" lon="5.650744937090698"><ele>234.0</ele><time>2026-04-22T14:06:26Z</time></trkpt><trkpt lat="43.6740374540486" lon="5.650552464776675"><ele>234.0</ele><time>2026-04-22T14:06:27Z</time></trkpt><trkpt lat="43.67375208521119" lon="5.650379114824904"><ele>234.0</ele><time>2026-04-22T14:06:28Z</time></trkpt><trkpt lat="43.673458256634156" lon="5.6502106475854115"><ele>230.5</ele><time>2026-04-22T14:06:29Z</time></trkpt><trkpt lat="43.673161987985615" lon="5.650042994697489"><ele>227.0</ele><time>2026-04-22T14:06:30Z</time></trkpt><trkpt lat="43.672867626637036" lon="5.649872083684728"><ele>228.0</ele><time>2026-04-22T14:06:31.001Z</time></trkpt><trkpt lat="43.67258061349417" lon="5.649698407321715"><ele>229.0</ele><time>2026-04-22T14:06:32.001Z</time></trkpt><trkpt lat="43.672293271430526" lon="5.649527044135552"><ele>228.5</ele><time>2026-04-22T14:06:33.001Z</time></trkpt><trkpt lat="43.67202653176457" lon="5.649359223343046"><ele>228.0</ele><time>2026-04-22T14:06:34.001Z</time></trkpt><trkpt lat="43.671771499179904" lon="5.649205882096081"><ele>230.0</ele><time>2026-04-22T14:06:35.001Z</time></trkpt><trkpt lat="43.67151932455674" lon="5.649056456303394"><ele>232.0</ele><time>2026-04-22T14:06:36.001Z</time></trkpt><trkpt lat="43.671265314529464" lon="5.648920235024225"><ele>236.5</ele><time>2026-04-22T14:06:37.001Z</time></trkpt><trkpt lat="43.67099641133497" lon="5.648784157603088"><ele>241.0</ele><time>2026-04-22T14:06:38.001Z</time></trkpt><trkpt lat="43.67072373678709" lon="5.648669441573811"><ele>237.5</ele><time>2026-04-22T14:06:39.001Z</time></trkpt><trkpt lat="43.670439685337236" lon="5.648584725919143"><ele>234.0</ele><time>2026-04-22T14:06:40.001Z</time></trkpt><trkpt lat="43.67016821291438" lon="5.648524699590563"><ele>234.0</ele><time>2026-04-22T14:06:41.001Z</time></trkpt><trkpt lat="43.66991970919087" lon="5.648468332358354"><ele>234.0</ele><time>2026-04-22T14:06:42.001Z</time></trkpt><trkpt lat="43.66968887983154" lon="5.648404781487161"><ele>234.0</ele><time>2026-04-22T14:06:43.001Z</time></trkpt><trkpt lat="43.66945880476946" lon="5.648337343554807"><ele>234.0</ele><time>2026-04-22T14:06:44.001Z</time></trkpt><trkpt lat="43.669251261221355" lon="5.648268452930655"><ele>234.0</ele><time>2026-04-22T14:06:45.001Z</time></trkpt><trkpt lat="43.66905947476838" lon="5.648196755982814"><ele>233.66666666666669</ele><time>2026-04-22T14:06:46.001Z</time></trkpt><trkpt lat="43.66885938283652" lon="5.6481096017703365"><ele>233.33333333333334</ele><time>2026-04-22T14:06:47.001Z</time></trkpt><trkpt lat="43.668659673253266" lon="5.648004499597313"><ele>233.0</ele><time>2026-04-22T14:06:48.001Z</time></trkpt><trkpt lat="43.668461234745386" lon="5.647881134025989"><ele>233.66666666666669</ele><time>2026-04-22T14:06:49.001Z</time></trkpt><trkpt lat="43.668266272381075" lon="5.647747501005315"><ele>234.33333333333331</ele><time>2026-04-22T14:06:50.001Z</time></trkpt><trkpt lat="43.668075230817045" lon="5.647605324689309"><ele>235.0</ele><time>2026-04-22T14:06:51.001Z</time></trkpt><trkpt lat="43.66789537672252" lon="5.647450319336169"><ele>236.0</ele><time>2026-04-22T14:06:52.001Z</time></trkpt><trkpt lat="43.66772149915068" lon="5.647281538827596"><ele>237.0</ele><time>2026-04-22T14:06:53.001Z</time></trkpt><trkpt lat="43.66755696659938" lon="5.647097416372964"><ele>238.0</ele><time>2026-04-22T14:06:54.001Z</time></trkpt><trkpt lat="43.667399797240584" lon="5.646911825777634"><ele>238.0</ele><time>2026-04-22T14:06:55.001Z</time></trkpt><trkpt lat="43.66726089359536" lon="5.646726855707289"><ele>238.0</ele><time>2026-04-22T14:06:56.001Z</time></trkpt><trkpt lat="43.66713582797443" lon="5.646539305922265"><ele>238.0</ele><time>2026-04-22T14:06:57.001Z</time></trkpt><trkpt lat="43.66701376133107" lon="5.646344128650346"><ele>240.0</ele><time>2026-04-22T14:06:58.001Z</time></trkpt><trkpt lat="43.66688271132803" lon="5.646132897584522"><ele>242.0</ele><time>2026-04-22T14:06:59.001Z</time></trkpt><trkpt lat="43.66673927765723" lon="5.645917992317221"><ele>244.0</ele><time>2026-04-22T14:07:00.001Z</time></trkpt><trkpt lat="43.666597464565506" lon="5.645699769739502"><ele>244.0</ele><time>2026-04-22T14:07:01.001Z</time></trkpt><trkpt lat="43.66646026744443" lon="5.645489793055956"><ele>244.0</ele><time>2026-04-22T14:07:02.001Z</time></trkpt><trkpt lat="43.66632452470377" lon="5.645282544578959"><ele>244.0</ele><time>2026-04-22T14:07:03.001Z</time></trkpt><trkpt lat="43.66619284479625" lon="5.645086397438286"><ele>244.0</ele><time>2026-04-22T14:07:04.001Z</time></trkpt><trkpt lat="43.66606178040211" lon="5.6448969213510045"><ele>244.0</ele><time>2026-04-22T14:07:05.001Z</time></trkpt><trkpt lat="43.66592277152072" lon="5.644706642649622"><ele>244.0</ele><time>2026-04-22T14:07:06.001Z</time></trkpt><trkpt lat="43.66576763418123" lon="5.644495618882677"><ele>240.0</ele><time>2026-04-22T14:07:07.001Z</time></trkpt><trkpt lat="43.665583488432446" lon="5.644302745092536"><ele>236.0</ele><time>2026-04-22T14:07:08.001Z</time></trkpt><trkpt lat="43.66537589356699" lon="5.644117213230281"><ele>242.0</ele><time>2026-04-22T14:07:09.001Z</time></trkpt><trkpt lat="43.66515768350235" lon="5.643924914645813"><ele>248.0</ele><time>2026-04-22T14:07:10.001Z</time></trkpt><trkpt lat="43.66493354969126" lon="5.643721702577284"><ele>242.0</ele><time>2026-04-22T14:07:11.001Z</time></trkpt><trkpt lat="43.66470861126424" lon="5.643506729411975"><ele>236.0</ele><time>2026-04-22T14:07:12.001Z</time></trkpt><trkpt lat="43.66448650372729" lon="5.643291694127796"><ele>244.5</ele><time>2026-04-22T14:07:13.001Z</time></trkpt><trkpt lat="43.66427261757775" lon="5.643072657381889"><ele>253.0</ele><time>2026-04-22T14:07:14.001Z</time></trkpt><trkpt lat="43.66407586141984" lon="5.642842445465655"><ele>242.0</ele><time>2026-04-22T14:07:15Z</time></trkpt><trkpt lat="43.663878242339614" lon="5.642590414868132"><ele>231.0</ele><time>2026-04-22T14:07:16Z</time></trkpt><trkpt lat="43.6636708811699" lon="5.642326117962081"><ele>232.5</ele><time>2026-04-22T14:07:17Z</time></trkpt><trkpt lat="43.663457200056655" lon="5.642058786055023"><ele>234.0</ele><time>2026-04-22T14:07:18Z</time></trkpt><trkpt lat="43.66324636569064" lon="5.641793113995813"><ele>234.0</ele><time>2026-04-22T14:07:19Z</time></trkpt><trkpt lat="43.66303992812704" lon="5.64153253036697"><ele>234.0</ele><time>2026-04-22T14:07:20Z</time></trkpt><trkpt lat="43.66284467321343" lon="5.6412684486402505"><ele>238.0</ele><time>2026-04-22T14:07:21Z</time></trkpt><trkpt lat="43.66265887173372" lon="5.640996817953884"><ele>242.0</ele><time>2026-04-22T14:07:22Z</time></trkpt><trkpt lat="43.662482062151845" lon="5.64070525521479"><ele>242.0</ele><time>2026-04-22T14:07:23Z</time></trkpt><trkpt lat="43.66232312043162" lon="5.640398772560526"><ele>242.0</ele><time>2026-04-22T14:07:24Z</time></trkpt><trkpt lat="43.6621711011901" lon="5.640081281779553"><ele>241.0</ele><time>2026-04-22T14:07:25Z</time></trkpt><trkpt lat="43.66202068350525" lon="5.639762317470151"><ele>240.0</ele><time>2026-04-22T14:07:26Z</time></trkpt><trkpt lat="43.66186966079041" lon="5.639442709141354"><ele>240.0</ele><time>2026-04-22T14:07:27Z</time></trkpt><trkpt lat="43.66172088410352" lon="5.639121125135295"><ele>240.0</ele><time>2026-04-22T14:07:28Z</time></trkpt><trkpt lat="43.66156842059804" lon="5.638803906895121"><ele>234.5</ele><time>2026-04-22T14:07:29Z</time></trkpt><trkpt lat="43.66140216185398" lon="5.638477806549137"><ele>229.0</ele><time>2026-04-22T14:07:30Z</time></trkpt><trkpt lat="43.66124453438846" lon="5.638148610168002"><ele>236.0</ele><time>2026-04-22T14:07:31Z</time></trkpt><trkpt lat="43.66108858955594" lon="5.637830672222995"><ele>243.0</ele><time>2026-04-22T14:07:32Z</time></trkpt><trkpt lat="43.66093578478653" lon="5.637522414939899"><ele>243.0</ele><time>2026-04-22T14:07:33Z</time></trkpt><trkpt lat="43.66078528137627" lon="5.637218740403522"><ele>243.0</ele><time>2026-04-22T14:07:34Z</time></trkpt><trkpt lat="43.66061487157487" lon="5.63691697332451"><ele>250.0</ele><time>2026-04-22T14:07:35Z</time></trkpt><trkpt lat="43.660424686674645" lon="5.636632274379324"><ele>257.0</ele><time>2026-04-22T14:07:36Z</time></trkpt><trkpt lat="43.66021899232704" lon="5.636367584179262"><ele>247.5</ele><time>2026-04-22T14:07:37Z</time></trkpt><trkpt lat="43.66000953622622" lon="5.6361039768021834"><ele>238.0</ele><time>2026-04-22T14:07:38Z</time></trkpt><trkpt lat="43.65980577942108" lon="5.635837411064332"><ele>238.0</ele><time>2026-04-22T14:07:39Z</time></trkpt><trkpt lat="43.65962479843321" lon="5.635555306156412"><ele>238.0</ele><time>2026-04-22T14:07:40Z</time></trkpt><trkpt lat="43.659454042259874" lon="5.635259374677001"><ele>236.0</ele><time>2026-04-22T14:07:41Z</time></trkpt><trkpt lat="43.659292838894046" lon="5.634952465373777"><ele>234.0</ele><time>2026-04-22T14:07:42Z</time></trkpt><trkpt lat="43.65914692323017" lon="5.634632279384573"><ele>231.0</ele><time>2026-04-22T14:07:43Z</time></trkpt><trkpt lat="43.65900948402154" lon="5.634289596251255"><ele>228.0</ele><time>2026-04-22T14:07:44Z</time></trkpt><trkpt lat="43.658865671144355" lon="5.633929729888738"><ele>227.0</ele><time>2026-04-22T14:07:45Z</time></trkpt><trkpt lat="43.65872858055001" lon="5.6335626238527325"><ele>226.0</ele><time>2026-04-22T14:07:46Z</time></trkpt><trkpt lat="43.658589937551" lon="5.633187724163987"><ele>231.5</ele><time>2026-04-22T14:07:47Z</time></trkpt><trkpt lat="43.65845214980601" lon="5.632802555347315"><ele>237.0</ele><time>2026-04-22T14:07:48Z</time></trkpt><trkpt lat="43.65832526492722" lon="5.632405639316568"><ele>237.0</ele><time>2026-04-22T14:07:49Z</time></trkpt><trkpt lat="43.65820464552777" lon="5.6319982504014785"><ele>237.0</ele><time>2026-04-22T14:07:50Z</time></trkpt><trkpt lat="43.658088894429405" lon="5.631597134818059"><ele>232.5</ele><time>2026-04-22T14:07:51Z</time></trkpt><trkpt lat="43.65797140380426" lon="5.631214390812801"><ele>228.0</ele><time>2026-04-22T14:07:52Z</time></trkpt><trkpt lat="43.65785110932826" lon="5.630851712304594"><ele>231.0</ele><time>2026-04-22T14:07:53Z</time></trkpt><trkpt lat="43.65772422259333" lon="5.63050710349525"><ele>234.0</ele><time>2026-04-22T14:07:54Z</time></trkpt><trkpt lat="43.65757728921527" lon="5.630161918400565"><ele>234.0</ele><time>2026-04-22T14:07:55Z</time></trkpt><trkpt lat="43.65741750099391" lon="5.629823524004503"><ele>234.0</ele><time>2026-04-22T14:07:56Z</time></trkpt><trkpt lat="43.65725677050654" lon="5.6294958547082965"><ele>230.5</ele><time>2026-04-22T14:07:57Z</time></trkpt><trkpt lat="43.657099344395554" lon="5.629175367078372"><ele>227.0</ele><time>2026-04-22T14:07:58Z</time></trkpt><trkpt lat="43.65694750042251" lon="5.628862442598187"><ele>233.0</ele><time>2026-04-22T14:07:59Z</time></trkpt><trkpt lat="43.65683428755572" lon="5.628538962451631"><ele>239.0</ele><time>2026-04-22T14:08:00Z</time></trkpt><trkpt lat="43.65672983047479" lon="5.628227236790375"><ele>239.0</ele><time>2026-04-22T14:08:01Z</time></trkpt><trkpt lat="43.656641100921" lon="5.627908077249144"><ele>239.0</ele><time>2026-04-22T14:08:02Z</time></trkpt><trkpt lat="43.656563875153786" lon="5.627557957651589"><ele>234.0</ele><time>2026-04-22T14:08:03Z</time></trkpt><trkpt lat="43.65650923418404" lon="5.6271863658403385"><ele>229.0</ele><time>2026-04-22T14:08:04Z</time></trkpt><trkpt lat="43.656473773162254" lon="5.626820526125258"><ele>227.5</ele><time>2026-04-22T14:08:05Z</time></trkpt><trkpt lat="43.656454242230225" lon="5.626479745017901"><ele>226.0</ele><time>2026-04-22T14:08:06Z</time></trkpt><trkpt lat="43.656431250633005" lon="5.626159468816351"><ele>225.66666666666666</ele><time>2026-04-22T14:08:07Z</time></trkpt><trkpt lat="43.65640447269277" lon="5.625854428056358"><ele>225.33333333333331</ele><time>2026-04-22T14:08:08Z</time></trkpt><trkpt lat="43.65637935276937" lon="5.6255622506296925"><ele>225.0</ele><time>2026-04-22T14:08:09Z</time></trkpt><trkpt lat="43.65634445592209" lon="5.625266479698445"><ele>224.0</ele><time>2026-04-22T14:08:10Z</time></trkpt><trkpt lat="43.6563117252868" lon="5.62496395560805"><ele>223.0</ele><time>2026-04-22T14:08:11Z</time></trkpt><trkpt lat="43.65627664182295" lon="5.6246200091202345"><ele>223.0</ele><time>2026-04-22T14:08:12Z</time></trkpt><trkpt lat="43.65622673109279" lon="5.624258794513153"><ele>223.0</ele><time>2026-04-22T14:08:13Z</time></trkpt><trkpt lat="43.656175968578694" lon="5.624087301724097"><ele>223.0</ele><time>2026-04-22T14:08:14Z</time></trkpt><trkpt lat="43.65612110675112" lon="5.623826478413389"><ele>230.0</ele><time>2026-04-22T14:08:15Z</time></trkpt><trkpt lat="43.65604641737158" lon="5.623553624182735"><ele>237.0</ele><time>2026-04-22T14:08:16Z</time></trkpt><trkpt lat="43.65596856907504" lon="5.6232714620719575"><ele>244.0</ele><time>2026-04-22T14:08:17Z</time></trkpt><trkpt lat="43.65589971200652" lon="5.622991908717076"><ele>240.0</ele><time>2026-04-22T14:08:18Z</time></trkpt><trkpt lat="43.65583221767997" lon="5.622700913787274"><ele>236.0</ele><time>2026-04-22T14:08:19Z</time></trkpt><trkpt lat="43.65575794577866" lon="5.622406181943237"><ele>232.0</ele><time>2026-04-22T14:08:20Z</time></trkpt><trkpt lat="43.6556772299535" lon="5.622108150415642"><ele>229.5</ele><time>2026-04-22T14:08:21Z</time></trkpt><trkpt lat="43.65559976653177" lon="5.621788244569937"><ele>227.0</ele><time>2026-04-22T14:08:22Z</time></trkpt><trkpt lat="43.65552082350707" lon="5.621450256600863"><ele>224.5</ele><time>2026-04-22T14:08:23Z</time></trkpt><trkpt lat="43.655434351772435" lon="5.621099325482664"><ele>222.0</ele><time>2026-04-22T14:08:24Z</time></trkpt><trkpt lat="43.65534660136559" lon="5.6207361171078825"><ele>231.0</ele><time>2026-04-22T14:08:25Z</time></trkpt><trkpt lat="43.655266881371325" lon="5.620357832833564"><ele>240.0</ele><time>2026-04-22T14:08:26Z</time></trkpt><trkpt lat="43.65519380202103" lon="5.6199881627482045"><ele>240.0</ele><time>2026-04-22T14:08:27Z</time></trkpt><trkpt lat="43.65511388842263" lon="5.619627896292293"><ele>240.0</ele><time>2026-04-22T14:08:28Z</time></trkpt><trkpt lat="43.65503668116956" lon="5.619298010986281"><ele>234.5</ele><time>2026-04-22T14:08:29Z</time></trkpt><trkpt lat="43.65495687500541" lon="5.618980038742315"><ele>229.0</ele><time>2026-04-22T14:08:30Z</time></trkpt><trkpt lat="43.654883210466906" lon="5.618672178305474"><ele>227.0</ele><time>2026-04-22T14:08:31Z</time></trkpt><trkpt lat="43.654806600308035" lon="5.618358414464705"><ele>225.0</ele><time>2026-04-22T14:08:32Z</time></trkpt><trkpt lat="43.6547383662212" lon="5.618045242832107"><ele>224.5</ele><time>2026-04-22T14:08:33Z</time></trkpt><trkpt lat="43.654661174638164" lon="5.617739404296698"><ele>224.0</ele><time>2026-04-22T14:08:34Z</time></trkpt><trkpt lat="43.65457840764994" lon="5.617409822585305"><ele>224.0</ele><time>2026-04-22T14:08:35Z</time></trkpt><trkpt lat="43.65449522518602" lon="5.61706027211656"><ele>224.0</ele><time>2026-04-22T14:08:36Z</time></trkpt><trkpt lat="43.65442145214178" lon="5.61669924970614"><ele>231.0</ele><time>2026-04-22T14:08:37Z</time></trkpt><trkpt lat="43.654361754176676" lon="5.616331848768632"><ele>238.0</ele><time>2026-04-22T14:08:38Z</time></trkpt><trkpt lat="43.65432197558365" lon="5.615960424899975"><ele>238.0</ele><time>2026-04-22T14:08:39Z</time></trkpt><trkpt lat="43.65428855595305" lon="5.615581252022741"><ele>238.0</ele><time>2026-04-22T14:08:40Z</time></trkpt><trkpt lat="43.654260462722775" lon="5.6152001421820446"><ele>236.0</ele><time>2026-04-22T14:08:41Z</time></trkpt><trkpt lat="43.65422724275405" lon="5.614812565961554"><ele>234.0</ele><time>2026-04-22T14:08:42Z</time></trkpt><trkpt lat="43.65419367534288" lon="5.6144177763080085"><ele>233.5</ele><time>2026-04-22T14:08:43.001Z</time></trkpt><trkpt lat="43.65414252627775" lon="5.614029940125172"><ele>233.0</ele><time>2026-04-22T14:08:44.001Z</time></trkpt><trkpt lat="43.654070330394866" lon="5.613655477028264"><ele>231.5</ele><time>2026-04-22T14:08:45.001Z</time></trkpt><trkpt lat="43.65398634315244" lon="5.613299711488001"><ele>230.0</ele><time>2026-04-22T14:08:46.001Z</time></trkpt><trkpt lat="43.653879526600235" lon="5.612949795918524"><ele>227.0</ele><time>2026-04-22T14:08:47.001Z</time></trkpt><trkpt lat="43.65375501733321" lon="5.61260725002608"><ele>224.0</ele><time>2026-04-22T14:08:48.001Z</time></trkpt><trkpt lat="43.65362328249701" lon="5.612270140979835"><ele>233.0</ele><time>2026-04-22T14:08:49.001Z</time></trkpt><trkpt lat="43.65347543031418" lon="5.6119390204391655"><ele>242.0</ele><time>2026-04-22T14:08:50.001Z</time></trkpt><trkpt lat="43.65330479670237" lon="5.611612559739854"><ele>242.0</ele><time>2026-04-22T14:08:51.001Z</time></trkpt><trkpt lat="43.65311900910987" lon="5.611300289251288"><ele>242.0</ele><time>2026-04-22T14:08:52.001Z</time></trkpt><trkpt lat="43.652920760101544" lon="5.610998099773217"><ele>239.0</ele><time>2026-04-22T14:08:53.001Z</time></trkpt><trkpt lat="43.652730822035004" lon="5.610711113165618"><ele>236.0</ele><time>2026-04-22T14:08:54.001Z</time></trkpt><trkpt lat="43.65255050981437" lon="5.610424695622176"><ele>231.5</ele><time>2026-04-22T14:08:55.001Z</time></trkpt><trkpt lat="43.652375710290706" lon="5.610137740805291"><ele>227.0</ele><time>2026-04-22T14:08:56.001Z</time></trkpt><trkpt lat="43.65219390938128" lon="5.6098550567668966"><ele>227.0</ele><time>2026-04-22T14:08:57.001Z</time></trkpt><trkpt lat="43.65201331127303" lon="5.609560913876856"><ele>227.0</ele><time>2026-04-22T14:08:58.001Z</time></trkpt><trkpt lat="43.6518276581607" lon="5.609270828854887"><ele>232.5</ele><time>2026-04-22T14:08:59.001Z</time></trkpt><trkpt lat="43.6516523176001" lon="5.608978576343852"><ele>238.0</ele><time>2026-04-22T14:09:00.001Z</time></trkpt><trkpt lat="43.65148691811376" lon="5.608680615122713"><ele>232.0</ele><time>2026-04-22T14:09:01.001Z</time></trkpt><trkpt lat="43.65132453841483" lon="5.608378697029778"><ele>226.0</ele><time>2026-04-22T14:09:02.001Z</time></trkpt><trkpt lat="43.651168224078035" lon="5.608072674376011"><ele>224.5</ele><time>2026-04-22T14:09:03.001Z</time></trkpt><trkpt lat="43.65101896358033" lon="5.60776859796255"><ele>223.0</ele><time>2026-04-22T14:09:04.001Z</time></trkpt><trkpt lat="43.65087026929627" lon="5.607460735355221"><ele>223.0</ele><time>2026-04-22T14:09:05.001Z</time></trkpt><trkpt lat="43.65072740243957" lon="5.6071488576917"><ele>223.0</ele><time>2026-04-22T14:09:06.001Z</time></trkpt><trkpt lat="43.65059487651389" lon="5.606831951583085"><ele>222.0</ele><time>2026-04-22T14:09:07.001Z</time></trkpt><trkpt lat="43.650466212670935" lon="5.606515117180369"><ele>221.0</ele><time>2026-04-22T14:09:08.001Z</time></trkpt><trkpt lat="43.65034441610633" lon="5.606196711211511"><ele>223.0</ele><time>2026-04-22T14:09:09.001Z</time></trkpt><trkpt lat="43.650225967860926" lon="5.605875653780241"><ele>225.0</ele><time>2026-04-22T14:09:10.001Z</time></trkpt><trkpt lat="43.65011280920384" lon="5.605557272508838"><ele>224.0</ele><time>2026-04-22T14:09:11.001Z</time></trkpt><trkpt lat="43.65000864397903" lon="5.6052312584380894"><ele>223.0</ele><time>2026-04-22T14:09:12.001Z</time></trkpt><trkpt lat="43.64990724019697" lon="5.604911112998211"><ele>223.0</ele><time>2026-04-22T14:09:13.001Z</time></trkpt><trkpt lat="43.64981387036896" lon="5.604607252329567"><ele>223.0</ele><time>2026-04-22T14:09:14.001Z</time></trkpt><trkpt lat="43.649722303561454" lon="5.604319570582403"><ele>221.5</ele><time>2026-04-22T14:09:15.001Z</time></trkpt><trkpt lat="43.64962262485132" lon="5.604009372334549"><ele>220.0</ele><time>2026-04-22T14:09:16.001Z</time></trkpt><trkpt lat="43.64951800095405" lon="5.603697368883957"><ele>220.0</ele><time>2026-04-22T14:09:17.001Z</time></trkpt><trkpt lat="43.64942088126445" lon="5.603394570981792"><ele>220.0</ele><time>2026-04-22T14:09:18.001Z</time></trkpt><trkpt lat="43.649322909860494" lon="5.603098905657872"><ele>220.0</ele><time>2026-04-22T14:09:19.001Z</time></trkpt><trkpt lat="43.64922762042158" lon="5.602814545730592"><ele>220.0</ele><time>2026-04-22T14:09:20.001Z</time></trkpt><trkpt lat="43.649129289407654" lon="5.6025355786755195"><ele>220.0</ele><time>2026-04-22T14:09:21Z</time></trkpt><trkpt lat="43.64903016769205" lon="5.602250120524779"><ele>220.0</ele><time>2026-04-22T14:09:22Z</time></trkpt><trkpt lat="43.64892805539661" lon="5.6019587918912315"><ele>219.66666666666666</ele><time>2026-04-22T14:09:23Z</time></trkpt><trkpt lat="43.64883097749016" lon="5.601684313139336"><ele>219.33333333333331</ele><time>2026-04-22T14:09:24Z</time></trkpt><trkpt lat="43.64874045806324" lon="5.60140428167379"><ele>219.0</ele><time>2026-04-22T14:09:25Z</time></trkpt><trkpt lat="43.64864179930299" lon="5.601111543871256"><ele>218.5</ele><time>2026-04-22T14:09:26Z</time></trkpt><trkpt lat="43.648543749106395" lon="5.6008181221352995"><ele>218.0</ele><time>2026-04-22T14:09:27Z</time></trkpt><trkpt lat="43.648450888694335" lon="5.600547288949117"><ele>218.0</ele><time>2026-04-22T14:09:28Z</time></trkpt><trkpt lat="43.64836131854704" lon="5.600272416200412"><ele>218.0</ele><time>2026-04-22T14:09:29Z</time></trkpt><trkpt lat="43.648266702997205" lon="5.599985724058409"><ele>218.0</ele><time>2026-04-22T14:09:30Z</time></trkpt><trkpt lat="43.64816387448007" lon="5.599691246924001"><ele>217.5</ele><time>2026-04-22T14:09:31Z</time></trkpt><trkpt lat="43.648064023136264" lon="5.5993984934028225"><ele>217.0</ele><time>2026-04-22T14:09:32Z</time></trkpt><trkpt lat="43.647969240559014" lon="5.599119768928087"><ele>217.0</ele><time>2026-04-22T14:09:33Z</time></trkpt><trkpt lat="43.64788523967767" lon="5.598846375794162"><ele>217.0</ele><time>2026-04-22T14:09:34Z</time></trkpt><trkpt lat="43.647794362204834" lon="5.598559723291458"><ele>217.0</ele><time>2026-04-22T14:09:35Z</time></trkpt><trkpt lat="43.64769085027346" lon="5.598251946313224"><ele>217.0</ele><time>2026-04-22T14:09:36Z</time></trkpt><trkpt lat="43.64757169123844" lon="5.59792463499111"><ele>217.0</ele><time>2026-04-22T14:09:37Z</time></trkpt><trkpt lat="43.647453683249786" lon="5.5975947806440995"><ele>217.0</ele><time>2026-04-22T14:09:38Z</time></trkpt><trkpt lat="43.64734029777716" lon="5.59724741838895"><ele>217.0</ele><time>2026-04-22T14:09:39Z</time></trkpt><trkpt lat="43.64722789113284" lon="5.5968936602680515"><ele>215.5</ele><time>2026-04-22T14:09:40Z</time></trkpt><trkpt lat="43.6471127450444" lon="5.596534699840887"><ele>214.0</ele><time>2026-04-22T14:09:41Z</time></trkpt><trkpt lat="43.646996356048234" lon="5.5961758677579905"><ele>215.5</ele><time>2026-04-22T14:09:42Z</time></trkpt><trkpt lat="43.646882129502444" lon="5.595814791373674"><ele>217.0</ele><time>2026-04-22T14:09:43Z</time></trkpt><trkpt lat="43.64677369580204" lon="5.595463288525689"><ele>216.0</ele><time>2026-04-22T14:09:44Z</time></trkpt><trkpt lat="43.64667510438511" lon="5.595128667523889"><ele>215.0</ele><time>2026-04-22T14:09:45Z</time></trkpt><trkpt lat="43.64658391052551" lon="5.594817938412381"><ele>215.0</ele><time>2026-04-22T14:09:46Z</time></trkpt><trkpt lat="43.64649259621331" lon="5.594511792127048"><ele>215.0</ele><time>2026-04-22T14:09:47Z</time></trkpt><trkpt lat="43.64641138359438" lon="5.594226386517593"><ele>214.66666666666669</ele><time>2026-04-22T14:09:48Z</time></trkpt><trkpt lat="43.646348119397054" lon="5.5939520213340765"><ele>214.33333333333331</ele><time>2026-04-22T14:09:49Z</time></trkpt><trkpt lat="43.64630162954905" lon="5.593686587198925"><ele>214.0</ele><time>2026-04-22T14:09:50Z</time></trkpt><trkpt lat="43.64627596923896" lon="5.593439888473531"><ele>214.0</ele><time>2026-04-22T14:09:51Z</time></trkpt><trkpt lat="43.646265352621896" lon="5.5932269337884515"><ele>214.0</ele><time>2026-04-22T14:09:52Z</time></trkpt><trkpt lat="43.64626693448807" lon="5.593029442801306"><ele>214.0</ele><time>2026-04-22T14:09:53Z</time></trkpt><trkpt lat="43.646271336275774" lon="5.592842699456122"><ele>214.0</ele><time>2026-04-22T14:09:54Z</time></trkpt><trkpt lat="43.64628064634371" lon="5.592664596505181"><ele>214.0</ele><time>2026-04-22T14:09:55Z</time></trkpt><trkpt lat="43.646289374116066" lon="5.59248573478317"><ele>214.0</ele><time>2026-04-22T14:09:56Z</time></trkpt><trkpt lat="43.64629423975804" lon="5.592301246624152"><ele>214.0</ele><time>2026-04-22T14:09:57Z</time></trkpt><trkpt lat="43.64629592511244" lon="5.592138759563724"><ele>214.0</ele><time>2026-04-22T14:09:58Z</time></trkpt><trkpt lat="43.64629775709969" lon="5.591985105803151"><ele>213.6</ele><time>2026-04-22T14:09:59Z</time></trkpt><trkpt lat="43.646301954896174" lon="5.5918400008773235"><ele>213.2</ele><time>2026-04-22T14:10:00Z</time></trkpt><trkpt lat="43.64630017024266" lon="5.591694305804631"><ele>212.79999999999998</ele><time>2026-04-22T14:10:01Z</time></trkpt><trkpt lat="43.64630303744768" lon="5.591549634198179"><ele>212.39999999999998</ele><time>2026-04-22T14:10:02Z</time></trkpt><trkpt lat="43.6462948082371" lon="5.5913847099055"><ele>212.0</ele><time>2026-04-22T14:10:03Z</time></trkpt><trkpt lat="43.64628592897314" lon="5.591234547006861"><ele>212.00000000000003</ele><time>2026-04-22T14:10:04Z</time></trkpt><trkpt lat="43.6462829679271" lon="5.591106315178963"><ele>212.0</ele><time>2026-04-22T14:10:05Z</time></trkpt><trkpt lat="43.6462792594721" lon="5.5909962628611005"><ele>212.0</ele><time>2026-04-22T14:10:06Z</time></trkpt><trkpt lat="43.646270467030014" lon="5.5908956581197975"><ele>212.0</ele><time>2026-04-22T14:10:07Z</time></trkpt><trkpt lat="43.64626575648255" lon="5.590796521353796"><ele>212.00000000000003</ele><time>2026-04-22T14:10:08Z</time></trkpt><trkpt lat="43.64625690993084" lon="5.59069587991626"><ele>212.0</ele><time>2026-04-22T14:10:09Z</time></trkpt><trkpt lat="43.64625007908772" lon="5.5905855137837595"><ele>212.0</ele><time>2026-04-22T14:10:10Z</time></trkpt><trkpt lat="43.64625486388102" lon="5.590460886535985"><ele>212.0</ele><time>2026-04-22T14:10:11Z</time></trkpt><trkpt lat="43.646261122808944" lon="5.590340668459604"><ele>212.0</ele><time>2026-04-22T14:10:12Z</time></trkpt><trkpt lat="43.6462601206614" lon="5.59021159958683"><ele>212.0</ele><time>2026-04-22T14:10:13Z</time></trkpt><trkpt lat="43.64625776690343" lon="5.590075091235851"><ele>212.0</ele><time>2026-04-22T14:10:14Z</time></trkpt><trkpt lat="43.6462527006937" lon="5.589940727773138"><ele>212.00000000000003</ele><time>2026-04-22T14:10:15Z</time></trkpt><trkpt lat="43.6462648882831" lon="5.589820251623992"><ele>212.0</ele><time>2026-04-22T14:10:16Z</time></trkpt><trkpt lat="43.64628450875516" lon="5.589727090910863"><ele>212.0</ele><time>2026-04-22T14:10:17Z</time></trkpt><trkpt lat="43.64627757662083" lon="5.589615952251027"><ele>212.0</ele><time>2026-04-22T14:10:18Z</time></trkpt><trkpt lat="43.64627312053185" lon="5.589469979062568"><ele>212.00000000000003</ele><time>2026-04-22T14:10:19Z</time></trkpt><trkpt lat="43.64628720123246" lon="5.589337606766289"><ele>212.0</ele><time>2026-04-22T14:10:20Z</time></trkpt><trkpt lat="43.6462959701986" lon="5.589169057747039"><ele>212.0</ele><time>2026-04-22T14:10:21Z</time></trkpt><trkpt lat="43.646275716642215" lon="5.589288415743097"><ele>212.0</ele><time>2026-04-22T14:10:22Z</time></trkpt><trkpt lat="43.64626988007885" lon="5.58915321839265"><ele>212.0</ele><time>2026-04-22T14:10:24Z</time></trkpt><trkpt lat="43.64626769565081" lon="5.588984556633392"><ele>212.0</ele><time>2026-04-22T14:10:26Z</time></trkpt><trkpt lat="43.64626553644325" lon="5.588869721519456"><ele>212.0</ele><time>2026-04-22T14:10:27Z</time></trkpt><trkpt lat="43.646261836515755" lon="5.588740468836089"><ele>212.25</ele><time>2026-04-22T14:10:28Z</time></trkpt><trkpt lat="43.646272975778245" lon="5.588600919801378"><ele>212.5</ele><time>2026-04-22T14:10:29Z</time></trkpt><trkpt lat="43.646280397822345" lon="5.588445200634807"><ele>212.75</ele><time>2026-04-22T14:10:30Z</time></trkpt><trkpt lat="43.64629206891029" lon="5.588272150295445"><ele>213.0</ele><time>2026-04-22T14:10:31Z</time></trkpt><trkpt lat="43.646306635208134" lon="5.5881090058439336"><ele>213.0</ele><time>2026-04-22T14:10:32Z</time></trkpt><trkpt lat="43.64631376827778" lon="5.5879663807240725"><ele>213.0</ele><time>2026-04-22T14:10:33Z</time></trkpt><trkpt lat="43.646318107895134" lon="5.587851511115529"><ele>213.0</ele><time>2026-04-22T14:10:34Z</time></trkpt><trkpt lat="43.64632227648673" lon="5.587756994478603"><ele>213.0</ele><time>2026-04-22T14:10:35Z</time></trkpt><trkpt lat="43.64632399985903" lon="5.587667925281932"><ele>213.0</ele><time>2026-04-22T14:10:36Z</time></trkpt><trkpt lat="43.64633760342574" lon="5.587529680593243"><ele>213.0</ele><time>2026-04-22T14:10:38Z</time></trkpt><trkpt lat="43.646340628007906" lon="5.587437915442417"><ele>213.0</ele><time>2026-04-22T14:10:39Z</time></trkpt><trkpt lat="43.64635288323102" lon="5.587347549990912"><ele>213.0</ele><time>2026-04-22T14:10:40Z</time></trkpt><trkpt lat="43.646367434227955" lon="5.587257487824407"><ele>213.0</ele><time>2026-04-22T14:10:41Z</time></trkpt><trkpt lat="43.64636627833808" lon="5.587136499616343"><ele>213.0</ele><time>2026-04-22T14:10:42Z</time></trkpt><trkpt lat="43.646370342411565" lon="5.587039535040963"><ele>213.0</ele><time>2026-04-22T14:10:43Z</time></trkpt><trkpt lat="43.64638597615786" lon="5.586878515621042"><ele>213.0</ele><time>2026-04-22T14:10:45Z</time></trkpt><trkpt lat="43.64639345545263" lon="5.586711375258669"><ele>213.2</ele><time>2026-04-22T14:10:47Z</time></trkpt><trkpt lat="43.64640688342484" lon="5.586613779829319"><ele>213.4</ele><time>2026-04-22T14:10:48Z</time></trkpt><trkpt lat="43.6464194715201" lon="5.586446981707287"><ele>213.59999999999997</ele><time>2026-04-22T14:10:50Z</time></trkpt><trkpt lat="43.646444980618206" lon="5.586283628004915"><ele>213.79999999999998</ele><time>2026-04-22T14:10:52.001Z</time></trkpt><trkpt lat="43.64644329414751" lon="5.586160439369262"><ele>214.0</ele><time>2026-04-22T14:10:54.001Z</time></trkpt><trkpt lat="43.64645454152049" lon="5.586006717907356"><ele>214.16666666666666</ele><time>2026-04-22T14:10:56.001Z</time></trkpt><trkpt lat="43.64646163151964" lon="5.585901961752803"><ele>214.33333333333331</ele><time>2026-04-22T14:10:57.001Z</time></trkpt><trkpt lat="43.64647110721112" lon="5.585796093383113"><ele>214.5</ele><time>2026-04-22T14:10:58.001Z</time></trkpt><trkpt lat="43.64647231200858" lon="5.585695784223424"><ele>214.66666666666669</ele><time>2026-04-22T14:10:59.001Z</time></trkpt><trkpt lat="43.646471562022235" lon="5.585597536545537"><ele>214.83333333333334</ele><time>2026-04-22T14:11:00.001Z</time></trkpt><trkpt lat="43.64646886936086" lon="5.58549047919905"><ele>215.0</ele><time>2026-04-22T14:11:01.001Z</time></trkpt><trkpt lat="43.6464654088543" lon="5.58536226152582"><ele>215.25</ele><time>2026-04-22T14:11:02.001Z</time></trkpt><trkpt lat="43.64645716156098" lon="5.585215795989816"><ele>215.5</ele><time>2026-04-22T14:11:03.001Z</time></trkpt><trkpt lat="43.64644174974009" lon="5.585044594665549"><ele>215.75</ele><time>2026-04-22T14:11:04.001Z</time></trkpt><trkpt lat="43.64643694350464" lon="5.584883026959232"><ele>216.0</ele><time>2026-04-22T14:11:05.001Z</time></trkpt><trkpt lat="43.64643309452606" lon="5.58473061451209"><ele>216.0</ele><time>2026-04-22T14:11:06.001Z</time></trkpt><trkpt lat="43.646435369157324" lon="5.5845991044621455"><ele>216.00000000000003</ele><time>2026-04-22T14:11:07.001Z</time></trkpt><trkpt lat="43.64643409372997" lon="5.584489579188169"><ele>216.00000000000003</ele><time>2026-04-22T14:11:08.001Z</time></trkpt><trkpt lat="43.64643458599528" lon="5.5843218160865735"><ele>216.0</ele><time>2026-04-22T14:11:10.001Z</time></trkpt><trkpt lat="43.646442477951" lon="5.584225798651415"><ele>216.0</ele><time>2026-04-22T14:11:12.001Z</time></trkpt><trkpt lat="43.64645969745178" lon="5.584078410731791"><ele>216.20000000000002</ele><time>2026-04-22T14:11:15.001Z</time></trkpt><trkpt lat="43.64645089147265" lon="5.583946998396113"><ele>216.40000000000003</ele><time>2026-04-22T14:11:17.001Z</time></trkpt><trkpt lat="43.64644163528517" lon="5.583786942316788"><ele>216.6</ele><time>2026-04-22T14:11:19.001Z</time></trkpt><trkpt lat="43.646449129949794" lon="5.583617457484555"><ele>216.8</ele><time>2026-04-22T14:11:21.001Z</time></trkpt><trkpt lat="43.646443215769295" lon="5.583530013759945"><ele>217.0</ele><time>2026-04-22T14:11:22.001Z</time></trkpt><trkpt lat="43.64643884369173" lon="5.583373452144356"><ele>217.0</ele><time>2026-04-22T14:11:24.001Z</time></trkpt><trkpt lat="43.646437632751145" lon="5.583212199460458"><ele>217.0</ele><time>2026-04-22T14:11:26.001Z</time></trkpt><trkpt lat="43.646436228823745" lon="5.583047058439417"><ele>217.0</ele><time>2026-04-22T14:11:28Z</time></trkpt><trkpt lat="43.6464392237307" lon="5.582883538331203"><ele>217.0</ele><time>2026-04-22T14:11:30Z</time></trkpt><trkpt lat="43.64644210356812" lon="5.582737176621116"><ele>217.0</ele><time>2026-04-22T14:11:32Z</time></trkpt><trkpt lat="43.64644306321374" lon="5.5825775814192955"><ele>217.0</ele><time>2026-04-22T14:11:34Z</time></trkpt><trkpt lat="43.64644344113857" lon="5.582416950514681"><ele>217.0</ele><time>2026-04-22T14:11:36Z</time></trkpt><trkpt lat="43.64644809046523" lon="5.5822535286844746"><ele>217.0</ele><time>2026-04-22T14:11:38Z</time></trkpt><trkpt lat="43.64644970938624" lon="5.582150004786818"><ele>217.0</ele><time>2026-04-22T14:11:39Z</time></trkpt><trkpt lat="43.646446907713305" lon="5.58202355796128"><ele>216.6</ele><time>2026-04-22T14:11:40Z</time></trkpt><trkpt lat="43.64644641632781" lon="5.581898041804821"><ele>216.2</ele><time>2026-04-22T14:11:41Z</time></trkpt><trkpt lat="43.646445690863374" lon="5.581756178054195"><ele>215.8</ele><time>2026-04-22T14:11:42Z</time></trkpt><trkpt lat="43.646444957583874" lon="5.581613909522855"><ele>215.4</ele><time>2026-04-22T14:11:43Z</time></trkpt><trkpt lat="43.646444507497776" lon="5.581485564287281"><ele>215.0</ele><time>2026-04-22T14:11:44Z</time></trkpt><trkpt lat="43.64644951704256" lon="5.581364957675498"><ele>215.00000000000003</ele><time>2026-04-22T14:11:45Z</time></trkpt><trkpt lat="43.646454021739686" lon="5.581251888671965"><ele>215.0</ele><time>2026-04-22T14:11:46Z</time></trkpt><trkpt lat="43.64646222636327" lon="5.581131233508544"><ele>215.0</ele><time>2026-04-22T14:11:47Z</time></trkpt><trkpt lat="43.64646623542165" lon="5.581017154976889"><ele>215.0</ele><time>2026-04-22T14:11:48Z</time></trkpt><trkpt lat="43.64646631709699" lon="5.580890054429125"><ele>215.00000000000003</ele><time>2026-04-22T14:11:49Z</time></trkpt><trkpt lat="43.64646898280695" lon="5.580760826661388"><ele>215.0</ele><time>2026-04-22T14:11:50Z</time></trkpt><trkpt lat="43.64647245483207" lon="5.580632362225757"><ele>214.66666666666669</ele><time>2026-04-22T14:11:51Z</time></trkpt><trkpt lat="43.64647081242974" lon="5.580515147295324"><ele>214.33333333333334</ele><time>2026-04-22T14:11:52Z</time></trkpt><trkpt lat="43.646472926728386" lon="5.580402072166802"><ele>214.0</ele><time>2026-04-22T14:11:53Z</time></trkpt><trkpt lat="43.64647153224719" lon="5.580275370798392"><ele>213.66666666666669</ele><time>2026-04-22T14:11:54Z</time></trkpt><trkpt lat="43.646480887534736" lon="5.580145645714312"><ele>213.33333333333334</ele><time>2026-04-22T14:11:55Z</time></trkpt><trkpt lat="43.646493785714945" lon="5.58005419544571"><ele>213.0</ele><time>2026-04-22T14:11:56Z</time></trkpt><trkpt lat="43.646481890629964" lon="5.579949884283749"><ele>212.99999999999997</ele><time>2026-04-22T14:11:57Z</time></trkpt><trkpt lat="43.646485703027324" lon="5.579844698989282"><ele>213.0</ele><time>2026-04-22T14:11:58Z</time></trkpt><trkpt lat="43.646478852127004" lon="5.5797449345690255"><ele>213.0</ele><time>2026-04-22T14:11:59Z</time></trkpt><trkpt lat="43.64647546877469" lon="5.579651957232072"><ele>213.0</ele><time>2026-04-22T14:12:00Z</time></trkpt><trkpt lat="43.64646263870547" lon="5.579555620006941"><ele>213.0</ele><time>2026-04-22T14:12:01Z</time></trkpt><trkpt lat="43.646428543173876" lon="5.57946153278205"><ele>212.99999999999997</ele><time>2026-04-22T14:12:02Z</time></trkpt><trkpt lat="43.64639827512314" lon="5.579365660593319"><ele>213.0</ele><time>2026-04-22T14:12:03Z</time></trkpt><trkpt lat="43.646363412933184" lon="5.579279124540282"><ele>212.5</ele><time>2026-04-22T14:12:04Z</time></trkpt><trkpt lat="43.646320428675956" lon="5.579166327630271"><ele>212.0</ele><time>2026-04-22T14:12:05Z</time></trkpt><trkpt lat="43.646254564593626" lon="5.57901055723778"><ele>211.5</ele><time>2026-04-22T14:12:06Z</time></trkpt><trkpt lat="43.64619482945053" lon="5.578869950389305"><ele>211.0</ele><time>2026-04-22T14:12:07Z</time></trkpt><trkpt lat="43.64614265527415" lon="5.5787131814652655"><ele>210.83333333333331</ele><time>2026-04-22T14:12:08Z</time></trkpt><trkpt lat="43.64610369775918" lon="5.578579217617399"><ele>210.66666666666666</ele><time>2026-04-22T14:12:09Z</time></trkpt><trkpt lat="43.646068660324374" lon="5.578481927412563"><ele>210.5</ele><time>2026-04-22T14:12:10Z</time></trkpt><trkpt lat="43.64603606690971" lon="5.57834711368719"><ele>210.33333333333331</ele><time>2026-04-22T14:12:12Z</time></trkpt><trkpt lat="43.64603409136399" lon="5.578250485912539"><ele>210.16666666666666</ele><time>2026-04-22T14:12:15Z</time></trkpt><trkpt lat="43.64601485143624" lon="5.578160832038883"><ele>210.0</ele><time>2026-04-22T14:12:18Z</time></trkpt><trkpt lat="43.64597338959167" lon="5.578065051449033"><ele>210.0</ele><time>2026-04-22T14:12:27Z</time></trkpt><trkpt lat="43.64594518449962" lon="5.577954895628617"><ele>210.0</ele><time>2026-04-22T14:12:29Z</time></trkpt><trkpt lat="43.645917884416086" lon="5.577802286159729"><ele>210.0</ele><time>2026-04-22T14:12:31Z</time></trkpt><trkpt lat="43.645896084613916" lon="5.577695774047755"><ele>210.0</ele><time>2026-04-22T14:12:32Z</time></trkpt><trkpt lat="43.64587647342084" lon="5.5775868459977636"><ele>210.0</ele><time>2026-04-22T14:12:34Z</time></trkpt><trkpt lat="43.645865971612864" lon="5.577451641750411"><ele>210.4</ele><time>2026-04-22T14:12:37Z</time></trkpt><trkpt lat="43.64584808900429" lon="5.5773383387123445"><ele>210.8</ele><time>2026-04-22T14:12:38Z</time></trkpt><trkpt lat="43.64582697835507" lon="5.577218198415945"><ele>211.2</ele><time>2026-04-22T14:12:39Z</time></trkpt><trkpt lat="43.645801945937635" lon="5.577088739360062"><ele>211.6</ele><time>2026-04-22T14:12:40Z</time></trkpt><trkpt lat="43.64577841393353" lon="5.576943486950919"><ele>212.0</ele><time>2026-04-22T14:12:41Z</time></trkpt><trkpt lat="43.645758283322586" lon="5.576778701418158"><ele>212.0</ele><time>2026-04-22T14:12:42Z</time></trkpt><trkpt lat="43.64575473211317" lon="5.5766036237681895"><ele>212.0</ele><time>2026-04-22T14:12:43Z</time></trkpt><trkpt lat="43.64576012843479" lon="5.5764118587840805"><ele>212.0</ele><time>2026-04-22T14:12:44Z</time></trkpt><trkpt lat="43.64577973869157" lon="5.5761941754019935"><ele>212.0</ele><time>2026-04-22T14:12:45Z</time></trkpt><trkpt lat="43.645807014552275" lon="5.57594937933147"><ele>211.66666666666669</ele><time>2026-04-22T14:12:46Z</time></trkpt><trkpt lat="43.645831551199535" lon="5.575703097509088"><ele>211.33333333333331</ele><time>2026-04-22T14:12:47Z</time></trkpt><trkpt lat="43.645854215430454" lon="5.575470993682207"><ele>211.0</ele><time>2026-04-22T14:12:48Z</time></trkpt><trkpt lat="43.645877404050104" lon="5.575259361212544"><ele>211.0</ele><time>2026-04-22T14:12:49Z</time></trkpt><trkpt lat="43.64591180144432" lon="5.575042254573444"><ele>211.0</ele><time>2026-04-22T14:12:50Z</time></trkpt><trkpt lat="43.64594255772967" lon="5.574835934322999"><ele>211.0</ele><time>2026-04-22T14:12:51Z</time></trkpt><trkpt lat="43.64598254785371" lon="5.574631042684687"><ele>211.0</ele><time>2026-04-22T14:12:52Z</time></trkpt><trkpt lat="43.64602228472358" lon="5.57446656927932"><ele>211.0</ele><time>2026-04-22T14:12:53Z</time></trkpt><trkpt lat="43.64605877286783" lon="5.574314235832613"><ele>211.0</ele><time>2026-04-22T14:12:54Z</time></trkpt><trkpt lat="43.64609322387385" lon="5.574173857603157"><ele>211.0</ele><time>2026-04-22T14:12:55Z</time></trkpt><trkpt lat="43.646120245552936" lon="5.574040745988755"><ele>211.0</ele><time>2026-04-22T14:12:56Z</time></trkpt><trkpt lat="43.646147201517074" lon="5.573918493591764"><ele>210.60000000000002</ele><time>2026-04-22T14:12:57Z</time></trkpt><trkpt lat="43.64616966418054" lon="5.573822979356599"><ele>210.2</ele><time>2026-04-22T14:12:58Z</time></trkpt><trkpt lat="43.64623025126463" lon="5.573677685652816"><ele>209.8</ele><time>2026-04-22T14:13:00.001Z</time></trkpt><trkpt lat="43.646298720822216" lon="5.573611432662692"><ele>209.39999999999998</ele><time>2026-04-22T14:13:01.001Z</time></trkpt><trkpt lat="43.64638586832278" lon="5.573537946482473"><ele>209.0</ele><time>2026-04-22T14:13:02.001Z</time></trkpt><trkpt lat="43.646465911514625" lon="5.573440933087624"><ele>209.00000000000003</ele><time>2026-04-22T14:13:03.001Z</time></trkpt><trkpt lat="43.646505766432824" lon="5.57332623509284"><ele>209.0</ele><time>2026-04-22T14:13:04.001Z</time></trkpt><trkpt lat="43.64650676763388" lon="5.5732110172667815"><ele>209.0</ele><time>2026-04-22T14:13:05.001Z</time></trkpt><trkpt lat="43.646481783888845" lon="5.573112869691993"><ele>209.0</ele><time>2026-04-22T14:13:06.001Z</time></trkpt><trkpt lat="43.646424758578505" lon="5.5730343046346835"><ele>209.00000000000003</ele><time>2026-04-22T14:13:07.001Z</time></trkpt><trkpt lat="43.64635157462582" lon="5.572984797531009"><ele>209.0</ele><time>2026-04-22T14:13:08.001Z</time></trkpt><trkpt lat="43.6462748066565" lon="5.572956982423274"><ele>209.00000000000003</ele><time>2026-04-22T14:13:09.001Z</time></trkpt><trkpt lat="43.64620864000541" lon="5.572906623820159"><ele>209.0</ele><time>2026-04-22T14:13:10.001Z</time></trkpt><trkpt lat="43.64615147786377" lon="5.5728181997858055"><ele>209.0</ele><time>2026-04-22T14:13:11.001Z</time></trkpt><trkpt lat="43.64612979547731" lon="5.572709561570053"><ele>209.0</ele><time>2026-04-22T14:13:12.001Z</time></trkpt><trkpt lat="43.64612895386523" lon="5.57258809529724"><ele>209.00000000000003</ele><time>2026-04-22T14:13:13.001Z</time></trkpt><trkpt lat="43.646131086115744" lon="5.572441392508152"><ele>209.0</ele><time>2026-04-22T14:13:14.001Z</time></trkpt><trkpt lat="43.64612776232064" lon="5.572262745617937"><ele>209.0</ele><time>2026-04-22T14:13:15.001Z</time></trkpt><trkpt lat="43.64611702386775" lon="5.572075524704694"><ele>209.0</ele><time>2026-04-22T14:13:16.001Z</time></trkpt><trkpt lat="43.646093457196066" lon="5.571861654846689"><ele>209.0</ele><time>2026-04-22T14:13:17.001Z</time></trkpt><trkpt lat="43.646064615208125" lon="5.5716244640627455"><ele>210.0</ele><time>2026-04-22T14:13:18.001Z</time></trkpt><trkpt lat="43.646036996554415" lon="5.571374209689526"><ele>211.0</ele><time>2026-04-22T14:13:19.001Z</time></trkpt><trkpt lat="43.646008768118556" lon="5.571127630163359"><ele>212.0</ele><time>2026-04-22T14:13:20.001Z</time></trkpt><trkpt lat="43.64598605755239" lon="5.570887929574739"><ele>212.33333333333334</ele><time>2026-04-22T14:13:21.001Z</time></trkpt><trkpt lat="43.645961671405985" lon="5.570640942977666"><ele>212.66666666666669</ele><time>2026-04-22T14:13:22.001Z</time></trkpt><trkpt lat="43.64593329666926" lon="5.570372985649491"><ele>213.0</ele><time>2026-04-22T14:13:23.001Z</time></trkpt><trkpt lat="43.64590266508014" lon="5.570092034049837"><ele>212.33333333333331</ele><time>2026-04-22T14:13:24.001Z</time></trkpt><trkpt lat="43.64587430933957" lon="5.56980444869289"><ele>211.66666666666666</ele><time>2026-04-22T14:13:25.001Z</time></trkpt><trkpt lat="43.64584438262979" lon="5.569523607004567"><ele>211.0</ele><time>2026-04-22T14:13:26.001Z</time></trkpt><trkpt lat="43.645814147779554" lon="5.569233324128957"><ele>210.33333333333331</ele><time>2026-04-22T14:13:27.001Z</time></trkpt><trkpt lat="43.64578748831393" lon="5.568916889010839"><ele>209.66666666666669</ele><time>2026-04-22T14:13:28.001Z</time></trkpt><trkpt lat="43.64579037627952" lon="5.5686746691205125"><ele>209.0</ele><time>2026-04-22T14:13:29.001Z</time></trkpt><trkpt lat="43.64582926525963" lon="5.56844920351955"><ele>209.0</ele><time>2026-04-22T14:13:30.001Z</time></trkpt><trkpt lat="43.64587446951029" lon="5.568252455882624"><ele>209.0</ele><time>2026-04-22T14:13:31.001Z</time></trkpt><trkpt lat="43.6459203449765" lon="5.568068817629121"><ele>209.0</ele><time>2026-04-22T14:13:32.001Z</time></trkpt><trkpt lat="43.64600606754481" lon="5.567910877822603"><ele>209.0</ele><time>2026-04-22T14:13:33Z</time></trkpt><trkpt lat="43.645607131473724" lon="5.567093496102926"><ele>208.5</ele><time>2026-04-22T14:13:34Z</time></trkpt><trkpt lat="43.64556592238743" lon="5.566743188779741"><ele>208.0</ele><time>2026-04-22T14:13:35Z</time></trkpt><trkpt lat="43.64552519976231" lon="5.5663699457425535"><ele>208.0</ele><time>2026-04-22T14:13:36Z</time></trkpt><trkpt lat="43.64548813651984" lon="5.565992205397834"><ele>208.0</ele><time>2026-04-22T14:13:37Z</time></trkpt><trkpt lat="43.64544699430793" lon="5.565648847041373"><ele>207.5</ele><time>2026-04-22T14:13:38Z</time></trkpt><trkpt lat="43.64541564756782" lon="5.565330936371181"><ele>207.0</ele><time>2026-04-22T14:13:39Z</time></trkpt><trkpt lat="43.6453790648472" lon="5.565022516487558"><ele>207.0</ele><time>2026-04-22T14:13:40Z</time></trkpt><trkpt lat="43.64534602371255" lon="5.5647147012876985"><ele>207.0</ele><time>2026-04-22T14:13:41Z</time></trkpt><trkpt lat="43.645312603775686" lon="5.56442500098491"><ele>207.0</ele><time>2026-04-22T14:13:42Z</time></trkpt><trkpt lat="43.64527845351009" lon="5.564150896433786"><ele>207.0</ele><time>2026-04-22T14:13:43Z</time></trkpt><trkpt lat="43.64524797268393" lon="5.563900282882108"><ele>207.0</ele><time>2026-04-22T14:13:44Z</time></trkpt><trkpt lat="43.64522523504429" lon="5.563667095026135"><ele>207.0</ele><time>2026-04-22T14:13:45Z</time></trkpt><trkpt lat="43.64520675151472" lon="5.563442792681139"><ele>207.33333333333331</ele><time>2026-04-22T14:13:46Z</time></trkpt><trkpt lat="43.645186246982874" lon="5.563242674976653"><ele>207.66666666666666</ele><time>2026-04-22T14:13:47Z</time></trkpt><trkpt lat="43.64517206943736" lon="5.56301714193703"><ele>208.0</ele><time>2026-04-22T14:13:48Z</time></trkpt><trkpt lat="43.645154805113506" lon="5.562793257926784"><ele>208.33333333333331</ele><time>2026-04-22T14:13:49Z</time></trkpt><trkpt lat="43.64513233735081" lon="5.562578383390071"><ele>208.66666666666669</ele><time>2026-04-22T14:13:50Z</time></trkpt><trkpt lat="43.645109992144235" lon="5.562356035239422"><ele>209.0</ele><time>2026-04-22T14:13:51Z</time></trkpt><trkpt lat="43.64508308380421" lon="5.562136676644418"><ele>209.66666666666669</ele><time>2026-04-22T14:13:52Z</time></trkpt><trkpt lat="43.64505375074623" lon="5.5618902230386675"><ele>210.33333333333331</ele><time>2026-04-22T14:13:53Z</time></trkpt><trkpt lat="43.645028111615126" lon="5.561655092551243"><ele>211.0</ele><time>2026-04-22T14:13:54Z</time></trkpt><trkpt lat="43.64500421163089" lon="5.561421063425375"><ele>211.33333333333331</ele><time>2026-04-22T14:13:55Z</time></trkpt><trkpt lat="43.6449842790113" lon="5.5611868028483284"><ele>211.66666666666669</ele><time>2026-04-22T14:13:56Z</time></trkpt><trkpt lat="43.64496110817373" lon="5.560957734640178"><ele>212.0</ele><time>2026-04-22T14:13:57Z</time></trkpt><trkpt lat="43.64493572270129" lon="5.560736770657136"><ele>212.0</ele><time>2026-04-22T14:13:58Z</time></trkpt><trkpt lat="43.64491862906543" lon="5.560561644731608"><ele>212.0</ele><time>2026-04-22T14:13:59Z</time></trkpt><trkpt lat="43.64489797325729" lon="5.560350151143201"><ele>212.0</ele><time>2026-04-22T14:14:00Z</time></trkpt><trkpt lat="43.64487341804938" lon="5.56011339152905"><ele>212.0</ele><time>2026-04-22T14:14:01Z</time></trkpt><trkpt lat="43.644847267534054" lon="5.559851525494362"><ele>212.0</ele><time>2026-04-22T14:14:02Z</time></trkpt><trkpt lat="43.64481357816864" lon="5.559576386588989"><ele>212.0</ele><time>2026-04-22T14:14:03Z</time></trkpt><trkpt lat="43.64475943589184" lon="5.559265560715854"><ele>211.0</ele><time>2026-04-22T14:14:04Z</time></trkpt><trkpt lat="43.64471450986863" lon="5.558956146261983"><ele>210.0</ele><time>2026-04-22T14:14:05Z</time></trkpt><trkpt lat="43.64465303850576" lon="5.558652434753709"><ele>208.5</ele><time>2026-04-22T14:14:06Z</time></trkpt><trkpt lat="43.644628828817446" lon="5.55835091674855"><ele>207.0</ele><time>2026-04-22T14:14:07Z</time></trkpt><trkpt lat="43.64464782162951" lon="5.55802973908942"><ele>206.33333333333331</ele><time>2026-04-22T14:14:08Z</time></trkpt><trkpt lat="43.64462992378565" lon="5.557729739619796"><ele>205.66666666666666</ele><time>2026-04-22T14:14:09Z</time></trkpt><trkpt lat="43.64460615247321" lon="5.557435668141387"><ele>205.0</ele><time>2026-04-22T14:14:10Z</time></trkpt><trkpt lat="43.64456788101207" lon="5.5571324758242335"><ele>205.0</ele><time>2026-04-22T14:14:11Z</time></trkpt><trkpt lat="43.64453185668683" lon="5.556815539542503"><ele>205.0</ele><time>2026-04-22T14:14:12Z</time></trkpt><trkpt lat="43.64449278523993" lon="5.556498443188046"><ele>207.0</ele><time>2026-04-22T14:14:13Z</time></trkpt><trkpt lat="43.6444536432043" lon="5.556176956123931"><ele>209.0</ele><time>2026-04-22T14:14:14Z</time></trkpt><trkpt lat="43.64442111009399" lon="5.555871732308078"><ele>209.0</ele><time>2026-04-22T14:14:15Z</time></trkpt><trkpt lat="43.64438605421165" lon="5.555563165329733"><ele>209.0</ele><time>2026-04-22T14:14:16Z</time></trkpt><trkpt lat="43.64435513536598" lon="5.555254787385441"><ele>209.0</ele><time>2026-04-22T14:14:17Z</time></trkpt><trkpt lat="43.64432110140248" lon="5.5549536432554145"><ele>209.0</ele><time>2026-04-22T14:14:18Z</time></trkpt><trkpt lat="43.64429346217461" lon="5.554654057704021"><ele>209.0</ele><time>2026-04-22T14:14:19Z</time></trkpt><trkpt lat="43.64426076987154" lon="5.5543442134758125"><ele>208.66666666666669</ele><time>2026-04-22T14:14:20Z</time></trkpt><trkpt lat="43.6442295986841" lon="5.554036173211365"><ele>208.33333333333331</ele><time>2026-04-22T14:14:21Z</time></trkpt><trkpt lat="43.644201416666014" lon="5.553731858329387"><ele>208.0</ele><time>2026-04-22T14:14:22Z</time></trkpt><trkpt lat="43.64416666969805" lon="5.55341928179353"><ele>208.0</ele><time>2026-04-22T14:14:23Z</time></trkpt><trkpt lat="43.64413578786707" lon="5.553110462399647"><ele>208.0</ele><time>2026-04-22T14:14:24Z</time></trkpt><trkpt lat="43.644097073780365" lon="5.552807806164351"><ele>208.0</ele><time>2026-04-22T14:14:25Z</time></trkpt><trkpt lat="43.644064352517724" lon="5.552511114426686"><ele>208.0</ele><time>2026-04-22T14:14:26Z</time></trkpt><trkpt lat="43.64403760932964" lon="5.552216632580322"><ele>208.0</ele><time>2026-04-22T14:14:27Z</time></trkpt><trkpt lat="43.6440077496524" lon="5.551916430146444"><ele>208.0</ele><time>2026-04-22T14:14:28Z</time></trkpt><trkpt lat="43.643973550787365" lon="5.551604765696082"><ele>208.33333333333331</ele><time>2026-04-22T14:14:29Z</time></trkpt><trkpt lat="43.6439408445374" lon="5.551321094791682"><ele>208.66666666666669</ele><time>2026-04-22T14:14:30Z</time></trkpt><trkpt lat="43.64390805034957" lon="5.551015011482798"><ele>209.0</ele><time>2026-04-22T14:14:31Z</time></trkpt><trkpt lat="43.64387197278935" lon="5.550708896788397"><ele>208.0</ele><time>2026-04-22T14:14:32Z</time></trkpt><trkpt lat="43.64383855487654" lon="5.550401421296138"><ele>207.0</ele><time>2026-04-22T14:14:33Z</time></trkpt><trkpt lat="43.64381715123827" lon="5.550087302474712"><ele>206.33333333333331</ele><time>2026-04-22T14:14:34Z</time></trkpt><trkpt lat="43.643788233719846" lon="5.5498013971622875"><ele>205.66666666666666</ele><time>2026-04-22T14:14:35Z</time></trkpt><trkpt lat="43.643757514407014" lon="5.549515126344529"><ele>205.0</ele><time>2026-04-22T14:14:36Z</time></trkpt><trkpt lat="43.64373920239517" lon="5.5492221652899305"><ele>205.0</ele><time>2026-04-22T14:14:37Z</time></trkpt><trkpt lat="43.64370276594069" lon="5.548938948605737"><ele>205.0</ele><time>2026-04-22T14:14:38Z</time></trkpt><trkpt lat="43.64366726992619" lon="5.548645850257818"><ele>205.0</ele><time>2026-04-22T14:14:39Z</time></trkpt><trkpt lat="43.64362748381156" lon="5.548341264839611"><ele>206.66666666666666</ele><time>2026-04-22T14:14:40Z</time></trkpt><trkpt lat="43.64360370160213" lon="5.548045873498579"><ele>208.33333333333331</ele><time>2026-04-22T14:14:41Z</time></trkpt><trkpt lat="43.643569072228466" lon="5.547744129456929"><ele>210.0</ele><time>2026-04-22T14:14:42Z</time></trkpt><trkpt lat="43.64353681916511" lon="5.547478139666122"><ele>209.66666666666669</ele><time>2026-04-22T14:14:43Z</time></trkpt><trkpt lat="43.64351005533179" lon="5.547220803932333"><ele>209.33333333333334</ele><time>2026-04-22T14:14:44Z</time></trkpt><trkpt lat="43.64348597856996" lon="5.546981163096418"><ele>209.0</ele><time>2026-04-22T14:14:45Z</time></trkpt><trkpt lat="43.64343993586088" lon="5.546529741949327"><ele>209.0</ele><time>2026-04-22T14:14:47Z</time></trkpt><trkpt lat="43.643419327055454" lon="5.5463088553935584"><ele>209.0</ele><time>2026-04-22T14:14:48Z</time></trkpt><trkpt lat="43.64338911229902" lon="5.54608583371461"><ele>209.0</ele><time>2026-04-22T14:14:49Z</time></trkpt><trkpt lat="43.64336592323925" lon="5.54587749016322"><ele>209.0</ele><time>2026-04-22T14:14:50Z</time></trkpt><trkpt lat="43.643341470208604" lon="5.545683395234666"><ele>209.0</ele><time>2026-04-22T14:14:51Z</time></trkpt><trkpt lat="43.64332289734979" lon="5.545499587918845"><ele>209.0</ele><time>2026-04-22T14:14:52Z</time></trkpt><trkpt lat="43.643304097378746" lon="5.545318997038067"><ele>209.0</ele><time>2026-04-22T14:14:53Z</time></trkpt><trkpt lat="43.64328080743507" lon="5.545134724430828"><ele>209.33333333333334</ele><time>2026-04-22T14:14:54.001Z</time></trkpt><trkpt lat="43.643262746213985" lon="5.5449321122479835"><ele>209.66666666666669</ele><time>2026-04-22T14:14:55.001Z</time></trkpt><trkpt lat="43.6432382136492" lon="5.544701353373202"><ele>210.0</ele><time>2026-04-22T14:14:56.001Z</time></trkpt><trkpt lat="43.643223380261624" lon="5.544479317799246"><ele>209.33333333333331</ele><time>2026-04-22T14:14:57.001Z</time></trkpt><trkpt lat="43.64319632248867" lon="5.54426514696543"><ele>208.66666666666666</ele><time>2026-04-22T14:14:58.001Z</time></trkpt><trkpt lat="43.64317206094969" lon="5.5440461691303025"><ele>208.0</ele><time>2026-04-22T14:14:59.001Z</time></trkpt><trkpt lat="43.64314813810451" lon="5.5438324103195225"><ele>208.25</ele><time>2026-04-22T14:15:00.001Z</time></trkpt><trkpt lat="43.643125443038734" lon="5.543633742486459"><ele>208.5</ele><time>2026-04-22T14:15:01.001Z</time></trkpt><trkpt lat="43.64311788883969" lon="5.543436412858329"><ele>208.75</ele><time>2026-04-22T14:15:02.001Z</time></trkpt><trkpt lat="43.6431136397911" lon="5.543243796504839"><ele>209.0</ele><time>2026-04-22T14:15:03.001Z</time></trkpt><trkpt lat="43.64311393511875" lon="5.543059198924858"><ele>208.75</ele><time>2026-04-22T14:15:04.001Z</time></trkpt><trkpt lat="43.64312167213284" lon="5.542878361109577"><ele>208.5</ele><time>2026-04-22T14:15:05.001Z</time></trkpt><trkpt lat="43.64314230483098" lon="5.542704836803032"><ele>208.25</ele><time>2026-04-22T14:15:06.001Z</time></trkpt><trkpt lat="43.643133949318674" lon="5.542532276674257"><ele>208.0</ele><time>2026-04-22T14:15:07.001Z</time></trkpt><trkpt lat="43.64313954460884" lon="5.542349723294001"><ele>208.0</ele><time>2026-04-22T14:15:08.001Z</time></trkpt><trkpt lat="43.6431388121366" lon="5.5421856194095165"><ele>208.0</ele><time>2026-04-22T14:15:09.001Z</time></trkpt><trkpt lat="43.64313544453275" lon="5.542019792643434"><ele>208.0</ele><time>2026-04-22T14:15:10.001Z</time></trkpt><trkpt lat="43.643136274284906" lon="5.541856497508363"><ele>208.0</ele><time>2026-04-22T14:15:11.001Z</time></trkpt><trkpt lat="43.64314276482451" lon="5.54167936812901"><ele>208.25</ele><time>2026-04-22T14:15:12.001Z</time></trkpt><trkpt lat="43.643144211985785" lon="5.541514443792766"><ele>208.5</ele><time>2026-04-22T14:15:13.001Z</time></trkpt><trkpt lat="43.64314234517893" lon="5.541345840912498"><ele>208.75</ele><time>2026-04-22T14:15:14.001Z</time></trkpt><trkpt lat="43.64314116434278" lon="5.541195053057252"><ele>209.0</ele><time>2026-04-22T14:15:15.001Z</time></trkpt><trkpt lat="43.64314184841639" lon="5.541039834648257"><ele>209.2</ele><time>2026-04-22T14:15:16.001Z</time></trkpt><trkpt lat="43.643146716711264" lon="5.540907017650223"><ele>209.39999999999998</ele><time>2026-04-22T14:15:17.001Z</time></trkpt><trkpt lat="43.643145766705" lon="5.5407748633318405"><ele>209.6</ele><time>2026-04-22T14:15:18.001Z</time></trkpt><trkpt lat="43.64315254116668" lon="5.540662558953071"><ele>209.8</ele><time>2026-04-22T14:15:19.001Z</time></trkpt><trkpt lat="43.643147646260665" lon="5.540573083591162"><ele>210.0</ele><time>2026-04-22T14:15:20.001Z</time></trkpt><trkpt lat="43.64314752454575" lon="5.540412468840673"><ele>210.2</ele><time>2026-04-22T14:15:22.001Z</time></trkpt><trkpt lat="43.64314612511531" lon="5.540298350271627"><ele>210.4</ele><time>2026-04-22T14:15:24.001Z</time></trkpt><trkpt lat="43.6431436585932" lon="5.540165667826178"><ele>210.60000000000002</ele><time>2026-04-22T14:15:27.001Z</time></trkpt><trkpt lat="43.64313414617685" lon="5.540037935613426"><ele>210.8</ele><time>2026-04-22T14:15:29.001Z</time></trkpt><trkpt lat="43.64312314457861" lon="5.5398487185194645"><ele>211.0</ele><time>2026-04-22T14:15:31.001Z</time></trkpt><trkpt lat="43.64311016617763" lon="5.539739129032063"><ele>211.0</ele><time>2026-04-22T14:15:32.001Z</time></trkpt><trkpt lat="43.64309372350155" lon="5.539615726530281"><ele>211.0</ele><time>2026-04-22T14:15:33.001Z</time></trkpt><trkpt lat="43.643070986938014" lon="5.539484277540413"><ele>211.0</ele><time>2026-04-22T14:15:34.001Z</time></trkpt><trkpt lat="43.643044700287376" lon="5.539339033673696"><ele>211.0</ele><time>2026-04-22T14:15:35.001Z</time></trkpt><trkpt lat="43.643018026704596" lon="5.539175600980522"><ele>211.0</ele><time>2026-04-22T14:15:36.001Z</time></trkpt><trkpt lat="43.642998568368874" lon="5.539033708360327"><ele>210.75</ele><time>2026-04-22T14:15:37.001Z</time></trkpt><trkpt lat="43.6429772726105" lon="5.538871097593269"><ele>210.5</ele><time>2026-04-22T14:15:38.001Z</time></trkpt><trkpt lat="43.642953136525634" lon="5.538702986885785"><ele>210.25</ele><time>2026-04-22T14:15:39Z</time></trkpt><trkpt lat="43.64291297086418" lon="5.538522389341525"><ele>210.0</ele><time>2026-04-22T14:15:40Z</time></trkpt><trkpt lat="43.64287079305808" lon="5.538349728938063"><ele>209.5</ele><time>2026-04-22T14:15:41Z</time></trkpt><trkpt lat="43.64284062776515" lon="5.538154517623957"><ele>209.0</ele><time>2026-04-22T14:15:42Z</time></trkpt><trkpt lat="43.642809018146664" lon="5.537955968210112"><ele>208.5</ele><time>2026-04-22T14:15:43Z</time></trkpt><trkpt lat="43.642774631380675" lon="5.537745927794489"><ele>208.0</ele><time>2026-04-22T14:15:44Z</time></trkpt><trkpt lat="43.64273100831316" lon="5.53750849163879"><ele>208.25</ele><time>2026-04-22T14:15:45Z</time></trkpt><trkpt lat="43.6426938898139" lon="5.537288822863384"><ele>208.5</ele><time>2026-04-22T14:15:46Z</time></trkpt><trkpt lat="43.642653207706154" lon="5.537088573041795"><ele>208.75</ele><time>2026-04-22T14:15:47Z</time></trkpt><trkpt lat="43.64262456195839" lon="5.536907025085374"><ele>209.0</ele><time>2026-04-22T14:15:48Z</time></trkpt><trkpt lat="43.64259436584329" lon="5.536733783849352"><ele>209.0</ele><time>2026-04-22T14:15:49Z</time></trkpt><trkpt lat="43.642551559969384" lon="5.536539136476059"><ele>209.0</ele><time>2026-04-22T14:15:50Z</time></trkpt><trkpt lat="43.64250991150278" lon="5.53634667475367"><ele>209.0</ele><time>2026-04-22T14:15:51Z</time></trkpt><trkpt lat="43.642475779434136" lon="5.536142832508334"><ele>209.0</ele><time>2026-04-22T14:15:52Z</time></trkpt><trkpt lat="43.64244764642159" lon="5.535957181445958"><ele>208.6</ele><time>2026-04-22T14:15:53Z</time></trkpt><trkpt lat="43.64241869173116" lon="5.535809744460698"><ele>208.2</ele><time>2026-04-22T14:15:54Z</time></trkpt><trkpt lat="43.642398267555016" lon="5.535668033011188"><ele>207.79999999999998</ele><time>2026-04-22T14:15:55Z</time></trkpt><trkpt lat="43.64237422568699" lon="5.535531850577378"><ele>207.39999999999998</ele><time>2026-04-22T14:15:56Z</time></trkpt><trkpt lat="43.642351385842396" lon="5.535405678268142"><ele>207.0</ele><time>2026-04-22T14:15:57Z</time></trkpt><trkpt lat="43.64233137637116" lon="5.535279086127046"><ele>206.83333333333334</ele><time>2026-04-22T14:15:58Z</time></trkpt><trkpt lat="43.6423083732707" lon="5.535144672028105"><ele>206.66666666666669</ele><time>2026-04-22T14:15:59Z</time></trkpt><trkpt lat="43.64228303877277" lon="5.535015049721015"><ele>206.5</ele><time>2026-04-22T14:16:00Z</time></trkpt><trkpt lat="43.64226299872698" lon="5.534909082951429"><ele>206.33333333333334</ele><time>2026-04-22T14:16:01Z</time></trkpt><trkpt lat="43.642259211891066" lon="5.5348095366320775"><ele>206.16666666666669</ele><time>2026-04-22T14:16:02Z</time></trkpt><trkpt lat="43.64227065897497" lon="5.534720712720015"><ele>206.0</ele><time>2026-04-22T14:16:03Z</time></trkpt><trkpt lat="43.64228871776664" lon="5.534633183482451"><ele>205.99999999999997</ele><time>2026-04-22T14:16:04Z</time></trkpt><trkpt lat="43.64229557362387" lon="5.53453940628622"><ele>206.0</ele><time>2026-04-22T14:16:05Z</time></trkpt><trkpt lat="43.642273597745245" lon="5.534450465889469"><ele>206.0</ele><time>2026-04-22T14:16:06Z</time></trkpt><trkpt lat="43.64222272709844" lon="5.534390698684276"><ele>206.0</ele><time>2026-04-22T14:16:07Z</time></trkpt><trkpt lat="43.64215531008321" lon="5.534393358201819"><ele>206.0</ele><time>2026-04-22T14:16:08Z</time></trkpt><trkpt lat="43.6421019492996" lon="5.534444041270642"><ele>205.99999999999997</ele><time>2026-04-22T14:16:09Z</time></trkpt><trkpt lat="43.64204086991288" lon="5.534547747968299"><ele>206.0</ele><time>2026-04-22T14:16:11Z</time></trkpt><trkpt lat="43.6419701317587" lon="5.53456072003462"><ele>205.83333333333334</ele><time>2026-04-22T14:16:18Z</time></trkpt><trkpt lat="43.64191466883282" lon="5.534471650233766"><ele>205.66666666666669</ele><time>2026-04-22T14:16:21Z</time></trkpt><trkpt lat="43.64189400010203" lon="5.534380028188763"><ele>205.5</ele><time>2026-04-22T14:16:23Z</time></trkpt><trkpt lat="43.641865260502236" lon="5.534293813259961"><ele>205.33333333333331</ele><time>2026-04-22T14:16:26Z</time></trkpt><trkpt lat="43.641808051040336" lon="5.534234257172319"><ele>205.16666666666666</ele><time>2026-04-22T14:16:30Z</time></trkpt><trkpt lat="43.64188490902663" lon="5.534155380233024"><ele>205.0</ele><time>2026-04-22T14:16:33Z</time></trkpt><trkpt lat="43.64200339143365" lon="5.534063956857631"><ele>205.0</ele><time>2026-04-22T14:16:34Z</time></trkpt><trkpt lat="43.64212846630112" lon="5.533943950278605"><ele>205.0</ele><time>2026-04-22T14:16:35Z</time></trkpt><trkpt lat="43.64174112180283" lon="5.534123062261895"><ele>206.8</ele><time>2026-04-22T14:16:36Z</time></trkpt><trkpt lat="43.641737681966006" lon="5.534241517299326"><ele>208.6</ele><time>2026-04-22T14:16:39Z</time></trkpt><trkpt lat="43.641628702932366" lon="5.534242698896431"><ele>210.39999999999998</ele><time>2026-04-22T14:16:40Z</time></trkpt><trkpt lat="43.64154734279097" lon="5.534291346487907"><ele>212.2</ele><time>2026-04-22T14:16:41Z</time></trkpt><trkpt lat="43.6416013365906" lon="5.534391854275652"><ele>214.0</ele><time>2026-04-22T14:16:53Z</time></trkpt><trkpt lat="43.641813470246184" lon="5.534465772065006"><ele>214.0</ele><time>2026-04-22T14:16:55Z</time></trkpt><trkpt lat="43.64195108027425" lon="5.534282767207675"><ele>213.99999999999997</ele><time>2026-04-22T14:17:29.001Z</time></trkpt><trkpt lat="43.641883737224276" lon="5.534386328831812"><ele>213.99999999999997</ele><time>2026-04-22T14:17:31.001Z</time></trkpt><trkpt lat="43.64190746625286" lon="5.5344714840108855"><ele>214.0</ele><time>2026-04-22T14:17:33.001Z</time></trkpt><trkpt lat="43.641841062878925" lon="5.53444055999431"><ele>214.0</ele><time>2026-04-22T14:17:36.001Z</time></trkpt><trkpt lat="43.641898699875156" lon="5.534479799128835"><ele>214.0</ele><time>2026-04-22T14:17:48Z</time></trkpt><trkpt lat="43.641819805724666" lon="5.534413174162827"><ele>213.99999999999997</ele><time>2026-04-22T14:18:28Z</time></trkpt><trkpt lat="43.641792606910826" lon="5.534301320627529"><ele>213.99999999999997</ele><time>2026-04-22T14:18:41Z</time></trkpt><trkpt lat="43.641836652281995" lon="5.5342129973294325"><ele>214.0</ele><time>2026-04-22T14:19:09.001Z</time></trkpt><trkpt lat="43.64173316612594" lon="5.534195852678028"><ele>214.0</ele><time>2026-04-22T14:19:28.001Z</time></trkpt><trkpt lat="43.64165108969269" lon="5.5342633990816745"><ele>214.0</ele><time>2026-04-22T14:19:34.001Z</time></trkpt><trkpt lat="43.641635983037396" lon="5.534390173948121"><ele>214.0</ele><time>2026-04-22T14:19:55Z</time></trkpt><trkpt lat="43.64133051555934" lon="5.534213672529165"><ele>214.0</ele><time>2026-04-22T14:20:01Z</time></trkpt><trkpt lat="43.64181388754007" lon="5.534417434901575"><ele>213.99999999999997</ele><time>2026-04-22T14:20:14Z</time></trkpt><trkpt lat="43.64188363293876" lon="5.53442819165467"><ele>214.0</ele><time>2026-04-22T14:22:36Z</time></trkpt><trkpt lat="43.641838546522585" lon="5.534358673809668"><ele>214.0</ele><time>2026-04-22T14:23:38Z</time></trkpt><trkpt lat="43.64189957966618" lon="5.534426716092479"><ele>214.0</ele><time>2026-04-22T14:24:14.001Z</time></trkpt><trkpt lat="43.64193166498885" lon="5.534331376634583"><ele>213.99999999999997</ele><time>2026-04-22T14:24:20.001Z</time></trkpt><trkpt lat="43.64180146317957" lon="5.5342620102724345"><ele>214.0</ele><time>2026-04-22T14:24:34Z</time></trkpt><trkpt lat="43.64184288005639" lon="5.534327556532065"><ele>214.0</ele><time>2026-04-22T14:24:43Z</time></trkpt><trkpt lat="43.64186481004243" lon="5.534471473913506"><ele>213.99999999999997</ele><time>2026-04-22T14:27:49Z</time></trkpt><trkpt lat="43.641936142174195" lon="5.534502447801121"><ele>213.99999999999997</ele><time>2026-04-22T14:28:07Z</time></trkpt><trkpt lat="43.6419786115018" lon="5.53459389396981"><ele>214.0</ele><time>2026-04-22T14:28:11Z</time></trkpt><trkpt lat="43.64211015773026" lon="5.5346292898111935"><ele>214.0</ele><time>2026-04-22T14:28:15Z</time></trkpt><trkpt lat="43.64222254007225" lon="5.534622584232544"><ele>212.85714285714286</ele><time>2026-04-22T14:28:17Z</time></trkpt><trkpt lat="43.64227140392418" lon="5.534565150543205"><ele>211.71428571428572</ele><time>2026-04-22T14:28:18Z</time></trkpt><trkpt lat="43.64227360905067" lon="5.534442683941718"><ele>210.57142857142856</ele><time>2026-04-22T14:28:20Z</time></trkpt><trkpt lat="43.642235565781995" lon="5.534367636620772"><ele>209.42857142857144</ele><time>2026-04-22T14:28:21Z</time></trkpt><trkpt lat="43.64219466671774" lon="5.534296103648223"><ele>208.28571428571428</ele><time>2026-04-22T14:28:22Z</time></trkpt><trkpt lat="43.642155007887304" lon="5.534211733454957"><ele>207.14285714285714</ele><time>2026-04-22T14:28:23Z</time></trkpt><trkpt lat="43.64212451230233" lon="5.534125767492379"><ele>206.0</ele><time>2026-04-22T14:28:24Z</time></trkpt><trkpt lat="43.64209789627986" lon="5.534046473293498"><ele>206.0</ele><time>2026-04-22T14:28:25Z</time></trkpt><trkpt lat="43.642071170651846" lon="5.533945507499314"><ele>206.0</ele><time>2026-04-22T14:28:26Z</time></trkpt><trkpt lat="43.64204708673778" lon="5.53383367513997"><ele>206.0</ele><time>2026-04-22T14:28:27.001Z</time></trkpt><trkpt lat="43.642022062988985" lon="5.5336910567950754"><ele>206.0</ele><time>2026-04-22T14:28:28.001Z</time></trkpt><trkpt lat="43.64199852207075" lon="5.53351915463254"><ele>206.0</ele><time>2026-04-22T14:28:29.001Z</time></trkpt><trkpt lat="43.64196974573735" lon="5.533336068184899"><ele>208.33333333333334</ele><time>2026-04-22T14:28:30.001Z</time></trkpt><trkpt lat="43.64193664192782" lon="5.533138847490686"><ele>210.66666666666669</ele><time>2026-04-22T14:28:31.001Z</time></trkpt><trkpt lat="43.64189853285032" lon="5.532935145419072"><ele>213.0</ele><time>2026-04-22T14:28:32.001Z</time></trkpt><trkpt lat="43.64186008152114" lon="5.532723217461521"><ele>213.0</ele><time>2026-04-22T14:28:33.001Z</time></trkpt><trkpt lat="43.64182494819868" lon="5.532506588268518"><ele>213.0</ele><time>2026-04-22T14:28:34.001Z</time></trkpt><trkpt lat="43.641761831064805" lon="5.5323227189425985"><ele>213.0</ele><time>2026-04-22T14:28:35.001Z</time></trkpt><trkpt lat="43.64173252913489" lon="5.532103570516802"><ele>213.66666666666669</ele><time>2026-04-22T14:28:36.001Z</time></trkpt><trkpt lat="43.64169377970091" lon="5.531902286069342"><ele>214.33333333333334</ele><time>2026-04-22T14:28:37.001Z</time></trkpt><trkpt lat="43.64165139717279" lon="5.5316876755420985"><ele>215.0</ele><time>2026-04-22T14:28:38.001Z</time></trkpt><trkpt lat="43.64160773865359" lon="5.531465322139963"><ele>215.0</ele><time>2026-04-22T14:28:39.001Z</time></trkpt><trkpt lat="43.64157168679161" lon="5.531239771555749"><ele>215.0</ele><time>2026-04-22T14:28:40.001Z</time></trkpt><trkpt lat="43.6415442749911" lon="5.531007556039078"><ele>215.0</ele><time>2026-04-22T14:28:41.001Z</time></trkpt><trkpt lat="43.641498078203284" lon="5.530780121506983"><ele>214.66666666666669</ele><time>2026-04-22T14:28:42.001Z</time></trkpt><trkpt lat="43.64145418200376" lon="5.530522253615604"><ele>214.33333333333331</ele><time>2026-04-22T14:28:43.001Z</time></trkpt><trkpt lat="43.64140401305282" lon="5.5302813159451825"><ele>214.0</ele><time>2026-04-22T14:28:43.999Z</time></trkpt><trkpt lat="43.64135171900582" lon="5.5300610295056"><ele>215.66666666666666</ele><time>2026-04-22T14:28:44.999Z</time></trkpt><trkpt lat="43.64130766550392" lon="5.529818866686975"><ele>217.33333333333331</ele><time>2026-04-22T14:28:45.999Z</time></trkpt><trkpt lat="43.64126265792039" lon="5.52956945178828"><ele>219.0</ele><time>2026-04-22T14:28:46.999Z</time></trkpt><trkpt lat="43.64122523272392" lon="5.529319339179808"><ele>220.66666666666669</ele><time>2026-04-22T14:28:47.999Z</time></trkpt><trkpt lat="43.6411839718599" lon="5.529080175538291"><ele>222.33333333333334</ele><time>2026-04-22T14:28:48.999Z</time></trkpt><trkpt lat="43.64114376097181" lon="5.5288524595910244"><ele>224.0</ele><time>2026-04-22T14:28:49.999Z</time></trkpt><trkpt lat="43.641109155741894" lon="5.528654646980642"><ele>225.0</ele><time>2026-04-22T14:28:51Z</time></trkpt><trkpt lat="43.641078923259016" lon="5.528486486593877"><ele>225.99999999999997</ele><time>2026-04-22T14:28:52Z</time></trkpt><trkpt lat="43.641051466143765" lon="5.528333608468025"><ele>226.99999999999997</ele><time>2026-04-22T14:28:53Z</time></trkpt><trkpt lat="43.64102809362052" lon="5.528208167276393"><ele>228.0</ele><time>2026-04-22T14:28:54Z</time></trkpt><trkpt lat="43.64100784931541" lon="5.528109479579552"><ele>229.0</ele><time>2026-04-22T14:28:55Z</time></trkpt><trkpt lat="43.64099261977566" lon="5.528018389427985"><ele>229.39999999999998</ele><time>2026-04-22T14:28:56Z</time></trkpt><trkpt lat="43.64096819342518" lon="5.5278820215496465"><ele>229.79999999999998</ele><time>2026-04-22T14:28:58Z</time></trkpt><trkpt lat="43.64095117542632" lon="5.527717518583193"><ele>230.20000000000002</ele><time>2026-04-22T14:29:00Z</time></trkpt><trkpt lat="43.64093636668682" lon="5.527604715104429"><ele>230.60000000000002</ele><time>2026-04-22T14:29:01Z</time></trkpt><trkpt lat="43.64091170907972" lon="5.527487977859535"><ele>231.0</ele><time>2026-04-22T14:29:02Z</time></trkpt><trkpt lat="43.640888461731286" lon="5.527388777935409"><ele>231.0</ele><time>2026-04-22T14:29:03Z</time></trkpt><trkpt lat="43.64085633588771" lon="5.527299062861728"><ele>231.0</ele><time>2026-04-22T14:29:05Z</time></trkpt><trkpt lat="43.64084249481715" lon="5.527203411899205"><ele>231.0</ele><time>2026-04-22T14:29:08Z</time></trkpt><trkpt lat="43.64083738575024" lon="5.527095403435226"><ele>231.0</ele><time>2026-04-22T14:29:10Z</time></trkpt><trkpt lat="43.640804386435356" lon="5.526941876656045"><ele>231.0</ele><time>2026-04-22T14:29:12Z</time></trkpt><trkpt lat="43.640784674569495" lon="5.526849619755504"><ele>231.0</ele><time>2026-04-22T14:29:13Z</time></trkpt><trkpt lat="43.64076242297283" lon="5.5267498479079835"><ele>230.66666666666666</ele><time>2026-04-22T14:29:14Z</time></trkpt><trkpt lat="43.640743065068634" lon="5.526623356780447"><ele>230.33333333333331</ele><time>2026-04-22T14:29:15Z</time></trkpt><trkpt lat="43.64071638906855" lon="5.526502979552811"><ele>230.0</ele><time>2026-04-22T14:29:16Z</time></trkpt><trkpt lat="43.640695874586285" lon="5.526383382859549"><ele>229.66666666666666</ele><time>2026-04-22T14:29:17Z</time></trkpt><trkpt lat="43.64067231319974" lon="5.526271746703799"><ele>229.33333333333331</ele><time>2026-04-22T14:29:18Z</time></trkpt><trkpt lat="43.64065323796761" lon="5.526172248531134"><ele>229.0</ele><time>2026-04-22T14:29:19Z</time></trkpt><trkpt lat="43.64062459439709" lon="5.526038537429772"><ele>228.83333333333331</ele><time>2026-04-22T14:29:21Z</time></trkpt><trkpt lat="43.640613122835404" lon="5.525911224660706"><ele>228.66666666666666</ele><time>2026-04-22T14:29:23Z</time></trkpt><trkpt lat="43.64062983602232" lon="5.525803326762256"><ele>228.5</ele><time>2026-04-22T14:29:24Z</time></trkpt><trkpt lat="43.6406428735276" lon="5.5257055063655"><ele>228.33333333333331</ele><time>2026-04-22T14:29:25Z</time></trkpt><trkpt lat="43.64066489372271" lon="5.525604960331665"><ele>228.16666666666666</ele><time>2026-04-22T14:29:26Z</time></trkpt><trkpt lat="43.64065187208099" lon="5.525490169802108"><ele>228.0</ele><time>2026-04-22T14:29:27Z</time></trkpt><trkpt lat="43.640598635098684" lon="5.525376270711353"><ele>228.4</ele><time>2026-04-22T14:29:28Z</time></trkpt><trkpt lat="43.640526467672636" lon="5.525276753709064"><ele>228.8</ele><time>2026-04-22T14:29:29Z</time></trkpt><trkpt lat="43.64046369638544" lon="5.525177733929594"><ele>229.2</ele><time>2026-04-22T14:29:30Z</time></trkpt><trkpt lat="43.64043833917139" lon="5.525042805159184"><ele>229.6</ele><time>2026-04-22T14:29:31Z</time></trkpt><trkpt lat="43.64043377345924" lon="5.524889659673388"><ele>230.0</ele><time>2026-04-22T14:29:32Z</time></trkpt><trkpt lat="43.64042448447471" lon="5.524674050948444"><ele>229.66666666666669</ele><time>2026-04-22T14:29:33Z</time></trkpt><trkpt lat="43.64040589434957" lon="5.524456927517"><ele>229.33333333333331</ele><time>2026-04-22T14:29:34Z</time></trkpt><trkpt lat="43.640385091163544" lon="5.524255817651426"><ele>229.0</ele><time>2026-04-22T14:29:35Z</time></trkpt><trkpt lat="43.640360769465694" lon="5.5240551196726795"><ele>229.0</ele><time>2026-04-22T14:29:36Z</time></trkpt><trkpt lat="43.640339658762144" lon="5.523874176402524"><ele>229.0</ele><time>2026-04-22T14:29:37Z</time></trkpt><trkpt lat="43.64032146387157" lon="5.523711632174558"><ele>229.0</ele><time>2026-04-22T14:29:38Z</time></trkpt><trkpt lat="43.64031025630154" lon="5.523555507548555"><ele>229.0</ele><time>2026-04-22T14:29:39Z</time></trkpt><trkpt lat="43.64029414683097" lon="5.523398527424906"><ele>232.75</ele><time>2026-04-22T14:29:40Z</time></trkpt><trkpt lat="43.64028009778611" lon="5.523237653597142"><ele>236.5</ele><time>2026-04-22T14:29:41Z</time></trkpt><trkpt lat="43.64025870504042" lon="5.523071416577175"><ele>240.25</ele><time>2026-04-22T14:29:42Z</time></trkpt><trkpt lat="43.64023242036773" lon="5.522882188918481"><ele>244.0</ele><time>2026-04-22T14:29:43Z</time></trkpt><trkpt lat="43.64021137004212" lon="5.522690765276864"><ele>244.5</ele><time>2026-04-22T14:29:44Z</time></trkpt><trkpt lat="43.64019318542196" lon="5.522494928938143"><ele>245.0</ele><time>2026-04-22T14:29:45Z</time></trkpt><trkpt lat="43.64017679321828" lon="5.522294465838392"><ele>245.5</ele><time>2026-04-22T14:29:46Z</time></trkpt><trkpt lat="43.640153422406186" lon="5.52208464352584"><ele>246.0</ele><time>2026-04-22T14:29:47Z</time></trkpt><trkpt lat="43.64013234386899" lon="5.521858952802423"><ele>246.66666666666669</ele><time>2026-04-22T14:29:48Z</time></trkpt><trkpt lat="43.64010589103156" lon="5.5216291969211975"><ele>247.33333333333334</ele><time>2026-04-22T14:29:49Z</time></trkpt><trkpt lat="43.640078811240166" lon="5.521398904395641"><ele>248.0</ele><time>2026-04-22T14:29:50Z</time></trkpt><trkpt lat="43.640048504240895" lon="5.521155237602058"><ele>248.33333333333334</ele><time>2026-04-22T14:29:51Z</time></trkpt><trkpt lat="43.64001434506215" lon="5.520888866471003"><ele>248.66666666666669</ele><time>2026-04-22T14:29:52Z</time></trkpt><trkpt lat="43.63997014808155" lon="5.520618662796817"><ele>249.0</ele><time>2026-04-22T14:29:53Z</time></trkpt><trkpt lat="43.639914483762624" lon="5.520340617298883"><ele>249.0</ele><time>2026-04-22T14:29:54Z</time></trkpt><trkpt lat="43.63984582859006" lon="5.5200751478012675"><ele>249.0</ele><time>2026-04-22T14:29:55Z</time></trkpt><trkpt lat="43.639773641045196" lon="5.519799429469332"><ele>249.0</ele><time>2026-04-22T14:29:56Z</time></trkpt><trkpt lat="43.639668138244495" lon="5.519522418155683"><ele>247.5</ele><time>2026-04-22T14:29:57Z</time></trkpt><trkpt lat="43.63956337606369" lon="5.519256386179009"><ele>246.0</ele><time>2026-04-22T14:29:58Z</time></trkpt><trkpt lat="43.63942892463863" lon="5.518983406388436"><ele>250.0</ele><time>2026-04-22T14:29:59Z</time></trkpt><trkpt lat="43.63928584950146" lon="5.51870999913167"><ele>254.0</ele><time>2026-04-22T14:30:00Z</time></trkpt><trkpt lat="43.63912975029938" lon="5.518444828064803"><ele>254.0</ele><time>2026-04-22T14:30:01Z</time></trkpt><trkpt lat="43.638958828353154" lon="5.5181941275837"><ele>254.0</ele><time>2026-04-22T14:30:02Z</time></trkpt><trkpt lat="43.63878342751552" lon="5.517964819703617"><ele>255.5</ele><time>2026-04-22T14:30:03Z</time></trkpt><trkpt lat="43.638590942096734" lon="5.5177513420604845"><ele>257.0</ele><time>2026-04-22T14:30:04Z</time></trkpt><trkpt lat="43.63839094902078" lon="5.517557516658736"><ele>257.0</ele><time>2026-04-22T14:30:05Z</time></trkpt><trkpt lat="43.638182997230686" lon="5.517379114145449"><ele>257.0</ele><time>2026-04-22T14:30:06Z</time></trkpt><trkpt lat="43.637969183312066" lon="5.5172220290438805"><ele>258.5</ele><time>2026-04-22T14:30:07Z</time></trkpt><trkpt lat="43.63774427769005" lon="5.517087890345153"><ele>260.0</ele><time>2026-04-22T14:30:08Z</time></trkpt><trkpt lat="43.637514608983096" lon="5.516972216656698"><ele>260.0</ele><time>2026-04-22T14:30:09Z</time></trkpt><trkpt lat="43.6372891232705" lon="5.516869959070898"><ele>260.0</ele><time>2026-04-22T14:30:10Z</time></trkpt><trkpt lat="43.637057350737166" lon="5.516791147583759"><ele>262.5</ele><time>2026-04-22T14:30:11Z</time></trkpt><trkpt lat="43.6368246928017" lon="5.516735650126502"><ele>265.0</ele><time>2026-04-22T14:30:12Z</time></trkpt><trkpt lat="43.63658736997431" lon="5.516693879570705"><ele>265.0</ele><time>2026-04-22T14:30:13Z</time></trkpt><trkpt lat="43.636357121238234" lon="5.516664450088161"><ele>265.0</ele><time>2026-04-22T14:30:14Z</time></trkpt><trkpt lat="43.63614568011242" lon="5.516644176549575"><ele>265.0</ele><time>2026-04-22T14:30:15Z</time></trkpt><trkpt lat="43.635949735521066" lon="5.516648441107842"><ele>266.3333333333333</ele><time>2026-04-22T14:30:16Z</time></trkpt><trkpt lat="43.635772718933964" lon="5.516668203771533"><ele>267.6666666666667</ele><time>2026-04-22T14:30:17Z</time></trkpt><trkpt lat="43.635604344006374" lon="5.516699544785806"><ele>269.0</ele><time>2026-04-22T14:30:18Z</time></trkpt><trkpt lat="43.635456875742236" lon="5.516724777959844"><ele>269.0</ele><time>2026-04-22T14:30:19Z</time></trkpt><trkpt lat="43.63532915628373" lon="5.516738088017755"><ele>269.0</ele><time>2026-04-22T14:30:20Z</time></trkpt><trkpt lat="43.63521461568039" lon="5.516731874384989"><ele>269.0</ele><time>2026-04-22T14:30:21Z</time></trkpt><trkpt lat="43.635115064865815" lon="5.516693327535134"><ele>269.0</ele><time>2026-04-22T14:30:22Z</time></trkpt><trkpt lat="43.635021191054584" lon="5.5166457465394085"><ele>269.0</ele><time>2026-04-22T14:30:23Z</time></trkpt><trkpt lat="43.634933222353226" lon="5.516642143054044"><ele>268.5</ele><time>2026-04-22T14:30:24.001Z</time></trkpt><trkpt lat="43.63485322054066" lon="5.516695256825176"><ele>268.0</ele><time>2026-04-22T14:30:25.001Z</time></trkpt><trkpt lat="43.63475909366565" lon="5.516787371353772"><ele>267.5</ele><time>2026-04-22T14:30:26.001Z</time></trkpt><trkpt lat="43.634659126841086" lon="5.516846392586474"><ele>267.0</ele><time>2026-04-22T14:30:27.001Z</time></trkpt><trkpt lat="43.6345201933729" lon="5.516868067456169"><ele>268.0</ele><time>2026-04-22T14:30:28.001Z</time></trkpt><trkpt lat="43.63437800515139" lon="5.516869232465415"><ele>269.0</ele><time>2026-04-22T14:30:29.001Z</time></trkpt><trkpt lat="43.634215076707804" lon="5.516877803764794"><ele>270.0</ele><time>2026-04-22T14:30:30.001Z</time></trkpt><trkpt lat="43.63403722594351" lon="5.516892919784694"><ele>270.0</ele><time>2026-04-22T14:30:31.001Z</time></trkpt><trkpt lat="43.633845934747384" lon="5.516910988789573"><ele>270.0</ele><time>2026-04-22T14:30:32.001Z</time></trkpt><trkpt lat="43.633651115082024" lon="5.516912559395192"><ele>270.0</ele><time>2026-04-22T14:30:33.001Z</time></trkpt><trkpt lat="43.633440129295145" lon="5.516893310847274"><ele>271.6666666666667</ele><time>2026-04-22T14:30:34.001Z</time></trkpt><trkpt lat="43.633230974440295" lon="5.5168384727048565"><ele>273.33333333333337</ele><time>2026-04-22T14:30:35.001Z</time></trkpt><trkpt lat="43.633026821898916" lon="5.516746993336878"><ele>275.0</ele><time>2026-04-22T14:30:36.001Z</time></trkpt><trkpt lat="43.63284048595503" lon="5.516624253787661"><ele>275.33333333333337</ele><time>2026-04-22T14:30:37.001Z</time></trkpt><trkpt lat="43.632663692629535" lon="5.516464076245313"><ele>275.6666666666667</ele><time>2026-04-22T14:30:38.001Z</time></trkpt><trkpt lat="43.63251204123812" lon="5.516299560778991"><ele>276.0</ele><time>2026-04-22T14:30:39.001Z</time></trkpt><trkpt lat="43.632370042987624" lon="5.516115907724456"><ele>276.0</ele><time>2026-04-22T14:30:40.001Z</time></trkpt><trkpt lat="43.632252732135235" lon="5.515895356776403"><ele>276.0</ele><time>2026-04-22T14:30:41.001Z</time></trkpt><trkpt lat="43.632143829466706" lon="5.5156507964937775"><ele>276.0</ele><time>2026-04-22T14:30:42.001Z</time></trkpt><trkpt lat="43.632056513294685" lon="5.515390466041371"><ele>277.3333333333333</ele><time>2026-04-22T14:30:43.001Z</time></trkpt><trkpt lat="43.63198444830192" lon="5.515104045777179"><ele>278.66666666666663</ele><time>2026-04-22T14:30:44.001Z</time></trkpt><trkpt lat="43.63191894470047" lon="5.51481132577583"><ele>280.0</ele><time>2026-04-22T14:30:45.001Z</time></trkpt><trkpt lat="43.631860059281955" lon="5.514540072137957"><ele>282.3333333333333</ele><time>2026-04-22T14:30:46.001Z</time></trkpt><trkpt lat="43.63178005954578" lon="5.514281065335506"><ele>284.6666666666667</ele><time>2026-04-22T14:30:47.001Z</time></trkpt><trkpt lat="43.631678829376774" lon="5.514034161622061"><ele>287.0</ele><time>2026-04-22T14:30:48.001Z</time></trkpt><trkpt lat="43.63156702142379" lon="5.513788450927234"><ele>287.33333333333337</ele><time>2026-04-22T14:30:49.001Z</time></trkpt><trkpt lat="43.63143959461278" lon="5.5135524468443835"><ele>287.6666666666667</ele><time>2026-04-22T14:30:50Z</time></trkpt><trkpt lat="43.63131327246505" lon="5.513349838577148"><ele>288.0</ele><time>2026-04-22T14:30:51Z</time></trkpt><trkpt lat="43.63119052420924" lon="5.513168096685182"><ele>290.25</ele><time>2026-04-22T14:30:52Z</time></trkpt><trkpt lat="43.631079514139394" lon="5.513010177798718"><ele>292.5</ele><time>2026-04-22T14:30:53Z</time></trkpt><trkpt lat="43.630982544861055" lon="5.512860771653906"><ele>294.75</ele><time>2026-04-22T14:30:54Z</time></trkpt><trkpt lat="43.63089060192842" lon="5.512717973429954"><ele>297.0</ele><time>2026-04-22T14:30:55Z</time></trkpt><trkpt lat="43.630791482547835" lon="5.512562876175142"><ele>297.0</ele><time>2026-04-22T14:30:56Z</time></trkpt><trkpt lat="43.6306740806946" lon="5.512386909719856"><ele>297.0</ele><time>2026-04-22T14:30:57Z</time></trkpt><trkpt lat="43.6305413548721" lon="5.512204402927431"><ele>297.0</ele><time>2026-04-22T14:30:58Z</time></trkpt><trkpt lat="43.63039500942077" lon="5.511988211378614"><ele>297.6666666666667</ele><time>2026-04-22T14:30:59Z</time></trkpt><trkpt lat="43.63024498616522" lon="5.511775299435439"><ele>298.33333333333337</ele><time>2026-04-22T14:31:00Z</time></trkpt><trkpt lat="43.630100919735945" lon="5.51156588748634"><ele>299.0</ele><time>2026-04-22T14:31:01Z</time></trkpt><trkpt lat="43.62995581658161" lon="5.51137540182538"><ele>300.33333333333337</ele><time>2026-04-22T14:31:02Z</time></trkpt><trkpt lat="43.62979813862099" lon="5.511203946467727"><ele>301.6666666666667</ele><time>2026-04-22T14:31:03Z</time></trkpt><trkpt lat="43.629641351141224" lon="5.5110420066459245"><ele>303.0</ele><time>2026-04-22T14:31:04Z</time></trkpt><trkpt lat="43.629488634652574" lon="5.510900206421088"><ele>303.3333333333333</ele><time>2026-04-22T14:31:05Z</time></trkpt><trkpt lat="43.62933791492838" lon="5.510767539081647"><ele>303.66666666666663</ele><time>2026-04-22T14:31:06Z</time></trkpt><trkpt lat="43.62917242375837" lon="5.510640195029196"><ele>304.0</ele><time>2026-04-22T14:31:07Z</time></trkpt><trkpt lat="43.628986821169285" lon="5.510493379135546"><ele>305.66666666666663</ele><time>2026-04-22T14:31:08Z</time></trkpt><trkpt lat="43.62880774224798" lon="5.510331083588645"><ele>307.3333333333333</ele><time>2026-04-22T14:31:09Z</time></trkpt><trkpt lat="43.628625896794865" lon="5.510208031432731"><ele>309.0</ele><time>2026-04-22T14:31:10Z</time></trkpt><trkpt lat="43.62844495598001" lon="5.5101124499675755"><ele>309.0</ele><time>2026-04-22T14:31:11Z</time></trkpt><trkpt lat="43.628263523299616" lon="5.510039981818262"><ele>309.0</ele><time>2026-04-22T14:31:12Z</time></trkpt><trkpt lat="43.62807008096381" lon="5.5099734779637055"><ele>309.0</ele><time>2026-04-22T14:31:13Z</time></trkpt><trkpt lat="43.62788576504646" lon="5.509917382215821"><ele>309.0</ele><time>2026-04-22T14:31:14Z</time></trkpt><trkpt lat="43.627709536118644" lon="5.509874167100736"><ele>309.0</ele><time>2026-04-22T14:31:15Z</time></trkpt><trkpt lat="43.627546364445664" lon="5.509851360335899"><ele>309.0</ele><time>2026-04-22T14:31:16Z</time></trkpt><trkpt lat="43.62739433498957" lon="5.509826130953809"><ele>309.0</ele><time>2026-04-22T14:31:17Z</time></trkpt><trkpt lat="43.62724144977191" lon="5.509801070472079"><ele>309.0</ele><time>2026-04-22T14:31:18Z</time></trkpt><trkpt lat="43.62708605376116" lon="5.5097692809988885"><ele>309.0</ele><time>2026-04-22T14:31:19Z</time></trkpt><trkpt lat="43.626929507270845" lon="5.509733356960858"><ele>309.0</ele><time>2026-04-22T14:31:20Z</time></trkpt><trkpt lat="43.62679591054191" lon="5.509702388944006"><ele>309.0</ele><time>2026-04-22T14:31:21Z</time></trkpt><trkpt lat="43.626337683268204" lon="5.50958806997008"><ele>311.6666666666667</ele><time>2026-04-22T14:31:22Z</time></trkpt><trkpt lat="43.62615786895558" lon="5.509532969124398"><ele>314.33333333333337</ele><time>2026-04-22T14:31:23Z</time></trkpt><trkpt lat="43.62596201361238" lon="5.509476628108945"><ele>317.0</ele><time>2026-04-22T14:31:24Z</time></trkpt><trkpt lat="43.62576163502057" lon="5.509427256535867"><ele>316.33333333333337</ele><time>2026-04-22T14:31:25Z</time></trkpt><trkpt lat="43.62556323940761" lon="5.5093795751209065"><ele>315.6666666666667</ele><time>2026-04-22T14:31:26Z</time></trkpt><trkpt lat="43.625381923457894" lon="5.509327167157006"><ele>315.0</ele><time>2026-04-22T14:31:27Z</time></trkpt><trkpt lat="43.6252129057249" lon="5.50928052575135"><ele>315.0</ele><time>2026-04-22T14:31:28Z</time></trkpt><trkpt lat="43.625042415620804" lon="5.509226578607619"><ele>315.0</ele><time>2026-04-22T14:31:29Z</time></trkpt><trkpt lat="43.62486987734982" lon="5.509176183639042"><ele>315.0</ele><time>2026-04-22T14:31:30Z</time></trkpt><trkpt lat="43.62470151433458" lon="5.509116322896821"><ele>315.0</ele><time>2026-04-22T14:31:31Z</time></trkpt><trkpt lat="43.624523526057125" lon="5.509062913051515"><ele>315.0</ele><time>2026-04-22T14:31:32Z</time></trkpt><trkpt lat="43.62433836337495" lon="5.509006929513048"><ele>315.0</ele><time>2026-04-22T14:31:33Z</time></trkpt><trkpt lat="43.62414652130393" lon="5.508938826558028"><ele>314.3333333333333</ele><time>2026-04-22T14:31:34Z</time></trkpt><trkpt lat="43.623956868384944" lon="5.508862115986415"><ele>313.66666666666663</ele><time>2026-04-22T14:31:35Z</time></trkpt><trkpt lat="43.62376772966246" lon="5.50877048489177"><ele>313.0</ele><time>2026-04-22T14:31:36Z</time></trkpt><trkpt lat="43.6235819818814" lon="5.508680688328084"><ele>316.0</ele><time>2026-04-22T14:31:37Z</time></trkpt><trkpt lat="43.623399040327755" lon="5.508569675064677"><ele>319.0</ele><time>2026-04-22T14:31:38Z</time></trkpt><trkpt lat="43.623224439984035" lon="5.508450000825972"><ele>322.0</ele><time>2026-04-22T14:31:39Z</time></trkpt><trkpt lat="43.6230551735706" lon="5.508312494943049"><ele>322.0</ele><time>2026-04-22T14:31:40Z</time></trkpt><trkpt lat="43.622892361808645" lon="5.508166123113949"><ele>322.0</ele><time>2026-04-22T14:31:41Z</time></trkpt><trkpt lat="43.62273304415461" lon="5.508008045948187"><ele>322.0</ele><time>2026-04-22T14:31:42Z</time></trkpt><trkpt lat="43.622577112624235" lon="5.507853449618873"><ele>323.3333333333333</ele><time>2026-04-22T14:31:43Z</time></trkpt><trkpt lat="43.62242153495215" lon="5.507695287442265"><ele>324.6666666666667</ele><time>2026-04-22T14:31:44Z</time></trkpt><trkpt lat="43.622256999106895" lon="5.507511452789397"><ele>326.0</ele><time>2026-04-22T14:31:45Z</time></trkpt><trkpt lat="43.62208901659918" lon="5.507359923490123"><ele>326.0</ele><time>2026-04-22T14:31:46Z</time></trkpt><trkpt lat="43.62192363902404" lon="5.507219048276591"><ele>326.0</ele><time>2026-04-22T14:31:47Z</time></trkpt><trkpt lat="43.62175329948445" lon="5.507090625796747"><ele>326.0</ele><time>2026-04-22T14:31:48Z</time></trkpt><trkpt lat="43.621579183409004" lon="5.5069657292809335"><ele>327.33333333333337</ele><time>2026-04-22T14:31:49Z</time></trkpt><trkpt lat="43.62139921112009" lon="5.506862361951139"><ele>328.6666666666667</ele><time>2026-04-22T14:31:50Z</time></trkpt><trkpt lat="43.62121253545048" lon="5.506756191735349"><ele>330.0</ele><time>2026-04-22T14:31:51Z</time></trkpt><trkpt lat="43.62101758945978" lon="5.506664186210128"><ele>330.6666666666667</ele><time>2026-04-22T14:31:52Z</time></trkpt><trkpt lat="43.620819626931876" lon="5.506581852079434"><ele>331.33333333333337</ele><time>2026-04-22T14:31:53Z</time></trkpt><trkpt lat="43.62062203030474" lon="5.506511242855186"><ele>332.0</ele><time>2026-04-22T14:31:54Z</time></trkpt><trkpt lat="43.620423459399646" lon="5.5064464421316845"><ele>331.33333333333337</ele><time>2026-04-22T14:31:55Z</time></trkpt><trkpt lat="43.62023887886207" lon="5.506388328675403"><ele>330.6666666666667</ele><time>2026-04-22T14:31:56Z</time></trkpt><trkpt lat="43.62007334048507" lon="5.506332630561615"><ele>330.0</ele><time>2026-04-22T14:31:57Z</time></trkpt><trkpt lat="43.61989914410704" lon="5.506268481201137"><ele>331.6666666666667</ele><time>2026-04-22T14:31:58Z</time></trkpt><trkpt lat="43.61970789011714" lon="5.506201506746669"><ele>333.33333333333337</ele><time>2026-04-22T14:31:59Z</time></trkpt><trkpt lat="43.61950996085969" lon="5.506137640951206"><ele>335.0</ele><time>2026-04-22T14:32:00Z</time></trkpt><trkpt lat="43.61931688348325" lon="5.506075565745193"><ele>335.0</ele><time>2026-04-22T14:32:01Z</time></trkpt><trkpt lat="43.61912967450843" lon="5.506017531406858"><ele>335.0</ele><time>2026-04-22T14:32:02Z</time></trkpt><trkpt lat="43.61895168058639" lon="5.505967111970291"><ele>335.0</ele><time>2026-04-22T14:32:03Z</time></trkpt><trkpt lat="43.618766093422224" lon="5.50590135276341"><ele>334.0</ele><time>2026-04-22T14:32:04Z</time></trkpt><trkpt lat="43.61857614887601" lon="5.505850588887386"><ele>333.0</ele><time>2026-04-22T14:32:05Z</time></trkpt><trkpt lat="43.618384176958926" lon="5.505794544136441"><ele>332.0</ele><time>2026-04-22T14:32:06Z</time></trkpt><trkpt lat="43.61818787053567" lon="5.505734475002929"><ele>332.0</ele><time>2026-04-22T14:32:07Z</time></trkpt><trkpt lat="43.61800621644471" lon="5.5056754966019135"><ele>332.0</ele><time>2026-04-22T14:32:08Z</time></trkpt><trkpt lat="43.617836576578796" lon="5.50561047031769"><ele>332.0</ele><time>2026-04-22T14:32:09Z</time></trkpt><trkpt lat="43.61764849012115" lon="5.505539011707278"><ele>332.0</ele><time>2026-04-22T14:32:10Z</time></trkpt><trkpt lat="43.6174563046289" lon="5.505439375986305"><ele>332.0</ele><time>2026-04-22T14:32:11Z</time></trkpt><trkpt lat="43.617264946834446" lon="5.505336638830053"><ele>332.0</ele><time>2026-04-22T14:32:12Z</time></trkpt><trkpt lat="43.61707636998904" lon="5.505210967472454"><ele>331.33333333333337</ele><time>2026-04-22T14:32:13Z</time></trkpt><trkpt lat="43.61690270984157" lon="5.505078400193679"><ele>330.6666666666667</ele><time>2026-04-22T14:32:14.001Z</time></trkpt><trkpt lat="43.61672993226365" lon="5.504930662484963"><ele>330.0</ele><time>2026-04-22T14:32:15.001Z</time></trkpt><trkpt lat="43.61655942096963" lon="5.504781889110679"><ele>330.0</ele><time>2026-04-22T14:32:16.001Z</time></trkpt><trkpt lat="43.616389324835396" lon="5.504616189362009"><ele>330.0</ele><time>2026-04-22T14:32:17.001Z</time></trkpt><trkpt lat="43.616213443584655" lon="5.504429005225605"><ele>330.0</ele><time>2026-04-22T14:32:18.001Z</time></trkpt><trkpt lat="43.616037773866424" lon="5.504240435680425"><ele>329.6666666666667</ele><time>2026-04-22T14:32:19.001Z</time></trkpt><trkpt lat="43.61587411411018" lon="5.504063139833066"><ele>329.33333333333337</ele><time>2026-04-22T14:32:20.001Z</time></trkpt><trkpt lat="43.61572510654294" lon="5.503894645148615"><ele>329.0</ele><time>2026-04-22T14:32:21.001Z</time></trkpt><trkpt lat="43.61557374077574" lon="5.503730093177326"><ele>328.33333333333337</ele><time>2026-04-22T14:32:22.001Z</time></trkpt><trkpt lat="43.6154212788403" lon="5.50356739491296"><ele>327.6666666666667</ele><time>2026-04-22T14:32:23.001Z</time></trkpt><trkpt lat="43.61526104827072" lon="5.50339174101971"><ele>327.0</ele><time>2026-04-22T14:32:24.001Z</time></trkpt><trkpt lat="43.61510361106757" lon="5.503223937172207"><ele>327.0</ele><time>2026-04-22T14:32:25.001Z</time></trkpt><trkpt lat="43.614952149905825" lon="5.503052017050008"><ele>327.0</ele><time>2026-04-22T14:32:26.001Z</time></trkpt><trkpt lat="43.61479969294693" lon="5.502880526514003"><ele>327.0</ele><time>2026-04-22T14:32:27.001Z</time></trkpt><trkpt lat="43.61464308854343" lon="5.502711693186804"><ele>327.6666666666667</ele><time>2026-04-22T14:32:28.001Z</time></trkpt><trkpt lat="43.614487020277394" lon="5.5025474940824735"><ele>328.33333333333337</ele><time>2026-04-22T14:32:29.001Z</time></trkpt><trkpt lat="43.614335724275314" lon="5.502392448342613"><ele>329.0</ele><time>2026-04-22T14:32:30.001Z</time></trkpt><trkpt lat="43.614181520505596" lon="5.502234968047511"><ele>327.0</ele><time>2026-04-22T14:32:31.001Z</time></trkpt><trkpt lat="43.61402463524384" lon="5.502070198734155"><ele>325.0</ele><time>2026-04-22T14:32:32.001Z</time></trkpt><trkpt lat="43.6138706445697" lon="5.501902272233851"><ele>323.0</ele><time>2026-04-22T14:32:33.001Z</time></trkpt><trkpt lat="43.613719772508574" lon="5.501730600045337"><ele>323.0</ele><time>2026-04-22T14:32:34.001Z</time></trkpt><trkpt lat="43.61356913370143" lon="5.501558844313653"><ele>323.0</ele><time>2026-04-22T14:32:35.001Z</time></trkpt><trkpt lat="43.6134168742703" lon="5.501384173828459"><ele>323.0</ele><time>2026-04-22T14:32:36.001Z</time></trkpt><trkpt lat="43.613267109157455" lon="5.501214522963727"><ele>320.33333333333337</ele><time>2026-04-22T14:32:37.001Z</time></trkpt><trkpt lat="43.61311733752994" lon="5.501056473679377"><ele>317.6666666666667</ele><time>2026-04-22T14:32:38.001Z</time></trkpt><trkpt lat="43.61297929481812" lon="5.5009009231837425"><ele>315.0</ele><time>2026-04-22T14:32:39.001Z</time></trkpt><trkpt lat="43.61284189807887" lon="5.5007557550138815"><ele>314.0</ele><time>2026-04-22T14:32:40.001Z</time></trkpt><trkpt lat="43.61270686464804" lon="5.500608625926331"><ele>313.0</ele><time>2026-04-22T14:32:41.001Z</time></trkpt><trkpt lat="43.61256866585793" lon="5.500465235972655"><ele>312.0</ele><time>2026-04-22T14:32:42.001Z</time></trkpt><trkpt lat="43.61243293986369" lon="5.500318355124792"><ele>312.0</ele><time>2026-04-22T14:32:43.001Z</time></trkpt><trkpt lat="43.612303203129095" lon="5.500170408643489"><ele>312.0</ele><time>2026-04-22T14:32:44.001Z</time></trkpt><trkpt lat="43.61217241596006" lon="5.500021382340888"><ele>312.0</ele><time>2026-04-22T14:32:45.001Z</time></trkpt><trkpt lat="43.61204344486331" lon="5.4998819598148225"><ele>311.0</ele><time>2026-04-22T14:32:46.001Z</time></trkpt><trkpt lat="43.61191100476649" lon="5.499748143271225"><ele>310.0</ele><time>2026-04-22T14:32:47.001Z</time></trkpt><trkpt lat="43.611778710448974" lon="5.499613883801118"><ele>309.0</ele><time>2026-04-22T14:32:48.001Z</time></trkpt><trkpt lat="43.61165420525565" lon="5.499478300382888"><ele>309.0</ele><time>2026-04-22T14:32:49.001Z</time></trkpt><trkpt lat="43.61153699147177" lon="5.499363050401453"><ele>309.0</ele><time>2026-04-22T14:32:50.001Z</time></trkpt><trkpt lat="43.61141833867241" lon="5.4992449653934115"><ele>309.0</ele><time>2026-04-22T14:32:51.001Z</time></trkpt><trkpt lat="43.61130335320643" lon="5.499147629286789"><ele>309.0</ele><time>2026-04-22T14:32:52.001Z</time></trkpt><trkpt lat="43.611196763324024" lon="5.49906129486852"><ele>309.2</ele><time>2026-04-22T14:32:53.001Z</time></trkpt><trkpt lat="43.611105479700164" lon="5.498999700992265"><ele>309.4</ele><time>2026-04-22T14:32:54.001Z</time></trkpt><trkpt lat="43.61103020851883" lon="5.498957406162488"><ele>309.6</ele><time>2026-04-22T14:32:55.001Z</time></trkpt><trkpt lat="43.61092171956834" lon="5.498900563031546"><ele>309.8</ele><time>2026-04-22T14:32:57Z</time></trkpt><trkpt lat="43.610801529636056" lon="5.498805168850418"><ele>310.0</ele><time>2026-04-22T14:32:59Z</time></trkpt><trkpt lat="43.61074462315813" lon="5.498758573321406"><ele>309.16666666666663</ele><time>2026-04-22T14:33:00Z</time></trkpt><trkpt lat="43.6106561983064" lon="5.498657451970176"><ele>308.3333333333333</ele><time>2026-04-22T14:33:02Z</time></trkpt><trkpt lat="43.610593641435905" lon="5.498575726605265"><ele>307.5</ele><time>2026-04-22T14:33:04Z</time></trkpt><trkpt lat="43.61054805618655" lon="5.498506391281164"><ele>306.6666666666667</ele><time>2026-04-22T14:33:05Z</time></trkpt><trkpt lat="43.61050727099032" lon="5.498417187569234"><ele>305.83333333333337</ele><time>2026-04-22T14:33:06Z</time></trkpt><trkpt lat="43.61044955765797" lon="5.498322225293103"><ele>305.0</ele><time>2026-04-22T14:33:07Z</time></trkpt><trkpt lat="43.61037891587569" lon="5.498264278366953"><ele>305.8</ele><time>2026-04-22T14:33:08Z</time></trkpt><trkpt lat="43.610306290797205" lon="5.498208632932806"><ele>306.6</ele><time>2026-04-22T14:33:09Z</time></trkpt><trkpt lat="43.61024068224913" lon="5.4981295875899905"><ele>307.4</ele><time>2026-04-22T14:33:10Z</time></trkpt><trkpt lat="43.61018003504954" lon="5.498025880370063"><ele>308.2</ele><time>2026-04-22T14:33:11Z</time></trkpt><trkpt lat="43.61009758414654" lon="5.497890826766741"><ele>309.0</ele><time>2026-04-22T14:33:12Z</time></trkpt><trkpt lat="43.60999980628316" lon="5.497747098704606"><ele>309.25</ele><time>2026-04-22T14:33:13Z</time></trkpt><trkpt lat="43.60989818244567" lon="5.497608400137451"><ele>309.5</ele><time>2026-04-22T14:33:14Z</time></trkpt><trkpt lat="43.609800960552505" lon="5.497483013849417"><ele>309.75</ele><time>2026-04-22T14:33:15Z</time></trkpt><trkpt lat="43.609707038149274" lon="5.49736128449196"><ele>310.0</ele><time>2026-04-22T14:33:16Z</time></trkpt><trkpt lat="43.60961234052654" lon="5.4972392006168675"><ele>310.0</ele><time>2026-04-22T14:33:17Z</time></trkpt><trkpt lat="43.609422486779096" lon="5.497010088108727"><ele>310.0</ele><time>2026-04-22T14:33:18Z</time></trkpt><trkpt lat="43.609288781898194" lon="5.496761444940172"><ele>310.0</ele><time>2026-04-22T14:33:19Z</time></trkpt><trkpt lat="43.60915446686802" lon="5.496588365918214"><ele>310.0</ele><time>2026-04-22T14:33:20Z</time></trkpt><trkpt lat="43.609032512529126" lon="5.496444991748436"><ele>310.0</ele><time>2026-04-22T14:33:21Z</time></trkpt><trkpt lat="43.608914053580214" lon="5.496300658895898"><ele>309.66666666666663</ele><time>2026-04-22T14:33:22Z</time></trkpt><trkpt lat="43.608790675840275" lon="5.4961412885141385"><ele>309.3333333333333</ele><time>2026-04-22T14:33:23Z</time></trkpt><trkpt lat="43.608664844515125" lon="5.495981657316703"><ele>309.0</ele><time>2026-04-22T14:33:24Z</time></trkpt><trkpt lat="43.60854066175653" lon="5.495829204198808"><ele>311.0</ele><time>2026-04-22T14:33:25Z</time></trkpt><trkpt lat="43.60842537053961" lon="5.495681450979532"><ele>313.0</ele><time>2026-04-22T14:33:26Z</time></trkpt><trkpt lat="43.608305593856265" lon="5.495533328465569"><ele>315.0</ele><time>2026-04-22T14:33:27Z</time></trkpt><trkpt lat="43.60817859237763" lon="5.495385301350422"><ele>315.0</ele><time>2026-04-22T14:33:28Z</time></trkpt><trkpt lat="43.60804821646065" lon="5.495248827142968"><ele>315.0</ele><time>2026-04-22T14:33:29Z</time></trkpt><trkpt lat="43.60791349603532" lon="5.4951283280644265"><ele>315.0</ele><time>2026-04-22T14:33:30Z</time></trkpt><trkpt lat="43.6077803539212" lon="5.495022800150901"><ele>317.5</ele><time>2026-04-22T14:33:31Z</time></trkpt><trkpt lat="43.60766372728009" lon="5.494930000678671"><ele>320.0</ele><time>2026-04-22T14:33:32Z</time></trkpt><trkpt lat="43.60755230323366" lon="5.494846522283834"><ele>322.5</ele><time>2026-04-22T14:33:33Z</time></trkpt><trkpt lat="43.60745338713912" lon="5.494772187328861"><ele>325.0</ele><time>2026-04-22T14:33:34Z</time></trkpt><trkpt lat="43.60737347248" lon="5.4946881472180715"><ele>324.3333333333333</ele><time>2026-04-22T14:33:35Z</time></trkpt><trkpt lat="43.6073138750095" lon="5.4945853465092975"><ele>323.66666666666663</ele><time>2026-04-22T14:33:36Z</time></trkpt><trkpt lat="43.60725770160816" lon="5.494510653654068"><ele>323.0</ele><time>2026-04-22T14:33:37Z</time></trkpt><trkpt lat="43.60717862942319" lon="5.494441440652341"><ele>322.3333333333333</ele><time>2026-04-22T14:33:38Z</time></trkpt><trkpt lat="43.60709277519912" lon="5.494455433974092"><ele>321.6666666666667</ele><time>2026-04-22T14:33:39Z</time></trkpt><trkpt lat="43.607025830976966" lon="5.494527413862892"><ele>321.0</ele><time>2026-04-22T14:33:40Z</time></trkpt><trkpt lat="43.606987834425354" lon="5.49464949839516"><ele>323.5</ele><time>2026-04-22T14:33:41Z</time></trkpt><trkpt lat="43.606978098240035" lon="5.494791508493497"><ele>326.0</ele><time>2026-04-22T14:33:42Z</time></trkpt><trkpt lat="43.60698086352815" lon="5.494941488859607"><ele>328.5</ele><time>2026-04-22T14:33:43Z</time></trkpt><trkpt lat="43.60697727739626" lon="5.495116646851437"><ele>331.0</ele><time>2026-04-22T14:33:44Z</time></trkpt><trkpt lat="43.606951972172254" lon="5.495300739923482"><ele>332.3333333333333</ele><time>2026-04-22T14:33:45Z</time></trkpt><trkpt lat="43.60692020289792" lon="5.4955217865565045"><ele>333.6666666666667</ele><time>2026-04-22T14:33:46Z</time></trkpt><trkpt lat="43.60689187343508" lon="5.495766746961146"><ele>335.0</ele><time>2026-04-22T14:33:47Z</time></trkpt><trkpt lat="43.60687233265595" lon="5.49601138433089"><ele>335.0</ele><time>2026-04-22T14:33:48Z</time></trkpt><trkpt lat="43.606841152446975" lon="5.496221524610619"><ele>335.0</ele><time>2026-04-22T14:33:49Z</time></trkpt><trkpt lat="43.60678505980813" lon="5.49640612385323"><ele>335.0</ele><time>2026-04-22T14:33:50Z</time></trkpt><trkpt lat="43.606717307248665" lon="5.4965671978881225"><ele>335.0</ele><time>2026-04-22T14:33:51Z</time></trkpt><trkpt lat="43.60661177190031" lon="5.496713553871284"><ele>335.25</ele><time>2026-04-22T14:33:52Z</time></trkpt><trkpt lat="43.6064921007982" lon="5.496838017986897"><ele>335.5</ele><time>2026-04-22T14:33:53Z</time></trkpt><trkpt lat="43.60635992570476" lon="5.496922535235571"><ele>335.75</ele><time>2026-04-22T14:33:54Z</time></trkpt><trkpt lat="43.606220197523214" lon="5.49695732310587"><ele>336.0</ele><time>2026-04-22T14:33:55Z</time></trkpt><trkpt lat="43.606050902375884" lon="5.496958035492021"><ele>338.6666666666667</ele><time>2026-04-22T14:33:56Z</time></trkpt><trkpt lat="43.60589601121479" lon="5.496947183576839"><ele>341.33333333333337</ele><time>2026-04-22T14:33:57Z</time></trkpt><trkpt lat="43.60569612736697" lon="5.496932057588121"><ele>344.0</ele><time>2026-04-22T14:33:58Z</time></trkpt><trkpt lat="43.605481968843044" lon="5.496911520469778"><ele>344.5</ele><time>2026-04-22T14:33:59Z</time></trkpt><trkpt lat="43.60525282151272" lon="5.49689370055243"><ele>345.0</ele><time>2026-04-22T14:34:00Z</time></trkpt><trkpt lat="43.6050226135915" lon="5.49687206856344"><ele>345.0</ele><time>2026-04-22T14:34:01Z</time></trkpt><trkpt lat="43.60477140412043" lon="5.496831476600685"><ele>345.0</ele><time>2026-04-22T14:34:02Z</time></trkpt><trkpt lat="43.60451851175156" lon="5.496776631890207"><ele>341.0</ele><time>2026-04-22T14:34:03Z</time></trkpt><trkpt lat="43.60427599416619" lon="5.496754249476201"><ele>337.0</ele><time>2026-04-22T14:34:04Z</time></trkpt><trkpt lat="43.60403771687932" lon="5.496730759012752"><ele>337.0</ele><time>2026-04-22T14:34:05Z</time></trkpt><trkpt lat="43.6038201950252" lon="5.496696165503641"><ele>337.0</ele><time>2026-04-22T14:34:06.001Z</time></trkpt><trkpt lat="43.60360593124342" lon="5.49665237647432"><ele>337.0</ele><time>2026-04-22T14:34:07.001Z</time></trkpt><trkpt lat="43.60337610475443" lon="5.496602542482834"><ele>340.0</ele><time>2026-04-22T14:34:08.001Z</time></trkpt><trkpt lat="43.60312863880608" lon="5.496540832960559"><ele>343.0</ele><time>2026-04-22T14:34:09.001Z</time></trkpt><trkpt lat="43.60287418325587" lon="5.496457840162126"><ele>340.5</ele><time>2026-04-22T14:34:10.001Z</time></trkpt><trkpt lat="43.60262229247781" lon="5.496344624347716"><ele>338.0</ele><time>2026-04-22T14:34:11.001Z</time></trkpt><trkpt lat="43.602361230318664" lon="5.496203823306885"><ele>338.0</ele><time>2026-04-22T14:34:12.001Z</time></trkpt><trkpt lat="43.60209489330512" lon="5.496055846578461"><ele>338.0</ele><time>2026-04-22T14:34:13.001Z</time></trkpt><trkpt lat="43.60183783944574" lon="5.495900081162417"><ele>340.5</ele><time>2026-04-22T14:34:14.001Z</time></trkpt><trkpt lat="43.60157443357184" lon="5.4957425024348785"><ele>343.0</ele><time>2026-04-22T14:34:15.001Z</time></trkpt><trkpt lat="43.601317704280284" lon="5.495566412276927"><ele>346.5</ele><time>2026-04-22T14:34:16.001Z</time></trkpt><trkpt lat="43.60107355774344" lon="5.495385852395095"><ele>350.0</ele><time>2026-04-22T14:34:17.001Z</time></trkpt><trkpt lat="43.600832051632686" lon="5.495188209472674"><ele>350.0</ele><time>2026-04-22T14:34:18.001Z</time></trkpt><trkpt lat="43.600593352971" lon="5.494972931358743"><ele>350.0</ele><time>2026-04-22T14:34:19.001Z</time></trkpt><trkpt lat="43.600359679553556" lon="5.494754242292771"><ele>355.0</ele><time>2026-04-22T14:34:20.001Z</time></trkpt><trkpt lat="43.60013710788284" lon="5.494508166225363"><ele>360.0</ele><time>2026-04-22T14:34:21.001Z</time></trkpt><trkpt lat="43.59991586183285" lon="5.494238383165467"><ele>360.0</ele><time>2026-04-22T14:34:22.001Z</time></trkpt><trkpt lat="43.59969551197416" lon="5.493964247704945"><ele>360.0</ele><time>2026-04-22T14:34:23.001Z</time></trkpt><trkpt lat="43.599477015145155" lon="5.493672757281076"><ele>363.0</ele><time>2026-04-22T14:34:24.001Z</time></trkpt><trkpt lat="43.59926727768629" lon="5.493373231643064"><ele>366.0</ele><time>2026-04-22T14:34:25.001Z</time></trkpt><trkpt lat="43.59905928460299" lon="5.4930577522950985"><ele>368.0</ele><time>2026-04-22T14:34:26.001Z</time></trkpt><trkpt lat="43.598853149412776" lon="5.492728598003833"><ele>370.0</ele><time>2026-04-22T14:34:27.001Z</time></trkpt><trkpt lat="43.5986549777007" lon="5.49239966632271"><ele>372.0</ele><time>2026-04-22T14:34:28.001Z</time></trkpt><trkpt lat="43.59845824475674" lon="5.49206558449644"><ele>374.0</ele><time>2026-04-22T14:34:29.001Z</time></trkpt><trkpt lat="43.59825765916938" lon="5.4917320479185"><ele>374.0</ele><time>2026-04-22T14:34:30.001Z</time></trkpt><trkpt lat="43.59805546708654" lon="5.491389983903846"><ele>374.0</ele><time>2026-04-22T14:34:31.001Z</time></trkpt><trkpt lat="43.59785144582317" lon="5.491040718792901"><ele>373.5</ele><time>2026-04-22T14:34:32.001Z</time></trkpt><trkpt lat="43.59763910404481" lon="5.490690296530481"><ele>373.0</ele><time>2026-04-22T14:34:33.001Z</time></trkpt><trkpt lat="43.59743257161513" lon="5.49033439662822"><ele>372.0</ele><time>2026-04-22T14:34:34.001Z</time></trkpt><trkpt lat="43.597218790485805" lon="5.4899795698375895"><ele>371.0</ele><time>2026-04-22T14:34:35.001Z</time></trkpt><trkpt lat="43.59700184101316" lon="5.48961866461954"><ele>369.5</ele><time>2026-04-22T14:34:36.001Z</time></trkpt><trkpt lat="43.59678226844576" lon="5.48926280781621"><ele>368.0</ele><time>2026-04-22T14:34:37.001Z</time></trkpt><trkpt lat="43.59655837770888" lon="5.488910894113451"><ele>366.0</ele><time>2026-04-22T14:34:38.001Z</time></trkpt><trkpt lat="43.59633303339837" lon="5.48855132211226"><ele>364.0</ele><time>2026-04-22T14:34:39.001Z</time></trkpt><trkpt lat="43.59611259700222" lon="5.488184102271831"><ele>360.0</ele><time>2026-04-22T14:34:40.001Z</time></trkpt><trkpt lat="43.5959012043355" lon="5.487835332083157"><ele>356.0</ele><time>2026-04-22T14:34:41.001Z</time></trkpt><trkpt lat="43.595689956732606" lon="5.487485060567679"><ele>356.0</ele><time>2026-04-22T14:34:42.001Z</time></trkpt><trkpt lat="43.59547824081155" lon="5.487121690428335"><ele>356.0</ele><time>2026-04-22T14:34:43.001Z</time></trkpt><trkpt lat="43.595259054508396" lon="5.4867621803440105"><ele>354.0</ele><time>2026-04-22T14:34:44.001Z</time></trkpt><trkpt lat="43.59503014277442" lon="5.486402560409906"><ele>352.0</ele><time>2026-04-22T14:34:45.001Z</time></trkpt><trkpt lat="43.594806763773796" lon="5.486041095773071"><ele>351.0</ele><time>2026-04-22T14:34:46.001Z</time></trkpt><trkpt lat="43.594582225144876" lon="5.485678827191817"><ele>350.0</ele><time>2026-04-22T14:34:47.001Z</time></trkpt><trkpt lat="43.59434860924724" lon="5.485317168329687"><ele>349.0</ele><time>2026-04-22T14:34:48.001Z</time></trkpt><trkpt lat="43.59411476829042" lon="5.4849519790004155"><ele>348.0</ele><time>2026-04-22T14:34:49.001Z</time></trkpt><trkpt lat="43.59387628306262" lon="5.48459685918742"><ele>346.0</ele><time>2026-04-22T14:34:50.001Z</time></trkpt><trkpt lat="43.5936337680975" lon="5.48424609399079"><ele>344.0</ele><time>2026-04-22T14:34:51.001Z</time></trkpt><trkpt lat="43.5933924846648" lon="5.483894369540559"><ele>344.5</ele><time>2026-04-22T14:34:52.001Z</time></trkpt><trkpt lat="43.593149133199425" lon="5.48354875942589"><ele>345.0</ele><time>2026-04-22T14:34:53.001Z</time></trkpt><trkpt lat="43.59290438760395" lon="5.483220150460055"><ele>343.5</ele><time>2026-04-22T14:34:54.001Z</time></trkpt><trkpt lat="43.59264971765234" lon="5.482883621289585"><ele>342.0</ele><time>2026-04-22T14:34:55.001Z</time></trkpt><trkpt lat="43.592393841042316" lon="5.482549741031572"><ele>342.0</ele><time>2026-04-22T14:34:56.001Z</time></trkpt><trkpt lat="43.5921362922533" lon="5.482214506948232"><ele>342.0</ele><time>2026-04-22T14:34:57.001Z</time></trkpt><trkpt lat="43.59187398834998" lon="5.481889742114378"><ele>341.5</ele><time>2026-04-22T14:34:58.001Z</time></trkpt><trkpt lat="43.591612675235254" lon="5.481575074095253"><ele>341.0</ele><time>2026-04-22T14:34:59.001Z</time></trkpt><trkpt lat="43.591345329633825" lon="5.481271278966679"><ele>340.0</ele><time>2026-04-22T14:35:00.001Z</time></trkpt><trkpt lat="43.59107356562225" lon="5.480974697894978"><ele>339.0</ele><time>2026-04-22T14:35:01.001Z</time></trkpt><trkpt lat="43.59079440629514" lon="5.480681791689875"><ele>337.5</ele><time>2026-04-22T14:35:02Z</time></trkpt><trkpt lat="43.590506709716585" lon="5.4804041066250475"><ele>336.0</ele><time>2026-04-22T14:35:03Z</time></trkpt><trkpt lat="43.59021436226258" lon="5.480142173402284"><ele>336.0</ele><time>2026-04-22T14:35:04Z</time></trkpt><trkpt lat="43.589922536199374" lon="5.479886623598132"><ele>336.0</ele><time>2026-04-22T14:35:05Z</time></trkpt><trkpt lat="43.589627435043084" lon="5.479633352047938"><ele>334.5</ele><time>2026-04-22T14:35:06Z</time></trkpt><trkpt lat="43.58933019172032" lon="5.47938575829934"><ele>333.0</ele><time>2026-04-22T14:35:07Z</time></trkpt><trkpt lat="43.58902787439157" lon="5.479144163535731"><ele>333.0</ele><time>2026-04-22T14:35:08Z</time></trkpt><trkpt lat="43.58871470800003" lon="5.478917405444377"><ele>333.0</ele><time>2026-04-22T14:35:09Z</time></trkpt><trkpt lat="43.58839075036858" lon="5.478704006387871"><ele>332.5</ele><time>2026-04-22T14:35:10Z</time></trkpt><trkpt lat="43.58805871931344" lon="5.4784947951039085"><ele>332.0</ele><time>2026-04-22T14:35:11Z</time></trkpt><trkpt lat="43.5877276319972" lon="5.478284640434316"><ele>331.5</ele><time>2026-04-22T14:35:12Z</time></trkpt><trkpt lat="43.58739582905507" lon="5.478078546911726"><ele>331.0</ele><time>2026-04-22T14:35:13Z</time></trkpt><trkpt lat="43.58706449790029" lon="5.47787717581614"><ele>330.5</ele><time>2026-04-22T14:35:14Z</time></trkpt><trkpt lat="43.58672922477594" lon="5.477684472918759"><ele>330.0</ele><time>2026-04-22T14:35:15Z</time></trkpt><trkpt lat="43.586391804536554" lon="5.477504722925333"><ele>328.5</ele><time>2026-04-22T14:35:16Z</time></trkpt><trkpt lat="43.5860506798016" lon="5.477339424318704"><ele>327.0</ele><time>2026-04-22T14:35:17Z</time></trkpt><trkpt lat="43.58570549816621" lon="5.477189359122217"><ele>327.0</ele><time>2026-04-22T14:35:18Z</time></trkpt><trkpt lat="43.58535931096367" lon="5.477046525406233"><ele>327.0</ele><time>2026-04-22T14:35:19Z</time></trkpt><trkpt lat="43.585008408271776" lon="5.476904678455748"><ele>327.5</ele><time>2026-04-22T14:35:20Z</time></trkpt><trkpt lat="43.58465479698217" lon="5.476769832435882"><ele>328.0</ele><time>2026-04-22T14:35:21Z</time></trkpt><trkpt lat="43.584302546747686" lon="5.476641505422003"><ele>328.5</ele><time>2026-04-22T14:35:22Z</time></trkpt><trkpt lat="43.58395648093429" lon="5.476522030196389"><ele>329.0</ele><time>2026-04-22T14:35:23Z</time></trkpt><trkpt lat="43.58362244555414" lon="5.476411269213424"><ele>330.0</ele><time>2026-04-22T14:35:24Z</time></trkpt><trkpt lat="43.583294102169695" lon="5.476309516887335"><ele>331.0</ele><time>2026-04-22T14:35:25Z</time></trkpt><trkpt lat="43.58297776090969" lon="5.476221903663831"><ele>329.5</ele><time>2026-04-22T14:35:26Z</time></trkpt><trkpt lat="43.58266746549222" lon="5.476128803659876"><ele>328.0</ele><time>2026-04-22T14:35:27Z</time></trkpt><trkpt lat="43.582351228971724" lon="5.476038068037749"><ele>328.0</ele><time>2026-04-22T14:35:28Z</time></trkpt><trkpt lat="43.58202587949263" lon="5.4759490372721"><ele>328.0</ele><time>2026-04-22T14:35:29Z</time></trkpt><trkpt lat="43.58169615724478" lon="5.47586234690859"><ele>328.0</ele><time>2026-04-22T14:35:30Z</time></trkpt><trkpt lat="43.58136733928372" lon="5.475769156036662"><ele>328.0</ele><time>2026-04-22T14:35:31Z</time></trkpt><trkpt lat="43.581030972299935" lon="5.475669306547325"><ele>329.5</ele><time>2026-04-22T14:35:32Z</time></trkpt><trkpt lat="43.58069760462077" lon="5.475560870786453"><ele>331.0</ele><time>2026-04-22T14:35:33Z</time></trkpt><trkpt lat="43.580363622419505" lon="5.475444887832832"><ele>330.5</ele><time>2026-04-22T14:35:34Z</time></trkpt><trkpt lat="43.58003447058276" lon="5.4753204449062896"><ele>330.0</ele><time>2026-04-22T14:35:35Z</time></trkpt><trkpt lat="43.579715757805616" lon="5.475189600982458"><ele>330.5</ele><time>2026-04-22T14:35:36Z</time></trkpt><trkpt lat="43.57940554141867" lon="5.475051394218109"><ele>331.0</ele><time>2026-04-22T14:35:37Z</time></trkpt><trkpt lat="43.57909790253288" lon="5.474899566945986"><ele>331.0</ele><time>2026-04-22T14:35:38Z</time></trkpt><trkpt lat="43.57879614496953" lon="5.474732740350544"><ele>331.0</ele><time>2026-04-22T14:35:39Z</time></trkpt><trkpt lat="43.578509506316614" lon="5.474564899117497"><ele>331.0</ele><time>2026-04-22T14:35:40Z</time></trkpt><trkpt lat="43.57823411635574" lon="5.474386656181523"><ele>331.0</ele><time>2026-04-22T14:35:41Z</time></trkpt><trkpt lat="43.5779770243113" lon="5.474207891492725"><ele>332.5</ele><time>2026-04-22T14:35:42Z</time></trkpt><trkpt lat="43.57772011099188" lon="5.474020366024041"><ele>334.0</ele><time>2026-04-22T14:35:43Z</time></trkpt><trkpt lat="43.577470742203865" lon="5.473822215707088"><ele>333.5</ele><time>2026-04-22T14:35:44Z</time></trkpt><trkpt lat="43.57722913640617" lon="5.473619404624918"><ele>333.0</ele><time>2026-04-22T14:35:45Z</time></trkpt><trkpt lat="43.576993883143466" lon="5.473411650579532"><ele>335.0</ele><time>2026-04-22T14:35:46Z</time></trkpt><trkpt lat="43.57676612399694" lon="5.473198117608557"><ele>337.0</ele><time>2026-04-22T14:35:47Z</time></trkpt><trkpt lat="43.576540361682454" lon="5.472979608074927"><ele>336.5</ele><time>2026-04-22T14:35:48Z</time></trkpt><trkpt lat="43.5763137426809" lon="5.472740496318875"><ele>336.0</ele><time>2026-04-22T14:35:49Z</time></trkpt><trkpt lat="43.5760854549447" lon="5.472488524639156"><ele>338.5</ele><time>2026-04-22T14:35:50Z</time></trkpt><trkpt lat="43.57586511747755" lon="5.47223059211004"><ele>341.0</ele><time>2026-04-22T14:35:51Z</time></trkpt><trkpt lat="43.57564858944308" lon="5.471967486295894"><ele>341.0</ele><time>2026-04-22T14:35:52Z</time></trkpt><trkpt lat="43.57543633441207" lon="5.471699208854017"><ele>341.0</ele><time>2026-04-22T14:35:53Z</time></trkpt><trkpt lat="43.57522246568705" lon="5.471431629372484"><ele>337.0</ele><time>2026-04-22T14:35:54Z</time></trkpt><trkpt lat="43.57500471951716" lon="5.471148037425492"><ele>333.0</ele><time>2026-04-22T14:35:55Z</time></trkpt><trkpt lat="43.57476923705259" lon="5.470866748928154"><ele>333.0</ele><time>2026-04-22T14:35:56Z</time></trkpt><trkpt lat="43.57452903740387" lon="5.470576296423552"><ele>333.0</ele><time>2026-04-22T14:35:57Z</time></trkpt><trkpt lat="43.57429645047479" lon="5.470278956793921"><ele>332.0</ele><time>2026-04-22T14:35:58Z</time></trkpt><trkpt lat="43.574049906150734" lon="5.469959481975663"><ele>331.0</ele><time>2026-04-22T14:35:59Z</time></trkpt><trkpt lat="43.57380796076967" lon="5.469644933345037"><ele>331.5</ele><time>2026-04-22T14:36:00Z</time></trkpt><trkpt lat="43.57357726278182" lon="5.469359130926364"><ele>332.0</ele><time>2026-04-22T14:36:01Z</time></trkpt><trkpt lat="43.57335662066131" lon="5.4690907035144996"><ele>332.0</ele><time>2026-04-22T14:36:02Z</time></trkpt><trkpt lat="43.57312937731115" lon="5.468825881898166"><ele>332.0</ele><time>2026-04-22T14:36:03Z</time></trkpt><trkpt lat="43.57288434374098" lon="5.468564023428189"><ele>332.0</ele><time>2026-04-22T14:36:04.001Z</time></trkpt><trkpt lat="43.572623949342855" lon="5.4682989680604885"><ele>332.0</ele><time>2026-04-22T14:36:05.001Z</time></trkpt><trkpt lat="43.572346473834266" lon="5.468064230997732"><ele>331.0</ele><time>2026-04-22T14:36:06.001Z</time></trkpt><trkpt lat="43.57205650129291" lon="5.467848229605136"><ele>330.0</ele><time>2026-04-22T14:36:07.001Z</time></trkpt><trkpt lat="43.57176358260694" lon="5.4676341226008915"><ele>329.5</ele><time>2026-04-22T14:36:08.001Z</time></trkpt><trkpt lat="43.571458507819834" lon="5.467434265192035"><ele>329.0</ele><time>2026-04-22T14:36:09.001Z</time></trkpt><trkpt lat="43.5711375580939" lon="5.467239465407572"><ele>329.0</ele><time>2026-04-22T14:36:10.001Z</time></trkpt><trkpt lat="43.5708172435011" lon="5.467064112887027"><ele>329.0</ele><time>2026-04-22T14:36:11.001Z</time></trkpt><trkpt lat="43.570488688487934" lon="5.466887402668922"><ele>327.5</ele><time>2026-04-22T14:36:12.001Z</time></trkpt><trkpt lat="43.57015361652282" lon="5.4667086042946975"><ele>326.0</ele><time>2026-04-22T14:36:13.001Z</time></trkpt><trkpt lat="43.56981488872519" lon="5.466523403515322"><ele>325.0</ele><time>2026-04-22T14:36:14.001Z</time></trkpt><trkpt lat="43.56948097703663" lon="5.466334147576421"><ele>324.0</ele><time>2026-04-22T14:36:15.001Z</time></trkpt><trkpt lat="43.56914882237019" lon="5.4661455550116465"><ele>323.0</ele><time>2026-04-22T14:36:16.001Z</time></trkpt><trkpt lat="43.56881873685658" lon="5.465955722995661"><ele>322.0</ele><time>2026-04-22T14:36:17.001Z</time></trkpt><trkpt lat="43.56849834304569" lon="5.465776415871476"><ele>321.5</ele><time>2026-04-22T14:36:18.001Z</time></trkpt><trkpt lat="43.56818616422804" lon="5.465600552843292"><ele>321.0</ele><time>2026-04-22T14:36:19.001Z</time></trkpt><trkpt lat="43.567877930311184" lon="5.465425176706024"><ele>321.0</ele><time>2026-04-22T14:36:20.001Z</time></trkpt><trkpt lat="43.56757280767451" lon="5.465252246853168"><ele>321.0</ele><time>2026-04-22T14:36:21.001Z</time></trkpt><trkpt lat="43.56727812502829" lon="5.465086979694454"><ele>321.5</ele><time>2026-04-22T14:36:22.001Z</time></trkpt><trkpt lat="43.566991028865" lon="5.4649250548733095"><ele>322.0</ele><time>2026-04-22T14:36:23.001Z</time></trkpt><trkpt lat="43.566705349201506" lon="5.464764055789824"><ele>319.0</ele><time>2026-04-22T14:36:24.001Z</time></trkpt><trkpt lat="43.566428657304876" lon="5.464591002183983"><ele>316.0</ele><time>2026-04-22T14:36:25.001Z</time></trkpt><trkpt lat="43.56616024458015" lon="5.464425467284705"><ele>316.0</ele><time>2026-04-22T14:36:26.001Z</time></trkpt><trkpt lat="43.56589290191233" lon="5.464235197878712"><ele>316.0</ele><time>2026-04-22T14:36:27.001Z</time></trkpt><trkpt lat="43.56563166221888" lon="5.464038447844442"><ele>316.0</ele><time>2026-04-22T14:36:28.001Z</time></trkpt><trkpt lat="43.56537623216766" lon="5.463822966912851"><ele>316.0</ele><time>2026-04-22T14:36:29.001Z</time></trkpt><trkpt lat="43.56512723453953" lon="5.463585820504363"><ele>316.5</ele><time>2026-04-22T14:36:30.001Z</time></trkpt><trkpt lat="43.56489510323823" lon="5.463330634421301"><ele>317.0</ele><time>2026-04-22T14:36:31.001Z</time></trkpt><trkpt lat="43.564667949547555" lon="5.463064719859219"><ele>315.5</ele><time>2026-04-22T14:36:32.001Z</time></trkpt><trkpt lat="43.56445217371368" lon="5.462789547867303"><ele>314.0</ele><time>2026-04-22T14:36:33.001Z</time></trkpt><trkpt lat="43.5642433903572" lon="5.462501950908126"><ele>314.0</ele><time>2026-04-22T14:36:34.001Z</time></trkpt><trkpt lat="43.56403668840153" lon="5.462190960518958"><ele>314.0</ele><time>2026-04-22T14:36:35.001Z</time></trkpt><trkpt lat="43.563839922429" lon="5.461877614334462"><ele>313.0</ele><time>2026-04-22T14:36:36.001Z</time></trkpt><trkpt lat="43.563650527850285" lon="5.46154109428452"><ele>312.0</ele><time>2026-04-22T14:36:37.001Z</time></trkpt><trkpt lat="43.56347698353221" lon="5.461191981194075"><ele>311.5</ele><time>2026-04-22T14:36:38.001Z</time></trkpt><trkpt lat="43.563315692355346" lon="5.460837003041494"><ele>311.0</ele><time>2026-04-22T14:36:39.001Z</time></trkpt><trkpt lat="43.56316617511307" lon="5.4604792929088175"><ele>310.5</ele><time>2026-04-22T14:36:40.001Z</time></trkpt><trkpt lat="43.5630218534545" lon="5.460107593706903"><ele>310.0</ele><time>2026-04-22T14:36:41.001Z</time></trkpt><trkpt lat="43.56288981383189" lon="5.459714773782195"><ele>310.0</ele><time>2026-04-22T14:36:42.001Z</time></trkpt><trkpt lat="43.56275369048468" lon="5.459329355245754"><ele>310.0</ele><time>2026-04-22T14:36:43.001Z</time></trkpt><trkpt lat="43.56262197557445" lon="5.458942500132793"><ele>309.5</ele><time>2026-04-22T14:36:44.001Z</time></trkpt><trkpt lat="43.56249332918056" lon="5.458560011910605"><ele>309.0</ele><time>2026-04-22T14:36:45.001Z</time></trkpt><trkpt lat="43.56236662118715" lon="5.458198400937547"><ele>308.5</ele><time>2026-04-22T14:36:46.001Z</time></trkpt><trkpt lat="43.562250127068275" lon="5.45785092743967"><ele>308.0</ele><time>2026-04-22T14:36:47.001Z</time></trkpt><trkpt lat="43.56213498066982" lon="5.457512409693529"><ele>308.5</ele><time>2026-04-22T14:36:48.001Z</time></trkpt><trkpt lat="43.56203116731834" lon="5.457193932298801"><ele>309.0</ele><time>2026-04-22T14:36:49.001Z</time></trkpt><trkpt lat="43.561927066317004" lon="5.456878215393094"><ele>308.0</ele><time>2026-04-22T14:36:50.001Z</time></trkpt><trkpt lat="43.56182534152841" lon="5.456573599354078"><ele>307.0</ele><time>2026-04-22T14:36:51.001Z</time></trkpt><trkpt lat="43.56172602282351" lon="5.4562718226768405"><ele>306.5</ele><time>2026-04-22T14:36:52.001Z</time></trkpt><trkpt lat="43.56162976482997" lon="5.455988876331186"><ele>306.0</ele><time>2026-04-22T14:36:53.001Z</time></trkpt><trkpt lat="43.561531243862575" lon="5.4556900354407745"><ele>305.5</ele><time>2026-04-22T14:36:54.001Z</time></trkpt><trkpt lat="43.56142559638482" lon="5.455364052394272"><ele>305.0</ele><time>2026-04-22T14:36:55.001Z</time></trkpt><trkpt lat="43.561310224317715" lon="5.455027043569517"><ele>306.0</ele><time>2026-04-22T14:36:56.001Z</time></trkpt><trkpt lat="43.561170222633045" lon="5.454695214213617"><ele>307.0</ele><time>2026-04-22T14:36:57.001Z</time></trkpt><trkpt lat="43.5610210964651" lon="5.454359294315228"><ele>307.0</ele><time>2026-04-22T14:36:58.001Z</time></trkpt><trkpt lat="43.56086201719938" lon="5.454042900338973"><ele>307.0</ele><time>2026-04-22T14:36:59.001Z</time></trkpt><trkpt lat="43.56070364715932" lon="5.453740319866035"><ele>307.0</ele><time>2026-04-22T14:37:00.001Z</time></trkpt><trkpt lat="43.560543511402756" lon="5.453444269735029"><ele>307.0</ele><time>2026-04-22T14:37:01.001Z</time></trkpt><trkpt lat="43.56038033614389" lon="5.45314779908836"><ele>309.5</ele><time>2026-04-22T14:37:02.001Z</time></trkpt><trkpt lat="43.560213703014455" lon="5.4528580946678495"><ele>312.0</ele><time>2026-04-22T14:37:03.001Z</time></trkpt><trkpt lat="43.56005330038222" lon="5.452563226326681"><ele>312.0</ele><time>2026-04-22T14:37:04.001Z</time></trkpt><trkpt lat="43.559899772584416" lon="5.45226810931353"><ele>312.0</ele><time>2026-04-22T14:37:05.001Z</time></trkpt><trkpt lat="43.55974966331157" lon="5.451976427134154"><ele>312.0</ele><time>2026-04-22T14:37:06.001Z</time></trkpt><trkpt lat="43.55959790153576" lon="5.4517002196863515"><ele>312.0</ele><time>2026-04-22T14:37:07.001Z</time></trkpt><trkpt lat="43.55945369071861" lon="5.451429284277178"><ele>314.5</ele><time>2026-04-22T14:37:08Z</time></trkpt><trkpt lat="43.55931266625407" lon="5.451157519618045"><ele>317.0</ele><time>2026-04-22T14:37:09Z</time></trkpt><trkpt lat="43.55916496123928" lon="5.450877369225997"><ele>317.0</ele><time>2026-04-22T14:37:10Z</time></trkpt><trkpt lat="43.559016252108854" lon="5.45059591750947"><ele>317.0</ele><time>2026-04-22T14:37:11Z</time></trkpt><trkpt lat="43.55887594290649" lon="5.450310074472692"><ele>318.0</ele><time>2026-04-22T14:37:12Z</time></trkpt><trkpt lat="43.558736211017056" lon="5.450018186491183"><ele>319.0</ele><time>2026-04-22T14:37:13Z</time></trkpt><trkpt lat="43.558607099757275" lon="5.449713918483383"><ele>322.5</ele><time>2026-04-22T14:37:14Z</time></trkpt><trkpt lat="43.55847774941066" lon="5.449408977468256"><ele>326.0</ele><time>2026-04-22T14:37:15Z</time></trkpt><trkpt lat="43.55835422343836" lon="5.449101866275394"><ele>326.0</ele><time>2026-04-22T14:37:16Z</time></trkpt><trkpt lat="43.55824027554357" lon="5.448801069882792"><ele>326.0</ele><time>2026-04-22T14:37:17Z</time></trkpt><trkpt lat="43.55812901282176" lon="5.4484892170076025"><ele>326.33333333333337</ele><time>2026-04-22T14:37:18Z</time></trkpt><trkpt lat="43.55804025105969" lon="5.448227851815771"><ele>326.6666666666667</ele><time>2026-04-22T14:37:19Z</time></trkpt><trkpt lat="43.55794305067975" lon="5.447938311883272"><ele>327.0</ele><time>2026-04-22T14:37:20Z</time></trkpt><trkpt lat="43.557841077665664" lon="5.44764640202712"><ele>327.5</ele><time>2026-04-22T14:37:21Z</time></trkpt><trkpt lat="43.55773684031624" lon="5.44735781965663"><ele>328.0</ele><time>2026-04-22T14:37:22Z</time></trkpt><trkpt lat="43.557633679580235" lon="5.44707337631779"><ele>328.3333333333333</ele><time>2026-04-22T14:37:23Z</time></trkpt><trkpt lat="43.557540925623485" lon="5.446795628875245"><ele>328.6666666666667</ele><time>2026-04-22T14:37:24Z</time></trkpt><trkpt lat="43.55744312269262" lon="5.446514669774173"><ele>329.0</ele><time>2026-04-22T14:37:25Z</time></trkpt><trkpt lat="43.55734884019573" lon="5.446235010479991"><ele>329.0</ele><time>2026-04-22T14:37:26Z</time></trkpt><trkpt lat="43.557251601696606" lon="5.445953393744731"><ele>329.0</ele><time>2026-04-22T14:37:27Z</time></trkpt><trkpt lat="43.557148762698255" lon="5.445667202567542"><ele>329.0</ele><time>2026-04-22T14:37:28Z</time></trkpt><trkpt lat="43.55704973406485" lon="5.445379510624528"><ele>329.0</ele><time>2026-04-22T14:37:29Z</time></trkpt><trkpt lat="43.55694267269081" lon="5.445087549579387"><ele>330.0</ele><time>2026-04-22T14:37:30Z</time></trkpt><trkpt lat="43.55683858950826" lon="5.444792401162315"><ele>331.0</ele><time>2026-04-22T14:37:31Z</time></trkpt><trkpt lat="43.55673358264103" lon="5.44447935012319"><ele>331.0</ele><time>2026-04-22T14:37:32Z</time></trkpt><trkpt lat="43.55662091593017" lon="5.444156401399182"><ele>331.0</ele><time>2026-04-22T14:37:33Z</time></trkpt><trkpt lat="43.556505210060386" lon="5.443819212706156"><ele>332.0</ele><time>2026-04-22T14:37:34Z</time></trkpt><trkpt lat="43.55639207034702" lon="5.443461386039934"><ele>333.0</ele><time>2026-04-22T14:37:35Z</time></trkpt><trkpt lat="43.55627904787555" lon="5.44309357916103"><ele>337.5</ele><time>2026-04-22T14:37:36Z</time></trkpt><trkpt lat="43.55615892944058" lon="5.442723060361465"><ele>342.0</ele><time>2026-04-22T14:37:37Z</time></trkpt><trkpt lat="43.55603096728372" lon="5.442351963098077"><ele>344.0</ele><time>2026-04-22T14:37:38Z</time></trkpt><trkpt lat="43.55589540869472" lon="5.4419747938875975"><ele>346.0</ele><time>2026-04-22T14:37:39Z</time></trkpt><trkpt lat="43.55576114200329" lon="5.441599342971583"><ele>347.5</ele><time>2026-04-22T14:37:40Z</time></trkpt><trkpt lat="43.555623441518705" lon="5.441230439181129"><ele>349.0</ele><time>2026-04-22T14:37:41Z</time></trkpt><trkpt lat="43.55548533485592" lon="5.440865388669796"><ele>348.5</ele><time>2026-04-22T14:37:42Z</time></trkpt><trkpt lat="43.55534938972021" lon="5.440518709614828"><ele>348.0</ele><time>2026-04-22T14:37:43Z</time></trkpt><trkpt lat="43.55522905052098" lon="5.440189636662933"><ele>348.5</ele><time>2026-04-22T14:37:44Z</time></trkpt><trkpt lat="43.55512047552034" lon="5.439877081939121"><ele>349.0</ele><time>2026-04-22T14:37:45Z</time></trkpt><trkpt lat="43.55501290796611" lon="5.439573057562591"><ele>349.0</ele><time>2026-04-22T14:37:46Z</time></trkpt><trkpt lat="43.554911693050215" lon="5.439286998748966"><ele>349.0</ele><time>2026-04-22T14:37:47Z</time></trkpt><trkpt lat="43.55480873599282" lon="5.438989239805138"><ele>349.0</ele><time>2026-04-22T14:37:48Z</time></trkpt><trkpt lat="43.55470806555325" lon="5.43869815236716"><ele>349.0</ele><time>2026-04-22T14:37:49Z</time></trkpt><trkpt lat="43.55460382961325" lon="5.4384101059612036"><ele>351.5</ele><time>2026-04-22T14:37:50Z</time></trkpt><trkpt lat="43.55450353299861" lon="5.438121552453261"><ele>354.0</ele><time>2026-04-22T14:37:51Z</time></trkpt><trkpt lat="43.554407665818246" lon="5.437831406958319"><ele>354.5</ele><time>2026-04-22T14:37:52Z</time></trkpt><trkpt lat="43.55430908918552" lon="5.4375351930259646"><ele>355.0</ele><time>2026-04-22T14:37:53Z</time></trkpt><trkpt lat="43.554207655188954" lon="5.437245978608469"><ele>355.5</ele><time>2026-04-22T14:37:54Z</time></trkpt><trkpt lat="43.55410267441135" lon="5.436958197860515"><ele>356.0</ele><time>2026-04-22T14:37:55Z</time></trkpt><trkpt lat="43.55399564001149" lon="5.436674540289927"><ele>356.0</ele><time>2026-04-22T14:37:56Z</time></trkpt><trkpt lat="43.553874832032655" lon="5.436393460605442"><ele>356.0</ele><time>2026-04-22T14:37:57Z</time></trkpt><trkpt lat="43.5537291129556" lon="5.436129475624883"><ele>355.0</ele><time>2026-04-22T14:37:58Z</time></trkpt><trkpt lat="43.55356375316717" lon="5.435892295948099"><ele>354.0</ele><time>2026-04-22T14:37:59Z</time></trkpt><trkpt lat="43.55339086619076" lon="5.435669729074818"><ele>351.5</ele><time>2026-04-22T14:38:00Z</time></trkpt><trkpt lat="43.553200285118145" lon="5.435466301280809"><ele>349.0</ele><time>2026-04-22T14:38:01Z</time></trkpt><trkpt lat="43.55299462196687" lon="5.435292129623549"><ele>349.0</ele><time>2026-04-22T14:38:02Z</time></trkpt><trkpt lat="43.55277700537634" lon="5.435139793913227"><ele>349.0</ele><time>2026-04-22T14:38:03Z</time></trkpt><trkpt lat="43.55253046810427" lon="5.435013650689976"><ele>349.0</ele><time>2026-04-22T14:38:04Z</time></trkpt><trkpt lat="43.55224517789875" lon="5.434910396867295"><ele>349.0</ele><time>2026-04-22T14:38:05Z</time></trkpt><trkpt lat="43.55196666026784" lon="5.434806024463835"><ele>349.3333333333333</ele><time>2026-04-22T14:38:06Z</time></trkpt><trkpt lat="43.55178246185076" lon="5.434723390988302"><ele>349.6666666666667</ele><time>2026-04-22T14:38:07Z</time></trkpt><trkpt lat="43.55165743260308" lon="5.434670125258308"><ele>350.0</ele><time>2026-04-22T14:38:08Z</time></trkpt><trkpt lat="43.551481293224015" lon="5.434576718640632"><ele>351.6666666666667</ele><time>2026-04-22T14:38:09Z</time></trkpt><trkpt lat="43.5513103962192" lon="5.434449581408174"><ele>353.3333333333333</ele><time>2026-04-22T14:38:10.001Z</time></trkpt><trkpt lat="43.55114018544221" lon="5.434300500962241"><ele>355.0</ele><time>2026-04-22T14:38:11.001Z</time></trkpt><trkpt lat="43.55097254096597" lon="5.4341135273094245"><ele>349.0</ele><time>2026-04-22T14:38:12.001Z</time></trkpt><trkpt lat="43.55082894243444" lon="5.433904491596321"><ele>343.0</ele><time>2026-04-22T14:38:13.001Z</time></trkpt><trkpt lat="43.55071152338061" lon="5.4336730428491755"><ele>337.0</ele><time>2026-04-22T14:38:14.001Z</time></trkpt><trkpt lat="43.550616201981384" lon="5.4334256622195625"><ele>337.0</ele><time>2026-04-22T14:38:15.001Z</time></trkpt><trkpt lat="43.550532971287616" lon="5.433174833413161"><ele>337.0</ele><time>2026-04-22T14:38:16.001Z</time></trkpt><trkpt lat="43.5504689411741" lon="5.432912300136536"><ele>337.0</ele><time>2026-04-22T14:38:17.001Z</time></trkpt><trkpt lat="43.550414527202726" lon="5.432645060783069"><ele>331.3333333333333</ele><time>2026-04-22T14:38:18.001Z</time></trkpt><trkpt lat="43.550360170271766" lon="5.432373575658617"><ele>325.6666666666667</ele><time>2026-04-22T14:38:19.001Z</time></trkpt><trkpt lat="43.55030352658099" lon="5.432101847214694"><ele>320.0</ele><time>2026-04-22T14:38:20.001Z</time></trkpt><trkpt lat="43.550236101271466" lon="5.431840251292862"><ele>320.0</ele><time>2026-04-22T14:38:21.001Z</time></trkpt><trkpt lat="43.55017264466892" lon="5.431582534210949"><ele>320.0</ele><time>2026-04-22T14:38:22.001Z</time></trkpt><trkpt lat="43.55011613436077" lon="5.431322241060163"><ele>320.0</ele><time>2026-04-22T14:38:23.001Z</time></trkpt><trkpt lat="43.55005883446204" lon="5.431064542015994"><ele>320.0</ele><time>2026-04-22T14:38:24.001Z</time></trkpt><trkpt lat="43.55000104076858" lon="5.430808463839426"><ele>320.0</ele><time>2026-04-22T14:38:25.001Z</time></trkpt><trkpt lat="43.54994628333163" lon="5.430565863227064"><ele>320.0</ele><time>2026-04-22T14:38:26.001Z</time></trkpt><trkpt lat="43.54990320905015" lon="5.430336710050441"><ele>319.6666666666667</ele><time>2026-04-22T14:38:27.001Z</time></trkpt><trkpt lat="43.549890738719284" lon="5.43009803561362"><ele>319.3333333333333</ele><time>2026-04-22T14:38:28.001Z</time></trkpt><trkpt lat="43.549913157434474" lon="5.4298581066988625"><ele>319.0</ele><time>2026-04-22T14:38:29.001Z</time></trkpt><trkpt lat="43.54997497292335" lon="5.429613472252206"><ele>316.3333333333333</ele><time>2026-04-22T14:38:30.001Z</time></trkpt><trkpt lat="43.550032705590276" lon="5.4293919799253745"><ele>313.6666666666667</ele><time>2026-04-22T14:38:31.001Z</time></trkpt><trkpt lat="43.550073441206415" lon="5.4291716488402795"><ele>311.0</ele><time>2026-04-22T14:38:32.001Z</time></trkpt><trkpt lat="43.55011598687092" lon="5.4289613284324245"><ele>308.33333333333337</ele><time>2026-04-22T14:38:33.001Z</time></trkpt><trkpt lat="43.55015407454037" lon="5.428754027335225"><ele>305.6666666666667</ele><time>2026-04-22T14:38:34.001Z</time></trkpt><trkpt lat="43.5501863996201" lon="5.42854670215105"><ele>303.0</ele><time>2026-04-22T14:38:35.001Z</time></trkpt><trkpt lat="43.550219137683655" lon="5.4283388547584455"><ele>303.0</ele><time>2026-04-22T14:38:36.001Z</time></trkpt><trkpt lat="43.55024156764147" lon="5.4281339193997775"><ele>303.0</ele><time>2026-04-22T14:38:37.001Z</time></trkpt><trkpt lat="43.55025556919991" lon="5.42792722121053"><ele>303.0</ele><time>2026-04-22T14:38:38.001Z</time></trkpt><trkpt lat="43.5502334684167" lon="5.427727407551202"><ele>303.0</ele><time>2026-04-22T14:38:39.001Z</time></trkpt><trkpt lat="43.55017960843165" lon="5.42752630783698"><ele>302.6666666666667</ele><time>2026-04-22T14:38:40.001Z</time></trkpt><trkpt lat="43.55009366331125" lon="5.427316811518906"><ele>302.33333333333337</ele><time>2026-04-22T14:38:41.001Z</time></trkpt><trkpt lat="43.54999698646545" lon="5.427135828932072"><ele>302.0</ele><time>2026-04-22T14:38:42.001Z</time></trkpt><trkpt lat="43.549867369063826" lon="5.4269962840783155"><ele>301.6666666666667</ele><time>2026-04-22T14:38:43.001Z</time></trkpt><trkpt lat="43.54971385386422" lon="5.4269002424805945"><ele>301.3333333333333</ele><time>2026-04-22T14:38:44.001Z</time></trkpt><trkpt lat="43.54955353162715" lon="5.426845623268816"><ele>301.0</ele><time>2026-04-22T14:38:45.001Z</time></trkpt><trkpt lat="43.54938868665143" lon="5.4268391236467775"><ele>301.0</ele><time>2026-04-22T14:38:46.001Z</time></trkpt><trkpt lat="43.5492376764718" lon="5.426862058071447"><ele>301.0</ele><time>2026-04-22T14:38:47.001Z</time></trkpt><trkpt lat="43.5490796305409" lon="5.426913562556427"><ele>301.0</ele><time>2026-04-22T14:38:48.001Z</time></trkpt><trkpt lat="43.548933901728894" lon="5.427008823055374"><ele>301.0</ele><time>2026-04-22T14:38:49.001Z</time></trkpt><trkpt lat="43.54881030912704" lon="5.427139228440509"><ele>301.0</ele><time>2026-04-22T14:38:50.001Z</time></trkpt><trkpt lat="43.54868711697775" lon="5.42729985742821"><ele>301.0</ele><time>2026-04-22T14:38:51.001Z</time></trkpt><trkpt lat="43.54855379875159" lon="5.427462137056827"><ele>298.3333333333333</ele><time>2026-04-22T14:38:52.001Z</time></trkpt><trkpt lat="43.54840708452866" lon="5.427606034091728"><ele>295.6666666666667</ele><time>2026-04-22T14:38:53.001Z</time></trkpt><trkpt lat="43.54825247157602" lon="5.427729827853637"><ele>293.0</ele><time>2026-04-22T14:38:54.001Z</time></trkpt><trkpt lat="43.54809168493118" lon="5.4278494008164255"><ele>293.0</ele><time>2026-04-22T14:38:55.001Z</time></trkpt><trkpt lat="43.54793891665663" lon="5.427949532618217"><ele>293.0</ele><time>2026-04-22T14:38:56.001Z</time></trkpt><trkpt lat="43.54778602990292" lon="5.428047935237234"><ele>293.0</ele><time>2026-04-22T14:38:57.001Z</time></trkpt><trkpt lat="43.54762812945816" lon="5.428155395890175"><ele>291.6666666666667</ele><time>2026-04-22T14:38:58.001Z</time></trkpt><trkpt lat="43.54745886232071" lon="5.4282762715558786"><ele>290.3333333333333</ele><time>2026-04-22T14:38:59.001Z</time></trkpt><trkpt lat="43.54727296720332" lon="5.428414754398421"><ele>289.0</ele><time>2026-04-22T14:39:00.001Z</time></trkpt><trkpt lat="43.54707903643419" lon="5.428553224894"><ele>286.66666666666663</ele><time>2026-04-22T14:39:01.001Z</time></trkpt><trkpt lat="43.54689416565151" lon="5.428683116151019"><ele>284.3333333333333</ele><time>2026-04-22T14:39:02.001Z</time></trkpt><trkpt lat="43.54671158965823" lon="5.428801537989568"><ele>282.0</ele><time>2026-04-22T14:39:03.001Z</time></trkpt><trkpt lat="43.54653108055852" lon="5.428920322280629"><ele>282.0</ele><time>2026-04-22T14:39:04.001Z</time></trkpt><trkpt lat="43.54635445115771" lon="5.42904211208682"><ele>282.0</ele><time>2026-04-22T14:39:05.001Z</time></trkpt><trkpt lat="43.546169240513244" lon="5.4291550832789985"><ele>282.0</ele><time>2026-04-22T14:39:06.001Z</time></trkpt><trkpt lat="43.54600129725032" lon="5.429259347772256"><ele>280.0</ele><time>2026-04-22T14:39:07.001Z</time></trkpt><trkpt lat="43.545851001585895" lon="5.429350915313434"><ele>278.0</ele><time>2026-04-22T14:39:08.001Z</time></trkpt><trkpt lat="43.54570506285531" lon="5.429442692472468"><ele>276.0</ele><time>2026-04-22T14:39:09.001Z</time></trkpt><trkpt lat="43.545563996966216" lon="5.429534088629236"><ele>276.0</ele><time>2026-04-22T14:39:10.001Z</time></trkpt><trkpt lat="43.545422270554454" lon="5.429627446843393"><ele>276.0</ele><time>2026-04-22T14:39:11.001Z</time></trkpt><trkpt lat="43.545275019208695" lon="5.4297288535650985"><ele>276.0</ele><time>2026-04-22T14:39:12.001Z</time></trkpt><trkpt lat="43.545118811577005" lon="5.429832304454776"><ele>275.3333333333333</ele><time>2026-04-22T14:39:13.001Z</time></trkpt><trkpt lat="43.544960068005814" lon="5.429938599056525"><ele>274.66666666666663</ele><time>2026-04-22T14:39:14Z</time></trkpt><trkpt lat="43.544802253446306" lon="5.430045235174341"><ele>274.0</ele><time>2026-04-22T14:39:15Z</time></trkpt><trkpt lat="43.54464640015754" lon="5.430150955484575"><ele>273.66666666666663</ele><time>2026-04-22T14:39:16Z</time></trkpt><trkpt lat="43.5444813992089" lon="5.430259367970412"><ele>273.3333333333333</ele><time>2026-04-22T14:39:17Z</time></trkpt><trkpt lat="43.54429856817556" lon="5.430376849408628"><ele>273.0</ele><time>2026-04-22T14:39:18Z</time></trkpt><trkpt lat="43.544089071319426" lon="5.430507462890212"><ele>273.0</ele><time>2026-04-22T14:39:19Z</time></trkpt><trkpt lat="43.54387172583644" lon="5.430642617706805"><ele>273.0</ele><time>2026-04-22T14:39:20Z</time></trkpt><trkpt lat="43.54363456909959" lon="5.430779939961666"><ele>270.0</ele><time>2026-04-22T14:39:21Z</time></trkpt><trkpt lat="43.543392337505594" lon="5.430914332726718"><ele>267.0</ele><time>2026-04-22T14:39:22Z</time></trkpt><trkpt lat="43.543220556388746" lon="5.4310800291411905"><ele>267.0</ele><time>2026-04-22T14:39:24Z</time></trkpt><trkpt lat="43.5430331381896" lon="5.43120647388564"><ele>267.0</ele><time>2026-04-22T14:39:25Z</time></trkpt><trkpt lat="43.54284595412043" lon="5.431330507116057"><ele>267.0</ele><time>2026-04-22T14:39:26Z</time></trkpt><trkpt lat="43.54265889419283" lon="5.43145811982014"><ele>264.3333333333333</ele><time>2026-04-22T14:39:27Z</time></trkpt><trkpt lat="43.542468219797115" lon="5.431583993579054"><ele>261.66666666666663</ele><time>2026-04-22T14:39:28Z</time></trkpt><trkpt lat="43.54227920257118" lon="5.431706969288505"><ele>259.0</ele><time>2026-04-22T14:39:29Z</time></trkpt><trkpt lat="43.54208779688026" lon="5.43183203150716"><ele>258.3333333333333</ele><time>2026-04-22T14:39:30Z</time></trkpt><trkpt lat="43.541896593955194" lon="5.431947745564183"><ele>257.6666666666667</ele><time>2026-04-22T14:39:31Z</time></trkpt><trkpt lat="43.541711188080875" lon="5.432077507295575"><ele>257.0</ele><time>2026-04-22T14:39:32Z</time></trkpt><trkpt lat="43.541515994123614" lon="5.432189994922492"><ele>253.66666666666669</ele><time>2026-04-22T14:39:33Z</time></trkpt><trkpt lat="43.54131266309203" lon="5.432282391631817"><ele>250.33333333333331</ele><time>2026-04-22T14:39:34Z</time></trkpt><trkpt lat="43.54110376943462" lon="5.432380826305193"><ele>247.0</ele><time>2026-04-22T14:39:35Z</time></trkpt><trkpt lat="43.540891728222924" lon="5.432468647979775"><ele>246.66666666666666</ele><time>2026-04-22T14:39:36Z</time></trkpt><trkpt lat="43.540679516970805" lon="5.432539288679586"><ele>246.33333333333331</ele><time>2026-04-22T14:39:37Z</time></trkpt><trkpt lat="43.540457774090484" lon="5.4326076730488495"><ele>246.0</ele><time>2026-04-22T14:39:38Z</time></trkpt><trkpt lat="43.540232072747656" lon="5.432651210563923"><ele>244.0</ele><time>2026-04-22T14:39:39Z</time></trkpt><trkpt lat="43.54000396398655" lon="5.432694827965715"><ele>242.0</ele><time>2026-04-22T14:39:40Z</time></trkpt><trkpt lat="43.539769518506446" lon="5.432721081553675"><ele>239.5</ele><time>2026-04-22T14:39:41Z</time></trkpt><trkpt lat="43.53953898619606" lon="5.432733532371882"><ele>237.0</ele><time>2026-04-22T14:39:42Z</time></trkpt><trkpt lat="43.539304722527945" lon="5.432731558793211"><ele>237.0</ele><time>2026-04-22T14:39:43Z</time></trkpt><trkpt lat="43.539067181066464" lon="5.432704177331922"><ele>237.0</ele><time>2026-04-22T14:39:44Z</time></trkpt><trkpt lat="43.538836286003665" lon="5.432678483764202"><ele>231.5</ele><time>2026-04-22T14:39:45Z</time></trkpt><trkpt lat="43.538595765990024" lon="5.432625353030918"><ele>226.0</ele><time>2026-04-22T14:39:46Z</time></trkpt><trkpt lat="43.538354878417216" lon="5.432566791528522"><ele>226.0</ele><time>2026-04-22T14:39:47Z</time></trkpt><trkpt lat="43.538105343219215" lon="5.432493427024908"><ele>226.0</ele><time>2026-04-22T14:39:48Z</time></trkpt><trkpt lat="43.537868975872456" lon="5.432411055825268"><ele>222.5</ele><time>2026-04-22T14:39:49Z</time></trkpt><trkpt lat="43.53762970598713" lon="5.432306730421704"><ele>219.0</ele><time>2026-04-22T14:39:50Z</time></trkpt><trkpt lat="43.53739198988657" lon="5.432180999892943"><ele>218.5</ele><time>2026-04-22T14:39:51Z</time></trkpt><trkpt lat="43.5371589986455" lon="5.432062358553383"><ele>218.0</ele><time>2026-04-22T14:39:52Z</time></trkpt><trkpt lat="43.53692303662159" lon="5.431936311391081"><ele>215.5</ele><time>2026-04-22T14:39:53Z</time></trkpt><trkpt lat="43.53668525247981" lon="5.431810106409058"><ele>213.0</ele><time>2026-04-22T14:39:54Z</time></trkpt><trkpt lat="43.53645055294307" lon="5.43168037627206"><ele>209.5</ele><time>2026-04-22T14:39:55Z</time></trkpt><trkpt lat="43.53621720425468" lon="5.431555964600422"><ele>206.0</ele><time>2026-04-22T14:39:56Z</time></trkpt><trkpt lat="43.535981178966196" lon="5.431435499145612"><ele>206.0</ele><time>2026-04-22T14:39:57Z</time></trkpt><trkpt lat="43.53574920606068" lon="5.431313855237385"><ele>206.0</ele><time>2026-04-22T14:39:58Z</time></trkpt><trkpt lat="43.53553051188423" lon="5.431197144470708"><ele>204.0</ele><time>2026-04-22T14:39:59Z</time></trkpt><trkpt lat="43.53533280461507" lon="5.4310818807249985"><ele>202.0</ele><time>2026-04-22T14:40:00Z</time></trkpt><trkpt lat="43.53512909443012" lon="5.430982093396405"><ele>200.0</ele><time>2026-04-22T14:40:01Z</time></trkpt><trkpt lat="43.534906254140914" lon="5.430876229880232"><ele>200.0</ele><time>2026-04-22T14:40:02Z</time></trkpt><trkpt lat="43.534673550167724" lon="5.43075907735962"><ele>200.0</ele><time>2026-04-22T14:40:03Z</time></trkpt><trkpt lat="43.53444228966596" lon="5.430635423720362"><ele>199.5</ele><time>2026-04-22T14:40:04Z</time></trkpt><trkpt lat="43.53422260040731" lon="5.43052840262721"><ele>199.0</ele><time>2026-04-22T14:40:05Z</time></trkpt><trkpt lat="43.534010743227334" lon="5.430424145893045"><ele>199.0</ele><time>2026-04-22T14:40:06Z</time></trkpt><trkpt lat="43.53376706501051" lon="5.430300423403247"><ele>199.0</ele><time>2026-04-22T14:40:07Z</time></trkpt><trkpt lat="43.53351335633513" lon="5.430148656427941"><ele>197.5</ele><time>2026-04-22T14:40:08Z</time></trkpt><trkpt lat="43.53323660922864" lon="5.430006950248802"><ele>196.0</ele><time>2026-04-22T14:40:09Z</time></trkpt><trkpt lat="43.532956798308284" lon="5.429877956186025"><ele>193.5</ele><time>2026-04-22T14:40:10Z</time></trkpt><trkpt lat="43.5327025042328" lon="5.429752929727002"><ele>191.0</ele><time>2026-04-22T14:40:11Z</time></trkpt><trkpt lat="43.53245894045996" lon="5.4296270274701985"><ele>190.0</ele><time>2026-04-22T14:40:12Z</time></trkpt><trkpt lat="43.53224249342951" lon="5.429515403346237"><ele>189.0</ele><time>2026-04-22T14:40:13Z</time></trkpt><trkpt lat="43.53203295747822" lon="5.429413715249875"><ele>187.0</ele><time>2026-04-22T14:40:14Z</time></trkpt><trkpt lat="43.53182275151216" lon="5.429310721935863"><ele>185.0</ele><time>2026-04-22T14:40:15Z</time></trkpt><trkpt lat="43.53163482190594" lon="5.429219089981523"><ele>183.0</ele><time>2026-04-22T14:40:16Z</time></trkpt><trkpt lat="43.53142871020235" lon="5.429120791346964"><ele>182.0</ele><time>2026-04-22T14:40:17Z</time></trkpt><trkpt lat="43.531212135035325" lon="5.429007601133032"><ele>181.0</ele><time>2026-04-22T14:40:18Z</time></trkpt><trkpt lat="43.53100103537652" lon="5.428907509533841"><ele>181.5</ele><time>2026-04-22T14:40:19Z</time></trkpt><trkpt lat="43.530787834370145" lon="5.428802710162655"><ele>182.0</ele><time>2026-04-22T14:40:20Z</time></trkpt><trkpt lat="43.53057731304958" lon="5.42869634644291"><ele>180.0</ele><time>2026-04-22T14:40:21Z</time></trkpt><trkpt lat="43.530356956673934" lon="5.428581346096744"><ele>178.0</ele><time>2026-04-22T14:40:22Z</time></trkpt><trkpt lat="43.53013816030287" lon="5.4284737438331945"><ele>178.0</ele><time>2026-04-22T14:40:23Z</time></trkpt><trkpt lat="43.52992577295974" lon="5.428365600798166"><ele>178.0</ele><time>2026-04-22T14:40:24.001Z</time></trkpt><trkpt lat="43.529721616051994" lon="5.428256952284632"><ele>178.0</ele><time>2026-04-22T14:40:25.001Z</time></trkpt><trkpt lat="43.52951001772569" lon="5.428145964866729"><ele>178.33333333333334</ele><time>2026-04-22T14:40:26.001Z</time></trkpt><trkpt lat="43.52930481715529" lon="5.428045530482291"><ele>178.66666666666666</ele><time>2026-04-22T14:40:27.001Z</time></trkpt><trkpt lat="43.52908966611207" lon="5.4279399285194625"><ele>179.0</ele><time>2026-04-22T14:40:28.001Z</time></trkpt><trkpt lat="43.528870387335814" lon="5.4278348071282"><ele>177.66666666666666</ele><time>2026-04-22T14:40:29.001Z</time></trkpt><trkpt lat="43.52865876268636" lon="5.427727061852417"><ele>176.33333333333334</ele><time>2026-04-22T14:40:30.001Z</time></trkpt><trkpt lat="43.52845775959163" lon="5.427620604909857"><ele>175.0</ele><time>2026-04-22T14:40:31.001Z</time></trkpt><trkpt lat="43.52825684032367" lon="5.427506861012987"><ele>175.0</ele><time>2026-04-22T14:40:32.001Z</time></trkpt><trkpt lat="43.52805250799189" lon="5.4273943021161255"><ele>175.0</ele><time>2026-04-22T14:40:33.001Z</time></trkpt><trkpt lat="43.52783675098755" lon="5.427289785898779"><ele>175.0</ele><time>2026-04-22T14:40:34.001Z</time></trkpt><trkpt lat="43.52761419572201" lon="5.427196201501292"><ele>174.33333333333334</ele><time>2026-04-22T14:40:35.001Z</time></trkpt><trkpt lat="43.52740368988681" lon="5.427111042312854"><ele>173.66666666666666</ele><time>2026-04-22T14:40:36.001Z</time></trkpt><trkpt lat="43.5271862757107" lon="5.427020492667421"><ele>173.0</ele><time>2026-04-22T14:40:37.001Z</time></trkpt><trkpt lat="43.52697966879823" lon="5.426950353733437"><ele>172.33333333333331</ele><time>2026-04-22T14:40:38.001Z</time></trkpt><trkpt lat="43.52676104051321" lon="5.4268721623657745"><ele>171.66666666666666</ele><time>2026-04-22T14:40:39.001Z</time></trkpt><trkpt lat="43.52654641260588" lon="5.426806716124002"><ele>171.0</ele><time>2026-04-22T14:40:40.001Z</time></trkpt><trkpt lat="43.526326925992734" lon="5.426752593822122"><ele>170.5</ele><time>2026-04-22T14:40:41.001Z</time></trkpt><trkpt lat="43.5260850708273" lon="5.426687506003659"><ele>170.0</ele><time>2026-04-22T14:40:42.001Z</time></trkpt><trkpt lat="43.52581421947311" lon="5.426612366280785"><ele>170.0</ele><time>2026-04-22T14:40:43.001Z</time></trkpt><trkpt lat="43.52553183906126" lon="5.426567449831117"><ele>170.0</ele><time>2026-04-22T14:40:44.001Z</time></trkpt><trkpt lat="43.5252599376984" lon="5.426540698194477"><ele>167.5</ele><time>2026-04-22T14:40:45.001Z</time></trkpt><trkpt lat="43.52501785499957" lon="5.426530858629164"><ele>165.0</ele><time>2026-04-22T14:40:46.001Z</time></trkpt><trkpt lat="43.52478770354803" lon="5.42652702119389"><ele>165.0</ele><time>2026-04-22T14:40:47.001Z</time></trkpt><trkpt lat="43.52457231657959" lon="5.426530927879086"><ele>165.0</ele><time>2026-04-22T14:40:48.001Z</time></trkpt><trkpt lat="43.52437772275978" lon="5.42654207742333"><ele>165.0</ele><time>2026-04-22T14:40:49.001Z</time></trkpt><trkpt lat="43.524152937331976" lon="5.426573901636765"><ele>165.0</ele><time>2026-04-22T14:40:50.001Z</time></trkpt><trkpt lat="43.52391274422815" lon="5.426612176811101"><ele>165.0</ele><time>2026-04-22T14:40:51.001Z</time></trkpt><trkpt lat="43.52365453661479" lon="5.426646084099536"><ele>164.0</ele><time>2026-04-22T14:40:52.001Z</time></trkpt><trkpt lat="43.52338595556748" lon="5.426690251446756"><ele>163.0</ele><time>2026-04-22T14:40:53.001Z</time></trkpt><trkpt lat="43.523107523091205" lon="5.426746359457635"><ele>162.5</ele><time>2026-04-22T14:40:54.001Z</time></trkpt><trkpt lat="43.52281511103892" lon="5.426815976445893"><ele>162.0</ele><time>2026-04-22T14:40:55.001Z</time></trkpt><trkpt lat="43.5225159492769" lon="5.426921315877898"><ele>162.0</ele><time>2026-04-22T14:40:56.001Z</time></trkpt><trkpt lat="43.52222393993015" lon="5.427015812321857"><ele>162.0</ele><time>2026-04-22T14:40:57.001Z</time></trkpt><trkpt lat="43.52193756366218" lon="5.427124668514122"><ele>160.5</ele><time>2026-04-22T14:40:58.001Z</time></trkpt><trkpt lat="43.52166004333761" lon="5.427240342434616"><ele>159.0</ele><time>2026-04-22T14:40:59.001Z</time></trkpt><trkpt lat="43.52138438852437" lon="5.427356596164989"><ele>157.5</ele><time>2026-04-22T14:41:00.001Z</time></trkpt><trkpt lat="43.52111698789729" lon="5.427475304422543"><ele>156.0</ele><time>2026-04-22T14:41:01.001Z</time></trkpt><trkpt lat="43.52085663287392" lon="5.427589637755675"><ele>156.0</ele><time>2026-04-22T14:41:02.001Z</time></trkpt><trkpt lat="43.52059969661373" lon="5.427704091027814"><ele>156.0</ele><time>2026-04-22T14:41:03.001Z</time></trkpt><trkpt lat="43.520342012756025" lon="5.427822671783037"><ele>156.0</ele><time>2026-04-22T14:41:04.001Z</time></trkpt><trkpt lat="43.52008271628531" lon="5.427950711867747"><ele>156.0</ele><time>2026-04-22T14:41:05.001Z</time></trkpt><trkpt lat="43.51983434418625" lon="5.428061210524102"><ele>155.5</ele><time>2026-04-22T14:41:06.001Z</time></trkpt><trkpt lat="43.519579823802836" lon="5.428156509965325"><ele>155.0</ele><time>2026-04-22T14:41:07.001Z</time></trkpt><trkpt lat="43.51932590073232" lon="5.428231523360668"><ele>158.0</ele><time>2026-04-22T14:41:08.001Z</time></trkpt><trkpt lat="43.51906897546499" lon="5.428295069225523"><ele>161.0</ele><time>2026-04-22T14:41:09.001Z</time></trkpt><trkpt lat="43.51881821939135" lon="5.428349925296221"><ele>161.0</ele><time>2026-04-22T14:41:10.001Z</time></trkpt><trkpt lat="43.51856448186216" lon="5.428395522434853"><ele>161.0</ele><time>2026-04-22T14:41:11.001Z</time></trkpt><trkpt lat="43.51831623344547" lon="5.428436033522318"><ele>161.0</ele><time>2026-04-22T14:41:12.001Z</time></trkpt><trkpt lat="43.51805220089481" lon="5.428440217151439"><ele>161.0</ele><time>2026-04-22T14:41:13.001Z</time></trkpt><trkpt lat="43.517809998919326" lon="5.428435651258306"><ele>160.0</ele><time>2026-04-22T14:41:14.001Z</time></trkpt><trkpt lat="43.51759187949489" lon="5.42842481656577"><ele>159.0</ele><time>2026-04-22T14:41:15.001Z</time></trkpt><trkpt lat="43.51741863497677" lon="5.4284134214122775"><ele>158.0</ele><time>2026-04-22T14:41:16.001Z</time></trkpt><trkpt lat="43.51724253944999" lon="5.428397432450668"><ele>153.5</ele><time>2026-04-22T14:41:17.001Z</time></trkpt><trkpt lat="43.516906593122584" lon="5.428351374456893"><ele>149.0</ele><time>2026-04-22T14:41:18.001Z</time></trkpt><trkpt lat="43.516663839639655" lon="5.428296386740139"><ele>149.0</ele><time>2026-04-22T14:41:19.001Z</time></trkpt><trkpt lat="43.51642560641196" lon="5.428230936493669"><ele>149.0</ele><time>2026-04-22T14:41:20Z</time></trkpt><trkpt lat="43.51620453040103" lon="5.428159924451769"><ele>147.0</ele><time>2026-04-22T14:41:21Z</time></trkpt><trkpt lat="43.51597734629585" lon="5.428082272864097"><ele>145.0</ele><time>2026-04-22T14:41:22Z</time></trkpt><trkpt lat="43.51575139785607" lon="5.42799667424234"><ele>143.5</ele><time>2026-04-22T14:41:23Z</time></trkpt><trkpt lat="43.51552720027197" lon="5.427897477866496"><ele>142.0</ele><time>2026-04-22T14:41:24Z</time></trkpt><trkpt lat="43.51530484678697" lon="5.427783478101495"><ele>141.5</ele><time>2026-04-22T14:41:25Z</time></trkpt><trkpt lat="43.515080062641374" lon="5.427651007206515"><ele>141.0</ele><time>2026-04-22T14:41:26Z</time></trkpt><trkpt lat="43.514858667408404" lon="5.427506172882403"><ele>141.0</ele><time>2026-04-22T14:41:27Z</time></trkpt><trkpt lat="43.51464595224358" lon="5.427361060523261"><ele>141.0</ele><time>2026-04-22T14:41:28Z</time></trkpt><trkpt lat="43.514448539098524" lon="5.427197344366827"><ele>138.5</ele><time>2026-04-22T14:41:29Z</time></trkpt><trkpt lat="43.51422817745442" lon="5.427024108869864"><ele>136.0</ele><time>2026-04-22T14:41:30Z</time></trkpt><trkpt lat="43.513960572937776" lon="5.426749003657226"><ele>134.0</ele><time>2026-04-22T14:41:31Z</time></trkpt><trkpt lat="43.51373028434932" lon="5.426504506905512"><ele>132.0</ele><time>2026-04-22T14:41:32Z</time></trkpt><trkpt lat="43.513520139109616" lon="5.426265493860591"><ele>132.0</ele><time>2026-04-22T14:41:33Z</time></trkpt><trkpt lat="43.513349236060904" lon="5.42603873384555"><ele>132.0</ele><time>2026-04-22T14:41:34Z</time></trkpt><trkpt lat="43.5131791640385" lon="5.425799327183382"><ele>132.0</ele><time>2026-04-22T14:41:35Z</time></trkpt><trkpt lat="43.513016259405276" lon="5.425549403268105"><ele>132.0</ele><time>2026-04-22T14:41:36Z</time></trkpt><trkpt lat="43.51285182497823" lon="5.425286377432154"><ele>129.5</ele><time>2026-04-22T14:41:37Z</time></trkpt><trkpt lat="43.51268441143929" lon="5.425066135497834"><ele>127.0</ele><time>2026-04-22T14:41:38Z</time></trkpt><trkpt lat="43.512551791489955" lon="5.4248046135985"><ele>127.5</ele><time>2026-04-22T14:41:39Z</time></trkpt><trkpt lat="43.512419652008234" lon="5.4245370637810195"><ele>128.0</ele><time>2026-04-22T14:41:40Z</time></trkpt><trkpt lat="43.51230396723053" lon="5.424258516195864"><ele>128.0</ele><time>2026-04-22T14:41:41Z</time></trkpt><trkpt lat="43.51217269016714" lon="5.423975232442978"><ele>128.0</ele><time>2026-04-22T14:41:42Z</time></trkpt><trkpt lat="43.512098741191785" lon="5.423697912573813"><ele>127.33333333333333</ele><time>2026-04-22T14:41:43Z</time></trkpt><trkpt lat="43.512013425772594" lon="5.423434346639653"><ele>126.66666666666666</ele><time>2026-04-22T14:41:44Z</time></trkpt><trkpt lat="43.511940260432446" lon="5.423156759137243"><ele>126.0</ele><time>2026-04-22T14:41:45Z</time></trkpt><trkpt lat="43.511873485600766" lon="5.42287159486698"><ele>126.0</ele><time>2026-04-22T14:41:46Z</time></trkpt><trkpt lat="43.51181427779104" lon="5.42255877799993"><ele>126.0</ele><time>2026-04-22T14:41:47Z</time></trkpt><trkpt lat="43.51176296273523" lon="5.4222630293609795"><ele>125.66666666666666</ele><time>2026-04-22T14:41:48Z</time></trkpt><trkpt lat="43.51171378518581" lon="5.421978623765084"><ele>125.33333333333333</ele><time>2026-04-22T14:41:49Z</time></trkpt><trkpt lat="43.51166436096087" lon="5.421709606909745"><ele>125.0</ele><time>2026-04-22T14:41:50Z</time></trkpt><trkpt lat="43.51161539710984" lon="5.4214458332837"><ele>126.0</ele><time>2026-04-22T14:41:51Z</time></trkpt><trkpt lat="43.51156945096395" lon="5.421203162975002"><ele>127.0</ele><time>2026-04-22T14:41:52Z</time></trkpt><trkpt lat="43.511519607698695" lon="5.42096329973857"><ele>128.0</ele><time>2026-04-22T14:41:53Z</time></trkpt><trkpt lat="43.51146941636758" lon="5.420725077367151"><ele>129.0</ele><time>2026-04-22T14:41:54Z</time></trkpt><trkpt lat="43.511420801304276" lon="5.420474120701729"><ele>130.0</ele><time>2026-04-22T14:41:55Z</time></trkpt><trkpt lat="43.511366973815754" lon="5.420224786472711"><ele>131.0</ele><time>2026-04-22T14:41:56Z</time></trkpt><trkpt lat="43.51130991559369" lon="5.419972832555957"><ele>131.0</ele><time>2026-04-22T14:41:57Z</time></trkpt><trkpt lat="43.51124837692869" lon="5.419742065490621"><ele>131.0</ele><time>2026-04-22T14:41:58Z</time></trkpt><trkpt lat="43.51118786206479" lon="5.419511320041019"><ele>131.0</ele><time>2026-04-22T14:41:59Z</time></trkpt><trkpt lat="43.51112543780639" lon="5.41928224415072"><ele>130.33333333333331</ele><time>2026-04-22T14:42:00Z</time></trkpt><trkpt lat="43.511048137864655" lon="5.419059687317886"><ele>129.66666666666666</ele><time>2026-04-22T14:42:01Z</time></trkpt><trkpt lat="43.51097565367211" lon="5.4188202622778014"><ele>129.0</ele><time>2026-04-22T14:42:02Z</time></trkpt><trkpt lat="43.510903069647796" lon="5.418576997710874"><ele>129.0</ele><time>2026-04-22T14:42:03Z</time></trkpt><trkpt lat="43.510826536599524" lon="5.418336543913437"><ele>129.0</ele><time>2026-04-22T14:42:04Z</time></trkpt><trkpt lat="43.51074511233535" lon="5.418095179201965"><ele>129.0</ele><time>2026-04-22T14:42:05Z</time></trkpt><trkpt lat="43.510653554310586" lon="5.417850418022778"><ele>128.5</ele><time>2026-04-22T14:42:06Z</time></trkpt><trkpt lat="43.51053775894879" lon="5.4175870103869075"><ele>128.0</ele><time>2026-04-22T14:42:07Z</time></trkpt><trkpt lat="43.5104215641276" lon="5.41729622286596"><ele>125.0</ele><time>2026-04-22T14:42:08Z</time></trkpt><trkpt lat="43.510303973084184" lon="5.416981762516933"><ele>122.0</ele><time>2026-04-22T14:42:09Z</time></trkpt><trkpt lat="43.51017280110255" lon="5.4166510975057145"><ele>122.0</ele><time>2026-04-22T14:42:10Z</time></trkpt><trkpt lat="43.51003857931903" lon="5.416318029427705"><ele>122.0</ele><time>2026-04-22T14:42:11Z</time></trkpt><trkpt lat="43.509896840174434" lon="5.415974908539939"><ele>122.0</ele><time>2026-04-22T14:42:12Z</time></trkpt><trkpt lat="43.509741155981615" lon="5.41562805634023"><ele>122.0</ele><time>2026-04-22T14:42:13Z</time></trkpt><trkpt lat="43.5095828734672" lon="5.415287990618716"><ele>123.0</ele><time>2026-04-22T14:42:14Z</time></trkpt><trkpt lat="43.50942444956344" lon="5.414979119958094"><ele>124.0</ele><time>2026-04-22T14:42:15Z</time></trkpt><trkpt lat="43.509266417029835" lon="5.414671509986339"><ele>125.0</ele><time>2026-04-22T14:42:16Z</time></trkpt><trkpt lat="43.50910343522797" lon="5.414350645305131"><ele>126.0</ele><time>2026-04-22T14:42:17Z</time></trkpt><trkpt lat="43.508934876799984" lon="5.414012882598248"><ele>126.5</ele><time>2026-04-22T14:42:18Z</time></trkpt><trkpt lat="43.50874865645423" lon="5.41368172137743"><ele>127.0</ele><time>2026-04-22T14:42:19Z</time></trkpt><trkpt lat="43.50855542476713" lon="5.41334840496075"><ele>126.0</ele><time>2026-04-22T14:42:20Z</time></trkpt><trkpt lat="43.508361313777236" lon="5.413024853568409"><ele>125.0</ele><time>2026-04-22T14:42:21Z</time></trkpt><trkpt lat="43.50816565487307" lon="5.412714500323548"><ele>125.0</ele><time>2026-04-22T14:42:22Z</time></trkpt><trkpt lat="43.50797150550643" lon="5.412412160382708"><ele>125.0</ele><time>2026-04-22T14:42:23Z</time></trkpt><trkpt lat="43.50777070185386" lon="5.412113807613604"><ele>124.5</ele><time>2026-04-22T14:42:24Z</time></trkpt><trkpt lat="43.50757061882729" lon="5.411817936972708"><ele>124.0</ele><time>2026-04-22T14:42:25Z</time></trkpt><trkpt lat="43.50736534580525" lon="5.411528693920314"><ele>123.5</ele><time>2026-04-22T14:42:26Z</time></trkpt><trkpt lat="43.50716914870325" lon="5.41123906260235"><ele>123.0</ele><time>2026-04-22T14:42:27Z</time></trkpt><trkpt lat="43.50699031277846" lon="5.410937476142334"><ele>125.5</ele><time>2026-04-22T14:42:28Z</time></trkpt><trkpt lat="43.50683119501026" lon="5.410616755147893"><ele>128.0</ele><time>2026-04-22T14:42:29Z</time></trkpt><trkpt lat="43.5066894323809" lon="5.4102777495953385"><ele>128.0</ele><time>2026-04-22T14:42:30Z</time></trkpt><trkpt lat="43.50657089303571" lon="5.409924946899358"><ele>128.0</ele><time>2026-04-22T14:42:31Z</time></trkpt><trkpt lat="43.50647958583292" lon="5.409558721415254"><ele>128.5</ele><time>2026-04-22T14:42:32Z</time></trkpt><trkpt lat="43.50640831257368" lon="5.409188230608627"><ele>129.0</ele><time>2026-04-22T14:42:33Z</time></trkpt><trkpt lat="43.506355272228" lon="5.408813903337137"><ele>127.5</ele><time>2026-04-22T14:42:34Z</time></trkpt><trkpt lat="43.50631458874899" lon="5.408436294524599"><ele>126.0</ele><time>2026-04-22T14:42:35Z</time></trkpt><trkpt lat="43.50629184999836" lon="5.408095773609195"><ele>125.0</ele><time>2026-04-22T14:42:36Z</time></trkpt><trkpt lat="43.50628554199456" lon="5.407805235331654"><ele>124.0</ele><time>2026-04-22T14:42:37Z</time></trkpt><trkpt lat="43.50628356335152" lon="5.407460360078625"><ele>124.0</ele><time>2026-04-22T14:42:38Z</time></trkpt><trkpt lat="43.50625245182933" lon="5.407036093951382"><ele>124.0</ele><time>2026-04-22T14:42:39Z</time></trkpt><trkpt lat="43.50623549629943" lon="5.406640873512223"><ele>123.5</ele><time>2026-04-22T14:42:40Z</time></trkpt><trkpt lat="43.50621668246749" lon="5.406244545632335"><ele>123.0</ele><time>2026-04-22T14:42:41Z</time></trkpt><trkpt lat="43.50620239290085" lon="5.405894992665268"><ele>123.5</ele><time>2026-04-22T14:42:42Z</time></trkpt><trkpt lat="43.50618997637318" lon="5.405481827857152"><ele>124.0</ele><time>2026-04-22T14:42:43.001Z</time></trkpt><trkpt lat="43.50617828352237" lon="5.405050507861421"><ele>123.0</ele><time>2026-04-22T14:42:44.001Z</time></trkpt><trkpt lat="43.50616783413115" lon="5.404611785061495"><ele>122.0</ele><time>2026-04-22T14:42:45.001Z</time></trkpt><trkpt lat="43.50615222609417" lon="5.404179288880624"><ele>122.5</ele><time>2026-04-22T14:42:46.001Z</time></trkpt><trkpt lat="43.50613831887049" lon="5.403768839523004"><ele>123.0</ele><time>2026-04-22T14:42:47.001Z</time></trkpt><trkpt lat="43.50612746375276" lon="5.4033623154654835"><ele>123.0</ele><time>2026-04-22T14:42:48.001Z</time></trkpt><trkpt lat="43.50611566714154" lon="5.402957457644721"><ele>123.0</ele><time>2026-04-22T14:42:49.001Z</time></trkpt><trkpt lat="43.50610267575202" lon="5.4025655382415785"><ele>123.0</ele><time>2026-04-22T14:42:50.001Z</time></trkpt><trkpt lat="43.50608598894145" lon="5.402184058906631"><ele>123.0</ele><time>2026-04-22T14:42:51.001Z</time></trkpt><trkpt lat="43.50606196880232" lon="5.401802932184649"><ele>122.0</ele><time>2026-04-22T14:42:52.001Z</time></trkpt><trkpt lat="43.50602253381338" lon="5.401422382965709"><ele>121.0</ele><time>2026-04-22T14:42:53.001Z</time></trkpt><trkpt lat="43.5059786736556" lon="5.401035596007188"><ele>121.0</ele><time>2026-04-22T14:42:54.001Z</time></trkpt><trkpt lat="43.50590453223641" lon="5.400662784853685"><ele>121.0</ele><time>2026-04-22T14:42:55.001Z</time></trkpt><trkpt lat="43.5058130456432" lon="5.400318984300987"><ele>121.0</ele><time>2026-04-22T14:42:56.001Z</time></trkpt><trkpt lat="43.505708537319755" lon="5.39999812153966"><ele>121.0</ele><time>2026-04-22T14:42:57.001Z</time></trkpt><trkpt lat="43.50559959538318" lon="5.399684645810231"><ele>120.5</ele><time>2026-04-22T14:42:58.001Z</time></trkpt><trkpt lat="43.505494609762835" lon="5.399361469234138"><ele>120.0</ele><time>2026-04-22T14:42:59.001Z</time></trkpt><trkpt lat="43.505391618377985" lon="5.399043373492797"><ele>120.0</ele><time>2026-04-22T14:43:00.001Z</time></trkpt><trkpt lat="43.50528130470025" lon="5.398730451128702"><ele>120.0</ele><time>2026-04-22T14:43:01.001Z</time></trkpt><trkpt lat="43.505170392096296" lon="5.398408019577934"><ele>120.0</ele><time>2026-04-22T14:43:02.001Z</time></trkpt><trkpt lat="43.505064462058385" lon="5.398100878984097"><ele>120.0</ele><time>2026-04-22T14:43:03.001Z</time></trkpt><trkpt lat="43.50494618716915" lon="5.3977751654263475"><ele>119.5</ele><time>2026-04-22T14:43:04.001Z</time></trkpt><trkpt lat="43.50481758139019" lon="5.397440262046165"><ele>119.0</ele><time>2026-04-22T14:43:05.001Z</time></trkpt><trkpt lat="43.50468725349692" lon="5.397129094263112"><ele>119.5</ele><time>2026-04-22T14:43:06.001Z</time></trkpt><trkpt lat="43.50454343421438" lon="5.396838901134928"><ele>120.0</ele><time>2026-04-22T14:43:07.001Z</time></trkpt><trkpt lat="43.504380073073754" lon="5.396499620975887"><ele>119.5</ele><time>2026-04-22T14:43:08.001Z</time></trkpt><trkpt lat="43.5041898512411" lon="5.396101043150604"><ele>119.0</ele><time>2026-04-22T14:43:09.001Z</time></trkpt><trkpt lat="43.50408411830439" lon="5.39591062323742"><ele>119.0</ele><time>2026-04-22T14:43:10.001Z</time></trkpt><trkpt lat="43.50391838981682" lon="5.39561797201307"><ele>119.0</ele><time>2026-04-22T14:43:11.001Z</time></trkpt><trkpt lat="43.50374452395122" lon="5.395309208711468"><ele>120.5</ele><time>2026-04-22T14:43:12.001Z</time></trkpt><trkpt lat="43.50356853485175" lon="5.394997791837085"><ele>122.0</ele><time>2026-04-22T14:43:13.001Z</time></trkpt><trkpt lat="43.50338657172584" lon="5.394682341968829"><ele>122.5</ele><time>2026-04-22T14:43:14.001Z</time></trkpt><trkpt lat="43.503212208164015" lon="5.394368819905287"><ele>123.0</ele><time>2026-04-22T14:43:15.001Z</time></trkpt><trkpt lat="43.50301861722939" lon="5.394051890175293"><ele>123.5</ele><time>2026-04-22T14:43:16.001Z</time></trkpt><trkpt lat="43.50283533606313" lon="5.39370805226686"><ele>124.0</ele><time>2026-04-22T14:43:17.001Z</time></trkpt><trkpt lat="43.50263623856513" lon="5.393367465174281"><ele>124.0</ele><time>2026-04-22T14:43:18.001Z</time></trkpt><trkpt lat="43.502442905867625" lon="5.393014942773277"><ele>124.0</ele><time>2026-04-22T14:43:19.001Z</time></trkpt><trkpt lat="43.50224501892231" lon="5.392662926233615"><ele>126.0</ele><time>2026-04-22T14:43:20.001Z</time></trkpt><trkpt lat="43.50205079342776" lon="5.392310397944615"><ele>128.0</ele><time>2026-04-22T14:43:21.001Z</time></trkpt><trkpt lat="43.501856926793266" lon="5.391939451515907"><ele>128.0</ele><time>2026-04-22T14:43:22.001Z</time></trkpt><trkpt lat="43.50167133685365" lon="5.391575626315044"><ele>128.0</ele><time>2026-04-22T14:43:23.001Z</time></trkpt><trkpt lat="43.501495883896304" lon="5.39120822498737"><ele>127.5</ele><time>2026-04-22T14:43:24.001Z</time></trkpt><trkpt lat="43.501340891198105" lon="5.390837781723523"><ele>127.0</ele><time>2026-04-22T14:43:25.001Z</time></trkpt><trkpt lat="43.50120164879455" lon="5.390464497474937"><ele>129.5</ele><time>2026-04-22T14:43:26Z</time></trkpt><trkpt lat="43.50108561746347" lon="5.390092678551918"><ele>132.0</ele><time>2026-04-22T14:43:27Z</time></trkpt><trkpt lat="43.50099186689495" lon="5.389732482358929"><ele>132.0</ele><time>2026-04-22T14:43:28Z</time></trkpt><trkpt lat="43.500914509470434" lon="5.389384342616606"><ele>132.0</ele><time>2026-04-22T14:43:29Z</time></trkpt><trkpt lat="43.50082887484162" lon="5.389022662695876"><ele>131.0</ele><time>2026-04-22T14:43:30Z</time></trkpt><trkpt lat="43.5007425627198" lon="5.388647209032828"><ele>130.0</ele><time>2026-04-22T14:43:31Z</time></trkpt><trkpt lat="43.500653852924636" lon="5.388252367479814"><ele>129.5</ele><time>2026-04-22T14:43:32Z</time></trkpt><trkpt lat="43.500584660819804" lon="5.3878372703709605"><ele>129.0</ele><time>2026-04-22T14:43:33Z</time></trkpt><trkpt lat="43.50049959173365" lon="5.387433616806605"><ele>134.0</ele><time>2026-04-22T14:43:34Z</time></trkpt><trkpt lat="43.50041033080075" lon="5.3870391979972725"><ele>139.0</ele><time>2026-04-22T14:43:35Z</time></trkpt><trkpt lat="43.500319605101055" lon="5.386673681714313"><ele>136.5</ele><time>2026-04-22T14:43:36Z</time></trkpt><trkpt lat="43.50022845036888" lon="5.3863072868124116"><ele>134.0</ele><time>2026-04-22T14:43:37Z</time></trkpt><trkpt lat="43.50014145254655" lon="5.38594978460477"><ele>134.0</ele><time>2026-04-22T14:43:38Z</time></trkpt><trkpt lat="43.5000585189572" lon="5.3856122479432385"><ele>134.0</ele><time>2026-04-22T14:43:39Z</time></trkpt><trkpt lat="43.49998351639237" lon="5.385279608395288"><ele>131.5</ele><time>2026-04-22T14:43:40Z</time></trkpt><trkpt lat="43.49990206605118" lon="5.38494971337244"><ele>129.0</ele><time>2026-04-22T14:43:41Z</time></trkpt><trkpt lat="43.49983097141012" lon="5.384628041769806"><ele>127.5</ele><time>2026-04-22T14:43:42Z</time></trkpt><trkpt lat="43.499755514457114" lon="5.384307162429794"><ele>126.0</ele><time>2026-04-22T14:43:43Z</time></trkpt><trkpt lat="43.49968040590082" lon="5.383992813213051"><ele>125.0</ele><time>2026-04-22T14:43:44Z</time></trkpt><trkpt lat="43.49960465735469" lon="5.383687763541641"><ele>124.0</ele><time>2026-04-22T14:43:45Z</time></trkpt><trkpt lat="43.49951829467265" lon="5.383385410868056"><ele>124.5</ele><time>2026-04-22T14:43:46Z</time></trkpt><trkpt lat="43.49942522545722" lon="5.383080836719188"><ele>125.0</ele><time>2026-04-22T14:43:47Z</time></trkpt><trkpt lat="43.49932517157958" lon="5.382781874979313"><ele>125.0</ele><time>2026-04-22T14:43:48Z</time></trkpt><trkpt lat="43.499221064940166" lon="5.382484535839564"><ele>125.0</ele><time>2026-04-22T14:43:49Z</time></trkpt><trkpt lat="43.49910133314904" lon="5.382192206152197"><ele>123.0</ele><time>2026-04-22T14:43:50Z</time></trkpt><trkpt lat="43.49897632556245" lon="5.381919843210862"><ele>121.0</ele><time>2026-04-22T14:43:51Z</time></trkpt><trkpt lat="43.49885497101221" lon="5.381650809193165"><ele>121.0</ele><time>2026-04-22T14:43:52Z</time></trkpt><trkpt lat="43.49873345639162" lon="5.381383168568334"><ele>121.0</ele><time>2026-04-22T14:43:53Z</time></trkpt><trkpt lat="43.498609440380164" lon="5.381101997522167"><ele>120.0</ele><time>2026-04-22T14:43:54Z</time></trkpt><trkpt lat="43.49847648431302" lon="5.380812618914495"><ele>119.0</ele><time>2026-04-22T14:43:55Z</time></trkpt><trkpt lat="43.498342642550355" lon="5.3805290643609585"><ele>118.5</ele><time>2026-04-22T14:43:56Z</time></trkpt><trkpt lat="43.498211623085275" lon="5.380257120961529"><ele>118.0</ele><time>2026-04-22T14:43:57Z</time></trkpt><trkpt lat="43.498088580832835" lon="5.379985015275405"><ele>118.0</ele><time>2026-04-22T14:43:58Z</time></trkpt><trkpt lat="43.497959718938134" lon="5.379707801295354"><ele>118.0</ele><time>2026-04-22T14:43:59Z</time></trkpt><trkpt lat="43.49783042226407" lon="5.379427078887428"><ele>119.0</ele><time>2026-04-22T14:44:00Z</time></trkpt><trkpt lat="43.49770583278663" lon="5.379155531490037"><ele>120.0</ele><time>2026-04-22T14:44:01Z</time></trkpt><trkpt lat="43.497581909947165" lon="5.378893872275235"><ele>120.0</ele><time>2026-04-22T14:44:02Z</time></trkpt><trkpt lat="43.49745621012534" lon="5.378630693642703"><ele>120.0</ele><time>2026-04-22T14:44:03Z</time></trkpt><trkpt lat="43.49733401428704" lon="5.378366328466663"><ele>120.0</ele><time>2026-04-22T14:44:04Z</time></trkpt><trkpt lat="43.49721467293313" lon="5.378104724303097"><ele>120.0</ele><time>2026-04-22T14:44:05Z</time></trkpt><trkpt lat="43.497094159791466" lon="5.377837268608932"><ele>119.66666666666666</ele><time>2026-04-22T14:44:06Z</time></trkpt><trkpt lat="43.49696191393309" lon="5.3775874295861"><ele>119.33333333333333</ele><time>2026-04-22T14:44:07Z</time></trkpt><trkpt lat="43.496830158709045" lon="5.3773465192805325"><ele>119.0</ele><time>2026-04-22T14:44:08Z</time></trkpt><trkpt lat="43.4966871885608" lon="5.377113768662122"><ele>118.33333333333333</ele><time>2026-04-22T14:44:09Z</time></trkpt><trkpt lat="43.49654503778368" lon="5.376876820339423"><ele>117.66666666666666</ele><time>2026-04-22T14:44:10Z</time></trkpt><trkpt lat="43.496400495325176" lon="5.376641045895897"><ele>117.0</ele><time>2026-04-22T14:44:11Z</time></trkpt><trkpt lat="43.49625501384205" lon="5.3764027774813705"><ele>115.5</ele><time>2026-04-22T14:44:12Z</time></trkpt><trkpt lat="43.496106253537505" lon="5.376163095279957"><ele>114.0</ele><time>2026-04-22T14:44:13Z</time></trkpt><trkpt lat="43.49596035555591" lon="5.37591784078228"><ele>114.0</ele><time>2026-04-22T14:44:14Z</time></trkpt><trkpt lat="43.49580941752022" lon="5.375670665303133"><ele>114.0</ele><time>2026-04-22T14:44:15Z</time></trkpt><trkpt lat="43.4956516641615" lon="5.375412215020096"><ele>114.5</ele><time>2026-04-22T14:44:16Z</time></trkpt><trkpt lat="43.495485770251975" lon="5.3751414304390295"><ele>115.0</ele><time>2026-04-22T14:44:17Z</time></trkpt><trkpt lat="43.49531565835094" lon="5.3748686790709925"><ele>114.5</ele><time>2026-04-22T14:44:18Z</time></trkpt><trkpt lat="43.4951398538773" lon="5.374582183525824"><ele>114.0</ele><time>2026-04-22T14:44:19Z</time></trkpt><trkpt lat="43.49494826772835" lon="5.374278919200905"><ele>114.0</ele><time>2026-04-22T14:44:20Z</time></trkpt><trkpt lat="43.4947719504964" lon="5.37399016775231"><ele>114.0</ele><time>2026-04-22T14:44:21Z</time></trkpt><trkpt lat="43.49460311652831" lon="5.373701990292832"><ele>115.0</ele><time>2026-04-22T14:44:22Z</time></trkpt><trkpt lat="43.49443201137611" lon="5.373418346024718"><ele>116.0</ele><time>2026-04-22T14:44:23Z</time></trkpt><trkpt lat="43.49425672046361" lon="5.373135058880748"><ele>116.0</ele><time>2026-04-22T14:44:24Z</time></trkpt><trkpt lat="43.494100015144966" lon="5.372872652469553"><ele>116.0</ele><time>2026-04-22T14:44:25Z</time></trkpt><trkpt lat="43.493952599757264" lon="5.372644190687781"><ele>115.5</ele><time>2026-04-22T14:44:26Z</time></trkpt><trkpt lat="43.49372860202312" lon="5.372281270116786"><ele>115.0</ele><time>2026-04-22T14:44:27Z</time></trkpt><trkpt lat="43.49352094666373" lon="5.3719396472456244"><ele>115.0</ele><time>2026-04-22T14:44:28Z</time></trkpt><trkpt lat="43.49334278443507" lon="5.3716486254897875"><ele>115.0</ele><time>2026-04-22T14:44:29Z</time></trkpt><trkpt lat="43.49314857972743" lon="5.371332096931679"><ele>115.0</ele><time>2026-04-22T14:44:30Z</time></trkpt><trkpt lat="43.49295339790016" lon="5.370997024760718"><ele>115.0</ele><time>2026-04-22T14:44:31Z</time></trkpt><trkpt lat="43.49275092821943" lon="5.370669981115336"><ele>113.5</ele><time>2026-04-22T14:44:32Z</time></trkpt><trkpt lat="43.49255003554728" lon="5.370336233941598"><ele>112.0</ele><time>2026-04-22T14:44:33Z</time></trkpt><trkpt lat="43.4923453539617" lon="5.369995193181092"><ele>111.5</ele><time>2026-04-22T14:44:34Z</time></trkpt><trkpt lat="43.49214374318964" lon="5.36963477743747"><ele>111.0</ele><time>2026-04-22T14:44:35Z</time></trkpt><trkpt lat="43.491932752785964" lon="5.36930260327759"><ele>111.0</ele><time>2026-04-22T14:44:36Z</time></trkpt><trkpt lat="43.49172099425063" lon="5.368957107543421"><ele>111.0</ele><time>2026-04-22T14:44:37Z</time></trkpt><trkpt lat="43.491504266109644" lon="5.368608025400692"><ele>110.5</ele><time>2026-04-22T14:44:38Z</time></trkpt><trkpt lat="43.49128794959215" lon="5.368251342497206"><ele>110.0</ele><time>2026-04-22T14:44:39Z</time></trkpt><trkpt lat="43.491070639073484" lon="5.367886567774853"><ele>110.0</ele><time>2026-04-22T14:44:40Z</time></trkpt><trkpt lat="43.49085140247525" lon="5.367514643563473"><ele>110.0</ele><time>2026-04-22T14:44:41Z</time></trkpt><trkpt lat="43.49062988845827" lon="5.367140127209726"><ele>109.0</ele><time>2026-04-22T14:44:42Z</time></trkpt><trkpt lat="43.49041142808238" lon="5.366764758555182"><ele>108.0</ele><time>2026-04-22T14:44:43Z</time></trkpt><trkpt lat="43.490193225233995" lon="5.366390515710093"><ele>107.5</ele><time>2026-04-22T14:44:44Z</time></trkpt><trkpt lat="43.48998433009692" lon="5.366026305012873"><ele>107.0</ele><time>2026-04-22T14:44:45Z</time></trkpt><trkpt lat="43.48979073292896" lon="5.36568644658259"><ele>107.0</ele><time>2026-04-22T14:44:46Z</time></trkpt><trkpt lat="43.48960437948064" lon="5.365366007665002"><ele>107.0</ele><time>2026-04-22T14:44:47Z</time></trkpt><trkpt lat="43.489433787227604" lon="5.365041658567241"><ele>107.0</ele><time>2026-04-22T14:44:48Z</time></trkpt><trkpt lat="43.48927069667884" lon="5.364737811321461"><ele>107.0</ele><time>2026-04-22T14:44:49Z</time></trkpt><trkpt lat="43.48911795808448" lon="5.364452801016622"><ele>107.0</ele><time>2026-04-22T14:44:50Z</time></trkpt><trkpt lat="43.48897904695766" lon="5.36422131907853"><ele>107.0</ele><time>2026-04-22T14:44:51Z</time></trkpt><trkpt lat="43.488823073070506" lon="5.363982735334739"><ele>108.5</ele><time>2026-04-22T14:44:52Z</time></trkpt><trkpt lat="43.48863723876593" lon="5.363634390349103"><ele>110.0</ele><time>2026-04-22T14:44:53Z</time></trkpt><trkpt lat="43.48846287560966" lon="5.363341009534548"><ele>111.0</ele><time>2026-04-22T14:44:54Z</time></trkpt><trkpt lat="43.48828134269965" lon="5.363024352655246"><ele>112.0</ele><time>2026-04-22T14:44:55Z</time></trkpt><trkpt lat="43.48808070188113" lon="5.362710712718075"><ele>112.0</ele><time>2026-04-22T14:44:56.001Z</time></trkpt><trkpt lat="43.487930036050145" lon="5.362457368310654"><ele>112.0</ele><time>2026-04-22T14:44:57.001Z</time></trkpt><trkpt lat="43.487747505845626" lon="5.362144888554309"><ele>115.5</ele><time>2026-04-22T14:44:58.001Z</time></trkpt><trkpt lat="43.48756920879262" lon="5.361834973790015"><ele>119.0</ele><time>2026-04-22T14:44:59.001Z</time></trkpt><trkpt lat="43.48739214857294" lon="5.361533499391324"><ele>120.0</ele><time>2026-04-22T14:45:00.001Z</time></trkpt><trkpt lat="43.487228269076674" lon="5.361246579101296"><ele>121.0</ele><time>2026-04-22T14:45:01.001Z</time></trkpt><trkpt lat="43.487097587212936" lon="5.361022459656076"><ele>122.5</ele><time>2026-04-22T14:45:02.001Z</time></trkpt><trkpt lat="43.48700658422451" lon="5.3607641463012135"><ele>124.0</ele><time>2026-04-22T14:45:03.001Z</time></trkpt><trkpt lat="43.486831480036734" lon="5.360418362620519"><ele>125.0</ele><time>2026-04-22T14:45:04.001Z</time></trkpt><trkpt lat="43.486701544598326" lon="5.3601097779249764"><ele>126.0</ele><time>2026-04-22T14:45:05.001Z</time></trkpt><trkpt lat="43.48659591135017" lon="5.359778200796224"><ele>129.0</ele><time>2026-04-22T14:45:06.001Z</time></trkpt><trkpt lat="43.486524674836005" lon="5.359437897187181"><ele>132.0</ele><time>2026-04-22T14:45:07.001Z</time></trkpt><trkpt lat="43.486448228279926" lon="5.359095086542997"><ele>134.5</ele><time>2026-04-22T14:45:08.001Z</time></trkpt><trkpt lat="43.48638106604008" lon="5.358744441990066"><ele>137.0</ele><time>2026-04-22T14:45:09.001Z</time></trkpt><trkpt lat="43.486308668289475" lon="5.3584129894300725"><ele>136.5</ele><time>2026-04-22T14:45:10.001Z</time></trkpt><trkpt lat="43.48621716536912" lon="5.358102594133622"><ele>136.0</ele><time>2026-04-22T14:45:11.001Z</time></trkpt><trkpt lat="43.48610840610559" lon="5.357782884015554"><ele>136.0</ele><time>2026-04-22T14:45:12.001Z</time></trkpt><trkpt lat="43.48598551290664" lon="5.357466753569722"><ele>136.0</ele><time>2026-04-22T14:45:13.001Z</time></trkpt><trkpt lat="43.485844755232655" lon="5.357160722065161"><ele>135.5</ele><time>2026-04-22T14:45:14.001Z</time></trkpt><trkpt lat="43.48567723917405" lon="5.356869401150206"><ele>135.0</ele><time>2026-04-22T14:45:15.001Z</time></trkpt><trkpt lat="43.48549044389586" lon="5.3565851637556126"><ele>132.5</ele><time>2026-04-22T14:45:16.001Z</time></trkpt><trkpt lat="43.48528579513422" lon="5.3563371461627085"><ele>130.0</ele><time>2026-04-22T14:45:17.001Z</time></trkpt><trkpt lat="43.485063024271405" lon="5.356125157594191"><ele>130.0</ele><time>2026-04-22T14:45:18.001Z</time></trkpt><trkpt lat="43.48481180721605" lon="5.355939624410235"><ele>130.0</ele><time>2026-04-22T14:45:19.001Z</time></trkpt><trkpt lat="43.484550643642315" lon="5.355780895326761"><ele>132.5</ele><time>2026-04-22T14:45:20.001Z</time></trkpt><trkpt lat="43.48428809511388" lon="5.355666582142808"><ele>135.0</ele><time>2026-04-22T14:45:21.001Z</time></trkpt><trkpt lat="43.484050974667305" lon="5.3555967183628255"><ele>135.0</ele><time>2026-04-22T14:45:22.001Z</time></trkpt><trkpt lat="43.4838349643169" lon="5.3555783938804895"><ele>135.0</ele><time>2026-04-22T14:45:23.001Z</time></trkpt><trkpt lat="43.483582763797116" lon="5.355569472813877"><ele>134.5</ele><time>2026-04-22T14:45:24.001Z</time></trkpt><trkpt lat="43.483321490474026" lon="5.355555904170917"><ele>134.0</ele><time>2026-04-22T14:45:25.001Z</time></trkpt><trkpt lat="43.48307857819691" lon="5.355592494721802"><ele>130.0</ele><time>2026-04-22T14:45:26.001Z</time></trkpt><trkpt lat="43.48283655259182" lon="5.355667328763125"><ele>126.0</ele><time>2026-04-22T14:45:27.001Z</time></trkpt><trkpt lat="43.4826100827507" lon="5.355755205433064"><ele>126.0</ele><time>2026-04-22T14:45:28.001Z</time></trkpt><trkpt lat="43.48238317350549" lon="5.355864299848104"><ele>126.0</ele><time>2026-04-22T14:45:29.001Z</time></trkpt><trkpt lat="43.48215820823314" lon="5.355982345695201"><ele>124.33333333333334</ele><time>2026-04-22T14:45:30.001Z</time></trkpt><trkpt lat="43.48194468579683" lon="5.356084098278575"><ele>122.66666666666667</ele><time>2026-04-22T14:45:31.001Z</time></trkpt><trkpt lat="43.481733203040285" lon="5.356159931350607"><ele>121.0</ele><time>2026-04-22T14:45:32Z</time></trkpt><trkpt lat="43.48152552848992" lon="5.356220555494345"><ele>121.0</ele><time>2026-04-22T14:45:33Z</time></trkpt><trkpt lat="43.48132387950048" lon="5.3562556950497795"><ele>121.0</ele><time>2026-04-22T14:45:34Z</time></trkpt><trkpt lat="43.48113323253892" lon="5.356283737548868"><ele>121.0</ele><time>2026-04-22T14:45:35Z</time></trkpt><trkpt lat="43.480950304398675" lon="5.356302750058514"><ele>120.66666666666667</ele><time>2026-04-22T14:45:36Z</time></trkpt><trkpt lat="43.48077117110126" lon="5.356312209397234"><ele>120.33333333333334</ele><time>2026-04-22T14:45:37Z</time></trkpt><trkpt lat="43.48059699045596" lon="5.35630614629196"><ele>120.0</ele><time>2026-04-22T14:45:38Z</time></trkpt><trkpt lat="43.480429680878885" lon="5.356279299305138"><ele>121.0</ele><time>2026-04-22T14:45:39Z</time></trkpt><trkpt lat="43.48026719828882" lon="5.35623105966594"><ele>122.0</ele><time>2026-04-22T14:45:40Z</time></trkpt><trkpt lat="43.480114964586946" lon="5.35617148822636"><ele>123.0</ele><time>2026-04-22T14:45:41Z</time></trkpt><trkpt lat="43.47997955834146" lon="5.356092237035079"><ele>123.0</ele><time>2026-04-22T14:45:42Z</time></trkpt><trkpt lat="43.47987104146385" lon="5.355998715434219"><ele>123.0</ele><time>2026-04-22T14:45:43Z</time></trkpt><trkpt lat="43.479797613785315" lon="5.355922410482807"><ele>123.0</ele><time>2026-04-22T14:45:44Z</time></trkpt><trkpt lat="43.47974236674916" lon="5.355868570983189"><ele>123.0</ele><time>2026-04-22T14:45:45Z</time></trkpt><trkpt lat="43.47969526192268" lon="5.355810965585066"><ele>123.0</ele><time>2026-04-22T14:45:46Z</time></trkpt><trkpt lat="43.47965367989046" lon="5.355700165636428"><ele>123.0</ele><time>2026-04-22T14:45:48Z</time></trkpt><trkpt lat="43.479648607920495" lon="5.355606163943838"><ele>123.0</ele><time>2026-04-22T14:45:49Z</time></trkpt><trkpt lat="43.47967157811499" lon="5.355469645170135"><ele>123.00000000000001</ele><time>2026-04-22T14:45:50Z</time></trkpt><trkpt lat="43.479671529231055" lon="5.355323439258994"><ele>123.00000000000001</ele><time>2026-04-22T14:45:51Z</time></trkpt><trkpt lat="43.4796588736921" lon="5.355173238249682"><ele>123.0</ele><time>2026-04-22T14:45:52Z</time></trkpt><trkpt lat="43.47961970421557" lon="5.35502506301661"><ele>123.0</ele><time>2026-04-22T14:45:53Z</time></trkpt><trkpt lat="43.47956357065508" lon="5.3548844336162755"><ele>123.5</ele><time>2026-04-22T14:45:54Z</time></trkpt><trkpt lat="43.47949285088474" lon="5.354765315051688"><ele>124.0</ele><time>2026-04-22T14:45:55Z</time></trkpt><trkpt lat="43.47940541759398" lon="5.354669591527097"><ele>124.5</ele><time>2026-04-22T14:45:56Z</time></trkpt><trkpt lat="43.47930636333991" lon="5.354591070010258"><ele>125.0</ele><time>2026-04-22T14:45:57Z</time></trkpt><trkpt lat="43.47922477715326" lon="5.35447432083281"><ele>125.0</ele><time>2026-04-22T14:45:58Z</time></trkpt><trkpt lat="43.47918346938904" lon="5.354323017115866"><ele>125.0</ele><time>2026-04-22T14:45:59Z</time></trkpt><trkpt lat="43.47917833580597" lon="5.354179442079439"><ele>125.0</ele><time>2026-04-22T14:46:00Z</time></trkpt><trkpt lat="43.479194280782544" lon="5.354038072006259"><ele>125.0</ele><time>2026-04-22T14:46:01Z</time></trkpt><trkpt lat="43.479220748251684" lon="5.353882434072705"><ele>125.0</ele><time>2026-04-22T14:46:02Z</time></trkpt><trkpt lat="43.47927284195643" lon="5.353724648679767"><ele>126.25</ele><time>2026-04-22T14:46:03Z</time></trkpt><trkpt lat="43.479353004111715" lon="5.353590644518636"><ele>127.5</ele><time>2026-04-22T14:46:04Z</time></trkpt><trkpt lat="43.47945981064708" lon="5.353472253415982"><ele>128.75</ele><time>2026-04-22T14:46:05Z</time></trkpt><trkpt lat="43.47958482660006" lon="5.353377604545462"><ele>130.0</ele><time>2026-04-22T14:46:06Z</time></trkpt><trkpt lat="43.4797233261306" lon="5.3533153438463525"><ele>131.5</ele><time>2026-04-22T14:46:07Z</time></trkpt><trkpt lat="43.479852720978386" lon="5.3533029553753915"><ele>133.0</ele><time>2026-04-22T14:46:08Z</time></trkpt><trkpt lat="43.479982037159004" lon="5.353331930775477"><ele>134.5</ele><time>2026-04-22T14:46:09Z</time></trkpt><trkpt lat="43.48010356682163" lon="5.353377915675007"><ele>136.0</ele><time>2026-04-22T14:46:10Z</time></trkpt><trkpt lat="43.48022841359957" lon="5.353413182420401"><ele>136.0</ele><time>2026-04-22T14:46:11Z</time></trkpt><trkpt lat="43.4803533473348" lon="5.353386511105252"><ele>136.0</ele><time>2026-04-22T14:46:12Z</time></trkpt><trkpt lat="43.48047447637528" lon="5.353315900019939"><ele>136.0</ele><time>2026-04-22T14:46:13Z</time></trkpt><trkpt lat="43.48058865763663" lon="5.353223272021357"><ele>136.0</ele><time>2026-04-22T14:46:14Z</time></trkpt><trkpt lat="43.48068698334789" lon="5.353110312902419"><ele>138.5</ele><time>2026-04-22T14:46:15Z</time></trkpt><trkpt lat="43.4807752732387" lon="5.352985433080671"><ele>141.0</ele><time>2026-04-22T14:46:16Z</time></trkpt><trkpt lat="43.480864418686075" lon="5.352866924287497"><ele>143.5</ele><time>2026-04-22T14:46:17Z</time></trkpt><trkpt lat="43.48093951647807" lon="5.352747238198685"><ele>146.0</ele><time>2026-04-22T14:46:18Z</time></trkpt><trkpt lat="43.48100760943755" lon="5.3526090681598895"><ele>146.0</ele><time>2026-04-22T14:46:19Z</time></trkpt><trkpt lat="43.48106904465768" lon="5.3524760906114235"><ele>146.0</ele><time>2026-04-22T14:46:20Z</time></trkpt><trkpt lat="43.48111990036346" lon="5.352372835748066"><ele>146.0</ele><time>2026-04-22T14:46:21Z</time></trkpt><trkpt lat="43.48116873634202" lon="5.352282673630123"><ele>146.0</ele><time>2026-04-22T14:46:22Z</time></trkpt><trkpt lat="43.481213098246236" lon="5.352191902398255"><ele>146.0</ele><time>2026-04-22T14:46:23Z</time></trkpt><trkpt lat="43.48125717958615" lon="5.352102704357265"><ele>146.0</ele><time>2026-04-22T14:46:24Z</time></trkpt><trkpt lat="43.4813031750446" lon="5.352007396670458"><ele>148.0</ele><time>2026-04-22T14:46:25Z</time></trkpt><trkpt lat="43.481350116068946" lon="5.3519071340725795"><ele>150.0</ele><time>2026-04-22T14:46:26Z</time></trkpt><trkpt lat="43.48140447135952" lon="5.351786998487099"><ele>152.0</ele><time>2026-04-22T14:46:27Z</time></trkpt><trkpt lat="43.48146780464612" lon="5.351647760793477"><ele>154.0</ele><time>2026-04-22T14:46:28Z</time></trkpt><trkpt lat="43.481546368706084" lon="5.351497545390214"><ele>156.0</ele><time>2026-04-22T14:46:29Z</time></trkpt><trkpt lat="43.4816429750709" lon="5.351332009156041"><ele>157.0</ele><time>2026-04-22T14:46:30Z</time></trkpt><trkpt lat="43.4817413492752" lon="5.35118553909679"><ele>158.0</ele><time>2026-04-22T14:46:31Z</time></trkpt><trkpt lat="43.481851883444484" lon="5.35105654078973"><ele>159.0</ele><time>2026-04-22T14:46:32Z</time></trkpt><trkpt lat="43.481977956789535" lon="5.350934324030668"><ele>160.0</ele><time>2026-04-22T14:46:33Z</time></trkpt><trkpt lat="43.48210051502928" lon="5.350828306402852"><ele>160.0</ele><time>2026-04-22T14:46:34Z</time></trkpt><trkpt lat="43.48221280837054" lon="5.350734290870015"><ele>160.0</ele><time>2026-04-22T14:46:35Z</time></trkpt><trkpt lat="43.482315910201876" lon="5.350650637040737"><ele>160.0</ele><time>2026-04-22T14:46:36Z</time></trkpt><trkpt lat="43.48241336346623" lon="5.35056513042856"><ele>160.0</ele><time>2026-04-22T14:46:37Z</time></trkpt><trkpt lat="43.48249962986725" lon="5.350480500500692"><ele>161.0</ele><time>2026-04-22T14:46:38Z</time></trkpt><trkpt lat="43.48258285204489" lon="5.350407617637236"><ele>162.0</ele><time>2026-04-22T14:46:39Z</time></trkpt><trkpt lat="43.48266114253539" lon="5.35034724631251"><ele>163.0</ele><time>2026-04-22T14:46:40Z</time></trkpt><trkpt lat="43.48273780028863" lon="5.350300785046062"><ele>164.0</ele><time>2026-04-22T14:46:41Z</time></trkpt><trkpt lat="43.482829869827206" lon="5.350251543821871"><ele>165.0</ele><time>2026-04-22T14:46:42Z</time></trkpt><trkpt lat="43.48291311048926" lon="5.350224881889544"><ele>164.5</ele><time>2026-04-22T14:46:43Z</time></trkpt><trkpt lat="43.48298675659796" lon="5.350250606870003"><ele>164.0</ele><time>2026-04-22T14:46:44Z</time></trkpt><trkpt lat="43.483065606360476" lon="5.3502650269057765"><ele>163.5</ele><time>2026-04-22T14:46:45Z</time></trkpt><trkpt lat="43.48316013790982" lon="5.350215496915206"><ele>163.0</ele><time>2026-04-22T14:46:46Z</time></trkpt><trkpt lat="43.4831922075137" lon="5.350115457614125"><ele>162.5</ele><time>2026-04-22T14:46:47Z</time></trkpt><trkpt lat="43.48322821552392" lon="5.350032646446139"><ele>162.0</ele><time>2026-04-22T14:46:48Z</time></trkpt><trkpt lat="43.483243295604126" lon="5.3498620410130515"><ele>163.0</ele><time>2026-04-22T14:46:49Z</time></trkpt><trkpt lat="43.48323961803474" lon="5.349697791018866"><ele>164.0</ele><time>2026-04-22T14:46:50Z</time></trkpt><trkpt lat="43.483259734028" lon="5.349535732415818"><ele>165.0</ele><time>2026-04-22T14:46:51Z</time></trkpt><trkpt lat="43.48329253038769" lon="5.349373588118575"><ele>166.0</ele><time>2026-04-22T14:46:52Z</time></trkpt><trkpt lat="43.48330573678714" lon="5.349226813397784"><ele>166.0</ele><time>2026-04-22T14:46:53Z</time></trkpt><trkpt lat="43.483314731613916" lon="5.34907382042939"><ele>166.0</ele><time>2026-04-22T14:46:54Z</time></trkpt><trkpt lat="43.48332627455054" lon="5.3489236630974455"><ele>166.0</ele><time>2026-04-22T14:46:55.001Z</time></trkpt><trkpt lat="43.48333880090117" lon="5.348775939574587"><ele>166.0</ele><time>2026-04-22T14:46:56.001Z</time></trkpt><trkpt lat="43.483344259045374" lon="5.348616269614065"><ele>166.0</ele><time>2026-04-22T14:46:57.001Z</time></trkpt><trkpt lat="43.48335244867939" lon="5.348449619563533"><ele>166.0</ele><time>2026-04-22T14:46:58.001Z</time></trkpt><trkpt lat="43.48335662274389" lon="5.34826191032944"><ele>166.0</ele><time>2026-04-22T14:46:59.001Z</time></trkpt><trkpt lat="43.48336303362474" lon="5.348066781179375"><ele>166.0</ele><time>2026-04-22T14:47:00.001Z</time></trkpt><trkpt lat="43.483367309713" lon="5.347886995815387"><ele>166.0</ele><time>2026-04-22T14:47:01.001Z</time></trkpt><trkpt lat="43.48336075547796" lon="5.347720507244998"><ele>166.0</ele><time>2026-04-22T14:47:02.001Z</time></trkpt><trkpt lat="43.48335260046089" lon="5.3475694554264654"><ele>166.0</ele><time>2026-04-22T14:47:03.001Z</time></trkpt><trkpt lat="43.48336295607085" lon="5.347437392181127"><ele>166.0</ele><time>2026-04-22T14:47:04.001Z</time></trkpt><trkpt lat="43.4833775964887" lon="5.34733616109835"><ele>166.0</ele><time>2026-04-22T14:47:05.001Z</time></trkpt><trkpt lat="43.483432769080586" lon="5.347197464130057"><ele>166.0</ele><time>2026-04-22T14:47:07.001Z</time></trkpt><trkpt lat="43.483550663555754" lon="5.347197110152307"><ele>166.4</ele><time>2026-04-22T14:47:09.001Z</time></trkpt><trkpt lat="43.48364496004844" lon="5.347195973706389"><ele>166.8</ele><time>2026-04-22T14:47:10.001Z</time></trkpt><trkpt lat="43.48377377132996" lon="5.3472466208083524"><ele>167.20000000000002</ele><time>2026-04-22T14:47:11.001Z</time></trkpt><trkpt lat="43.4838741085502" lon="5.347237925760385"><ele>167.60000000000002</ele><time>2026-04-22T14:47:12.001Z</time></trkpt><trkpt lat="43.4839795686047" lon="5.34722964116003"><ele>168.0</ele><time>2026-04-22T14:47:13.001Z</time></trkpt><trkpt lat="43.48408785339394" lon="5.3472182888779205"><ele>167.5</ele><time>2026-04-22T14:47:14.001Z</time></trkpt><trkpt lat="43.4842043673501" lon="5.347205710771428"><ele>167.0</ele><time>2026-04-22T14:47:15.001Z</time></trkpt><trkpt lat="43.48433932724843" lon="5.347190215944339"><ele>166.5</ele><time>2026-04-22T14:47:16.001Z</time></trkpt><trkpt lat="43.48448241484389" lon="5.347177540375855"><ele>166.0</ele><time>2026-04-22T14:47:17.001Z</time></trkpt><trkpt lat="43.4846325342622" lon="5.347180088470189"><ele>165.5</ele><time>2026-04-22T14:47:18.001Z</time></trkpt><trkpt lat="43.484789734464385" lon="5.347182145174337"><ele>165.0</ele><time>2026-04-22T14:47:19.001Z</time></trkpt><trkpt lat="43.484935230645256" lon="5.347180635694328"><ele>164.5</ele><time>2026-04-22T14:47:20.001Z</time></trkpt><trkpt lat="43.48506563214214" lon="5.347165055812807"><ele>164.0</ele><time>2026-04-22T14:47:21.001Z</time></trkpt><trkpt lat="43.48518360316535" lon="5.3471370342692754"><ele>164.0</ele><time>2026-04-22T14:47:22.001Z</time></trkpt><trkpt lat="43.485294479648644" lon="5.3471176607439554"><ele>164.0</ele><time>2026-04-22T14:47:23.001Z</time></trkpt><trkpt lat="43.48540638719447" lon="5.34711417190245"><ele>164.0</ele><time>2026-04-22T14:47:24.001Z</time></trkpt><trkpt lat="43.48551601172792" lon="5.347111331578715"><ele>164.0</ele><time>2026-04-22T14:47:25.001Z</time></trkpt><trkpt lat="43.48560322066133" lon="5.347099921802234"><ele>164.0</ele><time>2026-04-22T14:47:26.001Z</time></trkpt><trkpt lat="43.485692621787976" lon="5.347091939676126"><ele>163.66666666666666</ele><time>2026-04-22T14:47:27.001Z</time></trkpt><trkpt lat="43.48578410136719" lon="5.347078983766152"><ele>163.33333333333331</ele><time>2026-04-22T14:47:28.001Z</time></trkpt><trkpt lat="43.485863718866995" lon="5.347075732449366"><ele>163.0</ele><time>2026-04-22T14:47:29.001Z</time></trkpt><trkpt lat="43.48598578641626" lon="5.347047946696758"><ele>162.66666666666666</ele><time>2026-04-22T14:47:31.001Z</time></trkpt><trkpt lat="43.48599436462113" lon="5.346948209476965"><ele>162.33333333333334</ele><time>2026-04-22T14:47:34.001Z</time></trkpt><trkpt lat="43.485988751577885" lon="5.346855584746851"><ele>162.0</ele><time>2026-04-22T14:48:27.011Z</time></trkpt><trkpt lat="43.48597385780894" lon="5.3467699480597615"><ele>162.0</ele><time>2026-04-22T14:48:30.022Z</time></trkpt><trkpt lat="43.485786317488866" lon="5.346858802565698"><ele>162.0</ele><time>2026-04-22T14:49:10.202Z</time></trkpt><trkpt lat="43.48602718218474" lon="5.34678551643817"><ele>162.0</ele><time>2026-04-22T14:49:49.085Z</time></trkpt><trkpt lat="43.48575951761564" lon="5.346914020367724"><ele>162.0</ele><time>2026-04-22T14:50:03.706Z</time></trkpt><trkpt lat="43.48602718218474" lon="5.34678551643817"><ele>162.0</ele><time>2026-04-22T14:50:11.085Z</time></trkpt><trkpt lat="43.485743258386655" lon="5.34680887377552"><ele>162.0</ele><time>2026-04-22T14:50:28.58Z</time></trkpt><trkpt lat="43.48602718218474" lon="5.34678551643817"><ele>162.0</ele><time>2026-04-22T14:50:41.889Z</time></trkpt><trkpt lat="43.48576805037157" lon="5.346861817056518"><ele>162.0</ele><time>2026-04-22T14:51:43.208Z</time></trkpt><trkpt lat="43.48604927141498" lon="5.346957214926264"><ele>162.0</ele><time>2026-04-22T14:53:21.431Z</time></trkpt><trkpt lat="43.48606462086186" lon="5.346839279063995"><ele>162.0</ele><time>2026-04-22T14:57:57.457Z</time></trkpt></trkseg></trk></gpx>